<?xml version="1.0" encoding="UTF-8" standalone="no" ?>
<gpx xmlns="http://www.topografix.com/GPX/1/1" xmlns:xsi="http://www.w3.org/2001/XMLSchema-instance" xsi:schemaLocation="http://www.topografix.com/GPX/1/1 http://www.topografix.com/GPX/1/1/gpx.xsd" version="1.1" creator="VisuGPX - https://www.visugpx.com">
  <metadata>
    <name>voyage total </name>
  </metadata>
  <trk>
    <name><![CDATA[T23]]></name>
    <trkseg>
      <trkpt lat="49.17072" lon="6.93504">
        <ele>336.2</ele>
        <time>2020-06-27T08:52:54Z</time>
      </trkpt>
      <trkpt lat="49.17071" lon="6.93506">
        <ele>336.3</ele>
        <time>2020-06-27T08:52:55Z</time>
      </trkpt>
      <trkpt lat="49.17071" lon="6.93505">
        <ele>336.3</ele>
        <time>2020-06-27T08:52:56Z</time>
      </trkpt>
      <trkpt lat="49.1707" lon="6.93505">
        <ele>336.4</ele>
        <time>2020-06-27T08:52:57Z</time>
      </trkpt>
      <trkpt lat="49.17069" lon="6.93504">
        <ele>336.4</ele>
        <time>2020-06-27T08:52:58Z</time>
      </trkpt>
      <trkpt lat="49.17068" lon="6.93504">
        <ele>336.5</ele>
        <time>2020-06-27T08:52:59Z</time>
      </trkpt>
      <trkpt lat="49.17068" lon="6.93504">
        <ele>336.5</ele>
        <time>2020-06-27T08:53:00Z</time>
      </trkpt>
      <trkpt lat="49.17068" lon="6.93505">
        <ele>336.5</ele>
        <time>2020-06-27T08:53:02Z</time>
      </trkpt>
      <trkpt lat="49.17068" lon="6.93505">
        <ele>336.5</ele>
        <time>2020-06-27T08:53:03Z</time>
      </trkpt>
      <trkpt lat="49.17068" lon="6.93505">
        <ele>336.5</ele>
        <time>2020-06-27T08:53:04Z</time>
      </trkpt>
      <trkpt lat="49.17057" lon="6.93493">
        <ele>336</ele>
        <time>2020-06-27T08:54:17Z</time>
      </trkpt>
      <trkpt lat="49.17055" lon="6.93489">
        <ele>335.9</ele>
        <time>2020-06-27T08:54:18Z</time>
      </trkpt>
      <trkpt lat="49.17054" lon="6.93486">
        <ele>335.9</ele>
        <time>2020-06-27T08:54:19Z</time>
      </trkpt>
      <trkpt lat="49.17054" lon="6.93486">
        <ele>335.9</ele>
        <time>2020-06-27T08:54:20Z</time>
      </trkpt>
      <trkpt lat="49.17054" lon="6.93485">
        <ele>335.8</ele>
        <time>2020-06-27T08:54:21Z</time>
      </trkpt>
      <trkpt lat="49.17054" lon="6.93484">
        <ele>335.8</ele>
        <time>2020-06-27T08:54:22Z</time>
      </trkpt>
      <trkpt lat="49.17054" lon="6.93483">
        <ele>335.8</ele>
        <time>2020-06-27T08:54:23Z</time>
      </trkpt>
      <trkpt lat="49.17054" lon="6.93482">
        <ele>335.8</ele>
        <time>2020-06-27T08:54:24Z</time>
      </trkpt>
      <trkpt lat="49.17054" lon="6.9348">
        <ele>335.7</ele>
        <time>2020-06-27T08:54:25Z</time>
      </trkpt>
      <trkpt lat="49.17054" lon="6.93479">
        <ele>335.7</ele>
        <time>2020-06-27T08:54:26Z</time>
      </trkpt>
      <trkpt lat="49.17053" lon="6.93478">
        <ele>335.7</ele>
        <time>2020-06-27T08:54:27Z</time>
      </trkpt>
      <trkpt lat="49.17054" lon="6.93476">
        <ele>335.7</ele>
        <time>2020-06-27T08:54:28Z</time>
      </trkpt>
      <trkpt lat="49.17054" lon="6.93473">
        <ele>335.6</ele>
        <time>2020-06-27T08:54:29Z</time>
      </trkpt>
      <trkpt lat="49.17056" lon="6.9347">
        <ele>335.5</ele>
        <time>2020-06-27T08:54:30Z</time>
      </trkpt>
      <trkpt lat="49.17057" lon="6.93468">
        <ele>335.5</ele>
        <time>2020-06-27T08:54:31Z</time>
      </trkpt>
      <trkpt lat="49.17058" lon="6.93464">
        <ele>335.4</ele>
        <time>2020-06-27T08:54:32Z</time>
      </trkpt>
      <trkpt lat="49.1706" lon="6.93462">
        <ele>335.3</ele>
        <time>2020-06-27T08:54:33Z</time>
      </trkpt>
      <trkpt lat="49.17061" lon="6.93462">
        <ele>335.3</ele>
        <time>2020-06-27T08:54:34Z</time>
      </trkpt>
      <trkpt lat="49.17063" lon="6.9346">
        <ele>335.2</ele>
        <time>2020-06-27T08:54:35Z</time>
      </trkpt>
      <trkpt lat="49.17063" lon="6.93459">
        <ele>335.2</ele>
        <time>2020-06-27T08:54:36Z</time>
      </trkpt>
      <trkpt lat="49.17064" lon="6.93458">
        <ele>335.1</ele>
        <time>2020-06-27T08:54:37Z</time>
      </trkpt>
      <trkpt lat="49.17065" lon="6.93456">
        <ele>335.1</ele>
        <time>2020-06-27T08:54:38Z</time>
      </trkpt>
      <trkpt lat="49.17066" lon="6.93454">
        <ele>335</ele>
        <time>2020-06-27T08:54:39Z</time>
      </trkpt>
      <trkpt lat="49.17067" lon="6.93453">
        <ele>335</ele>
        <time>2020-06-27T08:54:40Z</time>
      </trkpt>
      <trkpt lat="49.17069" lon="6.93451">
        <ele>334.9</ele>
        <time>2020-06-27T08:54:41Z</time>
      </trkpt>
      <trkpt lat="49.17072" lon="6.93454">
        <ele>334.8</ele>
        <time>2020-06-27T08:54:42Z</time>
      </trkpt>
      <trkpt lat="49.17074" lon="6.93456">
        <ele>334.7</ele>
        <time>2020-06-27T08:54:43Z</time>
      </trkpt>
      <trkpt lat="49.17076" lon="6.9346">
        <ele>333.6</ele>
        <time>2020-06-27T08:54:44Z</time>
      </trkpt>
      <trkpt lat="49.17079" lon="6.93464">
        <ele>333.3</ele>
        <time>2020-06-27T08:54:45Z</time>
      </trkpt>
      <trkpt lat="49.17082" lon="6.93469">
        <ele>332.9</ele>
        <time>2020-06-27T08:54:46Z</time>
      </trkpt>
      <trkpt lat="49.17084" lon="6.93474">
        <ele>332.5</ele>
        <time>2020-06-27T08:54:47Z</time>
      </trkpt>
      <trkpt lat="49.17086" lon="6.9348">
        <ele>332</ele>
        <time>2020-06-27T08:54:48Z</time>
      </trkpt>
      <trkpt lat="49.17088" lon="6.93486">
        <ele>331.5</ele>
        <time>2020-06-27T08:54:49Z</time>
      </trkpt>
      <trkpt lat="49.17091" lon="6.93491">
        <ele>331</ele>
        <time>2020-06-27T08:54:50Z</time>
      </trkpt>
      <trkpt lat="49.17093" lon="6.93497">
        <ele>330.6</ele>
        <time>2020-06-27T08:54:51Z</time>
      </trkpt>
      <trkpt lat="49.17096" lon="6.93501">
        <ele>330.3</ele>
        <time>2020-06-27T08:54:52Z</time>
      </trkpt>
      <trkpt lat="49.17098" lon="6.93504">
        <ele>330</ele>
        <time>2020-06-27T08:54:53Z</time>
      </trkpt>
      <trkpt lat="49.171" lon="6.93509">
        <ele>329.8</ele>
        <time>2020-06-27T08:54:54Z</time>
      </trkpt>
      <trkpt lat="49.17102" lon="6.93514">
        <ele>329.5</ele>
        <time>2020-06-27T08:54:55Z</time>
      </trkpt>
      <trkpt lat="49.17103" lon="6.93519">
        <ele>329.3</ele>
        <time>2020-06-27T08:54:56Z</time>
      </trkpt>
      <trkpt lat="49.17101" lon="6.93523">
        <ele>329.1</ele>
        <time>2020-06-27T08:54:57Z</time>
      </trkpt>
      <trkpt lat="49.17099" lon="6.93527">
        <ele>329.2</ele>
        <time>2020-06-27T08:54:58Z</time>
      </trkpt>
      <trkpt lat="49.17097" lon="6.93531">
        <ele>329.3</ele>
        <time>2020-06-27T08:54:59Z</time>
      </trkpt>
      <trkpt lat="49.17095" lon="6.93533">
        <ele>329.4</ele>
        <time>2020-06-27T08:55:00Z</time>
      </trkpt>
      <trkpt lat="49.17091" lon="6.93536">
        <ele>329.6</ele>
        <time>2020-06-27T08:55:01Z</time>
      </trkpt>
      <trkpt lat="49.17088" lon="6.93538">
        <ele>329.6</ele>
        <time>2020-06-27T08:55:02Z</time>
      </trkpt>
      <trkpt lat="49.17085" lon="6.93541">
        <ele>329.7</ele>
        <time>2020-06-27T08:55:03Z</time>
      </trkpt>
      <trkpt lat="49.17082" lon="6.93545">
        <ele>329.8</ele>
        <time>2020-06-27T08:55:04Z</time>
      </trkpt>
      <trkpt lat="49.1708" lon="6.93547">
        <ele>329.9</ele>
        <time>2020-06-27T08:55:05Z</time>
      </trkpt>
      <trkpt lat="49.17077" lon="6.9355">
        <ele>329.9</ele>
        <time>2020-06-27T08:55:06Z</time>
      </trkpt>
      <trkpt lat="49.17075" lon="6.93554">
        <ele>330</ele>
        <time>2020-06-27T08:55:07Z</time>
      </trkpt>
      <trkpt lat="49.17075" lon="6.93555">
        <ele>330</ele>
        <time>2020-06-27T08:55:08Z</time>
      </trkpt>
      <trkpt lat="49.17072" lon="6.93557">
        <ele>330</ele>
        <time>2020-06-27T08:55:09Z</time>
      </trkpt>
      <trkpt lat="49.17071" lon="6.93557">
        <ele>330.1</ele>
        <time>2020-06-27T08:55:10Z</time>
      </trkpt>
      <trkpt lat="49.17068" lon="6.93561">
        <ele>330.1</ele>
        <time>2020-06-27T08:55:11Z</time>
      </trkpt>
      <trkpt lat="49.17065" lon="6.93566">
        <ele>330.1</ele>
        <time>2020-06-27T08:55:12Z</time>
      </trkpt>
      <trkpt lat="49.17063" lon="6.9357">
        <ele>330.2</ele>
        <time>2020-06-27T08:55:13Z</time>
      </trkpt>
      <trkpt lat="49.17062" lon="6.93574">
        <ele>330.2</ele>
        <time>2020-06-27T08:55:14Z</time>
      </trkpt>
      <trkpt lat="49.1706" lon="6.93577">
        <ele>330.2</ele>
        <time>2020-06-27T08:55:15Z</time>
      </trkpt>
      <trkpt lat="49.17058" lon="6.93582">
        <ele>330.2</ele>
        <time>2020-06-27T08:55:16Z</time>
      </trkpt>
      <trkpt lat="49.17057" lon="6.93583">
        <ele>330.2</ele>
        <time>2020-06-27T08:55:17Z</time>
      </trkpt>
      <trkpt lat="49.17056" lon="6.93588">
        <ele>330.2</ele>
        <time>2020-06-27T08:55:18Z</time>
      </trkpt>
      <trkpt lat="49.17055" lon="6.93589">
        <ele>330.2</ele>
        <time>2020-06-27T08:55:19Z</time>
      </trkpt>
      <trkpt lat="49.17053" lon="6.93594">
        <ele>330.2</ele>
        <time>2020-06-27T08:55:20Z</time>
      </trkpt>
      <trkpt lat="49.17051" lon="6.93596">
        <ele>330.2</ele>
        <time>2020-06-27T08:55:21Z</time>
      </trkpt>
      <trkpt lat="49.17048" lon="6.936">
        <ele>330.2</ele>
        <time>2020-06-27T08:55:22Z</time>
      </trkpt>
      <trkpt lat="49.17046" lon="6.93604">
        <ele>330.2</ele>
        <time>2020-06-27T08:55:23Z</time>
      </trkpt>
      <trkpt lat="49.17043" lon="6.93608">
        <ele>330.1</ele>
        <time>2020-06-27T08:55:24Z</time>
      </trkpt>
      <trkpt lat="49.17041" lon="6.93612">
        <ele>330.1</ele>
        <time>2020-06-27T08:55:25Z</time>
      </trkpt>
      <trkpt lat="49.17039" lon="6.93615">
        <ele>330</ele>
        <time>2020-06-27T08:55:26Z</time>
      </trkpt>
      <trkpt lat="49.17036" lon="6.93621">
        <ele>329.8</ele>
        <time>2020-06-27T08:55:27Z</time>
      </trkpt>
      <trkpt lat="49.17032" lon="6.93625">
        <ele>329.7</ele>
        <time>2020-06-27T08:55:28Z</time>
      </trkpt>
      <trkpt lat="49.17029" lon="6.93629">
        <ele>329.6</ele>
        <time>2020-06-27T08:55:29Z</time>
      </trkpt>
      <trkpt lat="49.17026" lon="6.93632">
        <ele>329.6</ele>
        <time>2020-06-27T08:55:30Z</time>
      </trkpt>
      <trkpt lat="49.17024" lon="6.93635">
        <ele>329.5</ele>
        <time>2020-06-27T08:55:31Z</time>
      </trkpt>
      <trkpt lat="49.17021" lon="6.93639">
        <ele>329.4</ele>
        <time>2020-06-27T08:55:32Z</time>
      </trkpt>
      <trkpt lat="49.17018" lon="6.93642">
        <ele>329.4</ele>
        <time>2020-06-27T08:55:33Z</time>
      </trkpt>
      <trkpt lat="49.17016" lon="6.93646">
        <ele>329.3</ele>
        <time>2020-06-27T08:55:34Z</time>
      </trkpt>
      <trkpt lat="49.17013" lon="6.9365">
        <ele>329.2</ele>
        <time>2020-06-27T08:55:35Z</time>
      </trkpt>
      <trkpt lat="49.1701" lon="6.93654">
        <ele>329</ele>
        <time>2020-06-27T08:55:36Z</time>
      </trkpt>
      <trkpt lat="49.17007" lon="6.93659">
        <ele>328.9</ele>
        <time>2020-06-27T08:55:37Z</time>
      </trkpt>
      <trkpt lat="49.17003" lon="6.93663">
        <ele>328.7</ele>
        <time>2020-06-27T08:55:38Z</time>
      </trkpt>
      <trkpt lat="49.17" lon="6.93666">
        <ele>328.7</ele>
        <time>2020-06-27T08:55:39Z</time>
      </trkpt>
      <trkpt lat="49.16997" lon="6.9367">
        <ele>328.6</ele>
        <time>2020-06-27T08:55:40Z</time>
      </trkpt>
      <trkpt lat="49.16994" lon="6.93675">
        <ele>328.4</ele>
        <time>2020-06-27T08:55:41Z</time>
      </trkpt>
      <trkpt lat="49.16991" lon="6.93678">
        <ele>328.2</ele>
        <time>2020-06-27T08:55:42Z</time>
      </trkpt>
      <trkpt lat="49.16988" lon="6.93681">
        <ele>328.1</ele>
        <time>2020-06-27T08:55:43Z</time>
      </trkpt>
      <trkpt lat="49.16985" lon="6.93685">
        <ele>327.9</ele>
        <time>2020-06-27T08:55:44Z</time>
      </trkpt>
      <trkpt lat="49.16982" lon="6.93688">
        <ele>327.8</ele>
        <time>2020-06-27T08:55:45Z</time>
      </trkpt>
      <trkpt lat="49.1698" lon="6.93693">
        <ele>327.5</ele>
        <time>2020-06-27T08:55:46Z</time>
      </trkpt>
      <trkpt lat="49.16977" lon="6.93695">
        <ele>327.4</ele>
        <time>2020-06-27T08:55:47Z</time>
      </trkpt>
      <trkpt lat="49.16974" lon="6.93698">
        <ele>327.2</ele>
        <time>2020-06-27T08:55:48Z</time>
      </trkpt>
      <trkpt lat="49.16971" lon="6.93699">
        <ele>326.8</ele>
        <time>2020-06-27T08:55:49Z</time>
      </trkpt>
      <trkpt lat="49.16967" lon="6.93699">
        <ele>326.7</ele>
        <time>2020-06-27T08:55:50Z</time>
      </trkpt>
      <trkpt lat="49.16963" lon="6.93698">
        <ele>326.6</ele>
        <time>2020-06-27T08:55:51Z</time>
      </trkpt>
      <trkpt lat="49.16958" lon="6.93696">
        <ele>326.5</ele>
        <time>2020-06-27T08:55:52Z</time>
      </trkpt>
      <trkpt lat="49.16953" lon="6.93694">
        <ele>326.3</ele>
        <time>2020-06-27T08:55:53Z</time>
      </trkpt>
      <trkpt lat="49.16949" lon="6.93692">
        <ele>326.2</ele>
        <time>2020-06-27T08:55:54Z</time>
      </trkpt>
      <trkpt lat="49.16944" lon="6.9369">
        <ele>326.1</ele>
        <time>2020-06-27T08:55:55Z</time>
      </trkpt>
      <trkpt lat="49.1694" lon="6.93687">
        <ele>326</ele>
        <time>2020-06-27T08:55:56Z</time>
      </trkpt>
      <trkpt lat="49.16934" lon="6.93686">
        <ele>325.8</ele>
        <time>2020-06-27T08:55:57Z</time>
      </trkpt>
      <trkpt lat="49.16929" lon="6.93686">
        <ele>325.7</ele>
        <time>2020-06-27T08:55:58Z</time>
      </trkpt>
      <trkpt lat="49.16925" lon="6.93683">
        <ele>325.6</ele>
        <time>2020-06-27T08:55:59Z</time>
      </trkpt>
      <trkpt lat="49.1692" lon="6.93682">
        <ele>325.6</ele>
        <time>2020-06-27T08:56:00Z</time>
      </trkpt>
      <trkpt lat="49.16915" lon="6.93682">
        <ele>325.5</ele>
        <time>2020-06-27T08:56:01Z</time>
      </trkpt>
      <trkpt lat="49.1691" lon="6.93681">
        <ele>325.4</ele>
        <time>2020-06-27T08:56:02Z</time>
      </trkpt>
      <trkpt lat="49.16905" lon="6.93679">
        <ele>325.4</ele>
        <time>2020-06-27T08:56:03Z</time>
      </trkpt>
      <trkpt lat="49.16901" lon="6.93675">
        <ele>325.4</ele>
        <time>2020-06-27T08:56:04Z</time>
      </trkpt>
      <trkpt lat="49.16897" lon="6.93672">
        <ele>325.3</ele>
        <time>2020-06-27T08:56:05Z</time>
      </trkpt>
      <trkpt lat="49.16894" lon="6.93669">
        <ele>325.5</ele>
        <time>2020-06-27T08:56:06Z</time>
      </trkpt>
      <trkpt lat="49.1689" lon="6.93667">
        <ele>325.5</ele>
        <time>2020-06-27T08:56:07Z</time>
      </trkpt>
      <trkpt lat="49.16886" lon="6.93665">
        <ele>325.6</ele>
        <time>2020-06-27T08:56:08Z</time>
      </trkpt>
      <trkpt lat="49.16883" lon="6.93666">
        <ele>325.5</ele>
        <time>2020-06-27T08:56:09Z</time>
      </trkpt>
      <trkpt lat="49.16881" lon="6.93668">
        <ele>325.5</ele>
        <time>2020-06-27T08:56:10Z</time>
      </trkpt>
      <trkpt lat="49.16878" lon="6.93672">
        <ele>325.5</ele>
        <time>2020-06-27T08:56:11Z</time>
      </trkpt>
      <trkpt lat="49.16876" lon="6.93677">
        <ele>325.4</ele>
        <time>2020-06-27T08:56:12Z</time>
      </trkpt>
      <trkpt lat="49.16875" lon="6.93682">
        <ele>325.3</ele>
        <time>2020-06-27T08:56:13Z</time>
      </trkpt>
      <trkpt lat="49.16874" lon="6.93687">
        <ele>325.3</ele>
        <time>2020-06-27T08:56:14Z</time>
      </trkpt>
      <trkpt lat="49.16874" lon="6.93693">
        <ele>325.2</ele>
        <time>2020-06-27T08:56:15Z</time>
      </trkpt>
      <trkpt lat="49.16874" lon="6.93697">
        <ele>324.7</ele>
        <time>2020-06-27T08:56:16Z</time>
      </trkpt>
      <trkpt lat="49.16874" lon="6.93702">
        <ele>324.6</ele>
        <time>2020-06-27T08:56:17Z</time>
      </trkpt>
      <trkpt lat="49.16873" lon="6.93709">
        <ele>324.4</ele>
        <time>2020-06-27T08:56:18Z</time>
      </trkpt>
      <trkpt lat="49.16872" lon="6.93716">
        <ele>324.3</ele>
        <time>2020-06-27T08:56:19Z</time>
      </trkpt>
      <trkpt lat="49.16869" lon="6.93721">
        <ele>324.1</ele>
        <time>2020-06-27T08:56:20Z</time>
      </trkpt>
      <trkpt lat="49.16867" lon="6.93727">
        <ele>323.9</ele>
        <time>2020-06-27T08:56:21Z</time>
      </trkpt>
      <trkpt lat="49.16866" lon="6.93733">
        <ele>323.8</ele>
        <time>2020-06-27T08:56:22Z</time>
      </trkpt>
      <trkpt lat="49.16864" lon="6.93737">
        <ele>323.6</ele>
        <time>2020-06-27T08:56:23Z</time>
      </trkpt>
      <trkpt lat="49.16862" lon="6.93742">
        <ele>323.5</ele>
        <time>2020-06-27T08:56:24Z</time>
      </trkpt>
      <trkpt lat="49.16861" lon="6.93749">
        <ele>323.3</ele>
        <time>2020-06-27T08:56:25Z</time>
      </trkpt>
      <trkpt lat="49.1686" lon="6.93755">
        <ele>323.2</ele>
        <time>2020-06-27T08:56:26Z</time>
      </trkpt>
      <trkpt lat="49.16858" lon="6.93762">
        <ele>323</ele>
        <time>2020-06-27T08:56:27Z</time>
      </trkpt>
      <trkpt lat="49.16856" lon="6.93767">
        <ele>322.9</ele>
        <time>2020-06-27T08:56:28Z</time>
      </trkpt>
      <trkpt lat="49.16854" lon="6.93773">
        <ele>322.7</ele>
        <time>2020-06-27T08:56:29Z</time>
      </trkpt>
      <trkpt lat="49.16851" lon="6.93778">
        <ele>322.6</ele>
        <time>2020-06-27T08:56:30Z</time>
      </trkpt>
      <trkpt lat="49.16849" lon="6.93785">
        <ele>322.5</ele>
        <time>2020-06-27T08:56:31Z</time>
      </trkpt>
      <trkpt lat="49.16847" lon="6.93792">
        <ele>322.3</ele>
        <time>2020-06-27T08:56:32Z</time>
      </trkpt>
      <trkpt lat="49.16843" lon="6.938">
        <ele>322.1</ele>
        <time>2020-06-27T08:56:33Z</time>
      </trkpt>
      <trkpt lat="49.16841" lon="6.93808">
        <ele>322</ele>
        <time>2020-06-27T08:56:34Z</time>
      </trkpt>
      <trkpt lat="49.16838" lon="6.93816">
        <ele>321.8</ele>
        <time>2020-06-27T08:56:35Z</time>
      </trkpt>
      <trkpt lat="49.16836" lon="6.93825">
        <ele>321.7</ele>
        <time>2020-06-27T08:56:36Z</time>
      </trkpt>
      <trkpt lat="49.16833" lon="6.93834">
        <ele>321.5</ele>
        <time>2020-06-27T08:56:37Z</time>
      </trkpt>
      <trkpt lat="49.16831" lon="6.93843">
        <ele>321.4</ele>
        <time>2020-06-27T08:56:38Z</time>
      </trkpt>
      <trkpt lat="49.16828" lon="6.93849">
        <ele>321.2</ele>
        <time>2020-06-27T08:56:39Z</time>
      </trkpt>
      <trkpt lat="49.16827" lon="6.93857">
        <ele>321</ele>
        <time>2020-06-27T08:56:40Z</time>
      </trkpt>
      <trkpt lat="49.16824" lon="6.93864">
        <ele>320.9</ele>
        <time>2020-06-27T08:56:41Z</time>
      </trkpt>
      <trkpt lat="49.1682" lon="6.93872">
        <ele>320.7</ele>
        <time>2020-06-27T08:56:42Z</time>
      </trkpt>
      <trkpt lat="49.16818" lon="6.93882">
        <ele>320.5</ele>
        <time>2020-06-27T08:56:43Z</time>
      </trkpt>
      <trkpt lat="49.16814" lon="6.93891">
        <ele>320.2</ele>
        <time>2020-06-27T08:56:44Z</time>
      </trkpt>
      <trkpt lat="49.16812" lon="6.93901">
        <ele>320</ele>
        <time>2020-06-27T08:56:45Z</time>
      </trkpt>
      <trkpt lat="49.16809" lon="6.93909">
        <ele>319.9</ele>
        <time>2020-06-27T08:56:46Z</time>
      </trkpt>
      <trkpt lat="49.16807" lon="6.93916">
        <ele>319.7</ele>
        <time>2020-06-27T08:56:47Z</time>
      </trkpt>
      <trkpt lat="49.16806" lon="6.93922">
        <ele>319.7</ele>
        <time>2020-06-27T08:56:48Z</time>
      </trkpt>
      <trkpt lat="49.16803" lon="6.93932">
        <ele>319.5</ele>
        <time>2020-06-27T08:56:49Z</time>
      </trkpt>
      <trkpt lat="49.16802" lon="6.93941">
        <ele>319.3</ele>
        <time>2020-06-27T08:56:50Z</time>
      </trkpt>
      <trkpt lat="49.16801" lon="6.93946">
        <ele>319.2</ele>
        <time>2020-06-27T08:56:51Z</time>
      </trkpt>
      <trkpt lat="49.16799" lon="6.93952">
        <ele>319</ele>
        <time>2020-06-27T08:56:52Z</time>
      </trkpt>
      <trkpt lat="49.16798" lon="6.93956">
        <ele>318.9</ele>
        <time>2020-06-27T08:56:53Z</time>
      </trkpt>
      <trkpt lat="49.16796" lon="6.93961">
        <ele>318.8</ele>
        <time>2020-06-27T08:56:54Z</time>
      </trkpt>
      <trkpt lat="49.16795" lon="6.93969">
        <ele>318.6</ele>
        <time>2020-06-27T08:56:55Z</time>
      </trkpt>
      <trkpt lat="49.16793" lon="6.93977">
        <ele>318.4</ele>
        <time>2020-06-27T08:56:56Z</time>
      </trkpt>
      <trkpt lat="49.1679" lon="6.93985">
        <ele>318.2</ele>
        <time>2020-06-27T08:56:57Z</time>
      </trkpt>
      <trkpt lat="49.16789" lon="6.93994">
        <ele>317.9</ele>
        <time>2020-06-27T08:56:58Z</time>
      </trkpt>
      <trkpt lat="49.16788" lon="6.94001">
        <ele>317.7</ele>
        <time>2020-06-27T08:56:59Z</time>
      </trkpt>
      <trkpt lat="49.16787" lon="6.94008">
        <ele>317.5</ele>
        <time>2020-06-27T08:57:00Z</time>
      </trkpt>
      <trkpt lat="49.16785" lon="6.94016">
        <ele>317.3</ele>
        <time>2020-06-27T08:57:01Z</time>
      </trkpt>
      <trkpt lat="49.16784" lon="6.94026">
        <ele>317</ele>
        <time>2020-06-27T08:57:02Z</time>
      </trkpt>
      <trkpt lat="49.16782" lon="6.94034">
        <ele>316.8</ele>
        <time>2020-06-27T08:57:03Z</time>
      </trkpt>
      <trkpt lat="49.1678" lon="6.94041">
        <ele>316.6</ele>
        <time>2020-06-27T08:57:04Z</time>
      </trkpt>
      <trkpt lat="49.16778" lon="6.94051">
        <ele>316.3</ele>
        <time>2020-06-27T08:57:05Z</time>
      </trkpt>
      <trkpt lat="49.16776" lon="6.9406">
        <ele>316.1</ele>
        <time>2020-06-27T08:57:06Z</time>
      </trkpt>
      <trkpt lat="49.16774" lon="6.94068">
        <ele>315.9</ele>
        <time>2020-06-27T08:57:07Z</time>
      </trkpt>
      <trkpt lat="49.16773" lon="6.94075">
        <ele>315.7</ele>
        <time>2020-06-27T08:57:08Z</time>
      </trkpt>
      <trkpt lat="49.16771" lon="6.94083">
        <ele>315.5</ele>
        <time>2020-06-27T08:57:09Z</time>
      </trkpt>
      <trkpt lat="49.16768" lon="6.9409">
        <ele>315.3</ele>
        <time>2020-06-27T08:57:10Z</time>
      </trkpt>
      <trkpt lat="49.16766" lon="6.94097">
        <ele>315.1</ele>
        <time>2020-06-27T08:57:11Z</time>
      </trkpt>
      <trkpt lat="49.16765" lon="6.94106">
        <ele>314.9</ele>
        <time>2020-06-27T08:57:12Z</time>
      </trkpt>
      <trkpt lat="49.16763" lon="6.94114">
        <ele>314.7</ele>
        <time>2020-06-27T08:57:13Z</time>
      </trkpt>
      <trkpt lat="49.16762" lon="6.94123">
        <ele>314.5</ele>
        <time>2020-06-27T08:57:14Z</time>
      </trkpt>
      <trkpt lat="49.1676" lon="6.94131">
        <ele>314.3</ele>
        <time>2020-06-27T08:57:15Z</time>
      </trkpt>
      <trkpt lat="49.16758" lon="6.9414">
        <ele>314</ele>
        <time>2020-06-27T08:57:16Z</time>
      </trkpt>
      <trkpt lat="49.16757" lon="6.94148">
        <ele>313.8</ele>
        <time>2020-06-27T08:57:17Z</time>
      </trkpt>
      <trkpt lat="49.16755" lon="6.94157">
        <ele>313.6</ele>
        <time>2020-06-27T08:57:18Z</time>
      </trkpt>
      <trkpt lat="49.16754" lon="6.94165">
        <ele>313.6</ele>
        <time>2020-06-27T08:57:19Z</time>
      </trkpt>
      <trkpt lat="49.16752" lon="6.94172">
        <ele>313.6</ele>
        <time>2020-06-27T08:57:20Z</time>
      </trkpt>
      <trkpt lat="49.1675" lon="6.9418">
        <ele>313.5</ele>
        <time>2020-06-27T08:57:21Z</time>
      </trkpt>
      <trkpt lat="49.16748" lon="6.94187">
        <ele>313.4</ele>
        <time>2020-06-27T08:57:22Z</time>
      </trkpt>
      <trkpt lat="49.16746" lon="6.94194">
        <ele>313.2</ele>
        <time>2020-06-27T08:57:23Z</time>
      </trkpt>
      <trkpt lat="49.16744" lon="6.94203">
        <ele>313.1</ele>
        <time>2020-06-27T08:57:24Z</time>
      </trkpt>
      <trkpt lat="49.16741" lon="6.94211">
        <ele>312.9</ele>
        <time>2020-06-27T08:57:25Z</time>
      </trkpt>
      <trkpt lat="49.1674" lon="6.94219">
        <ele>312.8</ele>
        <time>2020-06-27T08:57:26Z</time>
      </trkpt>
      <trkpt lat="49.16739" lon="6.94223">
        <ele>312.7</ele>
        <time>2020-06-27T08:57:27Z</time>
      </trkpt>
      <trkpt lat="49.16737" lon="6.94233">
        <ele>312.5</ele>
        <time>2020-06-27T08:57:28Z</time>
      </trkpt>
      <trkpt lat="49.16735" lon="6.94241">
        <ele>312.4</ele>
        <time>2020-06-27T08:57:29Z</time>
      </trkpt>
      <trkpt lat="49.16733" lon="6.9425">
        <ele>312.2</ele>
        <time>2020-06-27T08:57:30Z</time>
      </trkpt>
      <trkpt lat="49.16731" lon="6.94257">
        <ele>312.1</ele>
        <time>2020-06-27T08:57:31Z</time>
      </trkpt>
      <trkpt lat="49.16729" lon="6.94265">
        <ele>311.9</ele>
        <time>2020-06-27T08:57:32Z</time>
      </trkpt>
      <trkpt lat="49.16727" lon="6.94274">
        <ele>311.7</ele>
        <time>2020-06-27T08:57:33Z</time>
      </trkpt>
      <trkpt lat="49.16726" lon="6.94282">
        <ele>311.5</ele>
        <time>2020-06-27T08:57:34Z</time>
      </trkpt>
      <trkpt lat="49.16724" lon="6.94287">
        <ele>311.4</ele>
        <time>2020-06-27T08:57:35Z</time>
      </trkpt>
      <trkpt lat="49.16722" lon="6.94296">
        <ele>311.2</ele>
        <time>2020-06-27T08:57:36Z</time>
      </trkpt>
      <trkpt lat="49.1672" lon="6.94304">
        <ele>311</ele>
        <time>2020-06-27T08:57:37Z</time>
      </trkpt>
      <trkpt lat="49.16718" lon="6.9431">
        <ele>310.9</ele>
        <time>2020-06-27T08:57:38Z</time>
      </trkpt>
      <trkpt lat="49.16717" lon="6.94316">
        <ele>310.8</ele>
        <time>2020-06-27T08:57:39Z</time>
      </trkpt>
      <trkpt lat="49.16715" lon="6.94323">
        <ele>310.6</ele>
        <time>2020-06-27T08:57:40Z</time>
      </trkpt>
      <trkpt lat="49.16714" lon="6.94329">
        <ele>310.5</ele>
        <time>2020-06-27T08:57:41Z</time>
      </trkpt>
      <trkpt lat="49.16714" lon="6.94335">
        <ele>310.3</ele>
        <time>2020-06-27T08:57:42Z</time>
      </trkpt>
      <trkpt lat="49.16713" lon="6.9434">
        <ele>310.2</ele>
        <time>2020-06-27T08:57:43Z</time>
      </trkpt>
      <trkpt lat="49.16712" lon="6.94345">
        <ele>310.2</ele>
        <time>2020-06-27T08:57:44Z</time>
      </trkpt>
      <trkpt lat="49.16711" lon="6.9435">
        <ele>310.1</ele>
        <time>2020-06-27T08:57:45Z</time>
      </trkpt>
      <trkpt lat="49.16709" lon="6.94355">
        <ele>310.1</ele>
        <time>2020-06-27T08:57:46Z</time>
      </trkpt>
      <trkpt lat="49.16708" lon="6.94359">
        <ele>309.9</ele>
        <time>2020-06-27T08:57:47Z</time>
      </trkpt>
      <trkpt lat="49.16706" lon="6.94368">
        <ele>309.7</ele>
        <time>2020-06-27T08:57:48Z</time>
      </trkpt>
      <trkpt lat="49.16704" lon="6.94374">
        <ele>309.5</ele>
        <time>2020-06-27T08:57:49Z</time>
      </trkpt>
      <trkpt lat="49.16703" lon="6.94379">
        <ele>309.3</ele>
        <time>2020-06-27T08:57:50Z</time>
      </trkpt>
      <trkpt lat="49.16702" lon="6.94386">
        <ele>309.1</ele>
        <time>2020-06-27T08:57:51Z</time>
      </trkpt>
      <trkpt lat="49.167" lon="6.94394">
        <ele>308.8</ele>
        <time>2020-06-27T08:57:52Z</time>
      </trkpt>
      <trkpt lat="49.16699" lon="6.944">
        <ele>308.6</ele>
        <time>2020-06-27T08:57:53Z</time>
      </trkpt>
      <trkpt lat="49.16697" lon="6.94408">
        <ele>308.3</ele>
        <time>2020-06-27T08:57:54Z</time>
      </trkpt>
      <trkpt lat="49.16695" lon="6.94415">
        <ele>308.1</ele>
        <time>2020-06-27T08:57:55Z</time>
      </trkpt>
      <trkpt lat="49.16694" lon="6.94423">
        <ele>307.8</ele>
        <time>2020-06-27T08:57:56Z</time>
      </trkpt>
      <trkpt lat="49.16692" lon="6.94432">
        <ele>307.5</ele>
        <time>2020-06-27T08:57:57Z</time>
      </trkpt>
      <trkpt lat="49.1669" lon="6.94439">
        <ele>307.2</ele>
        <time>2020-06-27T08:57:58Z</time>
      </trkpt>
      <trkpt lat="49.16688" lon="6.9445">
        <ele>306.8</ele>
        <time>2020-06-27T08:57:59Z</time>
      </trkpt>
      <trkpt lat="49.16685" lon="6.94458">
        <ele>306.5</ele>
        <time>2020-06-27T08:58:00Z</time>
      </trkpt>
      <trkpt lat="49.16684" lon="6.94465">
        <ele>306.2</ele>
        <time>2020-06-27T08:58:01Z</time>
      </trkpt>
      <trkpt lat="49.16682" lon="6.94474">
        <ele>305.9</ele>
        <time>2020-06-27T08:58:02Z</time>
      </trkpt>
      <trkpt lat="49.1668" lon="6.94482">
        <ele>305.6</ele>
        <time>2020-06-27T08:58:03Z</time>
      </trkpt>
      <trkpt lat="49.16679" lon="6.9449">
        <ele>305.3</ele>
        <time>2020-06-27T08:58:04Z</time>
      </trkpt>
      <trkpt lat="49.16677" lon="6.94498">
        <ele>305.1</ele>
        <time>2020-06-27T08:58:05Z</time>
      </trkpt>
      <trkpt lat="49.16675" lon="6.94506">
        <ele>304.7</ele>
        <time>2020-06-27T08:58:06Z</time>
      </trkpt>
      <trkpt lat="49.16673" lon="6.94515">
        <ele>304.4</ele>
        <time>2020-06-27T08:58:07Z</time>
      </trkpt>
      <trkpt lat="49.16671" lon="6.94523">
        <ele>304.1</ele>
        <time>2020-06-27T08:58:08Z</time>
      </trkpt>
      <trkpt lat="49.16669" lon="6.94532">
        <ele>303.8</ele>
        <time>2020-06-27T08:58:09Z</time>
      </trkpt>
      <trkpt lat="49.16667" lon="6.94541">
        <ele>303.8</ele>
        <time>2020-06-27T08:58:10Z</time>
      </trkpt>
      <trkpt lat="49.16666" lon="6.94548">
        <ele>303.8</ele>
        <time>2020-06-27T08:58:11Z</time>
      </trkpt>
      <trkpt lat="49.16664" lon="6.94556">
        <ele>303.6</ele>
        <time>2020-06-27T08:58:12Z</time>
      </trkpt>
      <trkpt lat="49.16663" lon="6.94564">
        <ele>303.4</ele>
        <time>2020-06-27T08:58:13Z</time>
      </trkpt>
      <trkpt lat="49.16661" lon="6.9457">
        <ele>303.3</ele>
        <time>2020-06-27T08:58:14Z</time>
      </trkpt>
      <trkpt lat="49.16659" lon="6.94578">
        <ele>303.1</ele>
        <time>2020-06-27T08:58:15Z</time>
      </trkpt>
      <trkpt lat="49.16657" lon="6.94585">
        <ele>302.9</ele>
        <time>2020-06-27T08:58:16Z</time>
      </trkpt>
      <trkpt lat="49.16655" lon="6.94593">
        <ele>302.7</ele>
        <time>2020-06-27T08:58:17Z</time>
      </trkpt>
      <trkpt lat="49.16653" lon="6.94601">
        <ele>302.5</ele>
        <time>2020-06-27T08:58:18Z</time>
      </trkpt>
      <trkpt lat="49.16651" lon="6.9461">
        <ele>302.3</ele>
        <time>2020-06-27T08:58:19Z</time>
      </trkpt>
      <trkpt lat="49.16649" lon="6.94618">
        <ele>302.1</ele>
        <time>2020-06-27T08:58:20Z</time>
      </trkpt>
      <trkpt lat="49.16647" lon="6.94627">
        <ele>301.8</ele>
        <time>2020-06-27T08:58:21Z</time>
      </trkpt>
      <trkpt lat="49.16644" lon="6.94637">
        <ele>301.6</ele>
        <time>2020-06-27T08:58:22Z</time>
      </trkpt>
      <trkpt lat="49.16642" lon="6.94646">
        <ele>301.4</ele>
        <time>2020-06-27T08:58:23Z</time>
      </trkpt>
      <trkpt lat="49.1664" lon="6.94656">
        <ele>301.1</ele>
        <time>2020-06-27T08:58:24Z</time>
      </trkpt>
      <trkpt lat="49.16638" lon="6.94665">
        <ele>300.9</ele>
        <time>2020-06-27T08:58:25Z</time>
      </trkpt>
      <trkpt lat="49.16636" lon="6.94675">
        <ele>300.7</ele>
        <time>2020-06-27T08:58:26Z</time>
      </trkpt>
      <trkpt lat="49.16634" lon="6.94684">
        <ele>300.4</ele>
        <time>2020-06-27T08:58:27Z</time>
      </trkpt>
      <trkpt lat="49.16631" lon="6.94693">
        <ele>300.1</ele>
        <time>2020-06-27T08:58:28Z</time>
      </trkpt>
      <trkpt lat="49.16628" lon="6.94703">
        <ele>299.9</ele>
        <time>2020-06-27T08:58:29Z</time>
      </trkpt>
      <trkpt lat="49.16625" lon="6.94712">
        <ele>299.6</ele>
        <time>2020-06-27T08:58:30Z</time>
      </trkpt>
      <trkpt lat="49.16622" lon="6.94722">
        <ele>299.3</ele>
        <time>2020-06-27T08:58:31Z</time>
      </trkpt>
      <trkpt lat="49.16619" lon="6.94731">
        <ele>299</ele>
        <time>2020-06-27T08:58:32Z</time>
      </trkpt>
      <trkpt lat="49.16616" lon="6.94741">
        <ele>298.7</ele>
        <time>2020-06-27T08:58:33Z</time>
      </trkpt>
      <trkpt lat="49.16612" lon="6.94751">
        <ele>298.4</ele>
        <time>2020-06-27T08:58:34Z</time>
      </trkpt>
      <trkpt lat="49.16609" lon="6.9476">
        <ele>298</ele>
        <time>2020-06-27T08:58:35Z</time>
      </trkpt>
      <trkpt lat="49.16605" lon="6.94769">
        <ele>297.7</ele>
        <time>2020-06-27T08:58:36Z</time>
      </trkpt>
      <trkpt lat="49.16602" lon="6.94779">
        <ele>297.4</ele>
        <time>2020-06-27T08:58:37Z</time>
      </trkpt>
      <trkpt lat="49.16599" lon="6.94788">
        <ele>297.1</ele>
        <time>2020-06-27T08:58:38Z</time>
      </trkpt>
      <trkpt lat="49.16596" lon="6.94796">
        <ele>296.8</ele>
        <time>2020-06-27T08:58:39Z</time>
      </trkpt>
      <trkpt lat="49.16592" lon="6.94804">
        <ele>296.5</ele>
        <time>2020-06-27T08:58:40Z</time>
      </trkpt>
      <trkpt lat="49.16589" lon="6.94812">
        <ele>296.3</ele>
        <time>2020-06-27T08:58:41Z</time>
      </trkpt>
      <trkpt lat="49.16586" lon="6.9482">
        <ele>296.1</ele>
        <time>2020-06-27T08:58:42Z</time>
      </trkpt>
      <trkpt lat="49.16582" lon="6.94826">
        <ele>295.8</ele>
        <time>2020-06-27T08:58:43Z</time>
      </trkpt>
      <trkpt lat="49.16579" lon="6.94833">
        <ele>295.6</ele>
        <time>2020-06-27T08:58:44Z</time>
      </trkpt>
      <trkpt lat="49.16577" lon="6.9484">
        <ele>295.4</ele>
        <time>2020-06-27T08:58:45Z</time>
      </trkpt>
      <trkpt lat="49.16574" lon="6.94848">
        <ele>295.2</ele>
        <time>2020-06-27T08:58:46Z</time>
      </trkpt>
      <trkpt lat="49.16572" lon="6.94855">
        <ele>295</ele>
        <time>2020-06-27T08:58:47Z</time>
      </trkpt>
      <trkpt lat="49.16569" lon="6.94863">
        <ele>294.8</ele>
        <time>2020-06-27T08:58:48Z</time>
      </trkpt>
      <trkpt lat="49.16565" lon="6.9487">
        <ele>294.6</ele>
        <time>2020-06-27T08:58:49Z</time>
      </trkpt>
      <trkpt lat="49.16562" lon="6.94876">
        <ele>294.4</ele>
        <time>2020-06-27T08:58:50Z</time>
      </trkpt>
      <trkpt lat="49.16559" lon="6.94883">
        <ele>294.3</ele>
        <time>2020-06-27T08:58:51Z</time>
      </trkpt>
      <trkpt lat="49.16555" lon="6.9489">
        <ele>294.2</ele>
        <time>2020-06-27T08:58:52Z</time>
      </trkpt>
      <trkpt lat="49.16551" lon="6.94894">
        <ele>294.1</ele>
        <time>2020-06-27T08:58:53Z</time>
      </trkpt>
      <trkpt lat="49.16545" lon="6.94899">
        <ele>293.9</ele>
        <time>2020-06-27T08:58:54Z</time>
      </trkpt>
      <trkpt lat="49.1654" lon="6.94906">
        <ele>293.8</ele>
        <time>2020-06-27T08:58:55Z</time>
      </trkpt>
      <trkpt lat="49.16535" lon="6.9491">
        <ele>293.7</ele>
        <time>2020-06-27T08:58:56Z</time>
      </trkpt>
      <trkpt lat="49.16531" lon="6.94917">
        <ele>293.4</ele>
        <time>2020-06-27T08:58:57Z</time>
      </trkpt>
      <trkpt lat="49.16526" lon="6.94923">
        <ele>293.2</ele>
        <time>2020-06-27T08:58:58Z</time>
      </trkpt>
      <trkpt lat="49.16521" lon="6.94927">
        <ele>292.9</ele>
        <time>2020-06-27T08:58:59Z</time>
      </trkpt>
      <trkpt lat="49.16516" lon="6.94933">
        <ele>292.7</ele>
        <time>2020-06-27T08:59:00Z</time>
      </trkpt>
      <trkpt lat="49.16511" lon="6.94939">
        <ele>292.5</ele>
        <time>2020-06-27T08:59:01Z</time>
      </trkpt>
      <trkpt lat="49.16507" lon="6.94947">
        <ele>292.2</ele>
        <time>2020-06-27T08:59:02Z</time>
      </trkpt>
      <trkpt lat="49.16504" lon="6.94954">
        <ele>292</ele>
        <time>2020-06-27T08:59:03Z</time>
      </trkpt>
      <trkpt lat="49.165" lon="6.94961">
        <ele>291.8</ele>
        <time>2020-06-27T08:59:04Z</time>
      </trkpt>
      <trkpt lat="49.16497" lon="6.9497">
        <ele>291.6</ele>
        <time>2020-06-27T08:59:05Z</time>
      </trkpt>
      <trkpt lat="49.16496" lon="6.94979">
        <ele>291.4</ele>
        <time>2020-06-27T08:59:06Z</time>
      </trkpt>
      <trkpt lat="49.16494" lon="6.94989">
        <ele>291.2</ele>
        <time>2020-06-27T08:59:07Z</time>
      </trkpt>
      <trkpt lat="49.16494" lon="6.94998">
        <ele>291</ele>
        <time>2020-06-27T08:59:08Z</time>
      </trkpt>
      <trkpt lat="49.16493" lon="6.95008">
        <ele>290.8</ele>
        <time>2020-06-27T08:59:09Z</time>
      </trkpt>
      <trkpt lat="49.16493" lon="6.95017">
        <ele>290.6</ele>
        <time>2020-06-27T08:59:10Z</time>
      </trkpt>
      <trkpt lat="49.16493" lon="6.95027">
        <ele>290.4</ele>
        <time>2020-06-27T08:59:11Z</time>
      </trkpt>
      <trkpt lat="49.16491" lon="6.95036">
        <ele>290.2</ele>
        <time>2020-06-27T08:59:12Z</time>
      </trkpt>
      <trkpt lat="49.1649" lon="6.95046">
        <ele>290</ele>
        <time>2020-06-27T08:59:13Z</time>
      </trkpt>
      <trkpt lat="49.16489" lon="6.95055">
        <ele>289.7</ele>
        <time>2020-06-27T08:59:14Z</time>
      </trkpt>
      <trkpt lat="49.16486" lon="6.95065">
        <ele>289.5</ele>
        <time>2020-06-27T08:59:15Z</time>
      </trkpt>
      <trkpt lat="49.16484" lon="6.95075">
        <ele>289.2</ele>
        <time>2020-06-27T08:59:16Z</time>
      </trkpt>
      <trkpt lat="49.16482" lon="6.95084">
        <ele>289</ele>
        <time>2020-06-27T08:59:17Z</time>
      </trkpt>
      <trkpt lat="49.16479" lon="6.95093">
        <ele>288.8</ele>
        <time>2020-06-27T08:59:18Z</time>
      </trkpt>
      <trkpt lat="49.16477" lon="6.95102">
        <ele>288.7</ele>
        <time>2020-06-27T08:59:19Z</time>
      </trkpt>
      <trkpt lat="49.16474" lon="6.95112">
        <ele>288.5</ele>
        <time>2020-06-27T08:59:20Z</time>
      </trkpt>
      <trkpt lat="49.16472" lon="6.95121">
        <ele>288.3</ele>
        <time>2020-06-27T08:59:21Z</time>
      </trkpt>
      <trkpt lat="49.16469" lon="6.9513">
        <ele>288.1</ele>
        <time>2020-06-27T08:59:22Z</time>
      </trkpt>
      <trkpt lat="49.16465" lon="6.95139">
        <ele>287.9</ele>
        <time>2020-06-27T08:59:23Z</time>
      </trkpt>
      <trkpt lat="49.16462" lon="6.95148">
        <ele>287.6</ele>
        <time>2020-06-27T08:59:24Z</time>
      </trkpt>
      <trkpt lat="49.1646" lon="6.95158">
        <ele>287.4</ele>
        <time>2020-06-27T08:59:25Z</time>
      </trkpt>
      <trkpt lat="49.16457" lon="6.95167">
        <ele>287.2</ele>
        <time>2020-06-27T08:59:26Z</time>
      </trkpt>
      <trkpt lat="49.16454" lon="6.95176">
        <ele>287</ele>
        <time>2020-06-27T08:59:27Z</time>
      </trkpt>
      <trkpt lat="49.1645" lon="6.95185">
        <ele>286.8</ele>
        <time>2020-06-27T08:59:28Z</time>
      </trkpt>
      <trkpt lat="49.16447" lon="6.95194">
        <ele>286.6</ele>
        <time>2020-06-27T08:59:29Z</time>
      </trkpt>
      <trkpt lat="49.16443" lon="6.95205">
        <ele>286.3</ele>
        <time>2020-06-27T08:59:30Z</time>
      </trkpt>
      <trkpt lat="49.1644" lon="6.95215">
        <ele>286</ele>
        <time>2020-06-27T08:59:31Z</time>
      </trkpt>
      <trkpt lat="49.16436" lon="6.95224">
        <ele>285.7</ele>
        <time>2020-06-27T08:59:32Z</time>
      </trkpt>
      <trkpt lat="49.16433" lon="6.95233">
        <ele>286.3</ele>
        <time>2020-06-27T08:59:33Z</time>
      </trkpt>
      <trkpt lat="49.1643" lon="6.95242">
        <ele>286.8</ele>
        <time>2020-06-27T08:59:34Z</time>
      </trkpt>
      <trkpt lat="49.16427" lon="6.9525">
        <ele>286.9</ele>
        <time>2020-06-27T08:59:35Z</time>
      </trkpt>
      <trkpt lat="49.16425" lon="6.95257">
        <ele>286.8</ele>
        <time>2020-06-27T08:59:36Z</time>
      </trkpt>
      <trkpt lat="49.16423" lon="6.95263">
        <ele>286.8</ele>
        <time>2020-06-27T08:59:37Z</time>
      </trkpt>
      <trkpt lat="49.1642" lon="6.95269">
        <ele>286.6</ele>
        <time>2020-06-27T08:59:38Z</time>
      </trkpt>
      <trkpt lat="49.16417" lon="6.95275">
        <ele>286.5</ele>
        <time>2020-06-27T08:59:39Z</time>
      </trkpt>
      <trkpt lat="49.16416" lon="6.95283">
        <ele>286.3</ele>
        <time>2020-06-27T08:59:40Z</time>
      </trkpt>
      <trkpt lat="49.16413" lon="6.95289">
        <ele>286.2</ele>
        <time>2020-06-27T08:59:41Z</time>
      </trkpt>
      <trkpt lat="49.16411" lon="6.95297">
        <ele>286</ele>
        <time>2020-06-27T08:59:42Z</time>
      </trkpt>
      <trkpt lat="49.16409" lon="6.95304">
        <ele>285.8</ele>
        <time>2020-06-27T08:59:43Z</time>
      </trkpt>
      <trkpt lat="49.16406" lon="6.95311">
        <ele>285.6</ele>
        <time>2020-06-27T08:59:44Z</time>
      </trkpt>
      <trkpt lat="49.16402" lon="6.95319">
        <ele>285.4</ele>
        <time>2020-06-27T08:59:45Z</time>
      </trkpt>
      <trkpt lat="49.16399" lon="6.95326">
        <ele>285.1</ele>
        <time>2020-06-27T08:59:46Z</time>
      </trkpt>
      <trkpt lat="49.16395" lon="6.95334">
        <ele>284.9</ele>
        <time>2020-06-27T08:59:47Z</time>
      </trkpt>
      <trkpt lat="49.16391" lon="6.95343">
        <ele>284.6</ele>
        <time>2020-06-27T08:59:48Z</time>
      </trkpt>
      <trkpt lat="49.16388" lon="6.95352">
        <ele>284.3</ele>
        <time>2020-06-27T08:59:49Z</time>
      </trkpt>
      <trkpt lat="49.16385" lon="6.95362">
        <ele>284</ele>
        <time>2020-06-27T08:59:50Z</time>
      </trkpt>
      <trkpt lat="49.16382" lon="6.95372">
        <ele>283.7</ele>
        <time>2020-06-27T08:59:51Z</time>
      </trkpt>
      <trkpt lat="49.16379" lon="6.95381">
        <ele>283.5</ele>
        <time>2020-06-27T08:59:52Z</time>
      </trkpt>
      <trkpt lat="49.16375" lon="6.9539">
        <ele>283.2</ele>
        <time>2020-06-27T08:59:53Z</time>
      </trkpt>
      <trkpt lat="49.16372" lon="6.954">
        <ele>282.9</ele>
        <time>2020-06-27T08:59:54Z</time>
      </trkpt>
      <trkpt lat="49.16368" lon="6.95409">
        <ele>282.7</ele>
        <time>2020-06-27T08:59:55Z</time>
      </trkpt>
      <trkpt lat="49.16365" lon="6.95419">
        <ele>282.4</ele>
        <time>2020-06-27T08:59:56Z</time>
      </trkpt>
      <trkpt lat="49.16361" lon="6.95429">
        <ele>282.1</ele>
        <time>2020-06-27T08:59:57Z</time>
      </trkpt>
      <trkpt lat="49.16357" lon="6.95438">
        <ele>281.8</ele>
        <time>2020-06-27T08:59:58Z</time>
      </trkpt>
      <trkpt lat="49.16353" lon="6.95448">
        <ele>281.5</ele>
        <time>2020-06-27T08:59:59Z</time>
      </trkpt>
      <trkpt lat="49.1635" lon="6.95458">
        <ele>281.2</ele>
        <time>2020-06-27T09:00:00Z</time>
      </trkpt>
      <trkpt lat="49.16346" lon="6.95468">
        <ele>281</ele>
        <time>2020-06-27T09:00:01Z</time>
      </trkpt>
      <trkpt lat="49.16342" lon="6.95479">
        <ele>280.6</ele>
        <time>2020-06-27T09:00:02Z</time>
      </trkpt>
      <trkpt lat="49.16339" lon="6.95489">
        <ele>280.3</ele>
        <time>2020-06-27T09:00:03Z</time>
      </trkpt>
      <trkpt lat="49.16335" lon="6.95499">
        <ele>279.9</ele>
        <time>2020-06-27T09:00:04Z</time>
      </trkpt>
      <trkpt lat="49.16331" lon="6.95509">
        <ele>279.6</ele>
        <time>2020-06-27T09:00:05Z</time>
      </trkpt>
      <trkpt lat="49.16328" lon="6.95519">
        <ele>279.3</ele>
        <time>2020-06-27T09:00:06Z</time>
      </trkpt>
      <trkpt lat="49.16324" lon="6.95529">
        <ele>278.9</ele>
        <time>2020-06-27T09:00:07Z</time>
      </trkpt>
      <trkpt lat="49.1632" lon="6.9554">
        <ele>278.6</ele>
        <time>2020-06-27T09:00:08Z</time>
      </trkpt>
      <trkpt lat="49.16316" lon="6.9555">
        <ele>278.2</ele>
        <time>2020-06-27T09:00:09Z</time>
      </trkpt>
      <trkpt lat="49.16312" lon="6.95561">
        <ele>277.9</ele>
        <time>2020-06-27T09:00:10Z</time>
      </trkpt>
      <trkpt lat="49.16309" lon="6.95571">
        <ele>277.6</ele>
        <time>2020-06-27T09:00:11Z</time>
      </trkpt>
      <trkpt lat="49.16305" lon="6.95582">
        <ele>277.2</ele>
        <time>2020-06-27T09:00:12Z</time>
      </trkpt>
      <trkpt lat="49.16301" lon="6.95592">
        <ele>276.9</ele>
        <time>2020-06-27T09:00:13Z</time>
      </trkpt>
      <trkpt lat="49.16297" lon="6.95603">
        <ele>276.6</ele>
        <time>2020-06-27T09:00:14Z</time>
      </trkpt>
      <trkpt lat="49.16293" lon="6.95613">
        <ele>276.3</ele>
        <time>2020-06-27T09:00:15Z</time>
      </trkpt>
      <trkpt lat="49.16289" lon="6.95624">
        <ele>275.9</ele>
        <time>2020-06-27T09:00:16Z</time>
      </trkpt>
      <trkpt lat="49.16285" lon="6.95635">
        <ele>275.6</ele>
        <time>2020-06-27T09:00:17Z</time>
      </trkpt>
      <trkpt lat="49.16281" lon="6.95645">
        <ele>275.3</ele>
        <time>2020-06-27T09:00:18Z</time>
      </trkpt>
      <trkpt lat="49.16277" lon="6.95657">
        <ele>275</ele>
        <time>2020-06-27T09:00:19Z</time>
      </trkpt>
      <trkpt lat="49.16273" lon="6.95667">
        <ele>274.8</ele>
        <time>2020-06-27T09:00:20Z</time>
      </trkpt>
      <trkpt lat="49.16269" lon="6.95678">
        <ele>274.5</ele>
        <time>2020-06-27T09:00:21Z</time>
      </trkpt>
      <trkpt lat="49.16265" lon="6.95689">
        <ele>274.2</ele>
        <time>2020-06-27T09:00:22Z</time>
      </trkpt>
      <trkpt lat="49.16261" lon="6.95699">
        <ele>273.9</ele>
        <time>2020-06-27T09:00:23Z</time>
      </trkpt>
      <trkpt lat="49.16257" lon="6.9571">
        <ele>273.6</ele>
        <time>2020-06-27T09:00:24Z</time>
      </trkpt>
      <trkpt lat="49.16253" lon="6.9572">
        <ele>273.4</ele>
        <time>2020-06-27T09:00:25Z</time>
      </trkpt>
      <trkpt lat="49.16249" lon="6.9573">
        <ele>273.2</ele>
        <time>2020-06-27T09:00:26Z</time>
      </trkpt>
      <trkpt lat="49.16244" lon="6.9574">
        <ele>272.9</ele>
        <time>2020-06-27T09:00:27Z</time>
      </trkpt>
      <trkpt lat="49.16241" lon="6.9575">
        <ele>272.7</ele>
        <time>2020-06-27T09:00:28Z</time>
      </trkpt>
      <trkpt lat="49.16237" lon="6.95761">
        <ele>272.4</ele>
        <time>2020-06-27T09:00:29Z</time>
      </trkpt>
      <trkpt lat="49.16233" lon="6.95771">
        <ele>272.2</ele>
        <time>2020-06-27T09:00:30Z</time>
      </trkpt>
      <trkpt lat="49.16229" lon="6.95782">
        <ele>271.9</ele>
        <time>2020-06-27T09:00:31Z</time>
      </trkpt>
      <trkpt lat="49.16224" lon="6.95792">
        <ele>271.6</ele>
        <time>2020-06-27T09:00:32Z</time>
      </trkpt>
      <trkpt lat="49.16219" lon="6.95802">
        <ele>271.3</ele>
        <time>2020-06-27T09:00:33Z</time>
      </trkpt>
      <trkpt lat="49.16214" lon="6.95812">
        <ele>271</ele>
        <time>2020-06-27T09:00:34Z</time>
      </trkpt>
      <trkpt lat="49.1621" lon="6.95822">
        <ele>270.7</ele>
        <time>2020-06-27T09:00:35Z</time>
      </trkpt>
      <trkpt lat="49.16205" lon="6.95832">
        <ele>270.4</ele>
        <time>2020-06-27T09:00:36Z</time>
      </trkpt>
      <trkpt lat="49.162" lon="6.95841">
        <ele>270.1</ele>
        <time>2020-06-27T09:00:37Z</time>
      </trkpt>
      <trkpt lat="49.16195" lon="6.95851">
        <ele>269.8</ele>
        <time>2020-06-27T09:00:38Z</time>
      </trkpt>
      <trkpt lat="49.1619" lon="6.95861">
        <ele>269.5</ele>
        <time>2020-06-27T09:00:39Z</time>
      </trkpt>
      <trkpt lat="49.16184" lon="6.9587">
        <ele>269.2</ele>
        <time>2020-06-27T09:00:40Z</time>
      </trkpt>
      <trkpt lat="49.16179" lon="6.9588">
        <ele>268.9</ele>
        <time>2020-06-27T09:00:41Z</time>
      </trkpt>
      <trkpt lat="49.16174" lon="6.95889">
        <ele>268.5</ele>
        <time>2020-06-27T09:00:42Z</time>
      </trkpt>
      <trkpt lat="49.16168" lon="6.95898">
        <ele>268.1</ele>
        <time>2020-06-27T09:00:43Z</time>
      </trkpt>
      <trkpt lat="49.16163" lon="6.95907">
        <ele>267.8</ele>
        <time>2020-06-27T09:00:44Z</time>
      </trkpt>
      <trkpt lat="49.16157" lon="6.95915">
        <ele>267.6</ele>
        <time>2020-06-27T09:00:45Z</time>
      </trkpt>
      <trkpt lat="49.16151" lon="6.95924">
        <ele>267.2</ele>
        <time>2020-06-27T09:00:46Z</time>
      </trkpt>
      <trkpt lat="49.16145" lon="6.95933">
        <ele>266.9</ele>
        <time>2020-06-27T09:00:47Z</time>
      </trkpt>
      <trkpt lat="49.16139" lon="6.95941">
        <ele>266.5</ele>
        <time>2020-06-27T09:00:48Z</time>
      </trkpt>
      <trkpt lat="49.16133" lon="6.9595">
        <ele>266.1</ele>
        <time>2020-06-27T09:00:49Z</time>
      </trkpt>
      <trkpt lat="49.16127" lon="6.95958">
        <ele>265.8</ele>
        <time>2020-06-27T09:00:50Z</time>
      </trkpt>
      <trkpt lat="49.1612" lon="6.95966">
        <ele>265.5</ele>
        <time>2020-06-27T09:00:51Z</time>
      </trkpt>
      <trkpt lat="49.16114" lon="6.95975">
        <ele>265.2</ele>
        <time>2020-06-27T09:00:52Z</time>
      </trkpt>
      <trkpt lat="49.16108" lon="6.95983">
        <ele>264.9</ele>
        <time>2020-06-27T09:00:53Z</time>
      </trkpt>
      <trkpt lat="49.16102" lon="6.95991">
        <ele>264.6</ele>
        <time>2020-06-27T09:00:54Z</time>
      </trkpt>
      <trkpt lat="49.16096" lon="6.95999">
        <ele>264.4</ele>
        <time>2020-06-27T09:00:55Z</time>
      </trkpt>
      <trkpt lat="49.16089" lon="6.96006">
        <ele>264.1</ele>
        <time>2020-06-27T09:00:56Z</time>
      </trkpt>
      <trkpt lat="49.16083" lon="6.96014">
        <ele>263.7</ele>
        <time>2020-06-27T09:00:57Z</time>
      </trkpt>
      <trkpt lat="49.16077" lon="6.96022">
        <ele>263.4</ele>
        <time>2020-06-27T09:00:58Z</time>
      </trkpt>
      <trkpt lat="49.16071" lon="6.9603">
        <ele>263.1</ele>
        <time>2020-06-27T09:00:59Z</time>
      </trkpt>
      <trkpt lat="49.16065" lon="6.96038">
        <ele>262.9</ele>
        <time>2020-06-27T09:01:00Z</time>
      </trkpt>
      <trkpt lat="49.16059" lon="6.96047">
        <ele>262.6</ele>
        <time>2020-06-27T09:01:01Z</time>
      </trkpt>
      <trkpt lat="49.16053" lon="6.96055">
        <ele>262.4</ele>
        <time>2020-06-27T09:01:02Z</time>
      </trkpt>
      <trkpt lat="49.16046" lon="6.96063">
        <ele>262.1</ele>
        <time>2020-06-27T09:01:03Z</time>
      </trkpt>
      <trkpt lat="49.1604" lon="6.96071">
        <ele>261.8</ele>
        <time>2020-06-27T09:01:04Z</time>
      </trkpt>
      <trkpt lat="49.16034" lon="6.96078">
        <ele>261.5</ele>
        <time>2020-06-27T09:01:05Z</time>
      </trkpt>
      <trkpt lat="49.16027" lon="6.96086">
        <ele>261.2</ele>
        <time>2020-06-27T09:01:06Z</time>
      </trkpt>
      <trkpt lat="49.16021" lon="6.96095">
        <ele>260.9</ele>
        <time>2020-06-27T09:01:07Z</time>
      </trkpt>
      <trkpt lat="49.16015" lon="6.96103">
        <ele>260.5</ele>
        <time>2020-06-27T09:01:08Z</time>
      </trkpt>
      <trkpt lat="49.16008" lon="6.96111">
        <ele>260.2</ele>
        <time>2020-06-27T09:01:09Z</time>
      </trkpt>
      <trkpt lat="49.16002" lon="6.9612">
        <ele>259.9</ele>
        <time>2020-06-27T09:01:10Z</time>
      </trkpt>
      <trkpt lat="49.15996" lon="6.96128">
        <ele>259.7</ele>
        <time>2020-06-27T09:01:11Z</time>
      </trkpt>
      <trkpt lat="49.1599" lon="6.96136">
        <ele>259.4</ele>
        <time>2020-06-27T09:01:12Z</time>
      </trkpt>
      <trkpt lat="49.15983" lon="6.96145">
        <ele>259.1</ele>
        <time>2020-06-27T09:01:13Z</time>
      </trkpt>
      <trkpt lat="49.15977" lon="6.96154">
        <ele>258.8</ele>
        <time>2020-06-27T09:01:14Z</time>
      </trkpt>
      <trkpt lat="49.15971" lon="6.96162">
        <ele>258.6</ele>
        <time>2020-06-27T09:01:15Z</time>
      </trkpt>
      <trkpt lat="49.15965" lon="6.96171">
        <ele>258.3</ele>
        <time>2020-06-27T09:01:16Z</time>
      </trkpt>
      <trkpt lat="49.1596" lon="6.9618">
        <ele>258.1</ele>
        <time>2020-06-27T09:01:17Z</time>
      </trkpt>
      <trkpt lat="49.15954" lon="6.96189">
        <ele>257.8</ele>
        <time>2020-06-27T09:01:18Z</time>
      </trkpt>
      <trkpt lat="49.15948" lon="6.96198">
        <ele>257.5</ele>
        <time>2020-06-27T09:01:19Z</time>
      </trkpt>
      <trkpt lat="49.15943" lon="6.96208">
        <ele>257.3</ele>
        <time>2020-06-27T09:01:20Z</time>
      </trkpt>
      <trkpt lat="49.15937" lon="6.96217">
        <ele>257</ele>
        <time>2020-06-27T09:01:21Z</time>
      </trkpt>
      <trkpt lat="49.15931" lon="6.96226">
        <ele>256.7</ele>
        <time>2020-06-27T09:01:22Z</time>
      </trkpt>
      <trkpt lat="49.15926" lon="6.96236">
        <ele>256.4</ele>
        <time>2020-06-27T09:01:23Z</time>
      </trkpt>
      <trkpt lat="49.15921" lon="6.96246">
        <ele>256.1</ele>
        <time>2020-06-27T09:01:24Z</time>
      </trkpt>
      <trkpt lat="49.15916" lon="6.96256">
        <ele>255.7</ele>
        <time>2020-06-27T09:01:25Z</time>
      </trkpt>
      <trkpt lat="49.15911" lon="6.96266">
        <ele>255.3</ele>
        <time>2020-06-27T09:01:26Z</time>
      </trkpt>
      <trkpt lat="49.15906" lon="6.96277">
        <ele>254.7</ele>
        <time>2020-06-27T09:01:27Z</time>
      </trkpt>
      <trkpt lat="49.15901" lon="6.96287">
        <ele>254</ele>
        <time>2020-06-27T09:01:28Z</time>
      </trkpt>
      <trkpt lat="49.15896" lon="6.96296">
        <ele>253.4</ele>
        <time>2020-06-27T09:01:29Z</time>
      </trkpt>
      <trkpt lat="49.15892" lon="6.96306">
        <ele>253.2</ele>
        <time>2020-06-27T09:01:30Z</time>
      </trkpt>
      <trkpt lat="49.15888" lon="6.96317">
        <ele>252.9</ele>
        <time>2020-06-27T09:01:31Z</time>
      </trkpt>
      <trkpt lat="49.15883" lon="6.96327">
        <ele>252.6</ele>
        <time>2020-06-27T09:01:32Z</time>
      </trkpt>
      <trkpt lat="49.15878" lon="6.96337">
        <ele>252.3</ele>
        <time>2020-06-27T09:01:33Z</time>
      </trkpt>
      <trkpt lat="49.15873" lon="6.96346">
        <ele>252</ele>
        <time>2020-06-27T09:01:34Z</time>
      </trkpt>
      <trkpt lat="49.15868" lon="6.96355">
        <ele>251.8</ele>
        <time>2020-06-27T09:01:35Z</time>
      </trkpt>
      <trkpt lat="49.15863" lon="6.96365">
        <ele>251.6</ele>
        <time>2020-06-27T09:01:36Z</time>
      </trkpt>
      <trkpt lat="49.15859" lon="6.96375">
        <ele>251.3</ele>
        <time>2020-06-27T09:01:37Z</time>
      </trkpt>
      <trkpt lat="49.15854" lon="6.96385">
        <ele>251.1</ele>
        <time>2020-06-27T09:01:38Z</time>
      </trkpt>
      <trkpt lat="49.1585" lon="6.96396">
        <ele>250.8</ele>
        <time>2020-06-27T09:01:39Z</time>
      </trkpt>
      <trkpt lat="49.15847" lon="6.96407">
        <ele>250.6</ele>
        <time>2020-06-27T09:01:40Z</time>
      </trkpt>
      <trkpt lat="49.15842" lon="6.96417">
        <ele>250.3</ele>
        <time>2020-06-27T09:01:41Z</time>
      </trkpt>
      <trkpt lat="49.15838" lon="6.96428">
        <ele>250</ele>
        <time>2020-06-27T09:01:42Z</time>
      </trkpt>
      <trkpt lat="49.15835" lon="6.96438">
        <ele>249.8</ele>
        <time>2020-06-27T09:01:43Z</time>
      </trkpt>
      <trkpt lat="49.15832" lon="6.96448">
        <ele>249.7</ele>
        <time>2020-06-27T09:01:44Z</time>
      </trkpt>
      <trkpt lat="49.15829" lon="6.96459">
        <ele>249.3</ele>
        <time>2020-06-27T09:01:45Z</time>
      </trkpt>
      <trkpt lat="49.15827" lon="6.96469">
        <ele>249.3</ele>
        <time>2020-06-27T09:01:46Z</time>
      </trkpt>
      <trkpt lat="49.15825" lon="6.96478">
        <ele>249.1</ele>
        <time>2020-06-27T09:01:47Z</time>
      </trkpt>
      <trkpt lat="49.15823" lon="6.96488">
        <ele>248.9</ele>
        <time>2020-06-27T09:01:48Z</time>
      </trkpt>
      <trkpt lat="49.15821" lon="6.96498">
        <ele>248.8</ele>
        <time>2020-06-27T09:01:49Z</time>
      </trkpt>
      <trkpt lat="49.15819" lon="6.96507">
        <ele>248.7</ele>
        <time>2020-06-27T09:01:50Z</time>
      </trkpt>
      <trkpt lat="49.15818" lon="6.96517">
        <ele>248.3</ele>
        <time>2020-06-27T09:01:51Z</time>
      </trkpt>
      <trkpt lat="49.15817" lon="6.96528">
        <ele>248.2</ele>
        <time>2020-06-27T09:01:52Z</time>
      </trkpt>
      <trkpt lat="49.15816" lon="6.96538">
        <ele>248.1</ele>
        <time>2020-06-27T09:01:53Z</time>
      </trkpt>
      <trkpt lat="49.15815" lon="6.96549">
        <ele>247.9</ele>
        <time>2020-06-27T09:01:54Z</time>
      </trkpt>
      <trkpt lat="49.15814" lon="6.9656">
        <ele>247.7</ele>
        <time>2020-06-27T09:01:55Z</time>
      </trkpt>
      <trkpt lat="49.15814" lon="6.96571">
        <ele>247.4</ele>
        <time>2020-06-27T09:01:56Z</time>
      </trkpt>
      <trkpt lat="49.15814" lon="6.96582">
        <ele>247.2</ele>
        <time>2020-06-27T09:01:57Z</time>
      </trkpt>
      <trkpt lat="49.15814" lon="6.96593">
        <ele>247</ele>
        <time>2020-06-27T09:01:58Z</time>
      </trkpt>
      <trkpt lat="49.15815" lon="6.96605">
        <ele>246.8</ele>
        <time>2020-06-27T09:01:59Z</time>
      </trkpt>
      <trkpt lat="49.15814" lon="6.96617">
        <ele>246.6</ele>
        <time>2020-06-27T09:02:00Z</time>
      </trkpt>
      <trkpt lat="49.15814" lon="6.96628">
        <ele>246.4</ele>
        <time>2020-06-27T09:02:01Z</time>
      </trkpt>
      <trkpt lat="49.15814" lon="6.96639">
        <ele>246.2</ele>
        <time>2020-06-27T09:02:02Z</time>
      </trkpt>
      <trkpt lat="49.15813" lon="6.96651">
        <ele>246</ele>
        <time>2020-06-27T09:02:03Z</time>
      </trkpt>
      <trkpt lat="49.15812" lon="6.96662">
        <ele>245.8</ele>
        <time>2020-06-27T09:02:04Z</time>
      </trkpt>
      <trkpt lat="49.15811" lon="6.96673">
        <ele>245.5</ele>
        <time>2020-06-27T09:02:05Z</time>
      </trkpt>
      <trkpt lat="49.15811" lon="6.96685">
        <ele>245.3</ele>
        <time>2020-06-27T09:02:06Z</time>
      </trkpt>
      <trkpt lat="49.1581" lon="6.96697">
        <ele>245</ele>
        <time>2020-06-27T09:02:07Z</time>
      </trkpt>
      <trkpt lat="49.1581" lon="6.96709">
        <ele>244.8</ele>
        <time>2020-06-27T09:02:08Z</time>
      </trkpt>
      <trkpt lat="49.15811" lon="6.96721">
        <ele>244.6</ele>
        <time>2020-06-27T09:02:09Z</time>
      </trkpt>
      <trkpt lat="49.1581" lon="6.96732">
        <ele>244.4</ele>
        <time>2020-06-27T09:02:10Z</time>
      </trkpt>
      <trkpt lat="49.15808" lon="6.96745">
        <ele>244.2</ele>
        <time>2020-06-27T09:02:11Z</time>
      </trkpt>
      <trkpt lat="49.15807" lon="6.96757">
        <ele>244</ele>
        <time>2020-06-27T09:02:12Z</time>
      </trkpt>
      <trkpt lat="49.15807" lon="6.96769">
        <ele>243.8</ele>
        <time>2020-06-27T09:02:13Z</time>
      </trkpt>
      <trkpt lat="49.15806" lon="6.9678">
        <ele>243.6</ele>
        <time>2020-06-27T09:02:14Z</time>
      </trkpt>
      <trkpt lat="49.15806" lon="6.96792">
        <ele>243.5</ele>
        <time>2020-06-27T09:02:15Z</time>
      </trkpt>
      <trkpt lat="49.15805" lon="6.96805">
        <ele>243.4</ele>
        <time>2020-06-27T09:02:16Z</time>
      </trkpt>
      <trkpt lat="49.15804" lon="6.96816">
        <ele>243.3</ele>
        <time>2020-06-27T09:02:17Z</time>
      </trkpt>
      <trkpt lat="49.15803" lon="6.96828">
        <ele>243.3</ele>
        <time>2020-06-27T09:02:18Z</time>
      </trkpt>
      <trkpt lat="49.15801" lon="6.96839">
        <ele>243.4</ele>
        <time>2020-06-27T09:02:19Z</time>
      </trkpt>
      <trkpt lat="49.15799" lon="6.96849">
        <ele>243.4</ele>
        <time>2020-06-27T09:02:20Z</time>
      </trkpt>
      <trkpt lat="49.15796" lon="6.96859">
        <ele>243.3</ele>
        <time>2020-06-27T09:02:21Z</time>
      </trkpt>
      <trkpt lat="49.15793" lon="6.96869">
        <ele>243.4</ele>
        <time>2020-06-27T09:02:22Z</time>
      </trkpt>
      <trkpt lat="49.1579" lon="6.96878">
        <ele>243.4</ele>
        <time>2020-06-27T09:02:23Z</time>
      </trkpt>
      <trkpt lat="49.15788" lon="6.96887">
        <ele>243.5</ele>
        <time>2020-06-27T09:02:24Z</time>
      </trkpt>
      <trkpt lat="49.15784" lon="6.96894">
        <ele>243.5</ele>
        <time>2020-06-27T09:02:25Z</time>
      </trkpt>
      <trkpt lat="49.15781" lon="6.96902">
        <ele>243.5</ele>
        <time>2020-06-27T09:02:26Z</time>
      </trkpt>
      <trkpt lat="49.15778" lon="6.9691">
        <ele>243.5</ele>
        <time>2020-06-27T09:02:27Z</time>
      </trkpt>
      <trkpt lat="49.15776" lon="6.96918">
        <ele>243.6</ele>
        <time>2020-06-27T09:02:28Z</time>
      </trkpt>
      <trkpt lat="49.15774" lon="6.96926">
        <ele>243.6</ele>
        <time>2020-06-27T09:02:29Z</time>
      </trkpt>
      <trkpt lat="49.15771" lon="6.96933">
        <ele>243.7</ele>
        <time>2020-06-27T09:02:30Z</time>
      </trkpt>
      <trkpt lat="49.1577" lon="6.96941">
        <ele>243.8</ele>
        <time>2020-06-27T09:02:31Z</time>
      </trkpt>
      <trkpt lat="49.15767" lon="6.96948">
        <ele>243.8</ele>
        <time>2020-06-27T09:02:32Z</time>
      </trkpt>
      <trkpt lat="49.15765" lon="6.96955">
        <ele>243.8</ele>
        <time>2020-06-27T09:02:33Z</time>
      </trkpt>
      <trkpt lat="49.15764" lon="6.96962">
        <ele>243.8</ele>
        <time>2020-06-27T09:02:34Z</time>
      </trkpt>
      <trkpt lat="49.15761" lon="6.9697">
        <ele>243.8</ele>
        <time>2020-06-27T09:02:35Z</time>
      </trkpt>
      <trkpt lat="49.15759" lon="6.96978">
        <ele>243.8</ele>
        <time>2020-06-27T09:02:36Z</time>
      </trkpt>
      <trkpt lat="49.15756" lon="6.96986">
        <ele>243.8</ele>
        <time>2020-06-27T09:02:37Z</time>
      </trkpt>
      <trkpt lat="49.15753" lon="6.96994">
        <ele>243.8</ele>
        <time>2020-06-27T09:02:38Z</time>
      </trkpt>
      <trkpt lat="49.1575" lon="6.97002">
        <ele>243.8</ele>
        <time>2020-06-27T09:02:39Z</time>
      </trkpt>
      <trkpt lat="49.15747" lon="6.97009">
        <ele>243.8</ele>
        <time>2020-06-27T09:02:40Z</time>
      </trkpt>
      <trkpt lat="49.15744" lon="6.97016">
        <ele>243.8</ele>
        <time>2020-06-27T09:02:41Z</time>
      </trkpt>
      <trkpt lat="49.15741" lon="6.97024">
        <ele>243.8</ele>
        <time>2020-06-27T09:02:42Z</time>
      </trkpt>
      <trkpt lat="49.15739" lon="6.97031">
        <ele>243.8</ele>
        <time>2020-06-27T09:02:43Z</time>
      </trkpt>
      <trkpt lat="49.15737" lon="6.97039">
        <ele>243.8</ele>
        <time>2020-06-27T09:02:44Z</time>
      </trkpt>
      <trkpt lat="49.15735" lon="6.97046">
        <ele>243.8</ele>
        <time>2020-06-27T09:02:45Z</time>
      </trkpt>
      <trkpt lat="49.15733" lon="6.97054">
        <ele>243.8</ele>
        <time>2020-06-27T09:02:46Z</time>
      </trkpt>
      <trkpt lat="49.1573" lon="6.97061">
        <ele>243.7</ele>
        <time>2020-06-27T09:02:47Z</time>
      </trkpt>
      <trkpt lat="49.15727" lon="6.97069">
        <ele>243.7</ele>
        <time>2020-06-27T09:02:48Z</time>
      </trkpt>
      <trkpt lat="49.15725" lon="6.97076">
        <ele>243.6</ele>
        <time>2020-06-27T09:02:49Z</time>
      </trkpt>
      <trkpt lat="49.15721" lon="6.97083">
        <ele>243.5</ele>
        <time>2020-06-27T09:02:50Z</time>
      </trkpt>
      <trkpt lat="49.15718" lon="6.9709">
        <ele>243.4</ele>
        <time>2020-06-27T09:02:51Z</time>
      </trkpt>
      <trkpt lat="49.15714" lon="6.97096">
        <ele>243.3</ele>
        <time>2020-06-27T09:02:52Z</time>
      </trkpt>
      <trkpt lat="49.15711" lon="6.97103">
        <ele>243.2</ele>
        <time>2020-06-27T09:02:53Z</time>
      </trkpt>
      <trkpt lat="49.15709" lon="6.97111">
        <ele>243.1</ele>
        <time>2020-06-27T09:02:54Z</time>
      </trkpt>
      <trkpt lat="49.15706" lon="6.97118">
        <ele>243.1</ele>
        <time>2020-06-27T09:02:55Z</time>
      </trkpt>
      <trkpt lat="49.15704" lon="6.97126">
        <ele>243</ele>
        <time>2020-06-27T09:02:56Z</time>
      </trkpt>
      <trkpt lat="49.15701" lon="6.97133">
        <ele>242.9</ele>
        <time>2020-06-27T09:02:57Z</time>
      </trkpt>
      <trkpt lat="49.15699" lon="6.97139">
        <ele>242.9</ele>
        <time>2020-06-27T09:02:58Z</time>
      </trkpt>
      <trkpt lat="49.15696" lon="6.97146">
        <ele>242.8</ele>
        <time>2020-06-27T09:02:59Z</time>
      </trkpt>
      <trkpt lat="49.15694" lon="6.97152">
        <ele>242.7</ele>
        <time>2020-06-27T09:03:00Z</time>
      </trkpt>
      <trkpt lat="49.15692" lon="6.97158">
        <ele>242.7</ele>
        <time>2020-06-27T09:03:01Z</time>
      </trkpt>
      <trkpt lat="49.15689" lon="6.97165">
        <ele>242.6</ele>
        <time>2020-06-27T09:03:02Z</time>
      </trkpt>
      <trkpt lat="49.15686" lon="6.97171">
        <ele>242.5</ele>
        <time>2020-06-27T09:03:03Z</time>
      </trkpt>
      <trkpt lat="49.15683" lon="6.97177">
        <ele>242.5</ele>
        <time>2020-06-27T09:03:04Z</time>
      </trkpt>
      <trkpt lat="49.1568" lon="6.97183">
        <ele>242.4</ele>
        <time>2020-06-27T09:03:05Z</time>
      </trkpt>
      <trkpt lat="49.15678" lon="6.97189">
        <ele>242.3</ele>
        <time>2020-06-27T09:03:06Z</time>
      </trkpt>
      <trkpt lat="49.15675" lon="6.97196">
        <ele>242.3</ele>
        <time>2020-06-27T09:03:07Z</time>
      </trkpt>
      <trkpt lat="49.15673" lon="6.97202">
        <ele>242.2</ele>
        <time>2020-06-27T09:03:08Z</time>
      </trkpt>
      <trkpt lat="49.15671" lon="6.97209">
        <ele>242.2</ele>
        <time>2020-06-27T09:03:09Z</time>
      </trkpt>
      <trkpt lat="49.15669" lon="6.97216">
        <ele>242.1</ele>
        <time>2020-06-27T09:03:10Z</time>
      </trkpt>
      <trkpt lat="49.15666" lon="6.97223">
        <ele>242.1</ele>
        <time>2020-06-27T09:03:11Z</time>
      </trkpt>
      <trkpt lat="49.15663" lon="6.97229">
        <ele>242</ele>
        <time>2020-06-27T09:03:12Z</time>
      </trkpt>
      <trkpt lat="49.1566" lon="6.97236">
        <ele>242</ele>
        <time>2020-06-27T09:03:13Z</time>
      </trkpt>
      <trkpt lat="49.15658" lon="6.97244">
        <ele>241.9</ele>
        <time>2020-06-27T09:03:14Z</time>
      </trkpt>
      <trkpt lat="49.15655" lon="6.97252">
        <ele>241.9</ele>
        <time>2020-06-27T09:03:15Z</time>
      </trkpt>
      <trkpt lat="49.15652" lon="6.9726">
        <ele>241.8</ele>
        <time>2020-06-27T09:03:16Z</time>
      </trkpt>
      <trkpt lat="49.15649" lon="6.97267">
        <ele>241.8</ele>
        <time>2020-06-27T09:03:17Z</time>
      </trkpt>
      <trkpt lat="49.15646" lon="6.97275">
        <ele>241.7</ele>
        <time>2020-06-27T09:03:18Z</time>
      </trkpt>
      <trkpt lat="49.15642" lon="6.97283">
        <ele>241.6</ele>
        <time>2020-06-27T09:03:19Z</time>
      </trkpt>
      <trkpt lat="49.1564" lon="6.97293">
        <ele>241.5</ele>
        <time>2020-06-27T09:03:20Z</time>
      </trkpt>
      <trkpt lat="49.15637" lon="6.97302">
        <ele>241.4</ele>
        <time>2020-06-27T09:03:21Z</time>
      </trkpt>
      <trkpt lat="49.15634" lon="6.9731">
        <ele>241.3</ele>
        <time>2020-06-27T09:03:22Z</time>
      </trkpt>
      <trkpt lat="49.1563" lon="6.97318">
        <ele>241.2</ele>
        <time>2020-06-27T09:03:23Z</time>
      </trkpt>
      <trkpt lat="49.15627" lon="6.97326">
        <ele>241.1</ele>
        <time>2020-06-27T09:03:24Z</time>
      </trkpt>
      <trkpt lat="49.15624" lon="6.97336">
        <ele>241.1</ele>
        <time>2020-06-27T09:03:25Z</time>
      </trkpt>
      <trkpt lat="49.1562" lon="6.97345">
        <ele>241</ele>
        <time>2020-06-27T09:03:26Z</time>
      </trkpt>
      <trkpt lat="49.15617" lon="6.97353">
        <ele>241</ele>
        <time>2020-06-27T09:03:27Z</time>
      </trkpt>
      <trkpt lat="49.15613" lon="6.97362">
        <ele>240.9</ele>
        <time>2020-06-27T09:03:28Z</time>
      </trkpt>
      <trkpt lat="49.15609" lon="6.9737">
        <ele>240.9</ele>
        <time>2020-06-27T09:03:29Z</time>
      </trkpt>
      <trkpt lat="49.15605" lon="6.97379">
        <ele>240.9</ele>
        <time>2020-06-27T09:03:30Z</time>
      </trkpt>
      <trkpt lat="49.15602" lon="6.97388">
        <ele>240.8</ele>
        <time>2020-06-27T09:03:31Z</time>
      </trkpt>
      <trkpt lat="49.15599" lon="6.97397">
        <ele>240.7</ele>
        <time>2020-06-27T09:03:32Z</time>
      </trkpt>
      <trkpt lat="49.15596" lon="6.97406">
        <ele>240.7</ele>
        <time>2020-06-27T09:03:33Z</time>
      </trkpt>
      <trkpt lat="49.15593" lon="6.97416">
        <ele>240.6</ele>
        <time>2020-06-27T09:03:34Z</time>
      </trkpt>
      <trkpt lat="49.15592" lon="6.97426">
        <ele>240.6</ele>
        <time>2020-06-27T09:03:35Z</time>
      </trkpt>
      <trkpt lat="49.15592" lon="6.97437">
        <ele>240.6</ele>
        <time>2020-06-27T09:03:36Z</time>
      </trkpt>
      <trkpt lat="49.15591" lon="6.97447">
        <ele>240.5</ele>
        <time>2020-06-27T09:03:37Z</time>
      </trkpt>
      <trkpt lat="49.1559" lon="6.97457">
        <ele>240.4</ele>
        <time>2020-06-27T09:03:38Z</time>
      </trkpt>
      <trkpt lat="49.15589" lon="6.97467">
        <ele>240.3</ele>
        <time>2020-06-27T09:03:39Z</time>
      </trkpt>
      <trkpt lat="49.15588" lon="6.97477">
        <ele>240.2</ele>
        <time>2020-06-27T09:03:40Z</time>
      </trkpt>
      <trkpt lat="49.15586" lon="6.97486">
        <ele>240.1</ele>
        <time>2020-06-27T09:03:41Z</time>
      </trkpt>
      <trkpt lat="49.15585" lon="6.97496">
        <ele>240</ele>
        <time>2020-06-27T09:03:42Z</time>
      </trkpt>
      <trkpt lat="49.15584" lon="6.97505">
        <ele>239.9</ele>
        <time>2020-06-27T09:03:43Z</time>
      </trkpt>
      <trkpt lat="49.15583" lon="6.97515">
        <ele>239.8</ele>
        <time>2020-06-27T09:03:44Z</time>
      </trkpt>
      <trkpt lat="49.15582" lon="6.97525">
        <ele>239.7</ele>
        <time>2020-06-27T09:03:45Z</time>
      </trkpt>
      <trkpt lat="49.15582" lon="6.97534">
        <ele>239.6</ele>
        <time>2020-06-27T09:03:46Z</time>
      </trkpt>
      <trkpt lat="49.15581" lon="6.97543">
        <ele>239.5</ele>
        <time>2020-06-27T09:03:47Z</time>
      </trkpt>
      <trkpt lat="49.1558" lon="6.97552">
        <ele>239.4</ele>
        <time>2020-06-27T09:03:48Z</time>
      </trkpt>
      <trkpt lat="49.15579" lon="6.97562">
        <ele>239.3</ele>
        <time>2020-06-27T09:03:49Z</time>
      </trkpt>
      <trkpt lat="49.15577" lon="6.97572">
        <ele>239.3</ele>
        <time>2020-06-27T09:03:50Z</time>
      </trkpt>
      <trkpt lat="49.15577" lon="6.97581">
        <ele>239.2</ele>
        <time>2020-06-27T09:03:51Z</time>
      </trkpt>
      <trkpt lat="49.15576" lon="6.97591">
        <ele>239.1</ele>
        <time>2020-06-27T09:03:52Z</time>
      </trkpt>
      <trkpt lat="49.15575" lon="6.976">
        <ele>239</ele>
        <time>2020-06-27T09:03:53Z</time>
      </trkpt>
      <trkpt lat="49.15574" lon="6.9761">
        <ele>238.9</ele>
        <time>2020-06-27T09:03:54Z</time>
      </trkpt>
      <trkpt lat="49.15574" lon="6.9762">
        <ele>238.8</ele>
        <time>2020-06-27T09:03:55Z</time>
      </trkpt>
      <trkpt lat="49.15574" lon="6.9763">
        <ele>238.6</ele>
        <time>2020-06-27T09:03:56Z</time>
      </trkpt>
      <trkpt lat="49.15572" lon="6.9764">
        <ele>238.4</ele>
        <time>2020-06-27T09:03:57Z</time>
      </trkpt>
      <trkpt lat="49.15572" lon="6.9765">
        <ele>238.2</ele>
        <time>2020-06-27T09:03:58Z</time>
      </trkpt>
      <trkpt lat="49.15571" lon="6.9766">
        <ele>237.7</ele>
        <time>2020-06-27T09:03:59Z</time>
      </trkpt>
      <trkpt lat="49.15571" lon="6.9767">
        <ele>237.8</ele>
        <time>2020-06-27T09:04:00Z</time>
      </trkpt>
      <trkpt lat="49.1557" lon="6.9768">
        <ele>237.8</ele>
        <time>2020-06-27T09:04:01Z</time>
      </trkpt>
      <trkpt lat="49.15569" lon="6.9769">
        <ele>237.7</ele>
        <time>2020-06-27T09:04:02Z</time>
      </trkpt>
      <trkpt lat="49.15568" lon="6.977">
        <ele>237.6</ele>
        <time>2020-06-27T09:04:03Z</time>
      </trkpt>
      <trkpt lat="49.15567" lon="6.9771">
        <ele>237.5</ele>
        <time>2020-06-27T09:04:04Z</time>
      </trkpt>
      <trkpt lat="49.15566" lon="6.97721">
        <ele>237.3</ele>
        <time>2020-06-27T09:04:05Z</time>
      </trkpt>
      <trkpt lat="49.15566" lon="6.97731">
        <ele>237.1</ele>
        <time>2020-06-27T09:04:06Z</time>
      </trkpt>
      <trkpt lat="49.15565" lon="6.97741">
        <ele>236.9</ele>
        <time>2020-06-27T09:04:07Z</time>
      </trkpt>
      <trkpt lat="49.15564" lon="6.97752">
        <ele>236.7</ele>
        <time>2020-06-27T09:04:08Z</time>
      </trkpt>
      <trkpt lat="49.15564" lon="6.97763">
        <ele>236.5</ele>
        <time>2020-06-27T09:04:09Z</time>
      </trkpt>
      <trkpt lat="49.15564" lon="6.97773">
        <ele>236.2</ele>
        <time>2020-06-27T09:04:10Z</time>
      </trkpt>
      <trkpt lat="49.15563" lon="6.97784">
        <ele>236</ele>
        <time>2020-06-27T09:04:11Z</time>
      </trkpt>
      <trkpt lat="49.15563" lon="6.97795">
        <ele>235.7</ele>
        <time>2020-06-27T09:04:12Z</time>
      </trkpt>
      <trkpt lat="49.15562" lon="6.97806">
        <ele>235.5</ele>
        <time>2020-06-27T09:04:13Z</time>
      </trkpt>
      <trkpt lat="49.15561" lon="6.97817">
        <ele>235.2</ele>
        <time>2020-06-27T09:04:14Z</time>
      </trkpt>
      <trkpt lat="49.1556" lon="6.97828">
        <ele>234.9</ele>
        <time>2020-06-27T09:04:15Z</time>
      </trkpt>
      <trkpt lat="49.15559" lon="6.97838">
        <ele>234.7</ele>
        <time>2020-06-27T09:04:16Z</time>
      </trkpt>
      <trkpt lat="49.15559" lon="6.97846">
        <ele>234.5</ele>
        <time>2020-06-27T09:04:17Z</time>
      </trkpt>
      <trkpt lat="49.15558" lon="6.97856">
        <ele>234.3</ele>
        <time>2020-06-27T09:04:18Z</time>
      </trkpt>
      <trkpt lat="49.15557" lon="6.97866">
        <ele>234.1</ele>
        <time>2020-06-27T09:04:19Z</time>
      </trkpt>
      <trkpt lat="49.15556" lon="6.97877">
        <ele>233.9</ele>
        <time>2020-06-27T09:04:20Z</time>
      </trkpt>
      <trkpt lat="49.15556" lon="6.97887">
        <ele>233.7</ele>
        <time>2020-06-27T09:04:21Z</time>
      </trkpt>
      <trkpt lat="49.15555" lon="6.97898">
        <ele>233.5</ele>
        <time>2020-06-27T09:04:22Z</time>
      </trkpt>
      <trkpt lat="49.15554" lon="6.97909">
        <ele>233.4</ele>
        <time>2020-06-27T09:04:23Z</time>
      </trkpt>
      <trkpt lat="49.15553" lon="6.9792">
        <ele>233.3</ele>
        <time>2020-06-27T09:04:24Z</time>
      </trkpt>
      <trkpt lat="49.15553" lon="6.97931">
        <ele>233.1</ele>
        <time>2020-06-27T09:04:25Z</time>
      </trkpt>
      <trkpt lat="49.15553" lon="6.97942">
        <ele>232.9</ele>
        <time>2020-06-27T09:04:26Z</time>
      </trkpt>
      <trkpt lat="49.15553" lon="6.97953">
        <ele>232.8</ele>
        <time>2020-06-27T09:04:27Z</time>
      </trkpt>
      <trkpt lat="49.15553" lon="6.97963">
        <ele>232.8</ele>
        <time>2020-06-27T09:04:28Z</time>
      </trkpt>
      <trkpt lat="49.15552" lon="6.97972">
        <ele>232.8</ele>
        <time>2020-06-27T09:04:29Z</time>
      </trkpt>
      <trkpt lat="49.15552" lon="6.97982">
        <ele>232.9</ele>
        <time>2020-06-27T09:04:30Z</time>
      </trkpt>
      <trkpt lat="49.15552" lon="6.97992">
        <ele>233.1</ele>
        <time>2020-06-27T09:04:31Z</time>
      </trkpt>
      <trkpt lat="49.1555" lon="6.98001">
        <ele>233.2</ele>
        <time>2020-06-27T09:04:32Z</time>
      </trkpt>
      <trkpt lat="49.15549" lon="6.98011">
        <ele>233.2</ele>
        <time>2020-06-27T09:04:33Z</time>
      </trkpt>
      <trkpt lat="49.15548" lon="6.9802">
        <ele>233.3</ele>
        <time>2020-06-27T09:04:34Z</time>
      </trkpt>
      <trkpt lat="49.15548" lon="6.9803">
        <ele>233.2</ele>
        <time>2020-06-27T09:04:35Z</time>
      </trkpt>
      <trkpt lat="49.15548" lon="6.9804">
        <ele>233.2</ele>
        <time>2020-06-27T09:04:36Z</time>
      </trkpt>
      <trkpt lat="49.15547" lon="6.98049">
        <ele>233.2</ele>
        <time>2020-06-27T09:04:37Z</time>
      </trkpt>
      <trkpt lat="49.15546" lon="6.98058">
        <ele>233.2</ele>
        <time>2020-06-27T09:04:38Z</time>
      </trkpt>
      <trkpt lat="49.15544" lon="6.98067">
        <ele>233.1</ele>
        <time>2020-06-27T09:04:39Z</time>
      </trkpt>
      <trkpt lat="49.15544" lon="6.98075">
        <ele>233.1</ele>
        <time>2020-06-27T09:04:40Z</time>
      </trkpt>
      <trkpt lat="49.15543" lon="6.98084">
        <ele>233</ele>
        <time>2020-06-27T09:04:41Z</time>
      </trkpt>
      <trkpt lat="49.15542" lon="6.98093">
        <ele>232.9</ele>
        <time>2020-06-27T09:04:42Z</time>
      </trkpt>
      <trkpt lat="49.15541" lon="6.98102">
        <ele>232.9</ele>
        <time>2020-06-27T09:04:43Z</time>
      </trkpt>
      <trkpt lat="49.1554" lon="6.98111">
        <ele>233</ele>
        <time>2020-06-27T09:04:44Z</time>
      </trkpt>
      <trkpt lat="49.1554" lon="6.98121">
        <ele>233.2</ele>
        <time>2020-06-27T09:04:45Z</time>
      </trkpt>
      <trkpt lat="49.15541" lon="6.98131">
        <ele>233.4</ele>
        <time>2020-06-27T09:04:46Z</time>
      </trkpt>
      <trkpt lat="49.1554" lon="6.98141">
        <ele>233.4</ele>
        <time>2020-06-27T09:04:47Z</time>
      </trkpt>
      <trkpt lat="49.15539" lon="6.9815">
        <ele>233.5</ele>
        <time>2020-06-27T09:04:48Z</time>
      </trkpt>
      <trkpt lat="49.15537" lon="6.98159">
        <ele>233.5</ele>
        <time>2020-06-27T09:04:49Z</time>
      </trkpt>
      <trkpt lat="49.15537" lon="6.98168">
        <ele>233.5</ele>
        <time>2020-06-27T09:04:50Z</time>
      </trkpt>
      <trkpt lat="49.15536" lon="6.98177">
        <ele>233.5</ele>
        <time>2020-06-27T09:04:51Z</time>
      </trkpt>
      <trkpt lat="49.15535" lon="6.98185">
        <ele>233.5</ele>
        <time>2020-06-27T09:04:52Z</time>
      </trkpt>
      <trkpt lat="49.15534" lon="6.98194">
        <ele>233.5</ele>
        <time>2020-06-27T09:04:53Z</time>
      </trkpt>
      <trkpt lat="49.15534" lon="6.98202">
        <ele>233.4</ele>
        <time>2020-06-27T09:04:54Z</time>
      </trkpt>
      <trkpt lat="49.15533" lon="6.9821">
        <ele>233.4</ele>
        <time>2020-06-27T09:04:55Z</time>
      </trkpt>
      <trkpt lat="49.15533" lon="6.98219">
        <ele>233.3</ele>
        <time>2020-06-27T09:04:56Z</time>
      </trkpt>
      <trkpt lat="49.15533" lon="6.98227">
        <ele>233.2</ele>
        <time>2020-06-27T09:04:57Z</time>
      </trkpt>
      <trkpt lat="49.15533" lon="6.98236">
        <ele>233.1</ele>
        <time>2020-06-27T09:04:58Z</time>
      </trkpt>
      <trkpt lat="49.15532" lon="6.98245">
        <ele>232.9</ele>
        <time>2020-06-27T09:04:59Z</time>
      </trkpt>
      <trkpt lat="49.15532" lon="6.98255">
        <ele>233.2</ele>
        <time>2020-06-27T09:05:00Z</time>
      </trkpt>
      <trkpt lat="49.15532" lon="6.98264">
        <ele>233.6</ele>
        <time>2020-06-27T09:05:01Z</time>
      </trkpt>
      <trkpt lat="49.15532" lon="6.98274">
        <ele>233.9</ele>
        <time>2020-06-27T09:05:02Z</time>
      </trkpt>
      <trkpt lat="49.15532" lon="6.98283">
        <ele>234</ele>
        <time>2020-06-27T09:05:03Z</time>
      </trkpt>
      <trkpt lat="49.15533" lon="6.98292">
        <ele>234</ele>
        <time>2020-06-27T09:05:04Z</time>
      </trkpt>
      <trkpt lat="49.15534" lon="6.98301">
        <ele>234</ele>
        <time>2020-06-27T09:05:05Z</time>
      </trkpt>
      <trkpt lat="49.15535" lon="6.9831">
        <ele>233.9</ele>
        <time>2020-06-27T09:05:06Z</time>
      </trkpt>
      <trkpt lat="49.15536" lon="6.98319">
        <ele>233.9</ele>
        <time>2020-06-27T09:05:07Z</time>
      </trkpt>
      <trkpt lat="49.15537" lon="6.98328">
        <ele>233.9</ele>
        <time>2020-06-27T09:05:08Z</time>
      </trkpt>
      <trkpt lat="49.15538" lon="6.98338">
        <ele>233.8</ele>
        <time>2020-06-27T09:05:09Z</time>
      </trkpt>
      <trkpt lat="49.15539" lon="6.98346">
        <ele>233.8</ele>
        <time>2020-06-27T09:05:10Z</time>
      </trkpt>
      <trkpt lat="49.1554" lon="6.98355">
        <ele>233.8</ele>
        <time>2020-06-27T09:05:11Z</time>
      </trkpt>
      <trkpt lat="49.15541" lon="6.98364">
        <ele>233.8</ele>
        <time>2020-06-27T09:05:12Z</time>
      </trkpt>
      <trkpt lat="49.15543" lon="6.98372">
        <ele>233.8</ele>
        <time>2020-06-27T09:05:13Z</time>
      </trkpt>
      <trkpt lat="49.15545" lon="6.9838">
        <ele>233.7</ele>
        <time>2020-06-27T09:05:14Z</time>
      </trkpt>
      <trkpt lat="49.15548" lon="6.98388">
        <ele>233.7</ele>
        <time>2020-06-27T09:05:15Z</time>
      </trkpt>
      <trkpt lat="49.15551" lon="6.98396">
        <ele>233.7</ele>
        <time>2020-06-27T09:05:16Z</time>
      </trkpt>
      <trkpt lat="49.15554" lon="6.98403">
        <ele>233.7</ele>
        <time>2020-06-27T09:05:17Z</time>
      </trkpt>
      <trkpt lat="49.15556" lon="6.9841">
        <ele>233.7</ele>
        <time>2020-06-27T09:05:18Z</time>
      </trkpt>
      <trkpt lat="49.15558" lon="6.98419">
        <ele>233.6</ele>
        <time>2020-06-27T09:05:19Z</time>
      </trkpt>
      <trkpt lat="49.1556" lon="6.98428">
        <ele>233.6</ele>
        <time>2020-06-27T09:05:20Z</time>
      </trkpt>
      <trkpt lat="49.15562" lon="6.98436">
        <ele>233.6</ele>
        <time>2020-06-27T09:05:21Z</time>
      </trkpt>
      <trkpt lat="49.15565" lon="6.98444">
        <ele>233.5</ele>
        <time>2020-06-27T09:05:22Z</time>
      </trkpt>
      <trkpt lat="49.15568" lon="6.98451">
        <ele>233.5</ele>
        <time>2020-06-27T09:05:23Z</time>
      </trkpt>
      <trkpt lat="49.15571" lon="6.98459">
        <ele>233.4</ele>
        <time>2020-06-27T09:05:24Z</time>
      </trkpt>
      <trkpt lat="49.15573" lon="6.98467">
        <ele>233.4</ele>
        <time>2020-06-27T09:05:25Z</time>
      </trkpt>
      <trkpt lat="49.15576" lon="6.98474">
        <ele>233.3</ele>
        <time>2020-06-27T09:05:26Z</time>
      </trkpt>
      <trkpt lat="49.15579" lon="6.98481">
        <ele>233.3</ele>
        <time>2020-06-27T09:05:27Z</time>
      </trkpt>
      <trkpt lat="49.1558" lon="6.98489">
        <ele>233.2</ele>
        <time>2020-06-27T09:05:28Z</time>
      </trkpt>
      <trkpt lat="49.15583" lon="6.98497">
        <ele>233.2</ele>
        <time>2020-06-27T09:05:29Z</time>
      </trkpt>
      <trkpt lat="49.15585" lon="6.98504">
        <ele>233.1</ele>
        <time>2020-06-27T09:05:30Z</time>
      </trkpt>
      <trkpt lat="49.15588" lon="6.98513">
        <ele>233.1</ele>
        <time>2020-06-27T09:05:31Z</time>
      </trkpt>
      <trkpt lat="49.15591" lon="6.98521">
        <ele>233</ele>
        <time>2020-06-27T09:05:32Z</time>
      </trkpt>
      <trkpt lat="49.15593" lon="6.9853">
        <ele>232.9</ele>
        <time>2020-06-27T09:05:33Z</time>
      </trkpt>
      <trkpt lat="49.15596" lon="6.98539">
        <ele>232.8</ele>
        <time>2020-06-27T09:05:34Z</time>
      </trkpt>
      <trkpt lat="49.15599" lon="6.98548">
        <ele>232.8</ele>
        <time>2020-06-27T09:05:35Z</time>
      </trkpt>
      <trkpt lat="49.15602" lon="6.98556">
        <ele>232.7</ele>
        <time>2020-06-27T09:05:36Z</time>
      </trkpt>
      <trkpt lat="49.15604" lon="6.98565">
        <ele>232.6</ele>
        <time>2020-06-27T09:05:37Z</time>
      </trkpt>
      <trkpt lat="49.15607" lon="6.98574">
        <ele>232.6</ele>
        <time>2020-06-27T09:05:38Z</time>
      </trkpt>
      <trkpt lat="49.1561" lon="6.98582">
        <ele>232.5</ele>
        <time>2020-06-27T09:05:39Z</time>
      </trkpt>
      <trkpt lat="49.15613" lon="6.9859">
        <ele>232.4</ele>
        <time>2020-06-27T09:05:40Z</time>
      </trkpt>
      <trkpt lat="49.15617" lon="6.98598">
        <ele>232.4</ele>
        <time>2020-06-27T09:05:41Z</time>
      </trkpt>
      <trkpt lat="49.15619" lon="6.98606">
        <ele>232.3</ele>
        <time>2020-06-27T09:05:42Z</time>
      </trkpt>
      <trkpt lat="49.15622" lon="6.98614">
        <ele>232.3</ele>
        <time>2020-06-27T09:05:43Z</time>
      </trkpt>
      <trkpt lat="49.15626" lon="6.98621">
        <ele>232.3</ele>
        <time>2020-06-27T09:05:44Z</time>
      </trkpt>
      <trkpt lat="49.15629" lon="6.98629">
        <ele>232.3</ele>
        <time>2020-06-27T09:05:45Z</time>
      </trkpt>
      <trkpt lat="49.15632" lon="6.98636">
        <ele>232.4</ele>
        <time>2020-06-27T09:05:46Z</time>
      </trkpt>
      <trkpt lat="49.15635" lon="6.98644">
        <ele>232.4</ele>
        <time>2020-06-27T09:05:47Z</time>
      </trkpt>
      <trkpt lat="49.15638" lon="6.98651">
        <ele>232.4</ele>
        <time>2020-06-27T09:05:48Z</time>
      </trkpt>
      <trkpt lat="49.1564" lon="6.98658">
        <ele>232.4</ele>
        <time>2020-06-27T09:05:49Z</time>
      </trkpt>
      <trkpt lat="49.15643" lon="6.98664">
        <ele>232.4</ele>
        <time>2020-06-27T09:05:50Z</time>
      </trkpt>
      <trkpt lat="49.15645" lon="6.98671">
        <ele>232.3</ele>
        <time>2020-06-27T09:05:51Z</time>
      </trkpt>
      <trkpt lat="49.15647" lon="6.98679">
        <ele>232.3</ele>
        <time>2020-06-27T09:05:52Z</time>
      </trkpt>
      <trkpt lat="49.15649" lon="6.98686">
        <ele>232.3</ele>
        <time>2020-06-27T09:05:53Z</time>
      </trkpt>
      <trkpt lat="49.15651" lon="6.98692">
        <ele>232.3</ele>
        <time>2020-06-27T09:05:54Z</time>
      </trkpt>
      <trkpt lat="49.15654" lon="6.98698">
        <ele>232.3</ele>
        <time>2020-06-27T09:05:55Z</time>
      </trkpt>
      <trkpt lat="49.15657" lon="6.98704">
        <ele>232.3</ele>
        <time>2020-06-27T09:05:56Z</time>
      </trkpt>
      <trkpt lat="49.15661" lon="6.98711">
        <ele>232.2</ele>
        <time>2020-06-27T09:05:57Z</time>
      </trkpt>
      <trkpt lat="49.15664" lon="6.98718">
        <ele>232.2</ele>
        <time>2020-06-27T09:05:58Z</time>
      </trkpt>
      <trkpt lat="49.15666" lon="6.98725">
        <ele>232.1</ele>
        <time>2020-06-27T09:05:59Z</time>
      </trkpt>
      <trkpt lat="49.15668" lon="6.98732">
        <ele>232.1</ele>
        <time>2020-06-27T09:06:00Z</time>
      </trkpt>
      <trkpt lat="49.1567" lon="6.9874">
        <ele>232.1</ele>
        <time>2020-06-27T09:06:01Z</time>
      </trkpt>
      <trkpt lat="49.15673" lon="6.98749">
        <ele>232.1</ele>
        <time>2020-06-27T09:06:02Z</time>
      </trkpt>
      <trkpt lat="49.15675" lon="6.98757">
        <ele>232.1</ele>
        <time>2020-06-27T09:06:03Z</time>
      </trkpt>
      <trkpt lat="49.15676" lon="6.98767">
        <ele>232</ele>
        <time>2020-06-27T09:06:04Z</time>
      </trkpt>
      <trkpt lat="49.15677" lon="6.98776">
        <ele>232</ele>
        <time>2020-06-27T09:06:05Z</time>
      </trkpt>
      <trkpt lat="49.15679" lon="6.98785">
        <ele>231.9</ele>
        <time>2020-06-27T09:06:06Z</time>
      </trkpt>
      <trkpt lat="49.1568" lon="6.98795">
        <ele>231.8</ele>
        <time>2020-06-27T09:06:07Z</time>
      </trkpt>
      <trkpt lat="49.15681" lon="6.98804">
        <ele>231.6</ele>
        <time>2020-06-27T09:06:08Z</time>
      </trkpt>
      <trkpt lat="49.15681" lon="6.98813">
        <ele>231.1</ele>
        <time>2020-06-27T09:06:09Z</time>
      </trkpt>
      <trkpt lat="49.15681" lon="6.98822">
        <ele>231.2</ele>
        <time>2020-06-27T09:06:10Z</time>
      </trkpt>
      <trkpt lat="49.1568" lon="6.98831">
        <ele>231.3</ele>
        <time>2020-06-27T09:06:11Z</time>
      </trkpt>
      <trkpt lat="49.1568" lon="6.98841">
        <ele>231.3</ele>
        <time>2020-06-27T09:06:12Z</time>
      </trkpt>
      <trkpt lat="49.15679" lon="6.98851">
        <ele>231.2</ele>
        <time>2020-06-27T09:06:13Z</time>
      </trkpt>
      <trkpt lat="49.15679" lon="6.98861">
        <ele>231.2</ele>
        <time>2020-06-27T09:06:14Z</time>
      </trkpt>
      <trkpt lat="49.15677" lon="6.98871">
        <ele>231.1</ele>
        <time>2020-06-27T09:06:15Z</time>
      </trkpt>
      <trkpt lat="49.15676" lon="6.98881">
        <ele>231</ele>
        <time>2020-06-27T09:06:16Z</time>
      </trkpt>
      <trkpt lat="49.15675" lon="6.9889">
        <ele>231</ele>
        <time>2020-06-27T09:06:17Z</time>
      </trkpt>
      <trkpt lat="49.15673" lon="6.98899">
        <ele>231</ele>
        <time>2020-06-27T09:06:18Z</time>
      </trkpt>
      <trkpt lat="49.1567" lon="6.98907">
        <ele>230.9</ele>
        <time>2020-06-27T09:06:19Z</time>
      </trkpt>
      <trkpt lat="49.15669" lon="6.98916">
        <ele>230.9</ele>
        <time>2020-06-27T09:06:20Z</time>
      </trkpt>
      <trkpt lat="49.15666" lon="6.98924">
        <ele>230.9</ele>
        <time>2020-06-27T09:06:21Z</time>
      </trkpt>
      <trkpt lat="49.15664" lon="6.98933">
        <ele>230.9</ele>
        <time>2020-06-27T09:06:22Z</time>
      </trkpt>
      <trkpt lat="49.15661" lon="6.9894">
        <ele>230.9</ele>
        <time>2020-06-27T09:06:23Z</time>
      </trkpt>
      <trkpt lat="49.15657" lon="6.98947">
        <ele>230.8</ele>
        <time>2020-06-27T09:06:24Z</time>
      </trkpt>
      <trkpt lat="49.15654" lon="6.98955">
        <ele>230.8</ele>
        <time>2020-06-27T09:06:25Z</time>
      </trkpt>
      <trkpt lat="49.15652" lon="6.98963">
        <ele>230.8</ele>
        <time>2020-06-27T09:06:26Z</time>
      </trkpt>
      <trkpt lat="49.15649" lon="6.98971">
        <ele>230.8</ele>
        <time>2020-06-27T09:06:27Z</time>
      </trkpt>
      <trkpt lat="49.15647" lon="6.98979">
        <ele>230.9</ele>
        <time>2020-06-27T09:06:28Z</time>
      </trkpt>
      <trkpt lat="49.15644" lon="6.98987">
        <ele>230.9</ele>
        <time>2020-06-27T09:06:29Z</time>
      </trkpt>
      <trkpt lat="49.15642" lon="6.98995">
        <ele>230.9</ele>
        <time>2020-06-27T09:06:30Z</time>
      </trkpt>
      <trkpt lat="49.1564" lon="6.99003">
        <ele>230.9</ele>
        <time>2020-06-27T09:06:31Z</time>
      </trkpt>
      <trkpt lat="49.15638" lon="6.99012">
        <ele>230.9</ele>
        <time>2020-06-27T09:06:32Z</time>
      </trkpt>
      <trkpt lat="49.15635" lon="6.9902">
        <ele>230.9</ele>
        <time>2020-06-27T09:06:33Z</time>
      </trkpt>
      <trkpt lat="49.15633" lon="6.99029">
        <ele>230.9</ele>
        <time>2020-06-27T09:06:34Z</time>
      </trkpt>
      <trkpt lat="49.15631" lon="6.99037">
        <ele>230.9</ele>
        <time>2020-06-27T09:06:35Z</time>
      </trkpt>
      <trkpt lat="49.15628" lon="6.99045">
        <ele>231</ele>
        <time>2020-06-27T09:06:36Z</time>
      </trkpt>
      <trkpt lat="49.15625" lon="6.99053">
        <ele>231</ele>
        <time>2020-06-27T09:06:37Z</time>
      </trkpt>
      <trkpt lat="49.15623" lon="6.99061">
        <ele>231</ele>
        <time>2020-06-27T09:06:38Z</time>
      </trkpt>
      <trkpt lat="49.15621" lon="6.99068">
        <ele>231</ele>
        <time>2020-06-27T09:06:39Z</time>
      </trkpt>
      <trkpt lat="49.15616" lon="6.99075">
        <ele>231</ele>
        <time>2020-06-27T09:06:40Z</time>
      </trkpt>
      <trkpt lat="49.15614" lon="6.99083">
        <ele>231</ele>
        <time>2020-06-27T09:06:41Z</time>
      </trkpt>
      <trkpt lat="49.15612" lon="6.99091">
        <ele>231</ele>
        <time>2020-06-27T09:06:42Z</time>
      </trkpt>
      <trkpt lat="49.1561" lon="6.99098">
        <ele>231</ele>
        <time>2020-06-27T09:06:43Z</time>
      </trkpt>
      <trkpt lat="49.15608" lon="6.99106">
        <ele>231</ele>
        <time>2020-06-27T09:06:44Z</time>
      </trkpt>
      <trkpt lat="49.15605" lon="6.99113">
        <ele>231</ele>
        <time>2020-06-27T09:06:45Z</time>
      </trkpt>
      <trkpt lat="49.15602" lon="6.99121">
        <ele>230.9</ele>
        <time>2020-06-27T09:06:46Z</time>
      </trkpt>
      <trkpt lat="49.15598" lon="6.99129">
        <ele>230.9</ele>
        <time>2020-06-27T09:06:47Z</time>
      </trkpt>
      <trkpt lat="49.15594" lon="6.99136">
        <ele>230.9</ele>
        <time>2020-06-27T09:06:48Z</time>
      </trkpt>
      <trkpt lat="49.15591" lon="6.99144">
        <ele>230.9</ele>
        <time>2020-06-27T09:06:49Z</time>
      </trkpt>
      <trkpt lat="49.15589" lon="6.99152">
        <ele>230.9</ele>
        <time>2020-06-27T09:06:50Z</time>
      </trkpt>
      <trkpt lat="49.15586" lon="6.99159">
        <ele>230.9</ele>
        <time>2020-06-27T09:06:51Z</time>
      </trkpt>
      <trkpt lat="49.15582" lon="6.99166">
        <ele>230.9</ele>
        <time>2020-06-27T09:06:52Z</time>
      </trkpt>
      <trkpt lat="49.1558" lon="6.99174">
        <ele>230.8</ele>
        <time>2020-06-27T09:06:53Z</time>
      </trkpt>
      <trkpt lat="49.15577" lon="6.99181">
        <ele>230.8</ele>
        <time>2020-06-27T09:06:54Z</time>
      </trkpt>
      <trkpt lat="49.15574" lon="6.99188">
        <ele>230.7</ele>
        <time>2020-06-27T09:06:55Z</time>
      </trkpt>
      <trkpt lat="49.15571" lon="6.99196">
        <ele>230.7</ele>
        <time>2020-06-27T09:06:56Z</time>
      </trkpt>
      <trkpt lat="49.15568" lon="6.99204">
        <ele>230.6</ele>
        <time>2020-06-27T09:06:57Z</time>
      </trkpt>
      <trkpt lat="49.15566" lon="6.99212">
        <ele>230.5</ele>
        <time>2020-06-27T09:06:58Z</time>
      </trkpt>
      <trkpt lat="49.15564" lon="6.9922">
        <ele>230.4</ele>
        <time>2020-06-27T09:06:59Z</time>
      </trkpt>
      <trkpt lat="49.1556" lon="6.99228">
        <ele>230.4</ele>
        <time>2020-06-27T09:07:00Z</time>
      </trkpt>
      <trkpt lat="49.15558" lon="6.99235">
        <ele>230.3</ele>
        <time>2020-06-27T09:07:01Z</time>
      </trkpt>
      <trkpt lat="49.15556" lon="6.99243">
        <ele>230.2</ele>
        <time>2020-06-27T09:07:02Z</time>
      </trkpt>
      <trkpt lat="49.15553" lon="6.9925">
        <ele>230.1</ele>
        <time>2020-06-27T09:07:03Z</time>
      </trkpt>
      <trkpt lat="49.1555" lon="6.99257">
        <ele>230</ele>
        <time>2020-06-27T09:07:04Z</time>
      </trkpt>
      <trkpt lat="49.15548" lon="6.99264">
        <ele>229.9</ele>
        <time>2020-06-27T09:07:05Z</time>
      </trkpt>
      <trkpt lat="49.15546" lon="6.99272">
        <ele>229.8</ele>
        <time>2020-06-27T09:07:06Z</time>
      </trkpt>
      <trkpt lat="49.15545" lon="6.99279">
        <ele>229.7</ele>
        <time>2020-06-27T09:07:07Z</time>
      </trkpt>
      <trkpt lat="49.15543" lon="6.99286">
        <ele>229.6</ele>
        <time>2020-06-27T09:07:08Z</time>
      </trkpt>
      <trkpt lat="49.1554" lon="6.99293">
        <ele>229.4</ele>
        <time>2020-06-27T09:07:09Z</time>
      </trkpt>
      <trkpt lat="49.15538" lon="6.993">
        <ele>229.1</ele>
        <time>2020-06-27T09:07:10Z</time>
      </trkpt>
      <trkpt lat="49.15537" lon="6.99307">
        <ele>229.1</ele>
        <time>2020-06-27T09:07:11Z</time>
      </trkpt>
      <trkpt lat="49.15534" lon="6.99315">
        <ele>228.8</ele>
        <time>2020-06-27T09:07:12Z</time>
      </trkpt>
      <trkpt lat="49.15532" lon="6.99322">
        <ele>228.6</ele>
        <time>2020-06-27T09:07:13Z</time>
      </trkpt>
      <trkpt lat="49.1553" lon="6.99331">
        <ele>228.3</ele>
        <time>2020-06-27T09:07:14Z</time>
      </trkpt>
      <trkpt lat="49.1553" lon="6.99341">
        <ele>228.1</ele>
        <time>2020-06-27T09:07:15Z</time>
      </trkpt>
      <trkpt lat="49.15529" lon="6.9935">
        <ele>227.9</ele>
        <time>2020-06-27T09:07:16Z</time>
      </trkpt>
      <trkpt lat="49.15528" lon="6.9936">
        <ele>227.7</ele>
        <time>2020-06-27T09:07:17Z</time>
      </trkpt>
      <trkpt lat="49.15526" lon="6.9937">
        <ele>227.4</ele>
        <time>2020-06-27T09:07:18Z</time>
      </trkpt>
      <trkpt lat="49.15526" lon="6.9938">
        <ele>227.2</ele>
        <time>2020-06-27T09:07:19Z</time>
      </trkpt>
      <trkpt lat="49.15525" lon="6.9939">
        <ele>227</ele>
        <time>2020-06-27T09:07:20Z</time>
      </trkpt>
      <trkpt lat="49.15525" lon="6.994">
        <ele>226.7</ele>
        <time>2020-06-27T09:07:21Z</time>
      </trkpt>
      <trkpt lat="49.15524" lon="6.99409">
        <ele>226.5</ele>
        <time>2020-06-27T09:07:22Z</time>
      </trkpt>
      <trkpt lat="49.15523" lon="6.99418">
        <ele>226.3</ele>
        <time>2020-06-27T09:07:23Z</time>
      </trkpt>
      <trkpt lat="49.15523" lon="6.99428">
        <ele>226.1</ele>
        <time>2020-06-27T09:07:24Z</time>
      </trkpt>
      <trkpt lat="49.15521" lon="6.99438">
        <ele>225.8</ele>
        <time>2020-06-27T09:07:25Z</time>
      </trkpt>
      <trkpt lat="49.15519" lon="6.99449">
        <ele>225.6</ele>
        <time>2020-06-27T09:07:26Z</time>
      </trkpt>
      <trkpt lat="49.15519" lon="6.99459">
        <ele>225.4</ele>
        <time>2020-06-27T09:07:27Z</time>
      </trkpt>
      <trkpt lat="49.15518" lon="6.99469">
        <ele>225.2</ele>
        <time>2020-06-27T09:07:28Z</time>
      </trkpt>
      <trkpt lat="49.15518" lon="6.99479">
        <ele>225</ele>
        <time>2020-06-27T09:07:29Z</time>
      </trkpt>
      <trkpt lat="49.15517" lon="6.99489">
        <ele>224.8</ele>
        <time>2020-06-27T09:07:30Z</time>
      </trkpt>
      <trkpt lat="49.15516" lon="6.995">
        <ele>224.5</ele>
        <time>2020-06-27T09:07:31Z</time>
      </trkpt>
      <trkpt lat="49.15515" lon="6.99511">
        <ele>224.2</ele>
        <time>2020-06-27T09:07:32Z</time>
      </trkpt>
      <trkpt lat="49.15515" lon="6.99523">
        <ele>223.8</ele>
        <time>2020-06-27T09:07:33Z</time>
      </trkpt>
      <trkpt lat="49.15513" lon="6.99534">
        <ele>223.7</ele>
        <time>2020-06-27T09:07:34Z</time>
      </trkpt>
      <trkpt lat="49.15512" lon="6.99545">
        <ele>223.5</ele>
        <time>2020-06-27T09:07:35Z</time>
      </trkpt>
      <trkpt lat="49.1551" lon="6.99555">
        <ele>223.2</ele>
        <time>2020-06-27T09:07:36Z</time>
      </trkpt>
      <trkpt lat="49.15507" lon="6.99565">
        <ele>222.9</ele>
        <time>2020-06-27T09:07:37Z</time>
      </trkpt>
      <trkpt lat="49.15504" lon="6.99575">
        <ele>222.6</ele>
        <time>2020-06-27T09:07:38Z</time>
      </trkpt>
      <trkpt lat="49.15499" lon="6.99584">
        <ele>222.4</ele>
        <time>2020-06-27T09:07:39Z</time>
      </trkpt>
      <trkpt lat="49.15494" lon="6.99592">
        <ele>222.1</ele>
        <time>2020-06-27T09:07:40Z</time>
      </trkpt>
      <trkpt lat="49.15488" lon="6.996">
        <ele>221.8</ele>
        <time>2020-06-27T09:07:41Z</time>
      </trkpt>
      <trkpt lat="49.15482" lon="6.99607">
        <ele>221.5</ele>
        <time>2020-06-27T09:07:42Z</time>
      </trkpt>
      <trkpt lat="49.15475" lon="6.99613">
        <ele>221.3</ele>
        <time>2020-06-27T09:07:43Z</time>
      </trkpt>
      <trkpt lat="49.15469" lon="6.99618">
        <ele>221</ele>
        <time>2020-06-27T09:07:44Z</time>
      </trkpt>
      <trkpt lat="49.15462" lon="6.99622">
        <ele>220.7</ele>
        <time>2020-06-27T09:07:45Z</time>
      </trkpt>
      <trkpt lat="49.15455" lon="6.99627">
        <ele>220.6</ele>
        <time>2020-06-27T09:07:46Z</time>
      </trkpt>
      <trkpt lat="49.15449" lon="6.99632">
        <ele>220.4</ele>
        <time>2020-06-27T09:07:47Z</time>
      </trkpt>
      <trkpt lat="49.15442" lon="6.99637">
        <ele>220.3</ele>
        <time>2020-06-27T09:07:48Z</time>
      </trkpt>
      <trkpt lat="49.15437" lon="6.99642">
        <ele>220.1</ele>
        <time>2020-06-27T09:07:49Z</time>
      </trkpt>
      <trkpt lat="49.15431" lon="6.99648">
        <ele>220</ele>
        <time>2020-06-27T09:07:50Z</time>
      </trkpt>
      <trkpt lat="49.15426" lon="6.99655">
        <ele>219.9</ele>
        <time>2020-06-27T09:07:51Z</time>
      </trkpt>
      <trkpt lat="49.15421" lon="6.99661">
        <ele>219.8</ele>
        <time>2020-06-27T09:07:52Z</time>
      </trkpt>
      <trkpt lat="49.15416" lon="6.99668">
        <ele>219.7</ele>
        <time>2020-06-27T09:07:53Z</time>
      </trkpt>
      <trkpt lat="49.15411" lon="6.99674">
        <ele>219.7</ele>
        <time>2020-06-27T09:07:54Z</time>
      </trkpt>
      <trkpt lat="49.15406" lon="6.99681">
        <ele>219.7</ele>
        <time>2020-06-27T09:07:55Z</time>
      </trkpt>
      <trkpt lat="49.15402" lon="6.99689">
        <ele>219.7</ele>
        <time>2020-06-27T09:07:56Z</time>
      </trkpt>
      <trkpt lat="49.15396" lon="6.99695">
        <ele>219.8</ele>
        <time>2020-06-27T09:07:57Z</time>
      </trkpt>
      <trkpt lat="49.15392" lon="6.99703">
        <ele>219.9</ele>
        <time>2020-06-27T09:07:58Z</time>
      </trkpt>
      <trkpt lat="49.15387" lon="6.9971">
        <ele>220</ele>
        <time>2020-06-27T09:07:59Z</time>
      </trkpt>
      <trkpt lat="49.15382" lon="6.99717">
        <ele>220.1</ele>
        <time>2020-06-27T09:08:00Z</time>
      </trkpt>
      <trkpt lat="49.15377" lon="6.99724">
        <ele>220.2</ele>
        <time>2020-06-27T09:08:01Z</time>
      </trkpt>
      <trkpt lat="49.15372" lon="6.99731">
        <ele>220.3</ele>
        <time>2020-06-27T09:08:02Z</time>
      </trkpt>
      <trkpt lat="49.15368" lon="6.99738">
        <ele>220.4</ele>
        <time>2020-06-27T09:08:03Z</time>
      </trkpt>
      <trkpt lat="49.15364" lon="6.99744">
        <ele>220.6</ele>
        <time>2020-06-27T09:08:04Z</time>
      </trkpt>
      <trkpt lat="49.1536" lon="6.9975">
        <ele>220.8</ele>
        <time>2020-06-27T09:08:05Z</time>
      </trkpt>
      <trkpt lat="49.15356" lon="6.99757">
        <ele>221</ele>
        <time>2020-06-27T09:08:06Z</time>
      </trkpt>
      <trkpt lat="49.15352" lon="6.99763">
        <ele>221.2</ele>
        <time>2020-06-27T09:08:07Z</time>
      </trkpt>
      <trkpt lat="49.15347" lon="6.99768">
        <ele>221.5</ele>
        <time>2020-06-27T09:08:08Z</time>
      </trkpt>
      <trkpt lat="49.15344" lon="6.99774">
        <ele>221.7</ele>
        <time>2020-06-27T09:08:09Z</time>
      </trkpt>
      <trkpt lat="49.1534" lon="6.99779">
        <ele>221.9</ele>
        <time>2020-06-27T09:08:10Z</time>
      </trkpt>
      <trkpt lat="49.15337" lon="6.99783">
        <ele>222.1</ele>
        <time>2020-06-27T09:08:11Z</time>
      </trkpt>
      <trkpt lat="49.15335" lon="6.99789">
        <ele>222.3</ele>
        <time>2020-06-27T09:08:12Z</time>
      </trkpt>
      <trkpt lat="49.15332" lon="6.99793">
        <ele>222.4</ele>
        <time>2020-06-27T09:08:13Z</time>
      </trkpt>
      <trkpt lat="49.15329" lon="6.99798">
        <ele>222.6</ele>
        <time>2020-06-27T09:08:14Z</time>
      </trkpt>
      <trkpt lat="49.15328" lon="6.99804">
        <ele>222.8</ele>
        <time>2020-06-27T09:08:15Z</time>
      </trkpt>
      <trkpt lat="49.15326" lon="6.99809">
        <ele>223</ele>
        <time>2020-06-27T09:08:16Z</time>
      </trkpt>
      <trkpt lat="49.15323" lon="6.99813">
        <ele>223.1</ele>
        <time>2020-06-27T09:08:17Z</time>
      </trkpt>
      <trkpt lat="49.1532" lon="6.99817">
        <ele>223.3</ele>
        <time>2020-06-27T09:08:18Z</time>
      </trkpt>
      <trkpt lat="49.15317" lon="6.99821">
        <ele>223.4</ele>
        <time>2020-06-27T09:08:19Z</time>
      </trkpt>
      <trkpt lat="49.15314" lon="6.99825">
        <ele>223.6</ele>
        <time>2020-06-27T09:08:20Z</time>
      </trkpt>
      <trkpt lat="49.15312" lon="6.9983">
        <ele>223.7</ele>
        <time>2020-06-27T09:08:21Z</time>
      </trkpt>
      <trkpt lat="49.15309" lon="6.99834">
        <ele>223.9</ele>
        <time>2020-06-27T09:08:22Z</time>
      </trkpt>
      <trkpt lat="49.15305" lon="6.99838">
        <ele>224</ele>
        <time>2020-06-27T09:08:23Z</time>
      </trkpt>
      <trkpt lat="49.15302" lon="6.99842">
        <ele>224.2</ele>
        <time>2020-06-27T09:08:24Z</time>
      </trkpt>
      <trkpt lat="49.153" lon="6.99846">
        <ele>224.3</ele>
        <time>2020-06-27T09:08:25Z</time>
      </trkpt>
      <trkpt lat="49.15297" lon="6.9985">
        <ele>224.5</ele>
        <time>2020-06-27T09:08:26Z</time>
      </trkpt>
      <trkpt lat="49.15294" lon="6.99854">
        <ele>224.6</ele>
        <time>2020-06-27T09:08:27Z</time>
      </trkpt>
      <trkpt lat="49.15291" lon="6.99859">
        <ele>224.8</ele>
        <time>2020-06-27T09:08:28Z</time>
      </trkpt>
      <trkpt lat="49.15287" lon="6.99863">
        <ele>224.9</ele>
        <time>2020-06-27T09:08:29Z</time>
      </trkpt>
      <trkpt lat="49.15284" lon="6.99867">
        <ele>225</ele>
        <time>2020-06-27T09:08:30Z</time>
      </trkpt>
      <trkpt lat="49.15281" lon="6.99871">
        <ele>225.1</ele>
        <time>2020-06-27T09:08:31Z</time>
      </trkpt>
      <trkpt lat="49.15278" lon="6.99877">
        <ele>225.2</ele>
        <time>2020-06-27T09:08:32Z</time>
      </trkpt>
      <trkpt lat="49.15275" lon="6.99882">
        <ele>225.3</ele>
        <time>2020-06-27T09:08:33Z</time>
      </trkpt>
      <trkpt lat="49.15272" lon="6.99887">
        <ele>225.4</ele>
        <time>2020-06-27T09:08:34Z</time>
      </trkpt>
      <trkpt lat="49.1527" lon="6.99892">
        <ele>225.4</ele>
        <time>2020-06-27T09:08:35Z</time>
      </trkpt>
      <trkpt lat="49.15267" lon="6.99897">
        <ele>225.4</ele>
        <time>2020-06-27T09:08:36Z</time>
      </trkpt>
      <trkpt lat="49.15264" lon="6.99902">
        <ele>225.4</ele>
        <time>2020-06-27T09:08:37Z</time>
      </trkpt>
      <trkpt lat="49.15262" lon="6.99908">
        <ele>225.4</ele>
        <time>2020-06-27T09:08:38Z</time>
      </trkpt>
      <trkpt lat="49.1526" lon="6.99914">
        <ele>225.4</ele>
        <time>2020-06-27T09:08:39Z</time>
      </trkpt>
      <trkpt lat="49.15259" lon="6.9992">
        <ele>225.4</ele>
        <time>2020-06-27T09:08:40Z</time>
      </trkpt>
      <trkpt lat="49.15256" lon="6.99925">
        <ele>225.4</ele>
        <time>2020-06-27T09:08:41Z</time>
      </trkpt>
      <trkpt lat="49.15253" lon="6.99931">
        <ele>225.4</ele>
        <time>2020-06-27T09:08:42Z</time>
      </trkpt>
      <trkpt lat="49.15251" lon="6.99936">
        <ele>225.3</ele>
        <time>2020-06-27T09:08:43Z</time>
      </trkpt>
      <trkpt lat="49.15248" lon="6.99942">
        <ele>225.2</ele>
        <time>2020-06-27T09:08:44Z</time>
      </trkpt>
      <trkpt lat="49.15245" lon="6.99947">
        <ele>225.1</ele>
        <time>2020-06-27T09:08:45Z</time>
      </trkpt>
      <trkpt lat="49.15243" lon="6.99952">
        <ele>224.9</ele>
        <time>2020-06-27T09:08:46Z</time>
      </trkpt>
      <trkpt lat="49.15239" lon="6.99958">
        <ele>224.9</ele>
        <time>2020-06-27T09:08:47Z</time>
      </trkpt>
      <trkpt lat="49.15237" lon="6.99964">
        <ele>224.9</ele>
        <time>2020-06-27T09:08:48Z</time>
      </trkpt>
      <trkpt lat="49.15235" lon="6.99971">
        <ele>224.9</ele>
        <time>2020-06-27T09:08:49Z</time>
      </trkpt>
      <trkpt lat="49.15231" lon="6.99977">
        <ele>224.9</ele>
        <time>2020-06-27T09:08:50Z</time>
      </trkpt>
      <trkpt lat="49.15228" lon="6.99983">
        <ele>224.8</ele>
        <time>2020-06-27T09:08:51Z</time>
      </trkpt>
      <trkpt lat="49.15225" lon="6.9999">
        <ele>224.8</ele>
        <time>2020-06-27T09:08:52Z</time>
      </trkpt>
      <trkpt lat="49.15223" lon="6.99997">
        <ele>224.8</ele>
        <time>2020-06-27T09:08:53Z</time>
      </trkpt>
      <trkpt lat="49.1522" lon="7.00003">
        <ele>224.8</ele>
        <time>2020-06-27T09:08:54Z</time>
      </trkpt>
      <trkpt lat="49.15216" lon="7.00009">
        <ele>224.8</ele>
        <time>2020-06-27T09:08:55Z</time>
      </trkpt>
      <trkpt lat="49.15213" lon="7.00015">
        <ele>224.8</ele>
        <time>2020-06-27T09:08:56Z</time>
      </trkpt>
      <trkpt lat="49.1521" lon="7.00021">
        <ele>224.9</ele>
        <time>2020-06-27T09:08:57Z</time>
      </trkpt>
      <trkpt lat="49.15207" lon="7.00026">
        <ele>224.9</ele>
        <time>2020-06-27T09:08:58Z</time>
      </trkpt>
      <trkpt lat="49.15204" lon="7.00032">
        <ele>224.9</ele>
        <time>2020-06-27T09:08:59Z</time>
      </trkpt>
      <trkpt lat="49.15203" lon="7.00039">
        <ele>224.9</ele>
        <time>2020-06-27T09:09:00Z</time>
      </trkpt>
      <trkpt lat="49.15199" lon="7.00044">
        <ele>224.9</ele>
        <time>2020-06-27T09:09:01Z</time>
      </trkpt>
      <trkpt lat="49.15196" lon="7.0005">
        <ele>224.9</ele>
        <time>2020-06-27T09:09:02Z</time>
      </trkpt>
      <trkpt lat="49.15194" lon="7.00057">
        <ele>224.9</ele>
        <time>2020-06-27T09:09:03Z</time>
      </trkpt>
      <trkpt lat="49.15191" lon="7.00064">
        <ele>224.9</ele>
        <time>2020-06-27T09:09:04Z</time>
      </trkpt>
      <trkpt lat="49.15189" lon="7.00072">
        <ele>224.6</ele>
        <time>2020-06-27T09:09:05Z</time>
      </trkpt>
      <trkpt lat="49.15187" lon="7.0008">
        <ele>224.5</ele>
        <time>2020-06-27T09:09:06Z</time>
      </trkpt>
      <trkpt lat="49.15185" lon="7.00088">
        <ele>224.6</ele>
        <time>2020-06-27T09:09:07Z</time>
      </trkpt>
      <trkpt lat="49.15183" lon="7.00096">
        <ele>224.6</ele>
        <time>2020-06-27T09:09:08Z</time>
      </trkpt>
      <trkpt lat="49.15181" lon="7.00105">
        <ele>224.6</ele>
        <time>2020-06-27T09:09:09Z</time>
      </trkpt>
      <trkpt lat="49.15178" lon="7.00113">
        <ele>224.5</ele>
        <time>2020-06-27T09:09:10Z</time>
      </trkpt>
      <trkpt lat="49.15176" lon="7.00122">
        <ele>224.4</ele>
        <time>2020-06-27T09:09:11Z</time>
      </trkpt>
      <trkpt lat="49.15175" lon="7.00132">
        <ele>224.3</ele>
        <time>2020-06-27T09:09:12Z</time>
      </trkpt>
      <trkpt lat="49.15171" lon="7.0014">
        <ele>224.2</ele>
        <time>2020-06-27T09:09:13Z</time>
      </trkpt>
      <trkpt lat="49.15169" lon="7.00149">
        <ele>224.1</ele>
        <time>2020-06-27T09:09:14Z</time>
      </trkpt>
      <trkpt lat="49.15166" lon="7.00158">
        <ele>223.9</ele>
        <time>2020-06-27T09:09:15Z</time>
      </trkpt>
      <trkpt lat="49.15164" lon="7.00166">
        <ele>223.8</ele>
        <time>2020-06-27T09:09:16Z</time>
      </trkpt>
      <trkpt lat="49.15161" lon="7.00176">
        <ele>223.8</ele>
        <time>2020-06-27T09:09:17Z</time>
      </trkpt>
      <trkpt lat="49.15158" lon="7.00184">
        <ele>223.8</ele>
        <time>2020-06-27T09:09:18Z</time>
      </trkpt>
      <trkpt lat="49.15156" lon="7.00193">
        <ele>223.8</ele>
        <time>2020-06-27T09:09:19Z</time>
      </trkpt>
      <trkpt lat="49.15153" lon="7.00202">
        <ele>223.8</ele>
        <time>2020-06-27T09:09:20Z</time>
      </trkpt>
      <trkpt lat="49.15151" lon="7.0021">
        <ele>223.8</ele>
        <time>2020-06-27T09:09:21Z</time>
      </trkpt>
      <trkpt lat="49.15149" lon="7.00219">
        <ele>223.7</ele>
        <time>2020-06-27T09:09:22Z</time>
      </trkpt>
      <trkpt lat="49.15147" lon="7.00227">
        <ele>223.7</ele>
        <time>2020-06-27T09:09:23Z</time>
      </trkpt>
      <trkpt lat="49.15145" lon="7.00235">
        <ele>223.7</ele>
        <time>2020-06-27T09:09:24Z</time>
      </trkpt>
      <trkpt lat="49.15143" lon="7.00243">
        <ele>223.6</ele>
        <time>2020-06-27T09:09:25Z</time>
      </trkpt>
      <trkpt lat="49.15141" lon="7.00251">
        <ele>223.6</ele>
        <time>2020-06-27T09:09:26Z</time>
      </trkpt>
      <trkpt lat="49.15138" lon="7.00259">
        <ele>223.6</ele>
        <time>2020-06-27T09:09:27Z</time>
      </trkpt>
      <trkpt lat="49.15136" lon="7.00267">
        <ele>223.5</ele>
        <time>2020-06-27T09:09:28Z</time>
      </trkpt>
      <trkpt lat="49.15133" lon="7.00275">
        <ele>223.5</ele>
        <time>2020-06-27T09:09:29Z</time>
      </trkpt>
      <trkpt lat="49.1513" lon="7.00284">
        <ele>223.5</ele>
        <time>2020-06-27T09:09:30Z</time>
      </trkpt>
      <trkpt lat="49.15128" lon="7.00292">
        <ele>223.4</ele>
        <time>2020-06-27T09:09:31Z</time>
      </trkpt>
      <trkpt lat="49.15126" lon="7.00301">
        <ele>223.3</ele>
        <time>2020-06-27T09:09:32Z</time>
      </trkpt>
      <trkpt lat="49.15123" lon="7.00309">
        <ele>223.1</ele>
        <time>2020-06-27T09:09:33Z</time>
      </trkpt>
      <trkpt lat="49.1512" lon="7.00317">
        <ele>223</ele>
        <time>2020-06-27T09:09:34Z</time>
      </trkpt>
      <trkpt lat="49.15117" lon="7.00327">
        <ele>222.7</ele>
        <time>2020-06-27T09:09:35Z</time>
      </trkpt>
      <trkpt lat="49.15114" lon="7.00336">
        <ele>222.9</ele>
        <time>2020-06-27T09:09:36Z</time>
      </trkpt>
      <trkpt lat="49.15113" lon="7.00345">
        <ele>223.1</ele>
        <time>2020-06-27T09:09:37Z</time>
      </trkpt>
      <trkpt lat="49.15111" lon="7.00354">
        <ele>223.2</ele>
        <time>2020-06-27T09:09:38Z</time>
      </trkpt>
      <trkpt lat="49.15109" lon="7.00364">
        <ele>223.2</ele>
        <time>2020-06-27T09:09:39Z</time>
      </trkpt>
      <trkpt lat="49.15108" lon="7.00374">
        <ele>223.1</ele>
        <time>2020-06-27T09:09:40Z</time>
      </trkpt>
      <trkpt lat="49.15107" lon="7.00383">
        <ele>223.1</ele>
        <time>2020-06-27T09:09:41Z</time>
      </trkpt>
      <trkpt lat="49.15106" lon="7.00393">
        <ele>223</ele>
        <time>2020-06-27T09:09:42Z</time>
      </trkpt>
      <trkpt lat="49.15105" lon="7.00403">
        <ele>223</ele>
        <time>2020-06-27T09:09:43Z</time>
      </trkpt>
      <trkpt lat="49.15104" lon="7.00413">
        <ele>222.9</ele>
        <time>2020-06-27T09:09:44Z</time>
      </trkpt>
      <trkpt lat="49.15102" lon="7.00423">
        <ele>222.9</ele>
        <time>2020-06-27T09:09:45Z</time>
      </trkpt>
      <trkpt lat="49.15102" lon="7.00433">
        <ele>222.8</ele>
        <time>2020-06-27T09:09:46Z</time>
      </trkpt>
      <trkpt lat="49.15102" lon="7.00444">
        <ele>222.7</ele>
        <time>2020-06-27T09:09:47Z</time>
      </trkpt>
      <trkpt lat="49.15101" lon="7.00454">
        <ele>222.6</ele>
        <time>2020-06-27T09:09:48Z</time>
      </trkpt>
      <trkpt lat="49.15101" lon="7.00464">
        <ele>222.5</ele>
        <time>2020-06-27T09:09:49Z</time>
      </trkpt>
      <trkpt lat="49.151" lon="7.00474">
        <ele>222.5</ele>
        <time>2020-06-27T09:09:50Z</time>
      </trkpt>
      <trkpt lat="49.151" lon="7.00484">
        <ele>222.4</ele>
        <time>2020-06-27T09:09:51Z</time>
      </trkpt>
      <trkpt lat="49.15101" lon="7.00493">
        <ele>222.3</ele>
        <time>2020-06-27T09:09:52Z</time>
      </trkpt>
      <trkpt lat="49.15101" lon="7.00503">
        <ele>222.3</ele>
        <time>2020-06-27T09:09:53Z</time>
      </trkpt>
      <trkpt lat="49.15101" lon="7.00512">
        <ele>222.3</ele>
        <time>2020-06-27T09:09:54Z</time>
      </trkpt>
      <trkpt lat="49.15101" lon="7.00521">
        <ele>222.2</ele>
        <time>2020-06-27T09:09:55Z</time>
      </trkpt>
      <trkpt lat="49.15102" lon="7.0053">
        <ele>222.2</ele>
        <time>2020-06-27T09:09:56Z</time>
      </trkpt>
      <trkpt lat="49.15102" lon="7.0054">
        <ele>222.1</ele>
        <time>2020-06-27T09:09:57Z</time>
      </trkpt>
      <trkpt lat="49.15101" lon="7.0055">
        <ele>222</ele>
        <time>2020-06-27T09:09:58Z</time>
      </trkpt>
      <trkpt lat="49.15101" lon="7.00561">
        <ele>221.9</ele>
        <time>2020-06-27T09:09:59Z</time>
      </trkpt>
      <trkpt lat="49.15101" lon="7.00571">
        <ele>221.8</ele>
        <time>2020-06-27T09:10:00Z</time>
      </trkpt>
      <trkpt lat="49.15102" lon="7.00582">
        <ele>221.6</ele>
        <time>2020-06-27T09:10:01Z</time>
      </trkpt>
      <trkpt lat="49.15102" lon="7.00592">
        <ele>221.5</ele>
        <time>2020-06-27T09:10:02Z</time>
      </trkpt>
      <trkpt lat="49.15102" lon="7.00602">
        <ele>221.5</ele>
        <time>2020-06-27T09:10:03Z</time>
      </trkpt>
      <trkpt lat="49.15102" lon="7.00611">
        <ele>221.4</ele>
        <time>2020-06-27T09:10:04Z</time>
      </trkpt>
      <trkpt lat="49.15101" lon="7.0062">
        <ele>221.3</ele>
        <time>2020-06-27T09:10:05Z</time>
      </trkpt>
      <trkpt lat="49.15101" lon="7.00629">
        <ele>221.3</ele>
        <time>2020-06-27T09:10:06Z</time>
      </trkpt>
      <trkpt lat="49.15101" lon="7.00637">
        <ele>221.3</ele>
        <time>2020-06-27T09:10:07Z</time>
      </trkpt>
      <trkpt lat="49.15101" lon="7.00647">
        <ele>221.2</ele>
        <time>2020-06-27T09:10:08Z</time>
      </trkpt>
      <trkpt lat="49.15101" lon="7.00656">
        <ele>221.2</ele>
        <time>2020-06-27T09:10:09Z</time>
      </trkpt>
      <trkpt lat="49.15102" lon="7.00664">
        <ele>221.1</ele>
        <time>2020-06-27T09:10:10Z</time>
      </trkpt>
      <trkpt lat="49.15102" lon="7.00672">
        <ele>221.1</ele>
        <time>2020-06-27T09:10:11Z</time>
      </trkpt>
      <trkpt lat="49.15101" lon="7.0068">
        <ele>221</ele>
        <time>2020-06-27T09:10:12Z</time>
      </trkpt>
      <trkpt lat="49.15103" lon="7.00688">
        <ele>221</ele>
        <time>2020-06-27T09:10:13Z</time>
      </trkpt>
      <trkpt lat="49.15104" lon="7.00697">
        <ele>221</ele>
        <time>2020-06-27T09:10:14Z</time>
      </trkpt>
      <trkpt lat="49.15105" lon="7.00705">
        <ele>221</ele>
        <time>2020-06-27T09:10:15Z</time>
      </trkpt>
      <trkpt lat="49.15105" lon="7.00713">
        <ele>221</ele>
        <time>2020-06-27T09:10:16Z</time>
      </trkpt>
      <trkpt lat="49.15106" lon="7.0072">
        <ele>221</ele>
        <time>2020-06-27T09:10:17Z</time>
      </trkpt>
      <trkpt lat="49.15105" lon="7.00728">
        <ele>220.9</ele>
        <time>2020-06-27T09:10:18Z</time>
      </trkpt>
      <trkpt lat="49.15103" lon="7.00736">
        <ele>220.9</ele>
        <time>2020-06-27T09:10:19Z</time>
      </trkpt>
      <trkpt lat="49.15103" lon="7.00745">
        <ele>220.8</ele>
        <time>2020-06-27T09:10:20Z</time>
      </trkpt>
      <trkpt lat="49.15102" lon="7.00753">
        <ele>220.6</ele>
        <time>2020-06-27T09:10:21Z</time>
      </trkpt>
      <trkpt lat="49.15101" lon="7.00762">
        <ele>220.5</ele>
        <time>2020-06-27T09:10:22Z</time>
      </trkpt>
      <trkpt lat="49.151" lon="7.00771">
        <ele>220.4</ele>
        <time>2020-06-27T09:10:23Z</time>
      </trkpt>
      <trkpt lat="49.15098" lon="7.00779">
        <ele>220.4</ele>
        <time>2020-06-27T09:10:24Z</time>
      </trkpt>
      <trkpt lat="49.15097" lon="7.00788">
        <ele>220.3</ele>
        <time>2020-06-27T09:10:25Z</time>
      </trkpt>
      <trkpt lat="49.15095" lon="7.00795">
        <ele>220.3</ele>
        <time>2020-06-27T09:10:26Z</time>
      </trkpt>
      <trkpt lat="49.15094" lon="7.00803">
        <ele>220.3</ele>
        <time>2020-06-27T09:10:27Z</time>
      </trkpt>
      <trkpt lat="49.15093" lon="7.0081">
        <ele>220.2</ele>
        <time>2020-06-27T09:10:28Z</time>
      </trkpt>
      <trkpt lat="49.15092" lon="7.00817">
        <ele>220.2</ele>
        <time>2020-06-27T09:10:29Z</time>
      </trkpt>
      <trkpt lat="49.15092" lon="7.00825">
        <ele>220.2</ele>
        <time>2020-06-27T09:10:30Z</time>
      </trkpt>
      <trkpt lat="49.15091" lon="7.00833">
        <ele>220.1</ele>
        <time>2020-06-27T09:10:31Z</time>
      </trkpt>
      <trkpt lat="49.15091" lon="7.00841">
        <ele>220.1</ele>
        <time>2020-06-27T09:10:32Z</time>
      </trkpt>
      <trkpt lat="49.1509" lon="7.0085">
        <ele>220.1</ele>
        <time>2020-06-27T09:10:33Z</time>
      </trkpt>
      <trkpt lat="49.15089" lon="7.00858">
        <ele>220</ele>
        <time>2020-06-27T09:10:34Z</time>
      </trkpt>
      <trkpt lat="49.15088" lon="7.00866">
        <ele>220</ele>
        <time>2020-06-27T09:10:35Z</time>
      </trkpt>
      <trkpt lat="49.15086" lon="7.00875">
        <ele>219.9</ele>
        <time>2020-06-27T09:10:36Z</time>
      </trkpt>
      <trkpt lat="49.15086" lon="7.00885">
        <ele>219.8</ele>
        <time>2020-06-27T09:10:37Z</time>
      </trkpt>
      <trkpt lat="49.15084" lon="7.00894">
        <ele>219.8</ele>
        <time>2020-06-27T09:10:38Z</time>
      </trkpt>
      <trkpt lat="49.15083" lon="7.00903">
        <ele>219.8</ele>
        <time>2020-06-27T09:10:39Z</time>
      </trkpt>
      <trkpt lat="49.15082" lon="7.00911">
        <ele>219.7</ele>
        <time>2020-06-27T09:10:40Z</time>
      </trkpt>
      <trkpt lat="49.1508" lon="7.00919">
        <ele>219.7</ele>
        <time>2020-06-27T09:10:41Z</time>
      </trkpt>
      <trkpt lat="49.15079" lon="7.00927">
        <ele>219.7</ele>
        <time>2020-06-27T09:10:42Z</time>
      </trkpt>
      <trkpt lat="49.15077" lon="7.00935">
        <ele>219.7</ele>
        <time>2020-06-27T09:10:43Z</time>
      </trkpt>
      <trkpt lat="49.15076" lon="7.00943">
        <ele>219.6</ele>
        <time>2020-06-27T09:10:44Z</time>
      </trkpt>
      <trkpt lat="49.15073" lon="7.00951">
        <ele>219.6</ele>
        <time>2020-06-27T09:10:45Z</time>
      </trkpt>
      <trkpt lat="49.15071" lon="7.00959">
        <ele>219.6</ele>
        <time>2020-06-27T09:10:46Z</time>
      </trkpt>
      <trkpt lat="49.1507" lon="7.00968">
        <ele>219.5</ele>
        <time>2020-06-27T09:10:47Z</time>
      </trkpt>
      <trkpt lat="49.15069" lon="7.00976">
        <ele>219.5</ele>
        <time>2020-06-27T09:10:48Z</time>
      </trkpt>
      <trkpt lat="49.15068" lon="7.00984">
        <ele>219.4</ele>
        <time>2020-06-27T09:10:49Z</time>
      </trkpt>
      <trkpt lat="49.15067" lon="7.00993">
        <ele>219.4</ele>
        <time>2020-06-27T09:10:50Z</time>
      </trkpt>
      <trkpt lat="49.15067" lon="7.01001">
        <ele>219.4</ele>
        <time>2020-06-27T09:10:51Z</time>
      </trkpt>
      <trkpt lat="49.15066" lon="7.01011">
        <ele>219.4</ele>
        <time>2020-06-27T09:10:52Z</time>
      </trkpt>
      <trkpt lat="49.15065" lon="7.01019">
        <ele>219.3</ele>
        <time>2020-06-27T09:10:53Z</time>
      </trkpt>
      <trkpt lat="49.15064" lon="7.01028">
        <ele>219.3</ele>
        <time>2020-06-27T09:10:54Z</time>
      </trkpt>
      <trkpt lat="49.15063" lon="7.01036">
        <ele>219.3</ele>
        <time>2020-06-27T09:10:55Z</time>
      </trkpt>
      <trkpt lat="49.15062" lon="7.01046">
        <ele>219.2</ele>
        <time>2020-06-27T09:10:56Z</time>
      </trkpt>
      <trkpt lat="49.15062" lon="7.01055">
        <ele>219.2</ele>
        <time>2020-06-27T09:10:57Z</time>
      </trkpt>
      <trkpt lat="49.1506" lon="7.01064">
        <ele>219.2</ele>
        <time>2020-06-27T09:10:58Z</time>
      </trkpt>
      <trkpt lat="49.1506" lon="7.01072">
        <ele>219.2</ele>
        <time>2020-06-27T09:10:59Z</time>
      </trkpt>
      <trkpt lat="49.1506" lon="7.01081">
        <ele>219.2</ele>
        <time>2020-06-27T09:11:00Z</time>
      </trkpt>
      <trkpt lat="49.15059" lon="7.01089">
        <ele>219.2</ele>
        <time>2020-06-27T09:11:01Z</time>
      </trkpt>
      <trkpt lat="49.1506" lon="7.01097">
        <ele>219.2</ele>
        <time>2020-06-27T09:11:02Z</time>
      </trkpt>
      <trkpt lat="49.15061" lon="7.01106">
        <ele>219.2</ele>
        <time>2020-06-27T09:11:03Z</time>
      </trkpt>
      <trkpt lat="49.15061" lon="7.01114">
        <ele>219.2</ele>
        <time>2020-06-27T09:11:04Z</time>
      </trkpt>
      <trkpt lat="49.15062" lon="7.01123">
        <ele>219.1</ele>
        <time>2020-06-27T09:11:05Z</time>
      </trkpt>
      <trkpt lat="49.15062" lon="7.01132">
        <ele>219.2</ele>
        <time>2020-06-27T09:11:06Z</time>
      </trkpt>
      <trkpt lat="49.15063" lon="7.01141">
        <ele>219.2</ele>
        <time>2020-06-27T09:11:07Z</time>
      </trkpt>
      <trkpt lat="49.15064" lon="7.0115">
        <ele>219.2</ele>
        <time>2020-06-27T09:11:08Z</time>
      </trkpt>
      <trkpt lat="49.15066" lon="7.01159">
        <ele>219.2</ele>
        <time>2020-06-27T09:11:09Z</time>
      </trkpt>
      <trkpt lat="49.15067" lon="7.01167">
        <ele>219.2</ele>
        <time>2020-06-27T09:11:10Z</time>
      </trkpt>
      <trkpt lat="49.15069" lon="7.01175">
        <ele>219.2</ele>
        <time>2020-06-27T09:11:11Z</time>
      </trkpt>
      <trkpt lat="49.15071" lon="7.01183">
        <ele>219.2</ele>
        <time>2020-06-27T09:11:12Z</time>
      </trkpt>
      <trkpt lat="49.15073" lon="7.0119">
        <ele>219.2</ele>
        <time>2020-06-27T09:11:13Z</time>
      </trkpt>
      <trkpt lat="49.15076" lon="7.01196">
        <ele>219.2</ele>
        <time>2020-06-27T09:11:14Z</time>
      </trkpt>
      <trkpt lat="49.15078" lon="7.01204">
        <ele>219.2</ele>
        <time>2020-06-27T09:11:15Z</time>
      </trkpt>
      <trkpt lat="49.15081" lon="7.0121">
        <ele>219.2</ele>
        <time>2020-06-27T09:11:16Z</time>
      </trkpt>
      <trkpt lat="49.15084" lon="7.01218">
        <ele>219.2</ele>
        <time>2020-06-27T09:11:17Z</time>
      </trkpt>
      <trkpt lat="49.15087" lon="7.01225">
        <ele>219.1</ele>
        <time>2020-06-27T09:11:18Z</time>
      </trkpt>
      <trkpt lat="49.1509" lon="7.01232">
        <ele>219.1</ele>
        <time>2020-06-27T09:11:19Z</time>
      </trkpt>
      <trkpt lat="49.15093" lon="7.01238">
        <ele>219</ele>
        <time>2020-06-27T09:11:20Z</time>
      </trkpt>
      <trkpt lat="49.15097" lon="7.01244">
        <ele>219</ele>
        <time>2020-06-27T09:11:21Z</time>
      </trkpt>
      <trkpt lat="49.151" lon="7.0125">
        <ele>219</ele>
        <time>2020-06-27T09:11:22Z</time>
      </trkpt>
      <trkpt lat="49.15104" lon="7.01255">
        <ele>219</ele>
        <time>2020-06-27T09:11:23Z</time>
      </trkpt>
      <trkpt lat="49.15108" lon="7.01259">
        <ele>219</ele>
        <time>2020-06-27T09:11:24Z</time>
      </trkpt>
      <trkpt lat="49.15111" lon="7.01265">
        <ele>219</ele>
        <time>2020-06-27T09:11:25Z</time>
      </trkpt>
      <trkpt lat="49.15115" lon="7.01271">
        <ele>219</ele>
        <time>2020-06-27T09:11:26Z</time>
      </trkpt>
      <trkpt lat="49.15118" lon="7.01277">
        <ele>219</ele>
        <time>2020-06-27T09:11:27Z</time>
      </trkpt>
      <trkpt lat="49.15122" lon="7.01282">
        <ele>219</ele>
        <time>2020-06-27T09:11:28Z</time>
      </trkpt>
      <trkpt lat="49.15127" lon="7.01287">
        <ele>219</ele>
        <time>2020-06-27T09:11:29Z</time>
      </trkpt>
      <trkpt lat="49.15131" lon="7.0129">
        <ele>219</ele>
        <time>2020-06-27T09:11:30Z</time>
      </trkpt>
      <trkpt lat="49.15137" lon="7.01294">
        <ele>219</ele>
        <time>2020-06-27T09:11:31Z</time>
      </trkpt>
      <trkpt lat="49.15141" lon="7.01299">
        <ele>219</ele>
        <time>2020-06-27T09:11:32Z</time>
      </trkpt>
      <trkpt lat="49.15147" lon="7.01302">
        <ele>219</ele>
        <time>2020-06-27T09:11:33Z</time>
      </trkpt>
      <trkpt lat="49.15152" lon="7.01305">
        <ele>219</ele>
        <time>2020-06-27T09:11:34Z</time>
      </trkpt>
      <trkpt lat="49.15157" lon="7.01309">
        <ele>218.9</ele>
        <time>2020-06-27T09:11:35Z</time>
      </trkpt>
      <trkpt lat="49.15163" lon="7.01312">
        <ele>218.9</ele>
        <time>2020-06-27T09:11:36Z</time>
      </trkpt>
      <trkpt lat="49.15168" lon="7.01314">
        <ele>218.9</ele>
        <time>2020-06-27T09:11:37Z</time>
      </trkpt>
      <trkpt lat="49.15174" lon="7.01318">
        <ele>218.9</ele>
        <time>2020-06-27T09:11:38Z</time>
      </trkpt>
      <trkpt lat="49.15179" lon="7.01321">
        <ele>218.9</ele>
        <time>2020-06-27T09:11:39Z</time>
      </trkpt>
      <trkpt lat="49.15185" lon="7.01324">
        <ele>218.8</ele>
        <time>2020-06-27T09:11:40Z</time>
      </trkpt>
      <trkpt lat="49.1519" lon="7.01326">
        <ele>218.8</ele>
        <time>2020-06-27T09:11:41Z</time>
      </trkpt>
      <trkpt lat="49.15195" lon="7.01329">
        <ele>218.8</ele>
        <time>2020-06-27T09:11:42Z</time>
      </trkpt>
      <trkpt lat="49.15201" lon="7.01332">
        <ele>218.8</ele>
        <time>2020-06-27T09:11:43Z</time>
      </trkpt>
      <trkpt lat="49.15207" lon="7.01335">
        <ele>218.8</ele>
        <time>2020-06-27T09:11:44Z</time>
      </trkpt>
      <trkpt lat="49.15212" lon="7.01336">
        <ele>218.8</ele>
        <time>2020-06-27T09:11:45Z</time>
      </trkpt>
      <trkpt lat="49.15218" lon="7.01339">
        <ele>218.9</ele>
        <time>2020-06-27T09:11:46Z</time>
      </trkpt>
      <trkpt lat="49.15223" lon="7.01341">
        <ele>218.9</ele>
        <time>2020-06-27T09:11:47Z</time>
      </trkpt>
      <trkpt lat="49.15229" lon="7.01344">
        <ele>218.9</ele>
        <time>2020-06-27T09:11:48Z</time>
      </trkpt>
      <trkpt lat="49.15234" lon="7.01346">
        <ele>218.9</ele>
        <time>2020-06-27T09:11:49Z</time>
      </trkpt>
      <trkpt lat="49.15239" lon="7.01349">
        <ele>219</ele>
        <time>2020-06-27T09:11:50Z</time>
      </trkpt>
      <trkpt lat="49.15244" lon="7.01352">
        <ele>219</ele>
        <time>2020-06-27T09:11:51Z</time>
      </trkpt>
      <trkpt lat="49.15249" lon="7.01355">
        <ele>219.1</ele>
        <time>2020-06-27T09:11:52Z</time>
      </trkpt>
      <trkpt lat="49.15254" lon="7.01358">
        <ele>219.1</ele>
        <time>2020-06-27T09:11:53Z</time>
      </trkpt>
      <trkpt lat="49.1526" lon="7.01361">
        <ele>219.1</ele>
        <time>2020-06-27T09:11:54Z</time>
      </trkpt>
      <trkpt lat="49.15265" lon="7.01363">
        <ele>219.2</ele>
        <time>2020-06-27T09:11:55Z</time>
      </trkpt>
      <trkpt lat="49.15271" lon="7.01366">
        <ele>219.2</ele>
        <time>2020-06-27T09:11:56Z</time>
      </trkpt>
      <trkpt lat="49.15276" lon="7.01368">
        <ele>219.2</ele>
        <time>2020-06-27T09:11:57Z</time>
      </trkpt>
      <trkpt lat="49.15281" lon="7.01371">
        <ele>219.2</ele>
        <time>2020-06-27T09:11:58Z</time>
      </trkpt>
      <trkpt lat="49.15286" lon="7.01374">
        <ele>219.2</ele>
        <time>2020-06-27T09:11:59Z</time>
      </trkpt>
      <trkpt lat="49.15291" lon="7.01379">
        <ele>219.2</ele>
        <time>2020-06-27T09:12:00Z</time>
      </trkpt>
      <trkpt lat="49.15295" lon="7.01384">
        <ele>219.2</ele>
        <time>2020-06-27T09:12:01Z</time>
      </trkpt>
      <trkpt lat="49.153" lon="7.01389">
        <ele>219.2</ele>
        <time>2020-06-27T09:12:02Z</time>
      </trkpt>
      <trkpt lat="49.15304" lon="7.01394">
        <ele>219.1</ele>
        <time>2020-06-27T09:12:03Z</time>
      </trkpt>
      <trkpt lat="49.15308" lon="7.01399">
        <ele>219</ele>
        <time>2020-06-27T09:12:04Z</time>
      </trkpt>
      <trkpt lat="49.15312" lon="7.01405">
        <ele>218.9</ele>
        <time>2020-06-27T09:12:05Z</time>
      </trkpt>
      <trkpt lat="49.15316" lon="7.01411">
        <ele>218.7</ele>
        <time>2020-06-27T09:12:06Z</time>
      </trkpt>
      <trkpt lat="49.1532" lon="7.01417">
        <ele>218.4</ele>
        <time>2020-06-27T09:12:07Z</time>
      </trkpt>
      <trkpt lat="49.15324" lon="7.01423">
        <ele>218.5</ele>
        <time>2020-06-27T09:12:08Z</time>
      </trkpt>
      <trkpt lat="49.15327" lon="7.0143">
        <ele>218.6</ele>
        <time>2020-06-27T09:12:09Z</time>
      </trkpt>
      <trkpt lat="49.1533" lon="7.01437">
        <ele>218.6</ele>
        <time>2020-06-27T09:12:10Z</time>
      </trkpt>
      <trkpt lat="49.15334" lon="7.01444">
        <ele>218.6</ele>
        <time>2020-06-27T09:12:11Z</time>
      </trkpt>
      <trkpt lat="49.15337" lon="7.0145">
        <ele>218.6</ele>
        <time>2020-06-27T09:12:12Z</time>
      </trkpt>
      <trkpt lat="49.15341" lon="7.01457">
        <ele>218.6</ele>
        <time>2020-06-27T09:12:13Z</time>
      </trkpt>
      <trkpt lat="49.15344" lon="7.01464">
        <ele>218.5</ele>
        <time>2020-06-27T09:12:14Z</time>
      </trkpt>
      <trkpt lat="49.15347" lon="7.01471">
        <ele>218.5</ele>
        <time>2020-06-27T09:12:15Z</time>
      </trkpt>
      <trkpt lat="49.15351" lon="7.01478">
        <ele>218.4</ele>
        <time>2020-06-27T09:12:16Z</time>
      </trkpt>
      <trkpt lat="49.15354" lon="7.01485">
        <ele>218.4</ele>
        <time>2020-06-27T09:12:17Z</time>
      </trkpt>
      <trkpt lat="49.15357" lon="7.01492">
        <ele>218.3</ele>
        <time>2020-06-27T09:12:18Z</time>
      </trkpt>
      <trkpt lat="49.15361" lon="7.01499">
        <ele>218.3</ele>
        <time>2020-06-27T09:12:19Z</time>
      </trkpt>
      <trkpt lat="49.15364" lon="7.01506">
        <ele>218.2</ele>
        <time>2020-06-27T09:12:20Z</time>
      </trkpt>
      <trkpt lat="49.15368" lon="7.01513">
        <ele>218.2</ele>
        <time>2020-06-27T09:12:21Z</time>
      </trkpt>
      <trkpt lat="49.15372" lon="7.01521">
        <ele>218.1</ele>
        <time>2020-06-27T09:12:22Z</time>
      </trkpt>
      <trkpt lat="49.15375" lon="7.01528">
        <ele>218.1</ele>
        <time>2020-06-27T09:12:23Z</time>
      </trkpt>
      <trkpt lat="49.15379" lon="7.01536">
        <ele>218</ele>
        <time>2020-06-27T09:12:24Z</time>
      </trkpt>
      <trkpt lat="49.15383" lon="7.01543">
        <ele>218</ele>
        <time>2020-06-27T09:12:25Z</time>
      </trkpt>
      <trkpt lat="49.15386" lon="7.0155">
        <ele>218</ele>
        <time>2020-06-27T09:12:26Z</time>
      </trkpt>
      <trkpt lat="49.15389" lon="7.01559">
        <ele>217.9</ele>
        <time>2020-06-27T09:12:27Z</time>
      </trkpt>
      <trkpt lat="49.15392" lon="7.01567">
        <ele>217.9</ele>
        <time>2020-06-27T09:12:28Z</time>
      </trkpt>
      <trkpt lat="49.15395" lon="7.01575">
        <ele>217.8</ele>
        <time>2020-06-27T09:12:29Z</time>
      </trkpt>
      <trkpt lat="49.15399" lon="7.01583">
        <ele>217.6</ele>
        <time>2020-06-27T09:12:30Z</time>
      </trkpt>
      <trkpt lat="49.15402" lon="7.0159">
        <ele>217.7</ele>
        <time>2020-06-27T09:12:31Z</time>
      </trkpt>
      <trkpt lat="49.15406" lon="7.01597">
        <ele>217.7</ele>
        <time>2020-06-27T09:12:32Z</time>
      </trkpt>
      <trkpt lat="49.15408" lon="7.01606">
        <ele>217.7</ele>
        <time>2020-06-27T09:12:33Z</time>
      </trkpt>
      <trkpt lat="49.15411" lon="7.01614">
        <ele>217.7</ele>
        <time>2020-06-27T09:12:34Z</time>
      </trkpt>
      <trkpt lat="49.15413" lon="7.01622">
        <ele>217.7</ele>
        <time>2020-06-27T09:12:35Z</time>
      </trkpt>
      <trkpt lat="49.15415" lon="7.0163">
        <ele>217.7</ele>
        <time>2020-06-27T09:12:36Z</time>
      </trkpt>
      <trkpt lat="49.15417" lon="7.01638">
        <ele>217.8</ele>
        <time>2020-06-27T09:12:37Z</time>
      </trkpt>
      <trkpt lat="49.15419" lon="7.01645">
        <ele>217.8</ele>
        <time>2020-06-27T09:12:38Z</time>
      </trkpt>
      <trkpt lat="49.15421" lon="7.01653">
        <ele>217.9</ele>
        <time>2020-06-27T09:12:39Z</time>
      </trkpt>
      <trkpt lat="49.15423" lon="7.01661">
        <ele>217.9</ele>
        <time>2020-06-27T09:12:40Z</time>
      </trkpt>
      <trkpt lat="49.15424" lon="7.01669">
        <ele>217.9</ele>
        <time>2020-06-27T09:12:41Z</time>
      </trkpt>
      <trkpt lat="49.15425" lon="7.01678">
        <ele>218</ele>
        <time>2020-06-27T09:12:42Z</time>
      </trkpt>
      <trkpt lat="49.15427" lon="7.01685">
        <ele>218.1</ele>
        <time>2020-06-27T09:12:43Z</time>
      </trkpt>
      <trkpt lat="49.1543" lon="7.01692">
        <ele>218.2</ele>
        <time>2020-06-27T09:12:44Z</time>
      </trkpt>
      <trkpt lat="49.15431" lon="7.01699">
        <ele>218.3</ele>
        <time>2020-06-27T09:12:45Z</time>
      </trkpt>
      <trkpt lat="49.15433" lon="7.01707">
        <ele>218.3</ele>
        <time>2020-06-27T09:12:46Z</time>
      </trkpt>
      <trkpt lat="49.15435" lon="7.01714">
        <ele>218.4</ele>
        <time>2020-06-27T09:12:47Z</time>
      </trkpt>
      <trkpt lat="49.15437" lon="7.01722">
        <ele>218.5</ele>
        <time>2020-06-27T09:12:48Z</time>
      </trkpt>
      <trkpt lat="49.15438" lon="7.01729">
        <ele>218.6</ele>
        <time>2020-06-27T09:12:49Z</time>
      </trkpt>
      <trkpt lat="49.1544" lon="7.01737">
        <ele>218.7</ele>
        <time>2020-06-27T09:12:50Z</time>
      </trkpt>
      <trkpt lat="49.15441" lon="7.01744">
        <ele>218.8</ele>
        <time>2020-06-27T09:12:51Z</time>
      </trkpt>
      <trkpt lat="49.15443" lon="7.01751">
        <ele>219</ele>
        <time>2020-06-27T09:12:52Z</time>
      </trkpt>
      <trkpt lat="49.15445" lon="7.01758">
        <ele>219.1</ele>
        <time>2020-06-27T09:12:53Z</time>
      </trkpt>
      <trkpt lat="49.15446" lon="7.01766">
        <ele>219.2</ele>
        <time>2020-06-27T09:12:54Z</time>
      </trkpt>
      <trkpt lat="49.15448" lon="7.01773">
        <ele>219.3</ele>
        <time>2020-06-27T09:12:55Z</time>
      </trkpt>
      <trkpt lat="49.15449" lon="7.0178">
        <ele>219.4</ele>
        <time>2020-06-27T09:12:56Z</time>
      </trkpt>
      <trkpt lat="49.15452" lon="7.01787">
        <ele>219.5</ele>
        <time>2020-06-27T09:12:57Z</time>
      </trkpt>
      <trkpt lat="49.15454" lon="7.01794">
        <ele>219.6</ele>
        <time>2020-06-27T09:12:58Z</time>
      </trkpt>
      <trkpt lat="49.15456" lon="7.01801">
        <ele>219.6</ele>
        <time>2020-06-27T09:12:59Z</time>
      </trkpt>
      <trkpt lat="49.15457" lon="7.01808">
        <ele>219.6</ele>
        <time>2020-06-27T09:13:00Z</time>
      </trkpt>
      <trkpt lat="49.15458" lon="7.01815">
        <ele>219.7</ele>
        <time>2020-06-27T09:13:01Z</time>
      </trkpt>
      <trkpt lat="49.15459" lon="7.01822">
        <ele>219.8</ele>
        <time>2020-06-27T09:13:02Z</time>
      </trkpt>
      <trkpt lat="49.15459" lon="7.01829">
        <ele>219.9</ele>
        <time>2020-06-27T09:13:03Z</time>
      </trkpt>
      <trkpt lat="49.15461" lon="7.01836">
        <ele>220</ele>
        <time>2020-06-27T09:13:04Z</time>
      </trkpt>
      <trkpt lat="49.15463" lon="7.01842">
        <ele>220.1</ele>
        <time>2020-06-27T09:13:05Z</time>
      </trkpt>
      <trkpt lat="49.15463" lon="7.01849">
        <ele>220.1</ele>
        <time>2020-06-27T09:13:06Z</time>
      </trkpt>
      <trkpt lat="49.15464" lon="7.01856">
        <ele>220.1</ele>
        <time>2020-06-27T09:13:07Z</time>
      </trkpt>
      <trkpt lat="49.15466" lon="7.01863">
        <ele>220</ele>
        <time>2020-06-27T09:13:08Z</time>
      </trkpt>
      <trkpt lat="49.15467" lon="7.0187">
        <ele>220</ele>
        <time>2020-06-27T09:13:09Z</time>
      </trkpt>
      <trkpt lat="49.15468" lon="7.01878">
        <ele>220</ele>
        <time>2020-06-27T09:13:10Z</time>
      </trkpt>
      <trkpt lat="49.1547" lon="7.01885">
        <ele>219.9</ele>
        <time>2020-06-27T09:13:11Z</time>
      </trkpt>
      <trkpt lat="49.15472" lon="7.01892">
        <ele>219.9</ele>
        <time>2020-06-27T09:13:12Z</time>
      </trkpt>
      <trkpt lat="49.15473" lon="7.019">
        <ele>219.9</ele>
        <time>2020-06-27T09:13:13Z</time>
      </trkpt>
      <trkpt lat="49.15474" lon="7.01907">
        <ele>220</ele>
        <time>2020-06-27T09:13:14Z</time>
      </trkpt>
      <trkpt lat="49.15477" lon="7.01915">
        <ele>220</ele>
        <time>2020-06-27T09:13:15Z</time>
      </trkpt>
      <trkpt lat="49.15478" lon="7.01922">
        <ele>219.9</ele>
        <time>2020-06-27T09:13:16Z</time>
      </trkpt>
      <trkpt lat="49.1548" lon="7.0193">
        <ele>219.8</ele>
        <time>2020-06-27T09:13:17Z</time>
      </trkpt>
      <trkpt lat="49.15482" lon="7.01937">
        <ele>219.7</ele>
        <time>2020-06-27T09:13:18Z</time>
      </trkpt>
      <trkpt lat="49.15485" lon="7.01945">
        <ele>219.6</ele>
        <time>2020-06-27T09:13:19Z</time>
      </trkpt>
      <trkpt lat="49.15487" lon="7.01952">
        <ele>219.5</ele>
        <time>2020-06-27T09:13:20Z</time>
      </trkpt>
      <trkpt lat="49.15489" lon="7.01959">
        <ele>219.4</ele>
        <time>2020-06-27T09:13:21Z</time>
      </trkpt>
      <trkpt lat="49.15491" lon="7.01966">
        <ele>219.3</ele>
        <time>2020-06-27T09:13:22Z</time>
      </trkpt>
      <trkpt lat="49.15493" lon="7.01974">
        <ele>219.2</ele>
        <time>2020-06-27T09:13:23Z</time>
      </trkpt>
      <trkpt lat="49.15495" lon="7.01981">
        <ele>219.1</ele>
        <time>2020-06-27T09:13:24Z</time>
      </trkpt>
      <trkpt lat="49.15496" lon="7.01989">
        <ele>218.9</ele>
        <time>2020-06-27T09:13:25Z</time>
      </trkpt>
      <trkpt lat="49.15498" lon="7.01998">
        <ele>218.8</ele>
        <time>2020-06-27T09:13:26Z</time>
      </trkpt>
      <trkpt lat="49.15499" lon="7.02006">
        <ele>218.6</ele>
        <time>2020-06-27T09:13:27Z</time>
      </trkpt>
      <trkpt lat="49.15501" lon="7.02014">
        <ele>218.5</ele>
        <time>2020-06-27T09:13:28Z</time>
      </trkpt>
      <trkpt lat="49.15502" lon="7.02023">
        <ele>218.3</ele>
        <time>2020-06-27T09:13:29Z</time>
      </trkpt>
      <trkpt lat="49.15504" lon="7.02031">
        <ele>218.1</ele>
        <time>2020-06-27T09:13:30Z</time>
      </trkpt>
      <trkpt lat="49.15507" lon="7.0204">
        <ele>217.9</ele>
        <time>2020-06-27T09:13:31Z</time>
      </trkpt>
      <trkpt lat="49.15509" lon="7.02049">
        <ele>217.7</ele>
        <time>2020-06-27T09:13:32Z</time>
      </trkpt>
      <trkpt lat="49.15511" lon="7.02058">
        <ele>217.5</ele>
        <time>2020-06-27T09:13:33Z</time>
      </trkpt>
      <trkpt lat="49.15513" lon="7.02067">
        <ele>217.3</ele>
        <time>2020-06-27T09:13:34Z</time>
      </trkpt>
      <trkpt lat="49.15515" lon="7.02076">
        <ele>217.1</ele>
        <time>2020-06-27T09:13:35Z</time>
      </trkpt>
      <trkpt lat="49.15517" lon="7.02085">
        <ele>216.9</ele>
        <time>2020-06-27T09:13:36Z</time>
      </trkpt>
      <trkpt lat="49.1552" lon="7.02094">
        <ele>216.7</ele>
        <time>2020-06-27T09:13:37Z</time>
      </trkpt>
      <trkpt lat="49.15522" lon="7.02103">
        <ele>216.5</ele>
        <time>2020-06-27T09:13:38Z</time>
      </trkpt>
      <trkpt lat="49.15525" lon="7.02113">
        <ele>216.3</ele>
        <time>2020-06-27T09:13:39Z</time>
      </trkpt>
      <trkpt lat="49.15526" lon="7.02123">
        <ele>216.1</ele>
        <time>2020-06-27T09:13:40Z</time>
      </trkpt>
      <trkpt lat="49.15528" lon="7.02133">
        <ele>215.9</ele>
        <time>2020-06-27T09:13:41Z</time>
      </trkpt>
      <trkpt lat="49.15529" lon="7.02143">
        <ele>215.6</ele>
        <time>2020-06-27T09:13:42Z</time>
      </trkpt>
      <trkpt lat="49.15532" lon="7.02152">
        <ele>215.4</ele>
        <time>2020-06-27T09:13:43Z</time>
      </trkpt>
      <trkpt lat="49.15534" lon="7.02162">
        <ele>215.2</ele>
        <time>2020-06-27T09:13:44Z</time>
      </trkpt>
      <trkpt lat="49.15537" lon="7.02171">
        <ele>215</ele>
        <time>2020-06-27T09:13:45Z</time>
      </trkpt>
      <trkpt lat="49.15539" lon="7.02181">
        <ele>214.7</ele>
        <time>2020-06-27T09:13:46Z</time>
      </trkpt>
      <trkpt lat="49.15541" lon="7.02191">
        <ele>214.7</ele>
        <time>2020-06-27T09:13:47Z</time>
      </trkpt>
      <trkpt lat="49.15543" lon="7.022">
        <ele>214.6</ele>
        <time>2020-06-27T09:13:48Z</time>
      </trkpt>
      <trkpt lat="49.15545" lon="7.0221">
        <ele>214.5</ele>
        <time>2020-06-27T09:13:49Z</time>
      </trkpt>
      <trkpt lat="49.15547" lon="7.02219">
        <ele>214.4</ele>
        <time>2020-06-27T09:13:50Z</time>
      </trkpt>
      <trkpt lat="49.1555" lon="7.02228">
        <ele>214.3</ele>
        <time>2020-06-27T09:13:51Z</time>
      </trkpt>
      <trkpt lat="49.15552" lon="7.02238">
        <ele>214.2</ele>
        <time>2020-06-27T09:13:52Z</time>
      </trkpt>
      <trkpt lat="49.15554" lon="7.02247">
        <ele>214</ele>
        <time>2020-06-27T09:13:53Z</time>
      </trkpt>
      <trkpt lat="49.15556" lon="7.02257">
        <ele>213.8</ele>
        <time>2020-06-27T09:13:54Z</time>
      </trkpt>
      <trkpt lat="49.15558" lon="7.02266">
        <ele>213.6</ele>
        <time>2020-06-27T09:13:55Z</time>
      </trkpt>
      <trkpt lat="49.15558" lon="7.02276">
        <ele>213.4</ele>
        <time>2020-06-27T09:13:56Z</time>
      </trkpt>
      <trkpt lat="49.15557" lon="7.02286">
        <ele>213.2</ele>
        <time>2020-06-27T09:13:57Z</time>
      </trkpt>
      <trkpt lat="49.15555" lon="7.02295">
        <ele>213</ele>
        <time>2020-06-27T09:13:58Z</time>
      </trkpt>
      <trkpt lat="49.15553" lon="7.02305">
        <ele>212.8</ele>
        <time>2020-06-27T09:13:59Z</time>
      </trkpt>
      <trkpt lat="49.15551" lon="7.02314">
        <ele>212.7</ele>
        <time>2020-06-27T09:14:00Z</time>
      </trkpt>
      <trkpt lat="49.15548" lon="7.02324">
        <ele>212.5</ele>
        <time>2020-06-27T09:14:01Z</time>
      </trkpt>
      <trkpt lat="49.15546" lon="7.02333">
        <ele>212.3</ele>
        <time>2020-06-27T09:14:02Z</time>
      </trkpt>
      <trkpt lat="49.15543" lon="7.02342">
        <ele>212.2</ele>
        <time>2020-06-27T09:14:03Z</time>
      </trkpt>
      <trkpt lat="49.15541" lon="7.02351">
        <ele>212.1</ele>
        <time>2020-06-27T09:14:04Z</time>
      </trkpt>
      <trkpt lat="49.15538" lon="7.0236">
        <ele>211.9</ele>
        <time>2020-06-27T09:14:05Z</time>
      </trkpt>
      <trkpt lat="49.15534" lon="7.02369">
        <ele>211.8</ele>
        <time>2020-06-27T09:14:06Z</time>
      </trkpt>
      <trkpt lat="49.15533" lon="7.02379">
        <ele>211.7</ele>
        <time>2020-06-27T09:14:07Z</time>
      </trkpt>
      <trkpt lat="49.1553" lon="7.02387">
        <ele>211.6</ele>
        <time>2020-06-27T09:14:08Z</time>
      </trkpt>
      <trkpt lat="49.15528" lon="7.02396">
        <ele>211.4</ele>
        <time>2020-06-27T09:14:09Z</time>
      </trkpt>
      <trkpt lat="49.15526" lon="7.02405">
        <ele>211.3</ele>
        <time>2020-06-27T09:14:10Z</time>
      </trkpt>
      <trkpt lat="49.15524" lon="7.02413">
        <ele>211.2</ele>
        <time>2020-06-27T09:14:11Z</time>
      </trkpt>
      <trkpt lat="49.15522" lon="7.02422">
        <ele>211.1</ele>
        <time>2020-06-27T09:14:12Z</time>
      </trkpt>
      <trkpt lat="49.15519" lon="7.0243">
        <ele>211</ele>
        <time>2020-06-27T09:14:13Z</time>
      </trkpt>
      <trkpt lat="49.15518" lon="7.02438">
        <ele>210.8</ele>
        <time>2020-06-27T09:14:14Z</time>
      </trkpt>
      <trkpt lat="49.15515" lon="7.02447">
        <ele>210.6</ele>
        <time>2020-06-27T09:14:15Z</time>
      </trkpt>
      <trkpt lat="49.15514" lon="7.02456">
        <ele>210.3</ele>
        <time>2020-06-27T09:14:16Z</time>
      </trkpt>
      <trkpt lat="49.15513" lon="7.02465">
        <ele>210</ele>
        <time>2020-06-27T09:14:17Z</time>
      </trkpt>
      <trkpt lat="49.15512" lon="7.02473">
        <ele>209.7</ele>
        <time>2020-06-27T09:14:18Z</time>
      </trkpt>
      <trkpt lat="49.15509" lon="7.02482">
        <ele>209.5</ele>
        <time>2020-06-27T09:14:19Z</time>
      </trkpt>
      <trkpt lat="49.15507" lon="7.02491">
        <ele>209.3</ele>
        <time>2020-06-27T09:14:20Z</time>
      </trkpt>
      <trkpt lat="49.15505" lon="7.02499">
        <ele>209</ele>
        <time>2020-06-27T09:14:21Z</time>
      </trkpt>
      <trkpt lat="49.15502" lon="7.02509">
        <ele>208.7</ele>
        <time>2020-06-27T09:14:22Z</time>
      </trkpt>
      <trkpt lat="49.15499" lon="7.02518">
        <ele>208.4</ele>
        <time>2020-06-27T09:14:23Z</time>
      </trkpt>
      <trkpt lat="49.15498" lon="7.02528">
        <ele>208</ele>
        <time>2020-06-27T09:14:24Z</time>
      </trkpt>
      <trkpt lat="49.15494" lon="7.02539">
        <ele>207.6</ele>
        <time>2020-06-27T09:14:25Z</time>
      </trkpt>
      <trkpt lat="49.1549" lon="7.02549">
        <ele>207.1</ele>
        <time>2020-06-27T09:14:26Z</time>
      </trkpt>
      <trkpt lat="49.15487" lon="7.02561">
        <ele>206.6</ele>
        <time>2020-06-27T09:14:27Z</time>
      </trkpt>
      <trkpt lat="49.15484" lon="7.02572">
        <ele>206.1</ele>
        <time>2020-06-27T09:14:28Z</time>
      </trkpt>
      <trkpt lat="49.15481" lon="7.02583">
        <ele>205.6</ele>
        <time>2020-06-27T09:14:29Z</time>
      </trkpt>
      <trkpt lat="49.15478" lon="7.02595">
        <ele>205.1</ele>
        <time>2020-06-27T09:14:30Z</time>
      </trkpt>
      <trkpt lat="49.15475" lon="7.02607">
        <ele>204.6</ele>
        <time>2020-06-27T09:14:31Z</time>
      </trkpt>
      <trkpt lat="49.15472" lon="7.02618">
        <ele>204.1</ele>
        <time>2020-06-27T09:14:32Z</time>
      </trkpt>
      <trkpt lat="49.15468" lon="7.0263">
        <ele>203.6</ele>
        <time>2020-06-27T09:14:33Z</time>
      </trkpt>
      <trkpt lat="49.15465" lon="7.02641">
        <ele>203.1</ele>
        <time>2020-06-27T09:14:34Z</time>
      </trkpt>
      <trkpt lat="49.15462" lon="7.02653">
        <ele>202.7</ele>
        <time>2020-06-27T09:14:35Z</time>
      </trkpt>
      <trkpt lat="49.15459" lon="7.02664">
        <ele>202.3</ele>
        <time>2020-06-27T09:14:36Z</time>
      </trkpt>
      <trkpt lat="49.15457" lon="7.02673">
        <ele>202</ele>
        <time>2020-06-27T09:14:37Z</time>
      </trkpt>
      <trkpt lat="49.15454" lon="7.02682">
        <ele>201.7</ele>
        <time>2020-06-27T09:14:38Z</time>
      </trkpt>
      <trkpt lat="49.15452" lon="7.0269">
        <ele>201.3</ele>
        <time>2020-06-27T09:14:39Z</time>
      </trkpt>
      <trkpt lat="49.1545" lon="7.02698">
        <ele>201</ele>
        <time>2020-06-27T09:14:40Z</time>
      </trkpt>
      <trkpt lat="49.15449" lon="7.02707">
        <ele>200.7</ele>
        <time>2020-06-27T09:14:41Z</time>
      </trkpt>
      <trkpt lat="49.15446" lon="7.02713">
        <ele>200.3</ele>
        <time>2020-06-27T09:14:42Z</time>
      </trkpt>
      <trkpt lat="49.15443" lon="7.02717">
        <ele>200.3</ele>
        <time>2020-06-27T09:14:43Z</time>
      </trkpt>
      <trkpt lat="49.15439" lon="7.0272">
        <ele>200.2</ele>
        <time>2020-06-27T09:14:44Z</time>
      </trkpt>
      <trkpt lat="49.15436" lon="7.02722">
        <ele>200.2</ele>
        <time>2020-06-27T09:14:45Z</time>
      </trkpt>
      <trkpt lat="49.15433" lon="7.02727">
        <ele>200.1</ele>
        <time>2020-06-27T09:14:46Z</time>
      </trkpt>
      <trkpt lat="49.1543" lon="7.0273">
        <ele>199.8</ele>
        <time>2020-06-27T09:14:47Z</time>
      </trkpt>
      <trkpt lat="49.15428" lon="7.02733">
        <ele>199.7</ele>
        <time>2020-06-27T09:14:48Z</time>
      </trkpt>
      <trkpt lat="49.15427" lon="7.02738">
        <ele>199.5</ele>
        <time>2020-06-27T09:14:49Z</time>
      </trkpt>
      <trkpt lat="49.15426" lon="7.02739">
        <ele>199.4</ele>
        <time>2020-06-27T09:14:50Z</time>
      </trkpt>
      <trkpt lat="49.15427" lon="7.02744">
        <ele>199.3</ele>
        <time>2020-06-27T09:14:51Z</time>
      </trkpt>
      <trkpt lat="49.15427" lon="7.02746">
        <ele>199.2</ele>
        <time>2020-06-27T09:14:52Z</time>
      </trkpt>
      <trkpt lat="49.1543" lon="7.02749">
        <ele>199.3</ele>
        <time>2020-06-27T09:14:53Z</time>
      </trkpt>
      <trkpt lat="49.15433" lon="7.02752">
        <ele>199.4</ele>
        <time>2020-06-27T09:14:54Z</time>
      </trkpt>
      <trkpt lat="49.15437" lon="7.02755">
        <ele>199.4</ele>
        <time>2020-06-27T09:14:55Z</time>
      </trkpt>
      <trkpt lat="49.1544" lon="7.02755">
        <ele>199.4</ele>
        <time>2020-06-27T09:14:56Z</time>
      </trkpt>
      <trkpt lat="49.15443" lon="7.02754">
        <ele>199.4</ele>
        <time>2020-06-27T09:14:57Z</time>
      </trkpt>
      <trkpt lat="49.15446" lon="7.02752">
        <ele>199.4</ele>
        <time>2020-06-27T09:14:58Z</time>
      </trkpt>
      <trkpt lat="49.15448" lon="7.02748">
        <ele>199.5</ele>
        <time>2020-06-27T09:14:59Z</time>
      </trkpt>
      <trkpt lat="49.15452" lon="7.02745">
        <ele>199.5</ele>
        <time>2020-06-27T09:15:00Z</time>
      </trkpt>
      <trkpt lat="49.15454" lon="7.0274">
        <ele>199.5</ele>
        <time>2020-06-27T09:15:01Z</time>
      </trkpt>
      <trkpt lat="49.15455" lon="7.02735">
        <ele>199.8</ele>
        <time>2020-06-27T09:15:02Z</time>
      </trkpt>
      <trkpt lat="49.15455" lon="7.02729">
        <ele>199.9</ele>
        <time>2020-06-27T09:15:03Z</time>
      </trkpt>
      <trkpt lat="49.15454" lon="7.02723">
        <ele>200</ele>
        <time>2020-06-27T09:15:04Z</time>
      </trkpt>
      <trkpt lat="49.15452" lon="7.02719">
        <ele>200.1</ele>
        <time>2020-06-27T09:15:05Z</time>
      </trkpt>
      <trkpt lat="49.1545" lon="7.02715">
        <ele>200.2</ele>
        <time>2020-06-27T09:15:06Z</time>
      </trkpt>
      <trkpt lat="49.15447" lon="7.02713">
        <ele>200.3</ele>
        <time>2020-06-27T09:15:07Z</time>
      </trkpt>
      <trkpt lat="49.15443" lon="7.02711">
        <ele>200.3</ele>
        <time>2020-06-27T09:15:08Z</time>
      </trkpt>
      <trkpt lat="49.1544" lon="7.02712">
        <ele>200.3</ele>
        <time>2020-06-27T09:15:09Z</time>
      </trkpt>
      <trkpt lat="49.15437" lon="7.02714">
        <ele>200.2</ele>
        <time>2020-06-27T09:15:10Z</time>
      </trkpt>
      <trkpt lat="49.15433" lon="7.02718">
        <ele>200.2</ele>
        <time>2020-06-27T09:15:11Z</time>
      </trkpt>
      <trkpt lat="49.15431" lon="7.02721">
        <ele>200.2</ele>
        <time>2020-06-27T09:15:12Z</time>
      </trkpt>
      <trkpt lat="49.1543" lon="7.02726">
        <ele>200.2</ele>
        <time>2020-06-27T09:15:13Z</time>
      </trkpt>
      <trkpt lat="49.15428" lon="7.02729">
        <ele>199.8</ele>
        <time>2020-06-27T09:15:14Z</time>
      </trkpt>
      <trkpt lat="49.15427" lon="7.02733">
        <ele>199.7</ele>
        <time>2020-06-27T09:15:15Z</time>
      </trkpt>
      <trkpt lat="49.15426" lon="7.02734">
        <ele>199.7</ele>
        <time>2020-06-27T09:15:16Z</time>
      </trkpt>
      <trkpt lat="49.15425" lon="7.02736">
        <ele>199.6</ele>
        <time>2020-06-27T09:15:17Z</time>
      </trkpt>
      <trkpt lat="49.15424" lon="7.02735">
        <ele>199.6</ele>
        <time>2020-06-27T09:15:18Z</time>
      </trkpt>
      <trkpt lat="49.15424" lon="7.02735">
        <ele>199.6</ele>
        <time>2020-06-27T09:15:19Z</time>
      </trkpt>
      <trkpt lat="49.15425" lon="7.02738">
        <ele>199.5</ele>
        <time>2020-06-27T09:15:20Z</time>
      </trkpt>
      <trkpt lat="49.15425" lon="7.02739">
        <ele>199.5</ele>
        <time>2020-06-27T09:15:21Z</time>
      </trkpt>
      <trkpt lat="49.15425" lon="7.0274">
        <ele>199.5</ele>
        <time>2020-06-27T09:15:22Z</time>
      </trkpt>
      <trkpt lat="49.15424" lon="7.0274">
        <ele>199.5</ele>
        <time>2020-06-27T09:15:23Z</time>
      </trkpt>
      <trkpt lat="49.15424" lon="7.02741">
        <ele>199.5</ele>
        <time>2020-06-27T09:15:24Z</time>
      </trkpt>
      <trkpt lat="49.15424" lon="7.02742">
        <ele>199.4</ele>
        <time>2020-06-27T09:15:25Z</time>
      </trkpt>
      <trkpt lat="49.15424" lon="7.02743">
        <ele>199.4</ele>
        <time>2020-06-27T09:15:26Z</time>
      </trkpt>
      <trkpt lat="49.15424" lon="7.02742">
        <ele>199.4</ele>
        <time>2020-06-27T09:15:27Z</time>
      </trkpt>
      <trkpt lat="49.15424" lon="7.02743">
        <ele>199.4</ele>
        <time>2020-06-27T09:15:28Z</time>
      </trkpt>
      <trkpt lat="49.15423" lon="7.02744">
        <ele>199.4</ele>
        <time>2020-06-27T09:15:29Z</time>
      </trkpt>
      <trkpt lat="49.15423" lon="7.02745">
        <ele>199.3</ele>
        <time>2020-06-27T09:15:30Z</time>
      </trkpt>
      <trkpt lat="49.15423" lon="7.02747">
        <ele>199.3</ele>
        <time>2020-06-27T09:15:31Z</time>
      </trkpt>
      <trkpt lat="49.15424" lon="7.02748">
        <ele>199.3</ele>
        <time>2020-06-27T09:15:32Z</time>
      </trkpt>
      <trkpt lat="49.15424" lon="7.02749">
        <ele>199.2</ele>
        <time>2020-06-27T09:15:33Z</time>
      </trkpt>
      <trkpt lat="49.15425" lon="7.0275">
        <ele>199.2</ele>
        <time>2020-06-27T09:15:34Z</time>
      </trkpt>
      <trkpt lat="49.15425" lon="7.02752">
        <ele>199.2</ele>
        <time>2020-06-27T09:15:35Z</time>
      </trkpt>
      <trkpt lat="49.15427" lon="7.02755">
        <ele>199.3</ele>
        <time>2020-06-27T09:15:36Z</time>
      </trkpt>
      <trkpt lat="49.15428" lon="7.02759">
        <ele>199.3</ele>
        <time>2020-06-27T09:15:37Z</time>
      </trkpt>
      <trkpt lat="49.15428" lon="7.02764">
        <ele>199.1</ele>
        <time>2020-06-27T09:15:38Z</time>
      </trkpt>
      <trkpt lat="49.15428" lon="7.0277">
        <ele>199.1</ele>
        <time>2020-06-27T09:15:39Z</time>
      </trkpt>
      <trkpt lat="49.15428" lon="7.02776">
        <ele>199</ele>
        <time>2020-06-27T09:15:40Z</time>
      </trkpt>
      <trkpt lat="49.15429" lon="7.0278">
        <ele>199</ele>
        <time>2020-06-27T09:15:41Z</time>
      </trkpt>
      <trkpt lat="49.1543" lon="7.02784">
        <ele>199</ele>
        <time>2020-06-27T09:15:42Z</time>
      </trkpt>
      <trkpt lat="49.15432" lon="7.02788">
        <ele>199</ele>
        <time>2020-06-27T09:15:43Z</time>
      </trkpt>
      <trkpt lat="49.15432" lon="7.02793">
        <ele>199</ele>
        <time>2020-06-27T09:15:44Z</time>
      </trkpt>
      <trkpt lat="49.15434" lon="7.02797">
        <ele>199</ele>
        <time>2020-06-27T09:15:45Z</time>
      </trkpt>
      <trkpt lat="49.15436" lon="7.02802">
        <ele>199</ele>
        <time>2020-06-27T09:15:46Z</time>
      </trkpt>
      <trkpt lat="49.15436" lon="7.02804">
        <ele>199</ele>
        <time>2020-06-27T09:15:47Z</time>
      </trkpt>
      <trkpt lat="49.15437" lon="7.0281">
        <ele>199</ele>
        <time>2020-06-27T09:15:48Z</time>
      </trkpt>
      <trkpt lat="49.15438" lon="7.02812">
        <ele>199</ele>
        <time>2020-06-27T09:15:49Z</time>
      </trkpt>
      <trkpt lat="49.15439" lon="7.02816">
        <ele>199</ele>
        <time>2020-06-27T09:15:50Z</time>
      </trkpt>
      <trkpt lat="49.15441" lon="7.02822">
        <ele>199</ele>
        <time>2020-06-27T09:15:51Z</time>
      </trkpt>
      <trkpt lat="49.15441" lon="7.02824">
        <ele>199</ele>
        <time>2020-06-27T09:15:52Z</time>
      </trkpt>
      <trkpt lat="49.15441" lon="7.02828">
        <ele>199</ele>
        <time>2020-06-27T09:15:53Z</time>
      </trkpt>
      <trkpt lat="49.15443" lon="7.02834">
        <ele>198.8</ele>
        <time>2020-06-27T09:15:54Z</time>
      </trkpt>
      <trkpt lat="49.15443" lon="7.02836">
        <ele>198.8</ele>
        <time>2020-06-27T09:15:55Z</time>
      </trkpt>
      <trkpt lat="49.15444" lon="7.02841">
        <ele>198.7</ele>
        <time>2020-06-27T09:15:56Z</time>
      </trkpt>
      <trkpt lat="49.15446" lon="7.02845">
        <ele>198.5</ele>
        <time>2020-06-27T09:15:57Z</time>
      </trkpt>
      <trkpt lat="49.15447" lon="7.02849">
        <ele>198.4</ele>
        <time>2020-06-27T09:15:58Z</time>
      </trkpt>
      <trkpt lat="49.15448" lon="7.02854">
        <ele>198.3</ele>
        <time>2020-06-27T09:15:59Z</time>
      </trkpt>
      <trkpt lat="49.1545" lon="7.02858">
        <ele>198.1</ele>
        <time>2020-06-27T09:16:00Z</time>
      </trkpt>
      <trkpt lat="49.15451" lon="7.02862">
        <ele>198</ele>
        <time>2020-06-27T09:16:01Z</time>
      </trkpt>
      <trkpt lat="49.15453" lon="7.02867">
        <ele>197.8</ele>
        <time>2020-06-27T09:16:02Z</time>
      </trkpt>
      <trkpt lat="49.15455" lon="7.02872">
        <ele>197.7</ele>
        <time>2020-06-27T09:16:03Z</time>
      </trkpt>
      <trkpt lat="49.15455" lon="7.02877">
        <ele>197.5</ele>
        <time>2020-06-27T09:16:04Z</time>
      </trkpt>
      <trkpt lat="49.15456" lon="7.02881">
        <ele>197.4</ele>
        <time>2020-06-27T09:16:05Z</time>
      </trkpt>
      <trkpt lat="49.15457" lon="7.02886">
        <ele>197.3</ele>
        <time>2020-06-27T09:16:06Z</time>
      </trkpt>
      <trkpt lat="49.15457" lon="7.0289">
        <ele>197.1</ele>
        <time>2020-06-27T09:16:07Z</time>
      </trkpt>
      <trkpt lat="49.15457" lon="7.02895">
        <ele>197</ele>
        <time>2020-06-27T09:16:08Z</time>
      </trkpt>
      <trkpt lat="49.15457" lon="7.02896">
        <ele>196.9</ele>
        <time>2020-06-27T09:16:09Z</time>
      </trkpt>
      <trkpt lat="49.15457" lon="7.02898">
        <ele>196.9</ele>
        <time>2020-06-27T09:16:10Z</time>
      </trkpt>
      <trkpt lat="49.15457" lon="7.02898">
        <ele>196.9</ele>
        <time>2020-06-27T09:16:11Z</time>
      </trkpt>
      <trkpt lat="49.15457" lon="7.02897">
        <ele>196.8</ele>
        <time>2020-06-27T09:16:12Z</time>
      </trkpt>
      <trkpt lat="49.15456" lon="7.02897">
        <ele>196.8</ele>
        <time>2020-06-27T09:16:13Z</time>
      </trkpt>
      <trkpt lat="49.15456" lon="7.02898">
        <ele>196.8</ele>
        <time>2020-06-27T09:16:14Z</time>
      </trkpt>
      <trkpt lat="49.15455" lon="7.02898">
        <ele>196.8</ele>
        <time>2020-06-27T09:16:15Z</time>
      </trkpt>
      <trkpt lat="49.15455" lon="7.02899">
        <ele>196.7</ele>
        <time>2020-06-27T09:16:16Z</time>
      </trkpt>
      <trkpt lat="49.15455" lon="7.02899">
        <ele>196.7</ele>
        <time>2020-06-27T09:16:17Z</time>
      </trkpt>
      <trkpt lat="49.15455" lon="7.029">
        <ele>196.7</ele>
        <time>2020-06-27T09:16:18Z</time>
      </trkpt>
      <trkpt lat="49.15457" lon="7.02901">
        <ele>196.6</ele>
        <time>2020-06-27T09:16:19Z</time>
      </trkpt>
      <trkpt lat="49.15458" lon="7.02901">
        <ele>196.6</ele>
        <time>2020-06-27T09:16:20Z</time>
      </trkpt>
      <trkpt lat="49.15459" lon="7.02902">
        <ele>196.4</ele>
        <time>2020-06-27T09:16:21Z</time>
      </trkpt>
      <trkpt lat="49.15461" lon="7.02903">
        <ele>196.4</ele>
        <time>2020-06-27T09:18:00Z</time>
      </trkpt>
      <trkpt lat="49.15462" lon="7.02904">
        <ele>196.4</ele>
        <time>2020-06-27T09:18:01Z</time>
      </trkpt>
      <trkpt lat="49.15466" lon="7.02903">
        <ele>196.4</ele>
        <time>2020-06-27T09:18:02Z</time>
      </trkpt>
      <trkpt lat="49.15467" lon="7.02903">
        <ele>196.4</ele>
        <time>2020-06-27T09:18:03Z</time>
      </trkpt>
      <trkpt lat="49.1547" lon="7.02903">
        <ele>196.4</ele>
        <time>2020-06-27T09:18:04Z</time>
      </trkpt>
      <trkpt lat="49.15472" lon="7.02903">
        <ele>196.5</ele>
        <time>2020-06-27T09:18:05Z</time>
      </trkpt>
      <trkpt lat="49.15476" lon="7.02903">
        <ele>196.5</ele>
        <time>2020-06-27T09:18:06Z</time>
      </trkpt>
      <trkpt lat="49.15478" lon="7.02904">
        <ele>196.5</ele>
        <time>2020-06-27T09:18:07Z</time>
      </trkpt>
      <trkpt lat="49.15481" lon="7.02903">
        <ele>196.5</ele>
        <time>2020-06-27T09:18:08Z</time>
      </trkpt>
      <trkpt lat="49.15484" lon="7.02903">
        <ele>196.6</ele>
        <time>2020-06-27T09:18:09Z</time>
      </trkpt>
      <trkpt lat="49.15488" lon="7.02905">
        <ele>196.6</ele>
        <time>2020-06-27T09:18:10Z</time>
      </trkpt>
      <trkpt lat="49.15492" lon="7.02906">
        <ele>196.7</ele>
        <time>2020-06-27T09:18:11Z</time>
      </trkpt>
      <trkpt lat="49.15495" lon="7.02908">
        <ele>196.7</ele>
        <time>2020-06-27T09:18:12Z</time>
      </trkpt>
      <trkpt lat="49.15498" lon="7.02909">
        <ele>196.7</ele>
        <time>2020-06-27T09:18:13Z</time>
      </trkpt>
      <trkpt lat="49.15502" lon="7.02911">
        <ele>196.8</ele>
        <time>2020-06-27T09:18:14Z</time>
      </trkpt>
      <trkpt lat="49.15506" lon="7.02913">
        <ele>196.9</ele>
        <time>2020-06-27T09:18:15Z</time>
      </trkpt>
      <trkpt lat="49.15511" lon="7.02914">
        <ele>196.9</ele>
        <time>2020-06-27T09:18:16Z</time>
      </trkpt>
      <trkpt lat="49.15515" lon="7.02918">
        <ele>196.9</ele>
        <time>2020-06-27T09:18:17Z</time>
      </trkpt>
      <trkpt lat="49.15519" lon="7.0292">
        <ele>197</ele>
        <time>2020-06-27T09:18:18Z</time>
      </trkpt>
      <trkpt lat="49.15523" lon="7.02923">
        <ele>197</ele>
        <time>2020-06-27T09:18:19Z</time>
      </trkpt>
      <trkpt lat="49.15529" lon="7.02928">
        <ele>197</ele>
        <time>2020-06-27T09:18:20Z</time>
      </trkpt>
      <trkpt lat="49.15532" lon="7.02929">
        <ele>197.1</ele>
        <time>2020-06-27T09:18:21Z</time>
      </trkpt>
      <trkpt lat="49.15536" lon="7.02931">
        <ele>197.1</ele>
        <time>2020-06-27T09:18:22Z</time>
      </trkpt>
      <trkpt lat="49.1554" lon="7.02934">
        <ele>197.2</ele>
        <time>2020-06-27T09:18:23Z</time>
      </trkpt>
      <trkpt lat="49.15544" lon="7.02937">
        <ele>197.2</ele>
        <time>2020-06-27T09:18:24Z</time>
      </trkpt>
      <trkpt lat="49.15548" lon="7.02939">
        <ele>197.3</ele>
        <time>2020-06-27T09:18:25Z</time>
      </trkpt>
      <trkpt lat="49.15551" lon="7.0294">
        <ele>197.4</ele>
        <time>2020-06-27T09:18:26Z</time>
      </trkpt>
      <trkpt lat="49.15554" lon="7.02941">
        <ele>197.6</ele>
        <time>2020-06-27T09:18:27Z</time>
      </trkpt>
      <trkpt lat="49.15559" lon="7.0294">
        <ele>197.8</ele>
        <time>2020-06-27T09:18:28Z</time>
      </trkpt>
      <trkpt lat="49.15562" lon="7.02937">
        <ele>198.1</ele>
        <time>2020-06-27T09:18:29Z</time>
      </trkpt>
      <trkpt lat="49.15565" lon="7.02935">
        <ele>198.3</ele>
        <time>2020-06-27T09:18:30Z</time>
      </trkpt>
      <trkpt lat="49.15568" lon="7.02933">
        <ele>198.5</ele>
        <time>2020-06-27T09:18:31Z</time>
      </trkpt>
      <trkpt lat="49.15572" lon="7.02931">
        <ele>198.7</ele>
        <time>2020-06-27T09:18:32Z</time>
      </trkpt>
      <trkpt lat="49.15576" lon="7.02929">
        <ele>199</ele>
        <time>2020-06-27T09:18:33Z</time>
      </trkpt>
      <trkpt lat="49.15579" lon="7.02927">
        <ele>199.2</ele>
        <time>2020-06-27T09:18:34Z</time>
      </trkpt>
      <trkpt lat="49.15582" lon="7.02924">
        <ele>199.4</ele>
        <time>2020-06-27T09:18:35Z</time>
      </trkpt>
      <trkpt lat="49.15583" lon="7.02923">
        <ele>199.5</ele>
        <time>2020-06-27T09:18:36Z</time>
      </trkpt>
      <trkpt lat="49.15587" lon="7.02921">
        <ele>199.8</ele>
        <time>2020-06-27T09:18:37Z</time>
      </trkpt>
      <trkpt lat="49.15589" lon="7.02921">
        <ele>199.9</ele>
        <time>2020-06-27T09:18:38Z</time>
      </trkpt>
      <trkpt lat="49.15592" lon="7.02919">
        <ele>200.2</ele>
        <time>2020-06-27T09:18:39Z</time>
      </trkpt>
      <trkpt lat="49.15596" lon="7.02919">
        <ele>200.4</ele>
        <time>2020-06-27T09:18:40Z</time>
      </trkpt>
      <trkpt lat="49.15597" lon="7.02921">
        <ele>200.5</ele>
        <time>2020-06-27T09:18:41Z</time>
      </trkpt>
      <trkpt lat="49.156" lon="7.02927">
        <ele>200.8</ele>
        <time>2020-06-27T09:18:42Z</time>
      </trkpt>
      <trkpt lat="49.15602" lon="7.02932">
        <ele>200.8</ele>
        <time>2020-06-27T09:18:43Z</time>
      </trkpt>
      <trkpt lat="49.15604" lon="7.02936">
        <ele>200.8</ele>
        <time>2020-06-27T09:18:44Z</time>
      </trkpt>
      <trkpt lat="49.15607" lon="7.02942">
        <ele>200.8</ele>
        <time>2020-06-27T09:18:45Z</time>
      </trkpt>
      <trkpt lat="49.15609" lon="7.02947">
        <ele>200.8</ele>
        <time>2020-06-27T09:18:46Z</time>
      </trkpt>
      <trkpt lat="49.15611" lon="7.02951">
        <ele>200.8</ele>
        <time>2020-06-27T09:18:47Z</time>
      </trkpt>
      <trkpt lat="49.15614" lon="7.02955">
        <ele>200.9</ele>
        <time>2020-06-27T09:18:48Z</time>
      </trkpt>
      <trkpt lat="49.15616" lon="7.02961">
        <ele>200.9</ele>
        <time>2020-06-27T09:18:49Z</time>
      </trkpt>
      <trkpt lat="49.15619" lon="7.02966">
        <ele>201</ele>
        <time>2020-06-27T09:18:50Z</time>
      </trkpt>
      <trkpt lat="49.15622" lon="7.02972">
        <ele>201</ele>
        <time>2020-06-27T09:18:51Z</time>
      </trkpt>
      <trkpt lat="49.15624" lon="7.02976">
        <ele>201.1</ele>
        <time>2020-06-27T09:18:52Z</time>
      </trkpt>
      <trkpt lat="49.15627" lon="7.02982">
        <ele>201.1</ele>
        <time>2020-06-27T09:18:53Z</time>
      </trkpt>
      <trkpt lat="49.15629" lon="7.02986">
        <ele>201.2</ele>
        <time>2020-06-27T09:18:54Z</time>
      </trkpt>
      <trkpt lat="49.15632" lon="7.02991">
        <ele>201.2</ele>
        <time>2020-06-27T09:18:55Z</time>
      </trkpt>
      <trkpt lat="49.15635" lon="7.02996">
        <ele>201.2</ele>
        <time>2020-06-27T09:18:56Z</time>
      </trkpt>
      <trkpt lat="49.15637" lon="7.02999">
        <ele>201.3</ele>
        <time>2020-06-27T09:18:57Z</time>
      </trkpt>
      <trkpt lat="49.1564" lon="7.03003">
        <ele>201.5</ele>
        <time>2020-06-27T09:18:58Z</time>
      </trkpt>
      <trkpt lat="49.15645" lon="7.03007">
        <ele>201.7</ele>
        <time>2020-06-27T09:18:59Z</time>
      </trkpt>
      <trkpt lat="49.15647" lon="7.03009">
        <ele>201.8</ele>
        <time>2020-06-27T09:19:00Z</time>
      </trkpt>
      <trkpt lat="49.15652" lon="7.03009">
        <ele>201.9</ele>
        <time>2020-06-27T09:19:01Z</time>
      </trkpt>
      <trkpt lat="49.15653" lon="7.03009">
        <ele>201.9</ele>
        <time>2020-06-27T09:19:02Z</time>
      </trkpt>
      <trkpt lat="49.15657" lon="7.03008">
        <ele>202.1</ele>
        <time>2020-06-27T09:19:03Z</time>
      </trkpt>
      <trkpt lat="49.1566" lon="7.03008">
        <ele>202.2</ele>
        <time>2020-06-27T09:19:04Z</time>
      </trkpt>
      <trkpt lat="49.15663" lon="7.03008">
        <ele>202.2</ele>
        <time>2020-06-27T09:19:05Z</time>
      </trkpt>
      <trkpt lat="49.15667" lon="7.03008">
        <ele>202.4</ele>
        <time>2020-06-27T09:19:06Z</time>
      </trkpt>
      <trkpt lat="49.1567" lon="7.03009">
        <ele>202.5</ele>
        <time>2020-06-27T09:19:07Z</time>
      </trkpt>
      <trkpt lat="49.15671" lon="7.0301">
        <ele>202.5</ele>
        <time>2020-06-27T09:19:08Z</time>
      </trkpt>
      <trkpt lat="49.15672" lon="7.0301">
        <ele>202.5</ele>
        <time>2020-06-27T09:19:09Z</time>
      </trkpt>
      <trkpt lat="49.15673" lon="7.03014">
        <ele>202.6</ele>
        <time>2020-06-27T09:19:10Z</time>
      </trkpt>
      <trkpt lat="49.15673" lon="7.03018">
        <ele>202.5</ele>
        <time>2020-06-27T09:19:11Z</time>
      </trkpt>
      <trkpt lat="49.15674" lon="7.03024">
        <ele>202.4</ele>
        <time>2020-06-27T09:19:12Z</time>
      </trkpt>
      <trkpt lat="49.15675" lon="7.03031">
        <ele>202.3</ele>
        <time>2020-06-27T09:19:13Z</time>
      </trkpt>
      <trkpt lat="49.15676" lon="7.03038">
        <ele>202.3</ele>
        <time>2020-06-27T09:19:14Z</time>
      </trkpt>
      <trkpt lat="49.15677" lon="7.03042">
        <ele>202.2</ele>
        <time>2020-06-27T09:19:15Z</time>
      </trkpt>
      <trkpt lat="49.15677" lon="7.03047">
        <ele>202.1</ele>
        <time>2020-06-27T09:19:16Z</time>
      </trkpt>
      <trkpt lat="49.15678" lon="7.03051">
        <ele>202.1</ele>
        <time>2020-06-27T09:19:17Z</time>
      </trkpt>
      <trkpt lat="49.15679" lon="7.03056">
        <ele>202</ele>
        <time>2020-06-27T09:19:18Z</time>
      </trkpt>
      <trkpt lat="49.15679" lon="7.03058">
        <ele>202</ele>
        <time>2020-06-27T09:19:19Z</time>
      </trkpt>
      <trkpt lat="49.1568" lon="7.03064">
        <ele>201.9</ele>
        <time>2020-06-27T09:19:20Z</time>
      </trkpt>
      <trkpt lat="49.15681" lon="7.03068">
        <ele>201.9</ele>
        <time>2020-06-27T09:19:21Z</time>
      </trkpt>
      <trkpt lat="49.15681" lon="7.0307">
        <ele>201.8</ele>
        <time>2020-06-27T09:19:22Z</time>
      </trkpt>
      <trkpt lat="49.15681" lon="7.0307">
        <ele>201.8</ele>
        <time>2020-06-27T09:19:23Z</time>
      </trkpt>
      <trkpt lat="49.15681" lon="7.03074">
        <ele>201.8</ele>
        <time>2020-06-27T09:19:24Z</time>
      </trkpt>
      <trkpt lat="49.15683" lon="7.03076">
        <ele>201.7</ele>
        <time>2020-06-27T09:19:25Z</time>
      </trkpt>
      <trkpt lat="49.15684" lon="7.03076">
        <ele>201.7</ele>
        <time>2020-06-27T09:19:26Z</time>
      </trkpt>
      <trkpt lat="49.15684" lon="7.03076">
        <ele>201.7</ele>
        <time>2020-06-27T09:19:27Z</time>
      </trkpt>
      <trkpt lat="49.15682" lon="7.03073">
        <ele>201.6</ele>
        <time>2020-06-27T09:19:28Z</time>
      </trkpt>
      <trkpt lat="49.15681" lon="7.03072">
        <ele>201.6</ele>
        <time>2020-06-27T09:19:29Z</time>
      </trkpt>
      <trkpt lat="49.15681" lon="7.03072">
        <ele>201.6</ele>
        <time>2020-06-27T09:19:30Z</time>
      </trkpt>
      <trkpt lat="49.15681" lon="7.03072">
        <ele>201.6</ele>
        <time>2020-06-27T09:19:31Z</time>
      </trkpt>
      <trkpt lat="49.1568" lon="7.03073">
        <ele>201.6</ele>
        <time>2020-06-27T09:19:32Z</time>
      </trkpt>
      <trkpt lat="49.1568" lon="7.03073">
        <ele>201.6</ele>
        <time>2020-06-27T09:19:33Z</time>
      </trkpt>
      <trkpt lat="49.1568" lon="7.03073">
        <ele>201.6</ele>
        <time>2020-06-27T09:19:34Z</time>
      </trkpt>
      <trkpt lat="49.1568" lon="7.03074">
        <ele>201.5</ele>
        <time>2020-06-27T09:19:35Z</time>
      </trkpt>
      <trkpt lat="49.15679" lon="7.03074">
        <ele>201.5</ele>
        <time>2020-06-27T09:19:36Z</time>
      </trkpt>
      <trkpt lat="49.15679" lon="7.03074">
        <ele>201.5</ele>
        <time>2020-06-27T09:19:37Z</time>
      </trkpt>
      <trkpt lat="49.15679" lon="7.03075">
        <ele>201.5</ele>
        <time>2020-06-27T09:22:04Z</time>
      </trkpt>
      <trkpt lat="49.15679" lon="7.03075">
        <ele>201.5</ele>
        <time>2020-06-27T09:22:05Z</time>
      </trkpt>
      <trkpt lat="49.15679" lon="7.03078">
        <ele>201.4</ele>
        <time>2020-06-27T09:22:06Z</time>
      </trkpt>
      <trkpt lat="49.15681" lon="7.03078">
        <ele>201.4</ele>
        <time>2020-06-27T09:22:07Z</time>
      </trkpt>
      <trkpt lat="49.15681" lon="7.0308">
        <ele>201.4</ele>
        <time>2020-06-27T09:22:08Z</time>
      </trkpt>
      <trkpt lat="49.15682" lon="7.03082">
        <ele>201.3</ele>
        <time>2020-06-27T09:22:09Z</time>
      </trkpt>
      <trkpt lat="49.15682" lon="7.03083">
        <ele>201.3</ele>
        <time>2020-06-27T09:22:10Z</time>
      </trkpt>
      <trkpt lat="49.15683" lon="7.03083">
        <ele>200.9</ele>
        <time>2020-06-27T09:22:11Z</time>
      </trkpt>
      <trkpt lat="49.15684" lon="7.03084">
        <ele>200.8</ele>
        <time>2020-06-27T09:22:12Z</time>
      </trkpt>
      <trkpt lat="49.15685" lon="7.03084">
        <ele>200.6</ele>
        <time>2020-06-27T09:22:13Z</time>
      </trkpt>
      <trkpt lat="49.15689" lon="7.03085">
        <ele>200.2</ele>
        <time>2020-06-27T09:22:14Z</time>
      </trkpt>
      <trkpt lat="49.15691" lon="7.03085">
        <ele>200</ele>
        <time>2020-06-27T09:22:15Z</time>
      </trkpt>
      <trkpt lat="49.15698" lon="7.03086">
        <ele>199.3</ele>
        <time>2020-06-27T09:22:16Z</time>
      </trkpt>
      <trkpt lat="49.15703" lon="7.03084">
        <ele>198.6</ele>
        <time>2020-06-27T09:22:17Z</time>
      </trkpt>
      <trkpt lat="49.15709" lon="7.03083">
        <ele>198</ele>
        <time>2020-06-27T09:22:18Z</time>
      </trkpt>
      <trkpt lat="49.15715" lon="7.03083">
        <ele>197.4</ele>
        <time>2020-06-27T09:22:19Z</time>
      </trkpt>
      <trkpt lat="49.15721" lon="7.03082">
        <ele>196.8</ele>
        <time>2020-06-27T09:22:20Z</time>
      </trkpt>
      <trkpt lat="49.15727" lon="7.03082">
        <ele>196.1</ele>
        <time>2020-06-27T09:22:21Z</time>
      </trkpt>
      <trkpt lat="49.15732" lon="7.03081">
        <ele>195.6</ele>
        <time>2020-06-27T09:22:22Z</time>
      </trkpt>
      <trkpt lat="49.15737" lon="7.03081">
        <ele>195.1</ele>
        <time>2020-06-27T09:22:23Z</time>
      </trkpt>
      <trkpt lat="49.15743" lon="7.03082">
        <ele>194.6</ele>
        <time>2020-06-27T09:22:24Z</time>
      </trkpt>
      <trkpt lat="49.15748" lon="7.03083">
        <ele>194.2</ele>
        <time>2020-06-27T09:22:25Z</time>
      </trkpt>
      <trkpt lat="49.15752" lon="7.03084">
        <ele>193.9</ele>
        <time>2020-06-27T09:22:26Z</time>
      </trkpt>
      <trkpt lat="49.15757" lon="7.03085">
        <ele>193.5</ele>
        <time>2020-06-27T09:22:27Z</time>
      </trkpt>
      <trkpt lat="49.15761" lon="7.03088">
        <ele>193.2</ele>
        <time>2020-06-27T09:22:28Z</time>
      </trkpt>
      <trkpt lat="49.15763" lon="7.03091">
        <ele>192.4</ele>
        <time>2020-06-27T09:22:29Z</time>
      </trkpt>
      <trkpt lat="49.15765" lon="7.03094">
        <ele>192.4</ele>
        <time>2020-06-27T09:22:30Z</time>
      </trkpt>
      <trkpt lat="49.15765" lon="7.03095">
        <ele>192.4</ele>
        <time>2020-06-27T09:22:31Z</time>
      </trkpt>
      <trkpt lat="49.15763" lon="7.03095">
        <ele>192.4</ele>
        <time>2020-06-27T09:22:32Z</time>
      </trkpt>
      <trkpt lat="49.15762" lon="7.03094">
        <ele>192.4</ele>
        <time>2020-06-27T09:22:33Z</time>
      </trkpt>
      <trkpt lat="49.15759" lon="7.03095">
        <ele>192.4</ele>
        <time>2020-06-27T09:22:34Z</time>
      </trkpt>
      <trkpt lat="49.15755" lon="7.03095">
        <ele>192.5</ele>
        <time>2020-06-27T09:22:35Z</time>
      </trkpt>
      <trkpt lat="49.15751" lon="7.03096">
        <ele>192.5</ele>
        <time>2020-06-27T09:22:36Z</time>
      </trkpt>
      <trkpt lat="49.15746" lon="7.03097">
        <ele>192.5</ele>
        <time>2020-06-27T09:22:37Z</time>
      </trkpt>
      <trkpt lat="49.15742" lon="7.03098">
        <ele>192.5</ele>
        <time>2020-06-27T09:22:38Z</time>
      </trkpt>
      <trkpt lat="49.15738" lon="7.03099">
        <ele>192.5</ele>
        <time>2020-06-27T09:22:39Z</time>
      </trkpt>
      <trkpt lat="49.15733" lon="7.031">
        <ele>192.5</ele>
        <time>2020-06-27T09:22:40Z</time>
      </trkpt>
      <trkpt lat="49.15729" lon="7.03099">
        <ele>192.5</ele>
        <time>2020-06-27T09:22:41Z</time>
      </trkpt>
      <trkpt lat="49.15725" lon="7.03098">
        <ele>192.6</ele>
        <time>2020-06-27T09:22:42Z</time>
      </trkpt>
      <trkpt lat="49.1572" lon="7.03099">
        <ele>192.6</ele>
        <time>2020-06-27T09:22:43Z</time>
      </trkpt>
      <trkpt lat="49.15716" lon="7.03099">
        <ele>192.6</ele>
        <time>2020-06-27T09:22:44Z</time>
      </trkpt>
      <trkpt lat="49.15712" lon="7.031">
        <ele>192.6</ele>
        <time>2020-06-27T09:22:45Z</time>
      </trkpt>
      <trkpt lat="49.15708" lon="7.03103">
        <ele>192.6</ele>
        <time>2020-06-27T09:22:46Z</time>
      </trkpt>
      <trkpt lat="49.15705" lon="7.03104">
        <ele>192.6</ele>
        <time>2020-06-27T09:22:47Z</time>
      </trkpt>
      <trkpt lat="49.15701" lon="7.03104">
        <ele>192.6</ele>
        <time>2020-06-27T09:22:48Z</time>
      </trkpt>
      <trkpt lat="49.15696" lon="7.03105">
        <ele>192.6</ele>
        <time>2020-06-27T09:22:49Z</time>
      </trkpt>
      <trkpt lat="49.15692" lon="7.03106">
        <ele>192.7</ele>
        <time>2020-06-27T09:22:50Z</time>
      </trkpt>
      <trkpt lat="49.15688" lon="7.03107">
        <ele>192.7</ele>
        <time>2020-06-27T09:22:51Z</time>
      </trkpt>
      <trkpt lat="49.15685" lon="7.03108">
        <ele>192.8</ele>
        <time>2020-06-27T09:22:52Z</time>
      </trkpt>
      <trkpt lat="49.15682" lon="7.03109">
        <ele>192.8</ele>
        <time>2020-06-27T09:22:53Z</time>
      </trkpt>
      <trkpt lat="49.15677" lon="7.03109">
        <ele>192.8</ele>
        <time>2020-06-27T09:22:54Z</time>
      </trkpt>
      <trkpt lat="49.15673" lon="7.03109">
        <ele>192.8</ele>
        <time>2020-06-27T09:22:55Z</time>
      </trkpt>
      <trkpt lat="49.15669" lon="7.03111">
        <ele>192.8</ele>
        <time>2020-06-27T09:22:56Z</time>
      </trkpt>
      <trkpt lat="49.15665" lon="7.03112">
        <ele>192.8</ele>
        <time>2020-06-27T09:22:57Z</time>
      </trkpt>
      <trkpt lat="49.1566" lon="7.03114">
        <ele>192.8</ele>
        <time>2020-06-27T09:22:58Z</time>
      </trkpt>
      <trkpt lat="49.15656" lon="7.03117">
        <ele>192.9</ele>
        <time>2020-06-27T09:22:59Z</time>
      </trkpt>
      <trkpt lat="49.15652" lon="7.03118">
        <ele>192.9</ele>
        <time>2020-06-27T09:23:00Z</time>
      </trkpt>
      <trkpt lat="49.15648" lon="7.03118">
        <ele>192.9</ele>
        <time>2020-06-27T09:23:01Z</time>
      </trkpt>
      <trkpt lat="49.15644" lon="7.03119">
        <ele>193</ele>
        <time>2020-06-27T09:23:02Z</time>
      </trkpt>
      <trkpt lat="49.15642" lon="7.03121">
        <ele>193</ele>
        <time>2020-06-27T09:23:03Z</time>
      </trkpt>
      <trkpt lat="49.15638" lon="7.03123">
        <ele>193</ele>
        <time>2020-06-27T09:23:04Z</time>
      </trkpt>
      <trkpt lat="49.15635" lon="7.03125">
        <ele>193</ele>
        <time>2020-06-27T09:23:05Z</time>
      </trkpt>
      <trkpt lat="49.15632" lon="7.03126">
        <ele>193.1</ele>
        <time>2020-06-27T09:23:06Z</time>
      </trkpt>
      <trkpt lat="49.15628" lon="7.03127">
        <ele>193.1</ele>
        <time>2020-06-27T09:23:07Z</time>
      </trkpt>
      <trkpt lat="49.15624" lon="7.03127">
        <ele>193.1</ele>
        <time>2020-06-27T09:23:08Z</time>
      </trkpt>
      <trkpt lat="49.1562" lon="7.03128">
        <ele>193.1</ele>
        <time>2020-06-27T09:23:09Z</time>
      </trkpt>
      <trkpt lat="49.15615" lon="7.03129">
        <ele>193.1</ele>
        <time>2020-06-27T09:23:10Z</time>
      </trkpt>
      <trkpt lat="49.15611" lon="7.0313">
        <ele>193.2</ele>
        <time>2020-06-27T09:23:11Z</time>
      </trkpt>
      <trkpt lat="49.15606" lon="7.03131">
        <ele>193.2</ele>
        <time>2020-06-27T09:23:12Z</time>
      </trkpt>
      <trkpt lat="49.15601" lon="7.03134">
        <ele>193.2</ele>
        <time>2020-06-27T09:23:13Z</time>
      </trkpt>
      <trkpt lat="49.15596" lon="7.03137">
        <ele>193.2</ele>
        <time>2020-06-27T09:23:14Z</time>
      </trkpt>
      <trkpt lat="49.15592" lon="7.03139">
        <ele>193.3</ele>
        <time>2020-06-27T09:23:15Z</time>
      </trkpt>
      <trkpt lat="49.15589" lon="7.03142">
        <ele>193.3</ele>
        <time>2020-06-27T09:23:16Z</time>
      </trkpt>
      <trkpt lat="49.15585" lon="7.03145">
        <ele>193.4</ele>
        <time>2020-06-27T09:23:17Z</time>
      </trkpt>
      <trkpt lat="49.15581" lon="7.03148">
        <ele>193.4</ele>
        <time>2020-06-27T09:23:18Z</time>
      </trkpt>
      <trkpt lat="49.15577" lon="7.03151">
        <ele>193.4</ele>
        <time>2020-06-27T09:23:19Z</time>
      </trkpt>
      <trkpt lat="49.15573" lon="7.03153">
        <ele>193.5</ele>
        <time>2020-06-27T09:23:20Z</time>
      </trkpt>
      <trkpt lat="49.15569" lon="7.03156">
        <ele>193.5</ele>
        <time>2020-06-27T09:23:21Z</time>
      </trkpt>
      <trkpt lat="49.15566" lon="7.03159">
        <ele>193.5</ele>
        <time>2020-06-27T09:23:22Z</time>
      </trkpt>
      <trkpt lat="49.15562" lon="7.03163">
        <ele>193.5</ele>
        <time>2020-06-27T09:23:23Z</time>
      </trkpt>
      <trkpt lat="49.15559" lon="7.03165">
        <ele>193.5</ele>
        <time>2020-06-27T09:23:24Z</time>
      </trkpt>
      <trkpt lat="49.15555" lon="7.03166">
        <ele>193.6</ele>
        <time>2020-06-27T09:23:25Z</time>
      </trkpt>
      <trkpt lat="49.1555" lon="7.03168">
        <ele>193.5</ele>
        <time>2020-06-27T09:23:26Z</time>
      </trkpt>
      <trkpt lat="49.15545" lon="7.03171">
        <ele>193.5</ele>
        <time>2020-06-27T09:23:27Z</time>
      </trkpt>
      <trkpt lat="49.1554" lon="7.03174">
        <ele>193.4</ele>
        <time>2020-06-27T09:23:28Z</time>
      </trkpt>
      <trkpt lat="49.15535" lon="7.03177">
        <ele>193.3</ele>
        <time>2020-06-27T09:23:29Z</time>
      </trkpt>
      <trkpt lat="49.15529" lon="7.03183">
        <ele>193.2</ele>
        <time>2020-06-27T09:23:30Z</time>
      </trkpt>
      <trkpt lat="49.15523" lon="7.03188">
        <ele>193.2</ele>
        <time>2020-06-27T09:23:31Z</time>
      </trkpt>
      <trkpt lat="49.15518" lon="7.03191">
        <ele>193.1</ele>
        <time>2020-06-27T09:23:32Z</time>
      </trkpt>
      <trkpt lat="49.1551" lon="7.03196">
        <ele>193</ele>
        <time>2020-06-27T09:23:33Z</time>
      </trkpt>
      <trkpt lat="49.15505" lon="7.03199">
        <ele>192.9</ele>
        <time>2020-06-27T09:23:34Z</time>
      </trkpt>
      <trkpt lat="49.155" lon="7.03202">
        <ele>192.9</ele>
        <time>2020-06-27T09:23:35Z</time>
      </trkpt>
      <trkpt lat="49.15496" lon="7.03206">
        <ele>192.9</ele>
        <time>2020-06-27T09:23:36Z</time>
      </trkpt>
      <trkpt lat="49.15492" lon="7.03209">
        <ele>192.8</ele>
        <time>2020-06-27T09:23:37Z</time>
      </trkpt>
      <trkpt lat="49.15488" lon="7.03212">
        <ele>192.8</ele>
        <time>2020-06-27T09:23:38Z</time>
      </trkpt>
      <trkpt lat="49.15485" lon="7.03215">
        <ele>192.8</ele>
        <time>2020-06-27T09:23:39Z</time>
      </trkpt>
      <trkpt lat="49.15481" lon="7.03218">
        <ele>192.8</ele>
        <time>2020-06-27T09:23:40Z</time>
      </trkpt>
      <trkpt lat="49.15479" lon="7.03222">
        <ele>192.9</ele>
        <time>2020-06-27T09:23:41Z</time>
      </trkpt>
      <trkpt lat="49.15475" lon="7.03225">
        <ele>192.9</ele>
        <time>2020-06-27T09:23:42Z</time>
      </trkpt>
      <trkpt lat="49.15471" lon="7.03227">
        <ele>192.9</ele>
        <time>2020-06-27T09:23:43Z</time>
      </trkpt>
      <trkpt lat="49.15468" lon="7.0323">
        <ele>192.9</ele>
        <time>2020-06-27T09:23:44Z</time>
      </trkpt>
      <trkpt lat="49.15464" lon="7.03233">
        <ele>192.9</ele>
        <time>2020-06-27T09:23:45Z</time>
      </trkpt>
      <trkpt lat="49.1546" lon="7.03237">
        <ele>192.9</ele>
        <time>2020-06-27T09:23:46Z</time>
      </trkpt>
      <trkpt lat="49.15456" lon="7.03242">
        <ele>192.9</ele>
        <time>2020-06-27T09:23:47Z</time>
      </trkpt>
      <trkpt lat="49.15451" lon="7.03246">
        <ele>192.9</ele>
        <time>2020-06-27T09:23:48Z</time>
      </trkpt>
      <trkpt lat="49.15447" lon="7.03249">
        <ele>192.9</ele>
        <time>2020-06-27T09:23:49Z</time>
      </trkpt>
      <trkpt lat="49.15444" lon="7.03254">
        <ele>192.9</ele>
        <time>2020-06-27T09:23:50Z</time>
      </trkpt>
      <trkpt lat="49.15441" lon="7.03256">
        <ele>192.9</ele>
        <time>2020-06-27T09:23:51Z</time>
      </trkpt>
      <trkpt lat="49.15438" lon="7.03259">
        <ele>192.9</ele>
        <time>2020-06-27T09:23:52Z</time>
      </trkpt>
      <trkpt lat="49.15435" lon="7.03262">
        <ele>192.8</ele>
        <time>2020-06-27T09:23:53Z</time>
      </trkpt>
      <trkpt lat="49.1543" lon="7.03268">
        <ele>192.8</ele>
        <time>2020-06-27T09:23:54Z</time>
      </trkpt>
      <trkpt lat="49.15428" lon="7.0327">
        <ele>192.8</ele>
        <time>2020-06-27T09:23:55Z</time>
      </trkpt>
      <trkpt lat="49.15424" lon="7.03273">
        <ele>192.8</ele>
        <time>2020-06-27T09:23:56Z</time>
      </trkpt>
      <trkpt lat="49.1542" lon="7.03277">
        <ele>192.8</ele>
        <time>2020-06-27T09:23:57Z</time>
      </trkpt>
      <trkpt lat="49.15417" lon="7.03279">
        <ele>192.8</ele>
        <time>2020-06-27T09:23:58Z</time>
      </trkpt>
      <trkpt lat="49.15414" lon="7.03283">
        <ele>192.7</ele>
        <time>2020-06-27T09:23:59Z</time>
      </trkpt>
      <trkpt lat="49.15411" lon="7.03288">
        <ele>192.7</ele>
        <time>2020-06-27T09:24:00Z</time>
      </trkpt>
      <trkpt lat="49.15407" lon="7.03292">
        <ele>192.7</ele>
        <time>2020-06-27T09:24:01Z</time>
      </trkpt>
      <trkpt lat="49.15403" lon="7.03296">
        <ele>192.7</ele>
        <time>2020-06-27T09:24:02Z</time>
      </trkpt>
      <trkpt lat="49.154" lon="7.033">
        <ele>192.7</ele>
        <time>2020-06-27T09:24:03Z</time>
      </trkpt>
      <trkpt lat="49.15397" lon="7.03304">
        <ele>192.7</ele>
        <time>2020-06-27T09:24:04Z</time>
      </trkpt>
      <trkpt lat="49.15393" lon="7.03308">
        <ele>192.7</ele>
        <time>2020-06-27T09:24:05Z</time>
      </trkpt>
      <trkpt lat="49.15389" lon="7.03312">
        <ele>192.7</ele>
        <time>2020-06-27T09:24:06Z</time>
      </trkpt>
      <trkpt lat="49.15386" lon="7.03318">
        <ele>192.7</ele>
        <time>2020-06-27T09:24:07Z</time>
      </trkpt>
      <trkpt lat="49.15382" lon="7.03323">
        <ele>192.6</ele>
        <time>2020-06-27T09:24:08Z</time>
      </trkpt>
      <trkpt lat="49.15379" lon="7.03328">
        <ele>192.6</ele>
        <time>2020-06-27T09:24:09Z</time>
      </trkpt>
      <trkpt lat="49.15374" lon="7.03334">
        <ele>192.6</ele>
        <time>2020-06-27T09:24:10Z</time>
      </trkpt>
      <trkpt lat="49.1537" lon="7.0334">
        <ele>192.6</ele>
        <time>2020-06-27T09:24:11Z</time>
      </trkpt>
      <trkpt lat="49.15366" lon="7.03348">
        <ele>192.6</ele>
        <time>2020-06-27T09:24:12Z</time>
      </trkpt>
      <trkpt lat="49.1536" lon="7.03356">
        <ele>192.6</ele>
        <time>2020-06-27T09:24:13Z</time>
      </trkpt>
      <trkpt lat="49.15355" lon="7.03362">
        <ele>192.6</ele>
        <time>2020-06-27T09:24:14Z</time>
      </trkpt>
      <trkpt lat="49.15351" lon="7.03368">
        <ele>192.7</ele>
        <time>2020-06-27T09:24:15Z</time>
      </trkpt>
      <trkpt lat="49.15346" lon="7.03374">
        <ele>192.7</ele>
        <time>2020-06-27T09:24:16Z</time>
      </trkpt>
      <trkpt lat="49.15341" lon="7.0338">
        <ele>192.8</ele>
        <time>2020-06-27T09:24:17Z</time>
      </trkpt>
      <trkpt lat="49.15336" lon="7.03386">
        <ele>192.8</ele>
        <time>2020-06-27T09:24:18Z</time>
      </trkpt>
      <trkpt lat="49.15332" lon="7.03392">
        <ele>192.9</ele>
        <time>2020-06-27T09:24:19Z</time>
      </trkpt>
      <trkpt lat="49.15329" lon="7.03398">
        <ele>192.9</ele>
        <time>2020-06-27T09:24:20Z</time>
      </trkpt>
      <trkpt lat="49.15325" lon="7.03403">
        <ele>193</ele>
        <time>2020-06-27T09:24:21Z</time>
      </trkpt>
      <trkpt lat="49.15322" lon="7.03408">
        <ele>193</ele>
        <time>2020-06-27T09:24:22Z</time>
      </trkpt>
      <trkpt lat="49.15319" lon="7.03413">
        <ele>193</ele>
        <time>2020-06-27T09:24:23Z</time>
      </trkpt>
      <trkpt lat="49.15317" lon="7.03419">
        <ele>193</ele>
        <time>2020-06-27T09:24:24Z</time>
      </trkpt>
      <trkpt lat="49.15314" lon="7.03425">
        <ele>193</ele>
        <time>2020-06-27T09:24:25Z</time>
      </trkpt>
      <trkpt lat="49.1531" lon="7.0343">
        <ele>193.1</ele>
        <time>2020-06-27T09:24:26Z</time>
      </trkpt>
      <trkpt lat="49.15307" lon="7.03435">
        <ele>193.1</ele>
        <time>2020-06-27T09:24:27Z</time>
      </trkpt>
      <trkpt lat="49.15303" lon="7.03439">
        <ele>193.2</ele>
        <time>2020-06-27T09:24:28Z</time>
      </trkpt>
      <trkpt lat="49.15299" lon="7.03445">
        <ele>193.3</ele>
        <time>2020-06-27T09:24:29Z</time>
      </trkpt>
      <trkpt lat="49.15294" lon="7.0345">
        <ele>193.4</ele>
        <time>2020-06-27T09:24:30Z</time>
      </trkpt>
      <trkpt lat="49.15289" lon="7.03456">
        <ele>193.6</ele>
        <time>2020-06-27T09:24:31Z</time>
      </trkpt>
      <trkpt lat="49.15284" lon="7.03461">
        <ele>193.8</ele>
        <time>2020-06-27T09:24:32Z</time>
      </trkpt>
      <trkpt lat="49.1528" lon="7.03467">
        <ele>194</ele>
        <time>2020-06-27T09:24:33Z</time>
      </trkpt>
      <trkpt lat="49.15276" lon="7.03472">
        <ele>194.1</ele>
        <time>2020-06-27T09:24:34Z</time>
      </trkpt>
      <trkpt lat="49.15273" lon="7.03476">
        <ele>194.3</ele>
        <time>2020-06-27T09:24:35Z</time>
      </trkpt>
      <trkpt lat="49.1527" lon="7.03481">
        <ele>194.4</ele>
        <time>2020-06-27T09:24:36Z</time>
      </trkpt>
      <trkpt lat="49.15266" lon="7.03485">
        <ele>194.6</ele>
        <time>2020-06-27T09:24:37Z</time>
      </trkpt>
      <trkpt lat="49.15262" lon="7.03488">
        <ele>194.7</ele>
        <time>2020-06-27T09:24:38Z</time>
      </trkpt>
      <trkpt lat="49.15258" lon="7.03492">
        <ele>194.8</ele>
        <time>2020-06-27T09:24:39Z</time>
      </trkpt>
      <trkpt lat="49.15254" lon="7.03494">
        <ele>194.9</ele>
        <time>2020-06-27T09:24:40Z</time>
      </trkpt>
      <trkpt lat="49.1525" lon="7.03497">
        <ele>195</ele>
        <time>2020-06-27T09:24:41Z</time>
      </trkpt>
      <trkpt lat="49.15245" lon="7.035">
        <ele>195.1</ele>
        <time>2020-06-27T09:24:42Z</time>
      </trkpt>
      <trkpt lat="49.15241" lon="7.03502">
        <ele>195.1</ele>
        <time>2020-06-27T09:24:43Z</time>
      </trkpt>
      <trkpt lat="49.15237" lon="7.03505">
        <ele>195.2</ele>
        <time>2020-06-27T09:24:44Z</time>
      </trkpt>
      <trkpt lat="49.15233" lon="7.03508">
        <ele>195.2</ele>
        <time>2020-06-27T09:24:45Z</time>
      </trkpt>
      <trkpt lat="49.15228" lon="7.03512">
        <ele>195.3</ele>
        <time>2020-06-27T09:24:46Z</time>
      </trkpt>
      <trkpt lat="49.15224" lon="7.03516">
        <ele>195.3</ele>
        <time>2020-06-27T09:24:47Z</time>
      </trkpt>
      <trkpt lat="49.15221" lon="7.03521">
        <ele>195.3</ele>
        <time>2020-06-27T09:24:48Z</time>
      </trkpt>
      <trkpt lat="49.15217" lon="7.03525">
        <ele>195.4</ele>
        <time>2020-06-27T09:24:49Z</time>
      </trkpt>
      <trkpt lat="49.15213" lon="7.0353">
        <ele>195.4</ele>
        <time>2020-06-27T09:24:50Z</time>
      </trkpt>
      <trkpt lat="49.15209" lon="7.03534">
        <ele>195.4</ele>
        <time>2020-06-27T09:24:51Z</time>
      </trkpt>
      <trkpt lat="49.15204" lon="7.03539">
        <ele>195.4</ele>
        <time>2020-06-27T09:24:52Z</time>
      </trkpt>
      <trkpt lat="49.152" lon="7.03544">
        <ele>195.4</ele>
        <time>2020-06-27T09:24:53Z</time>
      </trkpt>
      <trkpt lat="49.15196" lon="7.03549">
        <ele>195.4</ele>
        <time>2020-06-27T09:24:54Z</time>
      </trkpt>
      <trkpt lat="49.15191" lon="7.03553">
        <ele>195.4</ele>
        <time>2020-06-27T09:24:55Z</time>
      </trkpt>
      <trkpt lat="49.15187" lon="7.03559">
        <ele>195.4</ele>
        <time>2020-06-27T09:24:56Z</time>
      </trkpt>
      <trkpt lat="49.15183" lon="7.03564">
        <ele>195.4</ele>
        <time>2020-06-27T09:24:57Z</time>
      </trkpt>
      <trkpt lat="49.15178" lon="7.03569">
        <ele>195.4</ele>
        <time>2020-06-27T09:24:58Z</time>
      </trkpt>
      <trkpt lat="49.15174" lon="7.03574">
        <ele>195.5</ele>
        <time>2020-06-27T09:24:59Z</time>
      </trkpt>
      <trkpt lat="49.1517" lon="7.03579">
        <ele>195.5</ele>
        <time>2020-06-27T09:25:00Z</time>
      </trkpt>
      <trkpt lat="49.15166" lon="7.03582">
        <ele>195.5</ele>
        <time>2020-06-27T09:25:01Z</time>
      </trkpt>
      <trkpt lat="49.15162" lon="7.03586">
        <ele>195.5</ele>
        <time>2020-06-27T09:25:02Z</time>
      </trkpt>
      <trkpt lat="49.15158" lon="7.0359">
        <ele>195.5</ele>
        <time>2020-06-27T09:25:03Z</time>
      </trkpt>
      <trkpt lat="49.15153" lon="7.03593">
        <ele>195.5</ele>
        <time>2020-06-27T09:25:04Z</time>
      </trkpt>
      <trkpt lat="49.15149" lon="7.03597">
        <ele>195.5</ele>
        <time>2020-06-27T09:25:05Z</time>
      </trkpt>
      <trkpt lat="49.15145" lon="7.03599">
        <ele>195.5</ele>
        <time>2020-06-27T09:25:06Z</time>
      </trkpt>
      <trkpt lat="49.15141" lon="7.03603">
        <ele>195.5</ele>
        <time>2020-06-27T09:25:07Z</time>
      </trkpt>
      <trkpt lat="49.15136" lon="7.03607">
        <ele>195.5</ele>
        <time>2020-06-27T09:25:08Z</time>
      </trkpt>
      <trkpt lat="49.15131" lon="7.03612">
        <ele>195.5</ele>
        <time>2020-06-27T09:25:09Z</time>
      </trkpt>
      <trkpt lat="49.15126" lon="7.03617">
        <ele>195.5</ele>
        <time>2020-06-27T09:25:10Z</time>
      </trkpt>
      <trkpt lat="49.15121" lon="7.03622">
        <ele>195.5</ele>
        <time>2020-06-27T09:25:11Z</time>
      </trkpt>
      <trkpt lat="49.15117" lon="7.03627">
        <ele>195.5</ele>
        <time>2020-06-27T09:25:12Z</time>
      </trkpt>
      <trkpt lat="49.15112" lon="7.03632">
        <ele>195.4</ele>
        <time>2020-06-27T09:25:13Z</time>
      </trkpt>
      <trkpt lat="49.15108" lon="7.03636">
        <ele>195.4</ele>
        <time>2020-06-27T09:25:14Z</time>
      </trkpt>
      <trkpt lat="49.15105" lon="7.03641">
        <ele>195.4</ele>
        <time>2020-06-27T09:25:15Z</time>
      </trkpt>
      <trkpt lat="49.151" lon="7.03646">
        <ele>195.4</ele>
        <time>2020-06-27T09:25:16Z</time>
      </trkpt>
      <trkpt lat="49.15096" lon="7.03651">
        <ele>195.4</ele>
        <time>2020-06-27T09:25:17Z</time>
      </trkpt>
      <trkpt lat="49.15092" lon="7.03656">
        <ele>195.4</ele>
        <time>2020-06-27T09:25:18Z</time>
      </trkpt>
      <trkpt lat="49.15087" lon="7.03661">
        <ele>195.4</ele>
        <time>2020-06-27T09:25:19Z</time>
      </trkpt>
      <trkpt lat="49.15084" lon="7.03666">
        <ele>195.4</ele>
        <time>2020-06-27T09:25:20Z</time>
      </trkpt>
      <trkpt lat="49.1508" lon="7.0367">
        <ele>195.4</ele>
        <time>2020-06-27T09:25:21Z</time>
      </trkpt>
      <trkpt lat="49.15076" lon="7.03674">
        <ele>195.4</ele>
        <time>2020-06-27T09:25:22Z</time>
      </trkpt>
      <trkpt lat="49.15073" lon="7.03678">
        <ele>195.4</ele>
        <time>2020-06-27T09:25:23Z</time>
      </trkpt>
      <trkpt lat="49.15069" lon="7.03681">
        <ele>195.4</ele>
        <time>2020-06-27T09:25:24Z</time>
      </trkpt>
      <trkpt lat="49.15066" lon="7.03685">
        <ele>195.4</ele>
        <time>2020-06-27T09:25:25Z</time>
      </trkpt>
      <trkpt lat="49.15062" lon="7.03688">
        <ele>195.4</ele>
        <time>2020-06-27T09:25:26Z</time>
      </trkpt>
      <trkpt lat="49.15059" lon="7.03691">
        <ele>195.3</ele>
        <time>2020-06-27T09:25:27Z</time>
      </trkpt>
      <trkpt lat="49.15055" lon="7.03695">
        <ele>195.3</ele>
        <time>2020-06-27T09:25:28Z</time>
      </trkpt>
      <trkpt lat="49.15052" lon="7.03698">
        <ele>195.2</ele>
        <time>2020-06-27T09:25:29Z</time>
      </trkpt>
      <trkpt lat="49.15049" lon="7.037">
        <ele>195.2</ele>
        <time>2020-06-27T09:25:30Z</time>
      </trkpt>
      <trkpt lat="49.15046" lon="7.03703">
        <ele>195.2</ele>
        <time>2020-06-27T09:25:31Z</time>
      </trkpt>
      <trkpt lat="49.15043" lon="7.03706">
        <ele>195.2</ele>
        <time>2020-06-27T09:25:32Z</time>
      </trkpt>
      <trkpt lat="49.15039" lon="7.03708">
        <ele>195.1</ele>
        <time>2020-06-27T09:25:33Z</time>
      </trkpt>
      <trkpt lat="49.15037" lon="7.0371">
        <ele>195.1</ele>
        <time>2020-06-27T09:25:34Z</time>
      </trkpt>
      <trkpt lat="49.15034" lon="7.03712">
        <ele>195.1</ele>
        <time>2020-06-27T09:25:35Z</time>
      </trkpt>
      <trkpt lat="49.1503" lon="7.03714">
        <ele>195.1</ele>
        <time>2020-06-27T09:25:36Z</time>
      </trkpt>
      <trkpt lat="49.15026" lon="7.03717">
        <ele>195.1</ele>
        <time>2020-06-27T09:25:37Z</time>
      </trkpt>
      <trkpt lat="49.15023" lon="7.0372">
        <ele>195.1</ele>
        <time>2020-06-27T09:25:38Z</time>
      </trkpt>
      <trkpt lat="49.1502" lon="7.03723">
        <ele>195.1</ele>
        <time>2020-06-27T09:25:39Z</time>
      </trkpt>
      <trkpt lat="49.15017" lon="7.03727">
        <ele>195</ele>
        <time>2020-06-27T09:25:40Z</time>
      </trkpt>
      <trkpt lat="49.15014" lon="7.0373">
        <ele>195</ele>
        <time>2020-06-27T09:25:41Z</time>
      </trkpt>
      <trkpt lat="49.15011" lon="7.03735">
        <ele>195</ele>
        <time>2020-06-27T09:25:42Z</time>
      </trkpt>
      <trkpt lat="49.15008" lon="7.03738">
        <ele>195</ele>
        <time>2020-06-27T09:25:43Z</time>
      </trkpt>
      <trkpt lat="49.15005" lon="7.0374">
        <ele>195</ele>
        <time>2020-06-27T09:25:44Z</time>
      </trkpt>
      <trkpt lat="49.15002" lon="7.03744">
        <ele>195</ele>
        <time>2020-06-27T09:25:45Z</time>
      </trkpt>
      <trkpt lat="49.14999" lon="7.03749">
        <ele>194.9</ele>
        <time>2020-06-27T09:25:46Z</time>
      </trkpt>
      <trkpt lat="49.14996" lon="7.03753">
        <ele>194.9</ele>
        <time>2020-06-27T09:25:47Z</time>
      </trkpt>
      <trkpt lat="49.14993" lon="7.03757">
        <ele>194.9</ele>
        <time>2020-06-27T09:25:48Z</time>
      </trkpt>
      <trkpt lat="49.1499" lon="7.03761">
        <ele>194.9</ele>
        <time>2020-06-27T09:25:49Z</time>
      </trkpt>
      <trkpt lat="49.14985" lon="7.03766">
        <ele>194.8</ele>
        <time>2020-06-27T09:25:50Z</time>
      </trkpt>
      <trkpt lat="49.1498" lon="7.03769">
        <ele>194.8</ele>
        <time>2020-06-27T09:25:51Z</time>
      </trkpt>
      <trkpt lat="49.14973" lon="7.03773">
        <ele>194.8</ele>
        <time>2020-06-27T09:25:52Z</time>
      </trkpt>
      <trkpt lat="49.14966" lon="7.03775">
        <ele>194.7</ele>
        <time>2020-06-27T09:25:53Z</time>
      </trkpt>
      <trkpt lat="49.14961" lon="7.03777">
        <ele>194.7</ele>
        <time>2020-06-27T09:25:54Z</time>
      </trkpt>
      <trkpt lat="49.14956" lon="7.03778">
        <ele>194.7</ele>
        <time>2020-06-27T09:25:55Z</time>
      </trkpt>
      <trkpt lat="49.14952" lon="7.03781">
        <ele>194.6</ele>
        <time>2020-06-27T09:25:56Z</time>
      </trkpt>
      <trkpt lat="49.14947" lon="7.03784">
        <ele>194.6</ele>
        <time>2020-06-27T09:25:57Z</time>
      </trkpt>
      <trkpt lat="49.14941" lon="7.03787">
        <ele>194.5</ele>
        <time>2020-06-27T09:25:58Z</time>
      </trkpt>
      <trkpt lat="49.14936" lon="7.0379">
        <ele>194.4</ele>
        <time>2020-06-27T09:25:59Z</time>
      </trkpt>
      <trkpt lat="49.14931" lon="7.03793">
        <ele>194.3</ele>
        <time>2020-06-27T09:26:00Z</time>
      </trkpt>
      <trkpt lat="49.14926" lon="7.03797">
        <ele>194.2</ele>
        <time>2020-06-27T09:26:01Z</time>
      </trkpt>
      <trkpt lat="49.1492" lon="7.03801">
        <ele>194</ele>
        <time>2020-06-27T09:26:02Z</time>
      </trkpt>
      <trkpt lat="49.14914" lon="7.03805">
        <ele>193.8</ele>
        <time>2020-06-27T09:26:03Z</time>
      </trkpt>
      <trkpt lat="49.14908" lon="7.0381">
        <ele>193.6</ele>
        <time>2020-06-27T09:26:04Z</time>
      </trkpt>
      <trkpt lat="49.14902" lon="7.03815">
        <ele>193.5</ele>
        <time>2020-06-27T09:26:05Z</time>
      </trkpt>
      <trkpt lat="49.14896" lon="7.03819">
        <ele>193.4</ele>
        <time>2020-06-27T09:26:06Z</time>
      </trkpt>
      <trkpt lat="49.14892" lon="7.03822">
        <ele>193.4</ele>
        <time>2020-06-27T09:26:07Z</time>
      </trkpt>
      <trkpt lat="49.14887" lon="7.03824">
        <ele>193.4</ele>
        <time>2020-06-27T09:26:08Z</time>
      </trkpt>
      <trkpt lat="49.14882" lon="7.03827">
        <ele>193.4</ele>
        <time>2020-06-27T09:26:09Z</time>
      </trkpt>
      <trkpt lat="49.14877" lon="7.03829">
        <ele>193.4</ele>
        <time>2020-06-27T09:26:10Z</time>
      </trkpt>
      <trkpt lat="49.14871" lon="7.03832">
        <ele>193.4</ele>
        <time>2020-06-27T09:26:11Z</time>
      </trkpt>
      <trkpt lat="49.14866" lon="7.03836">
        <ele>193.4</ele>
        <time>2020-06-27T09:26:12Z</time>
      </trkpt>
      <trkpt lat="49.14861" lon="7.03841">
        <ele>193.4</ele>
        <time>2020-06-27T09:26:13Z</time>
      </trkpt>
      <trkpt lat="49.14857" lon="7.03845">
        <ele>193.4</ele>
        <time>2020-06-27T09:26:14Z</time>
      </trkpt>
      <trkpt lat="49.14854" lon="7.03849">
        <ele>193.4</ele>
        <time>2020-06-27T09:26:15Z</time>
      </trkpt>
      <trkpt lat="49.14851" lon="7.03853">
        <ele>193.4</ele>
        <time>2020-06-27T09:26:16Z</time>
      </trkpt>
      <trkpt lat="49.14848" lon="7.03858">
        <ele>193.4</ele>
        <time>2020-06-27T09:26:17Z</time>
      </trkpt>
      <trkpt lat="49.14845" lon="7.03862">
        <ele>193.4</ele>
        <time>2020-06-27T09:26:18Z</time>
      </trkpt>
      <trkpt lat="49.14841" lon="7.03867">
        <ele>193.4</ele>
        <time>2020-06-27T09:26:19Z</time>
      </trkpt>
      <trkpt lat="49.14837" lon="7.03873">
        <ele>193.4</ele>
        <time>2020-06-27T09:26:20Z</time>
      </trkpt>
      <trkpt lat="49.14834" lon="7.0388">
        <ele>193.3</ele>
        <time>2020-06-27T09:26:21Z</time>
      </trkpt>
      <trkpt lat="49.1483" lon="7.03887">
        <ele>193.2</ele>
        <time>2020-06-27T09:26:22Z</time>
      </trkpt>
      <trkpt lat="49.14825" lon="7.03893">
        <ele>193.1</ele>
        <time>2020-06-27T09:26:23Z</time>
      </trkpt>
      <trkpt lat="49.14823" lon="7.03898">
        <ele>193.1</ele>
        <time>2020-06-27T09:26:24Z</time>
      </trkpt>
      <trkpt lat="49.1482" lon="7.03903">
        <ele>193</ele>
        <time>2020-06-27T09:26:25Z</time>
      </trkpt>
      <trkpt lat="49.14817" lon="7.03908">
        <ele>192.9</ele>
        <time>2020-06-27T09:26:26Z</time>
      </trkpt>
      <trkpt lat="49.14814" lon="7.03913">
        <ele>192.9</ele>
        <time>2020-06-27T09:26:27Z</time>
      </trkpt>
      <trkpt lat="49.14809" lon="7.03918">
        <ele>192.8</ele>
        <time>2020-06-27T09:26:28Z</time>
      </trkpt>
      <trkpt lat="49.14806" lon="7.03923">
        <ele>192.7</ele>
        <time>2020-06-27T09:26:29Z</time>
      </trkpt>
      <trkpt lat="49.14802" lon="7.03928">
        <ele>192.7</ele>
        <time>2020-06-27T09:26:30Z</time>
      </trkpt>
      <trkpt lat="49.14799" lon="7.03933">
        <ele>192.6</ele>
        <time>2020-06-27T09:26:31Z</time>
      </trkpt>
      <trkpt lat="49.14795" lon="7.03938">
        <ele>192.6</ele>
        <time>2020-06-27T09:26:32Z</time>
      </trkpt>
      <trkpt lat="49.14791" lon="7.03943">
        <ele>192.5</ele>
        <time>2020-06-27T09:26:33Z</time>
      </trkpt>
      <trkpt lat="49.14787" lon="7.03949">
        <ele>192.5</ele>
        <time>2020-06-27T09:26:34Z</time>
      </trkpt>
      <trkpt lat="49.14782" lon="7.03954">
        <ele>192.4</ele>
        <time>2020-06-27T09:26:35Z</time>
      </trkpt>
      <trkpt lat="49.14777" lon="7.03961">
        <ele>192.4</ele>
        <time>2020-06-27T09:26:36Z</time>
      </trkpt>
      <trkpt lat="49.14773" lon="7.03968">
        <ele>192.4</ele>
        <time>2020-06-27T09:26:37Z</time>
      </trkpt>
      <trkpt lat="49.14768" lon="7.03975">
        <ele>192.3</ele>
        <time>2020-06-27T09:26:38Z</time>
      </trkpt>
      <trkpt lat="49.14764" lon="7.03982">
        <ele>192.3</ele>
        <time>2020-06-27T09:26:39Z</time>
      </trkpt>
      <trkpt lat="49.14759" lon="7.03989">
        <ele>192.3</ele>
        <time>2020-06-27T09:26:40Z</time>
      </trkpt>
      <trkpt lat="49.14756" lon="7.03996">
        <ele>192.2</ele>
        <time>2020-06-27T09:26:41Z</time>
      </trkpt>
      <trkpt lat="49.14752" lon="7.04003">
        <ele>192.1</ele>
        <time>2020-06-27T09:26:42Z</time>
      </trkpt>
      <trkpt lat="49.14748" lon="7.0401">
        <ele>192.1</ele>
        <time>2020-06-27T09:26:43Z</time>
      </trkpt>
      <trkpt lat="49.14744" lon="7.04016">
        <ele>192</ele>
        <time>2020-06-27T09:26:44Z</time>
      </trkpt>
      <trkpt lat="49.1474" lon="7.04021">
        <ele>192</ele>
        <time>2020-06-27T09:26:45Z</time>
      </trkpt>
      <trkpt lat="49.14735" lon="7.04028">
        <ele>192</ele>
        <time>2020-06-27T09:26:46Z</time>
      </trkpt>
      <trkpt lat="49.14732" lon="7.04034">
        <ele>192</ele>
        <time>2020-06-27T09:26:47Z</time>
      </trkpt>
      <trkpt lat="49.14727" lon="7.04041">
        <ele>191.9</ele>
        <time>2020-06-27T09:26:48Z</time>
      </trkpt>
      <trkpt lat="49.14721" lon="7.04051">
        <ele>191.9</ele>
        <time>2020-06-27T09:26:49Z</time>
      </trkpt>
      <trkpt lat="49.14715" lon="7.04059">
        <ele>191.9</ele>
        <time>2020-06-27T09:26:50Z</time>
      </trkpt>
      <trkpt lat="49.14709" lon="7.04065">
        <ele>191.9</ele>
        <time>2020-06-27T09:26:51Z</time>
      </trkpt>
      <trkpt lat="49.14704" lon="7.04071">
        <ele>191.9</ele>
        <time>2020-06-27T09:26:52Z</time>
      </trkpt>
      <trkpt lat="49.14699" lon="7.04077">
        <ele>191.9</ele>
        <time>2020-06-27T09:26:53Z</time>
      </trkpt>
      <trkpt lat="49.14694" lon="7.04083">
        <ele>191.9</ele>
        <time>2020-06-27T09:26:54Z</time>
      </trkpt>
      <trkpt lat="49.14689" lon="7.04089">
        <ele>191.9</ele>
        <time>2020-06-27T09:26:55Z</time>
      </trkpt>
      <trkpt lat="49.14684" lon="7.04094">
        <ele>191.9</ele>
        <time>2020-06-27T09:26:56Z</time>
      </trkpt>
      <trkpt lat="49.14679" lon="7.04099">
        <ele>191.9</ele>
        <time>2020-06-27T09:26:57Z</time>
      </trkpt>
      <trkpt lat="49.14674" lon="7.04105">
        <ele>192</ele>
        <time>2020-06-27T09:26:58Z</time>
      </trkpt>
      <trkpt lat="49.14668" lon="7.0411">
        <ele>192</ele>
        <time>2020-06-27T09:26:59Z</time>
      </trkpt>
      <trkpt lat="49.14663" lon="7.04115">
        <ele>192</ele>
        <time>2020-06-27T09:27:00Z</time>
      </trkpt>
      <trkpt lat="49.14658" lon="7.04119">
        <ele>192.1</ele>
        <time>2020-06-27T09:27:01Z</time>
      </trkpt>
      <trkpt lat="49.14652" lon="7.04123">
        <ele>192.2</ele>
        <time>2020-06-27T09:27:02Z</time>
      </trkpt>
      <trkpt lat="49.14647" lon="7.04126">
        <ele>192.3</ele>
        <time>2020-06-27T09:27:03Z</time>
      </trkpt>
      <trkpt lat="49.14642" lon="7.0413">
        <ele>192.3</ele>
        <time>2020-06-27T09:27:04Z</time>
      </trkpt>
      <trkpt lat="49.14637" lon="7.04135">
        <ele>192.4</ele>
        <time>2020-06-27T09:27:05Z</time>
      </trkpt>
      <trkpt lat="49.14632" lon="7.04139">
        <ele>192.4</ele>
        <time>2020-06-27T09:27:06Z</time>
      </trkpt>
      <trkpt lat="49.14627" lon="7.04143">
        <ele>192.4</ele>
        <time>2020-06-27T09:27:07Z</time>
      </trkpt>
      <trkpt lat="49.14622" lon="7.04146">
        <ele>192.4</ele>
        <time>2020-06-27T09:27:08Z</time>
      </trkpt>
      <trkpt lat="49.14616" lon="7.0415">
        <ele>192.4</ele>
        <time>2020-06-27T09:27:09Z</time>
      </trkpt>
      <trkpt lat="49.14611" lon="7.04152">
        <ele>192.4</ele>
        <time>2020-06-27T09:27:10Z</time>
      </trkpt>
      <trkpt lat="49.14606" lon="7.04154">
        <ele>192.4</ele>
        <time>2020-06-27T09:27:11Z</time>
      </trkpt>
      <trkpt lat="49.14601" lon="7.04157">
        <ele>192.4</ele>
        <time>2020-06-27T09:27:12Z</time>
      </trkpt>
      <trkpt lat="49.14596" lon="7.0416">
        <ele>192.4</ele>
        <time>2020-06-27T09:27:13Z</time>
      </trkpt>
      <trkpt lat="49.14591" lon="7.04163">
        <ele>192.4</ele>
        <time>2020-06-27T09:27:14Z</time>
      </trkpt>
      <trkpt lat="49.14585" lon="7.04165">
        <ele>192.4</ele>
        <time>2020-06-27T09:27:15Z</time>
      </trkpt>
      <trkpt lat="49.1458" lon="7.04168">
        <ele>192.4</ele>
        <time>2020-06-27T09:27:16Z</time>
      </trkpt>
      <trkpt lat="49.14574" lon="7.0417">
        <ele>192.3</ele>
        <time>2020-06-27T09:27:17Z</time>
      </trkpt>
      <trkpt lat="49.14567" lon="7.04172">
        <ele>192.3</ele>
        <time>2020-06-27T09:27:18Z</time>
      </trkpt>
      <trkpt lat="49.14562" lon="7.04174">
        <ele>192.3</ele>
        <time>2020-06-27T09:27:19Z</time>
      </trkpt>
      <trkpt lat="49.14558" lon="7.04176">
        <ele>192.3</ele>
        <time>2020-06-27T09:27:20Z</time>
      </trkpt>
      <trkpt lat="49.14553" lon="7.04178">
        <ele>192.3</ele>
        <time>2020-06-27T09:27:21Z</time>
      </trkpt>
      <trkpt lat="49.14547" lon="7.0418">
        <ele>192.3</ele>
        <time>2020-06-27T09:27:22Z</time>
      </trkpt>
      <trkpt lat="49.14542" lon="7.04183">
        <ele>192.3</ele>
        <time>2020-06-27T09:27:23Z</time>
      </trkpt>
      <trkpt lat="49.14537" lon="7.04186">
        <ele>192.4</ele>
        <time>2020-06-27T09:27:24Z</time>
      </trkpt>
      <trkpt lat="49.14532" lon="7.0419">
        <ele>192.4</ele>
        <time>2020-06-27T09:27:25Z</time>
      </trkpt>
      <trkpt lat="49.14526" lon="7.04193">
        <ele>192.4</ele>
        <time>2020-06-27T09:27:26Z</time>
      </trkpt>
      <trkpt lat="49.14521" lon="7.04196">
        <ele>192.4</ele>
        <time>2020-06-27T09:27:27Z</time>
      </trkpt>
      <trkpt lat="49.14515" lon="7.04198">
        <ele>192.4</ele>
        <time>2020-06-27T09:27:28Z</time>
      </trkpt>
      <trkpt lat="49.14509" lon="7.042">
        <ele>192.4</ele>
        <time>2020-06-27T09:27:29Z</time>
      </trkpt>
      <trkpt lat="49.14504" lon="7.04203">
        <ele>192.4</ele>
        <time>2020-06-27T09:27:30Z</time>
      </trkpt>
      <trkpt lat="49.14498" lon="7.04205">
        <ele>192.3</ele>
        <time>2020-06-27T09:27:31Z</time>
      </trkpt>
      <trkpt lat="49.14493" lon="7.04207">
        <ele>192.3</ele>
        <time>2020-06-27T09:27:32Z</time>
      </trkpt>
      <trkpt lat="49.14487" lon="7.0421">
        <ele>192.3</ele>
        <time>2020-06-27T09:27:33Z</time>
      </trkpt>
      <trkpt lat="49.14481" lon="7.04213">
        <ele>192.4</ele>
        <time>2020-06-27T09:27:34Z</time>
      </trkpt>
      <trkpt lat="49.14477" lon="7.04216">
        <ele>192.4</ele>
        <time>2020-06-27T09:27:35Z</time>
      </trkpt>
      <trkpt lat="49.14473" lon="7.04219">
        <ele>192.4</ele>
        <time>2020-06-27T09:27:36Z</time>
      </trkpt>
      <trkpt lat="49.14468" lon="7.04222">
        <ele>192.5</ele>
        <time>2020-06-27T09:27:37Z</time>
      </trkpt>
      <trkpt lat="49.14463" lon="7.04224">
        <ele>192.5</ele>
        <time>2020-06-27T09:27:38Z</time>
      </trkpt>
      <trkpt lat="49.14458" lon="7.04226">
        <ele>192.5</ele>
        <time>2020-06-27T09:27:39Z</time>
      </trkpt>
      <trkpt lat="49.14453" lon="7.04229">
        <ele>192.5</ele>
        <time>2020-06-27T09:27:40Z</time>
      </trkpt>
      <trkpt lat="49.14448" lon="7.04231">
        <ele>192.5</ele>
        <time>2020-06-27T09:27:41Z</time>
      </trkpt>
      <trkpt lat="49.14444" lon="7.04233">
        <ele>192.5</ele>
        <time>2020-06-27T09:27:42Z</time>
      </trkpt>
      <trkpt lat="49.14439" lon="7.04234">
        <ele>192.5</ele>
        <time>2020-06-27T09:27:43Z</time>
      </trkpt>
      <trkpt lat="49.14434" lon="7.04236">
        <ele>192.5</ele>
        <time>2020-06-27T09:27:44Z</time>
      </trkpt>
      <trkpt lat="49.14429" lon="7.04237">
        <ele>192.5</ele>
        <time>2020-06-27T09:27:45Z</time>
      </trkpt>
      <trkpt lat="49.14424" lon="7.04239">
        <ele>192.5</ele>
        <time>2020-06-27T09:27:46Z</time>
      </trkpt>
      <trkpt lat="49.1442" lon="7.0424">
        <ele>192.5</ele>
        <time>2020-06-27T09:27:47Z</time>
      </trkpt>
      <trkpt lat="49.14416" lon="7.04242">
        <ele>192.5</ele>
        <time>2020-06-27T09:27:48Z</time>
      </trkpt>
      <trkpt lat="49.14411" lon="7.04245">
        <ele>192.5</ele>
        <time>2020-06-27T09:27:49Z</time>
      </trkpt>
      <trkpt lat="49.14405" lon="7.04248">
        <ele>192.5</ele>
        <time>2020-06-27T09:27:50Z</time>
      </trkpt>
      <trkpt lat="49.144" lon="7.04251">
        <ele>192.4</ele>
        <time>2020-06-27T09:27:51Z</time>
      </trkpt>
      <trkpt lat="49.14394" lon="7.04254">
        <ele>192.4</ele>
        <time>2020-06-27T09:27:52Z</time>
      </trkpt>
      <trkpt lat="49.14388" lon="7.04256">
        <ele>192.4</ele>
        <time>2020-06-27T09:27:53Z</time>
      </trkpt>
      <trkpt lat="49.14383" lon="7.04259">
        <ele>192.4</ele>
        <time>2020-06-27T09:27:54Z</time>
      </trkpt>
      <trkpt lat="49.14378" lon="7.04261">
        <ele>192.4</ele>
        <time>2020-06-27T09:27:55Z</time>
      </trkpt>
      <trkpt lat="49.14373" lon="7.04264">
        <ele>192.4</ele>
        <time>2020-06-27T09:27:56Z</time>
      </trkpt>
      <trkpt lat="49.14367" lon="7.04267">
        <ele>192.4</ele>
        <time>2020-06-27T09:27:57Z</time>
      </trkpt>
      <trkpt lat="49.14361" lon="7.0427">
        <ele>192.4</ele>
        <time>2020-06-27T09:27:58Z</time>
      </trkpt>
      <trkpt lat="49.14355" lon="7.04273">
        <ele>192.4</ele>
        <time>2020-06-27T09:27:59Z</time>
      </trkpt>
      <trkpt lat="49.14349" lon="7.04276">
        <ele>192.3</ele>
        <time>2020-06-27T09:28:00Z</time>
      </trkpt>
      <trkpt lat="49.14344" lon="7.04279">
        <ele>192.3</ele>
        <time>2020-06-27T09:28:01Z</time>
      </trkpt>
      <trkpt lat="49.14338" lon="7.04282">
        <ele>192.3</ele>
        <time>2020-06-27T09:28:02Z</time>
      </trkpt>
      <trkpt lat="49.14332" lon="7.04286">
        <ele>192.3</ele>
        <time>2020-06-27T09:28:03Z</time>
      </trkpt>
      <trkpt lat="49.14327" lon="7.04288">
        <ele>192.3</ele>
        <time>2020-06-27T09:28:04Z</time>
      </trkpt>
      <trkpt lat="49.14321" lon="7.0429">
        <ele>192.3</ele>
        <time>2020-06-27T09:28:05Z</time>
      </trkpt>
      <trkpt lat="49.14316" lon="7.04292">
        <ele>192.3</ele>
        <time>2020-06-27T09:28:06Z</time>
      </trkpt>
      <trkpt lat="49.14312" lon="7.04294">
        <ele>192.3</ele>
        <time>2020-06-27T09:28:07Z</time>
      </trkpt>
      <trkpt lat="49.14307" lon="7.04296">
        <ele>192.4</ele>
        <time>2020-06-27T09:28:08Z</time>
      </trkpt>
      <trkpt lat="49.14302" lon="7.04298">
        <ele>192.3</ele>
        <time>2020-06-27T09:28:09Z</time>
      </trkpt>
      <trkpt lat="49.14297" lon="7.04299">
        <ele>192.3</ele>
        <time>2020-06-27T09:28:10Z</time>
      </trkpt>
      <trkpt lat="49.14291" lon="7.04301">
        <ele>192.3</ele>
        <time>2020-06-27T09:28:11Z</time>
      </trkpt>
      <trkpt lat="49.14285" lon="7.04304">
        <ele>192.3</ele>
        <time>2020-06-27T09:28:12Z</time>
      </trkpt>
      <trkpt lat="49.1428" lon="7.04306">
        <ele>192.2</ele>
        <time>2020-06-27T09:28:13Z</time>
      </trkpt>
      <trkpt lat="49.14275" lon="7.04307">
        <ele>192.2</ele>
        <time>2020-06-27T09:28:14Z</time>
      </trkpt>
      <trkpt lat="49.14271" lon="7.04309">
        <ele>192.2</ele>
        <time>2020-06-27T09:28:15Z</time>
      </trkpt>
      <trkpt lat="49.14267" lon="7.0431">
        <ele>192.2</ele>
        <time>2020-06-27T09:28:16Z</time>
      </trkpt>
      <trkpt lat="49.14262" lon="7.04312">
        <ele>192.2</ele>
        <time>2020-06-27T09:28:17Z</time>
      </trkpt>
      <trkpt lat="49.14258" lon="7.04314">
        <ele>192.2</ele>
        <time>2020-06-27T09:28:18Z</time>
      </trkpt>
      <trkpt lat="49.14253" lon="7.04315">
        <ele>192.1</ele>
        <time>2020-06-27T09:28:19Z</time>
      </trkpt>
      <trkpt lat="49.14248" lon="7.04319">
        <ele>192.1</ele>
        <time>2020-06-27T09:28:20Z</time>
      </trkpt>
      <trkpt lat="49.14243" lon="7.04322">
        <ele>192.1</ele>
        <time>2020-06-27T09:28:21Z</time>
      </trkpt>
      <trkpt lat="49.14239" lon="7.04325">
        <ele>192.1</ele>
        <time>2020-06-27T09:28:22Z</time>
      </trkpt>
      <trkpt lat="49.14234" lon="7.04329">
        <ele>192.1</ele>
        <time>2020-06-27T09:28:23Z</time>
      </trkpt>
      <trkpt lat="49.14229" lon="7.04332">
        <ele>192.1</ele>
        <time>2020-06-27T09:28:24Z</time>
      </trkpt>
      <trkpt lat="49.14224" lon="7.04335">
        <ele>192.1</ele>
        <time>2020-06-27T09:28:25Z</time>
      </trkpt>
      <trkpt lat="49.14218" lon="7.04339">
        <ele>192</ele>
        <time>2020-06-27T09:28:26Z</time>
      </trkpt>
      <trkpt lat="49.14212" lon="7.04342">
        <ele>192</ele>
        <time>2020-06-27T09:28:27Z</time>
      </trkpt>
      <trkpt lat="49.14206" lon="7.04346">
        <ele>192</ele>
        <time>2020-06-27T09:28:28Z</time>
      </trkpt>
      <trkpt lat="49.142" lon="7.04349">
        <ele>192.1</ele>
        <time>2020-06-27T09:28:29Z</time>
      </trkpt>
      <trkpt lat="49.14194" lon="7.04352">
        <ele>192.1</ele>
        <time>2020-06-27T09:28:30Z</time>
      </trkpt>
      <trkpt lat="49.14188" lon="7.04356">
        <ele>192.1</ele>
        <time>2020-06-27T09:28:31Z</time>
      </trkpt>
      <trkpt lat="49.14182" lon="7.04361">
        <ele>192.1</ele>
        <time>2020-06-27T09:28:32Z</time>
      </trkpt>
      <trkpt lat="49.14177" lon="7.04364">
        <ele>192</ele>
        <time>2020-06-27T09:28:33Z</time>
      </trkpt>
      <trkpt lat="49.14173" lon="7.04366">
        <ele>192</ele>
        <time>2020-06-27T09:28:34Z</time>
      </trkpt>
      <trkpt lat="49.14168" lon="7.04369">
        <ele>192</ele>
        <time>2020-06-27T09:28:35Z</time>
      </trkpt>
      <trkpt lat="49.14162" lon="7.04372">
        <ele>192</ele>
        <time>2020-06-27T09:28:36Z</time>
      </trkpt>
      <trkpt lat="49.14156" lon="7.04375">
        <ele>192</ele>
        <time>2020-06-27T09:28:37Z</time>
      </trkpt>
      <trkpt lat="49.14151" lon="7.04378">
        <ele>192.1</ele>
        <time>2020-06-27T09:28:38Z</time>
      </trkpt>
      <trkpt lat="49.14145" lon="7.04383">
        <ele>192.1</ele>
        <time>2020-06-27T09:28:39Z</time>
      </trkpt>
      <trkpt lat="49.1414" lon="7.04388">
        <ele>192.1</ele>
        <time>2020-06-27T09:28:40Z</time>
      </trkpt>
      <trkpt lat="49.14135" lon="7.04391">
        <ele>192.1</ele>
        <time>2020-06-27T09:28:41Z</time>
      </trkpt>
      <trkpt lat="49.14129" lon="7.04394">
        <ele>192.1</ele>
        <time>2020-06-27T09:28:42Z</time>
      </trkpt>
      <trkpt lat="49.14123" lon="7.04397">
        <ele>192.1</ele>
        <time>2020-06-27T09:28:43Z</time>
      </trkpt>
      <trkpt lat="49.14117" lon="7.04401">
        <ele>192.1</ele>
        <time>2020-06-27T09:28:44Z</time>
      </trkpt>
      <trkpt lat="49.14111" lon="7.04406">
        <ele>192.1</ele>
        <time>2020-06-27T09:28:45Z</time>
      </trkpt>
      <trkpt lat="49.14105" lon="7.04409">
        <ele>192.1</ele>
        <time>2020-06-27T09:28:46Z</time>
      </trkpt>
      <trkpt lat="49.141" lon="7.04413">
        <ele>192.2</ele>
        <time>2020-06-27T09:28:47Z</time>
      </trkpt>
      <trkpt lat="49.14095" lon="7.04416">
        <ele>192.2</ele>
        <time>2020-06-27T09:28:48Z</time>
      </trkpt>
      <trkpt lat="49.14089" lon="7.04419">
        <ele>192.2</ele>
        <time>2020-06-27T09:28:49Z</time>
      </trkpt>
      <trkpt lat="49.14084" lon="7.04422">
        <ele>192.3</ele>
        <time>2020-06-27T09:28:50Z</time>
      </trkpt>
      <trkpt lat="49.14079" lon="7.04424">
        <ele>192.3</ele>
        <time>2020-06-27T09:28:51Z</time>
      </trkpt>
      <trkpt lat="49.14074" lon="7.04427">
        <ele>192.3</ele>
        <time>2020-06-27T09:28:52Z</time>
      </trkpt>
      <trkpt lat="49.14069" lon="7.04431">
        <ele>192.4</ele>
        <time>2020-06-27T09:28:53Z</time>
      </trkpt>
      <trkpt lat="49.14064" lon="7.04436">
        <ele>192.4</ele>
        <time>2020-06-27T09:28:54Z</time>
      </trkpt>
      <trkpt lat="49.14059" lon="7.0444">
        <ele>192.4</ele>
        <time>2020-06-27T09:28:55Z</time>
      </trkpt>
      <trkpt lat="49.14055" lon="7.04443">
        <ele>192.4</ele>
        <time>2020-06-27T09:28:56Z</time>
      </trkpt>
      <trkpt lat="49.14051" lon="7.04446">
        <ele>192.4</ele>
        <time>2020-06-27T09:28:57Z</time>
      </trkpt>
      <trkpt lat="49.14047" lon="7.0445">
        <ele>192.3</ele>
        <time>2020-06-27T09:28:58Z</time>
      </trkpt>
      <trkpt lat="49.14042" lon="7.04453">
        <ele>192.3</ele>
        <time>2020-06-27T09:28:59Z</time>
      </trkpt>
      <trkpt lat="49.14037" lon="7.04457">
        <ele>192.3</ele>
        <time>2020-06-27T09:29:00Z</time>
      </trkpt>
      <trkpt lat="49.14032" lon="7.04462">
        <ele>192.3</ele>
        <time>2020-06-27T09:29:01Z</time>
      </trkpt>
      <trkpt lat="49.14024" lon="7.04465">
        <ele>192.3</ele>
        <time>2020-06-27T09:29:02Z</time>
      </trkpt>
      <trkpt lat="49.14018" lon="7.04467">
        <ele>192.3</ele>
        <time>2020-06-27T09:29:03Z</time>
      </trkpt>
      <trkpt lat="49.14012" lon="7.04471">
        <ele>192.3</ele>
        <time>2020-06-27T09:29:04Z</time>
      </trkpt>
      <trkpt lat="49.14007" lon="7.04474">
        <ele>192.3</ele>
        <time>2020-06-27T09:29:05Z</time>
      </trkpt>
      <trkpt lat="49.14001" lon="7.04476">
        <ele>192.3</ele>
        <time>2020-06-27T09:29:06Z</time>
      </trkpt>
      <trkpt lat="49.13996" lon="7.0448">
        <ele>192.3</ele>
        <time>2020-06-27T09:29:07Z</time>
      </trkpt>
      <trkpt lat="49.13991" lon="7.04484">
        <ele>192.3</ele>
        <time>2020-06-27T09:29:08Z</time>
      </trkpt>
      <trkpt lat="49.13987" lon="7.04488">
        <ele>192.3</ele>
        <time>2020-06-27T09:29:09Z</time>
      </trkpt>
      <trkpt lat="49.13982" lon="7.04493">
        <ele>192.3</ele>
        <time>2020-06-27T09:29:10Z</time>
      </trkpt>
      <trkpt lat="49.13978" lon="7.04497">
        <ele>192.4</ele>
        <time>2020-06-27T09:29:11Z</time>
      </trkpt>
      <trkpt lat="49.13974" lon="7.04501">
        <ele>192.4</ele>
        <time>2020-06-27T09:29:12Z</time>
      </trkpt>
      <trkpt lat="49.13968" lon="7.04501">
        <ele>192.4</ele>
        <time>2020-06-27T09:29:13Z</time>
      </trkpt>
      <trkpt lat="49.13964" lon="7.04503">
        <ele>192.4</ele>
        <time>2020-06-27T09:29:14Z</time>
      </trkpt>
      <trkpt lat="49.13959" lon="7.04506">
        <ele>192.4</ele>
        <time>2020-06-27T09:29:15Z</time>
      </trkpt>
      <trkpt lat="49.13954" lon="7.04508">
        <ele>192.4</ele>
        <time>2020-06-27T09:29:16Z</time>
      </trkpt>
      <trkpt lat="49.13949" lon="7.0451">
        <ele>192.4</ele>
        <time>2020-06-27T09:29:17Z</time>
      </trkpt>
      <trkpt lat="49.13944" lon="7.04513">
        <ele>192.4</ele>
        <time>2020-06-27T09:29:18Z</time>
      </trkpt>
      <trkpt lat="49.13939" lon="7.04516">
        <ele>192.4</ele>
        <time>2020-06-27T09:29:19Z</time>
      </trkpt>
      <trkpt lat="49.13934" lon="7.04518">
        <ele>192.4</ele>
        <time>2020-06-27T09:29:20Z</time>
      </trkpt>
      <trkpt lat="49.13928" lon="7.0452">
        <ele>192.4</ele>
        <time>2020-06-27T09:29:21Z</time>
      </trkpt>
      <trkpt lat="49.13923" lon="7.04522">
        <ele>192.4</ele>
        <time>2020-06-27T09:29:22Z</time>
      </trkpt>
      <trkpt lat="49.13919" lon="7.04526">
        <ele>192.5</ele>
        <time>2020-06-27T09:29:23Z</time>
      </trkpt>
      <trkpt lat="49.13914" lon="7.04529">
        <ele>192.5</ele>
        <time>2020-06-27T09:29:24Z</time>
      </trkpt>
      <trkpt lat="49.1391" lon="7.04531">
        <ele>192.5</ele>
        <time>2020-06-27T09:29:25Z</time>
      </trkpt>
      <trkpt lat="49.13906" lon="7.04535">
        <ele>192.5</ele>
        <time>2020-06-27T09:29:26Z</time>
      </trkpt>
      <trkpt lat="49.13902" lon="7.04536">
        <ele>192.6</ele>
        <time>2020-06-27T09:29:27Z</time>
      </trkpt>
      <trkpt lat="49.13898" lon="7.04539">
        <ele>192.6</ele>
        <time>2020-06-27T09:29:28Z</time>
      </trkpt>
      <trkpt lat="49.13895" lon="7.04542">
        <ele>192.6</ele>
        <time>2020-06-27T09:29:29Z</time>
      </trkpt>
      <trkpt lat="49.1389" lon="7.04546">
        <ele>192.6</ele>
        <time>2020-06-27T09:29:30Z</time>
      </trkpt>
      <trkpt lat="49.13885" lon="7.04551">
        <ele>192.7</ele>
        <time>2020-06-27T09:29:31Z</time>
      </trkpt>
      <trkpt lat="49.13881" lon="7.04556">
        <ele>192.7</ele>
        <time>2020-06-27T09:29:32Z</time>
      </trkpt>
      <trkpt lat="49.13876" lon="7.04561">
        <ele>192.7</ele>
        <time>2020-06-27T09:29:33Z</time>
      </trkpt>
      <trkpt lat="49.13872" lon="7.04565">
        <ele>192.7</ele>
        <time>2020-06-27T09:29:34Z</time>
      </trkpt>
      <trkpt lat="49.13868" lon="7.0457">
        <ele>192.7</ele>
        <time>2020-06-27T09:29:35Z</time>
      </trkpt>
      <trkpt lat="49.13863" lon="7.04571">
        <ele>192.7</ele>
        <time>2020-06-27T09:29:36Z</time>
      </trkpt>
      <trkpt lat="49.13858" lon="7.04573">
        <ele>192.7</ele>
        <time>2020-06-27T09:29:37Z</time>
      </trkpt>
      <trkpt lat="49.13852" lon="7.04575">
        <ele>192.7</ele>
        <time>2020-06-27T09:29:38Z</time>
      </trkpt>
      <trkpt lat="49.13845" lon="7.04576">
        <ele>192.7</ele>
        <time>2020-06-27T09:29:39Z</time>
      </trkpt>
      <trkpt lat="49.1384" lon="7.04578">
        <ele>192.7</ele>
        <time>2020-06-27T09:29:40Z</time>
      </trkpt>
      <trkpt lat="49.13834" lon="7.0458">
        <ele>192.7</ele>
        <time>2020-06-27T09:29:41Z</time>
      </trkpt>
      <trkpt lat="49.13829" lon="7.04583">
        <ele>192.7</ele>
        <time>2020-06-27T09:29:42Z</time>
      </trkpt>
      <trkpt lat="49.13823" lon="7.04586">
        <ele>192.7</ele>
        <time>2020-06-27T09:29:43Z</time>
      </trkpt>
      <trkpt lat="49.13817" lon="7.04589">
        <ele>192.7</ele>
        <time>2020-06-27T09:29:44Z</time>
      </trkpt>
      <trkpt lat="49.13811" lon="7.04591">
        <ele>192.7</ele>
        <time>2020-06-27T09:29:45Z</time>
      </trkpt>
      <trkpt lat="49.13804" lon="7.04594">
        <ele>192.7</ele>
        <time>2020-06-27T09:29:46Z</time>
      </trkpt>
      <trkpt lat="49.13798" lon="7.04596">
        <ele>192.7</ele>
        <time>2020-06-27T09:29:47Z</time>
      </trkpt>
      <trkpt lat="49.13791" lon="7.04599">
        <ele>192.7</ele>
        <time>2020-06-27T09:29:48Z</time>
      </trkpt>
      <trkpt lat="49.13783" lon="7.04602">
        <ele>192.7</ele>
        <time>2020-06-27T09:29:49Z</time>
      </trkpt>
      <trkpt lat="49.13776" lon="7.04604">
        <ele>192.8</ele>
        <time>2020-06-27T09:29:50Z</time>
      </trkpt>
      <trkpt lat="49.1377" lon="7.04606">
        <ele>192.8</ele>
        <time>2020-06-27T09:29:51Z</time>
      </trkpt>
      <trkpt lat="49.13763" lon="7.04609">
        <ele>192.8</ele>
        <time>2020-06-27T09:29:52Z</time>
      </trkpt>
      <trkpt lat="49.13756" lon="7.04611">
        <ele>192.8</ele>
        <time>2020-06-27T09:29:53Z</time>
      </trkpt>
      <trkpt lat="49.1375" lon="7.04614">
        <ele>192.8</ele>
        <time>2020-06-27T09:29:54Z</time>
      </trkpt>
      <trkpt lat="49.13743" lon="7.04617">
        <ele>192.8</ele>
        <time>2020-06-27T09:29:55Z</time>
      </trkpt>
      <trkpt lat="49.13737" lon="7.0462">
        <ele>192.9</ele>
        <time>2020-06-27T09:29:56Z</time>
      </trkpt>
      <trkpt lat="49.13731" lon="7.04623">
        <ele>192.9</ele>
        <time>2020-06-27T09:29:57Z</time>
      </trkpt>
      <trkpt lat="49.13724" lon="7.04626">
        <ele>192.9</ele>
        <time>2020-06-27T09:29:58Z</time>
      </trkpt>
      <trkpt lat="49.13717" lon="7.04629">
        <ele>193</ele>
        <time>2020-06-27T09:29:59Z</time>
      </trkpt>
      <trkpt lat="49.13711" lon="7.04632">
        <ele>193</ele>
        <time>2020-06-27T09:30:00Z</time>
      </trkpt>
      <trkpt lat="49.13704" lon="7.04635">
        <ele>193</ele>
        <time>2020-06-27T09:30:01Z</time>
      </trkpt>
      <trkpt lat="49.13697" lon="7.04638">
        <ele>193</ele>
        <time>2020-06-27T09:30:02Z</time>
      </trkpt>
      <trkpt lat="49.13691" lon="7.0464">
        <ele>193</ele>
        <time>2020-06-27T09:30:03Z</time>
      </trkpt>
      <trkpt lat="49.13684" lon="7.04643">
        <ele>193</ele>
        <time>2020-06-27T09:30:04Z</time>
      </trkpt>
      <trkpt lat="49.13677" lon="7.04645">
        <ele>193</ele>
        <time>2020-06-27T09:30:05Z</time>
      </trkpt>
      <trkpt lat="49.1367" lon="7.04647">
        <ele>193.1</ele>
        <time>2020-06-27T09:30:06Z</time>
      </trkpt>
      <trkpt lat="49.13663" lon="7.04649">
        <ele>193.1</ele>
        <time>2020-06-27T09:30:07Z</time>
      </trkpt>
      <trkpt lat="49.13656" lon="7.04651">
        <ele>193.1</ele>
        <time>2020-06-27T09:30:08Z</time>
      </trkpt>
      <trkpt lat="49.13649" lon="7.04652">
        <ele>193.2</ele>
        <time>2020-06-27T09:30:09Z</time>
      </trkpt>
      <trkpt lat="49.13643" lon="7.04653">
        <ele>193.2</ele>
        <time>2020-06-27T09:30:10Z</time>
      </trkpt>
      <trkpt lat="49.13636" lon="7.04654">
        <ele>193.2</ele>
        <time>2020-06-27T09:30:11Z</time>
      </trkpt>
      <trkpt lat="49.13629" lon="7.04655">
        <ele>193.2</ele>
        <time>2020-06-27T09:30:12Z</time>
      </trkpt>
      <trkpt lat="49.13622" lon="7.04655">
        <ele>193.2</ele>
        <time>2020-06-27T09:30:13Z</time>
      </trkpt>
      <trkpt lat="49.13615" lon="7.04655">
        <ele>193.2</ele>
        <time>2020-06-27T09:30:14Z</time>
      </trkpt>
      <trkpt lat="49.13609" lon="7.04655">
        <ele>193.2</ele>
        <time>2020-06-27T09:30:15Z</time>
      </trkpt>
      <trkpt lat="49.13602" lon="7.04657">
        <ele>193.2</ele>
        <time>2020-06-27T09:30:16Z</time>
      </trkpt>
      <trkpt lat="49.13595" lon="7.04656">
        <ele>193.2</ele>
        <time>2020-06-27T09:30:17Z</time>
      </trkpt>
      <trkpt lat="49.13588" lon="7.04655">
        <ele>193.2</ele>
        <time>2020-06-27T09:30:18Z</time>
      </trkpt>
      <trkpt lat="49.1358" lon="7.04655">
        <ele>193.2</ele>
        <time>2020-06-27T09:30:19Z</time>
      </trkpt>
      <trkpt lat="49.13573" lon="7.04655">
        <ele>193.2</ele>
        <time>2020-06-27T09:30:20Z</time>
      </trkpt>
      <trkpt lat="49.13566" lon="7.04654">
        <ele>193.2</ele>
        <time>2020-06-27T09:30:21Z</time>
      </trkpt>
      <trkpt lat="49.13559" lon="7.04654">
        <ele>193.2</ele>
        <time>2020-06-27T09:30:22Z</time>
      </trkpt>
      <trkpt lat="49.13552" lon="7.04653">
        <ele>193.1</ele>
        <time>2020-06-27T09:30:23Z</time>
      </trkpt>
      <trkpt lat="49.13544" lon="7.04654">
        <ele>193.1</ele>
        <time>2020-06-27T09:30:24Z</time>
      </trkpt>
      <trkpt lat="49.13537" lon="7.04654">
        <ele>193.1</ele>
        <time>2020-06-27T09:30:25Z</time>
      </trkpt>
      <trkpt lat="49.1353" lon="7.04653">
        <ele>193.1</ele>
        <time>2020-06-27T09:30:26Z</time>
      </trkpt>
      <trkpt lat="49.13522" lon="7.04652">
        <ele>193.2</ele>
        <time>2020-06-27T09:30:27Z</time>
      </trkpt>
      <trkpt lat="49.13515" lon="7.04651">
        <ele>193.2</ele>
        <time>2020-06-27T09:30:28Z</time>
      </trkpt>
      <trkpt lat="49.13508" lon="7.04651">
        <ele>193.2</ele>
        <time>2020-06-27T09:30:29Z</time>
      </trkpt>
      <trkpt lat="49.13501" lon="7.0465">
        <ele>193.2</ele>
        <time>2020-06-27T09:30:30Z</time>
      </trkpt>
      <trkpt lat="49.13494" lon="7.04649">
        <ele>193.2</ele>
        <time>2020-06-27T09:30:31Z</time>
      </trkpt>
      <trkpt lat="49.13487" lon="7.04647">
        <ele>193.1</ele>
        <time>2020-06-27T09:30:32Z</time>
      </trkpt>
      <trkpt lat="49.1348" lon="7.04645">
        <ele>193.1</ele>
        <time>2020-06-27T09:30:33Z</time>
      </trkpt>
      <trkpt lat="49.13473" lon="7.04641">
        <ele>193</ele>
        <time>2020-06-27T09:30:34Z</time>
      </trkpt>
      <trkpt lat="49.13467" lon="7.04637">
        <ele>193</ele>
        <time>2020-06-27T09:30:35Z</time>
      </trkpt>
      <trkpt lat="49.1346" lon="7.04633">
        <ele>192.9</ele>
        <time>2020-06-27T09:30:36Z</time>
      </trkpt>
      <trkpt lat="49.13454" lon="7.04629">
        <ele>192.9</ele>
        <time>2020-06-27T09:30:37Z</time>
      </trkpt>
      <trkpt lat="49.13448" lon="7.04626">
        <ele>192.9</ele>
        <time>2020-06-27T09:30:38Z</time>
      </trkpt>
      <trkpt lat="49.13442" lon="7.04622">
        <ele>192.9</ele>
        <time>2020-06-27T09:30:39Z</time>
      </trkpt>
      <trkpt lat="49.13437" lon="7.04619">
        <ele>192.9</ele>
        <time>2020-06-27T09:30:40Z</time>
      </trkpt>
      <trkpt lat="49.13431" lon="7.04615">
        <ele>192.9</ele>
        <time>2020-06-27T09:30:41Z</time>
      </trkpt>
      <trkpt lat="49.13426" lon="7.04612">
        <ele>192.9</ele>
        <time>2020-06-27T09:30:42Z</time>
      </trkpt>
      <trkpt lat="49.1342" lon="7.04608">
        <ele>192.9</ele>
        <time>2020-06-27T09:30:43Z</time>
      </trkpt>
      <trkpt lat="49.13415" lon="7.04606">
        <ele>193</ele>
        <time>2020-06-27T09:30:44Z</time>
      </trkpt>
      <trkpt lat="49.13409" lon="7.04604">
        <ele>193</ele>
        <time>2020-06-27T09:30:45Z</time>
      </trkpt>
      <trkpt lat="49.13404" lon="7.04602">
        <ele>193.1</ele>
        <time>2020-06-27T09:30:46Z</time>
      </trkpt>
      <trkpt lat="49.13398" lon="7.04599">
        <ele>193.2</ele>
        <time>2020-06-27T09:30:47Z</time>
      </trkpt>
      <trkpt lat="49.13393" lon="7.04596">
        <ele>193.1</ele>
        <time>2020-06-27T09:30:48Z</time>
      </trkpt>
      <trkpt lat="49.13387" lon="7.04594">
        <ele>193</ele>
        <time>2020-06-27T09:30:49Z</time>
      </trkpt>
      <trkpt lat="49.13382" lon="7.04591">
        <ele>193</ele>
        <time>2020-06-27T09:30:50Z</time>
      </trkpt>
      <trkpt lat="49.13376" lon="7.04588">
        <ele>193</ele>
        <time>2020-06-27T09:30:51Z</time>
      </trkpt>
      <trkpt lat="49.1337" lon="7.04586">
        <ele>193</ele>
        <time>2020-06-27T09:30:52Z</time>
      </trkpt>
      <trkpt lat="49.13364" lon="7.04583">
        <ele>193</ele>
        <time>2020-06-27T09:30:53Z</time>
      </trkpt>
      <trkpt lat="49.13358" lon="7.04582">
        <ele>193</ele>
        <time>2020-06-27T09:30:54Z</time>
      </trkpt>
      <trkpt lat="49.13352" lon="7.0458">
        <ele>193</ele>
        <time>2020-06-27T09:30:55Z</time>
      </trkpt>
      <trkpt lat="49.13347" lon="7.04578">
        <ele>193</ele>
        <time>2020-06-27T09:30:56Z</time>
      </trkpt>
      <trkpt lat="49.13341" lon="7.04575">
        <ele>193</ele>
        <time>2020-06-27T09:30:57Z</time>
      </trkpt>
      <trkpt lat="49.13336" lon="7.04573">
        <ele>193</ele>
        <time>2020-06-27T09:30:58Z</time>
      </trkpt>
      <trkpt lat="49.1333" lon="7.04571">
        <ele>192.9</ele>
        <time>2020-06-27T09:30:59Z</time>
      </trkpt>
      <trkpt lat="49.13324" lon="7.04568">
        <ele>192.9</ele>
        <time>2020-06-27T09:31:00Z</time>
      </trkpt>
      <trkpt lat="49.13319" lon="7.04566">
        <ele>192.9</ele>
        <time>2020-06-27T09:31:01Z</time>
      </trkpt>
      <trkpt lat="49.13313" lon="7.04562">
        <ele>192.9</ele>
        <time>2020-06-27T09:31:02Z</time>
      </trkpt>
      <trkpt lat="49.13308" lon="7.04558">
        <ele>193</ele>
        <time>2020-06-27T09:31:03Z</time>
      </trkpt>
      <trkpt lat="49.13302" lon="7.04555">
        <ele>193</ele>
        <time>2020-06-27T09:31:04Z</time>
      </trkpt>
      <trkpt lat="49.13296" lon="7.04552">
        <ele>193</ele>
        <time>2020-06-27T09:31:05Z</time>
      </trkpt>
      <trkpt lat="49.13289" lon="7.0455">
        <ele>193.1</ele>
        <time>2020-06-27T09:31:06Z</time>
      </trkpt>
      <trkpt lat="49.13283" lon="7.04546">
        <ele>193.1</ele>
        <time>2020-06-27T09:31:07Z</time>
      </trkpt>
      <trkpt lat="49.13277" lon="7.04543">
        <ele>193.1</ele>
        <time>2020-06-27T09:31:08Z</time>
      </trkpt>
      <trkpt lat="49.13271" lon="7.0454">
        <ele>193.1</ele>
        <time>2020-06-27T09:31:09Z</time>
      </trkpt>
      <trkpt lat="49.13266" lon="7.04538">
        <ele>193.1</ele>
        <time>2020-06-27T09:31:10Z</time>
      </trkpt>
      <trkpt lat="49.1326" lon="7.04536">
        <ele>193.1</ele>
        <time>2020-06-27T09:31:11Z</time>
      </trkpt>
      <trkpt lat="49.13254" lon="7.04535">
        <ele>193.1</ele>
        <time>2020-06-27T09:31:12Z</time>
      </trkpt>
      <trkpt lat="49.13248" lon="7.04532">
        <ele>193.1</ele>
        <time>2020-06-27T09:31:13Z</time>
      </trkpt>
      <trkpt lat="49.13241" lon="7.0453">
        <ele>193.1</ele>
        <time>2020-06-27T09:31:14Z</time>
      </trkpt>
      <trkpt lat="49.13236" lon="7.04527">
        <ele>193.1</ele>
        <time>2020-06-27T09:31:15Z</time>
      </trkpt>
      <trkpt lat="49.1323" lon="7.04525">
        <ele>193.1</ele>
        <time>2020-06-27T09:31:16Z</time>
      </trkpt>
      <trkpt lat="49.13224" lon="7.04525">
        <ele>193.2</ele>
        <time>2020-06-27T09:31:17Z</time>
      </trkpt>
      <trkpt lat="49.13218" lon="7.04524">
        <ele>193.2</ele>
        <time>2020-06-27T09:31:18Z</time>
      </trkpt>
      <trkpt lat="49.13212" lon="7.04523">
        <ele>193.2</ele>
        <time>2020-06-27T09:31:19Z</time>
      </trkpt>
      <trkpt lat="49.13207" lon="7.04521">
        <ele>193.1</ele>
        <time>2020-06-27T09:31:20Z</time>
      </trkpt>
      <trkpt lat="49.13201" lon="7.04521">
        <ele>193.1</ele>
        <time>2020-06-27T09:31:21Z</time>
      </trkpt>
      <trkpt lat="49.13195" lon="7.0452">
        <ele>193.1</ele>
        <time>2020-06-27T09:31:22Z</time>
      </trkpt>
      <trkpt lat="49.1319" lon="7.04521">
        <ele>193</ele>
        <time>2020-06-27T09:31:23Z</time>
      </trkpt>
      <trkpt lat="49.13184" lon="7.04522">
        <ele>193</ele>
        <time>2020-06-27T09:31:24Z</time>
      </trkpt>
      <trkpt lat="49.13178" lon="7.04522">
        <ele>193</ele>
        <time>2020-06-27T09:31:25Z</time>
      </trkpt>
      <trkpt lat="49.13172" lon="7.04522">
        <ele>192.9</ele>
        <time>2020-06-27T09:31:26Z</time>
      </trkpt>
      <trkpt lat="49.13167" lon="7.04522">
        <ele>192.9</ele>
        <time>2020-06-27T09:31:27Z</time>
      </trkpt>
      <trkpt lat="49.13161" lon="7.04522">
        <ele>192.9</ele>
        <time>2020-06-27T09:31:28Z</time>
      </trkpt>
      <trkpt lat="49.13154" lon="7.04521">
        <ele>192.9</ele>
        <time>2020-06-27T09:31:29Z</time>
      </trkpt>
      <trkpt lat="49.13148" lon="7.04522">
        <ele>193</ele>
        <time>2020-06-27T09:31:30Z</time>
      </trkpt>
      <trkpt lat="49.13142" lon="7.04522">
        <ele>193</ele>
        <time>2020-06-27T09:31:31Z</time>
      </trkpt>
      <trkpt lat="49.13136" lon="7.04522">
        <ele>193</ele>
        <time>2020-06-27T09:31:32Z</time>
      </trkpt>
      <trkpt lat="49.1313" lon="7.04522">
        <ele>193</ele>
        <time>2020-06-27T09:31:33Z</time>
      </trkpt>
      <trkpt lat="49.13124" lon="7.04524">
        <ele>193</ele>
        <time>2020-06-27T09:31:34Z</time>
      </trkpt>
      <trkpt lat="49.13119" lon="7.04523">
        <ele>193</ele>
        <time>2020-06-27T09:31:35Z</time>
      </trkpt>
      <trkpt lat="49.13113" lon="7.04521">
        <ele>193</ele>
        <time>2020-06-27T09:31:36Z</time>
      </trkpt>
      <trkpt lat="49.13108" lon="7.04521">
        <ele>193</ele>
        <time>2020-06-27T09:31:37Z</time>
      </trkpt>
      <trkpt lat="49.13103" lon="7.04522">
        <ele>193</ele>
        <time>2020-06-27T09:31:38Z</time>
      </trkpt>
      <trkpt lat="49.13097" lon="7.04522">
        <ele>193</ele>
        <time>2020-06-27T09:31:39Z</time>
      </trkpt>
      <trkpt lat="49.13092" lon="7.04523">
        <ele>193</ele>
        <time>2020-06-27T09:31:40Z</time>
      </trkpt>
      <trkpt lat="49.13086" lon="7.04524">
        <ele>193</ele>
        <time>2020-06-27T09:31:41Z</time>
      </trkpt>
      <trkpt lat="49.1308" lon="7.04526">
        <ele>193</ele>
        <time>2020-06-27T09:31:42Z</time>
      </trkpt>
      <trkpt lat="49.13074" lon="7.04527">
        <ele>193</ele>
        <time>2020-06-27T09:31:43Z</time>
      </trkpt>
      <trkpt lat="49.13069" lon="7.04527">
        <ele>193</ele>
        <time>2020-06-27T09:31:44Z</time>
      </trkpt>
      <trkpt lat="49.13063" lon="7.04527">
        <ele>193</ele>
        <time>2020-06-27T09:31:45Z</time>
      </trkpt>
      <trkpt lat="49.13057" lon="7.04525">
        <ele>192.9</ele>
        <time>2020-06-27T09:31:46Z</time>
      </trkpt>
      <trkpt lat="49.13052" lon="7.04526">
        <ele>192.9</ele>
        <time>2020-06-27T09:31:47Z</time>
      </trkpt>
      <trkpt lat="49.13046" lon="7.04525">
        <ele>192.9</ele>
        <time>2020-06-27T09:31:48Z</time>
      </trkpt>
      <trkpt lat="49.1304" lon="7.04525">
        <ele>192.9</ele>
        <time>2020-06-27T09:31:49Z</time>
      </trkpt>
      <trkpt lat="49.13035" lon="7.04526">
        <ele>192.9</ele>
        <time>2020-06-27T09:31:50Z</time>
      </trkpt>
      <trkpt lat="49.13029" lon="7.04526">
        <ele>192.9</ele>
        <time>2020-06-27T09:31:51Z</time>
      </trkpt>
      <trkpt lat="49.13023" lon="7.04526">
        <ele>192.9</ele>
        <time>2020-06-27T09:31:52Z</time>
      </trkpt>
      <trkpt lat="49.13018" lon="7.04525">
        <ele>192.8</ele>
        <time>2020-06-27T09:31:53Z</time>
      </trkpt>
      <trkpt lat="49.13012" lon="7.04524">
        <ele>192.8</ele>
        <time>2020-06-27T09:31:54Z</time>
      </trkpt>
      <trkpt lat="49.13007" lon="7.04524">
        <ele>192.8</ele>
        <time>2020-06-27T09:31:55Z</time>
      </trkpt>
      <trkpt lat="49.13002" lon="7.04523">
        <ele>192.8</ele>
        <time>2020-06-27T09:31:56Z</time>
      </trkpt>
      <trkpt lat="49.12996" lon="7.04524">
        <ele>192.8</ele>
        <time>2020-06-27T09:31:57Z</time>
      </trkpt>
      <trkpt lat="49.12991" lon="7.04523">
        <ele>192.7</ele>
        <time>2020-06-27T09:31:58Z</time>
      </trkpt>
      <trkpt lat="49.12985" lon="7.04523">
        <ele>192.7</ele>
        <time>2020-06-27T09:31:59Z</time>
      </trkpt>
      <trkpt lat="49.12979" lon="7.04524">
        <ele>192.7</ele>
        <time>2020-06-27T09:32:00Z</time>
      </trkpt>
      <trkpt lat="49.12973" lon="7.04523">
        <ele>192.7</ele>
        <time>2020-06-27T09:32:01Z</time>
      </trkpt>
      <trkpt lat="49.12968" lon="7.04525">
        <ele>192.7</ele>
        <time>2020-06-27T09:32:02Z</time>
      </trkpt>
      <trkpt lat="49.12962" lon="7.04525">
        <ele>192.6</ele>
        <time>2020-06-27T09:32:03Z</time>
      </trkpt>
      <trkpt lat="49.12957" lon="7.04524">
        <ele>192.6</ele>
        <time>2020-06-27T09:32:04Z</time>
      </trkpt>
      <trkpt lat="49.12952" lon="7.04522">
        <ele>192.6</ele>
        <time>2020-06-27T09:32:05Z</time>
      </trkpt>
      <trkpt lat="49.12947" lon="7.04521">
        <ele>192.7</ele>
        <time>2020-06-27T09:32:06Z</time>
      </trkpt>
      <trkpt lat="49.12942" lon="7.04519">
        <ele>192.7</ele>
        <time>2020-06-27T09:32:07Z</time>
      </trkpt>
      <trkpt lat="49.12937" lon="7.04518">
        <ele>192.7</ele>
        <time>2020-06-27T09:32:08Z</time>
      </trkpt>
      <trkpt lat="49.12931" lon="7.04519">
        <ele>192.7</ele>
        <time>2020-06-27T09:32:09Z</time>
      </trkpt>
      <trkpt lat="49.12926" lon="7.04518">
        <ele>192.7</ele>
        <time>2020-06-27T09:32:10Z</time>
      </trkpt>
      <trkpt lat="49.1292" lon="7.04518">
        <ele>192.7</ele>
        <time>2020-06-27T09:32:11Z</time>
      </trkpt>
      <trkpt lat="49.12915" lon="7.04517">
        <ele>192.7</ele>
        <time>2020-06-27T09:32:12Z</time>
      </trkpt>
      <trkpt lat="49.1291" lon="7.04516">
        <ele>192.7</ele>
        <time>2020-06-27T09:32:13Z</time>
      </trkpt>
      <trkpt lat="49.12904" lon="7.04516">
        <ele>192.7</ele>
        <time>2020-06-27T09:32:14Z</time>
      </trkpt>
      <trkpt lat="49.12899" lon="7.04514">
        <ele>192.7</ele>
        <time>2020-06-27T09:32:15Z</time>
      </trkpt>
      <trkpt lat="49.12893" lon="7.04512">
        <ele>192.7</ele>
        <time>2020-06-27T09:32:16Z</time>
      </trkpt>
      <trkpt lat="49.12887" lon="7.04511">
        <ele>192.7</ele>
        <time>2020-06-27T09:32:17Z</time>
      </trkpt>
      <trkpt lat="49.12881" lon="7.04509">
        <ele>192.7</ele>
        <time>2020-06-27T09:32:18Z</time>
      </trkpt>
      <trkpt lat="49.12876" lon="7.04507">
        <ele>192.7</ele>
        <time>2020-06-27T09:32:19Z</time>
      </trkpt>
      <trkpt lat="49.1287" lon="7.04506">
        <ele>192.7</ele>
        <time>2020-06-27T09:32:20Z</time>
      </trkpt>
      <trkpt lat="49.12864" lon="7.04505">
        <ele>192.7</ele>
        <time>2020-06-27T09:32:21Z</time>
      </trkpt>
      <trkpt lat="49.12858" lon="7.04504">
        <ele>192.7</ele>
        <time>2020-06-27T09:32:22Z</time>
      </trkpt>
      <trkpt lat="49.12853" lon="7.04502">
        <ele>192.7</ele>
        <time>2020-06-27T09:32:23Z</time>
      </trkpt>
      <trkpt lat="49.12848" lon="7.04501">
        <ele>192.7</ele>
        <time>2020-06-27T09:32:24Z</time>
      </trkpt>
      <trkpt lat="49.12842" lon="7.04499">
        <ele>192.8</ele>
        <time>2020-06-27T09:32:25Z</time>
      </trkpt>
      <trkpt lat="49.12837" lon="7.04498">
        <ele>192.8</ele>
        <time>2020-06-27T09:32:26Z</time>
      </trkpt>
      <trkpt lat="49.12831" lon="7.04496">
        <ele>192.8</ele>
        <time>2020-06-27T09:32:27Z</time>
      </trkpt>
      <trkpt lat="49.12826" lon="7.04495">
        <ele>192.9</ele>
        <time>2020-06-27T09:32:28Z</time>
      </trkpt>
      <trkpt lat="49.12821" lon="7.04493">
        <ele>192.9</ele>
        <time>2020-06-27T09:32:29Z</time>
      </trkpt>
      <trkpt lat="49.12815" lon="7.04491">
        <ele>192.9</ele>
        <time>2020-06-27T09:32:30Z</time>
      </trkpt>
      <trkpt lat="49.1281" lon="7.04489">
        <ele>192.9</ele>
        <time>2020-06-27T09:32:31Z</time>
      </trkpt>
      <trkpt lat="49.12804" lon="7.04484">
        <ele>193</ele>
        <time>2020-06-27T09:32:32Z</time>
      </trkpt>
      <trkpt lat="49.12799" lon="7.04482">
        <ele>193</ele>
        <time>2020-06-27T09:32:33Z</time>
      </trkpt>
      <trkpt lat="49.12793" lon="7.04481">
        <ele>193.1</ele>
        <time>2020-06-27T09:32:34Z</time>
      </trkpt>
      <trkpt lat="49.12787" lon="7.04479">
        <ele>193.2</ele>
        <time>2020-06-27T09:32:35Z</time>
      </trkpt>
      <trkpt lat="49.12781" lon="7.04476">
        <ele>193.3</ele>
        <time>2020-06-27T09:32:36Z</time>
      </trkpt>
      <trkpt lat="49.12776" lon="7.04474">
        <ele>193.4</ele>
        <time>2020-06-27T09:32:37Z</time>
      </trkpt>
      <trkpt lat="49.12771" lon="7.04473">
        <ele>193.4</ele>
        <time>2020-06-27T09:32:38Z</time>
      </trkpt>
      <trkpt lat="49.12765" lon="7.0447">
        <ele>193.5</ele>
        <time>2020-06-27T09:32:39Z</time>
      </trkpt>
      <trkpt lat="49.1276" lon="7.04467">
        <ele>193.5</ele>
        <time>2020-06-27T09:32:40Z</time>
      </trkpt>
      <trkpt lat="49.12755" lon="7.04465">
        <ele>193.5</ele>
        <time>2020-06-27T09:32:41Z</time>
      </trkpt>
      <trkpt lat="49.12749" lon="7.04463">
        <ele>193.5</ele>
        <time>2020-06-27T09:32:42Z</time>
      </trkpt>
      <trkpt lat="49.12744" lon="7.04461">
        <ele>193.5</ele>
        <time>2020-06-27T09:32:43Z</time>
      </trkpt>
      <trkpt lat="49.12738" lon="7.04458">
        <ele>193.4</ele>
        <time>2020-06-27T09:32:44Z</time>
      </trkpt>
      <trkpt lat="49.12732" lon="7.04457">
        <ele>193.4</ele>
        <time>2020-06-27T09:32:45Z</time>
      </trkpt>
      <trkpt lat="49.12726" lon="7.04454">
        <ele>193.3</ele>
        <time>2020-06-27T09:32:46Z</time>
      </trkpt>
      <trkpt lat="49.1272" lon="7.04452">
        <ele>193.3</ele>
        <time>2020-06-27T09:32:47Z</time>
      </trkpt>
      <trkpt lat="49.12715" lon="7.0445">
        <ele>193.3</ele>
        <time>2020-06-27T09:32:48Z</time>
      </trkpt>
      <trkpt lat="49.12709" lon="7.04449">
        <ele>193.2</ele>
        <time>2020-06-27T09:32:49Z</time>
      </trkpt>
      <trkpt lat="49.12704" lon="7.04447">
        <ele>193.2</ele>
        <time>2020-06-27T09:32:50Z</time>
      </trkpt>
      <trkpt lat="49.12698" lon="7.04446">
        <ele>193.2</ele>
        <time>2020-06-27T09:32:51Z</time>
      </trkpt>
      <trkpt lat="49.12692" lon="7.04445">
        <ele>193.2</ele>
        <time>2020-06-27T09:32:52Z</time>
      </trkpt>
      <trkpt lat="49.12686" lon="7.04445">
        <ele>193.2</ele>
        <time>2020-06-27T09:32:53Z</time>
      </trkpt>
      <trkpt lat="49.12681" lon="7.04444">
        <ele>193.2</ele>
        <time>2020-06-27T09:32:54Z</time>
      </trkpt>
      <trkpt lat="49.12675" lon="7.04443">
        <ele>193.2</ele>
        <time>2020-06-27T09:32:55Z</time>
      </trkpt>
      <trkpt lat="49.12669" lon="7.04442">
        <ele>193.2</ele>
        <time>2020-06-27T09:32:56Z</time>
      </trkpt>
      <trkpt lat="49.12662" lon="7.04442">
        <ele>193.2</ele>
        <time>2020-06-27T09:32:57Z</time>
      </trkpt>
      <trkpt lat="49.12657" lon="7.04442">
        <ele>193.2</ele>
        <time>2020-06-27T09:32:58Z</time>
      </trkpt>
      <trkpt lat="49.12651" lon="7.04442">
        <ele>193.2</ele>
        <time>2020-06-27T09:32:59Z</time>
      </trkpt>
      <trkpt lat="49.12645" lon="7.04442">
        <ele>193.2</ele>
        <time>2020-06-27T09:33:00Z</time>
      </trkpt>
      <trkpt lat="49.1264" lon="7.04441">
        <ele>193.2</ele>
        <time>2020-06-27T09:33:01Z</time>
      </trkpt>
      <trkpt lat="49.12635" lon="7.04439">
        <ele>193.2</ele>
        <time>2020-06-27T09:33:02Z</time>
      </trkpt>
      <trkpt lat="49.12629" lon="7.04437">
        <ele>193.2</ele>
        <time>2020-06-27T09:33:03Z</time>
      </trkpt>
      <trkpt lat="49.12624" lon="7.04435">
        <ele>193.2</ele>
        <time>2020-06-27T09:33:04Z</time>
      </trkpt>
      <trkpt lat="49.12618" lon="7.04434">
        <ele>193.2</ele>
        <time>2020-06-27T09:33:05Z</time>
      </trkpt>
      <trkpt lat="49.12612" lon="7.04432">
        <ele>193.1</ele>
        <time>2020-06-27T09:33:06Z</time>
      </trkpt>
      <trkpt lat="49.12606" lon="7.04431">
        <ele>193.1</ele>
        <time>2020-06-27T09:33:07Z</time>
      </trkpt>
      <trkpt lat="49.126" lon="7.04428">
        <ele>193.1</ele>
        <time>2020-06-27T09:33:08Z</time>
      </trkpt>
      <trkpt lat="49.12594" lon="7.04427">
        <ele>193</ele>
        <time>2020-06-27T09:33:09Z</time>
      </trkpt>
      <trkpt lat="49.12587" lon="7.04426">
        <ele>193</ele>
        <time>2020-06-27T09:33:10Z</time>
      </trkpt>
      <trkpt lat="49.12581" lon="7.04424">
        <ele>192.9</ele>
        <time>2020-06-27T09:33:11Z</time>
      </trkpt>
      <trkpt lat="49.12575" lon="7.04424">
        <ele>192.9</ele>
        <time>2020-06-27T09:33:12Z</time>
      </trkpt>
      <trkpt lat="49.12569" lon="7.04423">
        <ele>192.9</ele>
        <time>2020-06-27T09:33:13Z</time>
      </trkpt>
      <trkpt lat="49.12561" lon="7.04421">
        <ele>192.8</ele>
        <time>2020-06-27T09:33:14Z</time>
      </trkpt>
      <trkpt lat="49.12554" lon="7.04419">
        <ele>192.8</ele>
        <time>2020-06-27T09:33:15Z</time>
      </trkpt>
      <trkpt lat="49.12547" lon="7.04417">
        <ele>192.8</ele>
        <time>2020-06-27T09:33:16Z</time>
      </trkpt>
      <trkpt lat="49.1254" lon="7.04416">
        <ele>192.8</ele>
        <time>2020-06-27T09:33:17Z</time>
      </trkpt>
      <trkpt lat="49.12534" lon="7.04415">
        <ele>192.8</ele>
        <time>2020-06-27T09:33:18Z</time>
      </trkpt>
      <trkpt lat="49.12528" lon="7.04415">
        <ele>192.9</ele>
        <time>2020-06-27T09:33:19Z</time>
      </trkpt>
      <trkpt lat="49.12522" lon="7.04413">
        <ele>192.9</ele>
        <time>2020-06-27T09:33:20Z</time>
      </trkpt>
      <trkpt lat="49.12514" lon="7.04412">
        <ele>192.9</ele>
        <time>2020-06-27T09:33:21Z</time>
      </trkpt>
      <trkpt lat="49.12508" lon="7.04412">
        <ele>192.9</ele>
        <time>2020-06-27T09:33:22Z</time>
      </trkpt>
      <trkpt lat="49.12501" lon="7.04411">
        <ele>192.9</ele>
        <time>2020-06-27T09:33:23Z</time>
      </trkpt>
      <trkpt lat="49.12493" lon="7.04411">
        <ele>192.9</ele>
        <time>2020-06-27T09:33:24Z</time>
      </trkpt>
      <trkpt lat="49.12488" lon="7.04408">
        <ele>192.9</ele>
        <time>2020-06-27T09:33:25Z</time>
      </trkpt>
      <trkpt lat="49.12482" lon="7.04406">
        <ele>192.9</ele>
        <time>2020-06-27T09:33:26Z</time>
      </trkpt>
      <trkpt lat="49.12476" lon="7.04405">
        <ele>192.9</ele>
        <time>2020-06-27T09:33:27Z</time>
      </trkpt>
      <trkpt lat="49.1247" lon="7.04405">
        <ele>192.9</ele>
        <time>2020-06-27T09:33:28Z</time>
      </trkpt>
      <trkpt lat="49.12464" lon="7.04404">
        <ele>192.9</ele>
        <time>2020-06-27T09:33:29Z</time>
      </trkpt>
      <trkpt lat="49.12458" lon="7.04403">
        <ele>192.9</ele>
        <time>2020-06-27T09:33:30Z</time>
      </trkpt>
      <trkpt lat="49.12453" lon="7.04403">
        <ele>192.9</ele>
        <time>2020-06-27T09:33:31Z</time>
      </trkpt>
      <trkpt lat="49.12449" lon="7.04403">
        <ele>192.9</ele>
        <time>2020-06-27T09:33:32Z</time>
      </trkpt>
      <trkpt lat="49.12444" lon="7.04404">
        <ele>192.8</ele>
        <time>2020-06-27T09:33:33Z</time>
      </trkpt>
      <trkpt lat="49.12437" lon="7.04403">
        <ele>192.8</ele>
        <time>2020-06-27T09:33:34Z</time>
      </trkpt>
      <trkpt lat="49.12432" lon="7.04401">
        <ele>192.8</ele>
        <time>2020-06-27T09:33:35Z</time>
      </trkpt>
      <trkpt lat="49.12427" lon="7.04401">
        <ele>192.8</ele>
        <time>2020-06-27T09:33:36Z</time>
      </trkpt>
      <trkpt lat="49.12422" lon="7.044">
        <ele>192.8</ele>
        <time>2020-06-27T09:33:37Z</time>
      </trkpt>
      <trkpt lat="49.12416" lon="7.04399">
        <ele>192.8</ele>
        <time>2020-06-27T09:33:38Z</time>
      </trkpt>
      <trkpt lat="49.1241" lon="7.04398">
        <ele>192.8</ele>
        <time>2020-06-27T09:33:39Z</time>
      </trkpt>
      <trkpt lat="49.12405" lon="7.04398">
        <ele>192.8</ele>
        <time>2020-06-27T09:33:40Z</time>
      </trkpt>
      <trkpt lat="49.12399" lon="7.04397">
        <ele>192.8</ele>
        <time>2020-06-27T09:33:41Z</time>
      </trkpt>
      <trkpt lat="49.12393" lon="7.04396">
        <ele>192.8</ele>
        <time>2020-06-27T09:33:42Z</time>
      </trkpt>
      <trkpt lat="49.12389" lon="7.04396">
        <ele>192.8</ele>
        <time>2020-06-27T09:33:43Z</time>
      </trkpt>
      <trkpt lat="49.12382" lon="7.04396">
        <ele>192.8</ele>
        <time>2020-06-27T09:33:44Z</time>
      </trkpt>
      <trkpt lat="49.12378" lon="7.04397">
        <ele>192.8</ele>
        <time>2020-06-27T09:33:45Z</time>
      </trkpt>
      <trkpt lat="49.12372" lon="7.04395">
        <ele>192.8</ele>
        <time>2020-06-27T09:33:46Z</time>
      </trkpt>
      <trkpt lat="49.12368" lon="7.04394">
        <ele>192.8</ele>
        <time>2020-06-27T09:33:47Z</time>
      </trkpt>
      <trkpt lat="49.12362" lon="7.04393">
        <ele>192.8</ele>
        <time>2020-06-27T09:33:48Z</time>
      </trkpt>
      <trkpt lat="49.12357" lon="7.04392">
        <ele>192.8</ele>
        <time>2020-06-27T09:33:49Z</time>
      </trkpt>
      <trkpt lat="49.12351" lon="7.04391">
        <ele>192.7</ele>
        <time>2020-06-27T09:33:50Z</time>
      </trkpt>
      <trkpt lat="49.12343" lon="7.04389">
        <ele>192.7</ele>
        <time>2020-06-27T09:33:51Z</time>
      </trkpt>
      <trkpt lat="49.12337" lon="7.04389">
        <ele>192.6</ele>
        <time>2020-06-27T09:33:52Z</time>
      </trkpt>
      <trkpt lat="49.12332" lon="7.04389">
        <ele>192.6</ele>
        <time>2020-06-27T09:33:53Z</time>
      </trkpt>
      <trkpt lat="49.12327" lon="7.04389">
        <ele>192.6</ele>
        <time>2020-06-27T09:33:54Z</time>
      </trkpt>
      <trkpt lat="49.12321" lon="7.04388">
        <ele>192.6</ele>
        <time>2020-06-27T09:33:55Z</time>
      </trkpt>
      <trkpt lat="49.12314" lon="7.04388">
        <ele>192.6</ele>
        <time>2020-06-27T09:33:56Z</time>
      </trkpt>
      <trkpt lat="49.12309" lon="7.04388">
        <ele>192.6</ele>
        <time>2020-06-27T09:33:57Z</time>
      </trkpt>
      <trkpt lat="49.12303" lon="7.04388">
        <ele>192.6</ele>
        <time>2020-06-27T09:33:58Z</time>
      </trkpt>
      <trkpt lat="49.12297" lon="7.04387">
        <ele>192.7</ele>
        <time>2020-06-27T09:33:59Z</time>
      </trkpt>
      <trkpt lat="49.1229" lon="7.04386">
        <ele>192.7</ele>
        <time>2020-06-27T09:34:00Z</time>
      </trkpt>
      <trkpt lat="49.12285" lon="7.04386">
        <ele>192.7</ele>
        <time>2020-06-27T09:34:01Z</time>
      </trkpt>
      <trkpt lat="49.12279" lon="7.04385">
        <ele>192.8</ele>
        <time>2020-06-27T09:34:02Z</time>
      </trkpt>
      <trkpt lat="49.12274" lon="7.04385">
        <ele>192.8</ele>
        <time>2020-06-27T09:34:03Z</time>
      </trkpt>
      <trkpt lat="49.12268" lon="7.04385">
        <ele>192.8</ele>
        <time>2020-06-27T09:34:04Z</time>
      </trkpt>
      <trkpt lat="49.12263" lon="7.04384">
        <ele>192.9</ele>
        <time>2020-06-27T09:34:05Z</time>
      </trkpt>
      <trkpt lat="49.12257" lon="7.04384">
        <ele>193</ele>
        <time>2020-06-27T09:34:06Z</time>
      </trkpt>
      <trkpt lat="49.1225" lon="7.04383">
        <ele>193.2</ele>
        <time>2020-06-27T09:34:07Z</time>
      </trkpt>
      <trkpt lat="49.12245" lon="7.04382">
        <ele>193.2</ele>
        <time>2020-06-27T09:34:08Z</time>
      </trkpt>
      <trkpt lat="49.12239" lon="7.04382">
        <ele>193.2</ele>
        <time>2020-06-27T09:34:09Z</time>
      </trkpt>
      <trkpt lat="49.12234" lon="7.04382">
        <ele>193.2</ele>
        <time>2020-06-27T09:34:10Z</time>
      </trkpt>
      <trkpt lat="49.12228" lon="7.04382">
        <ele>193.2</ele>
        <time>2020-06-27T09:34:11Z</time>
      </trkpt>
      <trkpt lat="49.12223" lon="7.04382">
        <ele>193.2</ele>
        <time>2020-06-27T09:34:12Z</time>
      </trkpt>
      <trkpt lat="49.12217" lon="7.04381">
        <ele>193.2</ele>
        <time>2020-06-27T09:34:13Z</time>
      </trkpt>
      <trkpt lat="49.1221" lon="7.04381">
        <ele>193.2</ele>
        <time>2020-06-27T09:34:14Z</time>
      </trkpt>
      <trkpt lat="49.12204" lon="7.04382">
        <ele>193.2</ele>
        <time>2020-06-27T09:34:15Z</time>
      </trkpt>
      <trkpt lat="49.12198" lon="7.04382">
        <ele>193.2</ele>
        <time>2020-06-27T09:34:16Z</time>
      </trkpt>
      <trkpt lat="49.12192" lon="7.04381">
        <ele>193.2</ele>
        <time>2020-06-27T09:34:17Z</time>
      </trkpt>
      <trkpt lat="49.12185" lon="7.04382">
        <ele>193.1</ele>
        <time>2020-06-27T09:34:18Z</time>
      </trkpt>
      <trkpt lat="49.12178" lon="7.04382">
        <ele>193.1</ele>
        <time>2020-06-27T09:34:19Z</time>
      </trkpt>
      <trkpt lat="49.12172" lon="7.04382">
        <ele>193</ele>
        <time>2020-06-27T09:34:20Z</time>
      </trkpt>
      <trkpt lat="49.12165" lon="7.04382">
        <ele>193</ele>
        <time>2020-06-27T09:34:21Z</time>
      </trkpt>
      <trkpt lat="49.12158" lon="7.04382">
        <ele>193</ele>
        <time>2020-06-27T09:34:22Z</time>
      </trkpt>
      <trkpt lat="49.12152" lon="7.04382">
        <ele>193</ele>
        <time>2020-06-27T09:34:23Z</time>
      </trkpt>
      <trkpt lat="49.12145" lon="7.04382">
        <ele>193</ele>
        <time>2020-06-27T09:34:24Z</time>
      </trkpt>
      <trkpt lat="49.12139" lon="7.04381">
        <ele>192.9</ele>
        <time>2020-06-27T09:34:25Z</time>
      </trkpt>
      <trkpt lat="49.12132" lon="7.04381">
        <ele>192.9</ele>
        <time>2020-06-27T09:34:26Z</time>
      </trkpt>
      <trkpt lat="49.12128" lon="7.04381">
        <ele>192.9</ele>
        <time>2020-06-27T09:34:27Z</time>
      </trkpt>
      <trkpt lat="49.12123" lon="7.0438">
        <ele>192.9</ele>
        <time>2020-06-27T09:34:28Z</time>
      </trkpt>
      <trkpt lat="49.12118" lon="7.0438">
        <ele>192.9</ele>
        <time>2020-06-27T09:34:29Z</time>
      </trkpt>
      <trkpt lat="49.12113" lon="7.0438">
        <ele>192.9</ele>
        <time>2020-06-27T09:34:30Z</time>
      </trkpt>
      <trkpt lat="49.12108" lon="7.0438">
        <ele>192.9</ele>
        <time>2020-06-27T09:34:31Z</time>
      </trkpt>
      <trkpt lat="49.12101" lon="7.04381">
        <ele>192.9</ele>
        <time>2020-06-27T09:34:32Z</time>
      </trkpt>
      <trkpt lat="49.12095" lon="7.04382">
        <ele>192.9</ele>
        <time>2020-06-27T09:34:33Z</time>
      </trkpt>
      <trkpt lat="49.12089" lon="7.04382">
        <ele>192.9</ele>
        <time>2020-06-27T09:34:34Z</time>
      </trkpt>
      <trkpt lat="49.12083" lon="7.04383">
        <ele>192.9</ele>
        <time>2020-06-27T09:34:35Z</time>
      </trkpt>
      <trkpt lat="49.12078" lon="7.04384">
        <ele>192.9</ele>
        <time>2020-06-27T09:34:36Z</time>
      </trkpt>
      <trkpt lat="49.12072" lon="7.04384">
        <ele>192.9</ele>
        <time>2020-06-27T09:34:37Z</time>
      </trkpt>
      <trkpt lat="49.12068" lon="7.04385">
        <ele>192.9</ele>
        <time>2020-06-27T09:34:38Z</time>
      </trkpt>
      <trkpt lat="49.12063" lon="7.04386">
        <ele>192.9</ele>
        <time>2020-06-27T09:34:39Z</time>
      </trkpt>
      <trkpt lat="49.12057" lon="7.04387">
        <ele>192.9</ele>
        <time>2020-06-27T09:34:40Z</time>
      </trkpt>
      <trkpt lat="49.1205" lon="7.04388">
        <ele>192.9</ele>
        <time>2020-06-27T09:34:41Z</time>
      </trkpt>
      <trkpt lat="49.12043" lon="7.04389">
        <ele>192.9</ele>
        <time>2020-06-27T09:34:42Z</time>
      </trkpt>
      <trkpt lat="49.12036" lon="7.0439">
        <ele>192.9</ele>
        <time>2020-06-27T09:34:43Z</time>
      </trkpt>
      <trkpt lat="49.1203" lon="7.04391">
        <ele>192.9</ele>
        <time>2020-06-27T09:34:44Z</time>
      </trkpt>
      <trkpt lat="49.12024" lon="7.04393">
        <ele>192.9</ele>
        <time>2020-06-27T09:34:45Z</time>
      </trkpt>
      <trkpt lat="49.12017" lon="7.04394">
        <ele>192.9</ele>
        <time>2020-06-27T09:34:46Z</time>
      </trkpt>
      <trkpt lat="49.12011" lon="7.04396">
        <ele>192.9</ele>
        <time>2020-06-27T09:34:47Z</time>
      </trkpt>
      <trkpt lat="49.12005" lon="7.04397">
        <ele>192.9</ele>
        <time>2020-06-27T09:34:48Z</time>
      </trkpt>
      <trkpt lat="49.11999" lon="7.04399">
        <ele>192.8</ele>
        <time>2020-06-27T09:34:49Z</time>
      </trkpt>
      <trkpt lat="49.11994" lon="7.04401">
        <ele>192.8</ele>
        <time>2020-06-27T09:34:50Z</time>
      </trkpt>
      <trkpt lat="49.11989" lon="7.04402">
        <ele>192.8</ele>
        <time>2020-06-27T09:34:51Z</time>
      </trkpt>
      <trkpt lat="49.11983" lon="7.04402">
        <ele>192.9</ele>
        <time>2020-06-27T09:34:52Z</time>
      </trkpt>
      <trkpt lat="49.11977" lon="7.04404">
        <ele>192.9</ele>
        <time>2020-06-27T09:34:53Z</time>
      </trkpt>
      <trkpt lat="49.11972" lon="7.04405">
        <ele>192.9</ele>
        <time>2020-06-27T09:34:54Z</time>
      </trkpt>
      <trkpt lat="49.11967" lon="7.04407">
        <ele>192.9</ele>
        <time>2020-06-27T09:34:55Z</time>
      </trkpt>
      <trkpt lat="49.11962" lon="7.0441">
        <ele>193</ele>
        <time>2020-06-27T09:34:56Z</time>
      </trkpt>
      <trkpt lat="49.11957" lon="7.04411">
        <ele>193</ele>
        <time>2020-06-27T09:34:57Z</time>
      </trkpt>
      <trkpt lat="49.11953" lon="7.04413">
        <ele>193</ele>
        <time>2020-06-27T09:34:58Z</time>
      </trkpt>
      <trkpt lat="49.11947" lon="7.04415">
        <ele>193</ele>
        <time>2020-06-27T09:34:59Z</time>
      </trkpt>
      <trkpt lat="49.11941" lon="7.04416">
        <ele>193.1</ele>
        <time>2020-06-27T09:35:00Z</time>
      </trkpt>
      <trkpt lat="49.11937" lon="7.04417">
        <ele>193.1</ele>
        <time>2020-06-27T09:35:01Z</time>
      </trkpt>
      <trkpt lat="49.11932" lon="7.04419">
        <ele>193.1</ele>
        <time>2020-06-27T09:35:02Z</time>
      </trkpt>
      <trkpt lat="49.11927" lon="7.04421">
        <ele>193.2</ele>
        <time>2020-06-27T09:35:03Z</time>
      </trkpt>
      <trkpt lat="49.11922" lon="7.04423">
        <ele>193.2</ele>
        <time>2020-06-27T09:35:04Z</time>
      </trkpt>
      <trkpt lat="49.11916" lon="7.04425">
        <ele>193.3</ele>
        <time>2020-06-27T09:35:05Z</time>
      </trkpt>
      <trkpt lat="49.1191" lon="7.04427">
        <ele>193.3</ele>
        <time>2020-06-27T09:35:06Z</time>
      </trkpt>
      <trkpt lat="49.11905" lon="7.04428">
        <ele>193.4</ele>
        <time>2020-06-27T09:35:07Z</time>
      </trkpt>
      <trkpt lat="49.11901" lon="7.0443">
        <ele>193.5</ele>
        <time>2020-06-27T09:35:08Z</time>
      </trkpt>
      <trkpt lat="49.11896" lon="7.04431">
        <ele>193.6</ele>
        <time>2020-06-27T09:35:09Z</time>
      </trkpt>
      <trkpt lat="49.11892" lon="7.04432">
        <ele>193.6</ele>
        <time>2020-06-27T09:35:10Z</time>
      </trkpt>
      <trkpt lat="49.11887" lon="7.04434">
        <ele>193.7</ele>
        <time>2020-06-27T09:35:11Z</time>
      </trkpt>
      <trkpt lat="49.11883" lon="7.04436">
        <ele>193.8</ele>
        <time>2020-06-27T09:35:12Z</time>
      </trkpt>
      <trkpt lat="49.11879" lon="7.04438">
        <ele>193.8</ele>
        <time>2020-06-27T09:35:13Z</time>
      </trkpt>
      <trkpt lat="49.11875" lon="7.04442">
        <ele>193.8</ele>
        <time>2020-06-27T09:35:14Z</time>
      </trkpt>
      <trkpt lat="49.11871" lon="7.04445">
        <ele>193.9</ele>
        <time>2020-06-27T09:35:15Z</time>
      </trkpt>
      <trkpt lat="49.11868" lon="7.04451">
        <ele>193.9</ele>
        <time>2020-06-27T09:35:16Z</time>
      </trkpt>
      <trkpt lat="49.11865" lon="7.04456">
        <ele>193.9</ele>
        <time>2020-06-27T09:35:17Z</time>
      </trkpt>
      <trkpt lat="49.11861" lon="7.04461">
        <ele>193.8</ele>
        <time>2020-06-27T09:35:18Z</time>
      </trkpt>
      <trkpt lat="49.11858" lon="7.04466">
        <ele>193.8</ele>
        <time>2020-06-27T09:35:19Z</time>
      </trkpt>
      <trkpt lat="49.11853" lon="7.04468">
        <ele>193.8</ele>
        <time>2020-06-27T09:35:20Z</time>
      </trkpt>
      <trkpt lat="49.11849" lon="7.04472">
        <ele>193.8</ele>
        <time>2020-06-27T09:35:21Z</time>
      </trkpt>
      <trkpt lat="49.11844" lon="7.04476">
        <ele>193.8</ele>
        <time>2020-06-27T09:35:22Z</time>
      </trkpt>
      <trkpt lat="49.11838" lon="7.04481">
        <ele>193.7</ele>
        <time>2020-06-27T09:35:23Z</time>
      </trkpt>
      <trkpt lat="49.11834" lon="7.04485">
        <ele>193.7</ele>
        <time>2020-06-27T09:35:24Z</time>
      </trkpt>
      <trkpt lat="49.11829" lon="7.04488">
        <ele>193.7</ele>
        <time>2020-06-27T09:35:25Z</time>
      </trkpt>
      <trkpt lat="49.11823" lon="7.0449">
        <ele>193.7</ele>
        <time>2020-06-27T09:35:26Z</time>
      </trkpt>
      <trkpt lat="49.11817" lon="7.04492">
        <ele>193.8</ele>
        <time>2020-06-27T09:35:27Z</time>
      </trkpt>
      <trkpt lat="49.11811" lon="7.04495">
        <ele>193.8</ele>
        <time>2020-06-27T09:35:28Z</time>
      </trkpt>
      <trkpt lat="49.11805" lon="7.045">
        <ele>193.8</ele>
        <time>2020-06-27T09:35:29Z</time>
      </trkpt>
      <trkpt lat="49.11799" lon="7.04503">
        <ele>193.8</ele>
        <time>2020-06-27T09:35:30Z</time>
      </trkpt>
      <trkpt lat="49.11793" lon="7.04506">
        <ele>193.8</ele>
        <time>2020-06-27T09:35:31Z</time>
      </trkpt>
      <trkpt lat="49.11787" lon="7.04507">
        <ele>193.9</ele>
        <time>2020-06-27T09:35:32Z</time>
      </trkpt>
      <trkpt lat="49.11782" lon="7.0451">
        <ele>193.9</ele>
        <time>2020-06-27T09:35:33Z</time>
      </trkpt>
      <trkpt lat="49.11776" lon="7.04512">
        <ele>193.9</ele>
        <time>2020-06-27T09:35:34Z</time>
      </trkpt>
      <trkpt lat="49.11771" lon="7.04515">
        <ele>193.9</ele>
        <time>2020-06-27T09:35:35Z</time>
      </trkpt>
      <trkpt lat="49.11765" lon="7.04517">
        <ele>194</ele>
        <time>2020-06-27T09:35:36Z</time>
      </trkpt>
      <trkpt lat="49.11759" lon="7.0452">
        <ele>194</ele>
        <time>2020-06-27T09:35:37Z</time>
      </trkpt>
      <trkpt lat="49.11754" lon="7.04524">
        <ele>194</ele>
        <time>2020-06-27T09:35:38Z</time>
      </trkpt>
      <trkpt lat="49.11748" lon="7.04526">
        <ele>194</ele>
        <time>2020-06-27T09:35:39Z</time>
      </trkpt>
      <trkpt lat="49.11743" lon="7.04528">
        <ele>194</ele>
        <time>2020-06-27T09:35:40Z</time>
      </trkpt>
      <trkpt lat="49.11738" lon="7.0453">
        <ele>194</ele>
        <time>2020-06-27T09:35:41Z</time>
      </trkpt>
      <trkpt lat="49.11733" lon="7.04532">
        <ele>194</ele>
        <time>2020-06-27T09:35:42Z</time>
      </trkpt>
      <trkpt lat="49.11728" lon="7.04534">
        <ele>194.1</ele>
        <time>2020-06-27T09:35:43Z</time>
      </trkpt>
      <trkpt lat="49.11723" lon="7.04538">
        <ele>194.1</ele>
        <time>2020-06-27T09:35:44Z</time>
      </trkpt>
      <trkpt lat="49.11717" lon="7.0454">
        <ele>194.2</ele>
        <time>2020-06-27T09:35:45Z</time>
      </trkpt>
      <trkpt lat="49.11712" lon="7.04543">
        <ele>194.3</ele>
        <time>2020-06-27T09:35:46Z</time>
      </trkpt>
      <trkpt lat="49.11706" lon="7.04547">
        <ele>194.3</ele>
        <time>2020-06-27T09:35:47Z</time>
      </trkpt>
      <trkpt lat="49.117" lon="7.04549">
        <ele>194.3</ele>
        <time>2020-06-27T09:35:48Z</time>
      </trkpt>
      <trkpt lat="49.11695" lon="7.04551">
        <ele>194.4</ele>
        <time>2020-06-27T09:35:49Z</time>
      </trkpt>
      <trkpt lat="49.11689" lon="7.04554">
        <ele>194.4</ele>
        <time>2020-06-27T09:35:50Z</time>
      </trkpt>
      <trkpt lat="49.11683" lon="7.04555">
        <ele>194.4</ele>
        <time>2020-06-27T09:35:51Z</time>
      </trkpt>
      <trkpt lat="49.11678" lon="7.04557">
        <ele>194.4</ele>
        <time>2020-06-27T09:35:52Z</time>
      </trkpt>
      <trkpt lat="49.11672" lon="7.0456">
        <ele>194.4</ele>
        <time>2020-06-27T09:35:53Z</time>
      </trkpt>
      <trkpt lat="49.11667" lon="7.04561">
        <ele>194.4</ele>
        <time>2020-06-27T09:35:54Z</time>
      </trkpt>
      <trkpt lat="49.11663" lon="7.04563">
        <ele>194.4</ele>
        <time>2020-06-27T09:35:55Z</time>
      </trkpt>
      <trkpt lat="49.11658" lon="7.04564">
        <ele>194.4</ele>
        <time>2020-06-27T09:35:56Z</time>
      </trkpt>
      <trkpt lat="49.11653" lon="7.04566">
        <ele>194.4</ele>
        <time>2020-06-27T09:35:57Z</time>
      </trkpt>
      <trkpt lat="49.11647" lon="7.04568">
        <ele>194.4</ele>
        <time>2020-06-27T09:35:58Z</time>
      </trkpt>
      <trkpt lat="49.11642" lon="7.04571">
        <ele>194.4</ele>
        <time>2020-06-27T09:35:59Z</time>
      </trkpt>
      <trkpt lat="49.11637" lon="7.04573">
        <ele>194.4</ele>
        <time>2020-06-27T09:36:00Z</time>
      </trkpt>
      <trkpt lat="49.11632" lon="7.04577">
        <ele>194.4</ele>
        <time>2020-06-27T09:36:01Z</time>
      </trkpt>
      <trkpt lat="49.11629" lon="7.04581">
        <ele>194.4</ele>
        <time>2020-06-27T09:36:02Z</time>
      </trkpt>
      <trkpt lat="49.11624" lon="7.04583">
        <ele>194.4</ele>
        <time>2020-06-27T09:36:03Z</time>
      </trkpt>
      <trkpt lat="49.11619" lon="7.04586">
        <ele>194.4</ele>
        <time>2020-06-27T09:36:04Z</time>
      </trkpt>
      <trkpt lat="49.11612" lon="7.04589">
        <ele>194.4</ele>
        <time>2020-06-27T09:36:05Z</time>
      </trkpt>
      <trkpt lat="49.11606" lon="7.04592">
        <ele>194.4</ele>
        <time>2020-06-27T09:36:06Z</time>
      </trkpt>
      <trkpt lat="49.11601" lon="7.04597">
        <ele>194.5</ele>
        <time>2020-06-27T09:36:07Z</time>
      </trkpt>
      <trkpt lat="49.11595" lon="7.04604">
        <ele>194.5</ele>
        <time>2020-06-27T09:36:08Z</time>
      </trkpt>
      <trkpt lat="49.11591" lon="7.0461">
        <ele>194.5</ele>
        <time>2020-06-27T09:36:09Z</time>
      </trkpt>
      <trkpt lat="49.11587" lon="7.04616">
        <ele>194.5</ele>
        <time>2020-06-27T09:36:10Z</time>
      </trkpt>
      <trkpt lat="49.11583" lon="7.04622">
        <ele>194.5</ele>
        <time>2020-06-27T09:36:11Z</time>
      </trkpt>
      <trkpt lat="49.11578" lon="7.04626">
        <ele>194.5</ele>
        <time>2020-06-27T09:36:12Z</time>
      </trkpt>
      <trkpt lat="49.11574" lon="7.04631">
        <ele>194.6</ele>
        <time>2020-06-27T09:36:13Z</time>
      </trkpt>
      <trkpt lat="49.11569" lon="7.04637">
        <ele>194.6</ele>
        <time>2020-06-27T09:36:14Z</time>
      </trkpt>
      <trkpt lat="49.11565" lon="7.04641">
        <ele>194.6</ele>
        <time>2020-06-27T09:36:15Z</time>
      </trkpt>
      <trkpt lat="49.1156" lon="7.04646">
        <ele>194.6</ele>
        <time>2020-06-27T09:36:16Z</time>
      </trkpt>
      <trkpt lat="49.11555" lon="7.04651">
        <ele>194.6</ele>
        <time>2020-06-27T09:36:17Z</time>
      </trkpt>
      <trkpt lat="49.1155" lon="7.04653">
        <ele>194.6</ele>
        <time>2020-06-27T09:36:18Z</time>
      </trkpt>
      <trkpt lat="49.11546" lon="7.04659">
        <ele>194.5</ele>
        <time>2020-06-27T09:36:19Z</time>
      </trkpt>
      <trkpt lat="49.11541" lon="7.04663">
        <ele>194.5</ele>
        <time>2020-06-27T09:36:20Z</time>
      </trkpt>
      <trkpt lat="49.11536" lon="7.04668">
        <ele>194.5</ele>
        <time>2020-06-27T09:36:21Z</time>
      </trkpt>
      <trkpt lat="49.1153" lon="7.04673">
        <ele>194.4</ele>
        <time>2020-06-27T09:36:22Z</time>
      </trkpt>
      <trkpt lat="49.11526" lon="7.04677">
        <ele>194.4</ele>
        <time>2020-06-27T09:36:23Z</time>
      </trkpt>
      <trkpt lat="49.11522" lon="7.04681">
        <ele>194.4</ele>
        <time>2020-06-27T09:36:24Z</time>
      </trkpt>
      <trkpt lat="49.11517" lon="7.04685">
        <ele>194.4</ele>
        <time>2020-06-27T09:36:25Z</time>
      </trkpt>
      <trkpt lat="49.11512" lon="7.0469">
        <ele>194.4</ele>
        <time>2020-06-27T09:36:26Z</time>
      </trkpt>
      <trkpt lat="49.11507" lon="7.04694">
        <ele>194.5</ele>
        <time>2020-06-27T09:36:27Z</time>
      </trkpt>
      <trkpt lat="49.11502" lon="7.047">
        <ele>194.5</ele>
        <time>2020-06-27T09:36:28Z</time>
      </trkpt>
      <trkpt lat="49.11498" lon="7.04705">
        <ele>194.5</ele>
        <time>2020-06-27T09:36:29Z</time>
      </trkpt>
      <trkpt lat="49.11494" lon="7.04711">
        <ele>194.5</ele>
        <time>2020-06-27T09:36:30Z</time>
      </trkpt>
      <trkpt lat="49.11489" lon="7.04717">
        <ele>194.5</ele>
        <time>2020-06-27T09:36:31Z</time>
      </trkpt>
      <trkpt lat="49.11484" lon="7.04722">
        <ele>194.5</ele>
        <time>2020-06-27T09:36:32Z</time>
      </trkpt>
      <trkpt lat="49.11479" lon="7.04728">
        <ele>194.5</ele>
        <time>2020-06-27T09:36:33Z</time>
      </trkpt>
      <trkpt lat="49.11475" lon="7.04734">
        <ele>194.5</ele>
        <time>2020-06-27T09:36:34Z</time>
      </trkpt>
      <trkpt lat="49.1147" lon="7.0474">
        <ele>194.5</ele>
        <time>2020-06-27T09:36:35Z</time>
      </trkpt>
      <trkpt lat="49.11464" lon="7.04744">
        <ele>194.5</ele>
        <time>2020-06-27T09:36:36Z</time>
      </trkpt>
      <trkpt lat="49.11458" lon="7.0475">
        <ele>194.5</ele>
        <time>2020-06-27T09:36:37Z</time>
      </trkpt>
      <trkpt lat="49.11453" lon="7.04755">
        <ele>194.5</ele>
        <time>2020-06-27T09:36:38Z</time>
      </trkpt>
      <trkpt lat="49.11447" lon="7.04761">
        <ele>194.6</ele>
        <time>2020-06-27T09:36:39Z</time>
      </trkpt>
      <trkpt lat="49.11442" lon="7.04766">
        <ele>194.7</ele>
        <time>2020-06-27T09:36:40Z</time>
      </trkpt>
      <trkpt lat="49.11438" lon="7.0477">
        <ele>194.7</ele>
        <time>2020-06-27T09:36:41Z</time>
      </trkpt>
      <trkpt lat="49.11433" lon="7.04774">
        <ele>194.8</ele>
        <time>2020-06-27T09:36:42Z</time>
      </trkpt>
      <trkpt lat="49.11429" lon="7.04778">
        <ele>194.9</ele>
        <time>2020-06-27T09:36:43Z</time>
      </trkpt>
      <trkpt lat="49.11424" lon="7.04783">
        <ele>194.9</ele>
        <time>2020-06-27T09:36:44Z</time>
      </trkpt>
      <trkpt lat="49.11421" lon="7.04787">
        <ele>195</ele>
        <time>2020-06-27T09:36:45Z</time>
      </trkpt>
      <trkpt lat="49.11417" lon="7.0479">
        <ele>195.1</ele>
        <time>2020-06-27T09:36:46Z</time>
      </trkpt>
      <trkpt lat="49.11413" lon="7.04793">
        <ele>195.1</ele>
        <time>2020-06-27T09:36:47Z</time>
      </trkpt>
      <trkpt lat="49.11408" lon="7.04799">
        <ele>195.2</ele>
        <time>2020-06-27T09:36:48Z</time>
      </trkpt>
      <trkpt lat="49.11403" lon="7.04801">
        <ele>195.3</ele>
        <time>2020-06-27T09:36:49Z</time>
      </trkpt>
      <trkpt lat="49.11398" lon="7.04805">
        <ele>195.4</ele>
        <time>2020-06-27T09:36:50Z</time>
      </trkpt>
      <trkpt lat="49.11394" lon="7.04808">
        <ele>195.5</ele>
        <time>2020-06-27T09:36:51Z</time>
      </trkpt>
      <trkpt lat="49.1139" lon="7.0481">
        <ele>195.6</ele>
        <time>2020-06-27T09:36:52Z</time>
      </trkpt>
      <trkpt lat="49.11385" lon="7.04816">
        <ele>195.7</ele>
        <time>2020-06-27T09:36:53Z</time>
      </trkpt>
      <trkpt lat="49.11382" lon="7.04822">
        <ele>195.8</ele>
        <time>2020-06-27T09:36:54Z</time>
      </trkpt>
      <trkpt lat="49.11379" lon="7.04827">
        <ele>195.9</ele>
        <time>2020-06-27T09:36:55Z</time>
      </trkpt>
      <trkpt lat="49.11377" lon="7.04831">
        <ele>196</ele>
        <time>2020-06-27T09:36:56Z</time>
      </trkpt>
      <trkpt lat="49.11374" lon="7.04836">
        <ele>196</ele>
        <time>2020-06-27T09:36:57Z</time>
      </trkpt>
      <trkpt lat="49.11371" lon="7.0484">
        <ele>196.1</ele>
        <time>2020-06-27T09:36:58Z</time>
      </trkpt>
      <trkpt lat="49.11369" lon="7.04843">
        <ele>196.2</ele>
        <time>2020-06-27T09:36:59Z</time>
      </trkpt>
      <trkpt lat="49.11367" lon="7.04847">
        <ele>196.1</ele>
        <time>2020-06-27T09:37:00Z</time>
      </trkpt>
      <trkpt lat="49.11367" lon="7.04848">
        <ele>196.1</ele>
        <time>2020-06-27T09:37:01Z</time>
      </trkpt>
      <trkpt lat="49.11364" lon="7.04852">
        <ele>196</ele>
        <time>2020-06-27T09:37:02Z</time>
      </trkpt>
      <trkpt lat="49.11361" lon="7.04855">
        <ele>195.9</ele>
        <time>2020-06-27T09:37:03Z</time>
      </trkpt>
      <trkpt lat="49.11361" lon="7.04856">
        <ele>195.9</ele>
        <time>2020-06-27T09:37:04Z</time>
      </trkpt>
      <trkpt lat="49.11358" lon="7.04859">
        <ele>195.8</ele>
        <time>2020-06-27T09:37:05Z</time>
      </trkpt>
      <trkpt lat="49.11356" lon="7.04864">
        <ele>195.7</ele>
        <time>2020-06-27T09:37:06Z</time>
      </trkpt>
      <trkpt lat="49.11354" lon="7.04869">
        <ele>195.6</ele>
        <time>2020-06-27T09:37:07Z</time>
      </trkpt>
      <trkpt lat="49.11352" lon="7.04873">
        <ele>195.6</ele>
        <time>2020-06-27T09:37:08Z</time>
      </trkpt>
      <trkpt lat="49.11349" lon="7.0488">
        <ele>195.5</ele>
        <time>2020-06-27T09:37:09Z</time>
      </trkpt>
      <trkpt lat="49.11347" lon="7.04889">
        <ele>195.4</ele>
        <time>2020-06-27T09:37:10Z</time>
      </trkpt>
      <trkpt lat="49.11345" lon="7.04896">
        <ele>195.3</ele>
        <time>2020-06-27T09:37:11Z</time>
      </trkpt>
      <trkpt lat="49.11342" lon="7.04905">
        <ele>195.2</ele>
        <time>2020-06-27T09:37:12Z</time>
      </trkpt>
      <trkpt lat="49.11339" lon="7.04914">
        <ele>195.2</ele>
        <time>2020-06-27T09:37:13Z</time>
      </trkpt>
      <trkpt lat="49.11337" lon="7.0492">
        <ele>195.2</ele>
        <time>2020-06-27T09:37:14Z</time>
      </trkpt>
      <trkpt lat="49.11334" lon="7.04927">
        <ele>195.1</ele>
        <time>2020-06-27T09:37:15Z</time>
      </trkpt>
      <trkpt lat="49.11332" lon="7.04933">
        <ele>195.1</ele>
        <time>2020-06-27T09:37:16Z</time>
      </trkpt>
      <trkpt lat="49.11331" lon="7.0494">
        <ele>195.1</ele>
        <time>2020-06-27T09:37:17Z</time>
      </trkpt>
      <trkpt lat="49.1133" lon="7.04947">
        <ele>195.1</ele>
        <time>2020-06-27T09:37:18Z</time>
      </trkpt>
      <trkpt lat="49.11328" lon="7.04954">
        <ele>195.1</ele>
        <time>2020-06-27T09:37:19Z</time>
      </trkpt>
      <trkpt lat="49.11326" lon="7.04962">
        <ele>195.2</ele>
        <time>2020-06-27T09:37:20Z</time>
      </trkpt>
      <trkpt lat="49.11324" lon="7.04968">
        <ele>195.2</ele>
        <time>2020-06-27T09:37:21Z</time>
      </trkpt>
      <trkpt lat="49.11322" lon="7.04973">
        <ele>195.2</ele>
        <time>2020-06-27T09:37:22Z</time>
      </trkpt>
      <trkpt lat="49.11319" lon="7.04979">
        <ele>195.3</ele>
        <time>2020-06-27T09:37:23Z</time>
      </trkpt>
      <trkpt lat="49.11316" lon="7.04986">
        <ele>195.3</ele>
        <time>2020-06-27T09:37:24Z</time>
      </trkpt>
      <trkpt lat="49.11314" lon="7.04993">
        <ele>195.3</ele>
        <time>2020-06-27T09:37:25Z</time>
      </trkpt>
      <trkpt lat="49.11312" lon="7.05">
        <ele>195.3</ele>
        <time>2020-06-27T09:37:26Z</time>
      </trkpt>
      <trkpt lat="49.1131" lon="7.05007">
        <ele>195.4</ele>
        <time>2020-06-27T09:37:27Z</time>
      </trkpt>
      <trkpt lat="49.11308" lon="7.05014">
        <ele>195.4</ele>
        <time>2020-06-27T09:37:28Z</time>
      </trkpt>
      <trkpt lat="49.11307" lon="7.0502">
        <ele>195.4</ele>
        <time>2020-06-27T09:37:29Z</time>
      </trkpt>
      <trkpt lat="49.11306" lon="7.05026">
        <ele>195.3</ele>
        <time>2020-06-27T09:37:30Z</time>
      </trkpt>
      <trkpt lat="49.11304" lon="7.05032">
        <ele>195.3</ele>
        <time>2020-06-27T09:37:31Z</time>
      </trkpt>
      <trkpt lat="49.11303" lon="7.05038">
        <ele>195.2</ele>
        <time>2020-06-27T09:37:32Z</time>
      </trkpt>
      <trkpt lat="49.11302" lon="7.05045">
        <ele>195.2</ele>
        <time>2020-06-27T09:37:33Z</time>
      </trkpt>
      <trkpt lat="49.113" lon="7.05052">
        <ele>195.1</ele>
        <time>2020-06-27T09:37:34Z</time>
      </trkpt>
      <trkpt lat="49.11298" lon="7.05058">
        <ele>195.1</ele>
        <time>2020-06-27T09:37:35Z</time>
      </trkpt>
      <trkpt lat="49.11296" lon="7.05065">
        <ele>195</ele>
        <time>2020-06-27T09:37:36Z</time>
      </trkpt>
      <trkpt lat="49.11295" lon="7.0507">
        <ele>195</ele>
        <time>2020-06-27T09:37:37Z</time>
      </trkpt>
      <trkpt lat="49.11293" lon="7.05078">
        <ele>194.9</ele>
        <time>2020-06-27T09:37:38Z</time>
      </trkpt>
      <trkpt lat="49.11291" lon="7.05086">
        <ele>194.8</ele>
        <time>2020-06-27T09:37:39Z</time>
      </trkpt>
      <trkpt lat="49.11289" lon="7.05096">
        <ele>194.8</ele>
        <time>2020-06-27T09:37:40Z</time>
      </trkpt>
      <trkpt lat="49.11287" lon="7.05105">
        <ele>194.7</ele>
        <time>2020-06-27T09:37:41Z</time>
      </trkpt>
      <trkpt lat="49.11285" lon="7.05116">
        <ele>194.6</ele>
        <time>2020-06-27T09:37:42Z</time>
      </trkpt>
      <trkpt lat="49.11283" lon="7.05126">
        <ele>194.5</ele>
        <time>2020-06-27T09:37:43Z</time>
      </trkpt>
      <trkpt lat="49.11281" lon="7.05136">
        <ele>194.5</ele>
        <time>2020-06-27T09:37:44Z</time>
      </trkpt>
      <trkpt lat="49.11279" lon="7.05146">
        <ele>194.4</ele>
        <time>2020-06-27T09:37:45Z</time>
      </trkpt>
      <trkpt lat="49.11276" lon="7.05156">
        <ele>194.3</ele>
        <time>2020-06-27T09:37:46Z</time>
      </trkpt>
      <trkpt lat="49.11273" lon="7.05167">
        <ele>194.3</ele>
        <time>2020-06-27T09:37:47Z</time>
      </trkpt>
      <trkpt lat="49.1127" lon="7.05177">
        <ele>194.2</ele>
        <time>2020-06-27T09:37:48Z</time>
      </trkpt>
      <trkpt lat="49.11266" lon="7.05188">
        <ele>194.2</ele>
        <time>2020-06-27T09:37:49Z</time>
      </trkpt>
      <trkpt lat="49.11262" lon="7.05198">
        <ele>194.2</ele>
        <time>2020-06-27T09:37:50Z</time>
      </trkpt>
      <trkpt lat="49.11259" lon="7.05209">
        <ele>194.3</ele>
        <time>2020-06-27T09:37:51Z</time>
      </trkpt>
      <trkpt lat="49.11255" lon="7.05219">
        <ele>194.3</ele>
        <time>2020-06-27T09:37:52Z</time>
      </trkpt>
      <trkpt lat="49.11252" lon="7.05229">
        <ele>194.3</ele>
        <time>2020-06-27T09:37:53Z</time>
      </trkpt>
      <trkpt lat="49.11248" lon="7.05241">
        <ele>194.3</ele>
        <time>2020-06-27T09:37:54Z</time>
      </trkpt>
      <trkpt lat="49.11246" lon="7.05252">
        <ele>194.3</ele>
        <time>2020-06-27T09:37:55Z</time>
      </trkpt>
      <trkpt lat="49.11243" lon="7.05263">
        <ele>194.2</ele>
        <time>2020-06-27T09:37:56Z</time>
      </trkpt>
      <trkpt lat="49.11241" lon="7.05273">
        <ele>194.2</ele>
        <time>2020-06-27T09:37:57Z</time>
      </trkpt>
      <trkpt lat="49.11239" lon="7.05284">
        <ele>194.2</ele>
        <time>2020-06-27T09:37:58Z</time>
      </trkpt>
      <trkpt lat="49.11236" lon="7.05295">
        <ele>194.2</ele>
        <time>2020-06-27T09:37:59Z</time>
      </trkpt>
      <trkpt lat="49.11234" lon="7.05305">
        <ele>194.2</ele>
        <time>2020-06-27T09:38:00Z</time>
      </trkpt>
      <trkpt lat="49.11231" lon="7.05314">
        <ele>194.2</ele>
        <time>2020-06-27T09:38:01Z</time>
      </trkpt>
      <trkpt lat="49.11229" lon="7.05323">
        <ele>194.2</ele>
        <time>2020-06-27T09:38:02Z</time>
      </trkpt>
      <trkpt lat="49.11227" lon="7.05331">
        <ele>194.2</ele>
        <time>2020-06-27T09:38:03Z</time>
      </trkpt>
      <trkpt lat="49.11225" lon="7.0534">
        <ele>194.2</ele>
        <time>2020-06-27T09:38:04Z</time>
      </trkpt>
      <trkpt lat="49.11224" lon="7.05348">
        <ele>194.2</ele>
        <time>2020-06-27T09:38:05Z</time>
      </trkpt>
      <trkpt lat="49.11222" lon="7.05356">
        <ele>194.2</ele>
        <time>2020-06-27T09:38:06Z</time>
      </trkpt>
      <trkpt lat="49.1122" lon="7.05365">
        <ele>194.2</ele>
        <time>2020-06-27T09:38:07Z</time>
      </trkpt>
      <trkpt lat="49.11218" lon="7.05375">
        <ele>194.2</ele>
        <time>2020-06-27T09:38:08Z</time>
      </trkpt>
      <trkpt lat="49.11216" lon="7.05384">
        <ele>194.2</ele>
        <time>2020-06-27T09:38:09Z</time>
      </trkpt>
      <trkpt lat="49.11213" lon="7.05393">
        <ele>194.2</ele>
        <time>2020-06-27T09:38:10Z</time>
      </trkpt>
      <trkpt lat="49.1121" lon="7.05401">
        <ele>194.2</ele>
        <time>2020-06-27T09:38:11Z</time>
      </trkpt>
      <trkpt lat="49.11209" lon="7.05411">
        <ele>194.2</ele>
        <time>2020-06-27T09:38:12Z</time>
      </trkpt>
      <trkpt lat="49.11208" lon="7.05419">
        <ele>194.2</ele>
        <time>2020-06-27T09:38:13Z</time>
      </trkpt>
      <trkpt lat="49.11205" lon="7.05428">
        <ele>194.1</ele>
        <time>2020-06-27T09:38:14Z</time>
      </trkpt>
      <trkpt lat="49.11203" lon="7.05436">
        <ele>194.1</ele>
        <time>2020-06-27T09:38:15Z</time>
      </trkpt>
      <trkpt lat="49.11202" lon="7.05445">
        <ele>194.1</ele>
        <time>2020-06-27T09:38:16Z</time>
      </trkpt>
      <trkpt lat="49.112" lon="7.05454">
        <ele>194.1</ele>
        <time>2020-06-27T09:38:17Z</time>
      </trkpt>
      <trkpt lat="49.11198" lon="7.05463">
        <ele>194.1</ele>
        <time>2020-06-27T09:38:18Z</time>
      </trkpt>
      <trkpt lat="49.11197" lon="7.05472">
        <ele>194.1</ele>
        <time>2020-06-27T09:38:19Z</time>
      </trkpt>
      <trkpt lat="49.11196" lon="7.05482">
        <ele>194.1</ele>
        <time>2020-06-27T09:38:20Z</time>
      </trkpt>
      <trkpt lat="49.11195" lon="7.05492">
        <ele>194.1</ele>
        <time>2020-06-27T09:38:21Z</time>
      </trkpt>
      <trkpt lat="49.11193" lon="7.05501">
        <ele>194.1</ele>
        <time>2020-06-27T09:38:22Z</time>
      </trkpt>
      <trkpt lat="49.11191" lon="7.0551">
        <ele>194.1</ele>
        <time>2020-06-27T09:38:23Z</time>
      </trkpt>
      <trkpt lat="49.1119" lon="7.0552">
        <ele>194.1</ele>
        <time>2020-06-27T09:38:24Z</time>
      </trkpt>
      <trkpt lat="49.11188" lon="7.05529">
        <ele>194.1</ele>
        <time>2020-06-27T09:38:25Z</time>
      </trkpt>
      <trkpt lat="49.11187" lon="7.05537">
        <ele>194</ele>
        <time>2020-06-27T09:38:26Z</time>
      </trkpt>
      <trkpt lat="49.11185" lon="7.05546">
        <ele>194</ele>
        <time>2020-06-27T09:38:27Z</time>
      </trkpt>
      <trkpt lat="49.11184" lon="7.05555">
        <ele>194</ele>
        <time>2020-06-27T09:38:28Z</time>
      </trkpt>
      <trkpt lat="49.11183" lon="7.05564">
        <ele>194</ele>
        <time>2020-06-27T09:38:29Z</time>
      </trkpt>
      <trkpt lat="49.11183" lon="7.05574">
        <ele>193.9</ele>
        <time>2020-06-27T09:38:30Z</time>
      </trkpt>
      <trkpt lat="49.11181" lon="7.05584">
        <ele>193.9</ele>
        <time>2020-06-27T09:38:31Z</time>
      </trkpt>
      <trkpt lat="49.1118" lon="7.05594">
        <ele>193.9</ele>
        <time>2020-06-27T09:38:32Z</time>
      </trkpt>
      <trkpt lat="49.11178" lon="7.05603">
        <ele>193.9</ele>
        <time>2020-06-27T09:38:33Z</time>
      </trkpt>
      <trkpt lat="49.11178" lon="7.05612">
        <ele>193.8</ele>
        <time>2020-06-27T09:38:34Z</time>
      </trkpt>
      <trkpt lat="49.11177" lon="7.05621">
        <ele>193.8</ele>
        <time>2020-06-27T09:38:35Z</time>
      </trkpt>
      <trkpt lat="49.11176" lon="7.0563">
        <ele>193.9</ele>
        <time>2020-06-27T09:38:36Z</time>
      </trkpt>
      <trkpt lat="49.11174" lon="7.0564">
        <ele>193.9</ele>
        <time>2020-06-27T09:38:37Z</time>
      </trkpt>
      <trkpt lat="49.11172" lon="7.05649">
        <ele>194</ele>
        <time>2020-06-27T09:38:38Z</time>
      </trkpt>
      <trkpt lat="49.11171" lon="7.0566">
        <ele>194</ele>
        <time>2020-06-27T09:38:39Z</time>
      </trkpt>
      <trkpt lat="49.11171" lon="7.0567">
        <ele>194.1</ele>
        <time>2020-06-27T09:38:40Z</time>
      </trkpt>
      <trkpt lat="49.1117" lon="7.05679">
        <ele>194.1</ele>
        <time>2020-06-27T09:38:41Z</time>
      </trkpt>
      <trkpt lat="49.11169" lon="7.05688">
        <ele>194.2</ele>
        <time>2020-06-27T09:38:42Z</time>
      </trkpt>
      <trkpt lat="49.11169" lon="7.05698">
        <ele>194.2</ele>
        <time>2020-06-27T09:38:43Z</time>
      </trkpt>
      <trkpt lat="49.11168" lon="7.05707">
        <ele>194.3</ele>
        <time>2020-06-27T09:38:44Z</time>
      </trkpt>
      <trkpt lat="49.11168" lon="7.05717">
        <ele>194.3</ele>
        <time>2020-06-27T09:38:45Z</time>
      </trkpt>
      <trkpt lat="49.11169" lon="7.05726">
        <ele>194.3</ele>
        <time>2020-06-27T09:38:46Z</time>
      </trkpt>
      <trkpt lat="49.11169" lon="7.05734">
        <ele>194.3</ele>
        <time>2020-06-27T09:38:47Z</time>
      </trkpt>
      <trkpt lat="49.11169" lon="7.05742">
        <ele>194.4</ele>
        <time>2020-06-27T09:38:48Z</time>
      </trkpt>
      <trkpt lat="49.11169" lon="7.05751">
        <ele>194.4</ele>
        <time>2020-06-27T09:38:49Z</time>
      </trkpt>
      <trkpt lat="49.11169" lon="7.05761">
        <ele>194.5</ele>
        <time>2020-06-27T09:38:50Z</time>
      </trkpt>
      <trkpt lat="49.11171" lon="7.05769">
        <ele>194.5</ele>
        <time>2020-06-27T09:38:51Z</time>
      </trkpt>
      <trkpt lat="49.11172" lon="7.05779">
        <ele>194.5</ele>
        <time>2020-06-27T09:38:52Z</time>
      </trkpt>
      <trkpt lat="49.11174" lon="7.05788">
        <ele>194.5</ele>
        <time>2020-06-27T09:38:53Z</time>
      </trkpt>
      <trkpt lat="49.11174" lon="7.05797">
        <ele>194.5</ele>
        <time>2020-06-27T09:38:54Z</time>
      </trkpt>
      <trkpt lat="49.11176" lon="7.05807">
        <ele>194.5</ele>
        <time>2020-06-27T09:38:55Z</time>
      </trkpt>
      <trkpt lat="49.11178" lon="7.05816">
        <ele>194.4</ele>
        <time>2020-06-27T09:38:56Z</time>
      </trkpt>
      <trkpt lat="49.1118" lon="7.05826">
        <ele>194.4</ele>
        <time>2020-06-27T09:38:57Z</time>
      </trkpt>
      <trkpt lat="49.11183" lon="7.05835">
        <ele>194.4</ele>
        <time>2020-06-27T09:38:58Z</time>
      </trkpt>
      <trkpt lat="49.11185" lon="7.05844">
        <ele>194.3</ele>
        <time>2020-06-27T09:38:59Z</time>
      </trkpt>
      <trkpt lat="49.11187" lon="7.05853">
        <ele>194.3</ele>
        <time>2020-06-27T09:39:00Z</time>
      </trkpt>
      <trkpt lat="49.11189" lon="7.05861">
        <ele>194.3</ele>
        <time>2020-06-27T09:39:01Z</time>
      </trkpt>
      <trkpt lat="49.1119" lon="7.0587">
        <ele>194.3</ele>
        <time>2020-06-27T09:39:02Z</time>
      </trkpt>
      <trkpt lat="49.11192" lon="7.05879">
        <ele>194.3</ele>
        <time>2020-06-27T09:39:03Z</time>
      </trkpt>
      <trkpt lat="49.11194" lon="7.05887">
        <ele>194.3</ele>
        <time>2020-06-27T09:39:04Z</time>
      </trkpt>
      <trkpt lat="49.11195" lon="7.05896">
        <ele>194.3</ele>
        <time>2020-06-27T09:39:05Z</time>
      </trkpt>
      <trkpt lat="49.11196" lon="7.05904">
        <ele>194.3</ele>
        <time>2020-06-27T09:39:06Z</time>
      </trkpt>
      <trkpt lat="49.11198" lon="7.05913">
        <ele>194.3</ele>
        <time>2020-06-27T09:39:07Z</time>
      </trkpt>
      <trkpt lat="49.112" lon="7.05922">
        <ele>194.3</ele>
        <time>2020-06-27T09:39:08Z</time>
      </trkpt>
      <trkpt lat="49.11201" lon="7.0593">
        <ele>194.3</ele>
        <time>2020-06-27T09:39:09Z</time>
      </trkpt>
      <trkpt lat="49.11203" lon="7.05939">
        <ele>194.3</ele>
        <time>2020-06-27T09:39:10Z</time>
      </trkpt>
      <trkpt lat="49.11205" lon="7.05947">
        <ele>194.2</ele>
        <time>2020-06-27T09:39:11Z</time>
      </trkpt>
      <trkpt lat="49.11208" lon="7.05956">
        <ele>194.2</ele>
        <time>2020-06-27T09:39:12Z</time>
      </trkpt>
      <trkpt lat="49.1121" lon="7.05964">
        <ele>194.2</ele>
        <time>2020-06-27T09:39:13Z</time>
      </trkpt>
      <trkpt lat="49.11212" lon="7.05973">
        <ele>194.2</ele>
        <time>2020-06-27T09:39:14Z</time>
      </trkpt>
      <trkpt lat="49.11214" lon="7.05982">
        <ele>194.3</ele>
        <time>2020-06-27T09:39:15Z</time>
      </trkpt>
      <trkpt lat="49.11216" lon="7.05991">
        <ele>194.3</ele>
        <time>2020-06-27T09:39:16Z</time>
      </trkpt>
      <trkpt lat="49.11218" lon="7.06">
        <ele>194.3</ele>
        <time>2020-06-27T09:39:17Z</time>
      </trkpt>
      <trkpt lat="49.1122" lon="7.06009">
        <ele>194.3</ele>
        <time>2020-06-27T09:39:18Z</time>
      </trkpt>
      <trkpt lat="49.11222" lon="7.06018">
        <ele>194.4</ele>
        <time>2020-06-27T09:39:19Z</time>
      </trkpt>
      <trkpt lat="49.11225" lon="7.06028">
        <ele>194.4</ele>
        <time>2020-06-27T09:39:20Z</time>
      </trkpt>
      <trkpt lat="49.11227" lon="7.06037">
        <ele>194.4</ele>
        <time>2020-06-27T09:39:21Z</time>
      </trkpt>
      <trkpt lat="49.11229" lon="7.06046">
        <ele>194.4</ele>
        <time>2020-06-27T09:39:22Z</time>
      </trkpt>
      <trkpt lat="49.11231" lon="7.06055">
        <ele>194.4</ele>
        <time>2020-06-27T09:39:23Z</time>
      </trkpt>
      <trkpt lat="49.11234" lon="7.06064">
        <ele>194.4</ele>
        <time>2020-06-27T09:39:24Z</time>
      </trkpt>
      <trkpt lat="49.11236" lon="7.06073">
        <ele>194.5</ele>
        <time>2020-06-27T09:39:25Z</time>
      </trkpt>
      <trkpt lat="49.11238" lon="7.06082">
        <ele>194.5</ele>
        <time>2020-06-27T09:39:26Z</time>
      </trkpt>
      <trkpt lat="49.11239" lon="7.06091">
        <ele>194.5</ele>
        <time>2020-06-27T09:39:27Z</time>
      </trkpt>
      <trkpt lat="49.11241" lon="7.06101">
        <ele>194.5</ele>
        <time>2020-06-27T09:39:28Z</time>
      </trkpt>
      <trkpt lat="49.11243" lon="7.0611">
        <ele>194.4</ele>
        <time>2020-06-27T09:39:29Z</time>
      </trkpt>
      <trkpt lat="49.11246" lon="7.0612">
        <ele>194.4</ele>
        <time>2020-06-27T09:39:30Z</time>
      </trkpt>
      <trkpt lat="49.11248" lon="7.06129">
        <ele>194.4</ele>
        <time>2020-06-27T09:39:31Z</time>
      </trkpt>
      <trkpt lat="49.11251" lon="7.06139">
        <ele>194.4</ele>
        <time>2020-06-27T09:39:32Z</time>
      </trkpt>
      <trkpt lat="49.11254" lon="7.06148">
        <ele>194.4</ele>
        <time>2020-06-27T09:39:33Z</time>
      </trkpt>
      <trkpt lat="49.11256" lon="7.06158">
        <ele>194.4</ele>
        <time>2020-06-27T09:39:34Z</time>
      </trkpt>
      <trkpt lat="49.11259" lon="7.06166">
        <ele>194.4</ele>
        <time>2020-06-27T09:39:35Z</time>
      </trkpt>
      <trkpt lat="49.11263" lon="7.06175">
        <ele>194.5</ele>
        <time>2020-06-27T09:39:36Z</time>
      </trkpt>
      <trkpt lat="49.11265" lon="7.06184">
        <ele>194.6</ele>
        <time>2020-06-27T09:39:37Z</time>
      </trkpt>
      <trkpt lat="49.11268" lon="7.06193">
        <ele>194.7</ele>
        <time>2020-06-27T09:39:38Z</time>
      </trkpt>
      <trkpt lat="49.1127" lon="7.06202">
        <ele>194.7</ele>
        <time>2020-06-27T09:39:39Z</time>
      </trkpt>
      <trkpt lat="49.11273" lon="7.06211">
        <ele>194.8</ele>
        <time>2020-06-27T09:39:40Z</time>
      </trkpt>
      <trkpt lat="49.11275" lon="7.06219">
        <ele>194.8</ele>
        <time>2020-06-27T09:39:41Z</time>
      </trkpt>
      <trkpt lat="49.11278" lon="7.06228">
        <ele>194.9</ele>
        <time>2020-06-27T09:39:42Z</time>
      </trkpt>
      <trkpt lat="49.1128" lon="7.06236">
        <ele>195</ele>
        <time>2020-06-27T09:39:43Z</time>
      </trkpt>
      <trkpt lat="49.11282" lon="7.06246">
        <ele>195</ele>
        <time>2020-06-27T09:39:44Z</time>
      </trkpt>
      <trkpt lat="49.11285" lon="7.06254">
        <ele>195</ele>
        <time>2020-06-27T09:39:45Z</time>
      </trkpt>
      <trkpt lat="49.11287" lon="7.06263">
        <ele>195</ele>
        <time>2020-06-27T09:39:46Z</time>
      </trkpt>
      <trkpt lat="49.11289" lon="7.06272">
        <ele>195.1</ele>
        <time>2020-06-27T09:39:47Z</time>
      </trkpt>
      <trkpt lat="49.11292" lon="7.06281">
        <ele>195.1</ele>
        <time>2020-06-27T09:39:48Z</time>
      </trkpt>
      <trkpt lat="49.11295" lon="7.06289">
        <ele>195.2</ele>
        <time>2020-06-27T09:39:49Z</time>
      </trkpt>
      <trkpt lat="49.11297" lon="7.06297">
        <ele>195.3</ele>
        <time>2020-06-27T09:39:50Z</time>
      </trkpt>
      <trkpt lat="49.11301" lon="7.06305">
        <ele>195.4</ele>
        <time>2020-06-27T09:39:51Z</time>
      </trkpt>
      <trkpt lat="49.11304" lon="7.06313">
        <ele>195.5</ele>
        <time>2020-06-27T09:39:52Z</time>
      </trkpt>
      <trkpt lat="49.11308" lon="7.06321">
        <ele>195.5</ele>
        <time>2020-06-27T09:39:53Z</time>
      </trkpt>
      <trkpt lat="49.11311" lon="7.06329">
        <ele>195.5</ele>
        <time>2020-06-27T09:39:54Z</time>
      </trkpt>
      <trkpt lat="49.11314" lon="7.06337">
        <ele>195.4</ele>
        <time>2020-06-27T09:39:55Z</time>
      </trkpt>
      <trkpt lat="49.11316" lon="7.06345">
        <ele>195.4</ele>
        <time>2020-06-27T09:39:56Z</time>
      </trkpt>
      <trkpt lat="49.11318" lon="7.06354">
        <ele>195.4</ele>
        <time>2020-06-27T09:39:57Z</time>
      </trkpt>
      <trkpt lat="49.11321" lon="7.06362">
        <ele>195.4</ele>
        <time>2020-06-27T09:39:58Z</time>
      </trkpt>
      <trkpt lat="49.11325" lon="7.06369">
        <ele>195.4</ele>
        <time>2020-06-27T09:39:59Z</time>
      </trkpt>
      <trkpt lat="49.11328" lon="7.06376">
        <ele>195.4</ele>
        <time>2020-06-27T09:40:00Z</time>
      </trkpt>
      <trkpt lat="49.11331" lon="7.06383">
        <ele>195.4</ele>
        <time>2020-06-27T09:40:01Z</time>
      </trkpt>
      <trkpt lat="49.11334" lon="7.0639">
        <ele>195.4</ele>
        <time>2020-06-27T09:40:02Z</time>
      </trkpt>
      <trkpt lat="49.11336" lon="7.06399">
        <ele>195.4</ele>
        <time>2020-06-27T09:40:03Z</time>
      </trkpt>
      <trkpt lat="49.11339" lon="7.06408">
        <ele>195.5</ele>
        <time>2020-06-27T09:40:04Z</time>
      </trkpt>
      <trkpt lat="49.11341" lon="7.06417">
        <ele>195.5</ele>
        <time>2020-06-27T09:40:05Z</time>
      </trkpt>
      <trkpt lat="49.11343" lon="7.06425">
        <ele>195.6</ele>
        <time>2020-06-27T09:40:06Z</time>
      </trkpt>
      <trkpt lat="49.11346" lon="7.06434">
        <ele>195.6</ele>
        <time>2020-06-27T09:40:07Z</time>
      </trkpt>
      <trkpt lat="49.11348" lon="7.06441">
        <ele>195.6</ele>
        <time>2020-06-27T09:40:08Z</time>
      </trkpt>
      <trkpt lat="49.1135" lon="7.06449">
        <ele>195.6</ele>
        <time>2020-06-27T09:40:09Z</time>
      </trkpt>
      <trkpt lat="49.11352" lon="7.06456">
        <ele>195.6</ele>
        <time>2020-06-27T09:40:10Z</time>
      </trkpt>
      <trkpt lat="49.11354" lon="7.06464">
        <ele>195.6</ele>
        <time>2020-06-27T09:40:11Z</time>
      </trkpt>
      <trkpt lat="49.11357" lon="7.06471">
        <ele>195.6</ele>
        <time>2020-06-27T09:40:12Z</time>
      </trkpt>
      <trkpt lat="49.11359" lon="7.06478">
        <ele>195.6</ele>
        <time>2020-06-27T09:40:13Z</time>
      </trkpt>
      <trkpt lat="49.1136" lon="7.06486">
        <ele>195.6</ele>
        <time>2020-06-27T09:40:14Z</time>
      </trkpt>
      <trkpt lat="49.11362" lon="7.06494">
        <ele>195.6</ele>
        <time>2020-06-27T09:40:15Z</time>
      </trkpt>
      <trkpt lat="49.11363" lon="7.06503">
        <ele>195.6</ele>
        <time>2020-06-27T09:40:16Z</time>
      </trkpt>
      <trkpt lat="49.11365" lon="7.06511">
        <ele>195.7</ele>
        <time>2020-06-27T09:40:17Z</time>
      </trkpt>
      <trkpt lat="49.11366" lon="7.0652">
        <ele>195.7</ele>
        <time>2020-06-27T09:40:18Z</time>
      </trkpt>
      <trkpt lat="49.11367" lon="7.06528">
        <ele>195.8</ele>
        <time>2020-06-27T09:40:19Z</time>
      </trkpt>
      <trkpt lat="49.11368" lon="7.06537">
        <ele>195.9</ele>
        <time>2020-06-27T09:40:20Z</time>
      </trkpt>
      <trkpt lat="49.11369" lon="7.06546">
        <ele>195.9</ele>
        <time>2020-06-27T09:40:21Z</time>
      </trkpt>
      <trkpt lat="49.11369" lon="7.06554">
        <ele>195.9</ele>
        <time>2020-06-27T09:40:22Z</time>
      </trkpt>
      <trkpt lat="49.1137" lon="7.06562">
        <ele>195.9</ele>
        <time>2020-06-27T09:40:23Z</time>
      </trkpt>
      <trkpt lat="49.11371" lon="7.0657">
        <ele>195.9</ele>
        <time>2020-06-27T09:40:24Z</time>
      </trkpt>
      <trkpt lat="49.11372" lon="7.06578">
        <ele>195.9</ele>
        <time>2020-06-27T09:40:25Z</time>
      </trkpt>
      <trkpt lat="49.11373" lon="7.06586">
        <ele>195.9</ele>
        <time>2020-06-27T09:40:26Z</time>
      </trkpt>
      <trkpt lat="49.11373" lon="7.06595">
        <ele>195.9</ele>
        <time>2020-06-27T09:40:27Z</time>
      </trkpt>
      <trkpt lat="49.11374" lon="7.06603">
        <ele>195.9</ele>
        <time>2020-06-27T09:40:28Z</time>
      </trkpt>
      <trkpt lat="49.11374" lon="7.06611">
        <ele>195.9</ele>
        <time>2020-06-27T09:40:29Z</time>
      </trkpt>
      <trkpt lat="49.11373" lon="7.06619">
        <ele>195.9</ele>
        <time>2020-06-27T09:40:30Z</time>
      </trkpt>
      <trkpt lat="49.11371" lon="7.06627">
        <ele>195.9</ele>
        <time>2020-06-27T09:40:31Z</time>
      </trkpt>
      <trkpt lat="49.1137" lon="7.06635">
        <ele>195.9</ele>
        <time>2020-06-27T09:40:32Z</time>
      </trkpt>
      <trkpt lat="49.11369" lon="7.06643">
        <ele>195.9</ele>
        <time>2020-06-27T09:40:33Z</time>
      </trkpt>
      <trkpt lat="49.11367" lon="7.0665">
        <ele>195.9</ele>
        <time>2020-06-27T09:40:34Z</time>
      </trkpt>
      <trkpt lat="49.11366" lon="7.06659">
        <ele>195.9</ele>
        <time>2020-06-27T09:40:35Z</time>
      </trkpt>
      <trkpt lat="49.11365" lon="7.06667">
        <ele>195.9</ele>
        <time>2020-06-27T09:40:36Z</time>
      </trkpt>
      <trkpt lat="49.11362" lon="7.06674">
        <ele>195.9</ele>
        <time>2020-06-27T09:40:37Z</time>
      </trkpt>
      <trkpt lat="49.11359" lon="7.06681">
        <ele>195.8</ele>
        <time>2020-06-27T09:40:38Z</time>
      </trkpt>
      <trkpt lat="49.11356" lon="7.06687">
        <ele>195.8</ele>
        <time>2020-06-27T09:40:39Z</time>
      </trkpt>
      <trkpt lat="49.11354" lon="7.06695">
        <ele>195.8</ele>
        <time>2020-06-27T09:40:40Z</time>
      </trkpt>
      <trkpt lat="49.11352" lon="7.06702">
        <ele>195.8</ele>
        <time>2020-06-27T09:40:41Z</time>
      </trkpt>
      <trkpt lat="49.11349" lon="7.06709">
        <ele>195.8</ele>
        <time>2020-06-27T09:40:42Z</time>
      </trkpt>
      <trkpt lat="49.11346" lon="7.06716">
        <ele>195.8</ele>
        <time>2020-06-27T09:40:43Z</time>
      </trkpt>
      <trkpt lat="49.11343" lon="7.06723">
        <ele>195.8</ele>
        <time>2020-06-27T09:40:44Z</time>
      </trkpt>
      <trkpt lat="49.1134" lon="7.06731">
        <ele>195.7</ele>
        <time>2020-06-27T09:40:45Z</time>
      </trkpt>
      <trkpt lat="49.11338" lon="7.06738">
        <ele>195.7</ele>
        <time>2020-06-27T09:40:46Z</time>
      </trkpt>
      <trkpt lat="49.11335" lon="7.06746">
        <ele>195.7</ele>
        <time>2020-06-27T09:40:47Z</time>
      </trkpt>
      <trkpt lat="49.11332" lon="7.06753">
        <ele>195.6</ele>
        <time>2020-06-27T09:40:48Z</time>
      </trkpt>
      <trkpt lat="49.1133" lon="7.0676">
        <ele>195.6</ele>
        <time>2020-06-27T09:40:49Z</time>
      </trkpt>
      <trkpt lat="49.11327" lon="7.06768">
        <ele>195.6</ele>
        <time>2020-06-27T09:40:50Z</time>
      </trkpt>
      <trkpt lat="49.11323" lon="7.06773">
        <ele>195.5</ele>
        <time>2020-06-27T09:40:51Z</time>
      </trkpt>
      <trkpt lat="49.1132" lon="7.0678">
        <ele>195.5</ele>
        <time>2020-06-27T09:40:52Z</time>
      </trkpt>
      <trkpt lat="49.11317" lon="7.06787">
        <ele>195.4</ele>
        <time>2020-06-27T09:40:53Z</time>
      </trkpt>
      <trkpt lat="49.11314" lon="7.06794">
        <ele>195.4</ele>
        <time>2020-06-27T09:40:54Z</time>
      </trkpt>
      <trkpt lat="49.11312" lon="7.06802">
        <ele>195.4</ele>
        <time>2020-06-27T09:40:55Z</time>
      </trkpt>
      <trkpt lat="49.11309" lon="7.0681">
        <ele>195.3</ele>
        <time>2020-06-27T09:40:56Z</time>
      </trkpt>
      <trkpt lat="49.11307" lon="7.06818">
        <ele>195.3</ele>
        <time>2020-06-27T09:40:57Z</time>
      </trkpt>
      <trkpt lat="49.11303" lon="7.06825">
        <ele>195.3</ele>
        <time>2020-06-27T09:40:58Z</time>
      </trkpt>
      <trkpt lat="49.113" lon="7.06833">
        <ele>195.2</ele>
        <time>2020-06-27T09:40:59Z</time>
      </trkpt>
      <trkpt lat="49.11297" lon="7.0684">
        <ele>195.2</ele>
        <time>2020-06-27T09:41:00Z</time>
      </trkpt>
      <trkpt lat="49.11294" lon="7.06847">
        <ele>195.2</ele>
        <time>2020-06-27T09:41:01Z</time>
      </trkpt>
      <trkpt lat="49.11291" lon="7.06853">
        <ele>195.2</ele>
        <time>2020-06-27T09:41:02Z</time>
      </trkpt>
      <trkpt lat="49.11288" lon="7.0686">
        <ele>195.2</ele>
        <time>2020-06-27T09:41:03Z</time>
      </trkpt>
      <trkpt lat="49.11285" lon="7.06866">
        <ele>195.2</ele>
        <time>2020-06-27T09:41:04Z</time>
      </trkpt>
      <trkpt lat="49.11282" lon="7.06872">
        <ele>195.2</ele>
        <time>2020-06-27T09:41:05Z</time>
      </trkpt>
      <trkpt lat="49.11279" lon="7.06879">
        <ele>195.3</ele>
        <time>2020-06-27T09:41:06Z</time>
      </trkpt>
      <trkpt lat="49.11276" lon="7.06885">
        <ele>195.3</ele>
        <time>2020-06-27T09:41:07Z</time>
      </trkpt>
      <trkpt lat="49.11274" lon="7.06893">
        <ele>195.3</ele>
        <time>2020-06-27T09:41:08Z</time>
      </trkpt>
      <trkpt lat="49.11271" lon="7.06901">
        <ele>195.3</ele>
        <time>2020-06-27T09:41:09Z</time>
      </trkpt>
      <trkpt lat="49.11268" lon="7.06908">
        <ele>195.2</ele>
        <time>2020-06-27T09:41:10Z</time>
      </trkpt>
      <trkpt lat="49.11265" lon="7.06914">
        <ele>195.2</ele>
        <time>2020-06-27T09:41:11Z</time>
      </trkpt>
      <trkpt lat="49.11262" lon="7.0692">
        <ele>195.3</ele>
        <time>2020-06-27T09:41:12Z</time>
      </trkpt>
      <trkpt lat="49.11259" lon="7.06926">
        <ele>195.3</ele>
        <time>2020-06-27T09:41:13Z</time>
      </trkpt>
      <trkpt lat="49.11255" lon="7.06932">
        <ele>195.3</ele>
        <time>2020-06-27T09:41:14Z</time>
      </trkpt>
      <trkpt lat="49.11251" lon="7.06937">
        <ele>195.3</ele>
        <time>2020-06-27T09:41:15Z</time>
      </trkpt>
      <trkpt lat="49.11248" lon="7.06944">
        <ele>195.3</ele>
        <time>2020-06-27T09:41:16Z</time>
      </trkpt>
      <trkpt lat="49.11244" lon="7.06951">
        <ele>195.3</ele>
        <time>2020-06-27T09:41:17Z</time>
      </trkpt>
      <trkpt lat="49.11241" lon="7.06958">
        <ele>195.3</ele>
        <time>2020-06-27T09:41:18Z</time>
      </trkpt>
      <trkpt lat="49.11238" lon="7.06964">
        <ele>195.3</ele>
        <time>2020-06-27T09:41:19Z</time>
      </trkpt>
      <trkpt lat="49.11235" lon="7.06971">
        <ele>195.3</ele>
        <time>2020-06-27T09:41:20Z</time>
      </trkpt>
      <trkpt lat="49.11232" lon="7.06978">
        <ele>195.3</ele>
        <time>2020-06-27T09:41:21Z</time>
      </trkpt>
      <trkpt lat="49.11229" lon="7.06985">
        <ele>195.2</ele>
        <time>2020-06-27T09:41:22Z</time>
      </trkpt>
      <trkpt lat="49.11226" lon="7.06992">
        <ele>195.2</ele>
        <time>2020-06-27T09:41:23Z</time>
      </trkpt>
      <trkpt lat="49.11223" lon="7.06999">
        <ele>195.2</ele>
        <time>2020-06-27T09:41:24Z</time>
      </trkpt>
      <trkpt lat="49.1122" lon="7.07004">
        <ele>195.2</ele>
        <time>2020-06-27T09:41:25Z</time>
      </trkpt>
      <trkpt lat="49.11216" lon="7.0701">
        <ele>195.2</ele>
        <time>2020-06-27T09:41:26Z</time>
      </trkpt>
      <trkpt lat="49.11214" lon="7.07017">
        <ele>195.2</ele>
        <time>2020-06-27T09:41:27Z</time>
      </trkpt>
      <trkpt lat="49.1121" lon="7.07023">
        <ele>195.1</ele>
        <time>2020-06-27T09:41:28Z</time>
      </trkpt>
      <trkpt lat="49.11207" lon="7.07031">
        <ele>195.1</ele>
        <time>2020-06-27T09:41:29Z</time>
      </trkpt>
      <trkpt lat="49.11203" lon="7.07038">
        <ele>195.1</ele>
        <time>2020-06-27T09:41:30Z</time>
      </trkpt>
      <trkpt lat="49.11198" lon="7.07045">
        <ele>195.1</ele>
        <time>2020-06-27T09:41:31Z</time>
      </trkpt>
      <trkpt lat="49.11194" lon="7.07052">
        <ele>195.2</ele>
        <time>2020-06-27T09:41:32Z</time>
      </trkpt>
      <trkpt lat="49.1119" lon="7.07059">
        <ele>195.2</ele>
        <time>2020-06-27T09:41:33Z</time>
      </trkpt>
      <trkpt lat="49.11186" lon="7.07066">
        <ele>195.2</ele>
        <time>2020-06-27T09:41:34Z</time>
      </trkpt>
      <trkpt lat="49.11183" lon="7.07072">
        <ele>195.2</ele>
        <time>2020-06-27T09:41:35Z</time>
      </trkpt>
      <trkpt lat="49.11179" lon="7.07077">
        <ele>195.3</ele>
        <time>2020-06-27T09:41:36Z</time>
      </trkpt>
      <trkpt lat="49.11174" lon="7.07081">
        <ele>195.3</ele>
        <time>2020-06-27T09:41:37Z</time>
      </trkpt>
      <trkpt lat="49.1117" lon="7.07088">
        <ele>195.3</ele>
        <time>2020-06-27T09:41:38Z</time>
      </trkpt>
      <trkpt lat="49.11166" lon="7.07094">
        <ele>195.2</ele>
        <time>2020-06-27T09:41:39Z</time>
      </trkpt>
      <trkpt lat="49.11162" lon="7.071">
        <ele>195.2</ele>
        <time>2020-06-27T09:41:40Z</time>
      </trkpt>
      <trkpt lat="49.11157" lon="7.07107">
        <ele>195.2</ele>
        <time>2020-06-27T09:41:41Z</time>
      </trkpt>
      <trkpt lat="49.11153" lon="7.07113">
        <ele>195.2</ele>
        <time>2020-06-27T09:41:42Z</time>
      </trkpt>
      <trkpt lat="49.11148" lon="7.07119">
        <ele>195.2</ele>
        <time>2020-06-27T09:41:43Z</time>
      </trkpt>
      <trkpt lat="49.11143" lon="7.07126">
        <ele>195.3</ele>
        <time>2020-06-27T09:41:44Z</time>
      </trkpt>
      <trkpt lat="49.11137" lon="7.07132">
        <ele>195.3</ele>
        <time>2020-06-27T09:41:45Z</time>
      </trkpt>
      <trkpt lat="49.11133" lon="7.07138">
        <ele>195.3</ele>
        <time>2020-06-27T09:41:46Z</time>
      </trkpt>
      <trkpt lat="49.11128" lon="7.07142">
        <ele>195.3</ele>
        <time>2020-06-27T09:41:47Z</time>
      </trkpt>
      <trkpt lat="49.11123" lon="7.07147">
        <ele>195.3</ele>
        <time>2020-06-27T09:41:48Z</time>
      </trkpt>
      <trkpt lat="49.11118" lon="7.0715">
        <ele>195.3</ele>
        <time>2020-06-27T09:41:49Z</time>
      </trkpt>
      <trkpt lat="49.11114" lon="7.07156">
        <ele>195.3</ele>
        <time>2020-06-27T09:41:50Z</time>
      </trkpt>
      <trkpt lat="49.11109" lon="7.0716">
        <ele>195.3</ele>
        <time>2020-06-27T09:41:51Z</time>
      </trkpt>
      <trkpt lat="49.11103" lon="7.07164">
        <ele>195.3</ele>
        <time>2020-06-27T09:41:52Z</time>
      </trkpt>
      <trkpt lat="49.11097" lon="7.07166">
        <ele>195.2</ele>
        <time>2020-06-27T09:41:53Z</time>
      </trkpt>
      <trkpt lat="49.11091" lon="7.07171">
        <ele>195.2</ele>
        <time>2020-06-27T09:41:54Z</time>
      </trkpt>
      <trkpt lat="49.11086" lon="7.07177">
        <ele>195.2</ele>
        <time>2020-06-27T09:41:55Z</time>
      </trkpt>
      <trkpt lat="49.1108" lon="7.07179">
        <ele>195.2</ele>
        <time>2020-06-27T09:41:56Z</time>
      </trkpt>
      <trkpt lat="49.11074" lon="7.07183">
        <ele>195.2</ele>
        <time>2020-06-27T09:41:57Z</time>
      </trkpt>
      <trkpt lat="49.11068" lon="7.07186">
        <ele>195.3</ele>
        <time>2020-06-27T09:41:58Z</time>
      </trkpt>
      <trkpt lat="49.11063" lon="7.07189">
        <ele>195.3</ele>
        <time>2020-06-27T09:41:59Z</time>
      </trkpt>
      <trkpt lat="49.11057" lon="7.07193">
        <ele>195.4</ele>
        <time>2020-06-27T09:42:00Z</time>
      </trkpt>
      <trkpt lat="49.11051" lon="7.07196">
        <ele>195.4</ele>
        <time>2020-06-27T09:42:01Z</time>
      </trkpt>
      <trkpt lat="49.11045" lon="7.07199">
        <ele>195.4</ele>
        <time>2020-06-27T09:42:02Z</time>
      </trkpt>
      <trkpt lat="49.1104" lon="7.07203">
        <ele>195.4</ele>
        <time>2020-06-27T09:42:03Z</time>
      </trkpt>
      <trkpt lat="49.11034" lon="7.07205">
        <ele>195.4</ele>
        <time>2020-06-27T09:42:04Z</time>
      </trkpt>
      <trkpt lat="49.11027" lon="7.07206">
        <ele>195.3</ele>
        <time>2020-06-27T09:42:05Z</time>
      </trkpt>
      <trkpt lat="49.11022" lon="7.07206">
        <ele>195.3</ele>
        <time>2020-06-27T09:42:06Z</time>
      </trkpt>
      <trkpt lat="49.11016" lon="7.07207">
        <ele>195.4</ele>
        <time>2020-06-27T09:42:07Z</time>
      </trkpt>
      <trkpt lat="49.11011" lon="7.07207">
        <ele>195.4</ele>
        <time>2020-06-27T09:42:08Z</time>
      </trkpt>
      <trkpt lat="49.11005" lon="7.07208">
        <ele>195.4</ele>
        <time>2020-06-27T09:42:09Z</time>
      </trkpt>
      <trkpt lat="49.11" lon="7.07207">
        <ele>195.4</ele>
        <time>2020-06-27T09:42:10Z</time>
      </trkpt>
      <trkpt lat="49.10994" lon="7.07209">
        <ele>195.4</ele>
        <time>2020-06-27T09:42:11Z</time>
      </trkpt>
      <trkpt lat="49.10988" lon="7.07209">
        <ele>195.4</ele>
        <time>2020-06-27T09:42:12Z</time>
      </trkpt>
      <trkpt lat="49.10983" lon="7.0721">
        <ele>195.4</ele>
        <time>2020-06-27T09:42:13Z</time>
      </trkpt>
      <trkpt lat="49.10977" lon="7.07212">
        <ele>195.4</ele>
        <time>2020-06-27T09:42:14Z</time>
      </trkpt>
      <trkpt lat="49.10971" lon="7.07212">
        <ele>195.4</ele>
        <time>2020-06-27T09:42:15Z</time>
      </trkpt>
      <trkpt lat="49.10965" lon="7.07212">
        <ele>195.4</ele>
        <time>2020-06-27T09:42:16Z</time>
      </trkpt>
      <trkpt lat="49.1096" lon="7.07212">
        <ele>195.4</ele>
        <time>2020-06-27T09:42:17Z</time>
      </trkpt>
      <trkpt lat="49.10955" lon="7.07212">
        <ele>195.5</ele>
        <time>2020-06-27T09:42:18Z</time>
      </trkpt>
      <trkpt lat="49.10949" lon="7.07211">
        <ele>195.5</ele>
        <time>2020-06-27T09:42:19Z</time>
      </trkpt>
      <trkpt lat="49.10943" lon="7.07209">
        <ele>195.5</ele>
        <time>2020-06-27T09:42:20Z</time>
      </trkpt>
      <trkpt lat="49.10938" lon="7.0721">
        <ele>195.5</ele>
        <time>2020-06-27T09:42:21Z</time>
      </trkpt>
      <trkpt lat="49.10931" lon="7.07212">
        <ele>195.5</ele>
        <time>2020-06-27T09:42:22Z</time>
      </trkpt>
      <trkpt lat="49.10925" lon="7.07215">
        <ele>195.6</ele>
        <time>2020-06-27T09:42:23Z</time>
      </trkpt>
      <trkpt lat="49.1092" lon="7.07214">
        <ele>195.6</ele>
        <time>2020-06-27T09:42:24Z</time>
      </trkpt>
      <trkpt lat="49.10914" lon="7.07215">
        <ele>195.6</ele>
        <time>2020-06-27T09:42:25Z</time>
      </trkpt>
      <trkpt lat="49.10908" lon="7.07217">
        <ele>195.6</ele>
        <time>2020-06-27T09:42:26Z</time>
      </trkpt>
      <trkpt lat="49.10902" lon="7.07216">
        <ele>195.6</ele>
        <time>2020-06-27T09:42:27Z</time>
      </trkpt>
      <trkpt lat="49.10896" lon="7.07216">
        <ele>195.7</ele>
        <time>2020-06-27T09:42:28Z</time>
      </trkpt>
      <trkpt lat="49.1089" lon="7.07215">
        <ele>195.7</ele>
        <time>2020-06-27T09:42:29Z</time>
      </trkpt>
      <trkpt lat="49.10884" lon="7.07215">
        <ele>195.7</ele>
        <time>2020-06-27T09:42:30Z</time>
      </trkpt>
      <trkpt lat="49.10878" lon="7.07215">
        <ele>195.7</ele>
        <time>2020-06-27T09:42:31Z</time>
      </trkpt>
      <trkpt lat="49.10872" lon="7.07214">
        <ele>195.6</ele>
        <time>2020-06-27T09:42:32Z</time>
      </trkpt>
      <trkpt lat="49.10866" lon="7.07213">
        <ele>195.6</ele>
        <time>2020-06-27T09:42:33Z</time>
      </trkpt>
      <trkpt lat="49.1086" lon="7.07212">
        <ele>195.6</ele>
        <time>2020-06-27T09:42:34Z</time>
      </trkpt>
      <trkpt lat="49.10854" lon="7.07212">
        <ele>195.6</ele>
        <time>2020-06-27T09:42:35Z</time>
      </trkpt>
      <trkpt lat="49.10848" lon="7.07209">
        <ele>195.6</ele>
        <time>2020-06-27T09:42:36Z</time>
      </trkpt>
      <trkpt lat="49.10842" lon="7.07207">
        <ele>195.6</ele>
        <time>2020-06-27T09:42:37Z</time>
      </trkpt>
      <trkpt lat="49.10836" lon="7.07205">
        <ele>195.6</ele>
        <time>2020-06-27T09:42:38Z</time>
      </trkpt>
      <trkpt lat="49.10831" lon="7.07205">
        <ele>195.7</ele>
        <time>2020-06-27T09:42:39Z</time>
      </trkpt>
      <trkpt lat="49.10825" lon="7.07204">
        <ele>195.7</ele>
        <time>2020-06-27T09:42:40Z</time>
      </trkpt>
      <trkpt lat="49.1082" lon="7.07204">
        <ele>195.7</ele>
        <time>2020-06-27T09:42:41Z</time>
      </trkpt>
      <trkpt lat="49.10815" lon="7.072">
        <ele>195.7</ele>
        <time>2020-06-27T09:42:42Z</time>
      </trkpt>
      <trkpt lat="49.10809" lon="7.07199">
        <ele>195.7</ele>
        <time>2020-06-27T09:42:43Z</time>
      </trkpt>
      <trkpt lat="49.10803" lon="7.07199">
        <ele>195.8</ele>
        <time>2020-06-27T09:42:44Z</time>
      </trkpt>
      <trkpt lat="49.10797" lon="7.07198">
        <ele>195.8</ele>
        <time>2020-06-27T09:42:45Z</time>
      </trkpt>
      <trkpt lat="49.10791" lon="7.07198">
        <ele>195.8</ele>
        <time>2020-06-27T09:42:46Z</time>
      </trkpt>
      <trkpt lat="49.10786" lon="7.07197">
        <ele>195.8</ele>
        <time>2020-06-27T09:42:47Z</time>
      </trkpt>
      <trkpt lat="49.1078" lon="7.07196">
        <ele>195.8</ele>
        <time>2020-06-27T09:42:48Z</time>
      </trkpt>
      <trkpt lat="49.10774" lon="7.07196">
        <ele>195.8</ele>
        <time>2020-06-27T09:42:49Z</time>
      </trkpt>
      <trkpt lat="49.10768" lon="7.07195">
        <ele>195.8</ele>
        <time>2020-06-27T09:42:50Z</time>
      </trkpt>
      <trkpt lat="49.10762" lon="7.07195">
        <ele>195.8</ele>
        <time>2020-06-27T09:42:51Z</time>
      </trkpt>
      <trkpt lat="49.10755" lon="7.07196">
        <ele>195.8</ele>
        <time>2020-06-27T09:42:52Z</time>
      </trkpt>
      <trkpt lat="49.10749" lon="7.07196">
        <ele>195.9</ele>
        <time>2020-06-27T09:42:53Z</time>
      </trkpt>
      <trkpt lat="49.10743" lon="7.07196">
        <ele>195.9</ele>
        <time>2020-06-27T09:42:54Z</time>
      </trkpt>
      <trkpt lat="49.10737" lon="7.07196">
        <ele>195.9</ele>
        <time>2020-06-27T09:42:55Z</time>
      </trkpt>
      <trkpt lat="49.10731" lon="7.07196">
        <ele>195.9</ele>
        <time>2020-06-27T09:42:56Z</time>
      </trkpt>
      <trkpt lat="49.10726" lon="7.07197">
        <ele>195.9</ele>
        <time>2020-06-27T09:42:57Z</time>
      </trkpt>
      <trkpt lat="49.1072" lon="7.07198">
        <ele>195.9</ele>
        <time>2020-06-27T09:42:58Z</time>
      </trkpt>
      <trkpt lat="49.10714" lon="7.07199">
        <ele>195.9</ele>
        <time>2020-06-27T09:42:59Z</time>
      </trkpt>
      <trkpt lat="49.10709" lon="7.07201">
        <ele>195.9</ele>
        <time>2020-06-27T09:43:00Z</time>
      </trkpt>
      <trkpt lat="49.10704" lon="7.07202">
        <ele>195.9</ele>
        <time>2020-06-27T09:43:01Z</time>
      </trkpt>
      <trkpt lat="49.107" lon="7.07203">
        <ele>195.9</ele>
        <time>2020-06-27T09:43:02Z</time>
      </trkpt>
      <trkpt lat="49.10693" lon="7.07208">
        <ele>195.9</ele>
        <time>2020-06-27T09:43:03Z</time>
      </trkpt>
      <trkpt lat="49.1069" lon="7.07211">
        <ele>195.9</ele>
        <time>2020-06-27T09:43:04Z</time>
      </trkpt>
      <trkpt lat="49.10684" lon="7.07214">
        <ele>195.9</ele>
        <time>2020-06-27T09:43:05Z</time>
      </trkpt>
      <trkpt lat="49.10678" lon="7.07216">
        <ele>195.8</ele>
        <time>2020-06-27T09:43:06Z</time>
      </trkpt>
      <trkpt lat="49.10672" lon="7.07218">
        <ele>195.8</ele>
        <time>2020-06-27T09:43:07Z</time>
      </trkpt>
      <trkpt lat="49.10666" lon="7.0722">
        <ele>195.7</ele>
        <time>2020-06-27T09:43:08Z</time>
      </trkpt>
      <trkpt lat="49.10659" lon="7.07222">
        <ele>195.6</ele>
        <time>2020-06-27T09:43:09Z</time>
      </trkpt>
      <trkpt lat="49.10653" lon="7.07224">
        <ele>195.6</ele>
        <time>2020-06-27T09:43:10Z</time>
      </trkpt>
      <trkpt lat="49.10648" lon="7.07225">
        <ele>195.5</ele>
        <time>2020-06-27T09:43:11Z</time>
      </trkpt>
      <trkpt lat="49.10642" lon="7.07228">
        <ele>195.5</ele>
        <time>2020-06-27T09:43:12Z</time>
      </trkpt>
      <trkpt lat="49.10637" lon="7.0723">
        <ele>195.4</ele>
        <time>2020-06-27T09:43:13Z</time>
      </trkpt>
      <trkpt lat="49.10631" lon="7.07234">
        <ele>195.4</ele>
        <time>2020-06-27T09:43:14Z</time>
      </trkpt>
      <trkpt lat="49.10625" lon="7.07238">
        <ele>195.4</ele>
        <time>2020-06-27T09:43:15Z</time>
      </trkpt>
      <trkpt lat="49.10619" lon="7.07242">
        <ele>195.4</ele>
        <time>2020-06-27T09:43:16Z</time>
      </trkpt>
      <trkpt lat="49.10614" lon="7.07244">
        <ele>195.3</ele>
        <time>2020-06-27T09:43:17Z</time>
      </trkpt>
      <trkpt lat="49.10608" lon="7.07247">
        <ele>195.3</ele>
        <time>2020-06-27T09:43:18Z</time>
      </trkpt>
      <trkpt lat="49.10604" lon="7.07248">
        <ele>195.3</ele>
        <time>2020-06-27T09:43:19Z</time>
      </trkpt>
      <trkpt lat="49.106" lon="7.07251">
        <ele>195.3</ele>
        <time>2020-06-27T09:43:20Z</time>
      </trkpt>
      <trkpt lat="49.10595" lon="7.07254">
        <ele>195.4</ele>
        <time>2020-06-27T09:43:21Z</time>
      </trkpt>
      <trkpt lat="49.1059" lon="7.07257">
        <ele>195.4</ele>
        <time>2020-06-27T09:43:22Z</time>
      </trkpt>
      <trkpt lat="49.10585" lon="7.07261">
        <ele>195.4</ele>
        <time>2020-06-27T09:43:23Z</time>
      </trkpt>
      <trkpt lat="49.1058" lon="7.07265">
        <ele>195.4</ele>
        <time>2020-06-27T09:43:24Z</time>
      </trkpt>
      <trkpt lat="49.10576" lon="7.07268">
        <ele>195.4</ele>
        <time>2020-06-27T09:43:25Z</time>
      </trkpt>
      <trkpt lat="49.10572" lon="7.07272">
        <ele>195.4</ele>
        <time>2020-06-27T09:43:26Z</time>
      </trkpt>
      <trkpt lat="49.10566" lon="7.07276">
        <ele>195.4</ele>
        <time>2020-06-27T09:43:27Z</time>
      </trkpt>
      <trkpt lat="49.10561" lon="7.07281">
        <ele>195.4</ele>
        <time>2020-06-27T09:43:28Z</time>
      </trkpt>
      <trkpt lat="49.10557" lon="7.07285">
        <ele>195.4</ele>
        <time>2020-06-27T09:43:29Z</time>
      </trkpt>
      <trkpt lat="49.10552" lon="7.07289">
        <ele>195.4</ele>
        <time>2020-06-27T09:43:30Z</time>
      </trkpt>
      <trkpt lat="49.10546" lon="7.07293">
        <ele>195.4</ele>
        <time>2020-06-27T09:43:31Z</time>
      </trkpt>
      <trkpt lat="49.10541" lon="7.07297">
        <ele>195.4</ele>
        <time>2020-06-27T09:43:32Z</time>
      </trkpt>
      <trkpt lat="49.10536" lon="7.07301">
        <ele>195.4</ele>
        <time>2020-06-27T09:43:33Z</time>
      </trkpt>
      <trkpt lat="49.1053" lon="7.07305">
        <ele>195.4</ele>
        <time>2020-06-27T09:43:34Z</time>
      </trkpt>
      <trkpt lat="49.10526" lon="7.07309">
        <ele>195.4</ele>
        <time>2020-06-27T09:43:35Z</time>
      </trkpt>
      <trkpt lat="49.10523" lon="7.07312">
        <ele>195.4</ele>
        <time>2020-06-27T09:43:36Z</time>
      </trkpt>
      <trkpt lat="49.10519" lon="7.07316">
        <ele>195.4</ele>
        <time>2020-06-27T09:43:37Z</time>
      </trkpt>
      <trkpt lat="49.10515" lon="7.07321">
        <ele>195.4</ele>
        <time>2020-06-27T09:43:38Z</time>
      </trkpt>
      <trkpt lat="49.10511" lon="7.07324">
        <ele>195.4</ele>
        <time>2020-06-27T09:43:39Z</time>
      </trkpt>
      <trkpt lat="49.10507" lon="7.07328">
        <ele>195.4</ele>
        <time>2020-06-27T09:43:40Z</time>
      </trkpt>
      <trkpt lat="49.10504" lon="7.07332">
        <ele>195.4</ele>
        <time>2020-06-27T09:43:41Z</time>
      </trkpt>
      <trkpt lat="49.105" lon="7.07337">
        <ele>195.5</ele>
        <time>2020-06-27T09:43:42Z</time>
      </trkpt>
      <trkpt lat="49.10496" lon="7.07342">
        <ele>195.5</ele>
        <time>2020-06-27T09:43:43Z</time>
      </trkpt>
      <trkpt lat="49.10492" lon="7.07345">
        <ele>195.5</ele>
        <time>2020-06-27T09:43:44Z</time>
      </trkpt>
      <trkpt lat="49.10489" lon="7.07345">
        <ele>195.6</ele>
        <time>2020-06-27T09:43:45Z</time>
      </trkpt>
      <trkpt lat="49.10486" lon="7.07347">
        <ele>195.6</ele>
        <time>2020-06-27T09:43:46Z</time>
      </trkpt>
      <trkpt lat="49.10484" lon="7.07347">
        <ele>196</ele>
        <time>2020-06-27T09:43:47Z</time>
      </trkpt>
      <trkpt lat="49.10482" lon="7.07345">
        <ele>196.2</ele>
        <time>2020-06-27T09:43:48Z</time>
      </trkpt>
      <trkpt lat="49.10482" lon="7.07343">
        <ele>196.2</ele>
        <time>2020-06-27T09:43:49Z</time>
      </trkpt>
      <trkpt lat="49.10482" lon="7.07343">
        <ele>196.3</ele>
        <time>2020-06-27T09:43:50Z</time>
      </trkpt>
      <trkpt lat="49.10482" lon="7.07341">
        <ele>196.4</ele>
        <time>2020-06-27T09:43:51Z</time>
      </trkpt>
      <trkpt lat="49.10482" lon="7.0734">
        <ele>196.4</ele>
        <time>2020-06-27T09:43:52Z</time>
      </trkpt>
      <trkpt lat="49.10482" lon="7.07338">
        <ele>196.5</ele>
        <time>2020-06-27T09:43:53Z</time>
      </trkpt>
      <trkpt lat="49.10482" lon="7.07338">
        <ele>196.5</ele>
        <time>2020-06-27T09:43:54Z</time>
      </trkpt>
      <trkpt lat="49.10482" lon="7.07339">
        <ele>196.5</ele>
        <time>2020-06-27T09:43:55Z</time>
      </trkpt>
      <trkpt lat="49.10482" lon="7.07338">
        <ele>196.6</ele>
        <time>2020-06-27T09:43:56Z</time>
      </trkpt>
      <trkpt lat="49.10482" lon="7.07339">
        <ele>196.6</ele>
        <time>2020-06-27T09:43:57Z</time>
      </trkpt>
      <trkpt lat="49.10482" lon="7.07339">
        <ele>196.6</ele>
        <time>2020-06-27T09:43:58Z</time>
      </trkpt>
      <trkpt lat="49.10483" lon="7.0734">
        <ele>196.6</ele>
        <time>2020-06-27T09:43:59Z</time>
      </trkpt>
      <trkpt lat="49.10483" lon="7.07339">
        <ele>196.7</ele>
        <time>2020-06-27T09:44:00Z</time>
      </trkpt>
      <trkpt lat="49.10483" lon="7.07339">
        <ele>196.7</ele>
        <time>2020-06-27T09:44:01Z</time>
      </trkpt>
      <trkpt lat="49.10483" lon="7.0734">
        <ele>196.7</ele>
        <time>2020-06-27T09:44:02Z</time>
      </trkpt>
      <trkpt lat="49.10482" lon="7.0734">
        <ele>196.7</ele>
        <time>2020-06-27T09:44:03Z</time>
      </trkpt>
      <trkpt lat="49.10495" lon="7.07337">
        <ele>197.6</ele>
        <time>2020-06-27T09:45:06Z</time>
      </trkpt>
      <trkpt lat="49.10496" lon="7.07335">
        <ele>197.7</ele>
        <time>2020-06-27T09:45:07Z</time>
      </trkpt>
      <trkpt lat="49.10497" lon="7.07333">
        <ele>197.8</ele>
        <time>2020-06-27T09:45:08Z</time>
      </trkpt>
      <trkpt lat="49.10497" lon="7.07333">
        <ele>197.8</ele>
        <time>2020-06-27T09:45:09Z</time>
      </trkpt>
      <trkpt lat="49.10496" lon="7.07334">
        <ele>197.9</ele>
        <time>2020-06-27T09:45:10Z</time>
      </trkpt>
      <trkpt lat="49.10496" lon="7.07335">
        <ele>197.9</ele>
        <time>2020-06-27T09:45:11Z</time>
      </trkpt>
      <trkpt lat="49.10495" lon="7.07335">
        <ele>198</ele>
        <time>2020-06-27T09:45:12Z</time>
      </trkpt>
      <trkpt lat="49.10494" lon="7.07336">
        <ele>198</ele>
        <time>2020-06-27T09:45:13Z</time>
      </trkpt>
      <trkpt lat="49.10494" lon="7.07336">
        <ele>198.1</ele>
        <time>2020-06-27T09:45:14Z</time>
      </trkpt>
      <trkpt lat="49.10493" lon="7.07337">
        <ele>198.1</ele>
        <time>2020-06-27T09:45:15Z</time>
      </trkpt>
      <trkpt lat="49.1049" lon="7.07336">
        <ele>198.4</ele>
        <time>2020-06-27T09:45:16Z</time>
      </trkpt>
      <trkpt lat="49.10489" lon="7.07335">
        <ele>198.5</ele>
        <time>2020-06-27T09:45:17Z</time>
      </trkpt>
      <trkpt lat="49.10486" lon="7.07332">
        <ele>198.7</ele>
        <time>2020-06-27T09:45:18Z</time>
      </trkpt>
      <trkpt lat="49.10483" lon="7.07327">
        <ele>199</ele>
        <time>2020-06-27T09:45:19Z</time>
      </trkpt>
      <trkpt lat="49.10481" lon="7.07323">
        <ele>199.2</ele>
        <time>2020-06-27T09:45:20Z</time>
      </trkpt>
      <trkpt lat="49.10478" lon="7.07319">
        <ele>199.4</ele>
        <time>2020-06-27T09:45:21Z</time>
      </trkpt>
      <trkpt lat="49.10476" lon="7.07317">
        <ele>199.5</ele>
        <time>2020-06-27T09:45:22Z</time>
      </trkpt>
      <trkpt lat="49.10473" lon="7.07315">
        <ele>199.7</ele>
        <time>2020-06-27T09:45:23Z</time>
      </trkpt>
      <trkpt lat="49.10471" lon="7.07311">
        <ele>199.9</ele>
        <time>2020-06-27T09:45:24Z</time>
      </trkpt>
      <trkpt lat="49.1047" lon="7.07307">
        <ele>201.1</ele>
        <time>2020-06-27T09:45:25Z</time>
      </trkpt>
      <trkpt lat="49.10469" lon="7.07306">
        <ele>201.1</ele>
        <time>2020-06-27T09:45:26Z</time>
      </trkpt>
      <trkpt lat="49.10468" lon="7.07304">
        <ele>201</ele>
        <time>2020-06-27T09:45:27Z</time>
      </trkpt>
      <trkpt lat="49.10467" lon="7.07303">
        <ele>201</ele>
        <time>2020-06-27T09:45:28Z</time>
      </trkpt>
      <trkpt lat="49.10467" lon="7.07306">
        <ele>201</ele>
        <time>2020-06-27T09:45:29Z</time>
      </trkpt>
      <trkpt lat="49.10466" lon="7.07307">
        <ele>201</ele>
        <time>2020-06-27T09:45:30Z</time>
      </trkpt>
      <trkpt lat="49.10465" lon="7.07308">
        <ele>201</ele>
        <time>2020-06-27T09:45:31Z</time>
      </trkpt>
      <trkpt lat="49.10462" lon="7.07312">
        <ele>200.9</ele>
        <time>2020-06-27T09:45:32Z</time>
      </trkpt>
      <trkpt lat="49.1046" lon="7.07313">
        <ele>200.9</ele>
        <time>2020-06-27T09:45:33Z</time>
      </trkpt>
      <trkpt lat="49.10458" lon="7.07315">
        <ele>200.9</ele>
        <time>2020-06-27T09:45:34Z</time>
      </trkpt>
      <trkpt lat="49.10455" lon="7.07318">
        <ele>200.9</ele>
        <time>2020-06-27T09:45:35Z</time>
      </trkpt>
      <trkpt lat="49.10453" lon="7.07323">
        <ele>200.8</ele>
        <time>2020-06-27T09:45:36Z</time>
      </trkpt>
      <trkpt lat="49.1045" lon="7.07326">
        <ele>200.8</ele>
        <time>2020-06-27T09:45:37Z</time>
      </trkpt>
      <trkpt lat="49.10449" lon="7.07329">
        <ele>200.8</ele>
        <time>2020-06-27T09:45:38Z</time>
      </trkpt>
      <trkpt lat="49.10446" lon="7.07332">
        <ele>200.8</ele>
        <time>2020-06-27T09:45:39Z</time>
      </trkpt>
      <trkpt lat="49.10444" lon="7.07335">
        <ele>200.8</ele>
        <time>2020-06-27T09:45:40Z</time>
      </trkpt>
      <trkpt lat="49.1044" lon="7.07338">
        <ele>200.8</ele>
        <time>2020-06-27T09:45:41Z</time>
      </trkpt>
      <trkpt lat="49.10439" lon="7.0734">
        <ele>200.8</ele>
        <time>2020-06-27T09:45:42Z</time>
      </trkpt>
      <trkpt lat="49.10437" lon="7.07342">
        <ele>200.8</ele>
        <time>2020-06-27T09:45:43Z</time>
      </trkpt>
      <trkpt lat="49.10435" lon="7.07346">
        <ele>200.8</ele>
        <time>2020-06-27T09:45:44Z</time>
      </trkpt>
      <trkpt lat="49.10435" lon="7.07347">
        <ele>200.8</ele>
        <time>2020-06-27T09:45:45Z</time>
      </trkpt>
      <trkpt lat="49.10433" lon="7.0735">
        <ele>200.8</ele>
        <time>2020-06-27T09:45:46Z</time>
      </trkpt>
      <trkpt lat="49.10431" lon="7.07353">
        <ele>200.8</ele>
        <time>2020-06-27T09:45:47Z</time>
      </trkpt>
      <trkpt lat="49.10429" lon="7.07356">
        <ele>200.8</ele>
        <time>2020-06-27T09:45:48Z</time>
      </trkpt>
      <trkpt lat="49.10429" lon="7.07358">
        <ele>200.8</ele>
        <time>2020-06-27T09:45:49Z</time>
      </trkpt>
      <trkpt lat="49.10428" lon="7.0736">
        <ele>200.8</ele>
        <time>2020-06-27T09:45:50Z</time>
      </trkpt>
      <trkpt lat="49.10427" lon="7.07358">
        <ele>200.8</ele>
        <time>2020-06-27T09:45:51Z</time>
      </trkpt>
      <trkpt lat="49.10427" lon="7.07358">
        <ele>200.8</ele>
        <time>2020-06-27T09:45:52Z</time>
      </trkpt>
      <trkpt lat="49.10427" lon="7.07356">
        <ele>200.8</ele>
        <time>2020-06-27T09:45:53Z</time>
      </trkpt>
      <trkpt lat="49.10426" lon="7.07356">
        <ele>200.8</ele>
        <time>2020-06-27T09:45:54Z</time>
      </trkpt>
      <trkpt lat="49.10426" lon="7.07356">
        <ele>200.8</ele>
        <time>2020-06-27T09:45:55Z</time>
      </trkpt>
      <trkpt lat="49.10427" lon="7.07355">
        <ele>200.8</ele>
        <time>2020-06-27T09:45:56Z</time>
      </trkpt>
      <trkpt lat="49.10428" lon="7.07356">
        <ele>200.8</ele>
        <time>2020-06-27T09:45:57Z</time>
      </trkpt>
      <trkpt lat="49.10428" lon="7.07356">
        <ele>200.8</ele>
        <time>2020-06-27T09:45:58Z</time>
      </trkpt>
      <trkpt lat="49.10428" lon="7.07356">
        <ele>200.8</ele>
        <time>2020-06-27T09:45:59Z</time>
      </trkpt>
      <trkpt lat="49.10427" lon="7.07356">
        <ele>200.8</ele>
        <time>2020-06-27T09:46:00Z</time>
      </trkpt>
      <trkpt lat="49.10426" lon="7.07356">
        <ele>200.8</ele>
        <time>2020-06-27T09:46:01Z</time>
      </trkpt>
      <trkpt lat="49.10425" lon="7.07356">
        <ele>200.8</ele>
        <time>2020-06-27T09:46:02Z</time>
      </trkpt>
      <trkpt lat="49.10425" lon="7.07356">
        <ele>200.8</ele>
        <time>2020-06-27T09:46:03Z</time>
      </trkpt>
      <trkpt lat="49.10421" lon="7.07357">
        <ele>200.9</ele>
        <time>2020-06-27T09:46:04Z</time>
      </trkpt>
      <trkpt lat="49.10419" lon="7.07357">
        <ele>200.9</ele>
        <time>2020-06-27T09:46:05Z</time>
      </trkpt>
      <trkpt lat="49.10417" lon="7.07357">
        <ele>200.9</ele>
        <time>2020-06-27T09:46:06Z</time>
      </trkpt>
      <trkpt lat="49.10416" lon="7.07357">
        <ele>200.9</ele>
        <time>2020-06-27T09:46:07Z</time>
      </trkpt>
      <trkpt lat="49.10416" lon="7.07357">
        <ele>200.9</ele>
        <time>2020-06-27T09:46:08Z</time>
      </trkpt>
      <trkpt lat="49.10415" lon="7.07357">
        <ele>200.9</ele>
        <time>2020-06-27T09:46:09Z</time>
      </trkpt>
      <trkpt lat="49.10414" lon="7.07357">
        <ele>200.9</ele>
        <time>2020-06-27T09:46:10Z</time>
      </trkpt>
      <trkpt lat="49.10414" lon="7.07357">
        <ele>200.9</ele>
        <time>2020-06-27T09:46:11Z</time>
      </trkpt>
      <trkpt lat="49.1041" lon="7.07359">
        <ele>201</ele>
        <time>2020-06-27T09:46:12Z</time>
      </trkpt>
      <trkpt lat="49.10406" lon="7.07361">
        <ele>201.1</ele>
        <time>2020-06-27T09:46:13Z</time>
      </trkpt>
      <trkpt lat="49.10402" lon="7.07363">
        <ele>201.2</ele>
        <time>2020-06-27T09:46:14Z</time>
      </trkpt>
      <trkpt lat="49.10399" lon="7.07367">
        <ele>201.3</ele>
        <time>2020-06-27T09:46:15Z</time>
      </trkpt>
      <trkpt lat="49.10396" lon="7.0737">
        <ele>201.4</ele>
        <time>2020-06-27T09:46:16Z</time>
      </trkpt>
      <trkpt lat="49.10392" lon="7.07373">
        <ele>201.5</ele>
        <time>2020-06-27T09:46:17Z</time>
      </trkpt>
      <trkpt lat="49.1039" lon="7.07377">
        <ele>201.6</ele>
        <time>2020-06-27T09:46:18Z</time>
      </trkpt>
      <trkpt lat="49.10386" lon="7.07379">
        <ele>201.7</ele>
        <time>2020-06-27T09:46:19Z</time>
      </trkpt>
      <trkpt lat="49.10384" lon="7.07382">
        <ele>201.8</ele>
        <time>2020-06-27T09:46:20Z</time>
      </trkpt>
      <trkpt lat="49.10381" lon="7.07385">
        <ele>201.8</ele>
        <time>2020-06-27T09:46:21Z</time>
      </trkpt>
      <trkpt lat="49.10379" lon="7.07385">
        <ele>201.9</ele>
        <time>2020-06-27T09:46:22Z</time>
      </trkpt>
      <trkpt lat="49.10376" lon="7.07385">
        <ele>202</ele>
        <time>2020-06-27T09:46:23Z</time>
      </trkpt>
      <trkpt lat="49.10374" lon="7.07385">
        <ele>202</ele>
        <time>2020-06-27T09:46:24Z</time>
      </trkpt>
      <trkpt lat="49.10371" lon="7.07383">
        <ele>202.1</ele>
        <time>2020-06-27T09:46:25Z</time>
      </trkpt>
      <trkpt lat="49.10368" lon="7.07382">
        <ele>202.3</ele>
        <time>2020-06-27T09:46:26Z</time>
      </trkpt>
      <trkpt lat="49.10364" lon="7.07379">
        <ele>202.4</ele>
        <time>2020-06-27T09:46:27Z</time>
      </trkpt>
      <trkpt lat="49.10363" lon="7.07378">
        <ele>202.4</ele>
        <time>2020-06-27T09:46:28Z</time>
      </trkpt>
      <trkpt lat="49.1036" lon="7.07376">
        <ele>202.6</ele>
        <time>2020-06-27T09:46:29Z</time>
      </trkpt>
      <trkpt lat="49.10359" lon="7.07376">
        <ele>202.6</ele>
        <time>2020-06-27T09:46:30Z</time>
      </trkpt>
      <trkpt lat="49.10356" lon="7.07374">
        <ele>202.7</ele>
        <time>2020-06-27T09:46:31Z</time>
      </trkpt>
      <trkpt lat="49.10351" lon="7.07375">
        <ele>202.9</ele>
        <time>2020-06-27T09:46:32Z</time>
      </trkpt>
      <trkpt lat="49.10347" lon="7.07375">
        <ele>203.1</ele>
        <time>2020-06-27T09:46:33Z</time>
      </trkpt>
      <trkpt lat="49.10343" lon="7.07375">
        <ele>203.3</ele>
        <time>2020-06-27T09:46:34Z</time>
      </trkpt>
      <trkpt lat="49.10339" lon="7.07376">
        <ele>203.4</ele>
        <time>2020-06-27T09:46:35Z</time>
      </trkpt>
      <trkpt lat="49.10336" lon="7.07379">
        <ele>203.5</ele>
        <time>2020-06-27T09:46:36Z</time>
      </trkpt>
      <trkpt lat="49.10333" lon="7.07383">
        <ele>203.6</ele>
        <time>2020-06-27T09:46:37Z</time>
      </trkpt>
      <trkpt lat="49.10329" lon="7.07388">
        <ele>203.7</ele>
        <time>2020-06-27T09:46:38Z</time>
      </trkpt>
      <trkpt lat="49.10326" lon="7.07392">
        <ele>203.7</ele>
        <time>2020-06-27T09:46:39Z</time>
      </trkpt>
      <trkpt lat="49.10323" lon="7.07395">
        <ele>203.8</ele>
        <time>2020-06-27T09:46:40Z</time>
      </trkpt>
      <trkpt lat="49.10321" lon="7.07398">
        <ele>203.8</ele>
        <time>2020-06-27T09:46:41Z</time>
      </trkpt>
      <trkpt lat="49.1032" lon="7.07403">
        <ele>203.8</ele>
        <time>2020-06-27T09:46:42Z</time>
      </trkpt>
      <trkpt lat="49.10319" lon="7.0741">
        <ele>203.8</ele>
        <time>2020-06-27T09:46:43Z</time>
      </trkpt>
      <trkpt lat="49.10318" lon="7.07416">
        <ele>203.7</ele>
        <time>2020-06-27T09:46:44Z</time>
      </trkpt>
      <trkpt lat="49.10318" lon="7.07423">
        <ele>203.6</ele>
        <time>2020-06-27T09:46:45Z</time>
      </trkpt>
      <trkpt lat="49.10318" lon="7.07431">
        <ele>203.5</ele>
        <time>2020-06-27T09:46:46Z</time>
      </trkpt>
      <trkpt lat="49.10319" lon="7.07438">
        <ele>203.4</ele>
        <time>2020-06-27T09:46:47Z</time>
      </trkpt>
      <trkpt lat="49.1032" lon="7.07445">
        <ele>203.3</ele>
        <time>2020-06-27T09:46:48Z</time>
      </trkpt>
      <trkpt lat="49.10322" lon="7.07452">
        <ele>203.2</ele>
        <time>2020-06-27T09:46:49Z</time>
      </trkpt>
      <trkpt lat="49.10323" lon="7.07456">
        <ele>202.7</ele>
        <time>2020-06-27T09:46:50Z</time>
      </trkpt>
      <trkpt lat="49.10323" lon="7.07461">
        <ele>202.7</ele>
        <time>2020-06-27T09:46:51Z</time>
      </trkpt>
      <trkpt lat="49.10321" lon="7.07465">
        <ele>202.6</ele>
        <time>2020-06-27T09:46:52Z</time>
      </trkpt>
      <trkpt lat="49.10318" lon="7.07465">
        <ele>202.6</ele>
        <time>2020-06-27T09:46:53Z</time>
      </trkpt>
      <trkpt lat="49.10315" lon="7.07463">
        <ele>202.8</ele>
        <time>2020-06-27T09:46:54Z</time>
      </trkpt>
      <trkpt lat="49.10312" lon="7.07459">
        <ele>203</ele>
        <time>2020-06-27T09:46:55Z</time>
      </trkpt>
      <trkpt lat="49.10309" lon="7.07454">
        <ele>203.1</ele>
        <time>2020-06-27T09:46:56Z</time>
      </trkpt>
      <trkpt lat="49.10306" lon="7.0745">
        <ele>203.4</ele>
        <time>2020-06-27T09:46:57Z</time>
      </trkpt>
      <trkpt lat="49.10302" lon="7.0745">
        <ele>203.6</ele>
        <time>2020-06-27T09:46:58Z</time>
      </trkpt>
      <trkpt lat="49.10298" lon="7.07452">
        <ele>203.8</ele>
        <time>2020-06-27T09:46:59Z</time>
      </trkpt>
      <trkpt lat="49.10293" lon="7.07455">
        <ele>204</ele>
        <time>2020-06-27T09:47:00Z</time>
      </trkpt>
      <trkpt lat="49.10289" lon="7.07458">
        <ele>204.2</ele>
        <time>2020-06-27T09:47:01Z</time>
      </trkpt>
      <trkpt lat="49.10286" lon="7.07462">
        <ele>204.4</ele>
        <time>2020-06-27T09:47:02Z</time>
      </trkpt>
      <trkpt lat="49.10285" lon="7.07468">
        <ele>204.6</ele>
        <time>2020-06-27T09:47:03Z</time>
      </trkpt>
      <trkpt lat="49.10285" lon="7.07475">
        <ele>204.7</ele>
        <time>2020-06-27T09:47:04Z</time>
      </trkpt>
      <trkpt lat="49.10286" lon="7.07481">
        <ele>204.9</ele>
        <time>2020-06-27T09:47:05Z</time>
      </trkpt>
      <trkpt lat="49.10287" lon="7.07487">
        <ele>205</ele>
        <time>2020-06-27T09:47:06Z</time>
      </trkpt>
      <trkpt lat="49.10289" lon="7.07493">
        <ele>205.1</ele>
        <time>2020-06-27T09:47:07Z</time>
      </trkpt>
      <trkpt lat="49.1029" lon="7.07499">
        <ele>205.3</ele>
        <time>2020-06-27T09:47:08Z</time>
      </trkpt>
      <trkpt lat="49.10291" lon="7.07505">
        <ele>205.4</ele>
        <time>2020-06-27T09:47:09Z</time>
      </trkpt>
      <trkpt lat="49.10293" lon="7.0751">
        <ele>205.6</ele>
        <time>2020-06-27T09:47:10Z</time>
      </trkpt>
      <trkpt lat="49.10294" lon="7.07515">
        <ele>205.7</ele>
        <time>2020-06-27T09:47:11Z</time>
      </trkpt>
      <trkpt lat="49.10295" lon="7.07521">
        <ele>205.8</ele>
        <time>2020-06-27T09:47:12Z</time>
      </trkpt>
      <trkpt lat="49.10296" lon="7.07526">
        <ele>205.9</ele>
        <time>2020-06-27T09:47:13Z</time>
      </trkpt>
      <trkpt lat="49.10295" lon="7.07531">
        <ele>206</ele>
        <time>2020-06-27T09:47:14Z</time>
      </trkpt>
      <trkpt lat="49.10296" lon="7.07536">
        <ele>206</ele>
        <time>2020-06-27T09:47:15Z</time>
      </trkpt>
      <trkpt lat="49.10297" lon="7.07542">
        <ele>206.1</ele>
        <time>2020-06-27T09:47:16Z</time>
      </trkpt>
      <trkpt lat="49.10298" lon="7.07547">
        <ele>206.2</ele>
        <time>2020-06-27T09:47:17Z</time>
      </trkpt>
      <trkpt lat="49.10299" lon="7.07552">
        <ele>206.2</ele>
        <time>2020-06-27T09:47:18Z</time>
      </trkpt>
      <trkpt lat="49.103" lon="7.07557">
        <ele>206.3</ele>
        <time>2020-06-27T09:47:19Z</time>
      </trkpt>
      <trkpt lat="49.10301" lon="7.07562">
        <ele>206.3</ele>
        <time>2020-06-27T09:47:20Z</time>
      </trkpt>
      <trkpt lat="49.10302" lon="7.07566">
        <ele>206.4</ele>
        <time>2020-06-27T09:47:21Z</time>
      </trkpt>
      <trkpt lat="49.10303" lon="7.07572">
        <ele>206.4</ele>
        <time>2020-06-27T09:47:22Z</time>
      </trkpt>
      <trkpt lat="49.10305" lon="7.07578">
        <ele>206.5</ele>
        <time>2020-06-27T09:47:23Z</time>
      </trkpt>
      <trkpt lat="49.10307" lon="7.07584">
        <ele>206.5</ele>
        <time>2020-06-27T09:47:24Z</time>
      </trkpt>
      <trkpt lat="49.10308" lon="7.07589">
        <ele>206.6</ele>
        <time>2020-06-27T09:47:25Z</time>
      </trkpt>
      <trkpt lat="49.10309" lon="7.07595">
        <ele>206.6</ele>
        <time>2020-06-27T09:47:26Z</time>
      </trkpt>
      <trkpt lat="49.1031" lon="7.076">
        <ele>206.6</ele>
        <time>2020-06-27T09:47:27Z</time>
      </trkpt>
      <trkpt lat="49.10312" lon="7.07605">
        <ele>206.7</ele>
        <time>2020-06-27T09:47:28Z</time>
      </trkpt>
      <trkpt lat="49.10313" lon="7.07611">
        <ele>206.7</ele>
        <time>2020-06-27T09:47:29Z</time>
      </trkpt>
      <trkpt lat="49.10315" lon="7.07618">
        <ele>206.8</ele>
        <time>2020-06-27T09:47:30Z</time>
      </trkpt>
      <trkpt lat="49.10316" lon="7.07624">
        <ele>206.8</ele>
        <time>2020-06-27T09:47:31Z</time>
      </trkpt>
      <trkpt lat="49.10318" lon="7.0763">
        <ele>206.9</ele>
        <time>2020-06-27T09:47:32Z</time>
      </trkpt>
      <trkpt lat="49.1032" lon="7.07636">
        <ele>206.9</ele>
        <time>2020-06-27T09:47:33Z</time>
      </trkpt>
      <trkpt lat="49.10321" lon="7.07644">
        <ele>207</ele>
        <time>2020-06-27T09:47:34Z</time>
      </trkpt>
      <trkpt lat="49.10323" lon="7.0765">
        <ele>207</ele>
        <time>2020-06-27T09:47:35Z</time>
      </trkpt>
      <trkpt lat="49.10324" lon="7.07657">
        <ele>207.1</ele>
        <time>2020-06-27T09:47:36Z</time>
      </trkpt>
      <trkpt lat="49.10326" lon="7.07663">
        <ele>207.2</ele>
        <time>2020-06-27T09:47:37Z</time>
      </trkpt>
      <trkpt lat="49.10328" lon="7.07668">
        <ele>207.2</ele>
        <time>2020-06-27T09:47:38Z</time>
      </trkpt>
      <trkpt lat="49.10329" lon="7.07673">
        <ele>207.2</ele>
        <time>2020-06-27T09:47:39Z</time>
      </trkpt>
      <trkpt lat="49.10331" lon="7.07678">
        <ele>207.3</ele>
        <time>2020-06-27T09:47:40Z</time>
      </trkpt>
      <trkpt lat="49.10332" lon="7.07684">
        <ele>207.3</ele>
        <time>2020-06-27T09:47:41Z</time>
      </trkpt>
      <trkpt lat="49.10333" lon="7.07689">
        <ele>207.3</ele>
        <time>2020-06-27T09:47:42Z</time>
      </trkpt>
      <trkpt lat="49.10334" lon="7.07695">
        <ele>207.4</ele>
        <time>2020-06-27T09:47:43Z</time>
      </trkpt>
      <trkpt lat="49.10337" lon="7.07701">
        <ele>207.4</ele>
        <time>2020-06-27T09:47:44Z</time>
      </trkpt>
      <trkpt lat="49.10339" lon="7.07707">
        <ele>207.4</ele>
        <time>2020-06-27T09:47:45Z</time>
      </trkpt>
      <trkpt lat="49.10341" lon="7.07714">
        <ele>207.4</ele>
        <time>2020-06-27T09:47:46Z</time>
      </trkpt>
      <trkpt lat="49.10343" lon="7.0772">
        <ele>207.4</ele>
        <time>2020-06-27T09:47:47Z</time>
      </trkpt>
      <trkpt lat="49.10345" lon="7.07726">
        <ele>207.5</ele>
        <time>2020-06-27T09:47:48Z</time>
      </trkpt>
      <trkpt lat="49.10346" lon="7.07732">
        <ele>207.5</ele>
        <time>2020-06-27T09:47:49Z</time>
      </trkpt>
      <trkpt lat="49.10347" lon="7.07737">
        <ele>207.5</ele>
        <time>2020-06-27T09:47:50Z</time>
      </trkpt>
      <trkpt lat="49.10349" lon="7.07743">
        <ele>207.6</ele>
        <time>2020-06-27T09:47:51Z</time>
      </trkpt>
      <trkpt lat="49.10351" lon="7.07748">
        <ele>207.6</ele>
        <time>2020-06-27T09:47:52Z</time>
      </trkpt>
      <trkpt lat="49.10353" lon="7.07755">
        <ele>207.7</ele>
        <time>2020-06-27T09:47:53Z</time>
      </trkpt>
      <trkpt lat="49.10355" lon="7.07762">
        <ele>207.7</ele>
        <time>2020-06-27T09:47:54Z</time>
      </trkpt>
      <trkpt lat="49.10358" lon="7.07771">
        <ele>207.8</ele>
        <time>2020-06-27T09:47:55Z</time>
      </trkpt>
      <trkpt lat="49.1036" lon="7.07778">
        <ele>207.9</ele>
        <time>2020-06-27T09:47:56Z</time>
      </trkpt>
      <trkpt lat="49.10361" lon="7.07785">
        <ele>208</ele>
        <time>2020-06-27T09:47:57Z</time>
      </trkpt>
      <trkpt lat="49.10363" lon="7.07792">
        <ele>208</ele>
        <time>2020-06-27T09:47:58Z</time>
      </trkpt>
      <trkpt lat="49.10365" lon="7.07796">
        <ele>208</ele>
        <time>2020-06-27T09:47:59Z</time>
      </trkpt>
      <trkpt lat="49.10367" lon="7.07802">
        <ele>208.1</ele>
        <time>2020-06-27T09:48:00Z</time>
      </trkpt>
      <trkpt lat="49.10368" lon="7.07808">
        <ele>208.1</ele>
        <time>2020-06-27T09:48:01Z</time>
      </trkpt>
      <trkpt lat="49.10371" lon="7.07814">
        <ele>208.1</ele>
        <time>2020-06-27T09:48:02Z</time>
      </trkpt>
      <trkpt lat="49.10372" lon="7.0782">
        <ele>208.2</ele>
        <time>2020-06-27T09:48:03Z</time>
      </trkpt>
      <trkpt lat="49.10375" lon="7.07826">
        <ele>208.2</ele>
        <time>2020-06-27T09:48:04Z</time>
      </trkpt>
      <trkpt lat="49.10378" lon="7.07833">
        <ele>208.3</ele>
        <time>2020-06-27T09:48:05Z</time>
      </trkpt>
      <trkpt lat="49.1038" lon="7.07839">
        <ele>208.4</ele>
        <time>2020-06-27T09:48:06Z</time>
      </trkpt>
      <trkpt lat="49.10383" lon="7.07847">
        <ele>208.4</ele>
        <time>2020-06-27T09:48:07Z</time>
      </trkpt>
      <trkpt lat="49.10385" lon="7.07853">
        <ele>208.5</ele>
        <time>2020-06-27T09:48:08Z</time>
      </trkpt>
      <trkpt lat="49.10387" lon="7.07859">
        <ele>208.5</ele>
        <time>2020-06-27T09:48:09Z</time>
      </trkpt>
      <trkpt lat="49.10389" lon="7.07866">
        <ele>208.6</ele>
        <time>2020-06-27T09:48:10Z</time>
      </trkpt>
      <trkpt lat="49.10391" lon="7.07874">
        <ele>208.7</ele>
        <time>2020-06-27T09:48:11Z</time>
      </trkpt>
      <trkpt lat="49.10393" lon="7.07881">
        <ele>208.8</ele>
        <time>2020-06-27T09:48:12Z</time>
      </trkpt>
      <trkpt lat="49.10394" lon="7.07888">
        <ele>208.9</ele>
        <time>2020-06-27T09:48:13Z</time>
      </trkpt>
      <trkpt lat="49.10396" lon="7.07894">
        <ele>209</ele>
        <time>2020-06-27T09:48:14Z</time>
      </trkpt>
      <trkpt lat="49.10397" lon="7.07901">
        <ele>209.1</ele>
        <time>2020-06-27T09:48:15Z</time>
      </trkpt>
      <trkpt lat="49.104" lon="7.07907">
        <ele>209.2</ele>
        <time>2020-06-27T09:48:16Z</time>
      </trkpt>
      <trkpt lat="49.10402" lon="7.07913">
        <ele>209.3</ele>
        <time>2020-06-27T09:48:17Z</time>
      </trkpt>
      <trkpt lat="49.10404" lon="7.0792">
        <ele>209.4</ele>
        <time>2020-06-27T09:48:18Z</time>
      </trkpt>
      <trkpt lat="49.10407" lon="7.07926">
        <ele>209.6</ele>
        <time>2020-06-27T09:48:19Z</time>
      </trkpt>
      <trkpt lat="49.10409" lon="7.07932">
        <ele>209.7</ele>
        <time>2020-06-27T09:48:20Z</time>
      </trkpt>
      <trkpt lat="49.10412" lon="7.07938">
        <ele>209.9</ele>
        <time>2020-06-27T09:48:21Z</time>
      </trkpt>
      <trkpt lat="49.10413" lon="7.07945">
        <ele>210</ele>
        <time>2020-06-27T09:48:22Z</time>
      </trkpt>
      <trkpt lat="49.10415" lon="7.07951">
        <ele>210.2</ele>
        <time>2020-06-27T09:48:23Z</time>
      </trkpt>
      <trkpt lat="49.10416" lon="7.07956">
        <ele>210.3</ele>
        <time>2020-06-27T09:48:24Z</time>
      </trkpt>
      <trkpt lat="49.10418" lon="7.07963">
        <ele>210.5</ele>
        <time>2020-06-27T09:48:25Z</time>
      </trkpt>
      <trkpt lat="49.1042" lon="7.07969">
        <ele>210.6</ele>
        <time>2020-06-27T09:48:26Z</time>
      </trkpt>
      <trkpt lat="49.10422" lon="7.07975">
        <ele>210.8</ele>
        <time>2020-06-27T09:48:27Z</time>
      </trkpt>
      <trkpt lat="49.10424" lon="7.07981">
        <ele>210.9</ele>
        <time>2020-06-27T09:48:28Z</time>
      </trkpt>
      <trkpt lat="49.10426" lon="7.07987">
        <ele>211.1</ele>
        <time>2020-06-27T09:48:29Z</time>
      </trkpt>
      <trkpt lat="49.10428" lon="7.07993">
        <ele>211.2</ele>
        <time>2020-06-27T09:48:30Z</time>
      </trkpt>
      <trkpt lat="49.1043" lon="7.07999">
        <ele>211.3</ele>
        <time>2020-06-27T09:48:31Z</time>
      </trkpt>
      <trkpt lat="49.10431" lon="7.08006">
        <ele>211.5</ele>
        <time>2020-06-27T09:48:32Z</time>
      </trkpt>
      <trkpt lat="49.10434" lon="7.08011">
        <ele>211.6</ele>
        <time>2020-06-27T09:48:33Z</time>
      </trkpt>
      <trkpt lat="49.10436" lon="7.08017">
        <ele>211.8</ele>
        <time>2020-06-27T09:48:34Z</time>
      </trkpt>
      <trkpt lat="49.10438" lon="7.08022">
        <ele>211.9</ele>
        <time>2020-06-27T09:48:35Z</time>
      </trkpt>
      <trkpt lat="49.1044" lon="7.08027">
        <ele>212.1</ele>
        <time>2020-06-27T09:48:36Z</time>
      </trkpt>
      <trkpt lat="49.10443" lon="7.08032">
        <ele>212.2</ele>
        <time>2020-06-27T09:48:37Z</time>
      </trkpt>
      <trkpt lat="49.10445" lon="7.08038">
        <ele>212.4</ele>
        <time>2020-06-27T09:48:38Z</time>
      </trkpt>
      <trkpt lat="49.10446" lon="7.08043">
        <ele>212.5</ele>
        <time>2020-06-27T09:48:39Z</time>
      </trkpt>
      <trkpt lat="49.10448" lon="7.08048">
        <ele>212.6</ele>
        <time>2020-06-27T09:48:40Z</time>
      </trkpt>
      <trkpt lat="49.1045" lon="7.08053">
        <ele>212.7</ele>
        <time>2020-06-27T09:48:41Z</time>
      </trkpt>
      <trkpt lat="49.10451" lon="7.08058">
        <ele>212.8</ele>
        <time>2020-06-27T09:48:42Z</time>
      </trkpt>
      <trkpt lat="49.10453" lon="7.08064">
        <ele>213</ele>
        <time>2020-06-27T09:48:43Z</time>
      </trkpt>
      <trkpt lat="49.10454" lon="7.0807">
        <ele>213.1</ele>
        <time>2020-06-27T09:48:44Z</time>
      </trkpt>
      <trkpt lat="49.10456" lon="7.08078">
        <ele>213.3</ele>
        <time>2020-06-27T09:48:45Z</time>
      </trkpt>
      <trkpt lat="49.10457" lon="7.08083">
        <ele>213.4</ele>
        <time>2020-06-27T09:48:46Z</time>
      </trkpt>
      <trkpt lat="49.10459" lon="7.08089">
        <ele>213.6</ele>
        <time>2020-06-27T09:48:47Z</time>
      </trkpt>
      <trkpt lat="49.10461" lon="7.08095">
        <ele>213.7</ele>
        <time>2020-06-27T09:48:48Z</time>
      </trkpt>
      <trkpt lat="49.10464" lon="7.081">
        <ele>213.9</ele>
        <time>2020-06-27T09:48:49Z</time>
      </trkpt>
      <trkpt lat="49.10466" lon="7.08106">
        <ele>214.1</ele>
        <time>2020-06-27T09:48:50Z</time>
      </trkpt>
      <trkpt lat="49.10467" lon="7.08113">
        <ele>214.3</ele>
        <time>2020-06-27T09:48:51Z</time>
      </trkpt>
      <trkpt lat="49.10468" lon="7.08116">
        <ele>214.3</ele>
        <time>2020-06-27T09:48:52Z</time>
      </trkpt>
      <trkpt lat="49.1047" lon="7.08121">
        <ele>214.5</ele>
        <time>2020-06-27T09:48:53Z</time>
      </trkpt>
      <trkpt lat="49.10472" lon="7.08127">
        <ele>214.6</ele>
        <time>2020-06-27T09:48:54Z</time>
      </trkpt>
      <trkpt lat="49.10474" lon="7.08134">
        <ele>214.8</ele>
        <time>2020-06-27T09:48:55Z</time>
      </trkpt>
      <trkpt lat="49.10476" lon="7.0814">
        <ele>215</ele>
        <time>2020-06-27T09:48:56Z</time>
      </trkpt>
      <trkpt lat="49.10479" lon="7.08146">
        <ele>215.1</ele>
        <time>2020-06-27T09:48:57Z</time>
      </trkpt>
      <trkpt lat="49.1048" lon="7.08152">
        <ele>215.3</ele>
        <time>2020-06-27T09:48:58Z</time>
      </trkpt>
      <trkpt lat="49.10482" lon="7.08157">
        <ele>215.4</ele>
        <time>2020-06-27T09:48:59Z</time>
      </trkpt>
      <trkpt lat="49.10483" lon="7.08164">
        <ele>215.6</ele>
        <time>2020-06-27T09:49:00Z</time>
      </trkpt>
      <trkpt lat="49.10485" lon="7.08171">
        <ele>215.7</ele>
        <time>2020-06-27T09:49:01Z</time>
      </trkpt>
      <trkpt lat="49.10487" lon="7.08177">
        <ele>215.9</ele>
        <time>2020-06-27T09:49:02Z</time>
      </trkpt>
      <trkpt lat="49.10489" lon="7.08183">
        <ele>216.1</ele>
        <time>2020-06-27T09:49:03Z</time>
      </trkpt>
      <trkpt lat="49.1049" lon="7.08189">
        <ele>216.2</ele>
        <time>2020-06-27T09:49:04Z</time>
      </trkpt>
      <trkpt lat="49.10491" lon="7.08195">
        <ele>216.4</ele>
        <time>2020-06-27T09:49:05Z</time>
      </trkpt>
      <trkpt lat="49.10494" lon="7.08201">
        <ele>216.6</ele>
        <time>2020-06-27T09:49:06Z</time>
      </trkpt>
      <trkpt lat="49.10495" lon="7.08206">
        <ele>216.8</ele>
        <time>2020-06-27T09:49:07Z</time>
      </trkpt>
      <trkpt lat="49.10497" lon="7.08211">
        <ele>216.9</ele>
        <time>2020-06-27T09:49:08Z</time>
      </trkpt>
      <trkpt lat="49.105" lon="7.08216">
        <ele>217.1</ele>
        <time>2020-06-27T09:49:09Z</time>
      </trkpt>
      <trkpt lat="49.10502" lon="7.08221">
        <ele>217.2</ele>
        <time>2020-06-27T09:49:10Z</time>
      </trkpt>
      <trkpt lat="49.10504" lon="7.08227">
        <ele>217.4</ele>
        <time>2020-06-27T09:49:11Z</time>
      </trkpt>
      <trkpt lat="49.10507" lon="7.08232">
        <ele>217.6</ele>
        <time>2020-06-27T09:49:12Z</time>
      </trkpt>
      <trkpt lat="49.1051" lon="7.08238">
        <ele>217.8</ele>
        <time>2020-06-27T09:49:13Z</time>
      </trkpt>
      <trkpt lat="49.10513" lon="7.08242">
        <ele>218</ele>
        <time>2020-06-27T09:49:14Z</time>
      </trkpt>
      <trkpt lat="49.10515" lon="7.08247">
        <ele>218.2</ele>
        <time>2020-06-27T09:49:15Z</time>
      </trkpt>
      <trkpt lat="49.10518" lon="7.08251">
        <ele>218.4</ele>
        <time>2020-06-27T09:49:16Z</time>
      </trkpt>
      <trkpt lat="49.10521" lon="7.08256">
        <ele>218.6</ele>
        <time>2020-06-27T09:49:17Z</time>
      </trkpt>
      <trkpt lat="49.10524" lon="7.08261">
        <ele>218.7</ele>
        <time>2020-06-27T09:49:18Z</time>
      </trkpt>
      <trkpt lat="49.10526" lon="7.08265">
        <ele>218.9</ele>
        <time>2020-06-27T09:49:19Z</time>
      </trkpt>
      <trkpt lat="49.10529" lon="7.08268">
        <ele>219.1</ele>
        <time>2020-06-27T09:49:20Z</time>
      </trkpt>
      <trkpt lat="49.10532" lon="7.08272">
        <ele>219.2</ele>
        <time>2020-06-27T09:49:21Z</time>
      </trkpt>
      <trkpt lat="49.10534" lon="7.08275">
        <ele>219.3</ele>
        <time>2020-06-27T09:49:22Z</time>
      </trkpt>
      <trkpt lat="49.10537" lon="7.08279">
        <ele>219.4</ele>
        <time>2020-06-27T09:49:23Z</time>
      </trkpt>
      <trkpt lat="49.10538" lon="7.0828">
        <ele>219.4</ele>
        <time>2020-06-27T09:49:24Z</time>
      </trkpt>
      <trkpt lat="49.10539" lon="7.08282">
        <ele>219.4</ele>
        <time>2020-06-27T09:49:25Z</time>
      </trkpt>
      <trkpt lat="49.10539" lon="7.08284">
        <ele>219.4</ele>
        <time>2020-06-27T09:49:26Z</time>
      </trkpt>
      <trkpt lat="49.10541" lon="7.08287">
        <ele>219.4</ele>
        <time>2020-06-27T09:49:27Z</time>
      </trkpt>
      <trkpt lat="49.10542" lon="7.08289">
        <ele>219.4</ele>
        <time>2020-06-27T09:49:28Z</time>
      </trkpt>
      <trkpt lat="49.10544" lon="7.08294">
        <ele>219.4</ele>
        <time>2020-06-27T09:49:29Z</time>
      </trkpt>
      <trkpt lat="49.10544" lon="7.08296">
        <ele>219.4</ele>
        <time>2020-06-27T09:49:30Z</time>
      </trkpt>
      <trkpt lat="49.10546" lon="7.083">
        <ele>219.4</ele>
        <time>2020-06-27T09:49:31Z</time>
      </trkpt>
      <trkpt lat="49.10548" lon="7.08305">
        <ele>219.4</ele>
        <time>2020-06-27T09:49:32Z</time>
      </trkpt>
      <trkpt lat="49.1055" lon="7.0831">
        <ele>219.4</ele>
        <time>2020-06-27T09:49:33Z</time>
      </trkpt>
      <trkpt lat="49.10553" lon="7.08315">
        <ele>219.3</ele>
        <time>2020-06-27T09:49:34Z</time>
      </trkpt>
      <trkpt lat="49.10556" lon="7.08321">
        <ele>219.3</ele>
        <time>2020-06-27T09:49:35Z</time>
      </trkpt>
      <trkpt lat="49.10559" lon="7.08327">
        <ele>219.3</ele>
        <time>2020-06-27T09:49:36Z</time>
      </trkpt>
      <trkpt lat="49.10564" lon="7.08333">
        <ele>219.3</ele>
        <time>2020-06-27T09:49:37Z</time>
      </trkpt>
      <trkpt lat="49.10567" lon="7.08338">
        <ele>219.3</ele>
        <time>2020-06-27T09:49:38Z</time>
      </trkpt>
      <trkpt lat="49.10571" lon="7.08343">
        <ele>219.3</ele>
        <time>2020-06-27T09:49:39Z</time>
      </trkpt>
      <trkpt lat="49.10574" lon="7.08347">
        <ele>219.4</ele>
        <time>2020-06-27T09:49:40Z</time>
      </trkpt>
      <trkpt lat="49.10576" lon="7.08351">
        <ele>219.4</ele>
        <time>2020-06-27T09:49:41Z</time>
      </trkpt>
      <trkpt lat="49.10579" lon="7.08357">
        <ele>219.4</ele>
        <time>2020-06-27T09:49:42Z</time>
      </trkpt>
      <trkpt lat="49.10582" lon="7.0836">
        <ele>219.4</ele>
        <time>2020-06-27T09:49:43Z</time>
      </trkpt>
      <trkpt lat="49.10585" lon="7.08365">
        <ele>219.4</ele>
        <time>2020-06-27T09:49:44Z</time>
      </trkpt>
      <trkpt lat="49.10588" lon="7.08369">
        <ele>219.4</ele>
        <time>2020-06-27T09:49:45Z</time>
      </trkpt>
      <trkpt lat="49.10591" lon="7.08373">
        <ele>219.5</ele>
        <time>2020-06-27T09:49:46Z</time>
      </trkpt>
      <trkpt lat="49.10595" lon="7.08377">
        <ele>219.5</ele>
        <time>2020-06-27T09:49:47Z</time>
      </trkpt>
      <trkpt lat="49.10599" lon="7.0838">
        <ele>219.5</ele>
        <time>2020-06-27T09:49:48Z</time>
      </trkpt>
      <trkpt lat="49.10602" lon="7.08384">
        <ele>219.6</ele>
        <time>2020-06-27T09:49:49Z</time>
      </trkpt>
      <trkpt lat="49.10606" lon="7.08389">
        <ele>219.6</ele>
        <time>2020-06-27T09:49:50Z</time>
      </trkpt>
      <trkpt lat="49.1061" lon="7.08395">
        <ele>219.7</ele>
        <time>2020-06-27T09:49:51Z</time>
      </trkpt>
      <trkpt lat="49.10614" lon="7.084">
        <ele>219.8</ele>
        <time>2020-06-27T09:49:52Z</time>
      </trkpt>
      <trkpt lat="49.10619" lon="7.08405">
        <ele>219.8</ele>
        <time>2020-06-27T09:49:53Z</time>
      </trkpt>
      <trkpt lat="49.10622" lon="7.08409">
        <ele>219.8</ele>
        <time>2020-06-27T09:49:54Z</time>
      </trkpt>
      <trkpt lat="49.10627" lon="7.08413">
        <ele>219.8</ele>
        <time>2020-06-27T09:49:55Z</time>
      </trkpt>
      <trkpt lat="49.10631" lon="7.08417">
        <ele>219.8</ele>
        <time>2020-06-27T09:49:56Z</time>
      </trkpt>
      <trkpt lat="49.10635" lon="7.08421">
        <ele>219.8</ele>
        <time>2020-06-27T09:49:57Z</time>
      </trkpt>
      <trkpt lat="49.10638" lon="7.08425">
        <ele>219.8</ele>
        <time>2020-06-27T09:49:58Z</time>
      </trkpt>
      <trkpt lat="49.10643" lon="7.08429">
        <ele>219.8</ele>
        <time>2020-06-27T09:49:59Z</time>
      </trkpt>
      <trkpt lat="49.10647" lon="7.08433">
        <ele>219.8</ele>
        <time>2020-06-27T09:50:00Z</time>
      </trkpt>
      <trkpt lat="49.10651" lon="7.08437">
        <ele>219.8</ele>
        <time>2020-06-27T09:50:01Z</time>
      </trkpt>
      <trkpt lat="49.10656" lon="7.08442">
        <ele>219.8</ele>
        <time>2020-06-27T09:50:02Z</time>
      </trkpt>
      <trkpt lat="49.10661" lon="7.08446">
        <ele>219.7</ele>
        <time>2020-06-27T09:50:03Z</time>
      </trkpt>
      <trkpt lat="49.10666" lon="7.08451">
        <ele>219.7</ele>
        <time>2020-06-27T09:50:04Z</time>
      </trkpt>
      <trkpt lat="49.10671" lon="7.08457">
        <ele>219.7</ele>
        <time>2020-06-27T09:50:05Z</time>
      </trkpt>
      <trkpt lat="49.10675" lon="7.08461">
        <ele>219.6</ele>
        <time>2020-06-27T09:50:06Z</time>
      </trkpt>
      <trkpt lat="49.10679" lon="7.08465">
        <ele>219.6</ele>
        <time>2020-06-27T09:50:07Z</time>
      </trkpt>
      <trkpt lat="49.10683" lon="7.08469">
        <ele>219.6</ele>
        <time>2020-06-27T09:50:08Z</time>
      </trkpt>
      <trkpt lat="49.10688" lon="7.08474">
        <ele>219.5</ele>
        <time>2020-06-27T09:50:09Z</time>
      </trkpt>
      <trkpt lat="49.10692" lon="7.08479">
        <ele>219.5</ele>
        <time>2020-06-27T09:50:10Z</time>
      </trkpt>
      <trkpt lat="49.10697" lon="7.08483">
        <ele>219.5</ele>
        <time>2020-06-27T09:50:11Z</time>
      </trkpt>
      <trkpt lat="49.10702" lon="7.08488">
        <ele>219.4</ele>
        <time>2020-06-27T09:50:12Z</time>
      </trkpt>
      <trkpt lat="49.10707" lon="7.08494">
        <ele>219.4</ele>
        <time>2020-06-27T09:50:13Z</time>
      </trkpt>
      <trkpt lat="49.10711" lon="7.085">
        <ele>219.4</ele>
        <time>2020-06-27T09:50:14Z</time>
      </trkpt>
      <trkpt lat="49.10717" lon="7.08504">
        <ele>219.3</ele>
        <time>2020-06-27T09:50:15Z</time>
      </trkpt>
      <trkpt lat="49.10721" lon="7.0851">
        <ele>219.3</ele>
        <time>2020-06-27T09:50:16Z</time>
      </trkpt>
      <trkpt lat="49.10726" lon="7.08515">
        <ele>219.3</ele>
        <time>2020-06-27T09:50:17Z</time>
      </trkpt>
      <trkpt lat="49.1073" lon="7.0852">
        <ele>219.3</ele>
        <time>2020-06-27T09:50:18Z</time>
      </trkpt>
      <trkpt lat="49.10735" lon="7.08527">
        <ele>219.3</ele>
        <time>2020-06-27T09:50:19Z</time>
      </trkpt>
      <trkpt lat="49.10738" lon="7.08533">
        <ele>219.3</ele>
        <time>2020-06-27T09:50:20Z</time>
      </trkpt>
      <trkpt lat="49.10741" lon="7.08543">
        <ele>219.4</ele>
        <time>2020-06-27T09:50:21Z</time>
      </trkpt>
      <trkpt lat="49.10743" lon="7.08553">
        <ele>219.4</ele>
        <time>2020-06-27T09:50:22Z</time>
      </trkpt>
      <trkpt lat="49.10744" lon="7.08563">
        <ele>219.5</ele>
        <time>2020-06-27T09:50:23Z</time>
      </trkpt>
      <trkpt lat="49.10745" lon="7.08572">
        <ele>219.6</ele>
        <time>2020-06-27T09:50:24Z</time>
      </trkpt>
      <trkpt lat="49.10747" lon="7.08581">
        <ele>219.6</ele>
        <time>2020-06-27T09:50:25Z</time>
      </trkpt>
      <trkpt lat="49.10749" lon="7.08589">
        <ele>219.7</ele>
        <time>2020-06-27T09:50:26Z</time>
      </trkpt>
      <trkpt lat="49.1075" lon="7.08596">
        <ele>219.7</ele>
        <time>2020-06-27T09:50:27Z</time>
      </trkpt>
      <trkpt lat="49.1075" lon="7.08604">
        <ele>219.8</ele>
        <time>2020-06-27T09:50:28Z</time>
      </trkpt>
      <trkpt lat="49.10752" lon="7.08609">
        <ele>219.8</ele>
        <time>2020-06-27T09:50:29Z</time>
      </trkpt>
      <trkpt lat="49.10755" lon="7.08615">
        <ele>219.9</ele>
        <time>2020-06-27T09:50:30Z</time>
      </trkpt>
      <trkpt lat="49.10759" lon="7.08617">
        <ele>219.9</ele>
        <time>2020-06-27T09:50:31Z</time>
      </trkpt>
      <trkpt lat="49.10765" lon="7.08617">
        <ele>219.9</ele>
        <time>2020-06-27T09:50:32Z</time>
      </trkpt>
      <trkpt lat="49.10771" lon="7.08616">
        <ele>219.9</ele>
        <time>2020-06-27T09:50:33Z</time>
      </trkpt>
      <trkpt lat="49.10777" lon="7.08614">
        <ele>219.9</ele>
        <time>2020-06-27T09:50:34Z</time>
      </trkpt>
      <trkpt lat="49.10783" lon="7.0861">
        <ele>219.8</ele>
        <time>2020-06-27T09:50:35Z</time>
      </trkpt>
      <trkpt lat="49.10789" lon="7.08606">
        <ele>219.7</ele>
        <time>2020-06-27T09:50:36Z</time>
      </trkpt>
      <trkpt lat="49.10794" lon="7.08602">
        <ele>219.6</ele>
        <time>2020-06-27T09:50:37Z</time>
      </trkpt>
      <trkpt lat="49.10799" lon="7.08597">
        <ele>219.6</ele>
        <time>2020-06-27T09:50:38Z</time>
      </trkpt>
      <trkpt lat="49.10804" lon="7.08593">
        <ele>219.5</ele>
        <time>2020-06-27T09:50:39Z</time>
      </trkpt>
      <trkpt lat="49.10809" lon="7.08589">
        <ele>219.4</ele>
        <time>2020-06-27T09:50:40Z</time>
      </trkpt>
      <trkpt lat="49.10813" lon="7.08585">
        <ele>219.4</ele>
        <time>2020-06-27T09:50:41Z</time>
      </trkpt>
      <trkpt lat="49.10818" lon="7.08584">
        <ele>219.4</ele>
        <time>2020-06-27T09:50:42Z</time>
      </trkpt>
      <trkpt lat="49.10821" lon="7.08585">
        <ele>219.3</ele>
        <time>2020-06-27T09:50:43Z</time>
      </trkpt>
      <trkpt lat="49.10824" lon="7.08587">
        <ele>219.3</ele>
        <time>2020-06-27T09:50:44Z</time>
      </trkpt>
      <trkpt lat="49.10827" lon="7.0859">
        <ele>219.3</ele>
        <time>2020-06-27T09:50:45Z</time>
      </trkpt>
      <trkpt lat="49.10828" lon="7.08593">
        <ele>219.3</ele>
        <time>2020-06-27T09:50:46Z</time>
      </trkpt>
      <trkpt lat="49.10829" lon="7.08593">
        <ele>219.3</ele>
        <time>2020-06-27T09:50:47Z</time>
      </trkpt>
      <trkpt lat="49.10831" lon="7.08594">
        <ele>219.3</ele>
        <time>2020-06-27T09:50:48Z</time>
      </trkpt>
      <trkpt lat="49.1083" lon="7.08595">
        <ele>219.3</ele>
        <time>2020-06-27T09:50:49Z</time>
      </trkpt>
      <trkpt lat="49.10831" lon="7.08596">
        <ele>219.3</ele>
        <time>2020-06-27T09:50:50Z</time>
      </trkpt>
      <trkpt lat="49.10831" lon="7.08598">
        <ele>219.3</ele>
        <time>2020-06-27T09:50:51Z</time>
      </trkpt>
      <trkpt lat="49.10831" lon="7.08599">
        <ele>219.3</ele>
        <time>2020-06-27T09:50:52Z</time>
      </trkpt>
      <trkpt lat="49.10831" lon="7.08601">
        <ele>219.3</ele>
        <time>2020-06-27T09:50:53Z</time>
      </trkpt>
      <trkpt lat="49.10831" lon="7.08602">
        <ele>219.3</ele>
        <time>2020-06-27T09:50:54Z</time>
      </trkpt>
      <trkpt lat="49.10831" lon="7.08602">
        <ele>219.3</ele>
        <time>2020-06-27T09:50:55Z</time>
      </trkpt>
      <trkpt lat="49.10832" lon="7.08602">
        <ele>219.3</ele>
        <time>2020-06-27T09:50:56Z</time>
      </trkpt>
      <trkpt lat="49.10832" lon="7.08602">
        <ele>219.3</ele>
        <time>2020-06-27T09:50:57Z</time>
      </trkpt>
      <trkpt lat="49.10833" lon="7.08603">
        <ele>219.3</ele>
        <time>2020-06-27T09:50:58Z</time>
      </trkpt>
      <trkpt lat="49.10833" lon="7.08603">
        <ele>219.3</ele>
        <time>2020-06-27T09:50:59Z</time>
      </trkpt>
      <trkpt lat="49.10834" lon="7.08603">
        <ele>219.3</ele>
        <time>2020-06-27T09:51:00Z</time>
      </trkpt>
      <trkpt lat="49.10834" lon="7.08603">
        <ele>219.3</ele>
        <time>2020-06-27T09:51:01Z</time>
      </trkpt>
      <trkpt lat="49.10835" lon="7.08604">
        <ele>219.3</ele>
        <time>2020-06-27T09:51:02Z</time>
      </trkpt>
      <trkpt lat="49.10835" lon="7.08604">
        <ele>219.3</ele>
        <time>2020-06-27T09:51:03Z</time>
      </trkpt>
      <trkpt lat="49.10836" lon="7.08604">
        <ele>219.6</ele>
        <time>2020-06-27T09:51:04Z</time>
      </trkpt>
      <trkpt lat="49.10836" lon="7.08604">
        <ele>219.6</ele>
        <time>2020-06-27T09:51:05Z</time>
      </trkpt>
      <trkpt lat="49.10837" lon="7.08605">
        <ele>219.6</ele>
        <time>2020-06-27T09:51:06Z</time>
      </trkpt>
      <trkpt lat="49.10837" lon="7.08605">
        <ele>219.6</ele>
        <time>2020-06-27T09:51:07Z</time>
      </trkpt>
      <trkpt lat="49.10838" lon="7.08605">
        <ele>219.6</ele>
        <time>2020-06-27T09:51:29Z</time>
      </trkpt>
      <trkpt lat="49.10838" lon="7.08605">
        <ele>219.6</ele>
        <time>2020-06-27T09:51:30Z</time>
      </trkpt>
      <trkpt lat="49.10842" lon="7.08606">
        <ele>219.7</ele>
        <time>2020-06-27T09:51:31Z</time>
      </trkpt>
      <trkpt lat="49.10844" lon="7.08606">
        <ele>219.7</ele>
        <time>2020-06-27T09:51:32Z</time>
      </trkpt>
      <trkpt lat="49.10847" lon="7.08608">
        <ele>219.7</ele>
        <time>2020-06-27T09:51:33Z</time>
      </trkpt>
      <trkpt lat="49.10849" lon="7.08612">
        <ele>219.7</ele>
        <time>2020-06-27T09:51:34Z</time>
      </trkpt>
      <trkpt lat="49.10852" lon="7.08617">
        <ele>219.7</ele>
        <time>2020-06-27T09:51:35Z</time>
      </trkpt>
      <trkpt lat="49.10855" lon="7.08622">
        <ele>219.8</ele>
        <time>2020-06-27T09:51:36Z</time>
      </trkpt>
      <trkpt lat="49.10858" lon="7.08627">
        <ele>219.8</ele>
        <time>2020-06-27T09:51:37Z</time>
      </trkpt>
      <trkpt lat="49.1086" lon="7.08633">
        <ele>219.8</ele>
        <time>2020-06-27T09:51:38Z</time>
      </trkpt>
      <trkpt lat="49.10861" lon="7.08637">
        <ele>219.8</ele>
        <time>2020-06-27T09:51:39Z</time>
      </trkpt>
      <trkpt lat="49.10862" lon="7.08642">
        <ele>219.9</ele>
        <time>2020-06-27T09:51:40Z</time>
      </trkpt>
      <trkpt lat="49.10863" lon="7.08648">
        <ele>220</ele>
        <time>2020-06-27T09:51:41Z</time>
      </trkpt>
      <trkpt lat="49.10863" lon="7.08651">
        <ele>220.1</ele>
        <time>2020-06-27T09:51:42Z</time>
      </trkpt>
      <trkpt lat="49.10862" lon="7.08656">
        <ele>220.2</ele>
        <time>2020-06-27T09:51:43Z</time>
      </trkpt>
      <trkpt lat="49.10862" lon="7.08659">
        <ele>220.2</ele>
        <time>2020-06-27T09:51:44Z</time>
      </trkpt>
      <trkpt lat="49.10862" lon="7.08664">
        <ele>220.3</ele>
        <time>2020-06-27T09:51:45Z</time>
      </trkpt>
      <trkpt lat="49.10862" lon="7.08665">
        <ele>220.4</ele>
        <time>2020-06-27T09:51:46Z</time>
      </trkpt>
      <trkpt lat="49.10862" lon="7.08667">
        <ele>220.4</ele>
        <time>2020-06-27T09:51:47Z</time>
      </trkpt>
      <trkpt lat="49.10861" lon="7.08669">
        <ele>220.4</ele>
        <time>2020-06-27T09:51:48Z</time>
      </trkpt>
      <trkpt lat="49.10862" lon="7.0867">
        <ele>220.5</ele>
        <time>2020-06-27T09:51:49Z</time>
      </trkpt>
      <trkpt lat="49.10863" lon="7.08673">
        <ele>220.7</ele>
        <time>2020-06-27T09:51:50Z</time>
      </trkpt>
      <trkpt lat="49.10863" lon="7.08675">
        <ele>220.7</ele>
        <time>2020-06-27T09:51:51Z</time>
      </trkpt>
      <trkpt lat="49.10863" lon="7.08676">
        <ele>220.7</ele>
        <time>2020-06-27T09:51:52Z</time>
      </trkpt>
      <trkpt lat="49.10862" lon="7.08681">
        <ele>220.8</ele>
        <time>2020-06-27T09:51:53Z</time>
      </trkpt>
      <trkpt lat="49.10862" lon="7.08682">
        <ele>220.8</ele>
        <time>2020-06-27T09:51:54Z</time>
      </trkpt>
      <trkpt lat="49.10862" lon="7.08687">
        <ele>220.9</ele>
        <time>2020-06-27T09:51:55Z</time>
      </trkpt>
      <trkpt lat="49.10862" lon="7.08689">
        <ele>221</ele>
        <time>2020-06-27T09:51:56Z</time>
      </trkpt>
      <trkpt lat="49.10862" lon="7.08695">
        <ele>221.1</ele>
        <time>2020-06-27T09:51:57Z</time>
      </trkpt>
      <trkpt lat="49.10863" lon="7.08697">
        <ele>221.1</ele>
        <time>2020-06-27T09:51:58Z</time>
      </trkpt>
      <trkpt lat="49.10864" lon="7.08702">
        <ele>221.2</ele>
        <time>2020-06-27T09:51:59Z</time>
      </trkpt>
      <trkpt lat="49.10865" lon="7.08706">
        <ele>221.2</ele>
        <time>2020-06-27T09:52:00Z</time>
      </trkpt>
      <trkpt lat="49.10866" lon="7.08708">
        <ele>221.2</ele>
        <time>2020-06-27T09:52:01Z</time>
      </trkpt>
      <trkpt lat="49.10867" lon="7.08711">
        <ele>221.2</ele>
        <time>2020-06-27T09:52:02Z</time>
      </trkpt>
      <trkpt lat="49.10868" lon="7.08717">
        <ele>221.3</ele>
        <time>2020-06-27T09:52:03Z</time>
      </trkpt>
      <trkpt lat="49.10868" lon="7.08718">
        <ele>221.3</ele>
        <time>2020-06-27T09:52:04Z</time>
      </trkpt>
      <trkpt lat="49.10865" lon="7.08724">
        <ele>221.4</ele>
        <time>2020-06-27T09:52:05Z</time>
      </trkpt>
      <trkpt lat="49.10864" lon="7.08726">
        <ele>221.4</ele>
        <time>2020-06-27T09:52:06Z</time>
      </trkpt>
      <trkpt lat="49.10862" lon="7.08731">
        <ele>221.5</ele>
        <time>2020-06-27T09:52:07Z</time>
      </trkpt>
      <trkpt lat="49.10859" lon="7.08734">
        <ele>221.6</ele>
        <time>2020-06-27T09:52:08Z</time>
      </trkpt>
      <trkpt lat="49.10857" lon="7.08736">
        <ele>221.6</ele>
        <time>2020-06-27T09:52:09Z</time>
      </trkpt>
      <trkpt lat="49.10855" lon="7.08739">
        <ele>221.7</ele>
        <time>2020-06-27T09:52:10Z</time>
      </trkpt>
      <trkpt lat="49.10854" lon="7.0874">
        <ele>221.7</ele>
        <time>2020-06-27T09:52:11Z</time>
      </trkpt>
      <trkpt lat="49.10853" lon="7.08741">
        <ele>221.7</ele>
        <time>2020-06-27T09:52:12Z</time>
      </trkpt>
      <trkpt lat="49.10851" lon="7.08742">
        <ele>221.7</ele>
        <time>2020-06-27T09:52:13Z</time>
      </trkpt>
      <trkpt lat="49.1085" lon="7.08744">
        <ele>221.8</ele>
        <time>2020-06-27T09:52:14Z</time>
      </trkpt>
      <trkpt lat="49.10849" lon="7.08745">
        <ele>221.8</ele>
        <time>2020-06-27T09:52:15Z</time>
      </trkpt>
      <trkpt lat="49.10846" lon="7.08748">
        <ele>221.9</ele>
        <time>2020-06-27T09:52:16Z</time>
      </trkpt>
      <trkpt lat="49.10845" lon="7.0875">
        <ele>221.9</ele>
        <time>2020-06-27T09:52:17Z</time>
      </trkpt>
      <trkpt lat="49.10842" lon="7.08752">
        <ele>221.9</ele>
        <time>2020-06-27T09:52:18Z</time>
      </trkpt>
      <trkpt lat="49.10841" lon="7.08754">
        <ele>221.9</ele>
        <time>2020-06-27T09:52:19Z</time>
      </trkpt>
      <trkpt lat="49.1084" lon="7.08756">
        <ele>221.9</ele>
        <time>2020-06-27T09:52:20Z</time>
      </trkpt>
      <trkpt lat="49.10839" lon="7.08757">
        <ele>221.9</ele>
        <time>2020-06-27T09:52:21Z</time>
      </trkpt>
      <trkpt lat="49.10839" lon="7.08758">
        <ele>221.9</ele>
        <time>2020-06-27T09:52:22Z</time>
      </trkpt>
      <trkpt lat="49.10841" lon="7.08758">
        <ele>221.9</ele>
        <time>2020-06-27T09:52:23Z</time>
      </trkpt>
      <trkpt lat="49.10842" lon="7.08759">
        <ele>221.9</ele>
        <time>2020-06-27T09:52:24Z</time>
      </trkpt>
      <trkpt lat="49.10843" lon="7.08759">
        <ele>221.9</ele>
        <time>2020-06-27T09:52:25Z</time>
      </trkpt>
      <trkpt lat="49.10846" lon="7.0876">
        <ele>221.8</ele>
        <time>2020-06-27T09:52:26Z</time>
      </trkpt>
      <trkpt lat="49.10848" lon="7.0876">
        <ele>221.8</ele>
        <time>2020-06-27T09:52:27Z</time>
      </trkpt>
      <trkpt lat="49.10852" lon="7.08762">
        <ele>221.8</ele>
        <time>2020-06-27T09:52:28Z</time>
      </trkpt>
      <trkpt lat="49.10854" lon="7.08764">
        <ele>221.7</ele>
        <time>2020-06-27T09:52:29Z</time>
      </trkpt>
      <trkpt lat="49.10858" lon="7.08768">
        <ele>221.7</ele>
        <time>2020-06-27T09:52:30Z</time>
      </trkpt>
      <trkpt lat="49.10862" lon="7.08773">
        <ele>221.6</ele>
        <time>2020-06-27T09:52:31Z</time>
      </trkpt>
      <trkpt lat="49.10867" lon="7.08777">
        <ele>221.5</ele>
        <time>2020-06-27T09:52:32Z</time>
      </trkpt>
      <trkpt lat="49.10873" lon="7.08782">
        <ele>221.4</ele>
        <time>2020-06-27T09:52:33Z</time>
      </trkpt>
      <trkpt lat="49.10878" lon="7.08786">
        <ele>221.4</ele>
        <time>2020-06-27T09:52:34Z</time>
      </trkpt>
      <trkpt lat="49.10884" lon="7.0879">
        <ele>221.3</ele>
        <time>2020-06-27T09:52:35Z</time>
      </trkpt>
      <trkpt lat="49.10888" lon="7.08796">
        <ele>221.2</ele>
        <time>2020-06-27T09:52:36Z</time>
      </trkpt>
      <trkpt lat="49.10893" lon="7.08801">
        <ele>221.2</ele>
        <time>2020-06-27T09:52:37Z</time>
      </trkpt>
      <trkpt lat="49.10898" lon="7.08806">
        <ele>221.1</ele>
        <time>2020-06-27T09:52:38Z</time>
      </trkpt>
      <trkpt lat="49.10903" lon="7.0881">
        <ele>221.1</ele>
        <time>2020-06-27T09:52:39Z</time>
      </trkpt>
      <trkpt lat="49.10907" lon="7.08814">
        <ele>221</ele>
        <time>2020-06-27T09:52:40Z</time>
      </trkpt>
      <trkpt lat="49.10912" lon="7.08818">
        <ele>220.9</ele>
        <time>2020-06-27T09:52:41Z</time>
      </trkpt>
      <trkpt lat="49.10916" lon="7.08821">
        <ele>220.9</ele>
        <time>2020-06-27T09:52:42Z</time>
      </trkpt>
      <trkpt lat="49.10921" lon="7.08825">
        <ele>220.8</ele>
        <time>2020-06-27T09:52:43Z</time>
      </trkpt>
      <trkpt lat="49.10926" lon="7.0883">
        <ele>220.7</ele>
        <time>2020-06-27T09:52:44Z</time>
      </trkpt>
      <trkpt lat="49.10931" lon="7.08838">
        <ele>220.6</ele>
        <time>2020-06-27T09:52:45Z</time>
      </trkpt>
      <trkpt lat="49.10936" lon="7.08844">
        <ele>220.5</ele>
        <time>2020-06-27T09:52:46Z</time>
      </trkpt>
      <trkpt lat="49.1094" lon="7.08851">
        <ele>220.5</ele>
        <time>2020-06-27T09:52:47Z</time>
      </trkpt>
      <trkpt lat="49.10945" lon="7.0886">
        <ele>220.4</ele>
        <time>2020-06-27T09:52:48Z</time>
      </trkpt>
      <trkpt lat="49.1095" lon="7.08866">
        <ele>220.3</ele>
        <time>2020-06-27T09:52:49Z</time>
      </trkpt>
      <trkpt lat="49.10955" lon="7.08872">
        <ele>220.2</ele>
        <time>2020-06-27T09:52:50Z</time>
      </trkpt>
      <trkpt lat="49.10959" lon="7.08877">
        <ele>220.2</ele>
        <time>2020-06-27T09:52:51Z</time>
      </trkpt>
      <trkpt lat="49.10963" lon="7.08881">
        <ele>220.1</ele>
        <time>2020-06-27T09:52:52Z</time>
      </trkpt>
      <trkpt lat="49.10966" lon="7.08887">
        <ele>220.1</ele>
        <time>2020-06-27T09:52:53Z</time>
      </trkpt>
      <trkpt lat="49.10971" lon="7.08893">
        <ele>220.1</ele>
        <time>2020-06-27T09:52:54Z</time>
      </trkpt>
      <trkpt lat="49.10975" lon="7.08896">
        <ele>220</ele>
        <time>2020-06-27T09:52:55Z</time>
      </trkpt>
      <trkpt lat="49.10979" lon="7.08899">
        <ele>220</ele>
        <time>2020-06-27T09:52:56Z</time>
      </trkpt>
      <trkpt lat="49.10982" lon="7.08904">
        <ele>220</ele>
        <time>2020-06-27T09:52:57Z</time>
      </trkpt>
      <trkpt lat="49.10986" lon="7.08908">
        <ele>220</ele>
        <time>2020-06-27T09:52:58Z</time>
      </trkpt>
      <trkpt lat="49.1099" lon="7.08914">
        <ele>220</ele>
        <time>2020-06-27T09:52:59Z</time>
      </trkpt>
      <trkpt lat="49.10991" lon="7.08919">
        <ele>220</ele>
        <time>2020-06-27T09:53:00Z</time>
      </trkpt>
      <trkpt lat="49.10992" lon="7.08921">
        <ele>220</ele>
        <time>2020-06-27T09:53:01Z</time>
      </trkpt>
      <trkpt lat="49.10994" lon="7.08924">
        <ele>220</ele>
        <time>2020-06-27T09:53:02Z</time>
      </trkpt>
      <trkpt lat="49.10996" lon="7.08925">
        <ele>220</ele>
        <time>2020-06-27T09:53:03Z</time>
      </trkpt>
      <trkpt lat="49.10999" lon="7.08927">
        <ele>220</ele>
        <time>2020-06-27T09:53:04Z</time>
      </trkpt>
      <trkpt lat="49.11002" lon="7.08932">
        <ele>220</ele>
        <time>2020-06-27T09:53:05Z</time>
      </trkpt>
      <trkpt lat="49.11006" lon="7.08939">
        <ele>220</ele>
        <time>2020-06-27T09:53:06Z</time>
      </trkpt>
      <trkpt lat="49.11008" lon="7.08947">
        <ele>220</ele>
        <time>2020-06-27T09:53:07Z</time>
      </trkpt>
      <trkpt lat="49.1101" lon="7.08954">
        <ele>220.1</ele>
        <time>2020-06-27T09:53:08Z</time>
      </trkpt>
      <trkpt lat="49.11012" lon="7.08962">
        <ele>220.1</ele>
        <time>2020-06-27T09:53:09Z</time>
      </trkpt>
      <trkpt lat="49.11015" lon="7.08969">
        <ele>220.2</ele>
        <time>2020-06-27T09:53:10Z</time>
      </trkpt>
      <trkpt lat="49.11016" lon="7.08976">
        <ele>220.2</ele>
        <time>2020-06-27T09:53:11Z</time>
      </trkpt>
      <trkpt lat="49.11017" lon="7.08982">
        <ele>220.2</ele>
        <time>2020-06-27T09:53:12Z</time>
      </trkpt>
      <trkpt lat="49.11017" lon="7.08988">
        <ele>220.3</ele>
        <time>2020-06-27T09:53:13Z</time>
      </trkpt>
      <trkpt lat="49.11017" lon="7.08995">
        <ele>220.3</ele>
        <time>2020-06-27T09:53:14Z</time>
      </trkpt>
      <trkpt lat="49.11018" lon="7.09002">
        <ele>220.3</ele>
        <time>2020-06-27T09:53:15Z</time>
      </trkpt>
      <trkpt lat="49.11019" lon="7.09009">
        <ele>220.3</ele>
        <time>2020-06-27T09:53:16Z</time>
      </trkpt>
      <trkpt lat="49.11019" lon="7.09016">
        <ele>220.4</ele>
        <time>2020-06-27T09:53:17Z</time>
      </trkpt>
      <trkpt lat="49.11019" lon="7.09023">
        <ele>220.4</ele>
        <time>2020-06-27T09:53:18Z</time>
      </trkpt>
      <trkpt lat="49.11019" lon="7.0903">
        <ele>220.4</ele>
        <time>2020-06-27T09:53:19Z</time>
      </trkpt>
      <trkpt lat="49.1102" lon="7.09039">
        <ele>220.5</ele>
        <time>2020-06-27T09:53:20Z</time>
      </trkpt>
      <trkpt lat="49.1102" lon="7.09048">
        <ele>220.5</ele>
        <time>2020-06-27T09:53:21Z</time>
      </trkpt>
      <trkpt lat="49.1102" lon="7.09057">
        <ele>220.6</ele>
        <time>2020-06-27T09:53:22Z</time>
      </trkpt>
      <trkpt lat="49.11019" lon="7.09063">
        <ele>220.6</ele>
        <time>2020-06-27T09:53:23Z</time>
      </trkpt>
      <trkpt lat="49.11018" lon="7.09071">
        <ele>220.7</ele>
        <time>2020-06-27T09:53:24Z</time>
      </trkpt>
      <trkpt lat="49.11018" lon="7.09079">
        <ele>220.7</ele>
        <time>2020-06-27T09:53:25Z</time>
      </trkpt>
      <trkpt lat="49.11017" lon="7.09086">
        <ele>220.8</ele>
        <time>2020-06-27T09:53:26Z</time>
      </trkpt>
      <trkpt lat="49.11017" lon="7.09095">
        <ele>220.9</ele>
        <time>2020-06-27T09:53:27Z</time>
      </trkpt>
      <trkpt lat="49.11016" lon="7.09104">
        <ele>220.9</ele>
        <time>2020-06-27T09:53:28Z</time>
      </trkpt>
      <trkpt lat="49.11016" lon="7.0911">
        <ele>221</ele>
        <time>2020-06-27T09:53:29Z</time>
      </trkpt>
      <trkpt lat="49.11015" lon="7.09118">
        <ele>221</ele>
        <time>2020-06-27T09:53:30Z</time>
      </trkpt>
      <trkpt lat="49.11016" lon="7.09126">
        <ele>221</ele>
        <time>2020-06-27T09:53:31Z</time>
      </trkpt>
      <trkpt lat="49.11015" lon="7.09135">
        <ele>221.1</ele>
        <time>2020-06-27T09:53:32Z</time>
      </trkpt>
      <trkpt lat="49.11016" lon="7.09143">
        <ele>221.1</ele>
        <time>2020-06-27T09:53:33Z</time>
      </trkpt>
      <trkpt lat="49.11015" lon="7.09152">
        <ele>221.2</ele>
        <time>2020-06-27T09:53:34Z</time>
      </trkpt>
      <trkpt lat="49.11015" lon="7.0916">
        <ele>221.2</ele>
        <time>2020-06-27T09:53:35Z</time>
      </trkpt>
      <trkpt lat="49.11015" lon="7.09168">
        <ele>221.3</ele>
        <time>2020-06-27T09:53:36Z</time>
      </trkpt>
      <trkpt lat="49.11014" lon="7.09177">
        <ele>221.3</ele>
        <time>2020-06-27T09:53:37Z</time>
      </trkpt>
      <trkpt lat="49.11014" lon="7.09187">
        <ele>221.4</ele>
        <time>2020-06-27T09:53:38Z</time>
      </trkpt>
      <trkpt lat="49.11014" lon="7.09195">
        <ele>221.4</ele>
        <time>2020-06-27T09:53:39Z</time>
      </trkpt>
      <trkpt lat="49.11013" lon="7.09203">
        <ele>221.5</ele>
        <time>2020-06-27T09:53:40Z</time>
      </trkpt>
      <trkpt lat="49.11012" lon="7.09211">
        <ele>221.6</ele>
        <time>2020-06-27T09:53:41Z</time>
      </trkpt>
      <trkpt lat="49.11011" lon="7.09219">
        <ele>221.6</ele>
        <time>2020-06-27T09:53:42Z</time>
      </trkpt>
      <trkpt lat="49.11011" lon="7.09227">
        <ele>221.7</ele>
        <time>2020-06-27T09:53:43Z</time>
      </trkpt>
      <trkpt lat="49.1101" lon="7.09234">
        <ele>221.8</ele>
        <time>2020-06-27T09:53:44Z</time>
      </trkpt>
      <trkpt lat="49.1101" lon="7.09241">
        <ele>221.8</ele>
        <time>2020-06-27T09:53:45Z</time>
      </trkpt>
      <trkpt lat="49.11011" lon="7.09251">
        <ele>221.9</ele>
        <time>2020-06-27T09:53:46Z</time>
      </trkpt>
      <trkpt lat="49.11009" lon="7.0926">
        <ele>222</ele>
        <time>2020-06-27T09:53:47Z</time>
      </trkpt>
      <trkpt lat="49.11009" lon="7.09269">
        <ele>222</ele>
        <time>2020-06-27T09:53:48Z</time>
      </trkpt>
      <trkpt lat="49.11008" lon="7.09278">
        <ele>222.1</ele>
        <time>2020-06-27T09:53:49Z</time>
      </trkpt>
      <trkpt lat="49.11007" lon="7.09287">
        <ele>222.2</ele>
        <time>2020-06-27T09:53:50Z</time>
      </trkpt>
      <trkpt lat="49.11008" lon="7.09296">
        <ele>222.3</ele>
        <time>2020-06-27T09:53:51Z</time>
      </trkpt>
      <trkpt lat="49.11007" lon="7.09304">
        <ele>222.4</ele>
        <time>2020-06-27T09:53:52Z</time>
      </trkpt>
      <trkpt lat="49.11007" lon="7.09312">
        <ele>222.4</ele>
        <time>2020-06-27T09:53:53Z</time>
      </trkpt>
      <trkpt lat="49.11007" lon="7.0932">
        <ele>222.5</ele>
        <time>2020-06-27T09:53:54Z</time>
      </trkpt>
      <trkpt lat="49.11006" lon="7.09327">
        <ele>222.6</ele>
        <time>2020-06-27T09:53:55Z</time>
      </trkpt>
      <trkpt lat="49.11006" lon="7.09336">
        <ele>222.7</ele>
        <time>2020-06-27T09:53:56Z</time>
      </trkpt>
      <trkpt lat="49.11006" lon="7.09343">
        <ele>222.8</ele>
        <time>2020-06-27T09:53:57Z</time>
      </trkpt>
      <trkpt lat="49.11006" lon="7.09349">
        <ele>222.8</ele>
        <time>2020-06-27T09:53:58Z</time>
      </trkpt>
      <trkpt lat="49.11005" lon="7.09355">
        <ele>222.9</ele>
        <time>2020-06-27T09:53:59Z</time>
      </trkpt>
      <trkpt lat="49.11005" lon="7.09362">
        <ele>223</ele>
        <time>2020-06-27T09:54:00Z</time>
      </trkpt>
      <trkpt lat="49.11005" lon="7.09368">
        <ele>223</ele>
        <time>2020-06-27T09:54:01Z</time>
      </trkpt>
      <trkpt lat="49.11005" lon="7.09374">
        <ele>223.1</ele>
        <time>2020-06-27T09:54:02Z</time>
      </trkpt>
      <trkpt lat="49.11006" lon="7.09381">
        <ele>223.2</ele>
        <time>2020-06-27T09:54:03Z</time>
      </trkpt>
      <trkpt lat="49.11006" lon="7.09387">
        <ele>223.3</ele>
        <time>2020-06-27T09:54:04Z</time>
      </trkpt>
      <trkpt lat="49.11006" lon="7.09392">
        <ele>223.3</ele>
        <time>2020-06-27T09:54:05Z</time>
      </trkpt>
      <trkpt lat="49.11006" lon="7.09396">
        <ele>223.3</ele>
        <time>2020-06-27T09:54:06Z</time>
      </trkpt>
      <trkpt lat="49.11005" lon="7.09401">
        <ele>223.4</ele>
        <time>2020-06-27T09:54:07Z</time>
      </trkpt>
      <trkpt lat="49.11003" lon="7.09403">
        <ele>223.4</ele>
        <time>2020-06-27T09:54:08Z</time>
      </trkpt>
      <trkpt lat="49.11003" lon="7.09405">
        <ele>223.4</ele>
        <time>2020-06-27T09:54:09Z</time>
      </trkpt>
      <trkpt lat="49.11003" lon="7.09407">
        <ele>223.4</ele>
        <time>2020-06-27T09:54:10Z</time>
      </trkpt>
      <trkpt lat="49.11004" lon="7.09412">
        <ele>223.5</ele>
        <time>2020-06-27T09:54:11Z</time>
      </trkpt>
      <trkpt lat="49.11006" lon="7.09418">
        <ele>223.6</ele>
        <time>2020-06-27T09:54:12Z</time>
      </trkpt>
      <trkpt lat="49.11006" lon="7.0942">
        <ele>223.6</ele>
        <time>2020-06-27T09:54:13Z</time>
      </trkpt>
      <trkpt lat="49.11005" lon="7.09425">
        <ele>223.7</ele>
        <time>2020-06-27T09:54:14Z</time>
      </trkpt>
      <trkpt lat="49.11005" lon="7.0943">
        <ele>223.7</ele>
        <time>2020-06-27T09:54:15Z</time>
      </trkpt>
      <trkpt lat="49.11005" lon="7.09436">
        <ele>223.8</ele>
        <time>2020-06-27T09:54:16Z</time>
      </trkpt>
      <trkpt lat="49.11004" lon="7.09443">
        <ele>223.9</ele>
        <time>2020-06-27T09:54:17Z</time>
      </trkpt>
      <trkpt lat="49.11003" lon="7.0945">
        <ele>224</ele>
        <time>2020-06-27T09:54:18Z</time>
      </trkpt>
      <trkpt lat="49.11002" lon="7.09459">
        <ele>224</ele>
        <time>2020-06-27T09:54:19Z</time>
      </trkpt>
      <trkpt lat="49.11002" lon="7.09468">
        <ele>224.1</ele>
        <time>2020-06-27T09:54:20Z</time>
      </trkpt>
      <trkpt lat="49.11001" lon="7.09475">
        <ele>224.1</ele>
        <time>2020-06-27T09:54:21Z</time>
      </trkpt>
      <trkpt lat="49.11001" lon="7.09483">
        <ele>224.2</ele>
        <time>2020-06-27T09:54:22Z</time>
      </trkpt>
      <trkpt lat="49.11001" lon="7.09492">
        <ele>224.2</ele>
        <time>2020-06-27T09:54:23Z</time>
      </trkpt>
      <trkpt lat="49.11002" lon="7.09499">
        <ele>224.2</ele>
        <time>2020-06-27T09:54:24Z</time>
      </trkpt>
      <trkpt lat="49.11003" lon="7.09507">
        <ele>224.2</ele>
        <time>2020-06-27T09:54:25Z</time>
      </trkpt>
      <trkpt lat="49.11003" lon="7.09515">
        <ele>224.2</ele>
        <time>2020-06-27T09:54:26Z</time>
      </trkpt>
      <trkpt lat="49.11005" lon="7.09523">
        <ele>224.2</ele>
        <time>2020-06-27T09:54:27Z</time>
      </trkpt>
      <trkpt lat="49.11006" lon="7.09532">
        <ele>224.2</ele>
        <time>2020-06-27T09:54:28Z</time>
      </trkpt>
      <trkpt lat="49.11005" lon="7.0954">
        <ele>224.1</ele>
        <time>2020-06-27T09:54:29Z</time>
      </trkpt>
      <trkpt lat="49.11007" lon="7.09549">
        <ele>224.1</ele>
        <time>2020-06-27T09:54:30Z</time>
      </trkpt>
      <trkpt lat="49.11006" lon="7.09555">
        <ele>224</ele>
        <time>2020-06-27T09:54:31Z</time>
      </trkpt>
      <trkpt lat="49.11007" lon="7.09563">
        <ele>224</ele>
        <time>2020-06-27T09:54:32Z</time>
      </trkpt>
      <trkpt lat="49.11006" lon="7.09568">
        <ele>224</ele>
        <time>2020-06-27T09:54:33Z</time>
      </trkpt>
      <trkpt lat="49.11006" lon="7.09574">
        <ele>224</ele>
        <time>2020-06-27T09:54:34Z</time>
      </trkpt>
      <trkpt lat="49.11007" lon="7.09582">
        <ele>224</ele>
        <time>2020-06-27T09:54:35Z</time>
      </trkpt>
      <trkpt lat="49.11008" lon="7.09589">
        <ele>224</ele>
        <time>2020-06-27T09:54:36Z</time>
      </trkpt>
      <trkpt lat="49.11009" lon="7.09597">
        <ele>224</ele>
        <time>2020-06-27T09:54:37Z</time>
      </trkpt>
      <trkpt lat="49.11011" lon="7.09605">
        <ele>224.1</ele>
        <time>2020-06-27T09:54:38Z</time>
      </trkpt>
      <trkpt lat="49.11012" lon="7.09613">
        <ele>224</ele>
        <time>2020-06-27T09:54:39Z</time>
      </trkpt>
      <trkpt lat="49.11012" lon="7.0962">
        <ele>223.9</ele>
        <time>2020-06-27T09:54:40Z</time>
      </trkpt>
      <trkpt lat="49.11014" lon="7.09628">
        <ele>223.9</ele>
        <time>2020-06-27T09:54:41Z</time>
      </trkpt>
      <trkpt lat="49.11014" lon="7.09635">
        <ele>223.9</ele>
        <time>2020-06-27T09:54:42Z</time>
      </trkpt>
      <trkpt lat="49.11015" lon="7.09642">
        <ele>223.8</ele>
        <time>2020-06-27T09:54:43Z</time>
      </trkpt>
      <trkpt lat="49.11017" lon="7.09651">
        <ele>223.8</ele>
        <time>2020-06-27T09:54:44Z</time>
      </trkpt>
      <trkpt lat="49.11019" lon="7.09658">
        <ele>223.9</ele>
        <time>2020-06-27T09:54:45Z</time>
      </trkpt>
      <trkpt lat="49.11019" lon="7.09665">
        <ele>223.9</ele>
        <time>2020-06-27T09:54:46Z</time>
      </trkpt>
      <trkpt lat="49.1102" lon="7.09672">
        <ele>224</ele>
        <time>2020-06-27T09:54:47Z</time>
      </trkpt>
      <trkpt lat="49.11022" lon="7.0968">
        <ele>224</ele>
        <time>2020-06-27T09:54:48Z</time>
      </trkpt>
      <trkpt lat="49.11023" lon="7.09687">
        <ele>224.1</ele>
        <time>2020-06-27T09:54:49Z</time>
      </trkpt>
      <trkpt lat="49.11024" lon="7.09693">
        <ele>224.1</ele>
        <time>2020-06-27T09:54:50Z</time>
      </trkpt>
      <trkpt lat="49.11026" lon="7.09699">
        <ele>224.2</ele>
        <time>2020-06-27T09:54:51Z</time>
      </trkpt>
      <trkpt lat="49.11028" lon="7.09708">
        <ele>224.2</ele>
        <time>2020-06-27T09:54:52Z</time>
      </trkpt>
      <trkpt lat="49.11029" lon="7.09714">
        <ele>224.2</ele>
        <time>2020-06-27T09:54:53Z</time>
      </trkpt>
      <trkpt lat="49.1103" lon="7.09723">
        <ele>224.3</ele>
        <time>2020-06-27T09:54:54Z</time>
      </trkpt>
      <trkpt lat="49.11033" lon="7.09731">
        <ele>224.3</ele>
        <time>2020-06-27T09:54:55Z</time>
      </trkpt>
      <trkpt lat="49.11034" lon="7.09738">
        <ele>224.4</ele>
        <time>2020-06-27T09:54:56Z</time>
      </trkpt>
      <trkpt lat="49.11035" lon="7.09747">
        <ele>224.5</ele>
        <time>2020-06-27T09:54:57Z</time>
      </trkpt>
      <trkpt lat="49.11035" lon="7.09754">
        <ele>224.6</ele>
        <time>2020-06-27T09:54:58Z</time>
      </trkpt>
      <trkpt lat="49.11033" lon="7.09761">
        <ele>224.7</ele>
        <time>2020-06-27T09:54:59Z</time>
      </trkpt>
      <trkpt lat="49.11034" lon="7.09768">
        <ele>224.8</ele>
        <time>2020-06-27T09:55:00Z</time>
      </trkpt>
      <trkpt lat="49.11036" lon="7.09775">
        <ele>224.8</ele>
        <time>2020-06-27T09:55:01Z</time>
      </trkpt>
      <trkpt lat="49.11038" lon="7.0978">
        <ele>224.9</ele>
        <time>2020-06-27T09:55:02Z</time>
      </trkpt>
      <trkpt lat="49.1104" lon="7.09783">
        <ele>224.9</ele>
        <time>2020-06-27T09:55:03Z</time>
      </trkpt>
      <trkpt lat="49.11044" lon="7.09786">
        <ele>225</ele>
        <time>2020-06-27T09:55:04Z</time>
      </trkpt>
      <trkpt lat="49.11047" lon="7.09791">
        <ele>225.1</ele>
        <time>2020-06-27T09:55:05Z</time>
      </trkpt>
      <trkpt lat="49.1105" lon="7.09798">
        <ele>225.1</ele>
        <time>2020-06-27T09:55:06Z</time>
      </trkpt>
      <trkpt lat="49.11053" lon="7.09805">
        <ele>225.2</ele>
        <time>2020-06-27T09:55:07Z</time>
      </trkpt>
      <trkpt lat="49.11055" lon="7.09813">
        <ele>225.3</ele>
        <time>2020-06-27T09:55:08Z</time>
      </trkpt>
      <trkpt lat="49.11057" lon="7.09821">
        <ele>225.5</ele>
        <time>2020-06-27T09:55:09Z</time>
      </trkpt>
      <trkpt lat="49.11059" lon="7.09829">
        <ele>225.6</ele>
        <time>2020-06-27T09:55:10Z</time>
      </trkpt>
      <trkpt lat="49.11062" lon="7.09837">
        <ele>225.7</ele>
        <time>2020-06-27T09:55:11Z</time>
      </trkpt>
      <trkpt lat="49.11063" lon="7.09846">
        <ele>225.9</ele>
        <time>2020-06-27T09:55:12Z</time>
      </trkpt>
      <trkpt lat="49.11066" lon="7.09853">
        <ele>226.1</ele>
        <time>2020-06-27T09:55:13Z</time>
      </trkpt>
      <trkpt lat="49.11068" lon="7.09862">
        <ele>226.2</ele>
        <time>2020-06-27T09:55:14Z</time>
      </trkpt>
      <trkpt lat="49.11071" lon="7.09869">
        <ele>226.4</ele>
        <time>2020-06-27T09:55:15Z</time>
      </trkpt>
      <trkpt lat="49.11073" lon="7.09877">
        <ele>226.6</ele>
        <time>2020-06-27T09:55:16Z</time>
      </trkpt>
      <trkpt lat="49.11075" lon="7.09885">
        <ele>226.8</ele>
        <time>2020-06-27T09:55:17Z</time>
      </trkpt>
      <trkpt lat="49.11078" lon="7.09893">
        <ele>227</ele>
        <time>2020-06-27T09:55:18Z</time>
      </trkpt>
      <trkpt lat="49.1108" lon="7.099">
        <ele>227.2</ele>
        <time>2020-06-27T09:55:19Z</time>
      </trkpt>
      <trkpt lat="49.11081" lon="7.09909">
        <ele>227.5</ele>
        <time>2020-06-27T09:55:20Z</time>
      </trkpt>
      <trkpt lat="49.11082" lon="7.09916">
        <ele>227.7</ele>
        <time>2020-06-27T09:55:21Z</time>
      </trkpt>
      <trkpt lat="49.11084" lon="7.09923">
        <ele>227.9</ele>
        <time>2020-06-27T09:55:22Z</time>
      </trkpt>
      <trkpt lat="49.11086" lon="7.09927">
        <ele>228</ele>
        <time>2020-06-27T09:55:23Z</time>
      </trkpt>
      <trkpt lat="49.11087" lon="7.09933">
        <ele>228.2</ele>
        <time>2020-06-27T09:55:24Z</time>
      </trkpt>
      <trkpt lat="49.1109" lon="7.0994">
        <ele>228.5</ele>
        <time>2020-06-27T09:55:25Z</time>
      </trkpt>
      <trkpt lat="49.11092" lon="7.09945">
        <ele>228.7</ele>
        <time>2020-06-27T09:55:26Z</time>
      </trkpt>
      <trkpt lat="49.11094" lon="7.09951">
        <ele>228.9</ele>
        <time>2020-06-27T09:55:27Z</time>
      </trkpt>
      <trkpt lat="49.11096" lon="7.09956">
        <ele>229.1</ele>
        <time>2020-06-27T09:55:28Z</time>
      </trkpt>
      <trkpt lat="49.11097" lon="7.09963">
        <ele>229.3</ele>
        <time>2020-06-27T09:55:29Z</time>
      </trkpt>
      <trkpt lat="49.11099" lon="7.09969">
        <ele>229.5</ele>
        <time>2020-06-27T09:55:30Z</time>
      </trkpt>
      <trkpt lat="49.11101" lon="7.09974">
        <ele>229.7</ele>
        <time>2020-06-27T09:55:31Z</time>
      </trkpt>
      <trkpt lat="49.11103" lon="7.09979">
        <ele>229.9</ele>
        <time>2020-06-27T09:55:32Z</time>
      </trkpt>
      <trkpt lat="49.11106" lon="7.09985">
        <ele>230.2</ele>
        <time>2020-06-27T09:55:33Z</time>
      </trkpt>
      <trkpt lat="49.11107" lon="7.0999">
        <ele>230.4</ele>
        <time>2020-06-27T09:55:34Z</time>
      </trkpt>
      <trkpt lat="49.11109" lon="7.09995">
        <ele>230.7</ele>
        <time>2020-06-27T09:55:35Z</time>
      </trkpt>
      <trkpt lat="49.1111" lon="7.1">
        <ele>230.9</ele>
        <time>2020-06-27T09:55:36Z</time>
      </trkpt>
      <trkpt lat="49.11112" lon="7.10005">
        <ele>231.1</ele>
        <time>2020-06-27T09:55:37Z</time>
      </trkpt>
      <trkpt lat="49.11114" lon="7.1001">
        <ele>231.4</ele>
        <time>2020-06-27T09:55:38Z</time>
      </trkpt>
      <trkpt lat="49.11115" lon="7.10014">
        <ele>231.7</ele>
        <time>2020-06-27T09:55:39Z</time>
      </trkpt>
      <trkpt lat="49.11117" lon="7.10019">
        <ele>231.9</ele>
        <time>2020-06-27T09:55:40Z</time>
      </trkpt>
      <trkpt lat="49.11117" lon="7.10024">
        <ele>232.2</ele>
        <time>2020-06-27T09:55:41Z</time>
      </trkpt>
      <trkpt lat="49.11118" lon="7.1003">
        <ele>232.4</ele>
        <time>2020-06-27T09:55:42Z</time>
      </trkpt>
      <trkpt lat="49.11119" lon="7.10031">
        <ele>232.5</ele>
        <time>2020-06-27T09:55:43Z</time>
      </trkpt>
      <trkpt lat="49.1112" lon="7.10036">
        <ele>232.8</ele>
        <time>2020-06-27T09:55:44Z</time>
      </trkpt>
      <trkpt lat="49.11121" lon="7.10037">
        <ele>232.8</ele>
        <time>2020-06-27T09:55:45Z</time>
      </trkpt>
      <trkpt lat="49.1112" lon="7.10038">
        <ele>233</ele>
        <time>2020-06-27T09:55:46Z</time>
      </trkpt>
      <trkpt lat="49.11121" lon="7.1004">
        <ele>233</ele>
        <time>2020-06-27T09:55:47Z</time>
      </trkpt>
      <trkpt lat="49.1112" lon="7.10041">
        <ele>233</ele>
        <time>2020-06-27T09:55:48Z</time>
      </trkpt>
      <trkpt lat="49.1112" lon="7.10041">
        <ele>233</ele>
        <time>2020-06-27T09:55:49Z</time>
      </trkpt>
      <trkpt lat="49.11119" lon="7.10042">
        <ele>233.1</ele>
        <time>2020-06-27T09:55:50Z</time>
      </trkpt>
      <trkpt lat="49.11119" lon="7.10041">
        <ele>233.1</ele>
        <time>2020-06-27T09:55:51Z</time>
      </trkpt>
      <trkpt lat="49.1112" lon="7.10041">
        <ele>233.1</ele>
        <time>2020-06-27T09:55:52Z</time>
      </trkpt>
      <trkpt lat="49.1112" lon="7.1004">
        <ele>233.1</ele>
        <time>2020-06-27T09:55:53Z</time>
      </trkpt>
      <trkpt lat="49.1112" lon="7.1004">
        <ele>233.1</ele>
        <time>2020-06-27T09:55:54Z</time>
      </trkpt>
      <trkpt lat="49.1112" lon="7.1004">
        <ele>233.1</ele>
        <time>2020-06-27T09:55:55Z</time>
      </trkpt>
      <trkpt lat="49.1112" lon="7.10041">
        <ele>233.1</ele>
        <time>2020-06-27T09:55:56Z</time>
      </trkpt>
      <trkpt lat="49.1112" lon="7.10041">
        <ele>233.1</ele>
        <time>2020-06-27T09:55:57Z</time>
      </trkpt>
      <trkpt lat="49.1112" lon="7.10041">
        <ele>233.1</ele>
        <time>2020-06-27T09:55:58Z</time>
      </trkpt>
      <trkpt lat="49.11123" lon="7.10044">
        <ele>233.2</ele>
        <time>2020-06-27T09:56:14Z</time>
      </trkpt>
      <trkpt lat="49.11124" lon="7.10046">
        <ele>233.2</ele>
        <time>2020-06-27T09:56:15Z</time>
      </trkpt>
      <trkpt lat="49.11126" lon="7.10049">
        <ele>233.5</ele>
        <time>2020-06-27T09:56:16Z</time>
      </trkpt>
      <trkpt lat="49.11127" lon="7.10052">
        <ele>233.5</ele>
        <time>2020-06-27T09:56:17Z</time>
      </trkpt>
      <trkpt lat="49.11128" lon="7.10054">
        <ele>233.5</ele>
        <time>2020-06-27T09:56:18Z</time>
      </trkpt>
      <trkpt lat="49.1113" lon="7.10057">
        <ele>233.5</ele>
        <time>2020-06-27T09:56:19Z</time>
      </trkpt>
      <trkpt lat="49.1113" lon="7.10058">
        <ele>233.4</ele>
        <time>2020-06-27T09:56:20Z</time>
      </trkpt>
      <trkpt lat="49.11134" lon="7.10059">
        <ele>233.4</ele>
        <time>2020-06-27T09:56:21Z</time>
      </trkpt>
      <trkpt lat="49.11135" lon="7.10058">
        <ele>233.4</ele>
        <time>2020-06-27T09:56:22Z</time>
      </trkpt>
      <trkpt lat="49.11138" lon="7.10055">
        <ele>233.4</ele>
        <time>2020-06-27T09:56:23Z</time>
      </trkpt>
      <trkpt lat="49.11141" lon="7.10053">
        <ele>233.3</ele>
        <time>2020-06-27T09:56:24Z</time>
      </trkpt>
      <trkpt lat="49.11145" lon="7.10048">
        <ele>233.3</ele>
        <time>2020-06-27T09:56:25Z</time>
      </trkpt>
      <trkpt lat="49.11149" lon="7.10045">
        <ele>233.3</ele>
        <time>2020-06-27T09:56:26Z</time>
      </trkpt>
      <trkpt lat="49.11154" lon="7.10042">
        <ele>233.3</ele>
        <time>2020-06-27T09:56:27Z</time>
      </trkpt>
      <trkpt lat="49.11158" lon="7.10038">
        <ele>233.3</ele>
        <time>2020-06-27T09:56:28Z</time>
      </trkpt>
      <trkpt lat="49.11162" lon="7.10035">
        <ele>233.3</ele>
        <time>2020-06-27T09:56:29Z</time>
      </trkpt>
      <trkpt lat="49.11167" lon="7.10032">
        <ele>233.3</ele>
        <time>2020-06-27T09:56:30Z</time>
      </trkpt>
      <trkpt lat="49.11171" lon="7.10028">
        <ele>233.3</ele>
        <time>2020-06-27T09:56:31Z</time>
      </trkpt>
      <trkpt lat="49.11176" lon="7.10024">
        <ele>233.3</ele>
        <time>2020-06-27T09:56:32Z</time>
      </trkpt>
      <trkpt lat="49.1118" lon="7.10021">
        <ele>233.3</ele>
        <time>2020-06-27T09:56:33Z</time>
      </trkpt>
      <trkpt lat="49.11185" lon="7.10017">
        <ele>233.4</ele>
        <time>2020-06-27T09:56:34Z</time>
      </trkpt>
      <trkpt lat="49.11189" lon="7.10013">
        <ele>233.4</ele>
        <time>2020-06-27T09:56:35Z</time>
      </trkpt>
      <trkpt lat="49.11194" lon="7.1001">
        <ele>233.4</ele>
        <time>2020-06-27T09:56:36Z</time>
      </trkpt>
      <trkpt lat="49.11199" lon="7.10006">
        <ele>233.5</ele>
        <time>2020-06-27T09:56:37Z</time>
      </trkpt>
      <trkpt lat="49.11204" lon="7.10002">
        <ele>233.5</ele>
        <time>2020-06-27T09:56:38Z</time>
      </trkpt>
      <trkpt lat="49.11208" lon="7.09999">
        <ele>233.5</ele>
        <time>2020-06-27T09:56:39Z</time>
      </trkpt>
      <trkpt lat="49.11213" lon="7.09995">
        <ele>233.6</ele>
        <time>2020-06-27T09:56:40Z</time>
      </trkpt>
      <trkpt lat="49.11219" lon="7.09993">
        <ele>233.6</ele>
        <time>2020-06-27T09:56:41Z</time>
      </trkpt>
      <trkpt lat="49.11224" lon="7.09989">
        <ele>233.6</ele>
        <time>2020-06-27T09:56:42Z</time>
      </trkpt>
      <trkpt lat="49.11229" lon="7.09986">
        <ele>233.6</ele>
        <time>2020-06-27T09:56:43Z</time>
      </trkpt>
      <trkpt lat="49.11233" lon="7.09982">
        <ele>233.6</ele>
        <time>2020-06-27T09:56:44Z</time>
      </trkpt>
      <trkpt lat="49.11237" lon="7.09978">
        <ele>233.6</ele>
        <time>2020-06-27T09:56:45Z</time>
      </trkpt>
      <trkpt lat="49.11242" lon="7.09975">
        <ele>233.6</ele>
        <time>2020-06-27T09:56:46Z</time>
      </trkpt>
      <trkpt lat="49.11248" lon="7.09972">
        <ele>233.6</ele>
        <time>2020-06-27T09:56:47Z</time>
      </trkpt>
      <trkpt lat="49.11253" lon="7.09968">
        <ele>233.7</ele>
        <time>2020-06-27T09:56:48Z</time>
      </trkpt>
      <trkpt lat="49.11258" lon="7.09967">
        <ele>233.6</ele>
        <time>2020-06-27T09:56:49Z</time>
      </trkpt>
      <trkpt lat="49.11264" lon="7.09964">
        <ele>233.5</ele>
        <time>2020-06-27T09:56:50Z</time>
      </trkpt>
      <trkpt lat="49.11269" lon="7.0996">
        <ele>233.5</ele>
        <time>2020-06-27T09:56:51Z</time>
      </trkpt>
      <trkpt lat="49.11274" lon="7.09958">
        <ele>233.4</ele>
        <time>2020-06-27T09:56:52Z</time>
      </trkpt>
      <trkpt lat="49.11279" lon="7.09955">
        <ele>233.3</ele>
        <time>2020-06-27T09:56:53Z</time>
      </trkpt>
      <trkpt lat="49.11285" lon="7.09951">
        <ele>233.2</ele>
        <time>2020-06-27T09:56:54Z</time>
      </trkpt>
      <trkpt lat="49.1129" lon="7.09947">
        <ele>233.1</ele>
        <time>2020-06-27T09:56:55Z</time>
      </trkpt>
      <trkpt lat="49.11295" lon="7.09944">
        <ele>233.1</ele>
        <time>2020-06-27T09:56:56Z</time>
      </trkpt>
      <trkpt lat="49.113" lon="7.09941">
        <ele>233</ele>
        <time>2020-06-27T09:56:57Z</time>
      </trkpt>
      <trkpt lat="49.11306" lon="7.09938">
        <ele>233</ele>
        <time>2020-06-27T09:56:58Z</time>
      </trkpt>
      <trkpt lat="49.11312" lon="7.09934">
        <ele>232.9</ele>
        <time>2020-06-27T09:56:59Z</time>
      </trkpt>
      <trkpt lat="49.11317" lon="7.0993">
        <ele>232.9</ele>
        <time>2020-06-27T09:57:00Z</time>
      </trkpt>
      <trkpt lat="49.11322" lon="7.09927">
        <ele>232.8</ele>
        <time>2020-06-27T09:57:01Z</time>
      </trkpt>
      <trkpt lat="49.11327" lon="7.09925">
        <ele>232.7</ele>
        <time>2020-06-27T09:57:02Z</time>
      </trkpt>
      <trkpt lat="49.11333" lon="7.09922">
        <ele>232.6</ele>
        <time>2020-06-27T09:57:03Z</time>
      </trkpt>
      <trkpt lat="49.11339" lon="7.09922">
        <ele>232.6</ele>
        <time>2020-06-27T09:57:04Z</time>
      </trkpt>
      <trkpt lat="49.11344" lon="7.09923">
        <ele>232.5</ele>
        <time>2020-06-27T09:57:05Z</time>
      </trkpt>
      <trkpt lat="49.11349" lon="7.09926">
        <ele>232.5</ele>
        <time>2020-06-27T09:57:06Z</time>
      </trkpt>
      <trkpt lat="49.11354" lon="7.0993">
        <ele>232.4</ele>
        <time>2020-06-27T09:57:07Z</time>
      </trkpt>
      <trkpt lat="49.1136" lon="7.09936">
        <ele>232.4</ele>
        <time>2020-06-27T09:57:08Z</time>
      </trkpt>
      <trkpt lat="49.11365" lon="7.0994">
        <ele>232.3</ele>
        <time>2020-06-27T09:57:09Z</time>
      </trkpt>
      <trkpt lat="49.11372" lon="7.09942">
        <ele>232.3</ele>
        <time>2020-06-27T09:57:10Z</time>
      </trkpt>
      <trkpt lat="49.11377" lon="7.09944">
        <ele>232.3</ele>
        <time>2020-06-27T09:57:11Z</time>
      </trkpt>
      <trkpt lat="49.11383" lon="7.09945">
        <ele>232.2</ele>
        <time>2020-06-27T09:57:12Z</time>
      </trkpt>
      <trkpt lat="49.11388" lon="7.09945">
        <ele>232.1</ele>
        <time>2020-06-27T09:57:13Z</time>
      </trkpt>
      <trkpt lat="49.11392" lon="7.09945">
        <ele>232.1</ele>
        <time>2020-06-27T09:57:14Z</time>
      </trkpt>
      <trkpt lat="49.11396" lon="7.09946">
        <ele>232</ele>
        <time>2020-06-27T09:57:15Z</time>
      </trkpt>
      <trkpt lat="49.114" lon="7.09949">
        <ele>232</ele>
        <time>2020-06-27T09:57:16Z</time>
      </trkpt>
      <trkpt lat="49.11405" lon="7.09953">
        <ele>231.9</ele>
        <time>2020-06-27T09:57:17Z</time>
      </trkpt>
      <trkpt lat="49.1141" lon="7.09957">
        <ele>231.8</ele>
        <time>2020-06-27T09:57:18Z</time>
      </trkpt>
      <trkpt lat="49.11415" lon="7.09964">
        <ele>231.6</ele>
        <time>2020-06-27T09:57:19Z</time>
      </trkpt>
      <trkpt lat="49.1142" lon="7.09969">
        <ele>231.4</ele>
        <time>2020-06-27T09:57:20Z</time>
      </trkpt>
      <trkpt lat="49.11424" lon="7.09972">
        <ele>231.3</ele>
        <time>2020-06-27T09:57:21Z</time>
      </trkpt>
      <trkpt lat="49.1143" lon="7.09974">
        <ele>231.2</ele>
        <time>2020-06-27T09:57:22Z</time>
      </trkpt>
      <trkpt lat="49.11435" lon="7.09977">
        <ele>231.1</ele>
        <time>2020-06-27T09:57:23Z</time>
      </trkpt>
      <trkpt lat="49.11441" lon="7.0998">
        <ele>231.1</ele>
        <time>2020-06-27T09:57:24Z</time>
      </trkpt>
      <trkpt lat="49.11446" lon="7.09982">
        <ele>231.1</ele>
        <time>2020-06-27T09:57:25Z</time>
      </trkpt>
      <trkpt lat="49.11451" lon="7.09986">
        <ele>231</ele>
        <time>2020-06-27T09:57:26Z</time>
      </trkpt>
      <trkpt lat="49.11457" lon="7.09989">
        <ele>231</ele>
        <time>2020-06-27T09:57:27Z</time>
      </trkpt>
      <trkpt lat="49.11464" lon="7.09991">
        <ele>230.9</ele>
        <time>2020-06-27T09:57:28Z</time>
      </trkpt>
      <trkpt lat="49.1147" lon="7.09995">
        <ele>230.9</ele>
        <time>2020-06-27T09:57:29Z</time>
      </trkpt>
      <trkpt lat="49.11476" lon="7.09999">
        <ele>230.8</ele>
        <time>2020-06-27T09:57:30Z</time>
      </trkpt>
      <trkpt lat="49.11482" lon="7.10002">
        <ele>230.8</ele>
        <time>2020-06-27T09:57:31Z</time>
      </trkpt>
      <trkpt lat="49.11487" lon="7.10005">
        <ele>230.7</ele>
        <time>2020-06-27T09:57:32Z</time>
      </trkpt>
      <trkpt lat="49.11493" lon="7.10008">
        <ele>230.7</ele>
        <time>2020-06-27T09:57:33Z</time>
      </trkpt>
      <trkpt lat="49.11499" lon="7.10012">
        <ele>230.7</ele>
        <time>2020-06-27T09:57:34Z</time>
      </trkpt>
      <trkpt lat="49.11505" lon="7.10016">
        <ele>230.7</ele>
        <time>2020-06-27T09:57:35Z</time>
      </trkpt>
      <trkpt lat="49.11511" lon="7.10019">
        <ele>230.7</ele>
        <time>2020-06-27T09:57:36Z</time>
      </trkpt>
      <trkpt lat="49.11517" lon="7.10022">
        <ele>230.6</ele>
        <time>2020-06-27T09:57:37Z</time>
      </trkpt>
      <trkpt lat="49.11523" lon="7.10026">
        <ele>230.6</ele>
        <time>2020-06-27T09:57:38Z</time>
      </trkpt>
      <trkpt lat="49.11528" lon="7.10029">
        <ele>230.5</ele>
        <time>2020-06-27T09:57:39Z</time>
      </trkpt>
      <trkpt lat="49.11534" lon="7.10032">
        <ele>230.5</ele>
        <time>2020-06-27T09:57:40Z</time>
      </trkpt>
      <trkpt lat="49.11539" lon="7.10035">
        <ele>230.4</ele>
        <time>2020-06-27T09:57:41Z</time>
      </trkpt>
      <trkpt lat="49.11546" lon="7.10039">
        <ele>230.4</ele>
        <time>2020-06-27T09:57:42Z</time>
      </trkpt>
      <trkpt lat="49.11552" lon="7.10042">
        <ele>230.4</ele>
        <time>2020-06-27T09:57:43Z</time>
      </trkpt>
      <trkpt lat="49.11558" lon="7.10046">
        <ele>230.3</ele>
        <time>2020-06-27T09:57:44Z</time>
      </trkpt>
      <trkpt lat="49.11564" lon="7.1005">
        <ele>230.3</ele>
        <time>2020-06-27T09:57:45Z</time>
      </trkpt>
      <trkpt lat="49.1157" lon="7.10053">
        <ele>230.2</ele>
        <time>2020-06-27T09:57:46Z</time>
      </trkpt>
      <trkpt lat="49.11577" lon="7.10057">
        <ele>230.2</ele>
        <time>2020-06-27T09:57:47Z</time>
      </trkpt>
      <trkpt lat="49.11583" lon="7.1006">
        <ele>230.2</ele>
        <time>2020-06-27T09:57:48Z</time>
      </trkpt>
      <trkpt lat="49.11588" lon="7.10062">
        <ele>230.3</ele>
        <time>2020-06-27T09:57:49Z</time>
      </trkpt>
      <trkpt lat="49.11595" lon="7.10066">
        <ele>230.4</ele>
        <time>2020-06-27T09:57:50Z</time>
      </trkpt>
      <trkpt lat="49.11601" lon="7.10069">
        <ele>230.5</ele>
        <time>2020-06-27T09:57:51Z</time>
      </trkpt>
      <trkpt lat="49.11607" lon="7.10072">
        <ele>230.6</ele>
        <time>2020-06-27T09:57:52Z</time>
      </trkpt>
      <trkpt lat="49.11613" lon="7.10074">
        <ele>230.5</ele>
        <time>2020-06-27T09:57:53Z</time>
      </trkpt>
      <trkpt lat="49.11618" lon="7.10076">
        <ele>230.5</ele>
        <time>2020-06-27T09:57:54Z</time>
      </trkpt>
      <trkpt lat="49.11624" lon="7.10079">
        <ele>230.4</ele>
        <time>2020-06-27T09:57:55Z</time>
      </trkpt>
      <trkpt lat="49.1163" lon="7.10081">
        <ele>230.4</ele>
        <time>2020-06-27T09:57:56Z</time>
      </trkpt>
      <trkpt lat="49.11635" lon="7.10084">
        <ele>230.3</ele>
        <time>2020-06-27T09:57:57Z</time>
      </trkpt>
      <trkpt lat="49.1164" lon="7.10088">
        <ele>230.2</ele>
        <time>2020-06-27T09:57:58Z</time>
      </trkpt>
      <trkpt lat="49.11645" lon="7.10095">
        <ele>230.2</ele>
        <time>2020-06-27T09:57:59Z</time>
      </trkpt>
      <trkpt lat="49.11648" lon="7.10105">
        <ele>230.1</ele>
        <time>2020-06-27T09:58:00Z</time>
      </trkpt>
      <trkpt lat="49.11649" lon="7.10115">
        <ele>230.1</ele>
        <time>2020-06-27T09:58:01Z</time>
      </trkpt>
      <trkpt lat="49.11653" lon="7.10121">
        <ele>230</ele>
        <time>2020-06-27T09:58:02Z</time>
      </trkpt>
      <trkpt lat="49.11656" lon="7.10125">
        <ele>230</ele>
        <time>2020-06-27T09:58:03Z</time>
      </trkpt>
      <trkpt lat="49.1166" lon="7.10128">
        <ele>230</ele>
        <time>2020-06-27T09:58:04Z</time>
      </trkpt>
      <trkpt lat="49.11664" lon="7.10131">
        <ele>230</ele>
        <time>2020-06-27T09:58:05Z</time>
      </trkpt>
      <trkpt lat="49.11667" lon="7.10132">
        <ele>230</ele>
        <time>2020-06-27T09:58:06Z</time>
      </trkpt>
      <trkpt lat="49.1167" lon="7.10134">
        <ele>229.9</ele>
        <time>2020-06-27T09:58:07Z</time>
      </trkpt>
      <trkpt lat="49.11674" lon="7.10136">
        <ele>229.9</ele>
        <time>2020-06-27T09:58:08Z</time>
      </trkpt>
      <trkpt lat="49.11676" lon="7.10136">
        <ele>229.8</ele>
        <time>2020-06-27T09:58:09Z</time>
      </trkpt>
      <trkpt lat="49.1168" lon="7.10134">
        <ele>229.8</ele>
        <time>2020-06-27T09:58:10Z</time>
      </trkpt>
      <trkpt lat="49.11685" lon="7.10132">
        <ele>229.7</ele>
        <time>2020-06-27T09:58:11Z</time>
      </trkpt>
      <trkpt lat="49.11688" lon="7.10129">
        <ele>229.7</ele>
        <time>2020-06-27T09:58:12Z</time>
      </trkpt>
      <trkpt lat="49.11691" lon="7.10128">
        <ele>229.6</ele>
        <time>2020-06-27T09:58:13Z</time>
      </trkpt>
      <trkpt lat="49.11695" lon="7.10123">
        <ele>229.5</ele>
        <time>2020-06-27T09:58:14Z</time>
      </trkpt>
      <trkpt lat="49.117" lon="7.10116">
        <ele>229.5</ele>
        <time>2020-06-27T09:58:15Z</time>
      </trkpt>
      <trkpt lat="49.11703" lon="7.1011">
        <ele>229.4</ele>
        <time>2020-06-27T09:58:16Z</time>
      </trkpt>
      <trkpt lat="49.11705" lon="7.10101">
        <ele>229.3</ele>
        <time>2020-06-27T09:58:17Z</time>
      </trkpt>
      <trkpt lat="49.11706" lon="7.10093">
        <ele>229.3</ele>
        <time>2020-06-27T09:58:18Z</time>
      </trkpt>
      <trkpt lat="49.11707" lon="7.10084">
        <ele>229.3</ele>
        <time>2020-06-27T09:58:19Z</time>
      </trkpt>
      <trkpt lat="49.11707" lon="7.10074">
        <ele>229.2</ele>
        <time>2020-06-27T09:58:20Z</time>
      </trkpt>
      <trkpt lat="49.11706" lon="7.10066">
        <ele>229.2</ele>
        <time>2020-06-27T09:58:21Z</time>
      </trkpt>
      <trkpt lat="49.11704" lon="7.10058">
        <ele>229.1</ele>
        <time>2020-06-27T09:58:22Z</time>
      </trkpt>
      <trkpt lat="49.11701" lon="7.10049">
        <ele>229.1</ele>
        <time>2020-06-27T09:58:23Z</time>
      </trkpt>
      <trkpt lat="49.11697" lon="7.10041">
        <ele>229.2</ele>
        <time>2020-06-27T09:58:24Z</time>
      </trkpt>
      <trkpt lat="49.11692" lon="7.10034">
        <ele>229.2</ele>
        <time>2020-06-27T09:58:25Z</time>
      </trkpt>
      <trkpt lat="49.11687" lon="7.10028">
        <ele>229.3</ele>
        <time>2020-06-27T09:58:26Z</time>
      </trkpt>
      <trkpt lat="49.11682" lon="7.10024">
        <ele>229.3</ele>
        <time>2020-06-27T09:58:27Z</time>
      </trkpt>
      <trkpt lat="49.11676" lon="7.10021">
        <ele>229.3</ele>
        <time>2020-06-27T09:58:28Z</time>
      </trkpt>
      <trkpt lat="49.1167" lon="7.10022">
        <ele>229.3</ele>
        <time>2020-06-27T09:58:29Z</time>
      </trkpt>
      <trkpt lat="49.11663" lon="7.10024">
        <ele>229.4</ele>
        <time>2020-06-27T09:58:30Z</time>
      </trkpt>
      <trkpt lat="49.11658" lon="7.10027">
        <ele>229.4</ele>
        <time>2020-06-27T09:58:31Z</time>
      </trkpt>
      <trkpt lat="49.11653" lon="7.10032">
        <ele>229.5</ele>
        <time>2020-06-27T09:58:32Z</time>
      </trkpt>
      <trkpt lat="49.11648" lon="7.10038">
        <ele>229.6</ele>
        <time>2020-06-27T09:58:33Z</time>
      </trkpt>
      <trkpt lat="49.11644" lon="7.10047">
        <ele>229.7</ele>
        <time>2020-06-27T09:58:34Z</time>
      </trkpt>
      <trkpt lat="49.11642" lon="7.10055">
        <ele>229.7</ele>
        <time>2020-06-27T09:58:35Z</time>
      </trkpt>
      <trkpt lat="49.11639" lon="7.10064">
        <ele>229.8</ele>
        <time>2020-06-27T09:58:36Z</time>
      </trkpt>
      <trkpt lat="49.11638" lon="7.10073">
        <ele>229.9</ele>
        <time>2020-06-27T09:58:37Z</time>
      </trkpt>
      <trkpt lat="49.11636" lon="7.10083">
        <ele>230</ele>
        <time>2020-06-27T09:58:38Z</time>
      </trkpt>
      <trkpt lat="49.11638" lon="7.10093">
        <ele>230.2</ele>
        <time>2020-06-27T09:58:39Z</time>
      </trkpt>
      <trkpt lat="49.1164" lon="7.10102">
        <ele>230.2</ele>
        <time>2020-06-27T09:58:40Z</time>
      </trkpt>
      <trkpt lat="49.11642" lon="7.1011">
        <ele>230.1</ele>
        <time>2020-06-27T09:58:41Z</time>
      </trkpt>
      <trkpt lat="49.11645" lon="7.10117">
        <ele>230.1</ele>
        <time>2020-06-27T09:58:42Z</time>
      </trkpt>
      <trkpt lat="49.1165" lon="7.10124">
        <ele>230</ele>
        <time>2020-06-27T09:58:43Z</time>
      </trkpt>
      <trkpt lat="49.11655" lon="7.10129">
        <ele>230</ele>
        <time>2020-06-27T09:58:44Z</time>
      </trkpt>
      <trkpt lat="49.11661" lon="7.10133">
        <ele>230</ele>
        <time>2020-06-27T09:58:45Z</time>
      </trkpt>
      <trkpt lat="49.11666" lon="7.10137">
        <ele>230</ele>
        <time>2020-06-27T09:58:46Z</time>
      </trkpt>
      <trkpt lat="49.11671" lon="7.10141">
        <ele>229.9</ele>
        <time>2020-06-27T09:58:47Z</time>
      </trkpt>
      <trkpt lat="49.11678" lon="7.10148">
        <ele>229.9</ele>
        <time>2020-06-27T09:58:48Z</time>
      </trkpt>
      <trkpt lat="49.11682" lon="7.10154">
        <ele>229.9</ele>
        <time>2020-06-27T09:58:49Z</time>
      </trkpt>
      <trkpt lat="49.11685" lon="7.10162">
        <ele>230</ele>
        <time>2020-06-27T09:58:50Z</time>
      </trkpt>
      <trkpt lat="49.11685" lon="7.10171">
        <ele>230</ele>
        <time>2020-06-27T09:58:51Z</time>
      </trkpt>
      <trkpt lat="49.11685" lon="7.10181">
        <ele>230.1</ele>
        <time>2020-06-27T09:58:52Z</time>
      </trkpt>
      <trkpt lat="49.11685" lon="7.1019">
        <ele>230.3</ele>
        <time>2020-06-27T09:58:53Z</time>
      </trkpt>
      <trkpt lat="49.11685" lon="7.10198">
        <ele>230.4</ele>
        <time>2020-06-27T09:58:54Z</time>
      </trkpt>
      <trkpt lat="49.11685" lon="7.10208">
        <ele>230.6</ele>
        <time>2020-06-27T09:58:55Z</time>
      </trkpt>
      <trkpt lat="49.11684" lon="7.10217">
        <ele>230.7</ele>
        <time>2020-06-27T09:58:56Z</time>
      </trkpt>
      <trkpt lat="49.11683" lon="7.10225">
        <ele>230.9</ele>
        <time>2020-06-27T09:58:57Z</time>
      </trkpt>
      <trkpt lat="49.11682" lon="7.10234">
        <ele>231.1</ele>
        <time>2020-06-27T09:58:58Z</time>
      </trkpt>
      <trkpt lat="49.1168" lon="7.10241">
        <ele>231.3</ele>
        <time>2020-06-27T09:58:59Z</time>
      </trkpt>
      <trkpt lat="49.11677" lon="7.10249">
        <ele>231.6</ele>
        <time>2020-06-27T09:59:00Z</time>
      </trkpt>
      <trkpt lat="49.11675" lon="7.10259">
        <ele>231.8</ele>
        <time>2020-06-27T09:59:01Z</time>
      </trkpt>
      <trkpt lat="49.11673" lon="7.1027">
        <ele>232</ele>
        <time>2020-06-27T09:59:02Z</time>
      </trkpt>
      <trkpt lat="49.11672" lon="7.1028">
        <ele>232.2</ele>
        <time>2020-06-27T09:59:03Z</time>
      </trkpt>
      <trkpt lat="49.11669" lon="7.10286">
        <ele>232.4</ele>
        <time>2020-06-27T09:59:04Z</time>
      </trkpt>
      <trkpt lat="49.11667" lon="7.10296">
        <ele>232.6</ele>
        <time>2020-06-27T09:59:05Z</time>
      </trkpt>
      <trkpt lat="49.11665" lon="7.10303">
        <ele>232.8</ele>
        <time>2020-06-27T09:59:06Z</time>
      </trkpt>
      <trkpt lat="49.11662" lon="7.1031">
        <ele>233</ele>
        <time>2020-06-27T09:59:07Z</time>
      </trkpt>
      <trkpt lat="49.1166" lon="7.10318">
        <ele>233.2</ele>
        <time>2020-06-27T09:59:08Z</time>
      </trkpt>
      <trkpt lat="49.11658" lon="7.10325">
        <ele>233.4</ele>
        <time>2020-06-27T09:59:09Z</time>
      </trkpt>
      <trkpt lat="49.11656" lon="7.10336">
        <ele>233.7</ele>
        <time>2020-06-27T09:59:10Z</time>
      </trkpt>
      <trkpt lat="49.11654" lon="7.10343">
        <ele>233.8</ele>
        <time>2020-06-27T09:59:11Z</time>
      </trkpt>
      <trkpt lat="49.11652" lon="7.10349">
        <ele>234</ele>
        <time>2020-06-27T09:59:12Z</time>
      </trkpt>
      <trkpt lat="49.1165" lon="7.10358">
        <ele>234.2</ele>
        <time>2020-06-27T09:59:13Z</time>
      </trkpt>
      <trkpt lat="49.11648" lon="7.10364">
        <ele>234.3</ele>
        <time>2020-06-27T09:59:14Z</time>
      </trkpt>
      <trkpt lat="49.11647" lon="7.10368">
        <ele>234.4</ele>
        <time>2020-06-27T09:59:15Z</time>
      </trkpt>
      <trkpt lat="49.11646" lon="7.10373">
        <ele>234.6</ele>
        <time>2020-06-27T09:59:16Z</time>
      </trkpt>
      <trkpt lat="49.11645" lon="7.10378">
        <ele>234.7</ele>
        <time>2020-06-27T09:59:17Z</time>
      </trkpt>
      <trkpt lat="49.11642" lon="7.10383">
        <ele>234.8</ele>
        <time>2020-06-27T09:59:18Z</time>
      </trkpt>
      <trkpt lat="49.11642" lon="7.10386">
        <ele>234.9</ele>
        <time>2020-06-27T09:59:19Z</time>
      </trkpt>
      <trkpt lat="49.1164" lon="7.1039">
        <ele>235</ele>
        <time>2020-06-27T09:59:20Z</time>
      </trkpt>
      <trkpt lat="49.11638" lon="7.10397">
        <ele>235.1</ele>
        <time>2020-06-27T09:59:21Z</time>
      </trkpt>
      <trkpt lat="49.11637" lon="7.10404">
        <ele>235.3</ele>
        <time>2020-06-27T09:59:22Z</time>
      </trkpt>
      <trkpt lat="49.11636" lon="7.10411">
        <ele>235.4</ele>
        <time>2020-06-27T09:59:23Z</time>
      </trkpt>
      <trkpt lat="49.11634" lon="7.10415">
        <ele>235.5</ele>
        <time>2020-06-27T09:59:24Z</time>
      </trkpt>
      <trkpt lat="49.11632" lon="7.10424">
        <ele>235.7</ele>
        <time>2020-06-27T09:59:25Z</time>
      </trkpt>
      <trkpt lat="49.11631" lon="7.1043">
        <ele>235.8</ele>
        <time>2020-06-27T09:59:26Z</time>
      </trkpt>
      <trkpt lat="49.1163" lon="7.10435">
        <ele>235.9</ele>
        <time>2020-06-27T09:59:27Z</time>
      </trkpt>
      <trkpt lat="49.1163" lon="7.10441">
        <ele>236</ele>
        <time>2020-06-27T09:59:28Z</time>
      </trkpt>
      <trkpt lat="49.11629" lon="7.10447">
        <ele>236.2</ele>
        <time>2020-06-27T09:59:29Z</time>
      </trkpt>
      <trkpt lat="49.11627" lon="7.10454">
        <ele>236.4</ele>
        <time>2020-06-27T09:59:30Z</time>
      </trkpt>
      <trkpt lat="49.11626" lon="7.10461">
        <ele>236.5</ele>
        <time>2020-06-27T09:59:31Z</time>
      </trkpt>
      <trkpt lat="49.11625" lon="7.10466">
        <ele>236.7</ele>
        <time>2020-06-27T09:59:32Z</time>
      </trkpt>
      <trkpt lat="49.11624" lon="7.10472">
        <ele>236.8</ele>
        <time>2020-06-27T09:59:33Z</time>
      </trkpt>
      <trkpt lat="49.11622" lon="7.10478">
        <ele>237</ele>
        <time>2020-06-27T09:59:34Z</time>
      </trkpt>
      <trkpt lat="49.11622" lon="7.1048">
        <ele>237</ele>
        <time>2020-06-27T09:59:35Z</time>
      </trkpt>
      <trkpt lat="49.11621" lon="7.10486">
        <ele>237.2</ele>
        <time>2020-06-27T09:59:36Z</time>
      </trkpt>
      <trkpt lat="49.11619" lon="7.10492">
        <ele>237.4</ele>
        <time>2020-06-27T09:59:37Z</time>
      </trkpt>
      <trkpt lat="49.11618" lon="7.10499">
        <ele>237.5</ele>
        <time>2020-06-27T09:59:38Z</time>
      </trkpt>
      <trkpt lat="49.11616" lon="7.10505">
        <ele>237.7</ele>
        <time>2020-06-27T09:59:39Z</time>
      </trkpt>
      <trkpt lat="49.11614" lon="7.10512">
        <ele>237.9</ele>
        <time>2020-06-27T09:59:40Z</time>
      </trkpt>
      <trkpt lat="49.11613" lon="7.10518">
        <ele>238.1</ele>
        <time>2020-06-27T09:59:41Z</time>
      </trkpt>
      <trkpt lat="49.11611" lon="7.10525">
        <ele>238.2</ele>
        <time>2020-06-27T09:59:42Z</time>
      </trkpt>
      <trkpt lat="49.11609" lon="7.10531">
        <ele>238.4</ele>
        <time>2020-06-27T09:59:43Z</time>
      </trkpt>
      <trkpt lat="49.11607" lon="7.10535">
        <ele>238.5</ele>
        <time>2020-06-27T09:59:44Z</time>
      </trkpt>
      <trkpt lat="49.11606" lon="7.1054">
        <ele>238.6</ele>
        <time>2020-06-27T09:59:45Z</time>
      </trkpt>
      <trkpt lat="49.11605" lon="7.10547">
        <ele>238.8</ele>
        <time>2020-06-27T09:59:46Z</time>
      </trkpt>
      <trkpt lat="49.11603" lon="7.10553">
        <ele>238.9</ele>
        <time>2020-06-27T09:59:47Z</time>
      </trkpt>
      <trkpt lat="49.11601" lon="7.10559">
        <ele>239.1</ele>
        <time>2020-06-27T09:59:48Z</time>
      </trkpt>
      <trkpt lat="49.116" lon="7.10568">
        <ele>239.3</ele>
        <time>2020-06-27T09:59:49Z</time>
      </trkpt>
      <trkpt lat="49.11598" lon="7.10572">
        <ele>239.5</ele>
        <time>2020-06-27T09:59:50Z</time>
      </trkpt>
      <trkpt lat="49.11597" lon="7.10579">
        <ele>239.7</ele>
        <time>2020-06-27T09:59:51Z</time>
      </trkpt>
      <trkpt lat="49.11595" lon="7.10585">
        <ele>239.8</ele>
        <time>2020-06-27T09:59:52Z</time>
      </trkpt>
      <trkpt lat="49.11593" lon="7.1059">
        <ele>240</ele>
        <time>2020-06-27T09:59:53Z</time>
      </trkpt>
      <trkpt lat="49.11592" lon="7.10595">
        <ele>240.1</ele>
        <time>2020-06-27T09:59:54Z</time>
      </trkpt>
      <trkpt lat="49.1159" lon="7.10601">
        <ele>240.3</ele>
        <time>2020-06-27T09:59:55Z</time>
      </trkpt>
      <trkpt lat="49.11589" lon="7.10604">
        <ele>240.4</ele>
        <time>2020-06-27T09:59:56Z</time>
      </trkpt>
      <trkpt lat="49.11588" lon="7.10612">
        <ele>240.7</ele>
        <time>2020-06-27T09:59:57Z</time>
      </trkpt>
      <trkpt lat="49.11586" lon="7.10619">
        <ele>240.9</ele>
        <time>2020-06-27T09:59:58Z</time>
      </trkpt>
      <trkpt lat="49.11585" lon="7.10627">
        <ele>241.1</ele>
        <time>2020-06-27T09:59:59Z</time>
      </trkpt>
      <trkpt lat="49.11584" lon="7.10633">
        <ele>241.3</ele>
        <time>2020-06-27T10:00:00Z</time>
      </trkpt>
      <trkpt lat="49.11582" lon="7.10639">
        <ele>241.5</ele>
        <time>2020-06-27T10:00:01Z</time>
      </trkpt>
      <trkpt lat="49.11581" lon="7.10646">
        <ele>241.7</ele>
        <time>2020-06-27T10:00:02Z</time>
      </trkpt>
      <trkpt lat="49.1158" lon="7.10653">
        <ele>241.9</ele>
        <time>2020-06-27T10:00:03Z</time>
      </trkpt>
      <trkpt lat="49.11577" lon="7.10658">
        <ele>242.1</ele>
        <time>2020-06-27T10:00:04Z</time>
      </trkpt>
      <trkpt lat="49.11575" lon="7.10664">
        <ele>242.3</ele>
        <time>2020-06-27T10:00:05Z</time>
      </trkpt>
      <trkpt lat="49.11574" lon="7.1067">
        <ele>242.5</ele>
        <time>2020-06-27T10:00:06Z</time>
      </trkpt>
      <trkpt lat="49.11573" lon="7.10677">
        <ele>242.7</ele>
        <time>2020-06-27T10:00:07Z</time>
      </trkpt>
      <trkpt lat="49.11571" lon="7.10683">
        <ele>242.9</ele>
        <time>2020-06-27T10:00:08Z</time>
      </trkpt>
      <trkpt lat="49.1157" lon="7.10689">
        <ele>243</ele>
        <time>2020-06-27T10:00:09Z</time>
      </trkpt>
      <trkpt lat="49.11569" lon="7.10695">
        <ele>243.2</ele>
        <time>2020-06-27T10:00:10Z</time>
      </trkpt>
      <trkpt lat="49.11568" lon="7.10702">
        <ele>243.4</ele>
        <time>2020-06-27T10:00:11Z</time>
      </trkpt>
      <trkpt lat="49.11566" lon="7.10709">
        <ele>243.6</ele>
        <time>2020-06-27T10:00:12Z</time>
      </trkpt>
      <trkpt lat="49.11565" lon="7.10714">
        <ele>243.8</ele>
        <time>2020-06-27T10:00:13Z</time>
      </trkpt>
      <trkpt lat="49.11564" lon="7.10723">
        <ele>244</ele>
        <time>2020-06-27T10:00:14Z</time>
      </trkpt>
      <trkpt lat="49.11562" lon="7.1073">
        <ele>244.2</ele>
        <time>2020-06-27T10:00:15Z</time>
      </trkpt>
      <trkpt lat="49.1156" lon="7.10735">
        <ele>244.4</ele>
        <time>2020-06-27T10:00:16Z</time>
      </trkpt>
      <trkpt lat="49.11558" lon="7.10742">
        <ele>244.6</ele>
        <time>2020-06-27T10:00:17Z</time>
      </trkpt>
      <trkpt lat="49.11556" lon="7.10749">
        <ele>244.8</ele>
        <time>2020-06-27T10:00:18Z</time>
      </trkpt>
      <trkpt lat="49.11556" lon="7.10757">
        <ele>245</ele>
        <time>2020-06-27T10:00:19Z</time>
      </trkpt>
      <trkpt lat="49.11554" lon="7.10764">
        <ele>245.2</ele>
        <time>2020-06-27T10:00:20Z</time>
      </trkpt>
      <trkpt lat="49.11552" lon="7.1077">
        <ele>245.4</ele>
        <time>2020-06-27T10:00:21Z</time>
      </trkpt>
      <trkpt lat="49.11549" lon="7.10777">
        <ele>245.5</ele>
        <time>2020-06-27T10:00:22Z</time>
      </trkpt>
      <trkpt lat="49.11548" lon="7.10784">
        <ele>245.7</ele>
        <time>2020-06-27T10:00:23Z</time>
      </trkpt>
      <trkpt lat="49.11546" lon="7.1079">
        <ele>245.9</ele>
        <time>2020-06-27T10:00:24Z</time>
      </trkpt>
      <trkpt lat="49.11544" lon="7.10797">
        <ele>246</ele>
        <time>2020-06-27T10:00:25Z</time>
      </trkpt>
      <trkpt lat="49.11543" lon="7.10803">
        <ele>246.2</ele>
        <time>2020-06-27T10:00:26Z</time>
      </trkpt>
      <trkpt lat="49.11542" lon="7.1081">
        <ele>246.3</ele>
        <time>2020-06-27T10:00:27Z</time>
      </trkpt>
      <trkpt lat="49.1154" lon="7.10814">
        <ele>246.5</ele>
        <time>2020-06-27T10:00:28Z</time>
      </trkpt>
      <trkpt lat="49.11539" lon="7.10821">
        <ele>246.7</ele>
        <time>2020-06-27T10:00:29Z</time>
      </trkpt>
      <trkpt lat="49.11538" lon="7.10828">
        <ele>246.9</ele>
        <time>2020-06-27T10:00:30Z</time>
      </trkpt>
      <trkpt lat="49.11536" lon="7.10834">
        <ele>247.1</ele>
        <time>2020-06-27T10:00:31Z</time>
      </trkpt>
      <trkpt lat="49.11535" lon="7.10842">
        <ele>247.3</ele>
        <time>2020-06-27T10:00:32Z</time>
      </trkpt>
      <trkpt lat="49.11533" lon="7.10849">
        <ele>247.5</ele>
        <time>2020-06-27T10:00:33Z</time>
      </trkpt>
      <trkpt lat="49.11532" lon="7.10855">
        <ele>247.7</ele>
        <time>2020-06-27T10:00:34Z</time>
      </trkpt>
      <trkpt lat="49.11531" lon="7.10863">
        <ele>247.9</ele>
        <time>2020-06-27T10:00:35Z</time>
      </trkpt>
      <trkpt lat="49.1153" lon="7.10869">
        <ele>248.1</ele>
        <time>2020-06-27T10:00:36Z</time>
      </trkpt>
      <trkpt lat="49.11528" lon="7.10876">
        <ele>248.3</ele>
        <time>2020-06-27T10:00:37Z</time>
      </trkpt>
      <trkpt lat="49.11526" lon="7.10881">
        <ele>248.5</ele>
        <time>2020-06-27T10:00:38Z</time>
      </trkpt>
      <trkpt lat="49.11524" lon="7.10887">
        <ele>248.6</ele>
        <time>2020-06-27T10:00:39Z</time>
      </trkpt>
      <trkpt lat="49.11523" lon="7.10892">
        <ele>248.8</ele>
        <time>2020-06-27T10:00:40Z</time>
      </trkpt>
      <trkpt lat="49.11523" lon="7.10898">
        <ele>249</ele>
        <time>2020-06-27T10:00:41Z</time>
      </trkpt>
      <trkpt lat="49.11522" lon="7.10904">
        <ele>249.2</ele>
        <time>2020-06-27T10:00:42Z</time>
      </trkpt>
      <trkpt lat="49.11521" lon="7.10911">
        <ele>249.4</ele>
        <time>2020-06-27T10:00:43Z</time>
      </trkpt>
      <trkpt lat="49.11519" lon="7.10918">
        <ele>249.7</ele>
        <time>2020-06-27T10:00:44Z</time>
      </trkpt>
      <trkpt lat="49.11517" lon="7.10924">
        <ele>249.9</ele>
        <time>2020-06-27T10:00:45Z</time>
      </trkpt>
      <trkpt lat="49.11516" lon="7.1093">
        <ele>250.1</ele>
        <time>2020-06-27T10:00:46Z</time>
      </trkpt>
      <trkpt lat="49.11514" lon="7.10938">
        <ele>250.3</ele>
        <time>2020-06-27T10:00:47Z</time>
      </trkpt>
      <trkpt lat="49.11513" lon="7.10943">
        <ele>250.5</ele>
        <time>2020-06-27T10:00:48Z</time>
      </trkpt>
      <trkpt lat="49.11512" lon="7.10949">
        <ele>250.7</ele>
        <time>2020-06-27T10:00:49Z</time>
      </trkpt>
      <trkpt lat="49.11511" lon="7.10955">
        <ele>250.8</ele>
        <time>2020-06-27T10:00:50Z</time>
      </trkpt>
      <trkpt lat="49.11509" lon="7.10961">
        <ele>251</ele>
        <time>2020-06-27T10:00:51Z</time>
      </trkpt>
      <trkpt lat="49.11507" lon="7.10967">
        <ele>251.2</ele>
        <time>2020-06-27T10:00:52Z</time>
      </trkpt>
      <trkpt lat="49.11506" lon="7.10974">
        <ele>251.5</ele>
        <time>2020-06-27T10:00:53Z</time>
      </trkpt>
      <trkpt lat="49.11503" lon="7.1098">
        <ele>251.7</ele>
        <time>2020-06-27T10:00:54Z</time>
      </trkpt>
      <trkpt lat="49.11502" lon="7.10986">
        <ele>251.9</ele>
        <time>2020-06-27T10:00:55Z</time>
      </trkpt>
      <trkpt lat="49.115" lon="7.10992">
        <ele>252.1</ele>
        <time>2020-06-27T10:00:56Z</time>
      </trkpt>
      <trkpt lat="49.11498" lon="7.10999">
        <ele>252.3</ele>
        <time>2020-06-27T10:00:57Z</time>
      </trkpt>
      <trkpt lat="49.11497" lon="7.11006">
        <ele>252.5</ele>
        <time>2020-06-27T10:00:58Z</time>
      </trkpt>
      <trkpt lat="49.11496" lon="7.11012">
        <ele>252.8</ele>
        <time>2020-06-27T10:00:59Z</time>
      </trkpt>
      <trkpt lat="49.11494" lon="7.11019">
        <ele>253</ele>
        <time>2020-06-27T10:01:00Z</time>
      </trkpt>
      <trkpt lat="49.11493" lon="7.11025">
        <ele>253.2</ele>
        <time>2020-06-27T10:01:01Z</time>
      </trkpt>
      <trkpt lat="49.11491" lon="7.11031">
        <ele>253.4</ele>
        <time>2020-06-27T10:01:02Z</time>
      </trkpt>
      <trkpt lat="49.1149" lon="7.11036">
        <ele>253.6</ele>
        <time>2020-06-27T10:01:03Z</time>
      </trkpt>
      <trkpt lat="49.11489" lon="7.11041">
        <ele>253.7</ele>
        <time>2020-06-27T10:01:04Z</time>
      </trkpt>
      <trkpt lat="49.11487" lon="7.11047">
        <ele>253.9</ele>
        <time>2020-06-27T10:01:05Z</time>
      </trkpt>
      <trkpt lat="49.11486" lon="7.11052">
        <ele>254.1</ele>
        <time>2020-06-27T10:01:06Z</time>
      </trkpt>
      <trkpt lat="49.11484" lon="7.11058">
        <ele>254.2</ele>
        <time>2020-06-27T10:01:07Z</time>
      </trkpt>
      <trkpt lat="49.11483" lon="7.11063">
        <ele>254.4</ele>
        <time>2020-06-27T10:01:08Z</time>
      </trkpt>
      <trkpt lat="49.11482" lon="7.11069">
        <ele>254.5</ele>
        <time>2020-06-27T10:01:09Z</time>
      </trkpt>
      <trkpt lat="49.1148" lon="7.11076">
        <ele>254.7</ele>
        <time>2020-06-27T10:01:10Z</time>
      </trkpt>
      <trkpt lat="49.11479" lon="7.11082">
        <ele>254.8</ele>
        <time>2020-06-27T10:01:11Z</time>
      </trkpt>
      <trkpt lat="49.11477" lon="7.11089">
        <ele>255</ele>
        <time>2020-06-27T10:01:12Z</time>
      </trkpt>
      <trkpt lat="49.11476" lon="7.11096">
        <ele>255</ele>
        <time>2020-06-27T10:01:13Z</time>
      </trkpt>
      <trkpt lat="49.11474" lon="7.11101">
        <ele>255.1</ele>
        <time>2020-06-27T10:01:14Z</time>
      </trkpt>
      <trkpt lat="49.11472" lon="7.11107">
        <ele>255.1</ele>
        <time>2020-06-27T10:01:15Z</time>
      </trkpt>
      <trkpt lat="49.1147" lon="7.11114">
        <ele>255.1</ele>
        <time>2020-06-27T10:01:16Z</time>
      </trkpt>
      <trkpt lat="49.11468" lon="7.1112">
        <ele>255.1</ele>
        <time>2020-06-27T10:01:17Z</time>
      </trkpt>
      <trkpt lat="49.11466" lon="7.11126">
        <ele>255.1</ele>
        <time>2020-06-27T10:01:18Z</time>
      </trkpt>
      <trkpt lat="49.11465" lon="7.11133">
        <ele>255.1</ele>
        <time>2020-06-27T10:01:19Z</time>
      </trkpt>
      <trkpt lat="49.11464" lon="7.11141">
        <ele>255</ele>
        <time>2020-06-27T10:01:20Z</time>
      </trkpt>
      <trkpt lat="49.11463" lon="7.11147">
        <ele>254.9</ele>
        <time>2020-06-27T10:01:21Z</time>
      </trkpt>
      <trkpt lat="49.11462" lon="7.11153">
        <ele>254.8</ele>
        <time>2020-06-27T10:01:22Z</time>
      </trkpt>
      <trkpt lat="49.1146" lon="7.1116">
        <ele>254.7</ele>
        <time>2020-06-27T10:01:23Z</time>
      </trkpt>
      <trkpt lat="49.11457" lon="7.11167">
        <ele>254.6</ele>
        <time>2020-06-27T10:01:24Z</time>
      </trkpt>
      <trkpt lat="49.11455" lon="7.11174">
        <ele>254.5</ele>
        <time>2020-06-27T10:01:25Z</time>
      </trkpt>
      <trkpt lat="49.11453" lon="7.11184">
        <ele>254.4</ele>
        <time>2020-06-27T10:01:26Z</time>
      </trkpt>
      <trkpt lat="49.11451" lon="7.11192">
        <ele>254.3</ele>
        <time>2020-06-27T10:01:27Z</time>
      </trkpt>
      <trkpt lat="49.1145" lon="7.112">
        <ele>254.2</ele>
        <time>2020-06-27T10:01:28Z</time>
      </trkpt>
      <trkpt lat="49.11447" lon="7.11207">
        <ele>254.2</ele>
        <time>2020-06-27T10:01:29Z</time>
      </trkpt>
      <trkpt lat="49.11445" lon="7.11214">
        <ele>254.1</ele>
        <time>2020-06-27T10:01:30Z</time>
      </trkpt>
      <trkpt lat="49.11443" lon="7.11222">
        <ele>254</ele>
        <time>2020-06-27T10:01:31Z</time>
      </trkpt>
      <trkpt lat="49.11441" lon="7.11231">
        <ele>253.9</ele>
        <time>2020-06-27T10:01:32Z</time>
      </trkpt>
      <trkpt lat="49.11439" lon="7.1124">
        <ele>253.8</ele>
        <time>2020-06-27T10:01:33Z</time>
      </trkpt>
      <trkpt lat="49.11438" lon="7.1125">
        <ele>253.6</ele>
        <time>2020-06-27T10:01:34Z</time>
      </trkpt>
      <trkpt lat="49.11436" lon="7.1126">
        <ele>253.5</ele>
        <time>2020-06-27T10:01:35Z</time>
      </trkpt>
      <trkpt lat="49.11434" lon="7.11269">
        <ele>253.3</ele>
        <time>2020-06-27T10:01:36Z</time>
      </trkpt>
      <trkpt lat="49.11432" lon="7.11279">
        <ele>253.2</ele>
        <time>2020-06-27T10:01:37Z</time>
      </trkpt>
      <trkpt lat="49.1143" lon="7.11288">
        <ele>253</ele>
        <time>2020-06-27T10:01:38Z</time>
      </trkpt>
      <trkpt lat="49.11427" lon="7.11299">
        <ele>252.8</ele>
        <time>2020-06-27T10:01:39Z</time>
      </trkpt>
      <trkpt lat="49.11424" lon="7.11309">
        <ele>252.6</ele>
        <time>2020-06-27T10:01:40Z</time>
      </trkpt>
      <trkpt lat="49.11421" lon="7.11319">
        <ele>252.4</ele>
        <time>2020-06-27T10:01:41Z</time>
      </trkpt>
      <trkpt lat="49.11419" lon="7.11329">
        <ele>252.2</ele>
        <time>2020-06-27T10:01:42Z</time>
      </trkpt>
      <trkpt lat="49.11416" lon="7.11338">
        <ele>252.1</ele>
        <time>2020-06-27T10:01:43Z</time>
      </trkpt>
      <trkpt lat="49.11414" lon="7.11348">
        <ele>251.9</ele>
        <time>2020-06-27T10:01:44Z</time>
      </trkpt>
      <trkpt lat="49.11411" lon="7.11358">
        <ele>251.8</ele>
        <time>2020-06-27T10:01:45Z</time>
      </trkpt>
      <trkpt lat="49.11409" lon="7.11366">
        <ele>251.8</ele>
        <time>2020-06-27T10:01:46Z</time>
      </trkpt>
      <trkpt lat="49.11407" lon="7.11375">
        <ele>251.7</ele>
        <time>2020-06-27T10:01:47Z</time>
      </trkpt>
      <trkpt lat="49.11404" lon="7.11385">
        <ele>251.6</ele>
        <time>2020-06-27T10:01:48Z</time>
      </trkpt>
      <trkpt lat="49.11402" lon="7.11395">
        <ele>251.5</ele>
        <time>2020-06-27T10:01:49Z</time>
      </trkpt>
      <trkpt lat="49.114" lon="7.11405">
        <ele>251.4</ele>
        <time>2020-06-27T10:01:50Z</time>
      </trkpt>
      <trkpt lat="49.11398" lon="7.11415">
        <ele>251.4</ele>
        <time>2020-06-27T10:01:51Z</time>
      </trkpt>
      <trkpt lat="49.11396" lon="7.11425">
        <ele>251.3</ele>
        <time>2020-06-27T10:01:52Z</time>
      </trkpt>
      <trkpt lat="49.11393" lon="7.11435">
        <ele>251.3</ele>
        <time>2020-06-27T10:01:53Z</time>
      </trkpt>
      <trkpt lat="49.11391" lon="7.11446">
        <ele>251.3</ele>
        <time>2020-06-27T10:01:54Z</time>
      </trkpt>
      <trkpt lat="49.11388" lon="7.11456">
        <ele>251</ele>
        <time>2020-06-27T10:01:55Z</time>
      </trkpt>
      <trkpt lat="49.11386" lon="7.11465">
        <ele>250.8</ele>
        <time>2020-06-27T10:01:56Z</time>
      </trkpt>
      <trkpt lat="49.11384" lon="7.11476">
        <ele>250.6</ele>
        <time>2020-06-27T10:01:57Z</time>
      </trkpt>
      <trkpt lat="49.11382" lon="7.11486">
        <ele>250.5</ele>
        <time>2020-06-27T10:01:58Z</time>
      </trkpt>
      <trkpt lat="49.11379" lon="7.11496">
        <ele>250.5</ele>
        <time>2020-06-27T10:01:59Z</time>
      </trkpt>
      <trkpt lat="49.11377" lon="7.11505">
        <ele>250.6</ele>
        <time>2020-06-27T10:02:00Z</time>
      </trkpt>
      <trkpt lat="49.11375" lon="7.11514">
        <ele>250.7</ele>
        <time>2020-06-27T10:02:01Z</time>
      </trkpt>
      <trkpt lat="49.11373" lon="7.11523">
        <ele>250.8</ele>
        <time>2020-06-27T10:02:02Z</time>
      </trkpt>
      <trkpt lat="49.1137" lon="7.11532">
        <ele>251</ele>
        <time>2020-06-27T10:02:03Z</time>
      </trkpt>
      <trkpt lat="49.11368" lon="7.1154">
        <ele>251.1</ele>
        <time>2020-06-27T10:02:04Z</time>
      </trkpt>
      <trkpt lat="49.11365" lon="7.11549">
        <ele>251.3</ele>
        <time>2020-06-27T10:02:05Z</time>
      </trkpt>
      <trkpt lat="49.11363" lon="7.11557">
        <ele>251.5</ele>
        <time>2020-06-27T10:02:06Z</time>
      </trkpt>
      <trkpt lat="49.1136" lon="7.11565">
        <ele>251.8</ele>
        <time>2020-06-27T10:02:07Z</time>
      </trkpt>
      <trkpt lat="49.11359" lon="7.11573">
        <ele>252</ele>
        <time>2020-06-27T10:02:08Z</time>
      </trkpt>
      <trkpt lat="49.11357" lon="7.11581">
        <ele>252.2</ele>
        <time>2020-06-27T10:02:09Z</time>
      </trkpt>
      <trkpt lat="49.11355" lon="7.11588">
        <ele>252.4</ele>
        <time>2020-06-27T10:02:10Z</time>
      </trkpt>
      <trkpt lat="49.11352" lon="7.11595">
        <ele>252.6</ele>
        <time>2020-06-27T10:02:11Z</time>
      </trkpt>
      <trkpt lat="49.11349" lon="7.11602">
        <ele>252.9</ele>
        <time>2020-06-27T10:02:12Z</time>
      </trkpt>
      <trkpt lat="49.11347" lon="7.11608">
        <ele>253.1</ele>
        <time>2020-06-27T10:02:13Z</time>
      </trkpt>
      <trkpt lat="49.11345" lon="7.11615">
        <ele>253.4</ele>
        <time>2020-06-27T10:02:14Z</time>
      </trkpt>
      <trkpt lat="49.11343" lon="7.11622">
        <ele>253.7</ele>
        <time>2020-06-27T10:02:15Z</time>
      </trkpt>
      <trkpt lat="49.11341" lon="7.11628">
        <ele>254.4</ele>
        <time>2020-06-27T10:02:16Z</time>
      </trkpt>
      <trkpt lat="49.11338" lon="7.11634">
        <ele>254.9</ele>
        <time>2020-06-27T10:02:17Z</time>
      </trkpt>
      <trkpt lat="49.11336" lon="7.1164">
        <ele>255.2</ele>
        <time>2020-06-27T10:02:18Z</time>
      </trkpt>
      <trkpt lat="49.11334" lon="7.11645">
        <ele>255.4</ele>
        <time>2020-06-27T10:02:19Z</time>
      </trkpt>
      <trkpt lat="49.11332" lon="7.11652">
        <ele>255.6</ele>
        <time>2020-06-27T10:02:20Z</time>
      </trkpt>
      <trkpt lat="49.11329" lon="7.11658">
        <ele>255.6</ele>
        <time>2020-06-27T10:02:21Z</time>
      </trkpt>
      <trkpt lat="49.11327" lon="7.11664">
        <ele>255.7</ele>
        <time>2020-06-27T10:02:22Z</time>
      </trkpt>
      <trkpt lat="49.11325" lon="7.11671">
        <ele>255.7</ele>
        <time>2020-06-27T10:02:23Z</time>
      </trkpt>
      <trkpt lat="49.11322" lon="7.11678">
        <ele>255.8</ele>
        <time>2020-06-27T10:02:24Z</time>
      </trkpt>
      <trkpt lat="49.1132" lon="7.11686">
        <ele>256</ele>
        <time>2020-06-27T10:02:25Z</time>
      </trkpt>
      <trkpt lat="49.11317" lon="7.11691">
        <ele>256.1</ele>
        <time>2020-06-27T10:02:26Z</time>
      </trkpt>
      <trkpt lat="49.11316" lon="7.11697">
        <ele>256.2</ele>
        <time>2020-06-27T10:02:27Z</time>
      </trkpt>
      <trkpt lat="49.11314" lon="7.11703">
        <ele>256.4</ele>
        <time>2020-06-27T10:02:28Z</time>
      </trkpt>
      <trkpt lat="49.11311" lon="7.11709">
        <ele>256.6</ele>
        <time>2020-06-27T10:02:29Z</time>
      </trkpt>
      <trkpt lat="49.11309" lon="7.11715">
        <ele>256.8</ele>
        <time>2020-06-27T10:02:30Z</time>
      </trkpt>
      <trkpt lat="49.11307" lon="7.11721">
        <ele>256.9</ele>
        <time>2020-06-27T10:02:31Z</time>
      </trkpt>
      <trkpt lat="49.11306" lon="7.11726">
        <ele>257.1</ele>
        <time>2020-06-27T10:02:32Z</time>
      </trkpt>
      <trkpt lat="49.11304" lon="7.11732">
        <ele>257.2</ele>
        <time>2020-06-27T10:02:33Z</time>
      </trkpt>
      <trkpt lat="49.11301" lon="7.11738">
        <ele>257.4</ele>
        <time>2020-06-27T10:02:34Z</time>
      </trkpt>
      <trkpt lat="49.11299" lon="7.11745">
        <ele>257.5</ele>
        <time>2020-06-27T10:02:35Z</time>
      </trkpt>
      <trkpt lat="49.11296" lon="7.11752">
        <ele>257.7</ele>
        <time>2020-06-27T10:02:36Z</time>
      </trkpt>
      <trkpt lat="49.11294" lon="7.11758">
        <ele>257.8</ele>
        <time>2020-06-27T10:02:37Z</time>
      </trkpt>
      <trkpt lat="49.11292" lon="7.11764">
        <ele>258</ele>
        <time>2020-06-27T10:02:38Z</time>
      </trkpt>
      <trkpt lat="49.1129" lon="7.11768">
        <ele>258</ele>
        <time>2020-06-27T10:02:39Z</time>
      </trkpt>
      <trkpt lat="49.11287" lon="7.11774">
        <ele>258.2</ele>
        <time>2020-06-27T10:02:40Z</time>
      </trkpt>
      <trkpt lat="49.11285" lon="7.11782">
        <ele>258.3</ele>
        <time>2020-06-27T10:02:41Z</time>
      </trkpt>
      <trkpt lat="49.11282" lon="7.11788">
        <ele>258.5</ele>
        <time>2020-06-27T10:02:42Z</time>
      </trkpt>
      <trkpt lat="49.1128" lon="7.11793">
        <ele>258.6</ele>
        <time>2020-06-27T10:02:43Z</time>
      </trkpt>
      <trkpt lat="49.11278" lon="7.11801">
        <ele>258.8</ele>
        <time>2020-06-27T10:02:44Z</time>
      </trkpt>
      <trkpt lat="49.11277" lon="7.11806">
        <ele>258.9</ele>
        <time>2020-06-27T10:02:45Z</time>
      </trkpt>
      <trkpt lat="49.11275" lon="7.11812">
        <ele>259</ele>
        <time>2020-06-27T10:02:46Z</time>
      </trkpt>
      <trkpt lat="49.11272" lon="7.11817">
        <ele>259.1</ele>
        <time>2020-06-27T10:02:47Z</time>
      </trkpt>
      <trkpt lat="49.1127" lon="7.11824">
        <ele>259.3</ele>
        <time>2020-06-27T10:02:48Z</time>
      </trkpt>
      <trkpt lat="49.11268" lon="7.1183">
        <ele>259.4</ele>
        <time>2020-06-27T10:02:49Z</time>
      </trkpt>
      <trkpt lat="49.11266" lon="7.11836">
        <ele>259.6</ele>
        <time>2020-06-27T10:02:50Z</time>
      </trkpt>
      <trkpt lat="49.11265" lon="7.11841">
        <ele>259.7</ele>
        <time>2020-06-27T10:02:51Z</time>
      </trkpt>
      <trkpt lat="49.11263" lon="7.11848">
        <ele>259.9</ele>
        <time>2020-06-27T10:02:52Z</time>
      </trkpt>
      <trkpt lat="49.11261" lon="7.11855">
        <ele>260</ele>
        <time>2020-06-27T10:02:53Z</time>
      </trkpt>
      <trkpt lat="49.11259" lon="7.11861">
        <ele>260.2</ele>
        <time>2020-06-27T10:02:54Z</time>
      </trkpt>
      <trkpt lat="49.11257" lon="7.11866">
        <ele>260.3</ele>
        <time>2020-06-27T10:02:55Z</time>
      </trkpt>
      <trkpt lat="49.11255" lon="7.11872">
        <ele>260.4</ele>
        <time>2020-06-27T10:02:56Z</time>
      </trkpt>
      <trkpt lat="49.11253" lon="7.11879">
        <ele>260.6</ele>
        <time>2020-06-27T10:02:57Z</time>
      </trkpt>
      <trkpt lat="49.11251" lon="7.11884">
        <ele>260.7</ele>
        <time>2020-06-27T10:02:58Z</time>
      </trkpt>
      <trkpt lat="49.11249" lon="7.11889">
        <ele>260.8</ele>
        <time>2020-06-27T10:02:59Z</time>
      </trkpt>
      <trkpt lat="49.11246" lon="7.11894">
        <ele>260.9</ele>
        <time>2020-06-27T10:03:00Z</time>
      </trkpt>
      <trkpt lat="49.11245" lon="7.11899">
        <ele>261.1</ele>
        <time>2020-06-27T10:03:01Z</time>
      </trkpt>
      <trkpt lat="49.11242" lon="7.11906">
        <ele>261.2</ele>
        <time>2020-06-27T10:03:02Z</time>
      </trkpt>
      <trkpt lat="49.11239" lon="7.11913">
        <ele>261.3</ele>
        <time>2020-06-27T10:03:03Z</time>
      </trkpt>
      <trkpt lat="49.11237" lon="7.11922">
        <ele>261.5</ele>
        <time>2020-06-27T10:03:04Z</time>
      </trkpt>
      <trkpt lat="49.11235" lon="7.11927">
        <ele>261.6</ele>
        <time>2020-06-27T10:03:05Z</time>
      </trkpt>
      <trkpt lat="49.11233" lon="7.11933">
        <ele>261.7</ele>
        <time>2020-06-27T10:03:06Z</time>
      </trkpt>
      <trkpt lat="49.1123" lon="7.11939">
        <ele>261.8</ele>
        <time>2020-06-27T10:03:07Z</time>
      </trkpt>
      <trkpt lat="49.11228" lon="7.11944">
        <ele>261.9</ele>
        <time>2020-06-27T10:03:08Z</time>
      </trkpt>
      <trkpt lat="49.11226" lon="7.11948">
        <ele>262</ele>
        <time>2020-06-27T10:03:09Z</time>
      </trkpt>
      <trkpt lat="49.11224" lon="7.11955">
        <ele>262.1</ele>
        <time>2020-06-27T10:03:10Z</time>
      </trkpt>
      <trkpt lat="49.11223" lon="7.1196">
        <ele>262.2</ele>
        <time>2020-06-27T10:03:11Z</time>
      </trkpt>
      <trkpt lat="49.1122" lon="7.11965">
        <ele>262.4</ele>
        <time>2020-06-27T10:03:12Z</time>
      </trkpt>
      <trkpt lat="49.11219" lon="7.11972">
        <ele>262.5</ele>
        <time>2020-06-27T10:03:13Z</time>
      </trkpt>
      <trkpt lat="49.11216" lon="7.1198">
        <ele>262.7</ele>
        <time>2020-06-27T10:03:14Z</time>
      </trkpt>
      <trkpt lat="49.11214" lon="7.11986">
        <ele>262.9</ele>
        <time>2020-06-27T10:03:15Z</time>
      </trkpt>
      <trkpt lat="49.11211" lon="7.11994">
        <ele>263</ele>
        <time>2020-06-27T10:03:16Z</time>
      </trkpt>
      <trkpt lat="49.11209" lon="7.12">
        <ele>263.1</ele>
        <time>2020-06-27T10:03:17Z</time>
      </trkpt>
      <trkpt lat="49.11206" lon="7.12005">
        <ele>263.2</ele>
        <time>2020-06-27T10:03:18Z</time>
      </trkpt>
      <trkpt lat="49.11204" lon="7.12011">
        <ele>263.3</ele>
        <time>2020-06-27T10:03:19Z</time>
      </trkpt>
      <trkpt lat="49.11201" lon="7.12018">
        <ele>263.4</ele>
        <time>2020-06-27T10:03:20Z</time>
      </trkpt>
      <trkpt lat="49.11199" lon="7.12024">
        <ele>263.5</ele>
        <time>2020-06-27T10:03:21Z</time>
      </trkpt>
      <trkpt lat="49.11197" lon="7.1203">
        <ele>263.6</ele>
        <time>2020-06-27T10:03:22Z</time>
      </trkpt>
      <trkpt lat="49.11195" lon="7.12037">
        <ele>263.8</ele>
        <time>2020-06-27T10:03:23Z</time>
      </trkpt>
      <trkpt lat="49.11193" lon="7.12044">
        <ele>263.9</ele>
        <time>2020-06-27T10:03:24Z</time>
      </trkpt>
      <trkpt lat="49.11191" lon="7.12049">
        <ele>264</ele>
        <time>2020-06-27T10:03:25Z</time>
      </trkpt>
      <trkpt lat="49.1119" lon="7.12056">
        <ele>264.2</ele>
        <time>2020-06-27T10:03:26Z</time>
      </trkpt>
      <trkpt lat="49.11188" lon="7.12061">
        <ele>264.3</ele>
        <time>2020-06-27T10:03:27Z</time>
      </trkpt>
      <trkpt lat="49.11186" lon="7.12067">
        <ele>264.4</ele>
        <time>2020-06-27T10:03:28Z</time>
      </trkpt>
      <trkpt lat="49.11184" lon="7.12075">
        <ele>264.5</ele>
        <time>2020-06-27T10:03:29Z</time>
      </trkpt>
      <trkpt lat="49.11181" lon="7.1208">
        <ele>264.6</ele>
        <time>2020-06-27T10:03:30Z</time>
      </trkpt>
      <trkpt lat="49.11179" lon="7.12087">
        <ele>264.7</ele>
        <time>2020-06-27T10:03:31Z</time>
      </trkpt>
      <trkpt lat="49.11177" lon="7.12092">
        <ele>264.8</ele>
        <time>2020-06-27T10:03:32Z</time>
      </trkpt>
      <trkpt lat="49.11175" lon="7.121">
        <ele>264.9</ele>
        <time>2020-06-27T10:03:33Z</time>
      </trkpt>
      <trkpt lat="49.11173" lon="7.12105">
        <ele>265</ele>
        <time>2020-06-27T10:03:34Z</time>
      </trkpt>
      <trkpt lat="49.11171" lon="7.12112">
        <ele>265.1</ele>
        <time>2020-06-27T10:03:35Z</time>
      </trkpt>
      <trkpt lat="49.11169" lon="7.12119">
        <ele>265.2</ele>
        <time>2020-06-27T10:03:36Z</time>
      </trkpt>
      <trkpt lat="49.11166" lon="7.12126">
        <ele>265.3</ele>
        <time>2020-06-27T10:03:37Z</time>
      </trkpt>
      <trkpt lat="49.11164" lon="7.12131">
        <ele>265.4</ele>
        <time>2020-06-27T10:03:38Z</time>
      </trkpt>
      <trkpt lat="49.11162" lon="7.12138">
        <ele>265.5</ele>
        <time>2020-06-27T10:03:39Z</time>
      </trkpt>
      <trkpt lat="49.1116" lon="7.12144">
        <ele>265.6</ele>
        <time>2020-06-27T10:03:40Z</time>
      </trkpt>
      <trkpt lat="49.11157" lon="7.12151">
        <ele>265.8</ele>
        <time>2020-06-27T10:03:41Z</time>
      </trkpt>
      <trkpt lat="49.11156" lon="7.12156">
        <ele>265.8</ele>
        <time>2020-06-27T10:03:42Z</time>
      </trkpt>
      <trkpt lat="49.11153" lon="7.12163">
        <ele>265.9</ele>
        <time>2020-06-27T10:03:43Z</time>
      </trkpt>
      <trkpt lat="49.11151" lon="7.1217">
        <ele>266</ele>
        <time>2020-06-27T10:03:44Z</time>
      </trkpt>
      <trkpt lat="49.11148" lon="7.12176">
        <ele>266.1</ele>
        <time>2020-06-27T10:03:45Z</time>
      </trkpt>
      <trkpt lat="49.11146" lon="7.12181">
        <ele>266.2</ele>
        <time>2020-06-27T10:03:46Z</time>
      </trkpt>
      <trkpt lat="49.11143" lon="7.12187">
        <ele>266.3</ele>
        <time>2020-06-27T10:03:47Z</time>
      </trkpt>
      <trkpt lat="49.11141" lon="7.12193">
        <ele>266.4</ele>
        <time>2020-06-27T10:03:48Z</time>
      </trkpt>
      <trkpt lat="49.11139" lon="7.12199">
        <ele>266.5</ele>
        <time>2020-06-27T10:03:49Z</time>
      </trkpt>
      <trkpt lat="49.11136" lon="7.12205">
        <ele>266.6</ele>
        <time>2020-06-27T10:03:50Z</time>
      </trkpt>
      <trkpt lat="49.11133" lon="7.12213">
        <ele>266.7</ele>
        <time>2020-06-27T10:03:51Z</time>
      </trkpt>
      <trkpt lat="49.11131" lon="7.12221">
        <ele>266.8</ele>
        <time>2020-06-27T10:03:52Z</time>
      </trkpt>
      <trkpt lat="49.11128" lon="7.12229">
        <ele>266.9</ele>
        <time>2020-06-27T10:03:53Z</time>
      </trkpt>
      <trkpt lat="49.11126" lon="7.12236">
        <ele>267</ele>
        <time>2020-06-27T10:03:54Z</time>
      </trkpt>
      <trkpt lat="49.11124" lon="7.12243">
        <ele>267.1</ele>
        <time>2020-06-27T10:03:55Z</time>
      </trkpt>
      <trkpt lat="49.11122" lon="7.12249">
        <ele>267.2</ele>
        <time>2020-06-27T10:03:56Z</time>
      </trkpt>
      <trkpt lat="49.11119" lon="7.12256">
        <ele>267.3</ele>
        <time>2020-06-27T10:03:57Z</time>
      </trkpt>
      <trkpt lat="49.11117" lon="7.12263">
        <ele>267.4</ele>
        <time>2020-06-27T10:03:58Z</time>
      </trkpt>
      <trkpt lat="49.11115" lon="7.12271">
        <ele>267.5</ele>
        <time>2020-06-27T10:03:59Z</time>
      </trkpt>
      <trkpt lat="49.11113" lon="7.12277">
        <ele>267.6</ele>
        <time>2020-06-27T10:04:00Z</time>
      </trkpt>
      <trkpt lat="49.11111" lon="7.12285">
        <ele>267.7</ele>
        <time>2020-06-27T10:04:01Z</time>
      </trkpt>
      <trkpt lat="49.11109" lon="7.12291">
        <ele>267.8</ele>
        <time>2020-06-27T10:04:02Z</time>
      </trkpt>
      <trkpt lat="49.11106" lon="7.12297">
        <ele>267.9</ele>
        <time>2020-06-27T10:04:03Z</time>
      </trkpt>
      <trkpt lat="49.11103" lon="7.12304">
        <ele>268</ele>
        <time>2020-06-27T10:04:04Z</time>
      </trkpt>
      <trkpt lat="49.111" lon="7.1231">
        <ele>268.1</ele>
        <time>2020-06-27T10:04:05Z</time>
      </trkpt>
      <trkpt lat="49.11098" lon="7.12317">
        <ele>268.2</ele>
        <time>2020-06-27T10:04:06Z</time>
      </trkpt>
      <trkpt lat="49.11095" lon="7.12324">
        <ele>268</ele>
        <time>2020-06-27T10:04:07Z</time>
      </trkpt>
      <trkpt lat="49.11093" lon="7.12331">
        <ele>268</ele>
        <time>2020-06-27T10:04:08Z</time>
      </trkpt>
      <trkpt lat="49.11091" lon="7.12339">
        <ele>267.9</ele>
        <time>2020-06-27T10:04:09Z</time>
      </trkpt>
      <trkpt lat="49.11088" lon="7.12346">
        <ele>268</ele>
        <time>2020-06-27T10:04:10Z</time>
      </trkpt>
      <trkpt lat="49.11086" lon="7.12352">
        <ele>268</ele>
        <time>2020-06-27T10:04:11Z</time>
      </trkpt>
      <trkpt lat="49.11084" lon="7.12359">
        <ele>268</ele>
        <time>2020-06-27T10:04:12Z</time>
      </trkpt>
      <trkpt lat="49.11082" lon="7.12367">
        <ele>268.1</ele>
        <time>2020-06-27T10:04:13Z</time>
      </trkpt>
      <trkpt lat="49.11079" lon="7.12373">
        <ele>268.2</ele>
        <time>2020-06-27T10:04:14Z</time>
      </trkpt>
      <trkpt lat="49.11077" lon="7.1238">
        <ele>268.2</ele>
        <time>2020-06-27T10:04:15Z</time>
      </trkpt>
      <trkpt lat="49.11073" lon="7.12387">
        <ele>268.2</ele>
        <time>2020-06-27T10:04:16Z</time>
      </trkpt>
      <trkpt lat="49.11071" lon="7.12393">
        <ele>268.2</ele>
        <time>2020-06-27T10:04:17Z</time>
      </trkpt>
      <trkpt lat="49.11069" lon="7.124">
        <ele>268.2</ele>
        <time>2020-06-27T10:04:18Z</time>
      </trkpt>
      <trkpt lat="49.11068" lon="7.12407">
        <ele>268.2</ele>
        <time>2020-06-27T10:04:19Z</time>
      </trkpt>
      <trkpt lat="49.11065" lon="7.12412">
        <ele>268.3</ele>
        <time>2020-06-27T10:04:20Z</time>
      </trkpt>
      <trkpt lat="49.11064" lon="7.12419">
        <ele>268.3</ele>
        <time>2020-06-27T10:04:21Z</time>
      </trkpt>
      <trkpt lat="49.11061" lon="7.12426">
        <ele>268.3</ele>
        <time>2020-06-27T10:04:22Z</time>
      </trkpt>
      <trkpt lat="49.11058" lon="7.12431">
        <ele>268.3</ele>
        <time>2020-06-27T10:04:23Z</time>
      </trkpt>
      <trkpt lat="49.11055" lon="7.12438">
        <ele>268.4</ele>
        <time>2020-06-27T10:04:24Z</time>
      </trkpt>
      <trkpt lat="49.11053" lon="7.12445">
        <ele>268.4</ele>
        <time>2020-06-27T10:04:25Z</time>
      </trkpt>
      <trkpt lat="49.11051" lon="7.12452">
        <ele>268.4</ele>
        <time>2020-06-27T10:04:26Z</time>
      </trkpt>
      <trkpt lat="49.11048" lon="7.12458">
        <ele>268.4</ele>
        <time>2020-06-27T10:04:27Z</time>
      </trkpt>
      <trkpt lat="49.11045" lon="7.12465">
        <ele>268.3</ele>
        <time>2020-06-27T10:04:28Z</time>
      </trkpt>
      <trkpt lat="49.11043" lon="7.12472">
        <ele>268.3</ele>
        <time>2020-06-27T10:04:29Z</time>
      </trkpt>
      <trkpt lat="49.1104" lon="7.1248">
        <ele>268.3</ele>
        <time>2020-06-27T10:04:30Z</time>
      </trkpt>
      <trkpt lat="49.11037" lon="7.12489">
        <ele>268.3</ele>
        <time>2020-06-27T10:04:31Z</time>
      </trkpt>
      <trkpt lat="49.11035" lon="7.12497">
        <ele>268.4</ele>
        <time>2020-06-27T10:04:32Z</time>
      </trkpt>
      <trkpt lat="49.11032" lon="7.12503">
        <ele>268.4</ele>
        <time>2020-06-27T10:04:33Z</time>
      </trkpt>
      <trkpt lat="49.1103" lon="7.12511">
        <ele>268.5</ele>
        <time>2020-06-27T10:04:34Z</time>
      </trkpt>
      <trkpt lat="49.11028" lon="7.12519">
        <ele>268.5</ele>
        <time>2020-06-27T10:04:35Z</time>
      </trkpt>
      <trkpt lat="49.11026" lon="7.12526">
        <ele>268.6</ele>
        <time>2020-06-27T10:04:36Z</time>
      </trkpt>
      <trkpt lat="49.11023" lon="7.12533">
        <ele>268.6</ele>
        <time>2020-06-27T10:04:37Z</time>
      </trkpt>
      <trkpt lat="49.11021" lon="7.12539">
        <ele>268.6</ele>
        <time>2020-06-27T10:04:38Z</time>
      </trkpt>
      <trkpt lat="49.11018" lon="7.12546">
        <ele>268.6</ele>
        <time>2020-06-27T10:04:39Z</time>
      </trkpt>
      <trkpt lat="49.11016" lon="7.12552">
        <ele>268.6</ele>
        <time>2020-06-27T10:04:40Z</time>
      </trkpt>
      <trkpt lat="49.11014" lon="7.12559">
        <ele>268.6</ele>
        <time>2020-06-27T10:04:41Z</time>
      </trkpt>
      <trkpt lat="49.11012" lon="7.12566">
        <ele>268.6</ele>
        <time>2020-06-27T10:04:42Z</time>
      </trkpt>
      <trkpt lat="49.11008" lon="7.12573">
        <ele>268.6</ele>
        <time>2020-06-27T10:04:43Z</time>
      </trkpt>
      <trkpt lat="49.11006" lon="7.12581">
        <ele>268.5</ele>
        <time>2020-06-27T10:04:44Z</time>
      </trkpt>
      <trkpt lat="49.11003" lon="7.12589">
        <ele>268.4</ele>
        <time>2020-06-27T10:04:45Z</time>
      </trkpt>
      <trkpt lat="49.11001" lon="7.12597">
        <ele>268.3</ele>
        <time>2020-06-27T10:04:46Z</time>
      </trkpt>
      <trkpt lat="49.10999" lon="7.12604">
        <ele>268.3</ele>
        <time>2020-06-27T10:04:47Z</time>
      </trkpt>
      <trkpt lat="49.10996" lon="7.12611">
        <ele>268.3</ele>
        <time>2020-06-27T10:04:48Z</time>
      </trkpt>
      <trkpt lat="49.10993" lon="7.12619">
        <ele>268.3</ele>
        <time>2020-06-27T10:04:49Z</time>
      </trkpt>
      <trkpt lat="49.10991" lon="7.12625">
        <ele>268.3</ele>
        <time>2020-06-27T10:04:50Z</time>
      </trkpt>
      <trkpt lat="49.10988" lon="7.12631">
        <ele>268.3</ele>
        <time>2020-06-27T10:04:51Z</time>
      </trkpt>
      <trkpt lat="49.10986" lon="7.12637">
        <ele>268.4</ele>
        <time>2020-06-27T10:04:52Z</time>
      </trkpt>
      <trkpt lat="49.10984" lon="7.12644">
        <ele>268.4</ele>
        <time>2020-06-27T10:04:53Z</time>
      </trkpt>
      <trkpt lat="49.10981" lon="7.1265">
        <ele>268.5</ele>
        <time>2020-06-27T10:04:54Z</time>
      </trkpt>
      <trkpt lat="49.10978" lon="7.12657">
        <ele>268.5</ele>
        <time>2020-06-27T10:04:55Z</time>
      </trkpt>
      <trkpt lat="49.10975" lon="7.12663">
        <ele>268.6</ele>
        <time>2020-06-27T10:04:56Z</time>
      </trkpt>
      <trkpt lat="49.10973" lon="7.12671">
        <ele>268.6</ele>
        <time>2020-06-27T10:04:57Z</time>
      </trkpt>
      <trkpt lat="49.10971" lon="7.12678">
        <ele>268.6</ele>
        <time>2020-06-27T10:04:58Z</time>
      </trkpt>
      <trkpt lat="49.10969" lon="7.12687">
        <ele>268.6</ele>
        <time>2020-06-27T10:04:59Z</time>
      </trkpt>
      <trkpt lat="49.10965" lon="7.12695">
        <ele>268.6</ele>
        <time>2020-06-27T10:05:00Z</time>
      </trkpt>
      <trkpt lat="49.10962" lon="7.12704">
        <ele>268.6</ele>
        <time>2020-06-27T10:05:01Z</time>
      </trkpt>
      <trkpt lat="49.10959" lon="7.12712">
        <ele>268.6</ele>
        <time>2020-06-27T10:05:02Z</time>
      </trkpt>
      <trkpt lat="49.10957" lon="7.1272">
        <ele>268.6</ele>
        <time>2020-06-27T10:05:03Z</time>
      </trkpt>
      <trkpt lat="49.10954" lon="7.12729">
        <ele>268.6</ele>
        <time>2020-06-27T10:05:04Z</time>
      </trkpt>
      <trkpt lat="49.10951" lon="7.12735">
        <ele>268.7</ele>
        <time>2020-06-27T10:05:05Z</time>
      </trkpt>
      <trkpt lat="49.10949" lon="7.12742">
        <ele>268.7</ele>
        <time>2020-06-27T10:05:06Z</time>
      </trkpt>
      <trkpt lat="49.10946" lon="7.12749">
        <ele>268.7</ele>
        <time>2020-06-27T10:05:07Z</time>
      </trkpt>
      <trkpt lat="49.10944" lon="7.12757">
        <ele>268.7</ele>
        <time>2020-06-27T10:05:08Z</time>
      </trkpt>
      <trkpt lat="49.10942" lon="7.12764">
        <ele>268.7</ele>
        <time>2020-06-27T10:05:09Z</time>
      </trkpt>
      <trkpt lat="49.1094" lon="7.12771">
        <ele>268.8</ele>
        <time>2020-06-27T10:05:10Z</time>
      </trkpt>
      <trkpt lat="49.10938" lon="7.12778">
        <ele>268.8</ele>
        <time>2020-06-27T10:05:11Z</time>
      </trkpt>
      <trkpt lat="49.10935" lon="7.12786">
        <ele>268.9</ele>
        <time>2020-06-27T10:05:12Z</time>
      </trkpt>
      <trkpt lat="49.10932" lon="7.12794">
        <ele>268.9</ele>
        <time>2020-06-27T10:05:13Z</time>
      </trkpt>
      <trkpt lat="49.10929" lon="7.12802">
        <ele>268.9</ele>
        <time>2020-06-27T10:05:14Z</time>
      </trkpt>
      <trkpt lat="49.10926" lon="7.1281">
        <ele>268.9</ele>
        <time>2020-06-27T10:05:15Z</time>
      </trkpt>
      <trkpt lat="49.10923" lon="7.12818">
        <ele>268.9</ele>
        <time>2020-06-27T10:05:16Z</time>
      </trkpt>
      <trkpt lat="49.1092" lon="7.12826">
        <ele>268.9</ele>
        <time>2020-06-27T10:05:17Z</time>
      </trkpt>
      <trkpt lat="49.10917" lon="7.12834">
        <ele>268.9</ele>
        <time>2020-06-27T10:05:18Z</time>
      </trkpt>
      <trkpt lat="49.10913" lon="7.12843">
        <ele>268.9</ele>
        <time>2020-06-27T10:05:19Z</time>
      </trkpt>
      <trkpt lat="49.1091" lon="7.12851">
        <ele>268.8</ele>
        <time>2020-06-27T10:05:20Z</time>
      </trkpt>
      <trkpt lat="49.10907" lon="7.12859">
        <ele>268.8</ele>
        <time>2020-06-27T10:05:21Z</time>
      </trkpt>
      <trkpt lat="49.10905" lon="7.12867">
        <ele>268.8</ele>
        <time>2020-06-27T10:05:22Z</time>
      </trkpt>
      <trkpt lat="49.10902" lon="7.12874">
        <ele>268.8</ele>
        <time>2020-06-27T10:05:23Z</time>
      </trkpt>
      <trkpt lat="49.109" lon="7.12882">
        <ele>268.8</ele>
        <time>2020-06-27T10:05:24Z</time>
      </trkpt>
      <trkpt lat="49.10897" lon="7.1289">
        <ele>268.8</ele>
        <time>2020-06-27T10:05:25Z</time>
      </trkpt>
      <trkpt lat="49.10894" lon="7.12898">
        <ele>268.8</ele>
        <time>2020-06-27T10:05:26Z</time>
      </trkpt>
      <trkpt lat="49.10892" lon="7.12909">
        <ele>268.8</ele>
        <time>2020-06-27T10:05:27Z</time>
      </trkpt>
      <trkpt lat="49.10889" lon="7.12916">
        <ele>268.8</ele>
        <time>2020-06-27T10:05:28Z</time>
      </trkpt>
      <trkpt lat="49.10885" lon="7.12925">
        <ele>268.8</ele>
        <time>2020-06-27T10:05:29Z</time>
      </trkpt>
      <trkpt lat="49.10882" lon="7.12932">
        <ele>268.9</ele>
        <time>2020-06-27T10:05:30Z</time>
      </trkpt>
      <trkpt lat="49.1088" lon="7.1294">
        <ele>268.9</ele>
        <time>2020-06-27T10:05:31Z</time>
      </trkpt>
      <trkpt lat="49.10877" lon="7.12947">
        <ele>268.9</ele>
        <time>2020-06-27T10:05:32Z</time>
      </trkpt>
      <trkpt lat="49.10874" lon="7.12955">
        <ele>268.9</ele>
        <time>2020-06-27T10:05:33Z</time>
      </trkpt>
      <trkpt lat="49.10872" lon="7.12964">
        <ele>269</ele>
        <time>2020-06-27T10:05:34Z</time>
      </trkpt>
      <trkpt lat="49.10869" lon="7.12972">
        <ele>269</ele>
        <time>2020-06-27T10:05:35Z</time>
      </trkpt>
      <trkpt lat="49.10868" lon="7.12978">
        <ele>269.1</ele>
        <time>2020-06-27T10:05:36Z</time>
      </trkpt>
      <trkpt lat="49.10865" lon="7.12986">
        <ele>269.1</ele>
        <time>2020-06-27T10:05:37Z</time>
      </trkpt>
      <trkpt lat="49.10863" lon="7.12992">
        <ele>269.2</ele>
        <time>2020-06-27T10:05:38Z</time>
      </trkpt>
      <trkpt lat="49.1086" lon="7.13001">
        <ele>269.2</ele>
        <time>2020-06-27T10:05:39Z</time>
      </trkpt>
      <trkpt lat="49.10857" lon="7.13011">
        <ele>269.2</ele>
        <time>2020-06-27T10:05:40Z</time>
      </trkpt>
      <trkpt lat="49.10854" lon="7.1302">
        <ele>269.2</ele>
        <time>2020-06-27T10:05:41Z</time>
      </trkpt>
      <trkpt lat="49.10851" lon="7.13029">
        <ele>269.3</ele>
        <time>2020-06-27T10:05:42Z</time>
      </trkpt>
      <trkpt lat="49.10849" lon="7.13037">
        <ele>269.3</ele>
        <time>2020-06-27T10:05:43Z</time>
      </trkpt>
      <trkpt lat="49.10846" lon="7.13046">
        <ele>269.4</ele>
        <time>2020-06-27T10:05:44Z</time>
      </trkpt>
      <trkpt lat="49.10843" lon="7.13055">
        <ele>269.5</ele>
        <time>2020-06-27T10:05:45Z</time>
      </trkpt>
      <trkpt lat="49.1084" lon="7.13063">
        <ele>269.5</ele>
        <time>2020-06-27T10:05:46Z</time>
      </trkpt>
      <trkpt lat="49.10837" lon="7.13071">
        <ele>269.6</ele>
        <time>2020-06-27T10:05:47Z</time>
      </trkpt>
      <trkpt lat="49.10834" lon="7.13079">
        <ele>269.6</ele>
        <time>2020-06-27T10:05:48Z</time>
      </trkpt>
      <trkpt lat="49.10832" lon="7.13086">
        <ele>269.6</ele>
        <time>2020-06-27T10:05:49Z</time>
      </trkpt>
      <trkpt lat="49.10829" lon="7.13094">
        <ele>269.6</ele>
        <time>2020-06-27T10:05:50Z</time>
      </trkpt>
      <trkpt lat="49.10827" lon="7.13102">
        <ele>269.6</ele>
        <time>2020-06-27T10:05:51Z</time>
      </trkpt>
      <trkpt lat="49.10824" lon="7.1311">
        <ele>269.6</ele>
        <time>2020-06-27T10:05:52Z</time>
      </trkpt>
      <trkpt lat="49.10821" lon="7.13118">
        <ele>269.6</ele>
        <time>2020-06-27T10:05:53Z</time>
      </trkpt>
      <trkpt lat="49.10819" lon="7.13126">
        <ele>269.5</ele>
        <time>2020-06-27T10:05:54Z</time>
      </trkpt>
      <trkpt lat="49.10817" lon="7.13133">
        <ele>269.5</ele>
        <time>2020-06-27T10:05:55Z</time>
      </trkpt>
      <trkpt lat="49.10814" lon="7.13142">
        <ele>269.5</ele>
        <time>2020-06-27T10:05:56Z</time>
      </trkpt>
      <trkpt lat="49.10811" lon="7.13149">
        <ele>269.5</ele>
        <time>2020-06-27T10:05:57Z</time>
      </trkpt>
      <trkpt lat="49.10808" lon="7.13158">
        <ele>269.5</ele>
        <time>2020-06-27T10:05:58Z</time>
      </trkpt>
      <trkpt lat="49.10805" lon="7.13166">
        <ele>269.4</ele>
        <time>2020-06-27T10:05:59Z</time>
      </trkpt>
      <trkpt lat="49.10802" lon="7.13175">
        <ele>269.4</ele>
        <time>2020-06-27T10:06:00Z</time>
      </trkpt>
      <trkpt lat="49.10799" lon="7.13184">
        <ele>269.3</ele>
        <time>2020-06-27T10:06:01Z</time>
      </trkpt>
      <trkpt lat="49.10796" lon="7.13193">
        <ele>269.4</ele>
        <time>2020-06-27T10:06:02Z</time>
      </trkpt>
      <trkpt lat="49.10793" lon="7.13202">
        <ele>269.5</ele>
        <time>2020-06-27T10:06:03Z</time>
      </trkpt>
      <trkpt lat="49.1079" lon="7.13211">
        <ele>269.6</ele>
        <time>2020-06-27T10:06:04Z</time>
      </trkpt>
      <trkpt lat="49.10787" lon="7.1322">
        <ele>269.9</ele>
        <time>2020-06-27T10:06:05Z</time>
      </trkpt>
      <trkpt lat="49.10784" lon="7.1323">
        <ele>270.2</ele>
        <time>2020-06-27T10:06:06Z</time>
      </trkpt>
      <trkpt lat="49.10781" lon="7.13239">
        <ele>270.9</ele>
        <time>2020-06-27T10:06:07Z</time>
      </trkpt>
      <trkpt lat="49.10778" lon="7.13248">
        <ele>270.7</ele>
        <time>2020-06-27T10:06:08Z</time>
      </trkpt>
      <trkpt lat="49.10775" lon="7.13256">
        <ele>270.6</ele>
        <time>2020-06-27T10:06:09Z</time>
      </trkpt>
      <trkpt lat="49.10773" lon="7.13265">
        <ele>270.5</ele>
        <time>2020-06-27T10:06:10Z</time>
      </trkpt>
      <trkpt lat="49.1077" lon="7.13273">
        <ele>270.5</ele>
        <time>2020-06-27T10:06:11Z</time>
      </trkpt>
      <trkpt lat="49.10768" lon="7.13281">
        <ele>270.5</ele>
        <time>2020-06-27T10:06:12Z</time>
      </trkpt>
      <trkpt lat="49.10765" lon="7.13288">
        <ele>270.6</ele>
        <time>2020-06-27T10:06:13Z</time>
      </trkpt>
      <trkpt lat="49.10762" lon="7.13296">
        <ele>270.7</ele>
        <time>2020-06-27T10:06:14Z</time>
      </trkpt>
      <trkpt lat="49.10759" lon="7.13303">
        <ele>270.9</ele>
        <time>2020-06-27T10:06:15Z</time>
      </trkpt>
      <trkpt lat="49.10756" lon="7.1331">
        <ele>271.1</ele>
        <time>2020-06-27T10:06:16Z</time>
      </trkpt>
      <trkpt lat="49.10754" lon="7.1332">
        <ele>271.3</ele>
        <time>2020-06-27T10:06:17Z</time>
      </trkpt>
      <trkpt lat="49.10751" lon="7.13327">
        <ele>271.5</ele>
        <time>2020-06-27T10:06:18Z</time>
      </trkpt>
      <trkpt lat="49.10749" lon="7.13334">
        <ele>271.7</ele>
        <time>2020-06-27T10:06:19Z</time>
      </trkpt>
      <trkpt lat="49.10747" lon="7.13341">
        <ele>271.9</ele>
        <time>2020-06-27T10:06:20Z</time>
      </trkpt>
      <trkpt lat="49.10745" lon="7.13346">
        <ele>272.1</ele>
        <time>2020-06-27T10:06:21Z</time>
      </trkpt>
      <trkpt lat="49.10742" lon="7.13353">
        <ele>272.3</ele>
        <time>2020-06-27T10:06:22Z</time>
      </trkpt>
      <trkpt lat="49.1074" lon="7.13359">
        <ele>272.5</ele>
        <time>2020-06-27T10:06:23Z</time>
      </trkpt>
      <trkpt lat="49.10737" lon="7.13366">
        <ele>272.7</ele>
        <time>2020-06-27T10:06:24Z</time>
      </trkpt>
      <trkpt lat="49.10735" lon="7.13373">
        <ele>272.9</ele>
        <time>2020-06-27T10:06:25Z</time>
      </trkpt>
      <trkpt lat="49.10732" lon="7.13381">
        <ele>273.2</ele>
        <time>2020-06-27T10:06:26Z</time>
      </trkpt>
      <trkpt lat="49.1073" lon="7.13388">
        <ele>273.4</ele>
        <time>2020-06-27T10:06:27Z</time>
      </trkpt>
      <trkpt lat="49.10728" lon="7.13395">
        <ele>273.5</ele>
        <time>2020-06-27T10:06:28Z</time>
      </trkpt>
      <trkpt lat="49.10725" lon="7.13401">
        <ele>273.7</ele>
        <time>2020-06-27T10:06:29Z</time>
      </trkpt>
      <trkpt lat="49.10723" lon="7.13408">
        <ele>273.9</ele>
        <time>2020-06-27T10:06:30Z</time>
      </trkpt>
      <trkpt lat="49.1072" lon="7.13415">
        <ele>274.1</ele>
        <time>2020-06-27T10:06:31Z</time>
      </trkpt>
      <trkpt lat="49.10718" lon="7.13424">
        <ele>274.4</ele>
        <time>2020-06-27T10:06:32Z</time>
      </trkpt>
      <trkpt lat="49.10715" lon="7.1343">
        <ele>274.5</ele>
        <time>2020-06-27T10:06:33Z</time>
      </trkpt>
      <trkpt lat="49.10713" lon="7.13438">
        <ele>274.7</ele>
        <time>2020-06-27T10:06:34Z</time>
      </trkpt>
      <trkpt lat="49.10711" lon="7.13443">
        <ele>274.9</ele>
        <time>2020-06-27T10:06:35Z</time>
      </trkpt>
      <trkpt lat="49.10709" lon="7.13449">
        <ele>275.1</ele>
        <time>2020-06-27T10:06:36Z</time>
      </trkpt>
      <trkpt lat="49.10707" lon="7.13455">
        <ele>275.3</ele>
        <time>2020-06-27T10:06:37Z</time>
      </trkpt>
      <trkpt lat="49.10704" lon="7.13461">
        <ele>275.5</ele>
        <time>2020-06-27T10:06:38Z</time>
      </trkpt>
      <trkpt lat="49.10702" lon="7.13468">
        <ele>275.7</ele>
        <time>2020-06-27T10:06:39Z</time>
      </trkpt>
      <trkpt lat="49.107" lon="7.13474">
        <ele>275.9</ele>
        <time>2020-06-27T10:06:40Z</time>
      </trkpt>
      <trkpt lat="49.10697" lon="7.1348">
        <ele>276.1</ele>
        <time>2020-06-27T10:06:41Z</time>
      </trkpt>
      <trkpt lat="49.10695" lon="7.13487">
        <ele>276.4</ele>
        <time>2020-06-27T10:06:42Z</time>
      </trkpt>
      <trkpt lat="49.10692" lon="7.13493">
        <ele>276.6</ele>
        <time>2020-06-27T10:06:43Z</time>
      </trkpt>
      <trkpt lat="49.1069" lon="7.135">
        <ele>276.9</ele>
        <time>2020-06-27T10:06:44Z</time>
      </trkpt>
      <trkpt lat="49.10688" lon="7.13507">
        <ele>277.2</ele>
        <time>2020-06-27T10:06:45Z</time>
      </trkpt>
      <trkpt lat="49.10686" lon="7.13513">
        <ele>277.4</ele>
        <time>2020-06-27T10:06:46Z</time>
      </trkpt>
      <trkpt lat="49.10683" lon="7.13519">
        <ele>277.7</ele>
        <time>2020-06-27T10:06:47Z</time>
      </trkpt>
      <trkpt lat="49.10681" lon="7.13526">
        <ele>278</ele>
        <time>2020-06-27T10:06:48Z</time>
      </trkpt>
      <trkpt lat="49.1068" lon="7.13532">
        <ele>278.8</ele>
        <time>2020-06-27T10:06:49Z</time>
      </trkpt>
      <trkpt lat="49.10679" lon="7.13538">
        <ele>279.5</ele>
        <time>2020-06-27T10:06:50Z</time>
      </trkpt>
      <trkpt lat="49.10677" lon="7.13544">
        <ele>279.9</ele>
        <time>2020-06-27T10:06:51Z</time>
      </trkpt>
      <trkpt lat="49.10676" lon="7.13551">
        <ele>280.3</ele>
        <time>2020-06-27T10:06:52Z</time>
      </trkpt>
      <trkpt lat="49.10674" lon="7.13558">
        <ele>280.4</ele>
        <time>2020-06-27T10:06:53Z</time>
      </trkpt>
      <trkpt lat="49.10672" lon="7.13566">
        <ele>280.5</ele>
        <time>2020-06-27T10:06:54Z</time>
      </trkpt>
      <trkpt lat="49.1067" lon="7.13573">
        <ele>280.6</ele>
        <time>2020-06-27T10:06:55Z</time>
      </trkpt>
      <trkpt lat="49.10669" lon="7.13577">
        <ele>280.7</ele>
        <time>2020-06-27T10:06:56Z</time>
      </trkpt>
      <trkpt lat="49.10667" lon="7.13586">
        <ele>280.8</ele>
        <time>2020-06-27T10:06:57Z</time>
      </trkpt>
      <trkpt lat="49.10665" lon="7.13593">
        <ele>281</ele>
        <time>2020-06-27T10:06:58Z</time>
      </trkpt>
      <trkpt lat="49.10664" lon="7.136">
        <ele>281.1</ele>
        <time>2020-06-27T10:06:59Z</time>
      </trkpt>
      <trkpt lat="49.10662" lon="7.13609">
        <ele>281.2</ele>
        <time>2020-06-27T10:07:00Z</time>
      </trkpt>
      <trkpt lat="49.10661" lon="7.13614">
        <ele>281.3</ele>
        <time>2020-06-27T10:07:01Z</time>
      </trkpt>
      <trkpt lat="49.10659" lon="7.13622">
        <ele>281.4</ele>
        <time>2020-06-27T10:07:02Z</time>
      </trkpt>
      <trkpt lat="49.10658" lon="7.13631">
        <ele>281.5</ele>
        <time>2020-06-27T10:07:03Z</time>
      </trkpt>
      <trkpt lat="49.10656" lon="7.13638">
        <ele>281.6</ele>
        <time>2020-06-27T10:07:04Z</time>
      </trkpt>
      <trkpt lat="49.10656" lon="7.13645">
        <ele>281.7</ele>
        <time>2020-06-27T10:07:05Z</time>
      </trkpt>
      <trkpt lat="49.10654" lon="7.13652">
        <ele>281.7</ele>
        <time>2020-06-27T10:07:06Z</time>
      </trkpt>
      <trkpt lat="49.10653" lon="7.1366">
        <ele>281.8</ele>
        <time>2020-06-27T10:07:07Z</time>
      </trkpt>
      <trkpt lat="49.10653" lon="7.13667">
        <ele>281.9</ele>
        <time>2020-06-27T10:07:08Z</time>
      </trkpt>
      <trkpt lat="49.10651" lon="7.13672">
        <ele>282</ele>
        <time>2020-06-27T10:07:09Z</time>
      </trkpt>
      <trkpt lat="49.1065" lon="7.13679">
        <ele>282.1</ele>
        <time>2020-06-27T10:07:10Z</time>
      </trkpt>
      <trkpt lat="49.10649" lon="7.13686">
        <ele>282.2</ele>
        <time>2020-06-27T10:07:11Z</time>
      </trkpt>
      <trkpt lat="49.10649" lon="7.13692">
        <ele>282.2</ele>
        <time>2020-06-27T10:07:12Z</time>
      </trkpt>
      <trkpt lat="49.10648" lon="7.13699">
        <ele>282.3</ele>
        <time>2020-06-27T10:07:13Z</time>
      </trkpt>
      <trkpt lat="49.10648" lon="7.13708">
        <ele>282.4</ele>
        <time>2020-06-27T10:07:14Z</time>
      </trkpt>
      <trkpt lat="49.10647" lon="7.13716">
        <ele>282.4</ele>
        <time>2020-06-27T10:07:15Z</time>
      </trkpt>
      <trkpt lat="49.10647" lon="7.13724">
        <ele>282.5</ele>
        <time>2020-06-27T10:07:16Z</time>
      </trkpt>
      <trkpt lat="49.10646" lon="7.13732">
        <ele>282.5</ele>
        <time>2020-06-27T10:07:17Z</time>
      </trkpt>
      <trkpt lat="49.10645" lon="7.13739">
        <ele>282.6</ele>
        <time>2020-06-27T10:07:18Z</time>
      </trkpt>
      <trkpt lat="49.10645" lon="7.13748">
        <ele>282.6</ele>
        <time>2020-06-27T10:07:19Z</time>
      </trkpt>
      <trkpt lat="49.10644" lon="7.13754">
        <ele>282.7</ele>
        <time>2020-06-27T10:07:20Z</time>
      </trkpt>
      <trkpt lat="49.10643" lon="7.13761">
        <ele>282.8</ele>
        <time>2020-06-27T10:07:21Z</time>
      </trkpt>
      <trkpt lat="49.10642" lon="7.13769">
        <ele>282.9</ele>
        <time>2020-06-27T10:07:22Z</time>
      </trkpt>
      <trkpt lat="49.10642" lon="7.13777">
        <ele>282.9</ele>
        <time>2020-06-27T10:07:23Z</time>
      </trkpt>
      <trkpt lat="49.10641" lon="7.13785">
        <ele>283</ele>
        <time>2020-06-27T10:07:24Z</time>
      </trkpt>
      <trkpt lat="49.10641" lon="7.13793">
        <ele>283.1</ele>
        <time>2020-06-27T10:07:25Z</time>
      </trkpt>
      <trkpt lat="49.1064" lon="7.13802">
        <ele>283.2</ele>
        <time>2020-06-27T10:07:26Z</time>
      </trkpt>
      <trkpt lat="49.1064" lon="7.1381">
        <ele>283.3</ele>
        <time>2020-06-27T10:07:27Z</time>
      </trkpt>
      <trkpt lat="49.10639" lon="7.13817">
        <ele>283.4</ele>
        <time>2020-06-27T10:07:28Z</time>
      </trkpt>
      <trkpt lat="49.10639" lon="7.13825">
        <ele>283.5</ele>
        <time>2020-06-27T10:07:29Z</time>
      </trkpt>
      <trkpt lat="49.10638" lon="7.13834">
        <ele>283.6</ele>
        <time>2020-06-27T10:07:30Z</time>
      </trkpt>
      <trkpt lat="49.10637" lon="7.13842">
        <ele>283.6</ele>
        <time>2020-06-27T10:07:31Z</time>
      </trkpt>
      <trkpt lat="49.10636" lon="7.1385">
        <ele>283.7</ele>
        <time>2020-06-27T10:07:32Z</time>
      </trkpt>
      <trkpt lat="49.10636" lon="7.13859">
        <ele>283.9</ele>
        <time>2020-06-27T10:07:33Z</time>
      </trkpt>
      <trkpt lat="49.10635" lon="7.13867">
        <ele>284</ele>
        <time>2020-06-27T10:07:34Z</time>
      </trkpt>
      <trkpt lat="49.10634" lon="7.13875">
        <ele>284.2</ele>
        <time>2020-06-27T10:07:35Z</time>
      </trkpt>
      <trkpt lat="49.10633" lon="7.13882">
        <ele>284.3</ele>
        <time>2020-06-27T10:07:36Z</time>
      </trkpt>
      <trkpt lat="49.10633" lon="7.13889">
        <ele>284.4</ele>
        <time>2020-06-27T10:07:37Z</time>
      </trkpt>
      <trkpt lat="49.10632" lon="7.13896">
        <ele>284.5</ele>
        <time>2020-06-27T10:07:38Z</time>
      </trkpt>
      <trkpt lat="49.10631" lon="7.13903">
        <ele>284.6</ele>
        <time>2020-06-27T10:07:39Z</time>
      </trkpt>
      <trkpt lat="49.10631" lon="7.13911">
        <ele>284.7</ele>
        <time>2020-06-27T10:07:40Z</time>
      </trkpt>
      <trkpt lat="49.1063" lon="7.13918">
        <ele>284.8</ele>
        <time>2020-06-27T10:07:41Z</time>
      </trkpt>
      <trkpt lat="49.10629" lon="7.13925">
        <ele>285</ele>
        <time>2020-06-27T10:07:42Z</time>
      </trkpt>
      <trkpt lat="49.10629" lon="7.13932">
        <ele>285.1</ele>
        <time>2020-06-27T10:07:43Z</time>
      </trkpt>
      <trkpt lat="49.10629" lon="7.13938">
        <ele>285.3</ele>
        <time>2020-06-27T10:07:44Z</time>
      </trkpt>
      <trkpt lat="49.10628" lon="7.13944">
        <ele>285.4</ele>
        <time>2020-06-27T10:07:45Z</time>
      </trkpt>
      <trkpt lat="49.10628" lon="7.13952">
        <ele>285.6</ele>
        <time>2020-06-27T10:07:46Z</time>
      </trkpt>
      <trkpt lat="49.10627" lon="7.13958">
        <ele>285.7</ele>
        <time>2020-06-27T10:07:47Z</time>
      </trkpt>
      <trkpt lat="49.10627" lon="7.13964">
        <ele>285.9</ele>
        <time>2020-06-27T10:07:48Z</time>
      </trkpt>
      <trkpt lat="49.10627" lon="7.1397">
        <ele>286</ele>
        <time>2020-06-27T10:07:49Z</time>
      </trkpt>
      <trkpt lat="49.10626" lon="7.13976">
        <ele>286.1</ele>
        <time>2020-06-27T10:07:50Z</time>
      </trkpt>
      <trkpt lat="49.10626" lon="7.13983">
        <ele>286.3</ele>
        <time>2020-06-27T10:07:51Z</time>
      </trkpt>
      <trkpt lat="49.10626" lon="7.13989">
        <ele>286.5</ele>
        <time>2020-06-27T10:07:52Z</time>
      </trkpt>
      <trkpt lat="49.10624" lon="7.13997">
        <ele>286.7</ele>
        <time>2020-06-27T10:07:53Z</time>
      </trkpt>
      <trkpt lat="49.10624" lon="7.14003">
        <ele>286.8</ele>
        <time>2020-06-27T10:07:54Z</time>
      </trkpt>
      <trkpt lat="49.10623" lon="7.1401">
        <ele>287</ele>
        <time>2020-06-27T10:07:55Z</time>
      </trkpt>
      <trkpt lat="49.10623" lon="7.14016">
        <ele>287.2</ele>
        <time>2020-06-27T10:07:56Z</time>
      </trkpt>
      <trkpt lat="49.10623" lon="7.14023">
        <ele>287.4</ele>
        <time>2020-06-27T10:07:57Z</time>
      </trkpt>
      <trkpt lat="49.10623" lon="7.14029">
        <ele>287.6</ele>
        <time>2020-06-27T10:07:58Z</time>
      </trkpt>
      <trkpt lat="49.10622" lon="7.14035">
        <ele>287.8</ele>
        <time>2020-06-27T10:07:59Z</time>
      </trkpt>
      <trkpt lat="49.10622" lon="7.14042">
        <ele>288</ele>
        <time>2020-06-27T10:08:00Z</time>
      </trkpt>
      <trkpt lat="49.10622" lon="7.14049">
        <ele>288.2</ele>
        <time>2020-06-27T10:08:01Z</time>
      </trkpt>
      <trkpt lat="49.10622" lon="7.14054">
        <ele>288.3</ele>
        <time>2020-06-27T10:08:02Z</time>
      </trkpt>
      <trkpt lat="49.10622" lon="7.14061">
        <ele>288.5</ele>
        <time>2020-06-27T10:08:03Z</time>
      </trkpt>
      <trkpt lat="49.10622" lon="7.14067">
        <ele>288.6</ele>
        <time>2020-06-27T10:08:04Z</time>
      </trkpt>
      <trkpt lat="49.10622" lon="7.14074">
        <ele>288.8</ele>
        <time>2020-06-27T10:08:05Z</time>
      </trkpt>
      <trkpt lat="49.10623" lon="7.1408">
        <ele>288.9</ele>
        <time>2020-06-27T10:08:06Z</time>
      </trkpt>
      <trkpt lat="49.10623" lon="7.14087">
        <ele>289.1</ele>
        <time>2020-06-27T10:08:07Z</time>
      </trkpt>
      <trkpt lat="49.10623" lon="7.14094">
        <ele>289.3</ele>
        <time>2020-06-27T10:08:08Z</time>
      </trkpt>
      <trkpt lat="49.10623" lon="7.141">
        <ele>289.5</ele>
        <time>2020-06-27T10:08:09Z</time>
      </trkpt>
      <trkpt lat="49.10624" lon="7.14105">
        <ele>289.6</ele>
        <time>2020-06-27T10:08:10Z</time>
      </trkpt>
      <trkpt lat="49.10624" lon="7.1411">
        <ele>289.7</ele>
        <time>2020-06-27T10:08:11Z</time>
      </trkpt>
      <trkpt lat="49.10624" lon="7.14116">
        <ele>289.9</ele>
        <time>2020-06-27T10:08:12Z</time>
      </trkpt>
      <trkpt lat="49.10624" lon="7.14122">
        <ele>290</ele>
        <time>2020-06-27T10:08:13Z</time>
      </trkpt>
      <trkpt lat="49.10624" lon="7.1413">
        <ele>290.2</ele>
        <time>2020-06-27T10:08:14Z</time>
      </trkpt>
      <trkpt lat="49.10625" lon="7.14137">
        <ele>290.4</ele>
        <time>2020-06-27T10:08:15Z</time>
      </trkpt>
      <trkpt lat="49.10625" lon="7.14144">
        <ele>290.6</ele>
        <time>2020-06-27T10:08:16Z</time>
      </trkpt>
      <trkpt lat="49.10625" lon="7.1415">
        <ele>290.7</ele>
        <time>2020-06-27T10:08:17Z</time>
      </trkpt>
      <trkpt lat="49.10626" lon="7.14156">
        <ele>290.9</ele>
        <time>2020-06-27T10:08:18Z</time>
      </trkpt>
      <trkpt lat="49.10626" lon="7.14163">
        <ele>291.1</ele>
        <time>2020-06-27T10:08:19Z</time>
      </trkpt>
      <trkpt lat="49.10626" lon="7.14169">
        <ele>291.2</ele>
        <time>2020-06-27T10:08:20Z</time>
      </trkpt>
      <trkpt lat="49.10627" lon="7.14176">
        <ele>291.4</ele>
        <time>2020-06-27T10:08:21Z</time>
      </trkpt>
      <trkpt lat="49.10627" lon="7.14182">
        <ele>291.5</ele>
        <time>2020-06-27T10:08:22Z</time>
      </trkpt>
      <trkpt lat="49.10626" lon="7.14188">
        <ele>291.7</ele>
        <time>2020-06-27T10:08:23Z</time>
      </trkpt>
      <trkpt lat="49.10626" lon="7.14195">
        <ele>291.9</ele>
        <time>2020-06-27T10:08:24Z</time>
      </trkpt>
      <trkpt lat="49.10626" lon="7.14202">
        <ele>292</ele>
        <time>2020-06-27T10:08:25Z</time>
      </trkpt>
      <trkpt lat="49.10627" lon="7.14208">
        <ele>292.2</ele>
        <time>2020-06-27T10:08:26Z</time>
      </trkpt>
      <trkpt lat="49.10627" lon="7.14215">
        <ele>292.3</ele>
        <time>2020-06-27T10:08:27Z</time>
      </trkpt>
      <trkpt lat="49.10628" lon="7.14221">
        <ele>292.5</ele>
        <time>2020-06-27T10:08:28Z</time>
      </trkpt>
      <trkpt lat="49.10629" lon="7.14227">
        <ele>292.6</ele>
        <time>2020-06-27T10:08:29Z</time>
      </trkpt>
      <trkpt lat="49.10629" lon="7.14234">
        <ele>292.7</ele>
        <time>2020-06-27T10:08:30Z</time>
      </trkpt>
      <trkpt lat="49.1063" lon="7.14241">
        <ele>292.9</ele>
        <time>2020-06-27T10:08:31Z</time>
      </trkpt>
      <trkpt lat="49.1063" lon="7.14248">
        <ele>293.1</ele>
        <time>2020-06-27T10:08:32Z</time>
      </trkpt>
      <trkpt lat="49.10631" lon="7.14255">
        <ele>293.2</ele>
        <time>2020-06-27T10:08:33Z</time>
      </trkpt>
      <trkpt lat="49.1063" lon="7.14262">
        <ele>293.4</ele>
        <time>2020-06-27T10:08:34Z</time>
      </trkpt>
      <trkpt lat="49.10631" lon="7.14268">
        <ele>293.5</ele>
        <time>2020-06-27T10:08:35Z</time>
      </trkpt>
      <trkpt lat="49.10631" lon="7.14275">
        <ele>293.7</ele>
        <time>2020-06-27T10:08:36Z</time>
      </trkpt>
      <trkpt lat="49.10632" lon="7.14283">
        <ele>293.9</ele>
        <time>2020-06-27T10:08:37Z</time>
      </trkpt>
      <trkpt lat="49.10632" lon="7.14288">
        <ele>294</ele>
        <time>2020-06-27T10:08:38Z</time>
      </trkpt>
      <trkpt lat="49.10632" lon="7.14294">
        <ele>294.1</ele>
        <time>2020-06-27T10:08:39Z</time>
      </trkpt>
      <trkpt lat="49.10632" lon="7.143">
        <ele>294.3</ele>
        <time>2020-06-27T10:08:40Z</time>
      </trkpt>
      <trkpt lat="49.10632" lon="7.14306">
        <ele>294.4</ele>
        <time>2020-06-27T10:08:41Z</time>
      </trkpt>
      <trkpt lat="49.10632" lon="7.14313">
        <ele>294.6</ele>
        <time>2020-06-27T10:08:42Z</time>
      </trkpt>
      <trkpt lat="49.10632" lon="7.14319">
        <ele>294.8</ele>
        <time>2020-06-27T10:08:43Z</time>
      </trkpt>
      <trkpt lat="49.10633" lon="7.14326">
        <ele>294.9</ele>
        <time>2020-06-27T10:08:44Z</time>
      </trkpt>
      <trkpt lat="49.10632" lon="7.14333">
        <ele>295.1</ele>
        <time>2020-06-27T10:08:45Z</time>
      </trkpt>
      <trkpt lat="49.10632" lon="7.1434">
        <ele>295.2</ele>
        <time>2020-06-27T10:08:46Z</time>
      </trkpt>
      <trkpt lat="49.10633" lon="7.14347">
        <ele>295.4</ele>
        <time>2020-06-27T10:08:47Z</time>
      </trkpt>
      <trkpt lat="49.10633" lon="7.14354">
        <ele>295.6</ele>
        <time>2020-06-27T10:08:48Z</time>
      </trkpt>
      <trkpt lat="49.10634" lon="7.14361">
        <ele>295.7</ele>
        <time>2020-06-27T10:08:49Z</time>
      </trkpt>
      <trkpt lat="49.10634" lon="7.14368">
        <ele>295.9</ele>
        <time>2020-06-27T10:08:50Z</time>
      </trkpt>
      <trkpt lat="49.10633" lon="7.14376">
        <ele>296.1</ele>
        <time>2020-06-27T10:08:51Z</time>
      </trkpt>
      <trkpt lat="49.10634" lon="7.14383">
        <ele>296.2</ele>
        <time>2020-06-27T10:08:52Z</time>
      </trkpt>
      <trkpt lat="49.10633" lon="7.1439">
        <ele>296.4</ele>
        <time>2020-06-27T10:08:53Z</time>
      </trkpt>
      <trkpt lat="49.10634" lon="7.14396">
        <ele>296.5</ele>
        <time>2020-06-27T10:08:54Z</time>
      </trkpt>
      <trkpt lat="49.10634" lon="7.14403">
        <ele>296.7</ele>
        <time>2020-06-27T10:08:55Z</time>
      </trkpt>
      <trkpt lat="49.10633" lon="7.1441">
        <ele>296.9</ele>
        <time>2020-06-27T10:08:56Z</time>
      </trkpt>
      <trkpt lat="49.10633" lon="7.14417">
        <ele>297</ele>
        <time>2020-06-27T10:08:57Z</time>
      </trkpt>
      <trkpt lat="49.10632" lon="7.14423">
        <ele>297.1</ele>
        <time>2020-06-27T10:08:58Z</time>
      </trkpt>
      <trkpt lat="49.10632" lon="7.1443">
        <ele>297.3</ele>
        <time>2020-06-27T10:08:59Z</time>
      </trkpt>
      <trkpt lat="49.10631" lon="7.14436">
        <ele>297.4</ele>
        <time>2020-06-27T10:09:00Z</time>
      </trkpt>
      <trkpt lat="49.1063" lon="7.14442">
        <ele>297.5</ele>
        <time>2020-06-27T10:09:01Z</time>
      </trkpt>
      <trkpt lat="49.10629" lon="7.1445">
        <ele>297.6</ele>
        <time>2020-06-27T10:09:02Z</time>
      </trkpt>
      <trkpt lat="49.10627" lon="7.14456">
        <ele>297.7</ele>
        <time>2020-06-27T10:09:03Z</time>
      </trkpt>
      <trkpt lat="49.10626" lon="7.14463">
        <ele>297.7</ele>
        <time>2020-06-27T10:09:04Z</time>
      </trkpt>
      <trkpt lat="49.10625" lon="7.14471">
        <ele>297.8</ele>
        <time>2020-06-27T10:09:05Z</time>
      </trkpt>
      <trkpt lat="49.10624" lon="7.14479">
        <ele>297.9</ele>
        <time>2020-06-27T10:09:06Z</time>
      </trkpt>
      <trkpt lat="49.10623" lon="7.14486">
        <ele>298</ele>
        <time>2020-06-27T10:09:07Z</time>
      </trkpt>
      <trkpt lat="49.10622" lon="7.14494">
        <ele>298.1</ele>
        <time>2020-06-27T10:09:08Z</time>
      </trkpt>
      <trkpt lat="49.1062" lon="7.145">
        <ele>298.2</ele>
        <time>2020-06-27T10:09:09Z</time>
      </trkpt>
      <trkpt lat="49.10619" lon="7.14506">
        <ele>298.3</ele>
        <time>2020-06-27T10:09:10Z</time>
      </trkpt>
      <trkpt lat="49.10618" lon="7.14513">
        <ele>298.4</ele>
        <time>2020-06-27T10:09:11Z</time>
      </trkpt>
      <trkpt lat="49.10616" lon="7.14519">
        <ele>298.6</ele>
        <time>2020-06-27T10:09:12Z</time>
      </trkpt>
      <trkpt lat="49.10614" lon="7.14526">
        <ele>298.7</ele>
        <time>2020-06-27T10:09:13Z</time>
      </trkpt>
      <trkpt lat="49.10613" lon="7.14532">
        <ele>298.9</ele>
        <time>2020-06-27T10:09:14Z</time>
      </trkpt>
      <trkpt lat="49.10612" lon="7.14538">
        <ele>299</ele>
        <time>2020-06-27T10:09:15Z</time>
      </trkpt>
      <trkpt lat="49.1061" lon="7.14543">
        <ele>299.2</ele>
        <time>2020-06-27T10:09:16Z</time>
      </trkpt>
      <trkpt lat="49.10608" lon="7.1455">
        <ele>299.3</ele>
        <time>2020-06-27T10:09:17Z</time>
      </trkpt>
      <trkpt lat="49.10606" lon="7.14557">
        <ele>299.5</ele>
        <time>2020-06-27T10:09:18Z</time>
      </trkpt>
      <trkpt lat="49.10604" lon="7.14564">
        <ele>299.6</ele>
        <time>2020-06-27T10:09:19Z</time>
      </trkpt>
      <trkpt lat="49.10602" lon="7.14571">
        <ele>299.7</ele>
        <time>2020-06-27T10:09:20Z</time>
      </trkpt>
      <trkpt lat="49.106" lon="7.14578">
        <ele>299.9</ele>
        <time>2020-06-27T10:09:21Z</time>
      </trkpt>
      <trkpt lat="49.10598" lon="7.14584">
        <ele>300</ele>
        <time>2020-06-27T10:09:22Z</time>
      </trkpt>
      <trkpt lat="49.10597" lon="7.1459">
        <ele>300.2</ele>
        <time>2020-06-27T10:09:23Z</time>
      </trkpt>
      <trkpt lat="49.10595" lon="7.14596">
        <ele>300.3</ele>
        <time>2020-06-27T10:09:24Z</time>
      </trkpt>
      <trkpt lat="49.10593" lon="7.14602">
        <ele>300.4</ele>
        <time>2020-06-27T10:09:25Z</time>
      </trkpt>
      <trkpt lat="49.10591" lon="7.14608">
        <ele>300.6</ele>
        <time>2020-06-27T10:09:26Z</time>
      </trkpt>
      <trkpt lat="49.10589" lon="7.14614">
        <ele>300.7</ele>
        <time>2020-06-27T10:09:27Z</time>
      </trkpt>
      <trkpt lat="49.10588" lon="7.14619">
        <ele>300.9</ele>
        <time>2020-06-27T10:09:28Z</time>
      </trkpt>
      <trkpt lat="49.10587" lon="7.14626">
        <ele>301</ele>
        <time>2020-06-27T10:09:29Z</time>
      </trkpt>
      <trkpt lat="49.10586" lon="7.14632">
        <ele>301.2</ele>
        <time>2020-06-27T10:09:30Z</time>
      </trkpt>
      <trkpt lat="49.10585" lon="7.14638">
        <ele>301.3</ele>
        <time>2020-06-27T10:09:31Z</time>
      </trkpt>
      <trkpt lat="49.10585" lon="7.14644">
        <ele>301.5</ele>
        <time>2020-06-27T10:09:32Z</time>
      </trkpt>
      <trkpt lat="49.10584" lon="7.14651">
        <ele>301.6</ele>
        <time>2020-06-27T10:09:33Z</time>
      </trkpt>
      <trkpt lat="49.10584" lon="7.14658">
        <ele>301.8</ele>
        <time>2020-06-27T10:09:34Z</time>
      </trkpt>
      <trkpt lat="49.10582" lon="7.14664">
        <ele>302</ele>
        <time>2020-06-27T10:09:35Z</time>
      </trkpt>
      <trkpt lat="49.10581" lon="7.1467">
        <ele>302.1</ele>
        <time>2020-06-27T10:09:36Z</time>
      </trkpt>
      <trkpt lat="49.1058" lon="7.14677">
        <ele>302.3</ele>
        <time>2020-06-27T10:09:37Z</time>
      </trkpt>
      <trkpt lat="49.10579" lon="7.14683">
        <ele>302.5</ele>
        <time>2020-06-27T10:09:38Z</time>
      </trkpt>
      <trkpt lat="49.10579" lon="7.1469">
        <ele>302.7</ele>
        <time>2020-06-27T10:09:39Z</time>
      </trkpt>
      <trkpt lat="49.10578" lon="7.14696">
        <ele>302.9</ele>
        <time>2020-06-27T10:09:40Z</time>
      </trkpt>
      <trkpt lat="49.10578" lon="7.14703">
        <ele>303.1</ele>
        <time>2020-06-27T10:09:41Z</time>
      </trkpt>
      <trkpt lat="49.10578" lon="7.14709">
        <ele>303.3</ele>
        <time>2020-06-27T10:09:42Z</time>
      </trkpt>
      <trkpt lat="49.10578" lon="7.14715">
        <ele>303.4</ele>
        <time>2020-06-27T10:09:43Z</time>
      </trkpt>
      <trkpt lat="49.10578" lon="7.14722">
        <ele>303.5</ele>
        <time>2020-06-27T10:09:44Z</time>
      </trkpt>
      <trkpt lat="49.10578" lon="7.14729">
        <ele>303.7</ele>
        <time>2020-06-27T10:09:45Z</time>
      </trkpt>
      <trkpt lat="49.10577" lon="7.14734">
        <ele>303.8</ele>
        <time>2020-06-27T10:09:46Z</time>
      </trkpt>
      <trkpt lat="49.10578" lon="7.14741">
        <ele>303.9</ele>
        <time>2020-06-27T10:09:47Z</time>
      </trkpt>
      <trkpt lat="49.10578" lon="7.14748">
        <ele>304</ele>
        <time>2020-06-27T10:09:48Z</time>
      </trkpt>
      <trkpt lat="49.10578" lon="7.14753">
        <ele>304.1</ele>
        <time>2020-06-27T10:09:49Z</time>
      </trkpt>
      <trkpt lat="49.10578" lon="7.14759">
        <ele>304.2</ele>
        <time>2020-06-27T10:09:50Z</time>
      </trkpt>
      <trkpt lat="49.10579" lon="7.14765">
        <ele>304.4</ele>
        <time>2020-06-27T10:09:51Z</time>
      </trkpt>
      <trkpt lat="49.10579" lon="7.14772">
        <ele>304.5</ele>
        <time>2020-06-27T10:09:52Z</time>
      </trkpt>
      <trkpt lat="49.1058" lon="7.14778">
        <ele>304.7</ele>
        <time>2020-06-27T10:09:53Z</time>
      </trkpt>
      <trkpt lat="49.10581" lon="7.14785">
        <ele>304.8</ele>
        <time>2020-06-27T10:09:54Z</time>
      </trkpt>
      <trkpt lat="49.10581" lon="7.14792">
        <ele>305</ele>
        <time>2020-06-27T10:09:55Z</time>
      </trkpt>
      <trkpt lat="49.10582" lon="7.148">
        <ele>305.1</ele>
        <time>2020-06-27T10:09:56Z</time>
      </trkpt>
      <trkpt lat="49.10583" lon="7.14807">
        <ele>305.2</ele>
        <time>2020-06-27T10:09:57Z</time>
      </trkpt>
      <trkpt lat="49.10584" lon="7.14814">
        <ele>305.4</ele>
        <time>2020-06-27T10:09:58Z</time>
      </trkpt>
      <trkpt lat="49.10584" lon="7.1482">
        <ele>305.6</ele>
        <time>2020-06-27T10:09:59Z</time>
      </trkpt>
      <trkpt lat="49.10585" lon="7.14826">
        <ele>305.7</ele>
        <time>2020-06-27T10:10:00Z</time>
      </trkpt>
      <trkpt lat="49.10586" lon="7.14832">
        <ele>305.9</ele>
        <time>2020-06-27T10:10:01Z</time>
      </trkpt>
      <trkpt lat="49.10588" lon="7.14838">
        <ele>306</ele>
        <time>2020-06-27T10:10:02Z</time>
      </trkpt>
      <trkpt lat="49.10588" lon="7.14844">
        <ele>306.1</ele>
        <time>2020-06-27T10:10:03Z</time>
      </trkpt>
      <trkpt lat="49.10589" lon="7.14851">
        <ele>306.3</ele>
        <time>2020-06-27T10:10:04Z</time>
      </trkpt>
      <trkpt lat="49.1059" lon="7.14858">
        <ele>306.4</ele>
        <time>2020-06-27T10:10:05Z</time>
      </trkpt>
      <trkpt lat="49.10592" lon="7.14865">
        <ele>306.6</ele>
        <time>2020-06-27T10:10:06Z</time>
      </trkpt>
      <trkpt lat="49.10593" lon="7.14871">
        <ele>306.8</ele>
        <time>2020-06-27T10:10:07Z</time>
      </trkpt>
      <trkpt lat="49.10595" lon="7.14877">
        <ele>307</ele>
        <time>2020-06-27T10:10:08Z</time>
      </trkpt>
      <trkpt lat="49.10597" lon="7.14883">
        <ele>307.1</ele>
        <time>2020-06-27T10:10:09Z</time>
      </trkpt>
      <trkpt lat="49.10599" lon="7.14887">
        <ele>307.3</ele>
        <time>2020-06-27T10:10:10Z</time>
      </trkpt>
      <trkpt lat="49.10601" lon="7.14894">
        <ele>307.4</ele>
        <time>2020-06-27T10:10:11Z</time>
      </trkpt>
      <trkpt lat="49.10603" lon="7.14899">
        <ele>307.6</ele>
        <time>2020-06-27T10:10:12Z</time>
      </trkpt>
      <trkpt lat="49.10606" lon="7.14905">
        <ele>307.7</ele>
        <time>2020-06-27T10:10:13Z</time>
      </trkpt>
      <trkpt lat="49.10608" lon="7.14912">
        <ele>307.9</ele>
        <time>2020-06-27T10:10:14Z</time>
      </trkpt>
      <trkpt lat="49.1061" lon="7.14919">
        <ele>308</ele>
        <time>2020-06-27T10:10:15Z</time>
      </trkpt>
      <trkpt lat="49.10613" lon="7.14925">
        <ele>308.1</ele>
        <time>2020-06-27T10:10:16Z</time>
      </trkpt>
      <trkpt lat="49.10615" lon="7.14931">
        <ele>308.3</ele>
        <time>2020-06-27T10:10:17Z</time>
      </trkpt>
      <trkpt lat="49.10616" lon="7.14937">
        <ele>308.5</ele>
        <time>2020-06-27T10:10:18Z</time>
      </trkpt>
      <trkpt lat="49.10618" lon="7.14943">
        <ele>308.6</ele>
        <time>2020-06-27T10:10:19Z</time>
      </trkpt>
      <trkpt lat="49.1062" lon="7.14948">
        <ele>308.8</ele>
        <time>2020-06-27T10:10:20Z</time>
      </trkpt>
      <trkpt lat="49.10623" lon="7.14954">
        <ele>309.1</ele>
        <time>2020-06-27T10:10:21Z</time>
      </trkpt>
      <trkpt lat="49.10625" lon="7.14961">
        <ele>309.4</ele>
        <time>2020-06-27T10:10:22Z</time>
      </trkpt>
      <trkpt lat="49.10626" lon="7.14967">
        <ele>309.6</ele>
        <time>2020-06-27T10:10:23Z</time>
      </trkpt>
      <trkpt lat="49.10628" lon="7.14973">
        <ele>309.8</ele>
        <time>2020-06-27T10:10:24Z</time>
      </trkpt>
      <trkpt lat="49.1063" lon="7.14977">
        <ele>310</ele>
        <time>2020-06-27T10:10:25Z</time>
      </trkpt>
      <trkpt lat="49.10632" lon="7.14982">
        <ele>310.1</ele>
        <time>2020-06-27T10:10:26Z</time>
      </trkpt>
      <trkpt lat="49.10635" lon="7.14987">
        <ele>310.1</ele>
        <time>2020-06-27T10:10:27Z</time>
      </trkpt>
      <trkpt lat="49.10637" lon="7.14992">
        <ele>310.1</ele>
        <time>2020-06-27T10:10:28Z</time>
      </trkpt>
      <trkpt lat="49.10639" lon="7.14998">
        <ele>310.2</ele>
        <time>2020-06-27T10:10:29Z</time>
      </trkpt>
      <trkpt lat="49.1064" lon="7.15004">
        <ele>310.2</ele>
        <time>2020-06-27T10:10:30Z</time>
      </trkpt>
      <trkpt lat="49.10643" lon="7.15011">
        <ele>310.3</ele>
        <time>2020-06-27T10:10:31Z</time>
      </trkpt>
      <trkpt lat="49.10646" lon="7.15018">
        <ele>310.4</ele>
        <time>2020-06-27T10:10:32Z</time>
      </trkpt>
      <trkpt lat="49.10647" lon="7.15025">
        <ele>310.6</ele>
        <time>2020-06-27T10:10:33Z</time>
      </trkpt>
      <trkpt lat="49.1065" lon="7.15032">
        <ele>310.8</ele>
        <time>2020-06-27T10:10:34Z</time>
      </trkpt>
      <trkpt lat="49.10652" lon="7.15039">
        <ele>311</ele>
        <time>2020-06-27T10:10:35Z</time>
      </trkpt>
      <trkpt lat="49.10653" lon="7.15046">
        <ele>311.2</ele>
        <time>2020-06-27T10:10:36Z</time>
      </trkpt>
      <trkpt lat="49.10654" lon="7.15051">
        <ele>311.4</ele>
        <time>2020-06-27T10:10:37Z</time>
      </trkpt>
      <trkpt lat="49.10655" lon="7.15057">
        <ele>311.6</ele>
        <time>2020-06-27T10:10:38Z</time>
      </trkpt>
      <trkpt lat="49.10656" lon="7.15064">
        <ele>311.8</ele>
        <time>2020-06-27T10:10:39Z</time>
      </trkpt>
      <trkpt lat="49.10657" lon="7.15071">
        <ele>312.2</ele>
        <time>2020-06-27T10:10:40Z</time>
      </trkpt>
      <trkpt lat="49.10658" lon="7.15078">
        <ele>312.6</ele>
        <time>2020-06-27T10:10:41Z</time>
      </trkpt>
      <trkpt lat="49.10659" lon="7.15085">
        <ele>312.9</ele>
        <time>2020-06-27T10:10:42Z</time>
      </trkpt>
      <trkpt lat="49.10661" lon="7.15092">
        <ele>313.1</ele>
        <time>2020-06-27T10:10:43Z</time>
      </trkpt>
      <trkpt lat="49.10661" lon="7.15099">
        <ele>313.4</ele>
        <time>2020-06-27T10:10:44Z</time>
      </trkpt>
      <trkpt lat="49.10662" lon="7.15107">
        <ele>313.6</ele>
        <time>2020-06-27T10:10:45Z</time>
      </trkpt>
      <trkpt lat="49.10663" lon="7.15114">
        <ele>313.8</ele>
        <time>2020-06-27T10:10:46Z</time>
      </trkpt>
      <trkpt lat="49.10664" lon="7.1512">
        <ele>314</ele>
        <time>2020-06-27T10:10:47Z</time>
      </trkpt>
      <trkpt lat="49.10665" lon="7.15125">
        <ele>314.1</ele>
        <time>2020-06-27T10:10:48Z</time>
      </trkpt>
      <trkpt lat="49.10665" lon="7.15133">
        <ele>314.3</ele>
        <time>2020-06-27T10:10:49Z</time>
      </trkpt>
      <trkpt lat="49.10665" lon="7.15139">
        <ele>314.4</ele>
        <time>2020-06-27T10:10:50Z</time>
      </trkpt>
      <trkpt lat="49.10665" lon="7.15144">
        <ele>314.6</ele>
        <time>2020-06-27T10:10:51Z</time>
      </trkpt>
      <trkpt lat="49.10665" lon="7.15151">
        <ele>314.7</ele>
        <time>2020-06-27T10:10:52Z</time>
      </trkpt>
      <trkpt lat="49.10665" lon="7.15157">
        <ele>314.9</ele>
        <time>2020-06-27T10:10:53Z</time>
      </trkpt>
      <trkpt lat="49.10665" lon="7.15164">
        <ele>315.1</ele>
        <time>2020-06-27T10:10:54Z</time>
      </trkpt>
      <trkpt lat="49.10664" lon="7.15172">
        <ele>315.3</ele>
        <time>2020-06-27T10:10:55Z</time>
      </trkpt>
      <trkpt lat="49.10664" lon="7.15179">
        <ele>315.5</ele>
        <time>2020-06-27T10:10:56Z</time>
      </trkpt>
      <trkpt lat="49.10663" lon="7.15184">
        <ele>315.6</ele>
        <time>2020-06-27T10:10:57Z</time>
      </trkpt>
      <trkpt lat="49.10663" lon="7.15191">
        <ele>315.8</ele>
        <time>2020-06-27T10:10:58Z</time>
      </trkpt>
      <trkpt lat="49.10663" lon="7.15198">
        <ele>316</ele>
        <time>2020-06-27T10:10:59Z</time>
      </trkpt>
      <trkpt lat="49.10662" lon="7.15205">
        <ele>316.2</ele>
        <time>2020-06-27T10:11:00Z</time>
      </trkpt>
      <trkpt lat="49.10662" lon="7.15211">
        <ele>316.3</ele>
        <time>2020-06-27T10:11:01Z</time>
      </trkpt>
      <trkpt lat="49.10661" lon="7.15218">
        <ele>316.5</ele>
        <time>2020-06-27T10:11:02Z</time>
      </trkpt>
      <trkpt lat="49.1066" lon="7.15225">
        <ele>316.7</ele>
        <time>2020-06-27T10:11:03Z</time>
      </trkpt>
      <trkpt lat="49.10659" lon="7.15231">
        <ele>316.9</ele>
        <time>2020-06-27T10:11:04Z</time>
      </trkpt>
      <trkpt lat="49.10658" lon="7.15239">
        <ele>317.1</ele>
        <time>2020-06-27T10:11:05Z</time>
      </trkpt>
      <trkpt lat="49.10658" lon="7.15246">
        <ele>317.2</ele>
        <time>2020-06-27T10:11:06Z</time>
      </trkpt>
      <trkpt lat="49.10657" lon="7.15253">
        <ele>317.4</ele>
        <time>2020-06-27T10:11:07Z</time>
      </trkpt>
      <trkpt lat="49.10656" lon="7.15259">
        <ele>317.5</ele>
        <time>2020-06-27T10:11:08Z</time>
      </trkpt>
      <trkpt lat="49.10654" lon="7.15267">
        <ele>317.6</ele>
        <time>2020-06-27T10:11:09Z</time>
      </trkpt>
      <trkpt lat="49.10653" lon="7.15275">
        <ele>317.7</ele>
        <time>2020-06-27T10:11:10Z</time>
      </trkpt>
      <trkpt lat="49.1065" lon="7.15281">
        <ele>317.8</ele>
        <time>2020-06-27T10:11:11Z</time>
      </trkpt>
      <trkpt lat="49.10647" lon="7.15287">
        <ele>317.9</ele>
        <time>2020-06-27T10:11:12Z</time>
      </trkpt>
      <trkpt lat="49.10645" lon="7.15294">
        <ele>318</ele>
        <time>2020-06-27T10:11:13Z</time>
      </trkpt>
      <trkpt lat="49.10643" lon="7.15302">
        <ele>318.1</ele>
        <time>2020-06-27T10:11:14Z</time>
      </trkpt>
      <trkpt lat="49.10642" lon="7.15309">
        <ele>318.2</ele>
        <time>2020-06-27T10:11:15Z</time>
      </trkpt>
      <trkpt lat="49.1064" lon="7.15314">
        <ele>318.3</ele>
        <time>2020-06-27T10:11:16Z</time>
      </trkpt>
      <trkpt lat="49.10638" lon="7.1532">
        <ele>318.4</ele>
        <time>2020-06-27T10:11:17Z</time>
      </trkpt>
      <trkpt lat="49.10636" lon="7.15325">
        <ele>318.5</ele>
        <time>2020-06-27T10:11:18Z</time>
      </trkpt>
      <trkpt lat="49.10635" lon="7.15331">
        <ele>318.6</ele>
        <time>2020-06-27T10:11:19Z</time>
      </trkpt>
      <trkpt lat="49.10633" lon="7.15336">
        <ele>318.8</ele>
        <time>2020-06-27T10:11:20Z</time>
      </trkpt>
      <trkpt lat="49.10632" lon="7.15343">
        <ele>318.9</ele>
        <time>2020-06-27T10:11:21Z</time>
      </trkpt>
      <trkpt lat="49.1063" lon="7.1535">
        <ele>319</ele>
        <time>2020-06-27T10:11:22Z</time>
      </trkpt>
      <trkpt lat="49.10628" lon="7.15357">
        <ele>319.1</ele>
        <time>2020-06-27T10:11:23Z</time>
      </trkpt>
      <trkpt lat="49.10626" lon="7.15362">
        <ele>319.2</ele>
        <time>2020-06-27T10:11:24Z</time>
      </trkpt>
      <trkpt lat="49.10624" lon="7.15368">
        <ele>319.3</ele>
        <time>2020-06-27T10:11:25Z</time>
      </trkpt>
      <trkpt lat="49.10622" lon="7.15374">
        <ele>319.3</ele>
        <time>2020-06-27T10:11:26Z</time>
      </trkpt>
      <trkpt lat="49.1062" lon="7.1538">
        <ele>319.4</ele>
        <time>2020-06-27T10:11:27Z</time>
      </trkpt>
      <trkpt lat="49.10618" lon="7.15386">
        <ele>319.5</ele>
        <time>2020-06-27T10:11:28Z</time>
      </trkpt>
      <trkpt lat="49.10617" lon="7.15393">
        <ele>319.6</ele>
        <time>2020-06-27T10:11:29Z</time>
      </trkpt>
      <trkpt lat="49.10615" lon="7.154">
        <ele>319.6</ele>
        <time>2020-06-27T10:11:30Z</time>
      </trkpt>
      <trkpt lat="49.10613" lon="7.15407">
        <ele>319.7</ele>
        <time>2020-06-27T10:11:31Z</time>
      </trkpt>
      <trkpt lat="49.10612" lon="7.15413">
        <ele>319.8</ele>
        <time>2020-06-27T10:11:32Z</time>
      </trkpt>
      <trkpt lat="49.1061" lon="7.1542">
        <ele>320</ele>
        <time>2020-06-27T10:11:33Z</time>
      </trkpt>
      <trkpt lat="49.10609" lon="7.15427">
        <ele>320.1</ele>
        <time>2020-06-27T10:11:34Z</time>
      </trkpt>
      <trkpt lat="49.10608" lon="7.15434">
        <ele>320.2</ele>
        <time>2020-06-27T10:11:35Z</time>
      </trkpt>
      <trkpt lat="49.10607" lon="7.15441">
        <ele>320.3</ele>
        <time>2020-06-27T10:11:36Z</time>
      </trkpt>
      <trkpt lat="49.10606" lon="7.15449">
        <ele>320.4</ele>
        <time>2020-06-27T10:11:37Z</time>
      </trkpt>
      <trkpt lat="49.10605" lon="7.15457">
        <ele>320.5</ele>
        <time>2020-06-27T10:11:38Z</time>
      </trkpt>
      <trkpt lat="49.10604" lon="7.15464">
        <ele>320.7</ele>
        <time>2020-06-27T10:11:39Z</time>
      </trkpt>
      <trkpt lat="49.10602" lon="7.15473">
        <ele>320.9</ele>
        <time>2020-06-27T10:11:40Z</time>
      </trkpt>
      <trkpt lat="49.10601" lon="7.1548">
        <ele>321</ele>
        <time>2020-06-27T10:11:41Z</time>
      </trkpt>
      <trkpt lat="49.106" lon="7.15488">
        <ele>321.2</ele>
        <time>2020-06-27T10:11:42Z</time>
      </trkpt>
      <trkpt lat="49.10599" lon="7.15495">
        <ele>321.3</ele>
        <time>2020-06-27T10:11:43Z</time>
      </trkpt>
      <trkpt lat="49.10598" lon="7.15502">
        <ele>321.5</ele>
        <time>2020-06-27T10:11:44Z</time>
      </trkpt>
      <trkpt lat="49.10596" lon="7.15509">
        <ele>321.7</ele>
        <time>2020-06-27T10:11:45Z</time>
      </trkpt>
      <trkpt lat="49.10596" lon="7.15515">
        <ele>321.8</ele>
        <time>2020-06-27T10:11:46Z</time>
      </trkpt>
      <trkpt lat="49.10596" lon="7.15522">
        <ele>322</ele>
        <time>2020-06-27T10:11:47Z</time>
      </trkpt>
      <trkpt lat="49.10596" lon="7.15529">
        <ele>322.3</ele>
        <time>2020-06-27T10:11:48Z</time>
      </trkpt>
      <trkpt lat="49.10596" lon="7.15536">
        <ele>322.5</ele>
        <time>2020-06-27T10:11:49Z</time>
      </trkpt>
      <trkpt lat="49.10596" lon="7.15542">
        <ele>322.8</ele>
        <time>2020-06-27T10:11:50Z</time>
      </trkpt>
      <trkpt lat="49.10596" lon="7.15548">
        <ele>323</ele>
        <time>2020-06-27T10:11:51Z</time>
      </trkpt>
      <trkpt lat="49.10596" lon="7.15554">
        <ele>323.2</ele>
        <time>2020-06-27T10:11:52Z</time>
      </trkpt>
      <trkpt lat="49.10597" lon="7.15559">
        <ele>323.4</ele>
        <time>2020-06-27T10:11:53Z</time>
      </trkpt>
      <trkpt lat="49.10597" lon="7.15565">
        <ele>323.6</ele>
        <time>2020-06-27T10:11:54Z</time>
      </trkpt>
      <trkpt lat="49.10598" lon="7.15571">
        <ele>323.8</ele>
        <time>2020-06-27T10:11:55Z</time>
      </trkpt>
      <trkpt lat="49.10598" lon="7.15576">
        <ele>323.9</ele>
        <time>2020-06-27T10:11:56Z</time>
      </trkpt>
      <trkpt lat="49.10598" lon="7.15582">
        <ele>324.1</ele>
        <time>2020-06-27T10:11:57Z</time>
      </trkpt>
      <trkpt lat="49.10599" lon="7.15587">
        <ele>324.2</ele>
        <time>2020-06-27T10:11:58Z</time>
      </trkpt>
      <trkpt lat="49.10599" lon="7.15594">
        <ele>324.3</ele>
        <time>2020-06-27T10:11:59Z</time>
      </trkpt>
      <trkpt lat="49.106" lon="7.156">
        <ele>324.5</ele>
        <time>2020-06-27T10:12:00Z</time>
      </trkpt>
      <trkpt lat="49.106" lon="7.15607">
        <ele>324.6</ele>
        <time>2020-06-27T10:12:01Z</time>
      </trkpt>
      <trkpt lat="49.10601" lon="7.15613">
        <ele>324.7</ele>
        <time>2020-06-27T10:12:02Z</time>
      </trkpt>
      <trkpt lat="49.10601" lon="7.1562">
        <ele>324.9</ele>
        <time>2020-06-27T10:12:03Z</time>
      </trkpt>
      <trkpt lat="49.10601" lon="7.15627">
        <ele>325</ele>
        <time>2020-06-27T10:12:04Z</time>
      </trkpt>
      <trkpt lat="49.10602" lon="7.15634">
        <ele>325.2</ele>
        <time>2020-06-27T10:12:05Z</time>
      </trkpt>
      <trkpt lat="49.10602" lon="7.15641">
        <ele>325.3</ele>
        <time>2020-06-27T10:12:06Z</time>
      </trkpt>
      <trkpt lat="49.10602" lon="7.15648">
        <ele>325.4</ele>
        <time>2020-06-27T10:12:07Z</time>
      </trkpt>
      <trkpt lat="49.10602" lon="7.15655">
        <ele>325.6</ele>
        <time>2020-06-27T10:12:08Z</time>
      </trkpt>
      <trkpt lat="49.10602" lon="7.15662">
        <ele>325.7</ele>
        <time>2020-06-27T10:12:09Z</time>
      </trkpt>
      <trkpt lat="49.10602" lon="7.15669">
        <ele>325.8</ele>
        <time>2020-06-27T10:12:10Z</time>
      </trkpt>
      <trkpt lat="49.10602" lon="7.15676">
        <ele>326</ele>
        <time>2020-06-27T10:12:11Z</time>
      </trkpt>
      <trkpt lat="49.10601" lon="7.15683">
        <ele>326.1</ele>
        <time>2020-06-27T10:12:12Z</time>
      </trkpt>
      <trkpt lat="49.10601" lon="7.1569">
        <ele>326.2</ele>
        <time>2020-06-27T10:12:13Z</time>
      </trkpt>
      <trkpt lat="49.106" lon="7.15698">
        <ele>326.2</ele>
        <time>2020-06-27T10:12:14Z</time>
      </trkpt>
      <trkpt lat="49.106" lon="7.15705">
        <ele>326.3</ele>
        <time>2020-06-27T10:12:15Z</time>
      </trkpt>
      <trkpt lat="49.106" lon="7.15713">
        <ele>326.4</ele>
        <time>2020-06-27T10:12:16Z</time>
      </trkpt>
      <trkpt lat="49.10599" lon="7.15721">
        <ele>326.5</ele>
        <time>2020-06-27T10:12:17Z</time>
      </trkpt>
      <trkpt lat="49.10598" lon="7.15729">
        <ele>326.6</ele>
        <time>2020-06-27T10:12:18Z</time>
      </trkpt>
      <trkpt lat="49.10597" lon="7.15735">
        <ele>326.7</ele>
        <time>2020-06-27T10:12:19Z</time>
      </trkpt>
      <trkpt lat="49.10596" lon="7.15743">
        <ele>326.8</ele>
        <time>2020-06-27T10:12:20Z</time>
      </trkpt>
      <trkpt lat="49.10595" lon="7.15751">
        <ele>326.9</ele>
        <time>2020-06-27T10:12:21Z</time>
      </trkpt>
      <trkpt lat="49.10595" lon="7.15759">
        <ele>327</ele>
        <time>2020-06-27T10:12:22Z</time>
      </trkpt>
      <trkpt lat="49.10593" lon="7.15767">
        <ele>327.1</ele>
        <time>2020-06-27T10:12:23Z</time>
      </trkpt>
      <trkpt lat="49.10592" lon="7.15774">
        <ele>327.2</ele>
        <time>2020-06-27T10:12:24Z</time>
      </trkpt>
      <trkpt lat="49.1059" lon="7.15781">
        <ele>327.4</ele>
        <time>2020-06-27T10:12:25Z</time>
      </trkpt>
      <trkpt lat="49.10588" lon="7.15789">
        <ele>327.2</ele>
        <time>2020-06-27T10:12:26Z</time>
      </trkpt>
      <trkpt lat="49.10587" lon="7.15798">
        <ele>327.1</ele>
        <time>2020-06-27T10:12:27Z</time>
      </trkpt>
      <trkpt lat="49.10585" lon="7.15806">
        <ele>327</ele>
        <time>2020-06-27T10:12:28Z</time>
      </trkpt>
      <trkpt lat="49.10584" lon="7.15813">
        <ele>326.9</ele>
        <time>2020-06-27T10:12:29Z</time>
      </trkpt>
      <trkpt lat="49.10582" lon="7.15822">
        <ele>326.9</ele>
        <time>2020-06-27T10:12:30Z</time>
      </trkpt>
      <trkpt lat="49.1058" lon="7.15829">
        <ele>326.8</ele>
        <time>2020-06-27T10:12:31Z</time>
      </trkpt>
      <trkpt lat="49.10579" lon="7.15836">
        <ele>326.8</ele>
        <time>2020-06-27T10:12:32Z</time>
      </trkpt>
      <trkpt lat="49.10577" lon="7.15843">
        <ele>326.7</ele>
        <time>2020-06-27T10:12:33Z</time>
      </trkpt>
      <trkpt lat="49.10574" lon="7.15849">
        <ele>326.7</ele>
        <time>2020-06-27T10:12:34Z</time>
      </trkpt>
      <trkpt lat="49.10572" lon="7.15857">
        <ele>326.6</ele>
        <time>2020-06-27T10:12:35Z</time>
      </trkpt>
      <trkpt lat="49.10569" lon="7.15866">
        <ele>326.5</ele>
        <time>2020-06-27T10:12:36Z</time>
      </trkpt>
      <trkpt lat="49.10567" lon="7.15872">
        <ele>326.5</ele>
        <time>2020-06-27T10:12:37Z</time>
      </trkpt>
      <trkpt lat="49.10565" lon="7.1588">
        <ele>326.4</ele>
        <time>2020-06-27T10:12:38Z</time>
      </trkpt>
      <trkpt lat="49.10562" lon="7.15888">
        <ele>326.3</ele>
        <time>2020-06-27T10:12:39Z</time>
      </trkpt>
      <trkpt lat="49.10559" lon="7.15896">
        <ele>326.2</ele>
        <time>2020-06-27T10:12:40Z</time>
      </trkpt>
      <trkpt lat="49.10557" lon="7.15905">
        <ele>326.1</ele>
        <time>2020-06-27T10:12:41Z</time>
      </trkpt>
      <trkpt lat="49.10554" lon="7.15914">
        <ele>326</ele>
        <time>2020-06-27T10:12:42Z</time>
      </trkpt>
      <trkpt lat="49.10552" lon="7.15921">
        <ele>325.9</ele>
        <time>2020-06-27T10:12:43Z</time>
      </trkpt>
      <trkpt lat="49.10549" lon="7.15929">
        <ele>325.8</ele>
        <time>2020-06-27T10:12:44Z</time>
      </trkpt>
      <trkpt lat="49.10547" lon="7.15937">
        <ele>325.6</ele>
        <time>2020-06-27T10:12:45Z</time>
      </trkpt>
      <trkpt lat="49.10545" lon="7.15945">
        <ele>325.5</ele>
        <time>2020-06-27T10:12:46Z</time>
      </trkpt>
      <trkpt lat="49.10543" lon="7.15954">
        <ele>325.3</ele>
        <time>2020-06-27T10:12:47Z</time>
      </trkpt>
      <trkpt lat="49.1054" lon="7.15963">
        <ele>325.2</ele>
        <time>2020-06-27T10:12:48Z</time>
      </trkpt>
      <trkpt lat="49.10537" lon="7.15973">
        <ele>325.1</ele>
        <time>2020-06-27T10:12:49Z</time>
      </trkpt>
      <trkpt lat="49.10534" lon="7.15983">
        <ele>325.1</ele>
        <time>2020-06-27T10:12:50Z</time>
      </trkpt>
      <trkpt lat="49.1053" lon="7.15993">
        <ele>325.5</ele>
        <time>2020-06-27T10:12:51Z</time>
      </trkpt>
      <trkpt lat="49.10527" lon="7.16003">
        <ele>326</ele>
        <time>2020-06-27T10:12:52Z</time>
      </trkpt>
      <trkpt lat="49.10523" lon="7.16014">
        <ele>326.1</ele>
        <time>2020-06-27T10:12:53Z</time>
      </trkpt>
      <trkpt lat="49.10521" lon="7.16023">
        <ele>325.9</ele>
        <time>2020-06-27T10:12:54Z</time>
      </trkpt>
      <trkpt lat="49.10518" lon="7.16032">
        <ele>325.7</ele>
        <time>2020-06-27T10:12:55Z</time>
      </trkpt>
      <trkpt lat="49.10515" lon="7.16042">
        <ele>325.4</ele>
        <time>2020-06-27T10:12:56Z</time>
      </trkpt>
      <trkpt lat="49.10511" lon="7.16053">
        <ele>325.1</ele>
        <time>2020-06-27T10:12:57Z</time>
      </trkpt>
      <trkpt lat="49.10508" lon="7.16063">
        <ele>324.9</ele>
        <time>2020-06-27T10:12:58Z</time>
      </trkpt>
      <trkpt lat="49.10505" lon="7.16075">
        <ele>324.7</ele>
        <time>2020-06-27T10:12:59Z</time>
      </trkpt>
      <trkpt lat="49.10502" lon="7.16086">
        <ele>324.4</ele>
        <time>2020-06-27T10:13:00Z</time>
      </trkpt>
      <trkpt lat="49.10498" lon="7.16097">
        <ele>324.1</ele>
        <time>2020-06-27T10:13:01Z</time>
      </trkpt>
      <trkpt lat="49.10494" lon="7.16108">
        <ele>323.8</ele>
        <time>2020-06-27T10:13:02Z</time>
      </trkpt>
      <trkpt lat="49.1049" lon="7.16119">
        <ele>323.5</ele>
        <time>2020-06-27T10:13:03Z</time>
      </trkpt>
      <trkpt lat="49.10486" lon="7.1613">
        <ele>323.3</ele>
        <time>2020-06-27T10:13:04Z</time>
      </trkpt>
      <trkpt lat="49.10482" lon="7.16141">
        <ele>323</ele>
        <time>2020-06-27T10:13:05Z</time>
      </trkpt>
      <trkpt lat="49.10479" lon="7.16152">
        <ele>322.7</ele>
        <time>2020-06-27T10:13:06Z</time>
      </trkpt>
      <trkpt lat="49.10476" lon="7.16163">
        <ele>322.4</ele>
        <time>2020-06-27T10:13:07Z</time>
      </trkpt>
      <trkpt lat="49.10473" lon="7.16175">
        <ele>322.1</ele>
        <time>2020-06-27T10:13:08Z</time>
      </trkpt>
      <trkpt lat="49.10469" lon="7.16186">
        <ele>321.9</ele>
        <time>2020-06-27T10:13:09Z</time>
      </trkpt>
      <trkpt lat="49.10465" lon="7.16197">
        <ele>321.6</ele>
        <time>2020-06-27T10:13:10Z</time>
      </trkpt>
      <trkpt lat="49.10461" lon="7.16208">
        <ele>321.3</ele>
        <time>2020-06-27T10:13:11Z</time>
      </trkpt>
      <trkpt lat="49.10458" lon="7.16219">
        <ele>321</ele>
        <time>2020-06-27T10:13:12Z</time>
      </trkpt>
      <trkpt lat="49.10454" lon="7.16231">
        <ele>320.7</ele>
        <time>2020-06-27T10:13:13Z</time>
      </trkpt>
      <trkpt lat="49.1045" lon="7.16242">
        <ele>320.4</ele>
        <time>2020-06-27T10:13:14Z</time>
      </trkpt>
      <trkpt lat="49.10447" lon="7.16254">
        <ele>320.1</ele>
        <time>2020-06-27T10:13:15Z</time>
      </trkpt>
      <trkpt lat="49.10443" lon="7.16265">
        <ele>319.7</ele>
        <time>2020-06-27T10:13:16Z</time>
      </trkpt>
      <trkpt lat="49.10439" lon="7.16276">
        <ele>319.4</ele>
        <time>2020-06-27T10:13:17Z</time>
      </trkpt>
      <trkpt lat="49.10436" lon="7.16287">
        <ele>319.1</ele>
        <time>2020-06-27T10:13:18Z</time>
      </trkpt>
      <trkpt lat="49.10432" lon="7.16299">
        <ele>318.8</ele>
        <time>2020-06-27T10:13:19Z</time>
      </trkpt>
      <trkpt lat="49.10428" lon="7.16311">
        <ele>318.5</ele>
        <time>2020-06-27T10:13:20Z</time>
      </trkpt>
      <trkpt lat="49.10425" lon="7.16323">
        <ele>318.2</ele>
        <time>2020-06-27T10:13:21Z</time>
      </trkpt>
      <trkpt lat="49.10422" lon="7.16334">
        <ele>317.9</ele>
        <time>2020-06-27T10:13:22Z</time>
      </trkpt>
      <trkpt lat="49.10418" lon="7.16345">
        <ele>317.6</ele>
        <time>2020-06-27T10:13:23Z</time>
      </trkpt>
      <trkpt lat="49.10415" lon="7.16356">
        <ele>317.3</ele>
        <time>2020-06-27T10:13:24Z</time>
      </trkpt>
      <trkpt lat="49.10411" lon="7.16367">
        <ele>317.1</ele>
        <time>2020-06-27T10:13:25Z</time>
      </trkpt>
      <trkpt lat="49.10407" lon="7.16378">
        <ele>316.8</ele>
        <time>2020-06-27T10:13:26Z</time>
      </trkpt>
      <trkpt lat="49.10403" lon="7.16389">
        <ele>316.5</ele>
        <time>2020-06-27T10:13:27Z</time>
      </trkpt>
      <trkpt lat="49.104" lon="7.16401">
        <ele>316.3</ele>
        <time>2020-06-27T10:13:28Z</time>
      </trkpt>
      <trkpt lat="49.10396" lon="7.16412">
        <ele>316</ele>
        <time>2020-06-27T10:13:29Z</time>
      </trkpt>
      <trkpt lat="49.10392" lon="7.16424">
        <ele>315.9</ele>
        <time>2020-06-27T10:13:30Z</time>
      </trkpt>
      <trkpt lat="49.10388" lon="7.16435">
        <ele>315.8</ele>
        <time>2020-06-27T10:13:31Z</time>
      </trkpt>
      <trkpt lat="49.10385" lon="7.16447">
        <ele>315.7</ele>
        <time>2020-06-27T10:13:32Z</time>
      </trkpt>
      <trkpt lat="49.10381" lon="7.16458">
        <ele>315.6</ele>
        <time>2020-06-27T10:13:33Z</time>
      </trkpt>
      <trkpt lat="49.10376" lon="7.16468">
        <ele>315.6</ele>
        <time>2020-06-27T10:13:34Z</time>
      </trkpt>
      <trkpt lat="49.10372" lon="7.16479">
        <ele>315.5</ele>
        <time>2020-06-27T10:13:35Z</time>
      </trkpt>
      <trkpt lat="49.10367" lon="7.16488">
        <ele>315.5</ele>
        <time>2020-06-27T10:13:36Z</time>
      </trkpt>
      <trkpt lat="49.10364" lon="7.16497">
        <ele>315.6</ele>
        <time>2020-06-27T10:13:37Z</time>
      </trkpt>
      <trkpt lat="49.1036" lon="7.16505">
        <ele>315.8</ele>
        <time>2020-06-27T10:13:38Z</time>
      </trkpt>
      <trkpt lat="49.10355" lon="7.16513">
        <ele>315.9</ele>
        <time>2020-06-27T10:13:39Z</time>
      </trkpt>
      <trkpt lat="49.10351" lon="7.16521">
        <ele>316.1</ele>
        <time>2020-06-27T10:13:40Z</time>
      </trkpt>
      <trkpt lat="49.10347" lon="7.16529">
        <ele>316.4</ele>
        <time>2020-06-27T10:13:41Z</time>
      </trkpt>
      <trkpt lat="49.10343" lon="7.16537">
        <ele>316.6</ele>
        <time>2020-06-27T10:13:42Z</time>
      </trkpt>
      <trkpt lat="49.10339" lon="7.16545">
        <ele>316.8</ele>
        <time>2020-06-27T10:13:43Z</time>
      </trkpt>
      <trkpt lat="49.10335" lon="7.16552">
        <ele>317</ele>
        <time>2020-06-27T10:13:44Z</time>
      </trkpt>
      <trkpt lat="49.10331" lon="7.16558">
        <ele>317.2</ele>
        <time>2020-06-27T10:13:45Z</time>
      </trkpt>
      <trkpt lat="49.10327" lon="7.16565">
        <ele>317.4</ele>
        <time>2020-06-27T10:13:46Z</time>
      </trkpt>
      <trkpt lat="49.10323" lon="7.16572">
        <ele>317.7</ele>
        <time>2020-06-27T10:13:47Z</time>
      </trkpt>
      <trkpt lat="49.1032" lon="7.16578">
        <ele>317.9</ele>
        <time>2020-06-27T10:13:48Z</time>
      </trkpt>
      <trkpt lat="49.10317" lon="7.16586">
        <ele>318.1</ele>
        <time>2020-06-27T10:13:49Z</time>
      </trkpt>
      <trkpt lat="49.10313" lon="7.16592">
        <ele>318.4</ele>
        <time>2020-06-27T10:13:50Z</time>
      </trkpt>
      <trkpt lat="49.1031" lon="7.16598">
        <ele>318.6</ele>
        <time>2020-06-27T10:13:51Z</time>
      </trkpt>
      <trkpt lat="49.10307" lon="7.16604">
        <ele>318.8</ele>
        <time>2020-06-27T10:13:52Z</time>
      </trkpt>
      <trkpt lat="49.10304" lon="7.16609">
        <ele>319</ele>
        <time>2020-06-27T10:13:53Z</time>
      </trkpt>
      <trkpt lat="49.10301" lon="7.16614">
        <ele>319.2</ele>
        <time>2020-06-27T10:13:54Z</time>
      </trkpt>
      <trkpt lat="49.10298" lon="7.16619">
        <ele>319.4</ele>
        <time>2020-06-27T10:13:55Z</time>
      </trkpt>
      <trkpt lat="49.10296" lon="7.16625">
        <ele>319.6</ele>
        <time>2020-06-27T10:13:56Z</time>
      </trkpt>
      <trkpt lat="49.10293" lon="7.1663">
        <ele>319.8</ele>
        <time>2020-06-27T10:13:57Z</time>
      </trkpt>
      <trkpt lat="49.10289" lon="7.16635">
        <ele>320</ele>
        <time>2020-06-27T10:13:58Z</time>
      </trkpt>
      <trkpt lat="49.10287" lon="7.16641">
        <ele>320.3</ele>
        <time>2020-06-27T10:13:59Z</time>
      </trkpt>
      <trkpt lat="49.10284" lon="7.16648">
        <ele>320.5</ele>
        <time>2020-06-27T10:14:00Z</time>
      </trkpt>
      <trkpt lat="49.10281" lon="7.16654">
        <ele>320.6</ele>
        <time>2020-06-27T10:14:01Z</time>
      </trkpt>
      <trkpt lat="49.10279" lon="7.16661">
        <ele>320.8</ele>
        <time>2020-06-27T10:14:02Z</time>
      </trkpt>
      <trkpt lat="49.10275" lon="7.16665">
        <ele>321</ele>
        <time>2020-06-27T10:14:03Z</time>
      </trkpt>
      <trkpt lat="49.10272" lon="7.16671">
        <ele>321.1</ele>
        <time>2020-06-27T10:14:04Z</time>
      </trkpt>
      <trkpt lat="49.10269" lon="7.16677">
        <ele>321.3</ele>
        <time>2020-06-27T10:14:05Z</time>
      </trkpt>
      <trkpt lat="49.10266" lon="7.16681">
        <ele>321.4</ele>
        <time>2020-06-27T10:14:06Z</time>
      </trkpt>
      <trkpt lat="49.10263" lon="7.16687">
        <ele>321.6</ele>
        <time>2020-06-27T10:14:07Z</time>
      </trkpt>
      <trkpt lat="49.1026" lon="7.16692">
        <ele>321.7</ele>
        <time>2020-06-27T10:14:08Z</time>
      </trkpt>
      <trkpt lat="49.10257" lon="7.16696">
        <ele>321.9</ele>
        <time>2020-06-27T10:14:09Z</time>
      </trkpt>
      <trkpt lat="49.10255" lon="7.16702">
        <ele>322</ele>
        <time>2020-06-27T10:14:10Z</time>
      </trkpt>
      <trkpt lat="49.10252" lon="7.16706">
        <ele>322.1</ele>
        <time>2020-06-27T10:14:11Z</time>
      </trkpt>
      <trkpt lat="49.1025" lon="7.16712">
        <ele>322.2</ele>
        <time>2020-06-27T10:14:12Z</time>
      </trkpt>
      <trkpt lat="49.10247" lon="7.16718">
        <ele>322.4</ele>
        <time>2020-06-27T10:14:13Z</time>
      </trkpt>
      <trkpt lat="49.10244" lon="7.16723">
        <ele>322.5</ele>
        <time>2020-06-27T10:14:14Z</time>
      </trkpt>
      <trkpt lat="49.10241" lon="7.16728">
        <ele>322.6</ele>
        <time>2020-06-27T10:14:15Z</time>
      </trkpt>
      <trkpt lat="49.10239" lon="7.16734">
        <ele>322.7</ele>
        <time>2020-06-27T10:14:16Z</time>
      </trkpt>
      <trkpt lat="49.10236" lon="7.16739">
        <ele>322.8</ele>
        <time>2020-06-27T10:14:17Z</time>
      </trkpt>
      <trkpt lat="49.10234" lon="7.16744">
        <ele>322.9</ele>
        <time>2020-06-27T10:14:18Z</time>
      </trkpt>
      <trkpt lat="49.10231" lon="7.16749">
        <ele>323</ele>
        <time>2020-06-27T10:14:19Z</time>
      </trkpt>
      <trkpt lat="49.10228" lon="7.16753">
        <ele>323.1</ele>
        <time>2020-06-27T10:14:20Z</time>
      </trkpt>
      <trkpt lat="49.10225" lon="7.16758">
        <ele>323.2</ele>
        <time>2020-06-27T10:14:21Z</time>
      </trkpt>
      <trkpt lat="49.10223" lon="7.16763">
        <ele>323.3</ele>
        <time>2020-06-27T10:14:22Z</time>
      </trkpt>
      <trkpt lat="49.1022" lon="7.16769">
        <ele>323.4</ele>
        <time>2020-06-27T10:14:23Z</time>
      </trkpt>
      <trkpt lat="49.10218" lon="7.16774">
        <ele>323.5</ele>
        <time>2020-06-27T10:14:24Z</time>
      </trkpt>
      <trkpt lat="49.10215" lon="7.1678">
        <ele>323.7</ele>
        <time>2020-06-27T10:14:25Z</time>
      </trkpt>
      <trkpt lat="49.10212" lon="7.16785">
        <ele>323.8</ele>
        <time>2020-06-27T10:14:26Z</time>
      </trkpt>
      <trkpt lat="49.10208" lon="7.16791">
        <ele>324</ele>
        <time>2020-06-27T10:14:27Z</time>
      </trkpt>
      <trkpt lat="49.10205" lon="7.16798">
        <ele>324.2</ele>
        <time>2020-06-27T10:14:28Z</time>
      </trkpt>
      <trkpt lat="49.10202" lon="7.16803">
        <ele>324.2</ele>
        <time>2020-06-27T10:14:29Z</time>
      </trkpt>
      <trkpt lat="49.10199" lon="7.1681">
        <ele>324.1</ele>
        <time>2020-06-27T10:14:30Z</time>
      </trkpt>
      <trkpt lat="49.10196" lon="7.16816">
        <ele>324.1</ele>
        <time>2020-06-27T10:14:31Z</time>
      </trkpt>
      <trkpt lat="49.10193" lon="7.16823">
        <ele>324.1</ele>
        <time>2020-06-27T10:14:32Z</time>
      </trkpt>
      <trkpt lat="49.1019" lon="7.16829">
        <ele>324.1</ele>
        <time>2020-06-27T10:14:33Z</time>
      </trkpt>
      <trkpt lat="49.10187" lon="7.16836">
        <ele>324.2</ele>
        <time>2020-06-27T10:14:34Z</time>
      </trkpt>
      <trkpt lat="49.10184" lon="7.16842">
        <ele>324.3</ele>
        <time>2020-06-27T10:14:35Z</time>
      </trkpt>
      <trkpt lat="49.1018" lon="7.16847">
        <ele>324.4</ele>
        <time>2020-06-27T10:14:36Z</time>
      </trkpt>
      <trkpt lat="49.10178" lon="7.16854">
        <ele>324.5</ele>
        <time>2020-06-27T10:14:37Z</time>
      </trkpt>
      <trkpt lat="49.10174" lon="7.16861">
        <ele>324.7</ele>
        <time>2020-06-27T10:14:38Z</time>
      </trkpt>
      <trkpt lat="49.1017" lon="7.16866">
        <ele>324.9</ele>
        <time>2020-06-27T10:14:39Z</time>
      </trkpt>
      <trkpt lat="49.10166" lon="7.16872">
        <ele>325</ele>
        <time>2020-06-27T10:14:40Z</time>
      </trkpt>
      <trkpt lat="49.10163" lon="7.16877">
        <ele>325.2</ele>
        <time>2020-06-27T10:14:41Z</time>
      </trkpt>
      <trkpt lat="49.1016" lon="7.16882">
        <ele>325.4</ele>
        <time>2020-06-27T10:14:42Z</time>
      </trkpt>
      <trkpt lat="49.10156" lon="7.16889">
        <ele>325.7</ele>
        <time>2020-06-27T10:14:43Z</time>
      </trkpt>
      <trkpt lat="49.10152" lon="7.16896">
        <ele>325.9</ele>
        <time>2020-06-27T10:14:44Z</time>
      </trkpt>
      <trkpt lat="49.1015" lon="7.16902">
        <ele>326.1</ele>
        <time>2020-06-27T10:14:45Z</time>
      </trkpt>
      <trkpt lat="49.10147" lon="7.16907">
        <ele>326.3</ele>
        <time>2020-06-27T10:14:46Z</time>
      </trkpt>
      <trkpt lat="49.10144" lon="7.16912">
        <ele>326.5</ele>
        <time>2020-06-27T10:14:47Z</time>
      </trkpt>
      <trkpt lat="49.1014" lon="7.16919">
        <ele>326.8</ele>
        <time>2020-06-27T10:14:48Z</time>
      </trkpt>
      <trkpt lat="49.10138" lon="7.16923">
        <ele>327</ele>
        <time>2020-06-27T10:14:49Z</time>
      </trkpt>
      <trkpt lat="49.10136" lon="7.16928">
        <ele>327.1</ele>
        <time>2020-06-27T10:14:50Z</time>
      </trkpt>
      <trkpt lat="49.10133" lon="7.16933">
        <ele>327.3</ele>
        <time>2020-06-27T10:14:51Z</time>
      </trkpt>
      <trkpt lat="49.1013" lon="7.1694">
        <ele>327.6</ele>
        <time>2020-06-27T10:14:52Z</time>
      </trkpt>
      <trkpt lat="49.10127" lon="7.16944">
        <ele>327.8</ele>
        <time>2020-06-27T10:14:53Z</time>
      </trkpt>
      <trkpt lat="49.10125" lon="7.16948">
        <ele>328</ele>
        <time>2020-06-27T10:14:54Z</time>
      </trkpt>
      <trkpt lat="49.10122" lon="7.16952">
        <ele>328.2</ele>
        <time>2020-06-27T10:14:55Z</time>
      </trkpt>
      <trkpt lat="49.1012" lon="7.16957">
        <ele>328.4</ele>
        <time>2020-06-27T10:14:56Z</time>
      </trkpt>
      <trkpt lat="49.10117" lon="7.16962">
        <ele>328.7</ele>
        <time>2020-06-27T10:14:57Z</time>
      </trkpt>
      <trkpt lat="49.10115" lon="7.16967">
        <ele>328.9</ele>
        <time>2020-06-27T10:14:58Z</time>
      </trkpt>
      <trkpt lat="49.10113" lon="7.16972">
        <ele>329.1</ele>
        <time>2020-06-27T10:14:59Z</time>
      </trkpt>
      <trkpt lat="49.10112" lon="7.16977">
        <ele>329.3</ele>
        <time>2020-06-27T10:15:00Z</time>
      </trkpt>
      <trkpt lat="49.10109" lon="7.16982">
        <ele>329.8</ele>
        <time>2020-06-27T10:15:01Z</time>
      </trkpt>
      <trkpt lat="49.10107" lon="7.16986">
        <ele>330.1</ele>
        <time>2020-06-27T10:15:02Z</time>
      </trkpt>
      <trkpt lat="49.10104" lon="7.1699">
        <ele>330.3</ele>
        <time>2020-06-27T10:15:03Z</time>
      </trkpt>
      <trkpt lat="49.10101" lon="7.16994">
        <ele>330.5</ele>
        <time>2020-06-27T10:15:04Z</time>
      </trkpt>
      <trkpt lat="49.10099" lon="7.17">
        <ele>330.8</ele>
        <time>2020-06-27T10:15:05Z</time>
      </trkpt>
      <trkpt lat="49.10097" lon="7.17004">
        <ele>330.9</ele>
        <time>2020-06-27T10:15:06Z</time>
      </trkpt>
      <trkpt lat="49.10094" lon="7.17008">
        <ele>331.1</ele>
        <time>2020-06-27T10:15:07Z</time>
      </trkpt>
      <trkpt lat="49.10091" lon="7.17015">
        <ele>331.3</ele>
        <time>2020-06-27T10:15:08Z</time>
      </trkpt>
      <trkpt lat="49.10088" lon="7.1702">
        <ele>331.5</ele>
        <time>2020-06-27T10:15:09Z</time>
      </trkpt>
      <trkpt lat="49.10086" lon="7.17026">
        <ele>331.8</ele>
        <time>2020-06-27T10:15:10Z</time>
      </trkpt>
      <trkpt lat="49.10083" lon="7.17031">
        <ele>332</ele>
        <time>2020-06-27T10:15:11Z</time>
      </trkpt>
      <trkpt lat="49.10081" lon="7.17035">
        <ele>332.2</ele>
        <time>2020-06-27T10:15:12Z</time>
      </trkpt>
      <trkpt lat="49.10079" lon="7.17041">
        <ele>332.4</ele>
        <time>2020-06-27T10:15:13Z</time>
      </trkpt>
      <trkpt lat="49.10077" lon="7.17045">
        <ele>332.6</ele>
        <time>2020-06-27T10:15:14Z</time>
      </trkpt>
      <trkpt lat="49.10075" lon="7.17049">
        <ele>332.8</ele>
        <time>2020-06-27T10:15:15Z</time>
      </trkpt>
      <trkpt lat="49.10072" lon="7.17053">
        <ele>332.9</ele>
        <time>2020-06-27T10:15:16Z</time>
      </trkpt>
      <trkpt lat="49.1007" lon="7.17056">
        <ele>333.1</ele>
        <time>2020-06-27T10:15:17Z</time>
      </trkpt>
      <trkpt lat="49.10068" lon="7.17062">
        <ele>333.3</ele>
        <time>2020-06-27T10:15:18Z</time>
      </trkpt>
      <trkpt lat="49.10066" lon="7.17068">
        <ele>333.5</ele>
        <time>2020-06-27T10:15:19Z</time>
      </trkpt>
      <trkpt lat="49.10063" lon="7.17074">
        <ele>333.7</ele>
        <time>2020-06-27T10:15:20Z</time>
      </trkpt>
      <trkpt lat="49.1006" lon="7.1708">
        <ele>334</ele>
        <time>2020-06-27T10:15:21Z</time>
      </trkpt>
      <trkpt lat="49.10058" lon="7.17085">
        <ele>334.2</ele>
        <time>2020-06-27T10:15:22Z</time>
      </trkpt>
      <trkpt lat="49.10055" lon="7.1709">
        <ele>334.3</ele>
        <time>2020-06-27T10:15:23Z</time>
      </trkpt>
      <trkpt lat="49.10053" lon="7.17093">
        <ele>334.5</ele>
        <time>2020-06-27T10:15:24Z</time>
      </trkpt>
      <trkpt lat="49.10051" lon="7.17099">
        <ele>334.7</ele>
        <time>2020-06-27T10:15:25Z</time>
      </trkpt>
      <trkpt lat="49.1005" lon="7.17103">
        <ele>334.8</ele>
        <time>2020-06-27T10:15:26Z</time>
      </trkpt>
      <trkpt lat="49.10047" lon="7.17108">
        <ele>335</ele>
        <time>2020-06-27T10:15:27Z</time>
      </trkpt>
      <trkpt lat="49.10045" lon="7.17114">
        <ele>335.2</ele>
        <time>2020-06-27T10:15:28Z</time>
      </trkpt>
      <trkpt lat="49.10043" lon="7.17121">
        <ele>335.4</ele>
        <time>2020-06-27T10:15:29Z</time>
      </trkpt>
      <trkpt lat="49.10041" lon="7.17127">
        <ele>335.6</ele>
        <time>2020-06-27T10:15:30Z</time>
      </trkpt>
      <trkpt lat="49.10039" lon="7.17132">
        <ele>335.8</ele>
        <time>2020-06-27T10:15:31Z</time>
      </trkpt>
      <trkpt lat="49.10037" lon="7.17136">
        <ele>335.9</ele>
        <time>2020-06-27T10:15:32Z</time>
      </trkpt>
      <trkpt lat="49.10036" lon="7.17139">
        <ele>336</ele>
        <time>2020-06-27T10:15:33Z</time>
      </trkpt>
      <trkpt lat="49.10034" lon="7.17143">
        <ele>336.3</ele>
        <time>2020-06-27T10:15:34Z</time>
      </trkpt>
      <trkpt lat="49.1003" lon="7.17146">
        <ele>336.6</ele>
        <time>2020-06-27T10:15:35Z</time>
      </trkpt>
      <trkpt lat="49.10027" lon="7.17148">
        <ele>336.9</ele>
        <time>2020-06-27T10:15:36Z</time>
      </trkpt>
      <trkpt lat="49.10023" lon="7.17148">
        <ele>337.4</ele>
        <time>2020-06-27T10:15:37Z</time>
      </trkpt>
      <trkpt lat="49.10019" lon="7.17151">
        <ele>337.8</ele>
        <time>2020-06-27T10:15:38Z</time>
      </trkpt>
      <trkpt lat="49.10016" lon="7.17154">
        <ele>338.2</ele>
        <time>2020-06-27T10:15:39Z</time>
      </trkpt>
      <trkpt lat="49.10013" lon="7.17156">
        <ele>338.5</ele>
        <time>2020-06-27T10:15:40Z</time>
      </trkpt>
      <trkpt lat="49.10012" lon="7.17162">
        <ele>338.8</ele>
        <time>2020-06-27T10:15:41Z</time>
      </trkpt>
      <trkpt lat="49.10011" lon="7.17169">
        <ele>339</ele>
        <time>2020-06-27T10:15:42Z</time>
      </trkpt>
      <trkpt lat="49.1001" lon="7.17176">
        <ele>338.9</ele>
        <time>2020-06-27T10:15:43Z</time>
      </trkpt>
      <trkpt lat="49.10011" lon="7.17183">
        <ele>338.8</ele>
        <time>2020-06-27T10:15:44Z</time>
      </trkpt>
      <trkpt lat="49.10011" lon="7.1719">
        <ele>338.3</ele>
        <time>2020-06-27T10:15:45Z</time>
      </trkpt>
      <trkpt lat="49.10011" lon="7.17198">
        <ele>338.3</ele>
        <time>2020-06-27T10:15:46Z</time>
      </trkpt>
      <trkpt lat="49.10009" lon="7.17204">
        <ele>338.4</ele>
        <time>2020-06-27T10:15:47Z</time>
      </trkpt>
      <trkpt lat="49.10007" lon="7.17209">
        <ele>338.4</ele>
        <time>2020-06-27T10:15:48Z</time>
      </trkpt>
      <trkpt lat="49.10004" lon="7.17215">
        <ele>338.5</ele>
        <time>2020-06-27T10:15:49Z</time>
      </trkpt>
      <trkpt lat="49.10002" lon="7.1722">
        <ele>338.6</ele>
        <time>2020-06-27T10:15:50Z</time>
      </trkpt>
      <trkpt lat="49.1" lon="7.17226">
        <ele>338.7</ele>
        <time>2020-06-27T10:15:51Z</time>
      </trkpt>
      <trkpt lat="49.09999" lon="7.17232">
        <ele>338.8</ele>
        <time>2020-06-27T10:15:52Z</time>
      </trkpt>
      <trkpt lat="49.09997" lon="7.17239">
        <ele>338.9</ele>
        <time>2020-06-27T10:15:53Z</time>
      </trkpt>
      <trkpt lat="49.09996" lon="7.17245">
        <ele>339</ele>
        <time>2020-06-27T10:15:54Z</time>
      </trkpt>
      <trkpt lat="49.09994" lon="7.17252">
        <ele>339.2</ele>
        <time>2020-06-27T10:15:55Z</time>
      </trkpt>
      <trkpt lat="49.09992" lon="7.17258">
        <ele>339.3</ele>
        <time>2020-06-27T10:15:56Z</time>
      </trkpt>
      <trkpt lat="49.0999" lon="7.17264">
        <ele>339.5</ele>
        <time>2020-06-27T10:15:57Z</time>
      </trkpt>
      <trkpt lat="49.09988" lon="7.17269">
        <ele>339.6</ele>
        <time>2020-06-27T10:15:58Z</time>
      </trkpt>
      <trkpt lat="49.09986" lon="7.17274">
        <ele>339.7</ele>
        <time>2020-06-27T10:15:59Z</time>
      </trkpt>
      <trkpt lat="49.09984" lon="7.17278">
        <ele>339.9</ele>
        <time>2020-06-27T10:16:00Z</time>
      </trkpt>
      <trkpt lat="49.09982" lon="7.17284">
        <ele>340</ele>
        <time>2020-06-27T10:16:01Z</time>
      </trkpt>
      <trkpt lat="49.0998" lon="7.1729">
        <ele>340.2</ele>
        <time>2020-06-27T10:16:02Z</time>
      </trkpt>
      <trkpt lat="49.09977" lon="7.17297">
        <ele>340.4</ele>
        <time>2020-06-27T10:16:03Z</time>
      </trkpt>
      <trkpt lat="49.09975" lon="7.17303">
        <ele>340.6</ele>
        <time>2020-06-27T10:16:04Z</time>
      </trkpt>
      <trkpt lat="49.09974" lon="7.17309">
        <ele>340.8</ele>
        <time>2020-06-27T10:16:05Z</time>
      </trkpt>
      <trkpt lat="49.09972" lon="7.17316">
        <ele>341</ele>
        <time>2020-06-27T10:16:06Z</time>
      </trkpt>
      <trkpt lat="49.0997" lon="7.17322">
        <ele>341</ele>
        <time>2020-06-27T10:16:07Z</time>
      </trkpt>
      <trkpt lat="49.09968" lon="7.17328">
        <ele>341.1</ele>
        <time>2020-06-27T10:16:08Z</time>
      </trkpt>
      <trkpt lat="49.09965" lon="7.17334">
        <ele>341.1</ele>
        <time>2020-06-27T10:16:09Z</time>
      </trkpt>
      <trkpt lat="49.09964" lon="7.17342">
        <ele>341.2</ele>
        <time>2020-06-27T10:16:10Z</time>
      </trkpt>
      <trkpt lat="49.09963" lon="7.17347">
        <ele>341.2</ele>
        <time>2020-06-27T10:16:11Z</time>
      </trkpt>
      <trkpt lat="49.0996" lon="7.17353">
        <ele>341.3</ele>
        <time>2020-06-27T10:16:12Z</time>
      </trkpt>
      <trkpt lat="49.09959" lon="7.1736">
        <ele>341.4</ele>
        <time>2020-06-27T10:16:13Z</time>
      </trkpt>
      <trkpt lat="49.09957" lon="7.17366">
        <ele>341.4</ele>
        <time>2020-06-27T10:16:14Z</time>
      </trkpt>
      <trkpt lat="49.09954" lon="7.17371">
        <ele>341.5</ele>
        <time>2020-06-27T10:16:15Z</time>
      </trkpt>
      <trkpt lat="49.09952" lon="7.17378">
        <ele>341.6</ele>
        <time>2020-06-27T10:16:16Z</time>
      </trkpt>
      <trkpt lat="49.0995" lon="7.17385">
        <ele>341.7</ele>
        <time>2020-06-27T10:16:17Z</time>
      </trkpt>
      <trkpt lat="49.09948" lon="7.17391">
        <ele>341.8</ele>
        <time>2020-06-27T10:16:18Z</time>
      </trkpt>
      <trkpt lat="49.09946" lon="7.17398">
        <ele>341.8</ele>
        <time>2020-06-27T10:16:19Z</time>
      </trkpt>
      <trkpt lat="49.09944" lon="7.17404">
        <ele>341.9</ele>
        <time>2020-06-27T10:16:20Z</time>
      </trkpt>
      <trkpt lat="49.09942" lon="7.1741">
        <ele>341.9</ele>
        <time>2020-06-27T10:16:21Z</time>
      </trkpt>
      <trkpt lat="49.0994" lon="7.17416">
        <ele>342</ele>
        <time>2020-06-27T10:16:22Z</time>
      </trkpt>
      <trkpt lat="49.09938" lon="7.17423">
        <ele>342</ele>
        <time>2020-06-27T10:16:23Z</time>
      </trkpt>
      <trkpt lat="49.09936" lon="7.17429">
        <ele>342.1</ele>
        <time>2020-06-27T10:16:24Z</time>
      </trkpt>
      <trkpt lat="49.09934" lon="7.17435">
        <ele>342.1</ele>
        <time>2020-06-27T10:16:25Z</time>
      </trkpt>
      <trkpt lat="49.09931" lon="7.17442">
        <ele>342.2</ele>
        <time>2020-06-27T10:16:26Z</time>
      </trkpt>
      <trkpt lat="49.0993" lon="7.17449">
        <ele>342.2</ele>
        <time>2020-06-27T10:16:27Z</time>
      </trkpt>
      <trkpt lat="49.09927" lon="7.17456">
        <ele>342.2</ele>
        <time>2020-06-27T10:16:28Z</time>
      </trkpt>
      <trkpt lat="49.09924" lon="7.17464">
        <ele>342.3</ele>
        <time>2020-06-27T10:16:29Z</time>
      </trkpt>
      <trkpt lat="49.09921" lon="7.1747">
        <ele>342.3</ele>
        <time>2020-06-27T10:16:30Z</time>
      </trkpt>
      <trkpt lat="49.09919" lon="7.17477">
        <ele>342.3</ele>
        <time>2020-06-27T10:16:31Z</time>
      </trkpt>
      <trkpt lat="49.09917" lon="7.17484">
        <ele>342.4</ele>
        <time>2020-06-27T10:16:32Z</time>
      </trkpt>
      <trkpt lat="49.09915" lon="7.1749">
        <ele>342.4</ele>
        <time>2020-06-27T10:16:33Z</time>
      </trkpt>
      <trkpt lat="49.09914" lon="7.17496">
        <ele>342.4</ele>
        <time>2020-06-27T10:16:34Z</time>
      </trkpt>
      <trkpt lat="49.09911" lon="7.17502">
        <ele>342.5</ele>
        <time>2020-06-27T10:16:35Z</time>
      </trkpt>
      <trkpt lat="49.09909" lon="7.17509">
        <ele>342.5</ele>
        <time>2020-06-27T10:16:36Z</time>
      </trkpt>
      <trkpt lat="49.09907" lon="7.17516">
        <ele>342.6</ele>
        <time>2020-06-27T10:16:37Z</time>
      </trkpt>
      <trkpt lat="49.09905" lon="7.17522">
        <ele>342.6</ele>
        <time>2020-06-27T10:16:38Z</time>
      </trkpt>
      <trkpt lat="49.09903" lon="7.17529">
        <ele>342.7</ele>
        <time>2020-06-27T10:16:39Z</time>
      </trkpt>
      <trkpt lat="49.09901" lon="7.17536">
        <ele>342.7</ele>
        <time>2020-06-27T10:16:40Z</time>
      </trkpt>
      <trkpt lat="49.099" lon="7.17542">
        <ele>342.7</ele>
        <time>2020-06-27T10:16:41Z</time>
      </trkpt>
      <trkpt lat="49.09897" lon="7.17549">
        <ele>342.7</ele>
        <time>2020-06-27T10:16:42Z</time>
      </trkpt>
      <trkpt lat="49.09894" lon="7.17557">
        <ele>342.6</ele>
        <time>2020-06-27T10:16:43Z</time>
      </trkpt>
      <trkpt lat="49.09892" lon="7.17565">
        <ele>342.6</ele>
        <time>2020-06-27T10:16:44Z</time>
      </trkpt>
      <trkpt lat="49.09889" lon="7.17572">
        <ele>342.5</ele>
        <time>2020-06-27T10:16:45Z</time>
      </trkpt>
      <trkpt lat="49.09885" lon="7.1758">
        <ele>342.5</ele>
        <time>2020-06-27T10:16:46Z</time>
      </trkpt>
      <trkpt lat="49.09883" lon="7.17588">
        <ele>342.5</ele>
        <time>2020-06-27T10:16:47Z</time>
      </trkpt>
      <trkpt lat="49.0988" lon="7.17595">
        <ele>342.4</ele>
        <time>2020-06-27T10:16:48Z</time>
      </trkpt>
      <trkpt lat="49.09878" lon="7.17603">
        <ele>342.4</ele>
        <time>2020-06-27T10:16:49Z</time>
      </trkpt>
      <trkpt lat="49.09876" lon="7.1761">
        <ele>342.4</ele>
        <time>2020-06-27T10:16:50Z</time>
      </trkpt>
      <trkpt lat="49.09873" lon="7.17617">
        <ele>342.3</ele>
        <time>2020-06-27T10:16:51Z</time>
      </trkpt>
      <trkpt lat="49.09871" lon="7.17623">
        <ele>342.3</ele>
        <time>2020-06-27T10:16:52Z</time>
      </trkpt>
      <trkpt lat="49.09868" lon="7.1763">
        <ele>342.3</ele>
        <time>2020-06-27T10:16:53Z</time>
      </trkpt>
      <trkpt lat="49.09866" lon="7.17637">
        <ele>342.3</ele>
        <time>2020-06-27T10:16:54Z</time>
      </trkpt>
      <trkpt lat="49.09863" lon="7.17644">
        <ele>342.3</ele>
        <time>2020-06-27T10:16:55Z</time>
      </trkpt>
      <trkpt lat="49.0986" lon="7.17652">
        <ele>342.2</ele>
        <time>2020-06-27T10:16:56Z</time>
      </trkpt>
      <trkpt lat="49.09858" lon="7.1766">
        <ele>342.2</ele>
        <time>2020-06-27T10:16:57Z</time>
      </trkpt>
      <trkpt lat="49.09855" lon="7.17667">
        <ele>342.2</ele>
        <time>2020-06-27T10:16:58Z</time>
      </trkpt>
      <trkpt lat="49.09852" lon="7.17676">
        <ele>342.1</ele>
        <time>2020-06-27T10:16:59Z</time>
      </trkpt>
      <trkpt lat="49.09849" lon="7.17685">
        <ele>342</ele>
        <time>2020-06-27T10:17:00Z</time>
      </trkpt>
      <trkpt lat="49.09847" lon="7.17694">
        <ele>342</ele>
        <time>2020-06-27T10:17:01Z</time>
      </trkpt>
      <trkpt lat="49.09845" lon="7.17702">
        <ele>341.9</ele>
        <time>2020-06-27T10:17:02Z</time>
      </trkpt>
      <trkpt lat="49.09842" lon="7.17711">
        <ele>341.8</ele>
        <time>2020-06-27T10:17:03Z</time>
      </trkpt>
      <trkpt lat="49.09839" lon="7.17721">
        <ele>341.7</ele>
        <time>2020-06-27T10:17:04Z</time>
      </trkpt>
      <trkpt lat="49.09835" lon="7.1773">
        <ele>341.6</ele>
        <time>2020-06-27T10:17:05Z</time>
      </trkpt>
      <trkpt lat="49.09832" lon="7.17739">
        <ele>341.4</ele>
        <time>2020-06-27T10:17:06Z</time>
      </trkpt>
      <trkpt lat="49.09829" lon="7.17749">
        <ele>341.3</ele>
        <time>2020-06-27T10:17:07Z</time>
      </trkpt>
      <trkpt lat="49.09825" lon="7.17758">
        <ele>341.2</ele>
        <time>2020-06-27T10:17:08Z</time>
      </trkpt>
      <trkpt lat="49.09821" lon="7.17767">
        <ele>341.1</ele>
        <time>2020-06-27T10:17:09Z</time>
      </trkpt>
      <trkpt lat="49.09818" lon="7.17776">
        <ele>341</ele>
        <time>2020-06-27T10:17:10Z</time>
      </trkpt>
      <trkpt lat="49.09814" lon="7.17785">
        <ele>340.9</ele>
        <time>2020-06-27T10:17:11Z</time>
      </trkpt>
      <trkpt lat="49.0981" lon="7.17794">
        <ele>340.8</ele>
        <time>2020-06-27T10:17:12Z</time>
      </trkpt>
      <trkpt lat="49.09807" lon="7.17802">
        <ele>340.6</ele>
        <time>2020-06-27T10:17:13Z</time>
      </trkpt>
      <trkpt lat="49.09804" lon="7.17811">
        <ele>340.6</ele>
        <time>2020-06-27T10:17:14Z</time>
      </trkpt>
      <trkpt lat="49.09801" lon="7.17819">
        <ele>340.4</ele>
        <time>2020-06-27T10:17:15Z</time>
      </trkpt>
      <trkpt lat="49.09798" lon="7.17827">
        <ele>340.3</ele>
        <time>2020-06-27T10:17:16Z</time>
      </trkpt>
      <trkpt lat="49.09795" lon="7.17835">
        <ele>340.2</ele>
        <time>2020-06-27T10:17:17Z</time>
      </trkpt>
      <trkpt lat="49.09792" lon="7.17844">
        <ele>340</ele>
        <time>2020-06-27T10:17:18Z</time>
      </trkpt>
      <trkpt lat="49.09789" lon="7.17853">
        <ele>339.8</ele>
        <time>2020-06-27T10:17:19Z</time>
      </trkpt>
      <trkpt lat="49.09786" lon="7.17862">
        <ele>339.6</ele>
        <time>2020-06-27T10:17:20Z</time>
      </trkpt>
      <trkpt lat="49.09783" lon="7.17868">
        <ele>339.6</ele>
        <time>2020-06-27T10:17:21Z</time>
      </trkpt>
      <trkpt lat="49.09779" lon="7.17876">
        <ele>339.5</ele>
        <time>2020-06-27T10:17:22Z</time>
      </trkpt>
      <trkpt lat="49.09777" lon="7.17886">
        <ele>339.4</ele>
        <time>2020-06-27T10:17:23Z</time>
      </trkpt>
      <trkpt lat="49.09773" lon="7.17898">
        <ele>339.3</ele>
        <time>2020-06-27T10:17:24Z</time>
      </trkpt>
      <trkpt lat="49.09771" lon="7.17906">
        <ele>339.3</ele>
        <time>2020-06-27T10:17:25Z</time>
      </trkpt>
      <trkpt lat="49.09768" lon="7.17915">
        <ele>339.2</ele>
        <time>2020-06-27T10:17:26Z</time>
      </trkpt>
      <trkpt lat="49.09765" lon="7.17925">
        <ele>339.2</ele>
        <time>2020-06-27T10:17:27Z</time>
      </trkpt>
      <trkpt lat="49.09761" lon="7.17934">
        <ele>339.1</ele>
        <time>2020-06-27T10:17:28Z</time>
      </trkpt>
      <trkpt lat="49.09757" lon="7.17944">
        <ele>339.1</ele>
        <time>2020-06-27T10:17:29Z</time>
      </trkpt>
      <trkpt lat="49.09754" lon="7.17954">
        <ele>339</ele>
        <time>2020-06-27T10:17:30Z</time>
      </trkpt>
      <trkpt lat="49.0975" lon="7.17964">
        <ele>339</ele>
        <time>2020-06-27T10:17:31Z</time>
      </trkpt>
      <trkpt lat="49.09747" lon="7.17973">
        <ele>339</ele>
        <time>2020-06-27T10:17:32Z</time>
      </trkpt>
      <trkpt lat="49.09744" lon="7.17983">
        <ele>339</ele>
        <time>2020-06-27T10:17:33Z</time>
      </trkpt>
      <trkpt lat="49.0974" lon="7.17992">
        <ele>339</ele>
        <time>2020-06-27T10:17:34Z</time>
      </trkpt>
      <trkpt lat="49.09737" lon="7.18002">
        <ele>339.1</ele>
        <time>2020-06-27T10:17:35Z</time>
      </trkpt>
      <trkpt lat="49.09734" lon="7.18012">
        <ele>339.1</ele>
        <time>2020-06-27T10:17:36Z</time>
      </trkpt>
      <trkpt lat="49.0973" lon="7.18022">
        <ele>339.2</ele>
        <time>2020-06-27T10:17:37Z</time>
      </trkpt>
      <trkpt lat="49.09727" lon="7.18031">
        <ele>339.2</ele>
        <time>2020-06-27T10:17:38Z</time>
      </trkpt>
      <trkpt lat="49.09724" lon="7.1804">
        <ele>339.3</ele>
        <time>2020-06-27T10:17:39Z</time>
      </trkpt>
      <trkpt lat="49.09721" lon="7.1805">
        <ele>339.4</ele>
        <time>2020-06-27T10:17:40Z</time>
      </trkpt>
      <trkpt lat="49.09718" lon="7.18059">
        <ele>339.4</ele>
        <time>2020-06-27T10:17:41Z</time>
      </trkpt>
      <trkpt lat="49.09714" lon="7.18068">
        <ele>339.5</ele>
        <time>2020-06-27T10:17:42Z</time>
      </trkpt>
      <trkpt lat="49.09711" lon="7.18077">
        <ele>339.6</ele>
        <time>2020-06-27T10:17:43Z</time>
      </trkpt>
      <trkpt lat="49.09708" lon="7.18086">
        <ele>339.7</ele>
        <time>2020-06-27T10:17:44Z</time>
      </trkpt>
      <trkpt lat="49.09705" lon="7.18095">
        <ele>339.8</ele>
        <time>2020-06-27T10:17:45Z</time>
      </trkpt>
      <trkpt lat="49.09702" lon="7.18104">
        <ele>339.8</ele>
        <time>2020-06-27T10:17:46Z</time>
      </trkpt>
      <trkpt lat="49.09698" lon="7.18114">
        <ele>339.8</ele>
        <time>2020-06-27T10:17:47Z</time>
      </trkpt>
      <trkpt lat="49.09695" lon="7.18123">
        <ele>339.8</ele>
        <time>2020-06-27T10:17:48Z</time>
      </trkpt>
      <trkpt lat="49.09693" lon="7.18132">
        <ele>339.8</ele>
        <time>2020-06-27T10:17:49Z</time>
      </trkpt>
      <trkpt lat="49.09689" lon="7.18142">
        <ele>339.9</ele>
        <time>2020-06-27T10:17:50Z</time>
      </trkpt>
      <trkpt lat="49.09686" lon="7.18151">
        <ele>340</ele>
        <time>2020-06-27T10:17:51Z</time>
      </trkpt>
      <trkpt lat="49.09683" lon="7.1816">
        <ele>340</ele>
        <time>2020-06-27T10:17:52Z</time>
      </trkpt>
      <trkpt lat="49.0968" lon="7.1817">
        <ele>340.1</ele>
        <time>2020-06-27T10:17:53Z</time>
      </trkpt>
      <trkpt lat="49.09676" lon="7.18179">
        <ele>340.1</ele>
        <time>2020-06-27T10:17:54Z</time>
      </trkpt>
      <trkpt lat="49.09673" lon="7.18188">
        <ele>340.2</ele>
        <time>2020-06-27T10:17:55Z</time>
      </trkpt>
      <trkpt lat="49.0967" lon="7.18197">
        <ele>340.3</ele>
        <time>2020-06-27T10:17:56Z</time>
      </trkpt>
      <trkpt lat="49.09667" lon="7.18206">
        <ele>340.3</ele>
        <time>2020-06-27T10:17:57Z</time>
      </trkpt>
      <trkpt lat="49.09664" lon="7.18215">
        <ele>340.4</ele>
        <time>2020-06-27T10:17:58Z</time>
      </trkpt>
      <trkpt lat="49.09661" lon="7.18225">
        <ele>340.4</ele>
        <time>2020-06-27T10:17:59Z</time>
      </trkpt>
      <trkpt lat="49.09658" lon="7.18234">
        <ele>340.4</ele>
        <time>2020-06-27T10:18:00Z</time>
      </trkpt>
      <trkpt lat="49.09655" lon="7.18243">
        <ele>340.4</ele>
        <time>2020-06-27T10:18:01Z</time>
      </trkpt>
      <trkpt lat="49.09652" lon="7.18253">
        <ele>340.4</ele>
        <time>2020-06-27T10:18:02Z</time>
      </trkpt>
      <trkpt lat="49.09649" lon="7.18262">
        <ele>340.4</ele>
        <time>2020-06-27T10:18:03Z</time>
      </trkpt>
      <trkpt lat="49.09646" lon="7.18271">
        <ele>340.3</ele>
        <time>2020-06-27T10:18:04Z</time>
      </trkpt>
      <trkpt lat="49.09643" lon="7.18281">
        <ele>340.3</ele>
        <time>2020-06-27T10:18:05Z</time>
      </trkpt>
      <trkpt lat="49.09639" lon="7.1829">
        <ele>340.2</ele>
        <time>2020-06-27T10:18:06Z</time>
      </trkpt>
      <trkpt lat="49.09636" lon="7.18299">
        <ele>340.2</ele>
        <time>2020-06-27T10:18:07Z</time>
      </trkpt>
      <trkpt lat="49.09633" lon="7.18308">
        <ele>340.1</ele>
        <time>2020-06-27T10:18:08Z</time>
      </trkpt>
      <trkpt lat="49.0963" lon="7.18317">
        <ele>340.1</ele>
        <time>2020-06-27T10:18:09Z</time>
      </trkpt>
      <trkpt lat="49.09627" lon="7.18326">
        <ele>340</ele>
        <time>2020-06-27T10:18:10Z</time>
      </trkpt>
      <trkpt lat="49.09624" lon="7.18335">
        <ele>340</ele>
        <time>2020-06-27T10:18:11Z</time>
      </trkpt>
      <trkpt lat="49.09621" lon="7.18344">
        <ele>339.9</ele>
        <time>2020-06-27T10:18:12Z</time>
      </trkpt>
      <trkpt lat="49.09618" lon="7.18353">
        <ele>339.9</ele>
        <time>2020-06-27T10:18:13Z</time>
      </trkpt>
      <trkpt lat="49.09615" lon="7.18362">
        <ele>339.8</ele>
        <time>2020-06-27T10:18:14Z</time>
      </trkpt>
      <trkpt lat="49.09612" lon="7.18371">
        <ele>339.7</ele>
        <time>2020-06-27T10:18:15Z</time>
      </trkpt>
      <trkpt lat="49.09609" lon="7.18381">
        <ele>339.6</ele>
        <time>2020-06-27T10:18:16Z</time>
      </trkpt>
      <trkpt lat="49.09606" lon="7.1839">
        <ele>339.5</ele>
        <time>2020-06-27T10:18:17Z</time>
      </trkpt>
      <trkpt lat="49.09603" lon="7.184">
        <ele>339.4</ele>
        <time>2020-06-27T10:18:18Z</time>
      </trkpt>
      <trkpt lat="49.096" lon="7.18409">
        <ele>339.3</ele>
        <time>2020-06-27T10:18:19Z</time>
      </trkpt>
      <trkpt lat="49.09596" lon="7.18419">
        <ele>339.2</ele>
        <time>2020-06-27T10:18:20Z</time>
      </trkpt>
      <trkpt lat="49.09593" lon="7.18429">
        <ele>339</ele>
        <time>2020-06-27T10:18:21Z</time>
      </trkpt>
      <trkpt lat="49.0959" lon="7.18438">
        <ele>338.9</ele>
        <time>2020-06-27T10:18:22Z</time>
      </trkpt>
      <trkpt lat="49.09586" lon="7.18447">
        <ele>338.7</ele>
        <time>2020-06-27T10:18:23Z</time>
      </trkpt>
      <trkpt lat="49.09583" lon="7.18457">
        <ele>338.5</ele>
        <time>2020-06-27T10:18:24Z</time>
      </trkpt>
      <trkpt lat="49.0958" lon="7.18466">
        <ele>338.4</ele>
        <time>2020-06-27T10:18:25Z</time>
      </trkpt>
      <trkpt lat="49.09577" lon="7.18475">
        <ele>338.3</ele>
        <time>2020-06-27T10:18:26Z</time>
      </trkpt>
      <trkpt lat="49.09574" lon="7.18484">
        <ele>338.2</ele>
        <time>2020-06-27T10:18:27Z</time>
      </trkpt>
      <trkpt lat="49.0957" lon="7.18493">
        <ele>338.2</ele>
        <time>2020-06-27T10:18:28Z</time>
      </trkpt>
      <trkpt lat="49.09567" lon="7.18503">
        <ele>338.7</ele>
        <time>2020-06-27T10:18:29Z</time>
      </trkpt>
      <trkpt lat="49.09564" lon="7.18513">
        <ele>338.7</ele>
        <time>2020-06-27T10:18:30Z</time>
      </trkpt>
      <trkpt lat="49.0956" lon="7.18522">
        <ele>338.5</ele>
        <time>2020-06-27T10:18:31Z</time>
      </trkpt>
      <trkpt lat="49.09556" lon="7.18532">
        <ele>338.4</ele>
        <time>2020-06-27T10:18:32Z</time>
      </trkpt>
      <trkpt lat="49.09553" lon="7.18542">
        <ele>338.2</ele>
        <time>2020-06-27T10:18:33Z</time>
      </trkpt>
      <trkpt lat="49.09549" lon="7.18552">
        <ele>338.1</ele>
        <time>2020-06-27T10:18:34Z</time>
      </trkpt>
      <trkpt lat="49.09546" lon="7.18561">
        <ele>338</ele>
        <time>2020-06-27T10:18:35Z</time>
      </trkpt>
      <trkpt lat="49.09542" lon="7.18571">
        <ele>337.9</ele>
        <time>2020-06-27T10:18:36Z</time>
      </trkpt>
      <trkpt lat="49.09539" lon="7.1858">
        <ele>337.8</ele>
        <time>2020-06-27T10:18:37Z</time>
      </trkpt>
      <trkpt lat="49.09536" lon="7.1859">
        <ele>337.8</ele>
        <time>2020-06-27T10:18:38Z</time>
      </trkpt>
      <trkpt lat="49.09532" lon="7.186">
        <ele>337.7</ele>
        <time>2020-06-27T10:18:39Z</time>
      </trkpt>
      <trkpt lat="49.09529" lon="7.1861">
        <ele>337.7</ele>
        <time>2020-06-27T10:18:40Z</time>
      </trkpt>
      <trkpt lat="49.09526" lon="7.1862">
        <ele>337.6</ele>
        <time>2020-06-27T10:18:41Z</time>
      </trkpt>
      <trkpt lat="49.09522" lon="7.1863">
        <ele>337.5</ele>
        <time>2020-06-27T10:18:42Z</time>
      </trkpt>
      <trkpt lat="49.09519" lon="7.1864">
        <ele>337.5</ele>
        <time>2020-06-27T10:18:43Z</time>
      </trkpt>
      <trkpt lat="49.09515" lon="7.1865">
        <ele>337.5</ele>
        <time>2020-06-27T10:18:44Z</time>
      </trkpt>
      <trkpt lat="49.09512" lon="7.18659">
        <ele>337.5</ele>
        <time>2020-06-27T10:18:45Z</time>
      </trkpt>
      <trkpt lat="49.09509" lon="7.18668">
        <ele>337.5</ele>
        <time>2020-06-27T10:18:46Z</time>
      </trkpt>
      <trkpt lat="49.09506" lon="7.18677">
        <ele>337.6</ele>
        <time>2020-06-27T10:18:47Z</time>
      </trkpt>
      <trkpt lat="49.09503" lon="7.18686">
        <ele>337.7</ele>
        <time>2020-06-27T10:18:48Z</time>
      </trkpt>
      <trkpt lat="49.09499" lon="7.18696">
        <ele>337.7</ele>
        <time>2020-06-27T10:18:49Z</time>
      </trkpt>
      <trkpt lat="49.09496" lon="7.18705">
        <ele>337.8</ele>
        <time>2020-06-27T10:18:50Z</time>
      </trkpt>
      <trkpt lat="49.09493" lon="7.18714">
        <ele>337.8</ele>
        <time>2020-06-27T10:18:51Z</time>
      </trkpt>
      <trkpt lat="49.0949" lon="7.18722">
        <ele>337.9</ele>
        <time>2020-06-27T10:18:52Z</time>
      </trkpt>
      <trkpt lat="49.09488" lon="7.18731">
        <ele>337.9</ele>
        <time>2020-06-27T10:18:53Z</time>
      </trkpt>
      <trkpt lat="49.09485" lon="7.1874">
        <ele>338</ele>
        <time>2020-06-27T10:18:54Z</time>
      </trkpt>
      <trkpt lat="49.09482" lon="7.18748">
        <ele>338.1</ele>
        <time>2020-06-27T10:18:55Z</time>
      </trkpt>
      <trkpt lat="49.09479" lon="7.18757">
        <ele>338.3</ele>
        <time>2020-06-27T10:18:56Z</time>
      </trkpt>
      <trkpt lat="49.09476" lon="7.18765">
        <ele>338.4</ele>
        <time>2020-06-27T10:18:57Z</time>
      </trkpt>
      <trkpt lat="49.09473" lon="7.18773">
        <ele>338.5</ele>
        <time>2020-06-27T10:18:58Z</time>
      </trkpt>
      <trkpt lat="49.0947" lon="7.18781">
        <ele>338.5</ele>
        <time>2020-06-27T10:18:59Z</time>
      </trkpt>
      <trkpt lat="49.09467" lon="7.1879">
        <ele>338.6</ele>
        <time>2020-06-27T10:19:00Z</time>
      </trkpt>
      <trkpt lat="49.09465" lon="7.18798">
        <ele>338.7</ele>
        <time>2020-06-27T10:19:01Z</time>
      </trkpt>
      <trkpt lat="49.09462" lon="7.18807">
        <ele>338.8</ele>
        <time>2020-06-27T10:19:02Z</time>
      </trkpt>
      <trkpt lat="49.09459" lon="7.18815">
        <ele>338.9</ele>
        <time>2020-06-27T10:19:03Z</time>
      </trkpt>
      <trkpt lat="49.09456" lon="7.18823">
        <ele>339</ele>
        <time>2020-06-27T10:19:04Z</time>
      </trkpt>
      <trkpt lat="49.09453" lon="7.18831">
        <ele>339.1</ele>
        <time>2020-06-27T10:19:05Z</time>
      </trkpt>
      <trkpt lat="49.0945" lon="7.1884">
        <ele>339.2</ele>
        <time>2020-06-27T10:19:06Z</time>
      </trkpt>
      <trkpt lat="49.09447" lon="7.18848">
        <ele>339.3</ele>
        <time>2020-06-27T10:19:07Z</time>
      </trkpt>
      <trkpt lat="49.09444" lon="7.18856">
        <ele>339.4</ele>
        <time>2020-06-27T10:19:08Z</time>
      </trkpt>
      <trkpt lat="49.09441" lon="7.18864">
        <ele>339.4</ele>
        <time>2020-06-27T10:19:09Z</time>
      </trkpt>
      <trkpt lat="49.09439" lon="7.18872">
        <ele>339.5</ele>
        <time>2020-06-27T10:19:10Z</time>
      </trkpt>
      <trkpt lat="49.09436" lon="7.18879">
        <ele>339.5</ele>
        <time>2020-06-27T10:19:11Z</time>
      </trkpt>
      <trkpt lat="49.09433" lon="7.18886">
        <ele>339.5</ele>
        <time>2020-06-27T10:19:12Z</time>
      </trkpt>
      <trkpt lat="49.09431" lon="7.18894">
        <ele>339.5</ele>
        <time>2020-06-27T10:19:13Z</time>
      </trkpt>
      <trkpt lat="49.09428" lon="7.18902">
        <ele>339.6</ele>
        <time>2020-06-27T10:19:14Z</time>
      </trkpt>
      <trkpt lat="49.09426" lon="7.18911">
        <ele>339.6</ele>
        <time>2020-06-27T10:19:15Z</time>
      </trkpt>
      <trkpt lat="49.09424" lon="7.18919">
        <ele>339.6</ele>
        <time>2020-06-27T10:19:16Z</time>
      </trkpt>
      <trkpt lat="49.09421" lon="7.18928">
        <ele>339.6</ele>
        <time>2020-06-27T10:19:17Z</time>
      </trkpt>
      <trkpt lat="49.09419" lon="7.18936">
        <ele>339.7</ele>
        <time>2020-06-27T10:19:18Z</time>
      </trkpt>
      <trkpt lat="49.09416" lon="7.18945">
        <ele>339.7</ele>
        <time>2020-06-27T10:19:19Z</time>
      </trkpt>
      <trkpt lat="49.09413" lon="7.18953">
        <ele>339.7</ele>
        <time>2020-06-27T10:19:20Z</time>
      </trkpt>
      <trkpt lat="49.09409" lon="7.18961">
        <ele>339.7</ele>
        <time>2020-06-27T10:19:21Z</time>
      </trkpt>
      <trkpt lat="49.09407" lon="7.18971">
        <ele>339.7</ele>
        <time>2020-06-27T10:19:22Z</time>
      </trkpt>
      <trkpt lat="49.09404" lon="7.1898">
        <ele>339.8</ele>
        <time>2020-06-27T10:19:23Z</time>
      </trkpt>
      <trkpt lat="49.09402" lon="7.18989">
        <ele>339.9</ele>
        <time>2020-06-27T10:19:24Z</time>
      </trkpt>
      <trkpt lat="49.09398" lon="7.18997">
        <ele>340</ele>
        <time>2020-06-27T10:19:25Z</time>
      </trkpt>
      <trkpt lat="49.09395" lon="7.19005">
        <ele>340.3</ele>
        <time>2020-06-27T10:19:26Z</time>
      </trkpt>
      <trkpt lat="49.09392" lon="7.19013">
        <ele>340.6</ele>
        <time>2020-06-27T10:19:27Z</time>
      </trkpt>
      <trkpt lat="49.09388" lon="7.1902">
        <ele>340.8</ele>
        <time>2020-06-27T10:19:28Z</time>
      </trkpt>
      <trkpt lat="49.09386" lon="7.19028">
        <ele>340.8</ele>
        <time>2020-06-27T10:19:29Z</time>
      </trkpt>
      <trkpt lat="49.09384" lon="7.19036">
        <ele>340.8</ele>
        <time>2020-06-27T10:19:30Z</time>
      </trkpt>
      <trkpt lat="49.09381" lon="7.19043">
        <ele>340.7</ele>
        <time>2020-06-27T10:19:31Z</time>
      </trkpt>
      <trkpt lat="49.09379" lon="7.19052">
        <ele>340.7</ele>
        <time>2020-06-27T10:19:32Z</time>
      </trkpt>
      <trkpt lat="49.09376" lon="7.1906">
        <ele>340.7</ele>
        <time>2020-06-27T10:19:33Z</time>
      </trkpt>
      <trkpt lat="49.09373" lon="7.19068">
        <ele>340.7</ele>
        <time>2020-06-27T10:19:34Z</time>
      </trkpt>
      <trkpt lat="49.09371" lon="7.19077">
        <ele>340.6</ele>
        <time>2020-06-27T10:19:35Z</time>
      </trkpt>
      <trkpt lat="49.09368" lon="7.19085">
        <ele>340.6</ele>
        <time>2020-06-27T10:19:36Z</time>
      </trkpt>
      <trkpt lat="49.09365" lon="7.19093">
        <ele>340.6</ele>
        <time>2020-06-27T10:19:37Z</time>
      </trkpt>
      <trkpt lat="49.09362" lon="7.19101">
        <ele>340.5</ele>
        <time>2020-06-27T10:19:38Z</time>
      </trkpt>
      <trkpt lat="49.0936" lon="7.19109">
        <ele>340.5</ele>
        <time>2020-06-27T10:19:39Z</time>
      </trkpt>
      <trkpt lat="49.09358" lon="7.19117">
        <ele>340.4</ele>
        <time>2020-06-27T10:19:40Z</time>
      </trkpt>
      <trkpt lat="49.09356" lon="7.19124">
        <ele>340.3</ele>
        <time>2020-06-27T10:19:41Z</time>
      </trkpt>
      <trkpt lat="49.09354" lon="7.19132">
        <ele>340.3</ele>
        <time>2020-06-27T10:19:42Z</time>
      </trkpt>
      <trkpt lat="49.09351" lon="7.19139">
        <ele>340.2</ele>
        <time>2020-06-27T10:19:43Z</time>
      </trkpt>
      <trkpt lat="49.09348" lon="7.19147">
        <ele>340.1</ele>
        <time>2020-06-27T10:19:44Z</time>
      </trkpt>
      <trkpt lat="49.09345" lon="7.19155">
        <ele>340</ele>
        <time>2020-06-27T10:19:45Z</time>
      </trkpt>
      <trkpt lat="49.09342" lon="7.19164">
        <ele>339.9</ele>
        <time>2020-06-27T10:19:46Z</time>
      </trkpt>
      <trkpt lat="49.09339" lon="7.19173">
        <ele>339.8</ele>
        <time>2020-06-27T10:19:47Z</time>
      </trkpt>
      <trkpt lat="49.09337" lon="7.19181">
        <ele>339.8</ele>
        <time>2020-06-27T10:19:48Z</time>
      </trkpt>
      <trkpt lat="49.09334" lon="7.1919">
        <ele>339.7</ele>
        <time>2020-06-27T10:19:49Z</time>
      </trkpt>
      <trkpt lat="49.09332" lon="7.19199">
        <ele>339.6</ele>
        <time>2020-06-27T10:19:50Z</time>
      </trkpt>
      <trkpt lat="49.09329" lon="7.19208">
        <ele>339.5</ele>
        <time>2020-06-27T10:19:51Z</time>
      </trkpt>
      <trkpt lat="49.09326" lon="7.19216">
        <ele>339.4</ele>
        <time>2020-06-27T10:19:52Z</time>
      </trkpt>
      <trkpt lat="49.09323" lon="7.19225">
        <ele>339.3</ele>
        <time>2020-06-27T10:19:53Z</time>
      </trkpt>
      <trkpt lat="49.09321" lon="7.19234">
        <ele>339.3</ele>
        <time>2020-06-27T10:19:54Z</time>
      </trkpt>
      <trkpt lat="49.09319" lon="7.19243">
        <ele>339.2</ele>
        <time>2020-06-27T10:19:55Z</time>
      </trkpt>
      <trkpt lat="49.09316" lon="7.19252">
        <ele>339.1</ele>
        <time>2020-06-27T10:19:56Z</time>
      </trkpt>
      <trkpt lat="49.09313" lon="7.1926">
        <ele>339.1</ele>
        <time>2020-06-27T10:19:57Z</time>
      </trkpt>
      <trkpt lat="49.09309" lon="7.19268">
        <ele>339</ele>
        <time>2020-06-27T10:19:58Z</time>
      </trkpt>
      <trkpt lat="49.09305" lon="7.19276">
        <ele>338.9</ele>
        <time>2020-06-27T10:19:59Z</time>
      </trkpt>
      <trkpt lat="49.09303" lon="7.19285">
        <ele>338.9</ele>
        <time>2020-06-27T10:20:00Z</time>
      </trkpt>
      <trkpt lat="49.09301" lon="7.19293">
        <ele>338.9</ele>
        <time>2020-06-27T10:20:01Z</time>
      </trkpt>
      <trkpt lat="49.09298" lon="7.19302">
        <ele>338.9</ele>
        <time>2020-06-27T10:20:02Z</time>
      </trkpt>
      <trkpt lat="49.09296" lon="7.19311">
        <ele>339</ele>
        <time>2020-06-27T10:20:03Z</time>
      </trkpt>
      <trkpt lat="49.09295" lon="7.1932">
        <ele>339.1</ele>
        <time>2020-06-27T10:20:04Z</time>
      </trkpt>
      <trkpt lat="49.09293" lon="7.19329">
        <ele>338.9</ele>
        <time>2020-06-27T10:20:05Z</time>
      </trkpt>
      <trkpt lat="49.0929" lon="7.19338">
        <ele>338.7</ele>
        <time>2020-06-27T10:20:06Z</time>
      </trkpt>
      <trkpt lat="49.09288" lon="7.19347">
        <ele>338.6</ele>
        <time>2020-06-27T10:20:07Z</time>
      </trkpt>
      <trkpt lat="49.09285" lon="7.19356">
        <ele>338.4</ele>
        <time>2020-06-27T10:20:08Z</time>
      </trkpt>
      <trkpt lat="49.09281" lon="7.19365">
        <ele>338.3</ele>
        <time>2020-06-27T10:20:09Z</time>
      </trkpt>
      <trkpt lat="49.09279" lon="7.19375">
        <ele>338.2</ele>
        <time>2020-06-27T10:20:10Z</time>
      </trkpt>
      <trkpt lat="49.09276" lon="7.19384">
        <ele>338.1</ele>
        <time>2020-06-27T10:20:11Z</time>
      </trkpt>
      <trkpt lat="49.09272" lon="7.19393">
        <ele>338.1</ele>
        <time>2020-06-27T10:20:12Z</time>
      </trkpt>
      <trkpt lat="49.09269" lon="7.19402">
        <ele>338.1</ele>
        <time>2020-06-27T10:20:13Z</time>
      </trkpt>
      <trkpt lat="49.09265" lon="7.1941">
        <ele>338.2</ele>
        <time>2020-06-27T10:20:14Z</time>
      </trkpt>
      <trkpt lat="49.09263" lon="7.19418">
        <ele>338.2</ele>
        <time>2020-06-27T10:20:15Z</time>
      </trkpt>
      <trkpt lat="49.0926" lon="7.19426">
        <ele>338.2</ele>
        <time>2020-06-27T10:20:16Z</time>
      </trkpt>
      <trkpt lat="49.09258" lon="7.19433">
        <ele>338.3</ele>
        <time>2020-06-27T10:20:17Z</time>
      </trkpt>
      <trkpt lat="49.09254" lon="7.19439">
        <ele>338.4</ele>
        <time>2020-06-27T10:20:18Z</time>
      </trkpt>
      <trkpt lat="49.09251" lon="7.19444">
        <ele>338.5</ele>
        <time>2020-06-27T10:20:19Z</time>
      </trkpt>
      <trkpt lat="49.09246" lon="7.19447">
        <ele>338.6</ele>
        <time>2020-06-27T10:20:20Z</time>
      </trkpt>
      <trkpt lat="49.09241" lon="7.19448">
        <ele>339.4</ele>
        <time>2020-06-27T10:20:21Z</time>
      </trkpt>
      <trkpt lat="49.09236" lon="7.19451">
        <ele>339.6</ele>
        <time>2020-06-27T10:20:22Z</time>
      </trkpt>
      <trkpt lat="49.09232" lon="7.19454">
        <ele>339.4</ele>
        <time>2020-06-27T10:20:23Z</time>
      </trkpt>
      <trkpt lat="49.09227" lon="7.19458">
        <ele>339.3</ele>
        <time>2020-06-27T10:20:24Z</time>
      </trkpt>
      <trkpt lat="49.09224" lon="7.19465">
        <ele>339.2</ele>
        <time>2020-06-27T10:20:25Z</time>
      </trkpt>
      <trkpt lat="49.09222" lon="7.19472">
        <ele>339.1</ele>
        <time>2020-06-27T10:20:26Z</time>
      </trkpt>
      <trkpt lat="49.09221" lon="7.1948">
        <ele>339.2</ele>
        <time>2020-06-27T10:20:27Z</time>
      </trkpt>
      <trkpt lat="49.0922" lon="7.19488">
        <ele>339.2</ele>
        <time>2020-06-27T10:20:28Z</time>
      </trkpt>
      <trkpt lat="49.0922" lon="7.19495">
        <ele>339.2</ele>
        <time>2020-06-27T10:20:29Z</time>
      </trkpt>
      <trkpt lat="49.0922" lon="7.19502">
        <ele>339.2</ele>
        <time>2020-06-27T10:20:30Z</time>
      </trkpt>
      <trkpt lat="49.09219" lon="7.19509">
        <ele>339.2</ele>
        <time>2020-06-27T10:20:31Z</time>
      </trkpt>
      <trkpt lat="49.09217" lon="7.19516">
        <ele>339.3</ele>
        <time>2020-06-27T10:20:32Z</time>
      </trkpt>
      <trkpt lat="49.09213" lon="7.19522">
        <ele>339.3</ele>
        <time>2020-06-27T10:20:33Z</time>
      </trkpt>
      <trkpt lat="49.09209" lon="7.19528">
        <ele>339.4</ele>
        <time>2020-06-27T10:20:34Z</time>
      </trkpt>
      <trkpt lat="49.09205" lon="7.19534">
        <ele>339.6</ele>
        <time>2020-06-27T10:20:35Z</time>
      </trkpt>
      <trkpt lat="49.09201" lon="7.1954">
        <ele>339.7</ele>
        <time>2020-06-27T10:20:36Z</time>
      </trkpt>
      <trkpt lat="49.09198" lon="7.19546">
        <ele>339.9</ele>
        <time>2020-06-27T10:20:37Z</time>
      </trkpt>
      <trkpt lat="49.09194" lon="7.19551">
        <ele>340</ele>
        <time>2020-06-27T10:20:38Z</time>
      </trkpt>
      <trkpt lat="49.0919" lon="7.19556">
        <ele>340.2</ele>
        <time>2020-06-27T10:20:39Z</time>
      </trkpt>
      <trkpt lat="49.09187" lon="7.1956">
        <ele>340.3</ele>
        <time>2020-06-27T10:20:40Z</time>
      </trkpt>
      <trkpt lat="49.09183" lon="7.19564">
        <ele>340.5</ele>
        <time>2020-06-27T10:20:41Z</time>
      </trkpt>
      <trkpt lat="49.0918" lon="7.19568">
        <ele>340.6</ele>
        <time>2020-06-27T10:20:42Z</time>
      </trkpt>
      <trkpt lat="49.09178" lon="7.19572">
        <ele>340.7</ele>
        <time>2020-06-27T10:20:43Z</time>
      </trkpt>
      <trkpt lat="49.09175" lon="7.19576">
        <ele>340.9</ele>
        <time>2020-06-27T10:20:44Z</time>
      </trkpt>
      <trkpt lat="49.09172" lon="7.19579">
        <ele>341.1</ele>
        <time>2020-06-27T10:20:45Z</time>
      </trkpt>
      <trkpt lat="49.09169" lon="7.19583">
        <ele>341.3</ele>
        <time>2020-06-27T10:20:46Z</time>
      </trkpt>
      <trkpt lat="49.09165" lon="7.19587">
        <ele>341.5</ele>
        <time>2020-06-27T10:20:47Z</time>
      </trkpt>
      <trkpt lat="49.09162" lon="7.1959">
        <ele>341.6</ele>
        <time>2020-06-27T10:20:48Z</time>
      </trkpt>
      <trkpt lat="49.09159" lon="7.19594">
        <ele>341.8</ele>
        <time>2020-06-27T10:20:49Z</time>
      </trkpt>
      <trkpt lat="49.09157" lon="7.19599">
        <ele>342</ele>
        <time>2020-06-27T10:20:50Z</time>
      </trkpt>
      <trkpt lat="49.09155" lon="7.19603">
        <ele>342.2</ele>
        <time>2020-06-27T10:20:51Z</time>
      </trkpt>
      <trkpt lat="49.09153" lon="7.19607">
        <ele>342.3</ele>
        <time>2020-06-27T10:20:52Z</time>
      </trkpt>
      <trkpt lat="49.0915" lon="7.1961">
        <ele>342.5</ele>
        <time>2020-06-27T10:20:53Z</time>
      </trkpt>
      <trkpt lat="49.09148" lon="7.19613">
        <ele>342.7</ele>
        <time>2020-06-27T10:20:54Z</time>
      </trkpt>
      <trkpt lat="49.09146" lon="7.19616">
        <ele>342.8</ele>
        <time>2020-06-27T10:20:55Z</time>
      </trkpt>
      <trkpt lat="49.09144" lon="7.19618">
        <ele>343</ele>
        <time>2020-06-27T10:20:56Z</time>
      </trkpt>
      <trkpt lat="49.09141" lon="7.19622">
        <ele>343.1</ele>
        <time>2020-06-27T10:20:57Z</time>
      </trkpt>
      <trkpt lat="49.09139" lon="7.19624">
        <ele>343.3</ele>
        <time>2020-06-27T10:20:58Z</time>
      </trkpt>
      <trkpt lat="49.09136" lon="7.19627">
        <ele>343.4</ele>
        <time>2020-06-27T10:20:59Z</time>
      </trkpt>
      <trkpt lat="49.09134" lon="7.1963">
        <ele>343.6</ele>
        <time>2020-06-27T10:21:00Z</time>
      </trkpt>
      <trkpt lat="49.09132" lon="7.19634">
        <ele>343.8</ele>
        <time>2020-06-27T10:21:01Z</time>
      </trkpt>
      <trkpt lat="49.0913" lon="7.19638">
        <ele>343.9</ele>
        <time>2020-06-27T10:21:02Z</time>
      </trkpt>
      <trkpt lat="49.09127" lon="7.19642">
        <ele>344.1</ele>
        <time>2020-06-27T10:21:03Z</time>
      </trkpt>
      <trkpt lat="49.09125" lon="7.19645">
        <ele>344.3</ele>
        <time>2020-06-27T10:21:04Z</time>
      </trkpt>
      <trkpt lat="49.09122" lon="7.19648">
        <ele>344.5</ele>
        <time>2020-06-27T10:21:05Z</time>
      </trkpt>
      <trkpt lat="49.09119" lon="7.19652">
        <ele>344.7</ele>
        <time>2020-06-27T10:21:06Z</time>
      </trkpt>
      <trkpt lat="49.09116" lon="7.19657">
        <ele>344.9</ele>
        <time>2020-06-27T10:21:07Z</time>
      </trkpt>
      <trkpt lat="49.09112" lon="7.19661">
        <ele>345.2</ele>
        <time>2020-06-27T10:21:08Z</time>
      </trkpt>
      <trkpt lat="49.09109" lon="7.19666">
        <ele>345.4</ele>
        <time>2020-06-27T10:21:09Z</time>
      </trkpt>
      <trkpt lat="49.09106" lon="7.1967">
        <ele>345.6</ele>
        <time>2020-06-27T10:21:10Z</time>
      </trkpt>
      <trkpt lat="49.09103" lon="7.19675">
        <ele>345.9</ele>
        <time>2020-06-27T10:21:11Z</time>
      </trkpt>
      <trkpt lat="49.09099" lon="7.19679">
        <ele>346.1</ele>
        <time>2020-06-27T10:21:12Z</time>
      </trkpt>
      <trkpt lat="49.09096" lon="7.19684">
        <ele>346.4</ele>
        <time>2020-06-27T10:21:13Z</time>
      </trkpt>
      <trkpt lat="49.09092" lon="7.1969">
        <ele>346.7</ele>
        <time>2020-06-27T10:21:14Z</time>
      </trkpt>
      <trkpt lat="49.09088" lon="7.19695">
        <ele>347</ele>
        <time>2020-06-27T10:21:15Z</time>
      </trkpt>
      <trkpt lat="49.09084" lon="7.19699">
        <ele>347.3</ele>
        <time>2020-06-27T10:21:16Z</time>
      </trkpt>
      <trkpt lat="49.0908" lon="7.19703">
        <ele>347.5</ele>
        <time>2020-06-27T10:21:17Z</time>
      </trkpt>
      <trkpt lat="49.09078" lon="7.19708">
        <ele>347.6</ele>
        <time>2020-06-27T10:21:18Z</time>
      </trkpt>
      <trkpt lat="49.09075" lon="7.19712">
        <ele>347.7</ele>
        <time>2020-06-27T10:21:19Z</time>
      </trkpt>
      <trkpt lat="49.09071" lon="7.19715">
        <ele>347.8</ele>
        <time>2020-06-27T10:21:20Z</time>
      </trkpt>
      <trkpt lat="49.09068" lon="7.19719">
        <ele>347.9</ele>
        <time>2020-06-27T10:21:21Z</time>
      </trkpt>
      <trkpt lat="49.09063" lon="7.19724">
        <ele>348</ele>
        <time>2020-06-27T10:21:22Z</time>
      </trkpt>
      <trkpt lat="49.0906" lon="7.1973">
        <ele>348.1</ele>
        <time>2020-06-27T10:21:23Z</time>
      </trkpt>
      <trkpt lat="49.09058" lon="7.19734">
        <ele>348.2</ele>
        <time>2020-06-27T10:21:24Z</time>
      </trkpt>
      <trkpt lat="49.09054" lon="7.19737">
        <ele>348.3</ele>
        <time>2020-06-27T10:21:25Z</time>
      </trkpt>
      <trkpt lat="49.09051" lon="7.19741">
        <ele>348.4</ele>
        <time>2020-06-27T10:21:26Z</time>
      </trkpt>
      <trkpt lat="49.09048" lon="7.19745">
        <ele>348.5</ele>
        <time>2020-06-27T10:21:27Z</time>
      </trkpt>
      <trkpt lat="49.09044" lon="7.19749">
        <ele>348.6</ele>
        <time>2020-06-27T10:21:28Z</time>
      </trkpt>
      <trkpt lat="49.09041" lon="7.19753">
        <ele>348.7</ele>
        <time>2020-06-27T10:21:29Z</time>
      </trkpt>
      <trkpt lat="49.09038" lon="7.19757">
        <ele>348.8</ele>
        <time>2020-06-27T10:21:30Z</time>
      </trkpt>
      <trkpt lat="49.09035" lon="7.19762">
        <ele>348.9</ele>
        <time>2020-06-27T10:21:31Z</time>
      </trkpt>
      <trkpt lat="49.09031" lon="7.19766">
        <ele>349</ele>
        <time>2020-06-27T10:21:32Z</time>
      </trkpt>
      <trkpt lat="49.09029" lon="7.19771">
        <ele>349</ele>
        <time>2020-06-27T10:21:33Z</time>
      </trkpt>
      <trkpt lat="49.09026" lon="7.19774">
        <ele>349.1</ele>
        <time>2020-06-27T10:21:34Z</time>
      </trkpt>
      <trkpt lat="49.09023" lon="7.19778">
        <ele>349.1</ele>
        <time>2020-06-27T10:21:35Z</time>
      </trkpt>
      <trkpt lat="49.0902" lon="7.19782">
        <ele>349.2</ele>
        <time>2020-06-27T10:21:36Z</time>
      </trkpt>
      <trkpt lat="49.09017" lon="7.19787">
        <ele>349.4</ele>
        <time>2020-06-27T10:21:37Z</time>
      </trkpt>
      <trkpt lat="49.09014" lon="7.1979">
        <ele>349.5</ele>
        <time>2020-06-27T10:21:38Z</time>
      </trkpt>
      <trkpt lat="49.09011" lon="7.19794">
        <ele>349.6</ele>
        <time>2020-06-27T10:21:39Z</time>
      </trkpt>
      <trkpt lat="49.09008" lon="7.19799">
        <ele>349.7</ele>
        <time>2020-06-27T10:21:40Z</time>
      </trkpt>
      <trkpt lat="49.09005" lon="7.19803">
        <ele>349.8</ele>
        <time>2020-06-27T10:21:41Z</time>
      </trkpt>
      <trkpt lat="49.09002" lon="7.19807">
        <ele>349.8</ele>
        <time>2020-06-27T10:21:42Z</time>
      </trkpt>
      <trkpt lat="49.08999" lon="7.1981">
        <ele>349.9</ele>
        <time>2020-06-27T10:21:43Z</time>
      </trkpt>
      <trkpt lat="49.08995" lon="7.19814">
        <ele>350</ele>
        <time>2020-06-27T10:21:44Z</time>
      </trkpt>
      <trkpt lat="49.08993" lon="7.19819">
        <ele>350</ele>
        <time>2020-06-27T10:21:45Z</time>
      </trkpt>
      <trkpt lat="49.0899" lon="7.19823">
        <ele>350.1</ele>
        <time>2020-06-27T10:21:46Z</time>
      </trkpt>
      <trkpt lat="49.08986" lon="7.19828">
        <ele>350.1</ele>
        <time>2020-06-27T10:21:47Z</time>
      </trkpt>
      <trkpt lat="49.08983" lon="7.19832">
        <ele>350.1</ele>
        <time>2020-06-27T10:21:48Z</time>
      </trkpt>
      <trkpt lat="49.08979" lon="7.19836">
        <ele>350.2</ele>
        <time>2020-06-27T10:21:49Z</time>
      </trkpt>
      <trkpt lat="49.08975" lon="7.1984">
        <ele>350.2</ele>
        <time>2020-06-27T10:21:50Z</time>
      </trkpt>
      <trkpt lat="49.08971" lon="7.19845">
        <ele>350.3</ele>
        <time>2020-06-27T10:21:51Z</time>
      </trkpt>
      <trkpt lat="49.08967" lon="7.19852">
        <ele>350.4</ele>
        <time>2020-06-27T10:21:52Z</time>
      </trkpt>
      <trkpt lat="49.08963" lon="7.19857">
        <ele>350.5</ele>
        <time>2020-06-27T10:21:53Z</time>
      </trkpt>
      <trkpt lat="49.08961" lon="7.1986">
        <ele>350.5</ele>
        <time>2020-06-27T10:21:54Z</time>
      </trkpt>
      <trkpt lat="49.08957" lon="7.19865">
        <ele>350.6</ele>
        <time>2020-06-27T10:21:55Z</time>
      </trkpt>
      <trkpt lat="49.08954" lon="7.19869">
        <ele>350.7</ele>
        <time>2020-06-27T10:21:56Z</time>
      </trkpt>
      <trkpt lat="49.0895" lon="7.19874">
        <ele>350.8</ele>
        <time>2020-06-27T10:21:57Z</time>
      </trkpt>
      <trkpt lat="49.08947" lon="7.19879">
        <ele>350.8</ele>
        <time>2020-06-27T10:21:58Z</time>
      </trkpt>
      <trkpt lat="49.08944" lon="7.19883">
        <ele>350.9</ele>
        <time>2020-06-27T10:21:59Z</time>
      </trkpt>
      <trkpt lat="49.0894" lon="7.19888">
        <ele>350.9</ele>
        <time>2020-06-27T10:22:00Z</time>
      </trkpt>
      <trkpt lat="49.08936" lon="7.19893">
        <ele>350.9</ele>
        <time>2020-06-27T10:22:01Z</time>
      </trkpt>
      <trkpt lat="49.08933" lon="7.19897">
        <ele>351</ele>
        <time>2020-06-27T10:22:02Z</time>
      </trkpt>
      <trkpt lat="49.0893" lon="7.19902">
        <ele>351</ele>
        <time>2020-06-27T10:22:03Z</time>
      </trkpt>
      <trkpt lat="49.08927" lon="7.19906">
        <ele>351.1</ele>
        <time>2020-06-27T10:22:04Z</time>
      </trkpt>
      <trkpt lat="49.08923" lon="7.19911">
        <ele>351.1</ele>
        <time>2020-06-27T10:22:05Z</time>
      </trkpt>
      <trkpt lat="49.0892" lon="7.19916">
        <ele>351.2</ele>
        <time>2020-06-27T10:22:06Z</time>
      </trkpt>
      <trkpt lat="49.08916" lon="7.19921">
        <ele>351.2</ele>
        <time>2020-06-27T10:22:07Z</time>
      </trkpt>
      <trkpt lat="49.08912" lon="7.19925">
        <ele>351.3</ele>
        <time>2020-06-27T10:22:08Z</time>
      </trkpt>
      <trkpt lat="49.08908" lon="7.1993">
        <ele>351.4</ele>
        <time>2020-06-27T10:22:09Z</time>
      </trkpt>
      <trkpt lat="49.08904" lon="7.19934">
        <ele>351.4</ele>
        <time>2020-06-27T10:22:10Z</time>
      </trkpt>
      <trkpt lat="49.089" lon="7.19938">
        <ele>351.4</ele>
        <time>2020-06-27T10:22:11Z</time>
      </trkpt>
      <trkpt lat="49.08896" lon="7.19943">
        <ele>351.4</ele>
        <time>2020-06-27T10:22:12Z</time>
      </trkpt>
      <trkpt lat="49.08892" lon="7.19948">
        <ele>351.4</ele>
        <time>2020-06-27T10:22:13Z</time>
      </trkpt>
      <trkpt lat="49.08888" lon="7.19954">
        <ele>351.3</ele>
        <time>2020-06-27T10:22:14Z</time>
      </trkpt>
      <trkpt lat="49.08884" lon="7.19958">
        <ele>351.4</ele>
        <time>2020-06-27T10:22:15Z</time>
      </trkpt>
      <trkpt lat="49.0888" lon="7.19963">
        <ele>351.4</ele>
        <time>2020-06-27T10:22:16Z</time>
      </trkpt>
      <trkpt lat="49.08876" lon="7.19968">
        <ele>351.4</ele>
        <time>2020-06-27T10:22:17Z</time>
      </trkpt>
      <trkpt lat="49.08871" lon="7.19971">
        <ele>351.4</ele>
        <time>2020-06-27T10:22:18Z</time>
      </trkpt>
      <trkpt lat="49.08868" lon="7.19978">
        <ele>351.4</ele>
        <time>2020-06-27T10:22:19Z</time>
      </trkpt>
      <trkpt lat="49.08864" lon="7.19982">
        <ele>351.4</ele>
        <time>2020-06-27T10:22:20Z</time>
      </trkpt>
      <trkpt lat="49.0886" lon="7.19987">
        <ele>351.4</ele>
        <time>2020-06-27T10:22:21Z</time>
      </trkpt>
      <trkpt lat="49.08856" lon="7.19992">
        <ele>351.3</ele>
        <time>2020-06-27T10:22:22Z</time>
      </trkpt>
      <trkpt lat="49.08852" lon="7.19998">
        <ele>351.3</ele>
        <time>2020-06-27T10:22:23Z</time>
      </trkpt>
      <trkpt lat="49.08847" lon="7.20003">
        <ele>351.2</ele>
        <time>2020-06-27T10:22:24Z</time>
      </trkpt>
      <trkpt lat="49.08843" lon="7.20009">
        <ele>351.2</ele>
        <time>2020-06-27T10:22:25Z</time>
      </trkpt>
      <trkpt lat="49.08838" lon="7.20014">
        <ele>351.1</ele>
        <time>2020-06-27T10:22:26Z</time>
      </trkpt>
      <trkpt lat="49.08834" lon="7.20019">
        <ele>351.1</ele>
        <time>2020-06-27T10:22:27Z</time>
      </trkpt>
      <trkpt lat="49.0883" lon="7.20023">
        <ele>351</ele>
        <time>2020-06-27T10:22:28Z</time>
      </trkpt>
      <trkpt lat="49.08826" lon="7.20028">
        <ele>351</ele>
        <time>2020-06-27T10:22:29Z</time>
      </trkpt>
      <trkpt lat="49.08822" lon="7.20034">
        <ele>351</ele>
        <time>2020-06-27T10:22:30Z</time>
      </trkpt>
      <trkpt lat="49.08818" lon="7.20039">
        <ele>351</ele>
        <time>2020-06-27T10:22:31Z</time>
      </trkpt>
      <trkpt lat="49.08814" lon="7.20043">
        <ele>350.9</ele>
        <time>2020-06-27T10:22:32Z</time>
      </trkpt>
      <trkpt lat="49.0881" lon="7.20049">
        <ele>350.9</ele>
        <time>2020-06-27T10:22:33Z</time>
      </trkpt>
      <trkpt lat="49.08806" lon="7.20054">
        <ele>350.8</ele>
        <time>2020-06-27T10:22:34Z</time>
      </trkpt>
      <trkpt lat="49.08802" lon="7.2006">
        <ele>350.7</ele>
        <time>2020-06-27T10:22:35Z</time>
      </trkpt>
      <trkpt lat="49.08798" lon="7.20065">
        <ele>350.7</ele>
        <time>2020-06-27T10:22:36Z</time>
      </trkpt>
      <trkpt lat="49.08794" lon="7.2007">
        <ele>350.6</ele>
        <time>2020-06-27T10:22:37Z</time>
      </trkpt>
      <trkpt lat="49.0879" lon="7.20075">
        <ele>350.6</ele>
        <time>2020-06-27T10:22:38Z</time>
      </trkpt>
      <trkpt lat="49.08786" lon="7.2008">
        <ele>350.5</ele>
        <time>2020-06-27T10:22:39Z</time>
      </trkpt>
      <trkpt lat="49.08782" lon="7.20086">
        <ele>350.5</ele>
        <time>2020-06-27T10:22:40Z</time>
      </trkpt>
      <trkpt lat="49.08778" lon="7.20091">
        <ele>350.4</ele>
        <time>2020-06-27T10:22:41Z</time>
      </trkpt>
      <trkpt lat="49.08773" lon="7.20096">
        <ele>350.4</ele>
        <time>2020-06-27T10:22:42Z</time>
      </trkpt>
      <trkpt lat="49.08769" lon="7.20101">
        <ele>350.3</ele>
        <time>2020-06-27T10:22:43Z</time>
      </trkpt>
      <trkpt lat="49.08764" lon="7.20107">
        <ele>350.2</ele>
        <time>2020-06-27T10:22:44Z</time>
      </trkpt>
      <trkpt lat="49.08759" lon="7.20112">
        <ele>350.1</ele>
        <time>2020-06-27T10:22:45Z</time>
      </trkpt>
      <trkpt lat="49.08754" lon="7.20118">
        <ele>350</ele>
        <time>2020-06-27T10:22:46Z</time>
      </trkpt>
      <trkpt lat="49.08749" lon="7.20123">
        <ele>349.8</ele>
        <time>2020-06-27T10:22:47Z</time>
      </trkpt>
      <trkpt lat="49.08744" lon="7.20129">
        <ele>349.7</ele>
        <time>2020-06-27T10:22:48Z</time>
      </trkpt>
      <trkpt lat="49.08739" lon="7.20135">
        <ele>349.6</ele>
        <time>2020-06-27T10:22:49Z</time>
      </trkpt>
      <trkpt lat="49.08734" lon="7.20141">
        <ele>349.5</ele>
        <time>2020-06-27T10:22:50Z</time>
      </trkpt>
      <trkpt lat="49.0873" lon="7.20147">
        <ele>349.4</ele>
        <time>2020-06-27T10:22:51Z</time>
      </trkpt>
      <trkpt lat="49.08726" lon="7.20153">
        <ele>349.3</ele>
        <time>2020-06-27T10:22:52Z</time>
      </trkpt>
      <trkpt lat="49.08721" lon="7.20158">
        <ele>349.2</ele>
        <time>2020-06-27T10:22:53Z</time>
      </trkpt>
      <trkpt lat="49.08717" lon="7.20164">
        <ele>349.1</ele>
        <time>2020-06-27T10:22:54Z</time>
      </trkpt>
      <trkpt lat="49.08712" lon="7.2017">
        <ele>349</ele>
        <time>2020-06-27T10:22:55Z</time>
      </trkpt>
      <trkpt lat="49.08707" lon="7.20177">
        <ele>348.9</ele>
        <time>2020-06-27T10:22:56Z</time>
      </trkpt>
      <trkpt lat="49.08702" lon="7.20184">
        <ele>348.8</ele>
        <time>2020-06-27T10:22:57Z</time>
      </trkpt>
      <trkpt lat="49.08697" lon="7.20191">
        <ele>348.6</ele>
        <time>2020-06-27T10:22:58Z</time>
      </trkpt>
      <trkpt lat="49.08693" lon="7.20196">
        <ele>348.5</ele>
        <time>2020-06-27T10:22:59Z</time>
      </trkpt>
      <trkpt lat="49.08688" lon="7.20202">
        <ele>348.4</ele>
        <time>2020-06-27T10:23:00Z</time>
      </trkpt>
      <trkpt lat="49.08683" lon="7.20208">
        <ele>348.4</ele>
        <time>2020-06-27T10:23:01Z</time>
      </trkpt>
      <trkpt lat="49.08678" lon="7.20213">
        <ele>348.3</ele>
        <time>2020-06-27T10:23:02Z</time>
      </trkpt>
      <trkpt lat="49.08673" lon="7.20219">
        <ele>348.2</ele>
        <time>2020-06-27T10:23:03Z</time>
      </trkpt>
      <trkpt lat="49.08669" lon="7.20225">
        <ele>348.1</ele>
        <time>2020-06-27T10:23:04Z</time>
      </trkpt>
      <trkpt lat="49.08664" lon="7.20232">
        <ele>348</ele>
        <time>2020-06-27T10:23:05Z</time>
      </trkpt>
      <trkpt lat="49.08659" lon="7.20239">
        <ele>347.9</ele>
        <time>2020-06-27T10:23:06Z</time>
      </trkpt>
      <trkpt lat="49.08653" lon="7.20245">
        <ele>347.7</ele>
        <time>2020-06-27T10:23:07Z</time>
      </trkpt>
      <trkpt lat="49.08648" lon="7.20251">
        <ele>347.6</ele>
        <time>2020-06-27T10:23:08Z</time>
      </trkpt>
      <trkpt lat="49.08643" lon="7.20258">
        <ele>347.5</ele>
        <time>2020-06-27T10:23:09Z</time>
      </trkpt>
      <trkpt lat="49.08638" lon="7.20265">
        <ele>347.3</ele>
        <time>2020-06-27T10:23:10Z</time>
      </trkpt>
      <trkpt lat="49.08632" lon="7.20272">
        <ele>347.1</ele>
        <time>2020-06-27T10:23:11Z</time>
      </trkpt>
      <trkpt lat="49.08626" lon="7.2028">
        <ele>347</ele>
        <time>2020-06-27T10:23:12Z</time>
      </trkpt>
      <trkpt lat="49.08621" lon="7.20287">
        <ele>346.8</ele>
        <time>2020-06-27T10:23:13Z</time>
      </trkpt>
      <trkpt lat="49.08614" lon="7.20294">
        <ele>346.6</ele>
        <time>2020-06-27T10:23:14Z</time>
      </trkpt>
      <trkpt lat="49.08609" lon="7.20302">
        <ele>346.4</ele>
        <time>2020-06-27T10:23:15Z</time>
      </trkpt>
      <trkpt lat="49.08603" lon="7.20309">
        <ele>346.3</ele>
        <time>2020-06-27T10:23:16Z</time>
      </trkpt>
      <trkpt lat="49.08597" lon="7.20317">
        <ele>346.2</ele>
        <time>2020-06-27T10:23:17Z</time>
      </trkpt>
      <trkpt lat="49.08591" lon="7.20325">
        <ele>346</ele>
        <time>2020-06-27T10:23:18Z</time>
      </trkpt>
      <trkpt lat="49.08585" lon="7.20332">
        <ele>345.8</ele>
        <time>2020-06-27T10:23:19Z</time>
      </trkpt>
      <trkpt lat="49.08579" lon="7.2034">
        <ele>345.6</ele>
        <time>2020-06-27T10:23:20Z</time>
      </trkpt>
      <trkpt lat="49.08572" lon="7.20347">
        <ele>345.5</ele>
        <time>2020-06-27T10:23:21Z</time>
      </trkpt>
      <trkpt lat="49.08566" lon="7.20355">
        <ele>345.3</ele>
        <time>2020-06-27T10:23:22Z</time>
      </trkpt>
      <trkpt lat="49.0856" lon="7.20362">
        <ele>345.2</ele>
        <time>2020-06-27T10:23:23Z</time>
      </trkpt>
      <trkpt lat="49.08553" lon="7.2037">
        <ele>345.1</ele>
        <time>2020-06-27T10:23:24Z</time>
      </trkpt>
      <trkpt lat="49.08547" lon="7.20378">
        <ele>345.1</ele>
        <time>2020-06-27T10:23:25Z</time>
      </trkpt>
      <trkpt lat="49.0854" lon="7.20386">
        <ele>345</ele>
        <time>2020-06-27T10:23:26Z</time>
      </trkpt>
      <trkpt lat="49.08534" lon="7.20394">
        <ele>345</ele>
        <time>2020-06-27T10:23:27Z</time>
      </trkpt>
      <trkpt lat="49.08528" lon="7.20402">
        <ele>345</ele>
        <time>2020-06-27T10:23:28Z</time>
      </trkpt>
      <trkpt lat="49.08521" lon="7.2041">
        <ele>345</ele>
        <time>2020-06-27T10:23:29Z</time>
      </trkpt>
      <trkpt lat="49.08515" lon="7.20417">
        <ele>344.9</ele>
        <time>2020-06-27T10:23:30Z</time>
      </trkpt>
      <trkpt lat="49.08509" lon="7.20425">
        <ele>344.9</ele>
        <time>2020-06-27T10:23:31Z</time>
      </trkpt>
      <trkpt lat="49.08502" lon="7.20433">
        <ele>345</ele>
        <time>2020-06-27T10:23:32Z</time>
      </trkpt>
      <trkpt lat="49.08497" lon="7.20441">
        <ele>345</ele>
        <time>2020-06-27T10:23:33Z</time>
      </trkpt>
      <trkpt lat="49.08491" lon="7.2045">
        <ele>344.9</ele>
        <time>2020-06-27T10:23:34Z</time>
      </trkpt>
      <trkpt lat="49.08485" lon="7.20457">
        <ele>344.9</ele>
        <time>2020-06-27T10:23:35Z</time>
      </trkpt>
      <trkpt lat="49.08479" lon="7.20464">
        <ele>344.9</ele>
        <time>2020-06-27T10:23:36Z</time>
      </trkpt>
      <trkpt lat="49.08473" lon="7.20471">
        <ele>344.9</ele>
        <time>2020-06-27T10:23:37Z</time>
      </trkpt>
      <trkpt lat="49.08467" lon="7.20478">
        <ele>344.9</ele>
        <time>2020-06-27T10:23:38Z</time>
      </trkpt>
      <trkpt lat="49.08461" lon="7.20485">
        <ele>344.9</ele>
        <time>2020-06-27T10:23:39Z</time>
      </trkpt>
      <trkpt lat="49.08456" lon="7.20491">
        <ele>344.9</ele>
        <time>2020-06-27T10:23:40Z</time>
      </trkpt>
      <trkpt lat="49.0845" lon="7.20498">
        <ele>344.9</ele>
        <time>2020-06-27T10:23:41Z</time>
      </trkpt>
      <trkpt lat="49.08444" lon="7.20504">
        <ele>344.9</ele>
        <time>2020-06-27T10:23:42Z</time>
      </trkpt>
      <trkpt lat="49.08439" lon="7.20511">
        <ele>344.9</ele>
        <time>2020-06-27T10:23:43Z</time>
      </trkpt>
      <trkpt lat="49.08433" lon="7.20518">
        <ele>344.9</ele>
        <time>2020-06-27T10:23:44Z</time>
      </trkpt>
      <trkpt lat="49.08427" lon="7.20525">
        <ele>344.8</ele>
        <time>2020-06-27T10:23:45Z</time>
      </trkpt>
      <trkpt lat="49.08422" lon="7.20531">
        <ele>344.8</ele>
        <time>2020-06-27T10:23:46Z</time>
      </trkpt>
      <trkpt lat="49.08416" lon="7.20537">
        <ele>344.7</ele>
        <time>2020-06-27T10:23:47Z</time>
      </trkpt>
      <trkpt lat="49.0841" lon="7.20543">
        <ele>344.5</ele>
        <time>2020-06-27T10:23:48Z</time>
      </trkpt>
      <trkpt lat="49.08404" lon="7.20549">
        <ele>344.4</ele>
        <time>2020-06-27T10:23:49Z</time>
      </trkpt>
      <trkpt lat="49.08398" lon="7.20555">
        <ele>344.2</ele>
        <time>2020-06-27T10:23:50Z</time>
      </trkpt>
      <trkpt lat="49.08392" lon="7.20561">
        <ele>344</ele>
        <time>2020-06-27T10:23:51Z</time>
      </trkpt>
      <trkpt lat="49.08385" lon="7.20567">
        <ele>343.9</ele>
        <time>2020-06-27T10:23:52Z</time>
      </trkpt>
      <trkpt lat="49.08379" lon="7.20572">
        <ele>343.7</ele>
        <time>2020-06-27T10:23:53Z</time>
      </trkpt>
      <trkpt lat="49.08372" lon="7.20578">
        <ele>343.5</ele>
        <time>2020-06-27T10:23:54Z</time>
      </trkpt>
      <trkpt lat="49.08365" lon="7.20584">
        <ele>343.2</ele>
        <time>2020-06-27T10:23:55Z</time>
      </trkpt>
      <trkpt lat="49.08359" lon="7.20589">
        <ele>343</ele>
        <time>2020-06-27T10:23:56Z</time>
      </trkpt>
      <trkpt lat="49.08352" lon="7.20595">
        <ele>342.8</ele>
        <time>2020-06-27T10:23:57Z</time>
      </trkpt>
      <trkpt lat="49.08345" lon="7.20601">
        <ele>342.6</ele>
        <time>2020-06-27T10:23:58Z</time>
      </trkpt>
      <trkpt lat="49.08339" lon="7.20607">
        <ele>342.3</ele>
        <time>2020-06-27T10:23:59Z</time>
      </trkpt>
      <trkpt lat="49.08332" lon="7.20612">
        <ele>342</ele>
        <time>2020-06-27T10:24:00Z</time>
      </trkpt>
      <trkpt lat="49.08325" lon="7.20617">
        <ele>341.7</ele>
        <time>2020-06-27T10:24:01Z</time>
      </trkpt>
      <trkpt lat="49.08318" lon="7.20622">
        <ele>341.4</ele>
        <time>2020-06-27T10:24:02Z</time>
      </trkpt>
      <trkpt lat="49.08311" lon="7.20626">
        <ele>341.1</ele>
        <time>2020-06-27T10:24:03Z</time>
      </trkpt>
      <trkpt lat="49.08305" lon="7.20631">
        <ele>340.7</ele>
        <time>2020-06-27T10:24:04Z</time>
      </trkpt>
      <trkpt lat="49.08298" lon="7.20636">
        <ele>340.4</ele>
        <time>2020-06-27T10:24:05Z</time>
      </trkpt>
      <trkpt lat="49.08291" lon="7.2064">
        <ele>340</ele>
        <time>2020-06-27T10:24:06Z</time>
      </trkpt>
      <trkpt lat="49.08284" lon="7.20643">
        <ele>339.6</ele>
        <time>2020-06-27T10:24:07Z</time>
      </trkpt>
      <trkpt lat="49.08277" lon="7.20647">
        <ele>339.3</ele>
        <time>2020-06-27T10:24:08Z</time>
      </trkpt>
      <trkpt lat="49.0827" lon="7.20651">
        <ele>338.9</ele>
        <time>2020-06-27T10:24:09Z</time>
      </trkpt>
      <trkpt lat="49.08262" lon="7.20656">
        <ele>338.5</ele>
        <time>2020-06-27T10:24:10Z</time>
      </trkpt>
      <trkpt lat="49.08255" lon="7.2066">
        <ele>338.2</ele>
        <time>2020-06-27T10:24:11Z</time>
      </trkpt>
      <trkpt lat="49.08248" lon="7.20663">
        <ele>337.8</ele>
        <time>2020-06-27T10:24:12Z</time>
      </trkpt>
      <trkpt lat="49.08241" lon="7.20668">
        <ele>337.4</ele>
        <time>2020-06-27T10:24:13Z</time>
      </trkpt>
      <trkpt lat="49.08233" lon="7.20673">
        <ele>337</ele>
        <time>2020-06-27T10:24:14Z</time>
      </trkpt>
      <trkpt lat="49.08226" lon="7.20677">
        <ele>336.7</ele>
        <time>2020-06-27T10:24:15Z</time>
      </trkpt>
      <trkpt lat="49.08218" lon="7.20682">
        <ele>336.4</ele>
        <time>2020-06-27T10:24:16Z</time>
      </trkpt>
      <trkpt lat="49.0821" lon="7.20686">
        <ele>336</ele>
        <time>2020-06-27T10:24:17Z</time>
      </trkpt>
      <trkpt lat="49.08202" lon="7.2069">
        <ele>335.7</ele>
        <time>2020-06-27T10:24:18Z</time>
      </trkpt>
      <trkpt lat="49.08195" lon="7.20694">
        <ele>335.3</ele>
        <time>2020-06-27T10:24:19Z</time>
      </trkpt>
      <trkpt lat="49.08187" lon="7.20699">
        <ele>335</ele>
        <time>2020-06-27T10:24:20Z</time>
      </trkpt>
      <trkpt lat="49.08179" lon="7.20703">
        <ele>334.7</ele>
        <time>2020-06-27T10:24:21Z</time>
      </trkpt>
      <trkpt lat="49.08171" lon="7.20707">
        <ele>334.3</ele>
        <time>2020-06-27T10:24:22Z</time>
      </trkpt>
      <trkpt lat="49.08163" lon="7.20712">
        <ele>334.8</ele>
        <time>2020-06-27T10:24:23Z</time>
      </trkpt>
      <trkpt lat="49.08155" lon="7.20716">
        <ele>334.9</ele>
        <time>2020-06-27T10:24:24Z</time>
      </trkpt>
      <trkpt lat="49.08147" lon="7.2072">
        <ele>334.7</ele>
        <time>2020-06-27T10:24:25Z</time>
      </trkpt>
      <trkpt lat="49.08139" lon="7.20724">
        <ele>334.2</ele>
        <time>2020-06-27T10:24:26Z</time>
      </trkpt>
      <trkpt lat="49.08131" lon="7.20729">
        <ele>333.8</ele>
        <time>2020-06-27T10:24:27Z</time>
      </trkpt>
      <trkpt lat="49.08123" lon="7.20734">
        <ele>333.4</ele>
        <time>2020-06-27T10:24:28Z</time>
      </trkpt>
      <trkpt lat="49.08115" lon="7.20738">
        <ele>333</ele>
        <time>2020-06-27T10:24:29Z</time>
      </trkpt>
      <trkpt lat="49.08106" lon="7.20742">
        <ele>332.5</ele>
        <time>2020-06-27T10:24:30Z</time>
      </trkpt>
      <trkpt lat="49.08098" lon="7.20748">
        <ele>332</ele>
        <time>2020-06-27T10:24:31Z</time>
      </trkpt>
      <trkpt lat="49.0809" lon="7.20753">
        <ele>331.6</ele>
        <time>2020-06-27T10:24:32Z</time>
      </trkpt>
      <trkpt lat="49.08081" lon="7.20758">
        <ele>331.1</ele>
        <time>2020-06-27T10:24:33Z</time>
      </trkpt>
      <trkpt lat="49.08073" lon="7.20763">
        <ele>330.7</ele>
        <time>2020-06-27T10:24:34Z</time>
      </trkpt>
      <trkpt lat="49.08064" lon="7.20767">
        <ele>330.3</ele>
        <time>2020-06-27T10:24:35Z</time>
      </trkpt>
      <trkpt lat="49.08056" lon="7.20772">
        <ele>329.9</ele>
        <time>2020-06-27T10:24:36Z</time>
      </trkpt>
      <trkpt lat="49.08047" lon="7.20776">
        <ele>329.4</ele>
        <time>2020-06-27T10:24:37Z</time>
      </trkpt>
      <trkpt lat="49.08039" lon="7.20781">
        <ele>328.9</ele>
        <time>2020-06-27T10:24:38Z</time>
      </trkpt>
      <trkpt lat="49.08031" lon="7.20786">
        <ele>328.5</ele>
        <time>2020-06-27T10:24:39Z</time>
      </trkpt>
      <trkpt lat="49.08022" lon="7.2079">
        <ele>328</ele>
        <time>2020-06-27T10:24:40Z</time>
      </trkpt>
      <trkpt lat="49.08013" lon="7.20795">
        <ele>327.6</ele>
        <time>2020-06-27T10:24:41Z</time>
      </trkpt>
      <trkpt lat="49.08005" lon="7.208">
        <ele>327.1</ele>
        <time>2020-06-27T10:24:42Z</time>
      </trkpt>
      <trkpt lat="49.07996" lon="7.20805">
        <ele>326.7</ele>
        <time>2020-06-27T10:24:43Z</time>
      </trkpt>
      <trkpt lat="49.07987" lon="7.2081">
        <ele>326.3</ele>
        <time>2020-06-27T10:24:44Z</time>
      </trkpt>
      <trkpt lat="49.07979" lon="7.20815">
        <ele>325.8</ele>
        <time>2020-06-27T10:24:45Z</time>
      </trkpt>
      <trkpt lat="49.0797" lon="7.2082">
        <ele>325.4</ele>
        <time>2020-06-27T10:24:46Z</time>
      </trkpt>
      <trkpt lat="49.07961" lon="7.20825">
        <ele>325</ele>
        <time>2020-06-27T10:24:47Z</time>
      </trkpt>
      <trkpt lat="49.07953" lon="7.2083">
        <ele>324.6</ele>
        <time>2020-06-27T10:24:48Z</time>
      </trkpt>
      <trkpt lat="49.07944" lon="7.20835">
        <ele>324.2</ele>
        <time>2020-06-27T10:24:49Z</time>
      </trkpt>
      <trkpt lat="49.07935" lon="7.2084">
        <ele>323.8</ele>
        <time>2020-06-27T10:24:50Z</time>
      </trkpt>
      <trkpt lat="49.07927" lon="7.20845">
        <ele>323.4</ele>
        <time>2020-06-27T10:24:51Z</time>
      </trkpt>
      <trkpt lat="49.07918" lon="7.2085">
        <ele>323</ele>
        <time>2020-06-27T10:24:52Z</time>
      </trkpt>
      <trkpt lat="49.0791" lon="7.20855">
        <ele>322.6</ele>
        <time>2020-06-27T10:24:53Z</time>
      </trkpt>
      <trkpt lat="49.07901" lon="7.2086">
        <ele>322.2</ele>
        <time>2020-06-27T10:24:54Z</time>
      </trkpt>
      <trkpt lat="49.07892" lon="7.20864">
        <ele>321.9</ele>
        <time>2020-06-27T10:24:55Z</time>
      </trkpt>
      <trkpt lat="49.07883" lon="7.20869">
        <ele>321.4</ele>
        <time>2020-06-27T10:24:56Z</time>
      </trkpt>
      <trkpt lat="49.07874" lon="7.20873">
        <ele>321</ele>
        <time>2020-06-27T10:24:57Z</time>
      </trkpt>
      <trkpt lat="49.07865" lon="7.20877">
        <ele>320.6</ele>
        <time>2020-06-27T10:24:58Z</time>
      </trkpt>
      <trkpt lat="49.07856" lon="7.20882">
        <ele>320.1</ele>
        <time>2020-06-27T10:24:59Z</time>
      </trkpt>
      <trkpt lat="49.07847" lon="7.20888">
        <ele>319.6</ele>
        <time>2020-06-27T10:25:00Z</time>
      </trkpt>
      <trkpt lat="49.07839" lon="7.20893">
        <ele>319.1</ele>
        <time>2020-06-27T10:25:01Z</time>
      </trkpt>
      <trkpt lat="49.0783" lon="7.20898">
        <ele>318.7</ele>
        <time>2020-06-27T10:25:02Z</time>
      </trkpt>
      <trkpt lat="49.07821" lon="7.20903">
        <ele>318.2</ele>
        <time>2020-06-27T10:25:03Z</time>
      </trkpt>
      <trkpt lat="49.07812" lon="7.20908">
        <ele>317.8</ele>
        <time>2020-06-27T10:25:04Z</time>
      </trkpt>
      <trkpt lat="49.07804" lon="7.20913">
        <ele>317.4</ele>
        <time>2020-06-27T10:25:05Z</time>
      </trkpt>
      <trkpt lat="49.07794" lon="7.20918">
        <ele>317.1</ele>
        <time>2020-06-27T10:25:06Z</time>
      </trkpt>
      <trkpt lat="49.07785" lon="7.20922">
        <ele>316.7</ele>
        <time>2020-06-27T10:25:07Z</time>
      </trkpt>
      <trkpt lat="49.07776" lon="7.20927">
        <ele>316.3</ele>
        <time>2020-06-27T10:25:08Z</time>
      </trkpt>
      <trkpt lat="49.07767" lon="7.20931">
        <ele>315.9</ele>
        <time>2020-06-27T10:25:09Z</time>
      </trkpt>
      <trkpt lat="49.07759" lon="7.20936">
        <ele>315.5</ele>
        <time>2020-06-27T10:25:10Z</time>
      </trkpt>
      <trkpt lat="49.0775" lon="7.20942">
        <ele>315.1</ele>
        <time>2020-06-27T10:25:11Z</time>
      </trkpt>
      <trkpt lat="49.07742" lon="7.20947">
        <ele>314.6</ele>
        <time>2020-06-27T10:25:12Z</time>
      </trkpt>
      <trkpt lat="49.07734" lon="7.20952">
        <ele>314.1</ele>
        <time>2020-06-27T10:25:13Z</time>
      </trkpt>
      <trkpt lat="49.07726" lon="7.20958">
        <ele>313.6</ele>
        <time>2020-06-27T10:25:14Z</time>
      </trkpt>
      <trkpt lat="49.07718" lon="7.20966">
        <ele>313.1</ele>
        <time>2020-06-27T10:25:15Z</time>
      </trkpt>
      <trkpt lat="49.0771" lon="7.20973">
        <ele>312.6</ele>
        <time>2020-06-27T10:25:16Z</time>
      </trkpt>
      <trkpt lat="49.07702" lon="7.20981">
        <ele>312.1</ele>
        <time>2020-06-27T10:25:17Z</time>
      </trkpt>
      <trkpt lat="49.07694" lon="7.2099">
        <ele>311.7</ele>
        <time>2020-06-27T10:25:18Z</time>
      </trkpt>
      <trkpt lat="49.07687" lon="7.21">
        <ele>311.2</ele>
        <time>2020-06-27T10:25:19Z</time>
      </trkpt>
      <trkpt lat="49.07679" lon="7.2101">
        <ele>310.6</ele>
        <time>2020-06-27T10:25:20Z</time>
      </trkpt>
      <trkpt lat="49.07672" lon="7.21021">
        <ele>310.2</ele>
        <time>2020-06-27T10:25:21Z</time>
      </trkpt>
      <trkpt lat="49.07665" lon="7.21033">
        <ele>309.7</ele>
        <time>2020-06-27T10:25:22Z</time>
      </trkpt>
      <trkpt lat="49.07658" lon="7.21045">
        <ele>309.3</ele>
        <time>2020-06-27T10:25:23Z</time>
      </trkpt>
      <trkpt lat="49.07652" lon="7.21058">
        <ele>308.8</ele>
        <time>2020-06-27T10:25:24Z</time>
      </trkpt>
      <trkpt lat="49.07646" lon="7.21071">
        <ele>308.2</ele>
        <time>2020-06-27T10:25:25Z</time>
      </trkpt>
      <trkpt lat="49.0764" lon="7.21084">
        <ele>307.7</ele>
        <time>2020-06-27T10:25:26Z</time>
      </trkpt>
      <trkpt lat="49.07634" lon="7.21097">
        <ele>307.2</ele>
        <time>2020-06-27T10:25:27Z</time>
      </trkpt>
      <trkpt lat="49.07628" lon="7.21111">
        <ele>306.7</ele>
        <time>2020-06-27T10:25:28Z</time>
      </trkpt>
      <trkpt lat="49.07622" lon="7.21124">
        <ele>306.2</ele>
        <time>2020-06-27T10:25:29Z</time>
      </trkpt>
      <trkpt lat="49.07616" lon="7.21137">
        <ele>305.6</ele>
        <time>2020-06-27T10:25:30Z</time>
      </trkpt>
      <trkpt lat="49.07609" lon="7.2115">
        <ele>305.2</ele>
        <time>2020-06-27T10:25:31Z</time>
      </trkpt>
      <trkpt lat="49.07603" lon="7.21164">
        <ele>304.7</ele>
        <time>2020-06-27T10:25:32Z</time>
      </trkpt>
      <trkpt lat="49.07597" lon="7.21177">
        <ele>304.3</ele>
        <time>2020-06-27T10:25:33Z</time>
      </trkpt>
      <trkpt lat="49.0759" lon="7.21191">
        <ele>303.7</ele>
        <time>2020-06-27T10:25:34Z</time>
      </trkpt>
      <trkpt lat="49.07584" lon="7.21205">
        <ele>303.2</ele>
        <time>2020-06-27T10:25:35Z</time>
      </trkpt>
      <trkpt lat="49.07578" lon="7.21219">
        <ele>302.6</ele>
        <time>2020-06-27T10:25:36Z</time>
      </trkpt>
      <trkpt lat="49.07571" lon="7.21233">
        <ele>302.1</ele>
        <time>2020-06-27T10:25:37Z</time>
      </trkpt>
      <trkpt lat="49.07565" lon="7.21247">
        <ele>301.5</ele>
        <time>2020-06-27T10:25:38Z</time>
      </trkpt>
      <trkpt lat="49.07559" lon="7.21261">
        <ele>301.1</ele>
        <time>2020-06-27T10:25:39Z</time>
      </trkpt>
      <trkpt lat="49.07552" lon="7.21275">
        <ele>300.6</ele>
        <time>2020-06-27T10:25:40Z</time>
      </trkpt>
      <trkpt lat="49.07546" lon="7.21289">
        <ele>300.1</ele>
        <time>2020-06-27T10:25:41Z</time>
      </trkpt>
      <trkpt lat="49.07539" lon="7.21303">
        <ele>299.7</ele>
        <time>2020-06-27T10:25:42Z</time>
      </trkpt>
      <trkpt lat="49.07532" lon="7.21317">
        <ele>299.2</ele>
        <time>2020-06-27T10:25:43Z</time>
      </trkpt>
      <trkpt lat="49.07526" lon="7.21331">
        <ele>298.8</ele>
        <time>2020-06-27T10:25:44Z</time>
      </trkpt>
      <trkpt lat="49.0752" lon="7.21344">
        <ele>298.5</ele>
        <time>2020-06-27T10:25:45Z</time>
      </trkpt>
      <trkpt lat="49.07514" lon="7.21358">
        <ele>298.2</ele>
        <time>2020-06-27T10:25:46Z</time>
      </trkpt>
      <trkpt lat="49.07508" lon="7.21371">
        <ele>297.9</ele>
        <time>2020-06-27T10:25:47Z</time>
      </trkpt>
      <trkpt lat="49.07502" lon="7.21384">
        <ele>297.4</ele>
        <time>2020-06-27T10:25:48Z</time>
      </trkpt>
      <trkpt lat="49.07497" lon="7.21398">
        <ele>297</ele>
        <time>2020-06-27T10:25:49Z</time>
      </trkpt>
      <trkpt lat="49.07491" lon="7.21411">
        <ele>296.6</ele>
        <time>2020-06-27T10:25:50Z</time>
      </trkpt>
      <trkpt lat="49.07484" lon="7.21425">
        <ele>296.1</ele>
        <time>2020-06-27T10:25:51Z</time>
      </trkpt>
      <trkpt lat="49.07478" lon="7.21438">
        <ele>295.5</ele>
        <time>2020-06-27T10:25:52Z</time>
      </trkpt>
      <trkpt lat="49.07472" lon="7.21452">
        <ele>294.8</ele>
        <time>2020-06-27T10:25:53Z</time>
      </trkpt>
      <trkpt lat="49.07465" lon="7.21465">
        <ele>294.4</ele>
        <time>2020-06-27T10:25:54Z</time>
      </trkpt>
      <trkpt lat="49.07456" lon="7.21477">
        <ele>293.8</ele>
        <time>2020-06-27T10:25:55Z</time>
      </trkpt>
      <trkpt lat="49.07447" lon="7.21488">
        <ele>293.3</ele>
        <time>2020-06-27T10:25:56Z</time>
      </trkpt>
      <trkpt lat="49.07438" lon="7.21499">
        <ele>292.7</ele>
        <time>2020-06-27T10:25:57Z</time>
      </trkpt>
      <trkpt lat="49.07428" lon="7.21508">
        <ele>292.1</ele>
        <time>2020-06-27T10:25:58Z</time>
      </trkpt>
      <trkpt lat="49.07417" lon="7.21515">
        <ele>291.5</ele>
        <time>2020-06-27T10:25:59Z</time>
      </trkpt>
      <trkpt lat="49.07407" lon="7.2152">
        <ele>290.8</ele>
        <time>2020-06-27T10:26:00Z</time>
      </trkpt>
      <trkpt lat="49.07396" lon="7.21522">
        <ele>290.2</ele>
        <time>2020-06-27T10:26:01Z</time>
      </trkpt>
      <trkpt lat="49.07385" lon="7.21524">
        <ele>289.6</ele>
        <time>2020-06-27T10:26:02Z</time>
      </trkpt>
      <trkpt lat="49.07375" lon="7.21524">
        <ele>289</ele>
        <time>2020-06-27T10:26:03Z</time>
      </trkpt>
      <trkpt lat="49.07365" lon="7.21524">
        <ele>288.7</ele>
        <time>2020-06-27T10:26:04Z</time>
      </trkpt>
      <trkpt lat="49.07355" lon="7.21525">
        <ele>288.3</ele>
        <time>2020-06-27T10:26:05Z</time>
      </trkpt>
      <trkpt lat="49.07344" lon="7.21526">
        <ele>287.9</ele>
        <time>2020-06-27T10:26:06Z</time>
      </trkpt>
      <trkpt lat="49.07334" lon="7.21528">
        <ele>287.5</ele>
        <time>2020-06-27T10:26:07Z</time>
      </trkpt>
      <trkpt lat="49.07324" lon="7.21529">
        <ele>287.1</ele>
        <time>2020-06-27T10:26:08Z</time>
      </trkpt>
      <trkpt lat="49.07314" lon="7.21531">
        <ele>286.7</ele>
        <time>2020-06-27T10:26:09Z</time>
      </trkpt>
      <trkpt lat="49.07304" lon="7.21533">
        <ele>286.3</ele>
        <time>2020-06-27T10:26:10Z</time>
      </trkpt>
      <trkpt lat="49.07294" lon="7.21535">
        <ele>285.9</ele>
        <time>2020-06-27T10:26:11Z</time>
      </trkpt>
      <trkpt lat="49.07284" lon="7.21537">
        <ele>285.5</ele>
        <time>2020-06-27T10:26:12Z</time>
      </trkpt>
      <trkpt lat="49.07275" lon="7.2154">
        <ele>285.1</ele>
        <time>2020-06-27T10:26:13Z</time>
      </trkpt>
      <trkpt lat="49.07265" lon="7.21542">
        <ele>284.7</ele>
        <time>2020-06-27T10:26:14Z</time>
      </trkpt>
      <trkpt lat="49.07255" lon="7.21544">
        <ele>284.3</ele>
        <time>2020-06-27T10:26:15Z</time>
      </trkpt>
      <trkpt lat="49.07245" lon="7.21546">
        <ele>283.8</ele>
        <time>2020-06-27T10:26:16Z</time>
      </trkpt>
      <trkpt lat="49.07235" lon="7.21548">
        <ele>283.3</ele>
        <time>2020-06-27T10:26:17Z</time>
      </trkpt>
      <trkpt lat="49.07225" lon="7.21549">
        <ele>282.9</ele>
        <time>2020-06-27T10:26:18Z</time>
      </trkpt>
      <trkpt lat="49.07215" lon="7.21551">
        <ele>282.4</ele>
        <time>2020-06-27T10:26:19Z</time>
      </trkpt>
      <trkpt lat="49.07206" lon="7.21554">
        <ele>282</ele>
        <time>2020-06-27T10:26:20Z</time>
      </trkpt>
      <trkpt lat="49.07196" lon="7.21558">
        <ele>281.5</ele>
        <time>2020-06-27T10:26:21Z</time>
      </trkpt>
      <trkpt lat="49.07187" lon="7.21564">
        <ele>281</ele>
        <time>2020-06-27T10:26:22Z</time>
      </trkpt>
      <trkpt lat="49.07179" lon="7.21573">
        <ele>280.5</ele>
        <time>2020-06-27T10:26:23Z</time>
      </trkpt>
      <trkpt lat="49.07171" lon="7.21583">
        <ele>280</ele>
        <time>2020-06-27T10:26:24Z</time>
      </trkpt>
      <trkpt lat="49.07164" lon="7.21595">
        <ele>279.5</ele>
        <time>2020-06-27T10:26:25Z</time>
      </trkpt>
      <trkpt lat="49.07158" lon="7.21608">
        <ele>279</ele>
        <time>2020-06-27T10:26:26Z</time>
      </trkpt>
      <trkpt lat="49.0715" lon="7.2162">
        <ele>278.6</ele>
        <time>2020-06-27T10:26:27Z</time>
      </trkpt>
      <trkpt lat="49.07144" lon="7.21634">
        <ele>278.2</ele>
        <time>2020-06-27T10:26:28Z</time>
      </trkpt>
      <trkpt lat="49.07138" lon="7.21648">
        <ele>278.1</ele>
        <time>2020-06-27T10:26:29Z</time>
      </trkpt>
      <trkpt lat="49.07132" lon="7.21661">
        <ele>277.9</ele>
        <time>2020-06-27T10:26:30Z</time>
      </trkpt>
      <trkpt lat="49.07126" lon="7.21675">
        <ele>277.7</ele>
        <time>2020-06-27T10:26:31Z</time>
      </trkpt>
      <trkpt lat="49.0712" lon="7.21689">
        <ele>277.4</ele>
        <time>2020-06-27T10:26:32Z</time>
      </trkpt>
      <trkpt lat="49.07113" lon="7.21702">
        <ele>277.1</ele>
        <time>2020-06-27T10:26:33Z</time>
      </trkpt>
      <trkpt lat="49.07108" lon="7.21716">
        <ele>277</ele>
        <time>2020-06-27T10:26:34Z</time>
      </trkpt>
      <trkpt lat="49.07102" lon="7.2173">
        <ele>276.9</ele>
        <time>2020-06-27T10:26:35Z</time>
      </trkpt>
      <trkpt lat="49.07097" lon="7.21743">
        <ele>276.7</ele>
        <time>2020-06-27T10:26:36Z</time>
      </trkpt>
      <trkpt lat="49.07091" lon="7.21756">
        <ele>276.7</ele>
        <time>2020-06-27T10:26:37Z</time>
      </trkpt>
      <trkpt lat="49.07086" lon="7.21769">
        <ele>276.6</ele>
        <time>2020-06-27T10:26:38Z</time>
      </trkpt>
      <trkpt lat="49.07081" lon="7.21781">
        <ele>276.6</ele>
        <time>2020-06-27T10:26:39Z</time>
      </trkpt>
      <trkpt lat="49.07075" lon="7.21794">
        <ele>276.6</ele>
        <time>2020-06-27T10:26:40Z</time>
      </trkpt>
      <trkpt lat="49.07069" lon="7.21804">
        <ele>276.5</ele>
        <time>2020-06-27T10:26:41Z</time>
      </trkpt>
      <trkpt lat="49.07063" lon="7.21815">
        <ele>276.5</ele>
        <time>2020-06-27T10:26:42Z</time>
      </trkpt>
      <trkpt lat="49.07056" lon="7.21823">
        <ele>276.4</ele>
        <time>2020-06-27T10:26:43Z</time>
      </trkpt>
      <trkpt lat="49.07049" lon="7.21832">
        <ele>276.4</ele>
        <time>2020-06-27T10:26:44Z</time>
      </trkpt>
      <trkpt lat="49.07043" lon="7.21841">
        <ele>276.3</ele>
        <time>2020-06-27T10:26:45Z</time>
      </trkpt>
      <trkpt lat="49.07035" lon="7.21849">
        <ele>276.3</ele>
        <time>2020-06-27T10:26:46Z</time>
      </trkpt>
      <trkpt lat="49.07027" lon="7.21855">
        <ele>276.3</ele>
        <time>2020-06-27T10:26:47Z</time>
      </trkpt>
      <trkpt lat="49.07019" lon="7.2186">
        <ele>276.3</ele>
        <time>2020-06-27T10:26:48Z</time>
      </trkpt>
      <trkpt lat="49.07011" lon="7.21865">
        <ele>276.3</ele>
        <time>2020-06-27T10:26:49Z</time>
      </trkpt>
      <trkpt lat="49.07002" lon="7.21869">
        <ele>276.2</ele>
        <time>2020-06-27T10:26:50Z</time>
      </trkpt>
      <trkpt lat="49.06994" lon="7.21873">
        <ele>276.2</ele>
        <time>2020-06-27T10:26:51Z</time>
      </trkpt>
      <trkpt lat="49.06985" lon="7.21876">
        <ele>276.2</ele>
        <time>2020-06-27T10:26:52Z</time>
      </trkpt>
      <trkpt lat="49.06977" lon="7.21879">
        <ele>276.3</ele>
        <time>2020-06-27T10:26:53Z</time>
      </trkpt>
      <trkpt lat="49.06968" lon="7.21881">
        <ele>276.5</ele>
        <time>2020-06-27T10:26:54Z</time>
      </trkpt>
      <trkpt lat="49.0696" lon="7.21884">
        <ele>276.7</ele>
        <time>2020-06-27T10:26:55Z</time>
      </trkpt>
      <trkpt lat="49.06952" lon="7.21886">
        <ele>277</ele>
        <time>2020-06-27T10:26:56Z</time>
      </trkpt>
      <trkpt lat="49.06945" lon="7.21886">
        <ele>277.1</ele>
        <time>2020-06-27T10:26:57Z</time>
      </trkpt>
      <trkpt lat="49.06937" lon="7.21887">
        <ele>277.2</ele>
        <time>2020-06-27T10:26:58Z</time>
      </trkpt>
      <trkpt lat="49.0693" lon="7.21888">
        <ele>277.5</ele>
        <time>2020-06-27T10:26:59Z</time>
      </trkpt>
      <trkpt lat="49.06923" lon="7.2189">
        <ele>277.8</ele>
        <time>2020-06-27T10:27:00Z</time>
      </trkpt>
      <trkpt lat="49.06918" lon="7.21894">
        <ele>278.1</ele>
        <time>2020-06-27T10:27:01Z</time>
      </trkpt>
      <trkpt lat="49.06912" lon="7.21896">
        <ele>278.3</ele>
        <time>2020-06-27T10:27:02Z</time>
      </trkpt>
      <trkpt lat="49.06907" lon="7.21897">
        <ele>278.6</ele>
        <time>2020-06-27T10:27:03Z</time>
      </trkpt>
      <trkpt lat="49.06902" lon="7.21898">
        <ele>278.9</ele>
        <time>2020-06-27T10:27:04Z</time>
      </trkpt>
      <trkpt lat="49.06897" lon="7.219">
        <ele>279.1</ele>
        <time>2020-06-27T10:27:05Z</time>
      </trkpt>
      <trkpt lat="49.06893" lon="7.21902">
        <ele>279.3</ele>
        <time>2020-06-27T10:27:06Z</time>
      </trkpt>
      <trkpt lat="49.0689" lon="7.21904">
        <ele>279.5</ele>
        <time>2020-06-27T10:27:07Z</time>
      </trkpt>
      <trkpt lat="49.06887" lon="7.21905">
        <ele>279.7</ele>
        <time>2020-06-27T10:27:08Z</time>
      </trkpt>
      <trkpt lat="49.06884" lon="7.21907">
        <ele>279.8</ele>
        <time>2020-06-27T10:27:09Z</time>
      </trkpt>
      <trkpt lat="49.06881" lon="7.21909">
        <ele>279.9</ele>
        <time>2020-06-27T10:27:10Z</time>
      </trkpt>
      <trkpt lat="49.06879" lon="7.2191">
        <ele>280</ele>
        <time>2020-06-27T10:27:11Z</time>
      </trkpt>
      <trkpt lat="49.06875" lon="7.21908">
        <ele>280.3</ele>
        <time>2020-06-27T10:27:12Z</time>
      </trkpt>
      <trkpt lat="49.06872" lon="7.21909">
        <ele>280.3</ele>
        <time>2020-06-27T10:27:13Z</time>
      </trkpt>
      <trkpt lat="49.06868" lon="7.21909">
        <ele>280.4</ele>
        <time>2020-06-27T10:27:14Z</time>
      </trkpt>
      <trkpt lat="49.06865" lon="7.21912">
        <ele>280.4</ele>
        <time>2020-06-27T10:27:15Z</time>
      </trkpt>
      <trkpt lat="49.06863" lon="7.21914">
        <ele>280.5</ele>
        <time>2020-06-27T10:27:16Z</time>
      </trkpt>
      <trkpt lat="49.0686" lon="7.21916">
        <ele>280.5</ele>
        <time>2020-06-27T10:27:17Z</time>
      </trkpt>
      <trkpt lat="49.06857" lon="7.21917">
        <ele>280.5</ele>
        <time>2020-06-27T10:27:18Z</time>
      </trkpt>
      <trkpt lat="49.06853" lon="7.21919">
        <ele>280.5</ele>
        <time>2020-06-27T10:27:19Z</time>
      </trkpt>
      <trkpt lat="49.0685" lon="7.2192">
        <ele>280.5</ele>
        <time>2020-06-27T10:27:20Z</time>
      </trkpt>
      <trkpt lat="49.06847" lon="7.21924">
        <ele>280.6</ele>
        <time>2020-06-27T10:27:21Z</time>
      </trkpt>
      <trkpt lat="49.06844" lon="7.21927">
        <ele>280.7</ele>
        <time>2020-06-27T10:27:22Z</time>
      </trkpt>
      <trkpt lat="49.06842" lon="7.2193">
        <ele>280.8</ele>
        <time>2020-06-27T10:27:23Z</time>
      </trkpt>
      <trkpt lat="49.0684" lon="7.21934">
        <ele>280.9</ele>
        <time>2020-06-27T10:27:24Z</time>
      </trkpt>
      <trkpt lat="49.06838" lon="7.21936">
        <ele>281</ele>
        <time>2020-06-27T10:27:25Z</time>
      </trkpt>
      <trkpt lat="49.06836" lon="7.2194">
        <ele>281.1</ele>
        <time>2020-06-27T10:27:26Z</time>
      </trkpt>
      <trkpt lat="49.06834" lon="7.21944">
        <ele>281.2</ele>
        <time>2020-06-27T10:27:27Z</time>
      </trkpt>
      <trkpt lat="49.06831" lon="7.21947">
        <ele>281.3</ele>
        <time>2020-06-27T10:27:28Z</time>
      </trkpt>
      <trkpt lat="49.06829" lon="7.21951">
        <ele>281.4</ele>
        <time>2020-06-27T10:27:29Z</time>
      </trkpt>
      <trkpt lat="49.06828" lon="7.21955">
        <ele>281.5</ele>
        <time>2020-06-27T10:27:30Z</time>
      </trkpt>
      <trkpt lat="49.06826" lon="7.21959">
        <ele>281.6</ele>
        <time>2020-06-27T10:27:31Z</time>
      </trkpt>
      <trkpt lat="49.06825" lon="7.21961">
        <ele>281.6</ele>
        <time>2020-06-27T10:27:32Z</time>
      </trkpt>
      <trkpt lat="49.06822" lon="7.21965">
        <ele>281.7</ele>
        <time>2020-06-27T10:27:33Z</time>
      </trkpt>
      <trkpt lat="49.06821" lon="7.21966">
        <ele>281.7</ele>
        <time>2020-06-27T10:27:34Z</time>
      </trkpt>
      <trkpt lat="49.06819" lon="7.21969">
        <ele>281.8</ele>
        <time>2020-06-27T10:27:35Z</time>
      </trkpt>
      <trkpt lat="49.06818" lon="7.21973">
        <ele>281.9</ele>
        <time>2020-06-27T10:27:36Z</time>
      </trkpt>
      <trkpt lat="49.06815" lon="7.21977">
        <ele>282</ele>
        <time>2020-06-27T10:27:37Z</time>
      </trkpt>
      <trkpt lat="49.06814" lon="7.21978">
        <ele>282</ele>
        <time>2020-06-27T10:27:38Z</time>
      </trkpt>
      <trkpt lat="49.06812" lon="7.21979">
        <ele>282.1</ele>
        <time>2020-06-27T10:27:39Z</time>
      </trkpt>
      <trkpt lat="49.06811" lon="7.21981">
        <ele>282.1</ele>
        <time>2020-06-27T10:27:40Z</time>
      </trkpt>
      <trkpt lat="49.0681" lon="7.21982">
        <ele>282.2</ele>
        <time>2020-06-27T10:27:41Z</time>
      </trkpt>
      <trkpt lat="49.06809" lon="7.21983">
        <ele>282.2</ele>
        <time>2020-06-27T10:27:42Z</time>
      </trkpt>
      <trkpt lat="49.06808" lon="7.21984">
        <ele>282.3</ele>
        <time>2020-06-27T10:27:43Z</time>
      </trkpt>
      <trkpt lat="49.06807" lon="7.21987">
        <ele>282.3</ele>
        <time>2020-06-27T10:27:44Z</time>
      </trkpt>
      <trkpt lat="49.06807" lon="7.21989">
        <ele>282.4</ele>
        <time>2020-06-27T10:27:45Z</time>
      </trkpt>
      <trkpt lat="49.06806" lon="7.2199">
        <ele>282.4</ele>
        <time>2020-06-27T10:27:46Z</time>
      </trkpt>
      <trkpt lat="49.06806" lon="7.2199">
        <ele>282.4</ele>
        <time>2020-06-27T10:27:47Z</time>
      </trkpt>
      <trkpt lat="49.06806" lon="7.2199">
        <ele>282.4</ele>
        <time>2020-06-27T10:27:48Z</time>
      </trkpt>
      <trkpt lat="49.06806" lon="7.2199">
        <ele>282.4</ele>
        <time>2020-06-27T10:27:49Z</time>
      </trkpt>
      <trkpt lat="49.06806" lon="7.2199">
        <ele>282.4</ele>
        <time>2020-06-27T10:27:50Z</time>
      </trkpt>
      <trkpt lat="49.06807" lon="7.21991">
        <ele>282.5</ele>
        <time>2020-06-27T10:27:51Z</time>
      </trkpt>
      <trkpt lat="49.06808" lon="7.21991">
        <ele>282.5</ele>
        <time>2020-06-27T10:27:52Z</time>
      </trkpt>
      <trkpt lat="49.06808" lon="7.21992">
        <ele>282.5</ele>
        <time>2020-06-27T10:27:53Z</time>
      </trkpt>
      <trkpt lat="49.06807" lon="7.21991">
        <ele>282.5</ele>
        <time>2020-06-27T10:27:54Z</time>
      </trkpt>
      <trkpt lat="49.06807" lon="7.21992">
        <ele>282.5</ele>
        <time>2020-06-27T10:27:55Z</time>
      </trkpt>
      <trkpt lat="49.06807" lon="7.21992">
        <ele>282.5</ele>
        <time>2020-06-27T10:27:56Z</time>
      </trkpt>
      <trkpt lat="49.06808" lon="7.21993">
        <ele>282.6</ele>
        <time>2020-06-27T10:27:57Z</time>
      </trkpt>
      <trkpt lat="49.06797" lon="7.22002">
        <ele>283</ele>
        <time>2020-06-27T10:31:39Z</time>
      </trkpt>
      <trkpt lat="49.06797" lon="7.22002">
        <ele>283</ele>
        <time>2020-06-27T10:31:40Z</time>
      </trkpt>
      <trkpt lat="49.06796" lon="7.22001">
        <ele>283</ele>
        <time>2020-06-27T10:31:41Z</time>
      </trkpt>
      <trkpt lat="49.06797" lon="7.22001">
        <ele>283</ele>
        <time>2020-06-27T10:31:42Z</time>
      </trkpt>
      <trkpt lat="49.06796" lon="7.22">
        <ele>283.1</ele>
        <time>2020-06-27T10:31:43Z</time>
      </trkpt>
      <trkpt lat="49.06797" lon="7.21998">
        <ele>283.1</ele>
        <time>2020-06-27T10:31:44Z</time>
      </trkpt>
      <trkpt lat="49.06797" lon="7.21997">
        <ele>283.1</ele>
        <time>2020-06-27T10:31:45Z</time>
      </trkpt>
      <trkpt lat="49.06798" lon="7.21995">
        <ele>283.2</ele>
        <time>2020-06-27T10:31:46Z</time>
      </trkpt>
      <trkpt lat="49.06798" lon="7.21995">
        <ele>283.2</ele>
        <time>2020-06-27T10:31:47Z</time>
      </trkpt>
      <trkpt lat="49.06799" lon="7.21994">
        <ele>283.2</ele>
        <time>2020-06-27T10:31:48Z</time>
      </trkpt>
      <trkpt lat="49.06799" lon="7.21995">
        <ele>283.2</ele>
        <time>2020-06-27T10:31:49Z</time>
      </trkpt>
      <trkpt lat="49.06799" lon="7.21995">
        <ele>283.3</ele>
        <time>2020-06-27T10:31:50Z</time>
      </trkpt>
      <trkpt lat="49.068" lon="7.21996">
        <ele>283.3</ele>
        <time>2020-06-27T10:31:51Z</time>
      </trkpt>
      <trkpt lat="49.068" lon="7.21997">
        <ele>283.3</ele>
        <time>2020-06-27T10:31:52Z</time>
      </trkpt>
      <trkpt lat="49.068" lon="7.21998">
        <ele>283.3</ele>
        <time>2020-06-27T10:31:53Z</time>
      </trkpt>
      <trkpt lat="49.068" lon="7.21998">
        <ele>283.3</ele>
        <time>2020-06-27T10:31:54Z</time>
      </trkpt>
      <trkpt lat="49.068" lon="7.21999">
        <ele>283.3</ele>
        <time>2020-06-27T10:32:44Z</time>
      </trkpt>
      <trkpt lat="49.068" lon="7.22">
        <ele>283.4</ele>
        <time>2020-06-27T10:32:45Z</time>
      </trkpt>
      <trkpt lat="49.06801" lon="7.22001">
        <ele>283.4</ele>
        <time>2020-06-27T10:32:46Z</time>
      </trkpt>
      <trkpt lat="49.06801" lon="7.22001">
        <ele>283.4</ele>
        <time>2020-06-27T10:32:47Z</time>
      </trkpt>
      <trkpt lat="49.06801" lon="7.22002">
        <ele>283.4</ele>
        <time>2020-06-27T10:32:48Z</time>
      </trkpt>
      <trkpt lat="49.06801" lon="7.22003">
        <ele>283.4</ele>
        <time>2020-06-27T10:32:49Z</time>
      </trkpt>
      <trkpt lat="49.06801" lon="7.22004">
        <ele>283.5</ele>
        <time>2020-06-27T10:32:50Z</time>
      </trkpt>
      <trkpt lat="49.06801" lon="7.22005">
        <ele>283.5</ele>
        <time>2020-06-27T10:32:51Z</time>
      </trkpt>
      <trkpt lat="49.06802" lon="7.22005">
        <ele>283.5</ele>
        <time>2020-06-27T10:32:52Z</time>
      </trkpt>
      <trkpt lat="49.06802" lon="7.22006">
        <ele>283.5</ele>
        <time>2020-06-27T10:32:53Z</time>
      </trkpt>
      <trkpt lat="49.06802" lon="7.22007">
        <ele>283.5</ele>
        <time>2020-06-27T10:32:54Z</time>
      </trkpt>
      <trkpt lat="49.06802" lon="7.22008">
        <ele>283.5</ele>
        <time>2020-06-27T10:32:55Z</time>
      </trkpt>
      <trkpt lat="49.06802" lon="7.22008">
        <ele>283.6</ele>
        <time>2020-06-27T10:32:56Z</time>
      </trkpt>
      <trkpt lat="49.06803" lon="7.22009">
        <ele>283.6</ele>
        <time>2020-06-27T10:32:57Z</time>
      </trkpt>
      <trkpt lat="49.06803" lon="7.2201">
        <ele>283.6</ele>
        <time>2020-06-27T10:32:58Z</time>
      </trkpt>
      <trkpt lat="49.06803" lon="7.22011">
        <ele>283.6</ele>
        <time>2020-06-27T10:32:59Z</time>
      </trkpt>
      <trkpt lat="49.06803" lon="7.22011">
        <ele>283.6</ele>
        <time>2020-06-27T10:33:00Z</time>
      </trkpt>
      <trkpt lat="49.06803" lon="7.22012">
        <ele>283.7</ele>
        <time>2020-06-27T10:33:01Z</time>
      </trkpt>
      <trkpt lat="49.06803" lon="7.22013">
        <ele>283.7</ele>
        <time>2020-06-27T10:33:02Z</time>
      </trkpt>
      <trkpt lat="49.06804" lon="7.22014">
        <ele>283.7</ele>
        <time>2020-06-27T10:36:20Z</time>
      </trkpt>
      <trkpt lat="49.06804" lon="7.22014">
        <ele>283.7</ele>
        <time>2020-06-27T10:36:21Z</time>
      </trkpt>
      <trkpt lat="49.06804" lon="7.22015">
        <ele>283.7</ele>
        <time>2020-06-27T10:36:22Z</time>
      </trkpt>
      <trkpt lat="49.06802" lon="7.2202">
        <ele>283.9</ele>
        <time>2020-06-27T10:36:23Z</time>
      </trkpt>
      <trkpt lat="49.06801" lon="7.22022">
        <ele>283.9</ele>
        <time>2020-06-27T10:36:24Z</time>
      </trkpt>
      <trkpt lat="49.06799" lon="7.22028">
        <ele>284.1</ele>
        <time>2020-06-27T10:36:25Z</time>
      </trkpt>
      <trkpt lat="49.06798" lon="7.22033">
        <ele>284.2</ele>
        <time>2020-06-27T10:36:26Z</time>
      </trkpt>
      <trkpt lat="49.06796" lon="7.22037">
        <ele>284.4</ele>
        <time>2020-06-27T10:36:27Z</time>
      </trkpt>
      <trkpt lat="49.06793" lon="7.22043">
        <ele>284.5</ele>
        <time>2020-06-27T10:36:28Z</time>
      </trkpt>
      <trkpt lat="49.0679" lon="7.22049">
        <ele>284.9</ele>
        <time>2020-06-27T10:36:29Z</time>
      </trkpt>
      <trkpt lat="49.06788" lon="7.22055">
        <ele>285.1</ele>
        <time>2020-06-27T10:36:30Z</time>
      </trkpt>
      <trkpt lat="49.06786" lon="7.22061">
        <ele>285.3</ele>
        <time>2020-06-27T10:36:31Z</time>
      </trkpt>
      <trkpt lat="49.06784" lon="7.22066">
        <ele>285.5</ele>
        <time>2020-06-27T10:36:32Z</time>
      </trkpt>
      <trkpt lat="49.06782" lon="7.22073">
        <ele>285.8</ele>
        <time>2020-06-27T10:36:33Z</time>
      </trkpt>
      <trkpt lat="49.06781" lon="7.22079">
        <ele>286</ele>
        <time>2020-06-27T10:36:34Z</time>
      </trkpt>
      <trkpt lat="49.0678" lon="7.22083">
        <ele>286.1</ele>
        <time>2020-06-27T10:36:35Z</time>
      </trkpt>
      <trkpt lat="49.0678" lon="7.22087">
        <ele>286.3</ele>
        <time>2020-06-27T10:36:36Z</time>
      </trkpt>
      <trkpt lat="49.0678" lon="7.22092">
        <ele>286.5</ele>
        <time>2020-06-27T10:36:37Z</time>
      </trkpt>
      <trkpt lat="49.06778" lon="7.22098">
        <ele>286.7</ele>
        <time>2020-06-27T10:36:38Z</time>
      </trkpt>
      <trkpt lat="49.06776" lon="7.22104">
        <ele>286.9</ele>
        <time>2020-06-27T10:36:39Z</time>
      </trkpt>
      <trkpt lat="49.06775" lon="7.2211">
        <ele>287.1</ele>
        <time>2020-06-27T10:36:40Z</time>
      </trkpt>
      <trkpt lat="49.06774" lon="7.22116">
        <ele>287.4</ele>
        <time>2020-06-27T10:36:41Z</time>
      </trkpt>
      <trkpt lat="49.06774" lon="7.22121">
        <ele>287.6</ele>
        <time>2020-06-27T10:36:42Z</time>
      </trkpt>
      <trkpt lat="49.06775" lon="7.22125">
        <ele>287.7</ele>
        <time>2020-06-27T10:36:43Z</time>
      </trkpt>
      <trkpt lat="49.06772" lon="7.22132">
        <ele>288</ele>
        <time>2020-06-27T10:36:44Z</time>
      </trkpt>
      <trkpt lat="49.06771" lon="7.22138">
        <ele>288.2</ele>
        <time>2020-06-27T10:36:45Z</time>
      </trkpt>
      <trkpt lat="49.06769" lon="7.22142">
        <ele>288.4</ele>
        <time>2020-06-27T10:36:46Z</time>
      </trkpt>
      <trkpt lat="49.06768" lon="7.22146">
        <ele>288.5</ele>
        <time>2020-06-27T10:36:47Z</time>
      </trkpt>
      <trkpt lat="49.06767" lon="7.22151">
        <ele>288.7</ele>
        <time>2020-06-27T10:36:48Z</time>
      </trkpt>
      <trkpt lat="49.06766" lon="7.22156">
        <ele>288.9</ele>
        <time>2020-06-27T10:36:49Z</time>
      </trkpt>
      <trkpt lat="49.06764" lon="7.22162">
        <ele>289.1</ele>
        <time>2020-06-27T10:36:50Z</time>
      </trkpt>
      <trkpt lat="49.06763" lon="7.22167">
        <ele>289.3</ele>
        <time>2020-06-27T10:36:51Z</time>
      </trkpt>
      <trkpt lat="49.06762" lon="7.22171">
        <ele>289.4</ele>
        <time>2020-06-27T10:36:52Z</time>
      </trkpt>
      <trkpt lat="49.06762" lon="7.22177">
        <ele>289.6</ele>
        <time>2020-06-27T10:36:53Z</time>
      </trkpt>
      <trkpt lat="49.06762" lon="7.22182">
        <ele>289.8</ele>
        <time>2020-06-27T10:36:54Z</time>
      </trkpt>
      <trkpt lat="49.06762" lon="7.22187">
        <ele>290</ele>
        <time>2020-06-27T10:36:55Z</time>
      </trkpt>
      <trkpt lat="49.06761" lon="7.22192">
        <ele>290.1</ele>
        <time>2020-06-27T10:36:56Z</time>
      </trkpt>
      <trkpt lat="49.0676" lon="7.22198">
        <ele>290.3</ele>
        <time>2020-06-27T10:36:57Z</time>
      </trkpt>
      <trkpt lat="49.0676" lon="7.22203">
        <ele>290.5</ele>
        <time>2020-06-27T10:36:58Z</time>
      </trkpt>
      <trkpt lat="49.06759" lon="7.22209">
        <ele>290.6</ele>
        <time>2020-06-27T10:36:59Z</time>
      </trkpt>
      <trkpt lat="49.06758" lon="7.22215">
        <ele>290.8</ele>
        <time>2020-06-27T10:37:00Z</time>
      </trkpt>
      <trkpt lat="49.06757" lon="7.22219">
        <ele>290.9</ele>
        <time>2020-06-27T10:37:01Z</time>
      </trkpt>
      <trkpt lat="49.06757" lon="7.22225">
        <ele>291.1</ele>
        <time>2020-06-27T10:37:02Z</time>
      </trkpt>
      <trkpt lat="49.06756" lon="7.22229">
        <ele>291.2</ele>
        <time>2020-06-27T10:37:03Z</time>
      </trkpt>
      <trkpt lat="49.06756" lon="7.22235">
        <ele>291.4</ele>
        <time>2020-06-27T10:37:04Z</time>
      </trkpt>
      <trkpt lat="49.06755" lon="7.22238">
        <ele>291.5</ele>
        <time>2020-06-27T10:37:05Z</time>
      </trkpt>
      <trkpt lat="49.06756" lon="7.22244">
        <ele>291.7</ele>
        <time>2020-06-27T10:37:06Z</time>
      </trkpt>
      <trkpt lat="49.06756" lon="7.2225">
        <ele>291.8</ele>
        <time>2020-06-27T10:37:07Z</time>
      </trkpt>
      <trkpt lat="49.06757" lon="7.22254">
        <ele>292</ele>
        <time>2020-06-27T10:37:08Z</time>
      </trkpt>
      <trkpt lat="49.06757" lon="7.22259">
        <ele>292.1</ele>
        <time>2020-06-27T10:37:09Z</time>
      </trkpt>
      <trkpt lat="49.06757" lon="7.22264">
        <ele>292.2</ele>
        <time>2020-06-27T10:37:10Z</time>
      </trkpt>
      <trkpt lat="49.06757" lon="7.22268">
        <ele>292.4</ele>
        <time>2020-06-27T10:37:11Z</time>
      </trkpt>
      <trkpt lat="49.06758" lon="7.22272">
        <ele>292.5</ele>
        <time>2020-06-27T10:37:12Z</time>
      </trkpt>
      <trkpt lat="49.06757" lon="7.22278">
        <ele>292.6</ele>
        <time>2020-06-27T10:37:13Z</time>
      </trkpt>
      <trkpt lat="49.06755" lon="7.22282">
        <ele>292.7</ele>
        <time>2020-06-27T10:37:14Z</time>
      </trkpt>
      <trkpt lat="49.06754" lon="7.22288">
        <ele>292.9</ele>
        <time>2020-06-27T10:37:15Z</time>
      </trkpt>
      <trkpt lat="49.06754" lon="7.22294">
        <ele>292.9</ele>
        <time>2020-06-27T10:37:16Z</time>
      </trkpt>
      <trkpt lat="49.06754" lon="7.22296">
        <ele>292.9</ele>
        <time>2020-06-27T10:37:17Z</time>
      </trkpt>
      <trkpt lat="49.06754" lon="7.22301">
        <ele>292.9</ele>
        <time>2020-06-27T10:37:18Z</time>
      </trkpt>
      <trkpt lat="49.06754" lon="7.22306">
        <ele>292.9</ele>
        <time>2020-06-27T10:37:19Z</time>
      </trkpt>
      <trkpt lat="49.06753" lon="7.22311">
        <ele>293</ele>
        <time>2020-06-27T10:37:20Z</time>
      </trkpt>
      <trkpt lat="49.06753" lon="7.22317">
        <ele>293</ele>
        <time>2020-06-27T10:37:21Z</time>
      </trkpt>
      <trkpt lat="49.06752" lon="7.22322">
        <ele>293</ele>
        <time>2020-06-27T10:37:22Z</time>
      </trkpt>
      <trkpt lat="49.06752" lon="7.22328">
        <ele>293</ele>
        <time>2020-06-27T10:37:23Z</time>
      </trkpt>
      <trkpt lat="49.06752" lon="7.22333">
        <ele>293.1</ele>
        <time>2020-06-27T10:37:24Z</time>
      </trkpt>
      <trkpt lat="49.06751" lon="7.22339">
        <ele>293.1</ele>
        <time>2020-06-27T10:37:25Z</time>
      </trkpt>
      <trkpt lat="49.06749" lon="7.22344">
        <ele>293.1</ele>
        <time>2020-06-27T10:37:26Z</time>
      </trkpt>
      <trkpt lat="49.06748" lon="7.22349">
        <ele>293.1</ele>
        <time>2020-06-27T10:37:27Z</time>
      </trkpt>
      <trkpt lat="49.06747" lon="7.22353">
        <ele>293.3</ele>
        <time>2020-06-27T10:37:28Z</time>
      </trkpt>
      <trkpt lat="49.06747" lon="7.22359">
        <ele>293.4</ele>
        <time>2020-06-27T10:37:29Z</time>
      </trkpt>
      <trkpt lat="49.06746" lon="7.22364">
        <ele>293.5</ele>
        <time>2020-06-27T10:37:30Z</time>
      </trkpt>
      <trkpt lat="49.06746" lon="7.22369">
        <ele>293.6</ele>
        <time>2020-06-27T10:37:31Z</time>
      </trkpt>
      <trkpt lat="49.06745" lon="7.22374">
        <ele>293.7</ele>
        <time>2020-06-27T10:37:32Z</time>
      </trkpt>
      <trkpt lat="49.06744" lon="7.2238">
        <ele>293.8</ele>
        <time>2020-06-27T10:37:33Z</time>
      </trkpt>
      <trkpt lat="49.06742" lon="7.22387">
        <ele>294</ele>
        <time>2020-06-27T10:37:34Z</time>
      </trkpt>
      <trkpt lat="49.06739" lon="7.22393">
        <ele>294.1</ele>
        <time>2020-06-27T10:37:35Z</time>
      </trkpt>
      <trkpt lat="49.06738" lon="7.22398">
        <ele>294.2</ele>
        <time>2020-06-27T10:37:36Z</time>
      </trkpt>
      <trkpt lat="49.06735" lon="7.22404">
        <ele>294.3</ele>
        <time>2020-06-27T10:37:37Z</time>
      </trkpt>
      <trkpt lat="49.06733" lon="7.2241">
        <ele>294.5</ele>
        <time>2020-06-27T10:37:38Z</time>
      </trkpt>
      <trkpt lat="49.06732" lon="7.22417">
        <ele>294.6</ele>
        <time>2020-06-27T10:37:39Z</time>
      </trkpt>
      <trkpt lat="49.06729" lon="7.22422">
        <ele>294.7</ele>
        <time>2020-06-27T10:37:40Z</time>
      </trkpt>
      <trkpt lat="49.06727" lon="7.22427">
        <ele>294.8</ele>
        <time>2020-06-27T10:37:41Z</time>
      </trkpt>
      <trkpt lat="49.06724" lon="7.22433">
        <ele>295</ele>
        <time>2020-06-27T10:37:42Z</time>
      </trkpt>
      <trkpt lat="49.06722" lon="7.2244">
        <ele>295.1</ele>
        <time>2020-06-27T10:37:43Z</time>
      </trkpt>
      <trkpt lat="49.06721" lon="7.22445">
        <ele>295.2</ele>
        <time>2020-06-27T10:37:44Z</time>
      </trkpt>
      <trkpt lat="49.0672" lon="7.22449">
        <ele>295.3</ele>
        <time>2020-06-27T10:37:45Z</time>
      </trkpt>
      <trkpt lat="49.06718" lon="7.22454">
        <ele>295.4</ele>
        <time>2020-06-27T10:37:46Z</time>
      </trkpt>
      <trkpt lat="49.06715" lon="7.22458">
        <ele>295.5</ele>
        <time>2020-06-27T10:37:47Z</time>
      </trkpt>
      <trkpt lat="49.06713" lon="7.22463">
        <ele>295.7</ele>
        <time>2020-06-27T10:37:48Z</time>
      </trkpt>
      <trkpt lat="49.06711" lon="7.22467">
        <ele>295.8</ele>
        <time>2020-06-27T10:37:49Z</time>
      </trkpt>
      <trkpt lat="49.06708" lon="7.22472">
        <ele>295.9</ele>
        <time>2020-06-27T10:37:50Z</time>
      </trkpt>
      <trkpt lat="49.06706" lon="7.22476">
        <ele>296</ele>
        <time>2020-06-27T10:37:51Z</time>
      </trkpt>
      <trkpt lat="49.06704" lon="7.22482">
        <ele>296.1</ele>
        <time>2020-06-27T10:37:52Z</time>
      </trkpt>
      <trkpt lat="49.06701" lon="7.22487">
        <ele>296.2</ele>
        <time>2020-06-27T10:37:53Z</time>
      </trkpt>
      <trkpt lat="49.06699" lon="7.22492">
        <ele>296.3</ele>
        <time>2020-06-27T10:37:54Z</time>
      </trkpt>
      <trkpt lat="49.06696" lon="7.22498">
        <ele>296.4</ele>
        <time>2020-06-27T10:37:55Z</time>
      </trkpt>
      <trkpt lat="49.06693" lon="7.22503">
        <ele>296.5</ele>
        <time>2020-06-27T10:37:56Z</time>
      </trkpt>
      <trkpt lat="49.06691" lon="7.22508">
        <ele>296.6</ele>
        <time>2020-06-27T10:37:57Z</time>
      </trkpt>
      <trkpt lat="49.0669" lon="7.22514">
        <ele>296.7</ele>
        <time>2020-06-27T10:37:58Z</time>
      </trkpt>
      <trkpt lat="49.06688" lon="7.22517">
        <ele>296.8</ele>
        <time>2020-06-27T10:37:59Z</time>
      </trkpt>
      <trkpt lat="49.06686" lon="7.22523">
        <ele>296.9</ele>
        <time>2020-06-27T10:38:00Z</time>
      </trkpt>
      <trkpt lat="49.06683" lon="7.22528">
        <ele>297.1</ele>
        <time>2020-06-27T10:38:01Z</time>
      </trkpt>
      <trkpt lat="49.06681" lon="7.22531">
        <ele>297.2</ele>
        <time>2020-06-27T10:38:02Z</time>
      </trkpt>
      <trkpt lat="49.06677" lon="7.22534">
        <ele>297.3</ele>
        <time>2020-06-27T10:38:03Z</time>
      </trkpt>
      <trkpt lat="49.06675" lon="7.22539">
        <ele>297.3</ele>
        <time>2020-06-27T10:38:04Z</time>
      </trkpt>
      <trkpt lat="49.06673" lon="7.22543">
        <ele>297.4</ele>
        <time>2020-06-27T10:38:05Z</time>
      </trkpt>
      <trkpt lat="49.06671" lon="7.22548">
        <ele>297.4</ele>
        <time>2020-06-27T10:38:06Z</time>
      </trkpt>
      <trkpt lat="49.06668" lon="7.22553">
        <ele>297.5</ele>
        <time>2020-06-27T10:38:07Z</time>
      </trkpt>
      <trkpt lat="49.06664" lon="7.22558">
        <ele>297.6</ele>
        <time>2020-06-27T10:38:08Z</time>
      </trkpt>
      <trkpt lat="49.06662" lon="7.22563">
        <ele>297.6</ele>
        <time>2020-06-27T10:38:09Z</time>
      </trkpt>
      <trkpt lat="49.06658" lon="7.22569">
        <ele>297.8</ele>
        <time>2020-06-27T10:38:10Z</time>
      </trkpt>
      <trkpt lat="49.06655" lon="7.22574">
        <ele>297.8</ele>
        <time>2020-06-27T10:38:11Z</time>
      </trkpt>
      <trkpt lat="49.06652" lon="7.22578">
        <ele>297.9</ele>
        <time>2020-06-27T10:38:12Z</time>
      </trkpt>
      <trkpt lat="49.0665" lon="7.22582">
        <ele>298</ele>
        <time>2020-06-27T10:38:13Z</time>
      </trkpt>
      <trkpt lat="49.06647" lon="7.22587">
        <ele>298.1</ele>
        <time>2020-06-27T10:38:14Z</time>
      </trkpt>
      <trkpt lat="49.06646" lon="7.22594">
        <ele>298.3</ele>
        <time>2020-06-27T10:38:15Z</time>
      </trkpt>
      <trkpt lat="49.06644" lon="7.22599">
        <ele>298.4</ele>
        <time>2020-06-27T10:38:16Z</time>
      </trkpt>
      <trkpt lat="49.06641" lon="7.22603">
        <ele>298.5</ele>
        <time>2020-06-27T10:38:17Z</time>
      </trkpt>
      <trkpt lat="49.06639" lon="7.22606">
        <ele>298.6</ele>
        <time>2020-06-27T10:38:18Z</time>
      </trkpt>
      <trkpt lat="49.06636" lon="7.22612">
        <ele>298.7</ele>
        <time>2020-06-27T10:38:19Z</time>
      </trkpt>
      <trkpt lat="49.06633" lon="7.22616">
        <ele>298.8</ele>
        <time>2020-06-27T10:38:20Z</time>
      </trkpt>
      <trkpt lat="49.0663" lon="7.2262">
        <ele>298.9</ele>
        <time>2020-06-27T10:38:21Z</time>
      </trkpt>
      <trkpt lat="49.06627" lon="7.22623">
        <ele>299</ele>
        <time>2020-06-27T10:38:22Z</time>
      </trkpt>
      <trkpt lat="49.06624" lon="7.22627">
        <ele>299.1</ele>
        <time>2020-06-27T10:38:23Z</time>
      </trkpt>
      <trkpt lat="49.06622" lon="7.22633">
        <ele>299.2</ele>
        <time>2020-06-27T10:38:24Z</time>
      </trkpt>
      <trkpt lat="49.06619" lon="7.22638">
        <ele>299.3</ele>
        <time>2020-06-27T10:38:25Z</time>
      </trkpt>
      <trkpt lat="49.06616" lon="7.22642">
        <ele>299.4</ele>
        <time>2020-06-27T10:38:26Z</time>
      </trkpt>
      <trkpt lat="49.06613" lon="7.22648">
        <ele>299.5</ele>
        <time>2020-06-27T10:38:27Z</time>
      </trkpt>
      <trkpt lat="49.06611" lon="7.22652">
        <ele>299.6</ele>
        <time>2020-06-27T10:38:28Z</time>
      </trkpt>
      <trkpt lat="49.06609" lon="7.22656">
        <ele>299.7</ele>
        <time>2020-06-27T10:38:29Z</time>
      </trkpt>
      <trkpt lat="49.06606" lon="7.22661">
        <ele>299.8</ele>
        <time>2020-06-27T10:38:30Z</time>
      </trkpt>
      <trkpt lat="49.06603" lon="7.22665">
        <ele>299.9</ele>
        <time>2020-06-27T10:38:31Z</time>
      </trkpt>
      <trkpt lat="49.066" lon="7.22672">
        <ele>300.1</ele>
        <time>2020-06-27T10:38:32Z</time>
      </trkpt>
      <trkpt lat="49.06597" lon="7.22675">
        <ele>300.2</ele>
        <time>2020-06-27T10:38:33Z</time>
      </trkpt>
      <trkpt lat="49.06594" lon="7.2268">
        <ele>300.3</ele>
        <time>2020-06-27T10:38:34Z</time>
      </trkpt>
      <trkpt lat="49.06591" lon="7.22685">
        <ele>300.5</ele>
        <time>2020-06-27T10:38:35Z</time>
      </trkpt>
      <trkpt lat="49.06588" lon="7.2269">
        <ele>300.6</ele>
        <time>2020-06-27T10:38:36Z</time>
      </trkpt>
      <trkpt lat="49.06585" lon="7.22695">
        <ele>300.7</ele>
        <time>2020-06-27T10:38:37Z</time>
      </trkpt>
      <trkpt lat="49.0658" lon="7.22702">
        <ele>301</ele>
        <time>2020-06-27T10:38:38Z</time>
      </trkpt>
      <trkpt lat="49.06578" lon="7.22708">
        <ele>301.2</ele>
        <time>2020-06-27T10:38:39Z</time>
      </trkpt>
      <trkpt lat="49.06575" lon="7.22714">
        <ele>301.4</ele>
        <time>2020-06-27T10:38:40Z</time>
      </trkpt>
      <trkpt lat="49.06572" lon="7.22719">
        <ele>301.5</ele>
        <time>2020-06-27T10:38:41Z</time>
      </trkpt>
      <trkpt lat="49.0657" lon="7.22724">
        <ele>301.7</ele>
        <time>2020-06-27T10:38:42Z</time>
      </trkpt>
      <trkpt lat="49.06567" lon="7.2273">
        <ele>301.8</ele>
        <time>2020-06-27T10:38:43Z</time>
      </trkpt>
      <trkpt lat="49.06564" lon="7.22734">
        <ele>301.9</ele>
        <time>2020-06-27T10:38:44Z</time>
      </trkpt>
      <trkpt lat="49.0656" lon="7.22738">
        <ele>302.1</ele>
        <time>2020-06-27T10:38:45Z</time>
      </trkpt>
      <trkpt lat="49.06558" lon="7.22743">
        <ele>302.2</ele>
        <time>2020-06-27T10:38:46Z</time>
      </trkpt>
      <trkpt lat="49.06555" lon="7.22747">
        <ele>302.4</ele>
        <time>2020-06-27T10:38:47Z</time>
      </trkpt>
      <trkpt lat="49.06552" lon="7.22751">
        <ele>302.5</ele>
        <time>2020-06-27T10:38:48Z</time>
      </trkpt>
      <trkpt lat="49.06549" lon="7.22756">
        <ele>302.7</ele>
        <time>2020-06-27T10:38:49Z</time>
      </trkpt>
      <trkpt lat="49.06545" lon="7.22761">
        <ele>302.8</ele>
        <time>2020-06-27T10:38:50Z</time>
      </trkpt>
      <trkpt lat="49.06542" lon="7.22766">
        <ele>303</ele>
        <time>2020-06-27T10:38:51Z</time>
      </trkpt>
      <trkpt lat="49.06539" lon="7.2277">
        <ele>303.2</ele>
        <time>2020-06-27T10:38:52Z</time>
      </trkpt>
      <trkpt lat="49.06535" lon="7.22773">
        <ele>303.4</ele>
        <time>2020-06-27T10:38:53Z</time>
      </trkpt>
      <trkpt lat="49.06531" lon="7.22776">
        <ele>303.5</ele>
        <time>2020-06-27T10:38:54Z</time>
      </trkpt>
      <trkpt lat="49.06529" lon="7.22779">
        <ele>303.6</ele>
        <time>2020-06-27T10:38:55Z</time>
      </trkpt>
      <trkpt lat="49.06525" lon="7.22782">
        <ele>303.7</ele>
        <time>2020-06-27T10:38:56Z</time>
      </trkpt>
      <trkpt lat="49.06523" lon="7.22786">
        <ele>303.8</ele>
        <time>2020-06-27T10:38:57Z</time>
      </trkpt>
      <trkpt lat="49.06519" lon="7.22789">
        <ele>304</ele>
        <time>2020-06-27T10:38:58Z</time>
      </trkpt>
      <trkpt lat="49.06516" lon="7.22792">
        <ele>304.2</ele>
        <time>2020-06-27T10:38:59Z</time>
      </trkpt>
      <trkpt lat="49.06512" lon="7.22797">
        <ele>304.4</ele>
        <time>2020-06-27T10:39:00Z</time>
      </trkpt>
      <trkpt lat="49.06508" lon="7.22801">
        <ele>304.5</ele>
        <time>2020-06-27T10:39:01Z</time>
      </trkpt>
      <trkpt lat="49.06504" lon="7.22804">
        <ele>304.7</ele>
        <time>2020-06-27T10:39:02Z</time>
      </trkpt>
      <trkpt lat="49.065" lon="7.22806">
        <ele>304.9</ele>
        <time>2020-06-27T10:39:03Z</time>
      </trkpt>
      <trkpt lat="49.06496" lon="7.2281">
        <ele>305.1</ele>
        <time>2020-06-27T10:39:04Z</time>
      </trkpt>
      <trkpt lat="49.06493" lon="7.22813">
        <ele>305.2</ele>
        <time>2020-06-27T10:39:05Z</time>
      </trkpt>
      <trkpt lat="49.0649" lon="7.22818">
        <ele>305.5</ele>
        <time>2020-06-27T10:39:06Z</time>
      </trkpt>
      <trkpt lat="49.06487" lon="7.2282">
        <ele>305.7</ele>
        <time>2020-06-27T10:39:07Z</time>
      </trkpt>
      <trkpt lat="49.06483" lon="7.22823">
        <ele>305.8</ele>
        <time>2020-06-27T10:39:08Z</time>
      </trkpt>
      <trkpt lat="49.0648" lon="7.22825">
        <ele>306</ele>
        <time>2020-06-27T10:39:09Z</time>
      </trkpt>
      <trkpt lat="49.06476" lon="7.22828">
        <ele>306.2</ele>
        <time>2020-06-27T10:39:10Z</time>
      </trkpt>
      <trkpt lat="49.06473" lon="7.22831">
        <ele>306.4</ele>
        <time>2020-06-27T10:39:11Z</time>
      </trkpt>
      <trkpt lat="49.06471" lon="7.22832">
        <ele>306.5</ele>
        <time>2020-06-27T10:39:12Z</time>
      </trkpt>
      <trkpt lat="49.06468" lon="7.22833">
        <ele>306.6</ele>
        <time>2020-06-27T10:39:13Z</time>
      </trkpt>
      <trkpt lat="49.06465" lon="7.22836">
        <ele>306.8</ele>
        <time>2020-06-27T10:39:14Z</time>
      </trkpt>
      <trkpt lat="49.06461" lon="7.22838">
        <ele>307</ele>
        <time>2020-06-27T10:39:15Z</time>
      </trkpt>
      <trkpt lat="49.06458" lon="7.2284">
        <ele>307.1</ele>
        <time>2020-06-27T10:39:16Z</time>
      </trkpt>
      <trkpt lat="49.06454" lon="7.22843">
        <ele>307.3</ele>
        <time>2020-06-27T10:39:17Z</time>
      </trkpt>
      <trkpt lat="49.06451" lon="7.22844">
        <ele>307.5</ele>
        <time>2020-06-27T10:39:18Z</time>
      </trkpt>
      <trkpt lat="49.06448" lon="7.22849">
        <ele>307.7</ele>
        <time>2020-06-27T10:39:19Z</time>
      </trkpt>
      <trkpt lat="49.06444" lon="7.2285">
        <ele>307.9</ele>
        <time>2020-06-27T10:39:20Z</time>
      </trkpt>
      <trkpt lat="49.0644" lon="7.22853">
        <ele>308.1</ele>
        <time>2020-06-27T10:39:21Z</time>
      </trkpt>
      <trkpt lat="49.06437" lon="7.22855">
        <ele>308.2</ele>
        <time>2020-06-27T10:39:22Z</time>
      </trkpt>
      <trkpt lat="49.06434" lon="7.22856">
        <ele>308.4</ele>
        <time>2020-06-27T10:39:23Z</time>
      </trkpt>
      <trkpt lat="49.06431" lon="7.22859">
        <ele>308.5</ele>
        <time>2020-06-27T10:39:24Z</time>
      </trkpt>
      <trkpt lat="49.06428" lon="7.22861">
        <ele>308.7</ele>
        <time>2020-06-27T10:39:25Z</time>
      </trkpt>
      <trkpt lat="49.06424" lon="7.22865">
        <ele>308.9</ele>
        <time>2020-06-27T10:39:26Z</time>
      </trkpt>
      <trkpt lat="49.0642" lon="7.22867">
        <ele>309.1</ele>
        <time>2020-06-27T10:39:27Z</time>
      </trkpt>
      <trkpt lat="49.06416" lon="7.22869">
        <ele>309.3</ele>
        <time>2020-06-27T10:39:28Z</time>
      </trkpt>
      <trkpt lat="49.06413" lon="7.22873">
        <ele>309.5</ele>
        <time>2020-06-27T10:39:29Z</time>
      </trkpt>
      <trkpt lat="49.06409" lon="7.22875">
        <ele>309.6</ele>
        <time>2020-06-27T10:39:30Z</time>
      </trkpt>
      <trkpt lat="49.06407" lon="7.22877">
        <ele>309.8</ele>
        <time>2020-06-27T10:39:31Z</time>
      </trkpt>
      <trkpt lat="49.06404" lon="7.2288">
        <ele>309.9</ele>
        <time>2020-06-27T10:39:32Z</time>
      </trkpt>
      <trkpt lat="49.064" lon="7.22884">
        <ele>310.1</ele>
        <time>2020-06-27T10:39:33Z</time>
      </trkpt>
      <trkpt lat="49.06397" lon="7.22886">
        <ele>310.3</ele>
        <time>2020-06-27T10:39:34Z</time>
      </trkpt>
      <trkpt lat="49.06393" lon="7.22889">
        <ele>310.5</ele>
        <time>2020-06-27T10:39:35Z</time>
      </trkpt>
      <trkpt lat="49.06389" lon="7.22892">
        <ele>310.7</ele>
        <time>2020-06-27T10:39:36Z</time>
      </trkpt>
      <trkpt lat="49.06386" lon="7.22894">
        <ele>310.9</ele>
        <time>2020-06-27T10:39:37Z</time>
      </trkpt>
      <trkpt lat="49.06383" lon="7.22898">
        <ele>311.1</ele>
        <time>2020-06-27T10:39:38Z</time>
      </trkpt>
      <trkpt lat="49.0638" lon="7.229">
        <ele>311.2</ele>
        <time>2020-06-27T10:39:39Z</time>
      </trkpt>
      <trkpt lat="49.06377" lon="7.22903">
        <ele>311.4</ele>
        <time>2020-06-27T10:39:40Z</time>
      </trkpt>
      <trkpt lat="49.06372" lon="7.22904">
        <ele>311.6</ele>
        <time>2020-06-27T10:39:41Z</time>
      </trkpt>
      <trkpt lat="49.06369" lon="7.22907">
        <ele>311.8</ele>
        <time>2020-06-27T10:39:42Z</time>
      </trkpt>
      <trkpt lat="49.06366" lon="7.22909">
        <ele>311.9</ele>
        <time>2020-06-27T10:39:43Z</time>
      </trkpt>
      <trkpt lat="49.06362" lon="7.22911">
        <ele>312.1</ele>
        <time>2020-06-27T10:39:44Z</time>
      </trkpt>
      <trkpt lat="49.06359" lon="7.22913">
        <ele>312.2</ele>
        <time>2020-06-27T10:39:45Z</time>
      </trkpt>
      <trkpt lat="49.06356" lon="7.22916">
        <ele>312.4</ele>
        <time>2020-06-27T10:39:46Z</time>
      </trkpt>
      <trkpt lat="49.06352" lon="7.22919">
        <ele>312.6</ele>
        <time>2020-06-27T10:39:47Z</time>
      </trkpt>
      <trkpt lat="49.06348" lon="7.22922">
        <ele>312.9</ele>
        <time>2020-06-27T10:39:48Z</time>
      </trkpt>
      <trkpt lat="49.06346" lon="7.22925">
        <ele>313</ele>
        <time>2020-06-27T10:39:49Z</time>
      </trkpt>
      <trkpt lat="49.06343" lon="7.22928">
        <ele>313.2</ele>
        <time>2020-06-27T10:39:50Z</time>
      </trkpt>
      <trkpt lat="49.06339" lon="7.22931">
        <ele>313.4</ele>
        <time>2020-06-27T10:39:51Z</time>
      </trkpt>
      <trkpt lat="49.06336" lon="7.22934">
        <ele>313.6</ele>
        <time>2020-06-27T10:39:52Z</time>
      </trkpt>
      <trkpt lat="49.06332" lon="7.22936">
        <ele>313.8</ele>
        <time>2020-06-27T10:39:53Z</time>
      </trkpt>
      <trkpt lat="49.06329" lon="7.22938">
        <ele>314</ele>
        <time>2020-06-27T10:39:54Z</time>
      </trkpt>
      <trkpt lat="49.06327" lon="7.2294">
        <ele>314.1</ele>
        <time>2020-06-27T10:39:55Z</time>
      </trkpt>
      <trkpt lat="49.06324" lon="7.22942">
        <ele>314.3</ele>
        <time>2020-06-27T10:39:56Z</time>
      </trkpt>
      <trkpt lat="49.06322" lon="7.22944">
        <ele>314.4</ele>
        <time>2020-06-27T10:39:57Z</time>
      </trkpt>
      <trkpt lat="49.06319" lon="7.22947">
        <ele>314.6</ele>
        <time>2020-06-27T10:39:58Z</time>
      </trkpt>
      <trkpt lat="49.06315" lon="7.22949">
        <ele>314.8</ele>
        <time>2020-06-27T10:39:59Z</time>
      </trkpt>
      <trkpt lat="49.06313" lon="7.22951">
        <ele>315</ele>
        <time>2020-06-27T10:40:00Z</time>
      </trkpt>
      <trkpt lat="49.06309" lon="7.22953">
        <ele>315.2</ele>
        <time>2020-06-27T10:40:01Z</time>
      </trkpt>
      <trkpt lat="49.06307" lon="7.22957">
        <ele>315.4</ele>
        <time>2020-06-27T10:40:02Z</time>
      </trkpt>
      <trkpt lat="49.06303" lon="7.2296">
        <ele>315.6</ele>
        <time>2020-06-27T10:40:03Z</time>
      </trkpt>
      <trkpt lat="49.063" lon="7.22963">
        <ele>315.8</ele>
        <time>2020-06-27T10:40:04Z</time>
      </trkpt>
      <trkpt lat="49.06295" lon="7.22965">
        <ele>316.1</ele>
        <time>2020-06-27T10:40:05Z</time>
      </trkpt>
      <trkpt lat="49.06292" lon="7.22968">
        <ele>316.3</ele>
        <time>2020-06-27T10:40:06Z</time>
      </trkpt>
      <trkpt lat="49.06289" lon="7.2297">
        <ele>316.4</ele>
        <time>2020-06-27T10:40:07Z</time>
      </trkpt>
      <trkpt lat="49.06287" lon="7.22972">
        <ele>316.6</ele>
        <time>2020-06-27T10:40:08Z</time>
      </trkpt>
      <trkpt lat="49.06284" lon="7.22974">
        <ele>316.8</ele>
        <time>2020-06-27T10:40:09Z</time>
      </trkpt>
      <trkpt lat="49.06281" lon="7.22977">
        <ele>316.9</ele>
        <time>2020-06-27T10:40:10Z</time>
      </trkpt>
      <trkpt lat="49.06278" lon="7.22981">
        <ele>317.1</ele>
        <time>2020-06-27T10:40:11Z</time>
      </trkpt>
      <trkpt lat="49.06275" lon="7.22984">
        <ele>317.3</ele>
        <time>2020-06-27T10:40:12Z</time>
      </trkpt>
      <trkpt lat="49.06273" lon="7.22987">
        <ele>317.4</ele>
        <time>2020-06-27T10:40:13Z</time>
      </trkpt>
      <trkpt lat="49.0627" lon="7.2299">
        <ele>317.6</ele>
        <time>2020-06-27T10:40:14Z</time>
      </trkpt>
      <trkpt lat="49.06266" lon="7.22994">
        <ele>317.8</ele>
        <time>2020-06-27T10:40:15Z</time>
      </trkpt>
      <trkpt lat="49.06264" lon="7.22997">
        <ele>318</ele>
        <time>2020-06-27T10:40:16Z</time>
      </trkpt>
      <trkpt lat="49.06261" lon="7.23">
        <ele>318.2</ele>
        <time>2020-06-27T10:40:17Z</time>
      </trkpt>
      <trkpt lat="49.06258" lon="7.23004">
        <ele>318.3</ele>
        <time>2020-06-27T10:40:18Z</time>
      </trkpt>
      <trkpt lat="49.06256" lon="7.23006">
        <ele>318.5</ele>
        <time>2020-06-27T10:40:19Z</time>
      </trkpt>
      <trkpt lat="49.06253" lon="7.23009">
        <ele>318.6</ele>
        <time>2020-06-27T10:40:20Z</time>
      </trkpt>
      <trkpt lat="49.0625" lon="7.23014">
        <ele>318.8</ele>
        <time>2020-06-27T10:40:21Z</time>
      </trkpt>
      <trkpt lat="49.06248" lon="7.23017">
        <ele>318.9</ele>
        <time>2020-06-27T10:40:22Z</time>
      </trkpt>
      <trkpt lat="49.06245" lon="7.23021">
        <ele>319.1</ele>
        <time>2020-06-27T10:40:23Z</time>
      </trkpt>
      <trkpt lat="49.06243" lon="7.23024">
        <ele>319.3</ele>
        <time>2020-06-27T10:40:24Z</time>
      </trkpt>
      <trkpt lat="49.0624" lon="7.23026">
        <ele>319.5</ele>
        <time>2020-06-27T10:40:25Z</time>
      </trkpt>
      <trkpt lat="49.06236" lon="7.2303">
        <ele>319.7</ele>
        <time>2020-06-27T10:40:26Z</time>
      </trkpt>
      <trkpt lat="49.06235" lon="7.23035">
        <ele>319.9</ele>
        <time>2020-06-27T10:40:27Z</time>
      </trkpt>
      <trkpt lat="49.06232" lon="7.23039">
        <ele>320.1</ele>
        <time>2020-06-27T10:40:28Z</time>
      </trkpt>
      <trkpt lat="49.06229" lon="7.23043">
        <ele>320.2</ele>
        <time>2020-06-27T10:40:29Z</time>
      </trkpt>
      <trkpt lat="49.06227" lon="7.23047">
        <ele>320.4</ele>
        <time>2020-06-27T10:40:30Z</time>
      </trkpt>
      <trkpt lat="49.06225" lon="7.2305">
        <ele>320.5</ele>
        <time>2020-06-27T10:40:31Z</time>
      </trkpt>
      <trkpt lat="49.06222" lon="7.23054">
        <ele>320.7</ele>
        <time>2020-06-27T10:40:32Z</time>
      </trkpt>
      <trkpt lat="49.06219" lon="7.23058">
        <ele>320.9</ele>
        <time>2020-06-27T10:40:33Z</time>
      </trkpt>
      <trkpt lat="49.06216" lon="7.23061">
        <ele>321.1</ele>
        <time>2020-06-27T10:40:34Z</time>
      </trkpt>
      <trkpt lat="49.06214" lon="7.23069">
        <ele>321.3</ele>
        <time>2020-06-27T10:40:35Z</time>
      </trkpt>
      <trkpt lat="49.06213" lon="7.23072">
        <ele>321.4</ele>
        <time>2020-06-27T10:40:36Z</time>
      </trkpt>
      <trkpt lat="49.06211" lon="7.23077">
        <ele>321.6</ele>
        <time>2020-06-27T10:40:37Z</time>
      </trkpt>
      <trkpt lat="49.06208" lon="7.23081">
        <ele>321.7</ele>
        <time>2020-06-27T10:40:38Z</time>
      </trkpt>
      <trkpt lat="49.06206" lon="7.23085">
        <ele>321.9</ele>
        <time>2020-06-27T10:40:39Z</time>
      </trkpt>
      <trkpt lat="49.06203" lon="7.2309">
        <ele>322.1</ele>
        <time>2020-06-27T10:40:40Z</time>
      </trkpt>
      <trkpt lat="49.06201" lon="7.23094">
        <ele>322.2</ele>
        <time>2020-06-27T10:40:41Z</time>
      </trkpt>
      <trkpt lat="49.06199" lon="7.23098">
        <ele>322.4</ele>
        <time>2020-06-27T10:40:42Z</time>
      </trkpt>
      <trkpt lat="49.06197" lon="7.23104">
        <ele>322.6</ele>
        <time>2020-06-27T10:40:43Z</time>
      </trkpt>
      <trkpt lat="49.06194" lon="7.23109">
        <ele>322.8</ele>
        <time>2020-06-27T10:40:44Z</time>
      </trkpt>
      <trkpt lat="49.06192" lon="7.23113">
        <ele>322.9</ele>
        <time>2020-06-27T10:40:45Z</time>
      </trkpt>
      <trkpt lat="49.06191" lon="7.2312">
        <ele>323.1</ele>
        <time>2020-06-27T10:40:46Z</time>
      </trkpt>
      <trkpt lat="49.06189" lon="7.23125">
        <ele>323.3</ele>
        <time>2020-06-27T10:40:47Z</time>
      </trkpt>
      <trkpt lat="49.06188" lon="7.23131">
        <ele>323.5</ele>
        <time>2020-06-27T10:40:48Z</time>
      </trkpt>
      <trkpt lat="49.06186" lon="7.23136">
        <ele>323.7</ele>
        <time>2020-06-27T10:40:49Z</time>
      </trkpt>
      <trkpt lat="49.06184" lon="7.23141">
        <ele>323.8</ele>
        <time>2020-06-27T10:40:50Z</time>
      </trkpt>
      <trkpt lat="49.06182" lon="7.23146">
        <ele>324</ele>
        <time>2020-06-27T10:40:51Z</time>
      </trkpt>
      <trkpt lat="49.06181" lon="7.23151">
        <ele>324.2</ele>
        <time>2020-06-27T10:40:52Z</time>
      </trkpt>
      <trkpt lat="49.06179" lon="7.23156">
        <ele>324.4</ele>
        <time>2020-06-27T10:40:53Z</time>
      </trkpt>
      <trkpt lat="49.06178" lon="7.23161">
        <ele>324.5</ele>
        <time>2020-06-27T10:40:54Z</time>
      </trkpt>
      <trkpt lat="49.06177" lon="7.23166">
        <ele>324.7</ele>
        <time>2020-06-27T10:40:55Z</time>
      </trkpt>
      <trkpt lat="49.06175" lon="7.23172">
        <ele>324.9</ele>
        <time>2020-06-27T10:40:56Z</time>
      </trkpt>
      <trkpt lat="49.06173" lon="7.23177">
        <ele>325.1</ele>
        <time>2020-06-27T10:40:57Z</time>
      </trkpt>
      <trkpt lat="49.06172" lon="7.23183">
        <ele>325.2</ele>
        <time>2020-06-27T10:40:58Z</time>
      </trkpt>
      <trkpt lat="49.06171" lon="7.23188">
        <ele>325.4</ele>
        <time>2020-06-27T10:40:59Z</time>
      </trkpt>
      <trkpt lat="49.06169" lon="7.23193">
        <ele>325.6</ele>
        <time>2020-06-27T10:41:00Z</time>
      </trkpt>
      <trkpt lat="49.06169" lon="7.23199">
        <ele>325.7</ele>
        <time>2020-06-27T10:41:01Z</time>
      </trkpt>
      <trkpt lat="49.06167" lon="7.23204">
        <ele>325.9</ele>
        <time>2020-06-27T10:41:02Z</time>
      </trkpt>
      <trkpt lat="49.06166" lon="7.23209">
        <ele>326.1</ele>
        <time>2020-06-27T10:41:03Z</time>
      </trkpt>
      <trkpt lat="49.06164" lon="7.23215">
        <ele>326.3</ele>
        <time>2020-06-27T10:41:04Z</time>
      </trkpt>
      <trkpt lat="49.06163" lon="7.23221">
        <ele>326.5</ele>
        <time>2020-06-27T10:41:05Z</time>
      </trkpt>
      <trkpt lat="49.06162" lon="7.23227">
        <ele>326.8</ele>
        <time>2020-06-27T10:41:06Z</time>
      </trkpt>
      <trkpt lat="49.06161" lon="7.2323">
        <ele>327</ele>
        <time>2020-06-27T10:41:07Z</time>
      </trkpt>
      <trkpt lat="49.06161" lon="7.23236">
        <ele>327.2</ele>
        <time>2020-06-27T10:41:08Z</time>
      </trkpt>
      <trkpt lat="49.0616" lon="7.23241">
        <ele>327.4</ele>
        <time>2020-06-27T10:41:09Z</time>
      </trkpt>
      <trkpt lat="49.06159" lon="7.23246">
        <ele>327.6</ele>
        <time>2020-06-27T10:41:10Z</time>
      </trkpt>
      <trkpt lat="49.06158" lon="7.23252">
        <ele>327.8</ele>
        <time>2020-06-27T10:41:11Z</time>
      </trkpt>
      <trkpt lat="49.06156" lon="7.23257">
        <ele>327.9</ele>
        <time>2020-06-27T10:41:12Z</time>
      </trkpt>
      <trkpt lat="49.06156" lon="7.23263">
        <ele>328.1</ele>
        <time>2020-06-27T10:41:13Z</time>
      </trkpt>
      <trkpt lat="49.06156" lon="7.2327">
        <ele>328.3</ele>
        <time>2020-06-27T10:41:14Z</time>
      </trkpt>
      <trkpt lat="49.06155" lon="7.23276">
        <ele>328.4</ele>
        <time>2020-06-27T10:41:15Z</time>
      </trkpt>
      <trkpt lat="49.06154" lon="7.23282">
        <ele>328.6</ele>
        <time>2020-06-27T10:41:16Z</time>
      </trkpt>
      <trkpt lat="49.06154" lon="7.23288">
        <ele>328.7</ele>
        <time>2020-06-27T10:41:17Z</time>
      </trkpt>
      <trkpt lat="49.06153" lon="7.23294">
        <ele>328.8</ele>
        <time>2020-06-27T10:41:18Z</time>
      </trkpt>
      <trkpt lat="49.06152" lon="7.23299">
        <ele>329</ele>
        <time>2020-06-27T10:41:19Z</time>
      </trkpt>
      <trkpt lat="49.06152" lon="7.23304">
        <ele>329.1</ele>
        <time>2020-06-27T10:41:20Z</time>
      </trkpt>
      <trkpt lat="49.06151" lon="7.2331">
        <ele>329.2</ele>
        <time>2020-06-27T10:41:21Z</time>
      </trkpt>
      <trkpt lat="49.0615" lon="7.23316">
        <ele>329.4</ele>
        <time>2020-06-27T10:41:22Z</time>
      </trkpt>
      <trkpt lat="49.0615" lon="7.23322">
        <ele>329.5</ele>
        <time>2020-06-27T10:41:23Z</time>
      </trkpt>
      <trkpt lat="49.06149" lon="7.23328">
        <ele>329.7</ele>
        <time>2020-06-27T10:41:24Z</time>
      </trkpt>
      <trkpt lat="49.06148" lon="7.23334">
        <ele>329.9</ele>
        <time>2020-06-27T10:41:25Z</time>
      </trkpt>
      <trkpt lat="49.06148" lon="7.23339">
        <ele>330</ele>
        <time>2020-06-27T10:41:26Z</time>
      </trkpt>
      <trkpt lat="49.06147" lon="7.23344">
        <ele>330.2</ele>
        <time>2020-06-27T10:41:27Z</time>
      </trkpt>
      <trkpt lat="49.06147" lon="7.23349">
        <ele>330.3</ele>
        <time>2020-06-27T10:41:28Z</time>
      </trkpt>
      <trkpt lat="49.06147" lon="7.23353">
        <ele>330.5</ele>
        <time>2020-06-27T10:41:29Z</time>
      </trkpt>
      <trkpt lat="49.06146" lon="7.2336">
        <ele>330.7</ele>
        <time>2020-06-27T10:41:30Z</time>
      </trkpt>
      <trkpt lat="49.06147" lon="7.23364">
        <ele>330.8</ele>
        <time>2020-06-27T10:41:31Z</time>
      </trkpt>
      <trkpt lat="49.06146" lon="7.2337">
        <ele>331</ele>
        <time>2020-06-27T10:41:32Z</time>
      </trkpt>
      <trkpt lat="49.06146" lon="7.23375">
        <ele>331.2</ele>
        <time>2020-06-27T10:41:33Z</time>
      </trkpt>
      <trkpt lat="49.06145" lon="7.23381">
        <ele>331.4</ele>
        <time>2020-06-27T10:41:34Z</time>
      </trkpt>
      <trkpt lat="49.06145" lon="7.23387">
        <ele>331.6</ele>
        <time>2020-06-27T10:41:35Z</time>
      </trkpt>
      <trkpt lat="49.06144" lon="7.23394">
        <ele>331.8</ele>
        <time>2020-06-27T10:41:36Z</time>
      </trkpt>
      <trkpt lat="49.06144" lon="7.23401">
        <ele>332</ele>
        <time>2020-06-27T10:41:37Z</time>
      </trkpt>
      <trkpt lat="49.06145" lon="7.23405">
        <ele>332.1</ele>
        <time>2020-06-27T10:41:38Z</time>
      </trkpt>
      <trkpt lat="49.06144" lon="7.23411">
        <ele>332.3</ele>
        <time>2020-06-27T10:41:39Z</time>
      </trkpt>
      <trkpt lat="49.06143" lon="7.23416">
        <ele>332.5</ele>
        <time>2020-06-27T10:41:40Z</time>
      </trkpt>
      <trkpt lat="49.06141" lon="7.23422">
        <ele>332.7</ele>
        <time>2020-06-27T10:41:41Z</time>
      </trkpt>
      <trkpt lat="49.06141" lon="7.23428">
        <ele>332.9</ele>
        <time>2020-06-27T10:41:42Z</time>
      </trkpt>
      <trkpt lat="49.06141" lon="7.23433">
        <ele>333</ele>
        <time>2020-06-27T10:41:43Z</time>
      </trkpt>
      <trkpt lat="49.0614" lon="7.23439">
        <ele>333.2</ele>
        <time>2020-06-27T10:41:44Z</time>
      </trkpt>
      <trkpt lat="49.0614" lon="7.23444">
        <ele>333.4</ele>
        <time>2020-06-27T10:41:45Z</time>
      </trkpt>
      <trkpt lat="49.0614" lon="7.2345">
        <ele>333.6</ele>
        <time>2020-06-27T10:41:46Z</time>
      </trkpt>
      <trkpt lat="49.06139" lon="7.23456">
        <ele>333.8</ele>
        <time>2020-06-27T10:41:47Z</time>
      </trkpt>
      <trkpt lat="49.06138" lon="7.23461">
        <ele>333.9</ele>
        <time>2020-06-27T10:41:48Z</time>
      </trkpt>
      <trkpt lat="49.06138" lon="7.23466">
        <ele>334.1</ele>
        <time>2020-06-27T10:41:49Z</time>
      </trkpt>
      <trkpt lat="49.06138" lon="7.23471">
        <ele>334.3</ele>
        <time>2020-06-27T10:41:50Z</time>
      </trkpt>
      <trkpt lat="49.06138" lon="7.23477">
        <ele>334.5</ele>
        <time>2020-06-27T10:41:51Z</time>
      </trkpt>
      <trkpt lat="49.06137" lon="7.23484">
        <ele>334.7</ele>
        <time>2020-06-27T10:41:52Z</time>
      </trkpt>
      <trkpt lat="49.06137" lon="7.2349">
        <ele>334.9</ele>
        <time>2020-06-27T10:41:53Z</time>
      </trkpt>
      <trkpt lat="49.06137" lon="7.23495">
        <ele>335</ele>
        <time>2020-06-27T10:41:54Z</time>
      </trkpt>
      <trkpt lat="49.06136" lon="7.23501">
        <ele>335.2</ele>
        <time>2020-06-27T10:41:55Z</time>
      </trkpt>
      <trkpt lat="49.06136" lon="7.23506">
        <ele>335.4</ele>
        <time>2020-06-27T10:41:56Z</time>
      </trkpt>
      <trkpt lat="49.06135" lon="7.23512">
        <ele>335.6</ele>
        <time>2020-06-27T10:41:57Z</time>
      </trkpt>
      <trkpt lat="49.06135" lon="7.23518">
        <ele>335.7</ele>
        <time>2020-06-27T10:41:58Z</time>
      </trkpt>
      <trkpt lat="49.06134" lon="7.23524">
        <ele>335.9</ele>
        <time>2020-06-27T10:41:59Z</time>
      </trkpt>
      <trkpt lat="49.06134" lon="7.2353">
        <ele>336.1</ele>
        <time>2020-06-27T10:42:00Z</time>
      </trkpt>
      <trkpt lat="49.06133" lon="7.23536">
        <ele>336.3</ele>
        <time>2020-06-27T10:42:01Z</time>
      </trkpt>
      <trkpt lat="49.06132" lon="7.23542">
        <ele>336.5</ele>
        <time>2020-06-27T10:42:02Z</time>
      </trkpt>
      <trkpt lat="49.06131" lon="7.23546">
        <ele>336.6</ele>
        <time>2020-06-27T10:42:03Z</time>
      </trkpt>
      <trkpt lat="49.0613" lon="7.23552">
        <ele>336.8</ele>
        <time>2020-06-27T10:42:04Z</time>
      </trkpt>
      <trkpt lat="49.06129" lon="7.23557">
        <ele>336.9</ele>
        <time>2020-06-27T10:42:05Z</time>
      </trkpt>
      <trkpt lat="49.06127" lon="7.23563">
        <ele>337.1</ele>
        <time>2020-06-27T10:42:06Z</time>
      </trkpt>
      <trkpt lat="49.06126" lon="7.23569">
        <ele>337.3</ele>
        <time>2020-06-27T10:42:07Z</time>
      </trkpt>
      <trkpt lat="49.06125" lon="7.23575">
        <ele>337.5</ele>
        <time>2020-06-27T10:42:08Z</time>
      </trkpt>
      <trkpt lat="49.06124" lon="7.23581">
        <ele>337.8</ele>
        <time>2020-06-27T10:42:09Z</time>
      </trkpt>
      <trkpt lat="49.06123" lon="7.23586">
        <ele>338</ele>
        <time>2020-06-27T10:42:10Z</time>
      </trkpt>
      <trkpt lat="49.06122" lon="7.23592">
        <ele>338.1</ele>
        <time>2020-06-27T10:42:11Z</time>
      </trkpt>
      <trkpt lat="49.0612" lon="7.23596">
        <ele>338.3</ele>
        <time>2020-06-27T10:42:12Z</time>
      </trkpt>
      <trkpt lat="49.06119" lon="7.23601">
        <ele>338.5</ele>
        <time>2020-06-27T10:42:13Z</time>
      </trkpt>
      <trkpt lat="49.06118" lon="7.23605">
        <ele>338.6</ele>
        <time>2020-06-27T10:42:14Z</time>
      </trkpt>
      <trkpt lat="49.06116" lon="7.2361">
        <ele>338.8</ele>
        <time>2020-06-27T10:42:15Z</time>
      </trkpt>
      <trkpt lat="49.06115" lon="7.23614">
        <ele>338.9</ele>
        <time>2020-06-27T10:42:16Z</time>
      </trkpt>
      <trkpt lat="49.06114" lon="7.23619">
        <ele>339</ele>
        <time>2020-06-27T10:42:17Z</time>
      </trkpt>
      <trkpt lat="49.06113" lon="7.23623">
        <ele>339.2</ele>
        <time>2020-06-27T10:42:18Z</time>
      </trkpt>
      <trkpt lat="49.06113" lon="7.23629">
        <ele>339.3</ele>
        <time>2020-06-27T10:42:19Z</time>
      </trkpt>
      <trkpt lat="49.06111" lon="7.23635">
        <ele>339.5</ele>
        <time>2020-06-27T10:42:20Z</time>
      </trkpt>
      <trkpt lat="49.0611" lon="7.23641">
        <ele>339.7</ele>
        <time>2020-06-27T10:42:21Z</time>
      </trkpt>
      <trkpt lat="49.06107" lon="7.23644">
        <ele>339.8</ele>
        <time>2020-06-27T10:42:22Z</time>
      </trkpt>
      <trkpt lat="49.06104" lon="7.23653">
        <ele>340.1</ele>
        <time>2020-06-27T10:42:23Z</time>
      </trkpt>
      <trkpt lat="49.06102" lon="7.23658">
        <ele>340.3</ele>
        <time>2020-06-27T10:42:24Z</time>
      </trkpt>
      <trkpt lat="49.061" lon="7.23664">
        <ele>340.5</ele>
        <time>2020-06-27T10:42:25Z</time>
      </trkpt>
      <trkpt lat="49.06098" lon="7.23669">
        <ele>340.7</ele>
        <time>2020-06-27T10:42:26Z</time>
      </trkpt>
      <trkpt lat="49.06095" lon="7.23674">
        <ele>340.9</ele>
        <time>2020-06-27T10:42:27Z</time>
      </trkpt>
      <trkpt lat="49.06094" lon="7.23679">
        <ele>341.1</ele>
        <time>2020-06-27T10:42:28Z</time>
      </trkpt>
      <trkpt lat="49.06092" lon="7.23683">
        <ele>341.2</ele>
        <time>2020-06-27T10:42:29Z</time>
      </trkpt>
      <trkpt lat="49.06089" lon="7.23689">
        <ele>341.5</ele>
        <time>2020-06-27T10:42:30Z</time>
      </trkpt>
      <trkpt lat="49.06087" lon="7.23694">
        <ele>341.6</ele>
        <time>2020-06-27T10:42:31Z</time>
      </trkpt>
      <trkpt lat="49.06083" lon="7.23699">
        <ele>341.8</ele>
        <time>2020-06-27T10:42:32Z</time>
      </trkpt>
      <trkpt lat="49.0608" lon="7.23703">
        <ele>342</ele>
        <time>2020-06-27T10:42:33Z</time>
      </trkpt>
      <trkpt lat="49.06078" lon="7.23709">
        <ele>342.2</ele>
        <time>2020-06-27T10:42:34Z</time>
      </trkpt>
      <trkpt lat="49.06075" lon="7.23715">
        <ele>342.3</ele>
        <time>2020-06-27T10:42:35Z</time>
      </trkpt>
      <trkpt lat="49.06073" lon="7.23719">
        <ele>342.4</ele>
        <time>2020-06-27T10:42:36Z</time>
      </trkpt>
      <trkpt lat="49.06071" lon="7.23723">
        <ele>342.6</ele>
        <time>2020-06-27T10:42:37Z</time>
      </trkpt>
      <trkpt lat="49.06069" lon="7.23726">
        <ele>342.7</ele>
        <time>2020-06-27T10:42:38Z</time>
      </trkpt>
      <trkpt lat="49.06066" lon="7.23733">
        <ele>342.9</ele>
        <time>2020-06-27T10:42:39Z</time>
      </trkpt>
      <trkpt lat="49.06064" lon="7.23736">
        <ele>343</ele>
        <time>2020-06-27T10:42:40Z</time>
      </trkpt>
      <trkpt lat="49.06062" lon="7.23742">
        <ele>343.2</ele>
        <time>2020-06-27T10:42:41Z</time>
      </trkpt>
      <trkpt lat="49.0606" lon="7.23747">
        <ele>343.3</ele>
        <time>2020-06-27T10:42:42Z</time>
      </trkpt>
      <trkpt lat="49.06057" lon="7.23752">
        <ele>343.5</ele>
        <time>2020-06-27T10:42:43Z</time>
      </trkpt>
      <trkpt lat="49.06054" lon="7.23755">
        <ele>343.6</ele>
        <time>2020-06-27T10:42:44Z</time>
      </trkpt>
      <trkpt lat="49.06053" lon="7.2376">
        <ele>343.8</ele>
        <time>2020-06-27T10:42:45Z</time>
      </trkpt>
      <trkpt lat="49.0605" lon="7.23765">
        <ele>343.9</ele>
        <time>2020-06-27T10:42:46Z</time>
      </trkpt>
      <trkpt lat="49.06048" lon="7.2377">
        <ele>344</ele>
        <time>2020-06-27T10:42:47Z</time>
      </trkpt>
      <trkpt lat="49.06046" lon="7.23775">
        <ele>344.2</ele>
        <time>2020-06-27T10:42:48Z</time>
      </trkpt>
      <trkpt lat="49.06044" lon="7.23779">
        <ele>344.2</ele>
        <time>2020-06-27T10:42:49Z</time>
      </trkpt>
      <trkpt lat="49.06042" lon="7.23784">
        <ele>344.3</ele>
        <time>2020-06-27T10:42:50Z</time>
      </trkpt>
      <trkpt lat="49.0604" lon="7.23788">
        <ele>344.4</ele>
        <time>2020-06-27T10:42:51Z</time>
      </trkpt>
      <trkpt lat="49.06038" lon="7.23793">
        <ele>344.5</ele>
        <time>2020-06-27T10:42:52Z</time>
      </trkpt>
      <trkpt lat="49.06035" lon="7.23798">
        <ele>344.7</ele>
        <time>2020-06-27T10:42:53Z</time>
      </trkpt>
      <trkpt lat="49.06033" lon="7.23802">
        <ele>344.8</ele>
        <time>2020-06-27T10:42:54Z</time>
      </trkpt>
      <trkpt lat="49.06031" lon="7.23808">
        <ele>344.9</ele>
        <time>2020-06-27T10:42:55Z</time>
      </trkpt>
      <trkpt lat="49.06028" lon="7.23812">
        <ele>345</ele>
        <time>2020-06-27T10:42:56Z</time>
      </trkpt>
      <trkpt lat="49.06025" lon="7.23818">
        <ele>345.2</ele>
        <time>2020-06-27T10:42:57Z</time>
      </trkpt>
      <trkpt lat="49.06022" lon="7.23825">
        <ele>345.3</ele>
        <time>2020-06-27T10:42:58Z</time>
      </trkpt>
      <trkpt lat="49.06019" lon="7.2383">
        <ele>345.4</ele>
        <time>2020-06-27T10:42:59Z</time>
      </trkpt>
      <trkpt lat="49.06016" lon="7.23834">
        <ele>345.5</ele>
        <time>2020-06-27T10:43:00Z</time>
      </trkpt>
      <trkpt lat="49.06013" lon="7.23839">
        <ele>345.6</ele>
        <time>2020-06-27T10:43:01Z</time>
      </trkpt>
      <trkpt lat="49.06011" lon="7.23845">
        <ele>345.7</ele>
        <time>2020-06-27T10:43:02Z</time>
      </trkpt>
      <trkpt lat="49.06008" lon="7.23852">
        <ele>345.8</ele>
        <time>2020-06-27T10:43:03Z</time>
      </trkpt>
      <trkpt lat="49.06007" lon="7.23857">
        <ele>345.9</ele>
        <time>2020-06-27T10:43:04Z</time>
      </trkpt>
      <trkpt lat="49.06005" lon="7.23861">
        <ele>346</ele>
        <time>2020-06-27T10:43:05Z</time>
      </trkpt>
      <trkpt lat="49.06002" lon="7.23868">
        <ele>346.1</ele>
        <time>2020-06-27T10:43:06Z</time>
      </trkpt>
      <trkpt lat="49.06" lon="7.23874">
        <ele>346.3</ele>
        <time>2020-06-27T10:43:07Z</time>
      </trkpt>
      <trkpt lat="49.05997" lon="7.23879">
        <ele>346.5</ele>
        <time>2020-06-27T10:43:08Z</time>
      </trkpt>
      <trkpt lat="49.05994" lon="7.23885">
        <ele>346.7</ele>
        <time>2020-06-27T10:43:09Z</time>
      </trkpt>
      <trkpt lat="49.05991" lon="7.23888">
        <ele>346.8</ele>
        <time>2020-06-27T10:43:10Z</time>
      </trkpt>
      <trkpt lat="49.05987" lon="7.23894">
        <ele>346.9</ele>
        <time>2020-06-27T10:43:11Z</time>
      </trkpt>
      <trkpt lat="49.05984" lon="7.23901">
        <ele>347</ele>
        <time>2020-06-27T10:43:12Z</time>
      </trkpt>
      <trkpt lat="49.05982" lon="7.23905">
        <ele>347</ele>
        <time>2020-06-27T10:43:13Z</time>
      </trkpt>
      <trkpt lat="49.0598" lon="7.2391">
        <ele>347.1</ele>
        <time>2020-06-27T10:43:14Z</time>
      </trkpt>
      <trkpt lat="49.05978" lon="7.23915">
        <ele>347.2</ele>
        <time>2020-06-27T10:43:15Z</time>
      </trkpt>
      <trkpt lat="49.05975" lon="7.23922">
        <ele>347.3</ele>
        <time>2020-06-27T10:43:16Z</time>
      </trkpt>
      <trkpt lat="49.05972" lon="7.23927">
        <ele>347.4</ele>
        <time>2020-06-27T10:43:17Z</time>
      </trkpt>
      <trkpt lat="49.0597" lon="7.23931">
        <ele>347.5</ele>
        <time>2020-06-27T10:43:18Z</time>
      </trkpt>
      <trkpt lat="49.05968" lon="7.23937">
        <ele>347.6</ele>
        <time>2020-06-27T10:43:19Z</time>
      </trkpt>
      <trkpt lat="49.05965" lon="7.23942">
        <ele>347.7</ele>
        <time>2020-06-27T10:43:20Z</time>
      </trkpt>
      <trkpt lat="49.05962" lon="7.23947">
        <ele>347.7</ele>
        <time>2020-06-27T10:43:21Z</time>
      </trkpt>
      <trkpt lat="49.0596" lon="7.23954">
        <ele>347.8</ele>
        <time>2020-06-27T10:43:22Z</time>
      </trkpt>
      <trkpt lat="49.05957" lon="7.23957">
        <ele>347.9</ele>
        <time>2020-06-27T10:43:23Z</time>
      </trkpt>
      <trkpt lat="49.05955" lon="7.23962">
        <ele>348</ele>
        <time>2020-06-27T10:43:24Z</time>
      </trkpt>
      <trkpt lat="49.05953" lon="7.23967">
        <ele>348.1</ele>
        <time>2020-06-27T10:43:25Z</time>
      </trkpt>
      <trkpt lat="49.0595" lon="7.23972">
        <ele>348.2</ele>
        <time>2020-06-27T10:43:26Z</time>
      </trkpt>
      <trkpt lat="49.05948" lon="7.23977">
        <ele>348.3</ele>
        <time>2020-06-27T10:43:27Z</time>
      </trkpt>
      <trkpt lat="49.05945" lon="7.23983">
        <ele>348.5</ele>
        <time>2020-06-27T10:43:28Z</time>
      </trkpt>
      <trkpt lat="49.05943" lon="7.23989">
        <ele>348.6</ele>
        <time>2020-06-27T10:43:29Z</time>
      </trkpt>
      <trkpt lat="49.0594" lon="7.23993">
        <ele>348.7</ele>
        <time>2020-06-27T10:43:30Z</time>
      </trkpt>
      <trkpt lat="49.05938" lon="7.23997">
        <ele>348.8</ele>
        <time>2020-06-27T10:43:31Z</time>
      </trkpt>
      <trkpt lat="49.05936" lon="7.24004">
        <ele>349</ele>
        <time>2020-06-27T10:43:32Z</time>
      </trkpt>
      <trkpt lat="49.05934" lon="7.24009">
        <ele>349.1</ele>
        <time>2020-06-27T10:43:33Z</time>
      </trkpt>
      <trkpt lat="49.05932" lon="7.24013">
        <ele>349.2</ele>
        <time>2020-06-27T10:43:34Z</time>
      </trkpt>
      <trkpt lat="49.05929" lon="7.24018">
        <ele>349.4</ele>
        <time>2020-06-27T10:43:35Z</time>
      </trkpt>
      <trkpt lat="49.05927" lon="7.24022">
        <ele>349.5</ele>
        <time>2020-06-27T10:43:36Z</time>
      </trkpt>
      <trkpt lat="49.05925" lon="7.24027">
        <ele>349.7</ele>
        <time>2020-06-27T10:43:37Z</time>
      </trkpt>
      <trkpt lat="49.05923" lon="7.24032">
        <ele>349.8</ele>
        <time>2020-06-27T10:43:38Z</time>
      </trkpt>
      <trkpt lat="49.05921" lon="7.24037">
        <ele>349.9</ele>
        <time>2020-06-27T10:43:39Z</time>
      </trkpt>
      <trkpt lat="49.05918" lon="7.24044">
        <ele>350.1</ele>
        <time>2020-06-27T10:43:40Z</time>
      </trkpt>
      <trkpt lat="49.05915" lon="7.24049">
        <ele>350.2</ele>
        <time>2020-06-27T10:43:41Z</time>
      </trkpt>
      <trkpt lat="49.05912" lon="7.24054">
        <ele>350.4</ele>
        <time>2020-06-27T10:43:42Z</time>
      </trkpt>
      <trkpt lat="49.05909" lon="7.24059">
        <ele>350.5</ele>
        <time>2020-06-27T10:43:43Z</time>
      </trkpt>
      <trkpt lat="49.05906" lon="7.24062">
        <ele>350.7</ele>
        <time>2020-06-27T10:43:44Z</time>
      </trkpt>
      <trkpt lat="49.05904" lon="7.24067">
        <ele>350.9</ele>
        <time>2020-06-27T10:43:45Z</time>
      </trkpt>
      <trkpt lat="49.05902" lon="7.24072">
        <ele>351</ele>
        <time>2020-06-27T10:43:46Z</time>
      </trkpt>
      <trkpt lat="49.05899" lon="7.24077">
        <ele>351.2</ele>
        <time>2020-06-27T10:43:47Z</time>
      </trkpt>
      <trkpt lat="49.05896" lon="7.24083">
        <ele>351.4</ele>
        <time>2020-06-27T10:43:48Z</time>
      </trkpt>
      <trkpt lat="49.05893" lon="7.24088">
        <ele>351.6</ele>
        <time>2020-06-27T10:43:49Z</time>
      </trkpt>
      <trkpt lat="49.05892" lon="7.24095">
        <ele>351.8</ele>
        <time>2020-06-27T10:43:50Z</time>
      </trkpt>
      <trkpt lat="49.05889" lon="7.24101">
        <ele>352</ele>
        <time>2020-06-27T10:43:51Z</time>
      </trkpt>
      <trkpt lat="49.05887" lon="7.24105">
        <ele>352.1</ele>
        <time>2020-06-27T10:43:52Z</time>
      </trkpt>
      <trkpt lat="49.05885" lon="7.24109">
        <ele>352.3</ele>
        <time>2020-06-27T10:43:53Z</time>
      </trkpt>
      <trkpt lat="49.05883" lon="7.24115">
        <ele>352.5</ele>
        <time>2020-06-27T10:43:54Z</time>
      </trkpt>
      <trkpt lat="49.05881" lon="7.24119">
        <ele>352.7</ele>
        <time>2020-06-27T10:43:55Z</time>
      </trkpt>
      <trkpt lat="49.05878" lon="7.24125">
        <ele>352.9</ele>
        <time>2020-06-27T10:43:56Z</time>
      </trkpt>
      <trkpt lat="49.05875" lon="7.2413">
        <ele>353.1</ele>
        <time>2020-06-27T10:43:57Z</time>
      </trkpt>
      <trkpt lat="49.05872" lon="7.24135">
        <ele>353.3</ele>
        <time>2020-06-27T10:43:58Z</time>
      </trkpt>
      <trkpt lat="49.05869" lon="7.2414">
        <ele>353.5</ele>
        <time>2020-06-27T10:43:59Z</time>
      </trkpt>
      <trkpt lat="49.05867" lon="7.24146">
        <ele>353.7</ele>
        <time>2020-06-27T10:44:00Z</time>
      </trkpt>
      <trkpt lat="49.05865" lon="7.2415">
        <ele>353.8</ele>
        <time>2020-06-27T10:44:01Z</time>
      </trkpt>
      <trkpt lat="49.05862" lon="7.24156">
        <ele>354.1</ele>
        <time>2020-06-27T10:44:02Z</time>
      </trkpt>
      <trkpt lat="49.0586" lon="7.24161">
        <ele>354.2</ele>
        <time>2020-06-27T10:44:03Z</time>
      </trkpt>
      <trkpt lat="49.05858" lon="7.24165">
        <ele>354.4</ele>
        <time>2020-06-27T10:44:04Z</time>
      </trkpt>
      <trkpt lat="49.05857" lon="7.2417">
        <ele>354.6</ele>
        <time>2020-06-27T10:44:05Z</time>
      </trkpt>
      <trkpt lat="49.05854" lon="7.24175">
        <ele>354.8</ele>
        <time>2020-06-27T10:44:06Z</time>
      </trkpt>
      <trkpt lat="49.05852" lon="7.2418">
        <ele>354.9</ele>
        <time>2020-06-27T10:44:07Z</time>
      </trkpt>
      <trkpt lat="49.0585" lon="7.24185">
        <ele>355.1</ele>
        <time>2020-06-27T10:44:08Z</time>
      </trkpt>
      <trkpt lat="49.05848" lon="7.24191">
        <ele>355.3</ele>
        <time>2020-06-27T10:44:09Z</time>
      </trkpt>
      <trkpt lat="49.05846" lon="7.24197">
        <ele>355.6</ele>
        <time>2020-06-27T10:44:10Z</time>
      </trkpt>
      <trkpt lat="49.05842" lon="7.24201">
        <ele>355.7</ele>
        <time>2020-06-27T10:44:11Z</time>
      </trkpt>
      <trkpt lat="49.0584" lon="7.24204">
        <ele>355.9</ele>
        <time>2020-06-27T10:44:12Z</time>
      </trkpt>
      <trkpt lat="49.05837" lon="7.24208">
        <ele>356</ele>
        <time>2020-06-27T10:44:13Z</time>
      </trkpt>
      <trkpt lat="49.05835" lon="7.24211">
        <ele>356.2</ele>
        <time>2020-06-27T10:44:14Z</time>
      </trkpt>
      <trkpt lat="49.05833" lon="7.24215">
        <ele>356.3</ele>
        <time>2020-06-27T10:44:15Z</time>
      </trkpt>
      <trkpt lat="49.05832" lon="7.24222">
        <ele>356.5</ele>
        <time>2020-06-27T10:44:16Z</time>
      </trkpt>
      <trkpt lat="49.0583" lon="7.24225">
        <ele>356.7</ele>
        <time>2020-06-27T10:44:17Z</time>
      </trkpt>
      <trkpt lat="49.05828" lon="7.24231">
        <ele>356.9</ele>
        <time>2020-06-27T10:44:18Z</time>
      </trkpt>
      <trkpt lat="49.05825" lon="7.24236">
        <ele>357.1</ele>
        <time>2020-06-27T10:44:19Z</time>
      </trkpt>
      <trkpt lat="49.05823" lon="7.2424">
        <ele>357.3</ele>
        <time>2020-06-27T10:44:20Z</time>
      </trkpt>
      <trkpt lat="49.0582" lon="7.24245">
        <ele>357.5</ele>
        <time>2020-06-27T10:44:21Z</time>
      </trkpt>
      <trkpt lat="49.05818" lon="7.24249">
        <ele>357.7</ele>
        <time>2020-06-27T10:44:22Z</time>
      </trkpt>
      <trkpt lat="49.05815" lon="7.24254">
        <ele>357.9</ele>
        <time>2020-06-27T10:44:23Z</time>
      </trkpt>
      <trkpt lat="49.05812" lon="7.24259">
        <ele>358.1</ele>
        <time>2020-06-27T10:44:24Z</time>
      </trkpt>
      <trkpt lat="49.0581" lon="7.24263">
        <ele>358.2</ele>
        <time>2020-06-27T10:44:25Z</time>
      </trkpt>
      <trkpt lat="49.05807" lon="7.24269">
        <ele>358.4</ele>
        <time>2020-06-27T10:44:26Z</time>
      </trkpt>
      <trkpt lat="49.05806" lon="7.24274">
        <ele>358.6</ele>
        <time>2020-06-27T10:44:27Z</time>
      </trkpt>
      <trkpt lat="49.05804" lon="7.24278">
        <ele>358.8</ele>
        <time>2020-06-27T10:44:28Z</time>
      </trkpt>
      <trkpt lat="49.05802" lon="7.24283">
        <ele>359</ele>
        <time>2020-06-27T10:44:29Z</time>
      </trkpt>
      <trkpt lat="49.058" lon="7.24287">
        <ele>359.1</ele>
        <time>2020-06-27T10:44:30Z</time>
      </trkpt>
      <trkpt lat="49.05798" lon="7.24292">
        <ele>359.3</ele>
        <time>2020-06-27T10:44:31Z</time>
      </trkpt>
      <trkpt lat="49.05795" lon="7.24297">
        <ele>359.5</ele>
        <time>2020-06-27T10:44:32Z</time>
      </trkpt>
      <trkpt lat="49.05792" lon="7.24302">
        <ele>359.7</ele>
        <time>2020-06-27T10:44:33Z</time>
      </trkpt>
      <trkpt lat="49.05791" lon="7.24307">
        <ele>359.9</ele>
        <time>2020-06-27T10:44:34Z</time>
      </trkpt>
      <trkpt lat="49.05788" lon="7.24313">
        <ele>360.1</ele>
        <time>2020-06-27T10:44:35Z</time>
      </trkpt>
      <trkpt lat="49.05786" lon="7.24316">
        <ele>360.3</ele>
        <time>2020-06-27T10:44:36Z</time>
      </trkpt>
      <trkpt lat="49.05784" lon="7.24321">
        <ele>360.5</ele>
        <time>2020-06-27T10:44:37Z</time>
      </trkpt>
      <trkpt lat="49.05781" lon="7.24326">
        <ele>360.7</ele>
        <time>2020-06-27T10:44:38Z</time>
      </trkpt>
      <trkpt lat="49.05778" lon="7.24331">
        <ele>360.9</ele>
        <time>2020-06-27T10:44:39Z</time>
      </trkpt>
      <trkpt lat="49.05775" lon="7.24335">
        <ele>361.1</ele>
        <time>2020-06-27T10:44:40Z</time>
      </trkpt>
      <trkpt lat="49.05772" lon="7.24341">
        <ele>361.4</ele>
        <time>2020-06-27T10:44:41Z</time>
      </trkpt>
      <trkpt lat="49.0577" lon="7.24347">
        <ele>361.6</ele>
        <time>2020-06-27T10:44:42Z</time>
      </trkpt>
      <trkpt lat="49.05767" lon="7.2435">
        <ele>361.8</ele>
        <time>2020-06-27T10:44:43Z</time>
      </trkpt>
      <trkpt lat="49.05764" lon="7.24354">
        <ele>362</ele>
        <time>2020-06-27T10:44:44Z</time>
      </trkpt>
      <trkpt lat="49.05762" lon="7.24359">
        <ele>362.2</ele>
        <time>2020-06-27T10:44:45Z</time>
      </trkpt>
      <trkpt lat="49.0576" lon="7.24364">
        <ele>362.4</ele>
        <time>2020-06-27T10:44:46Z</time>
      </trkpt>
      <trkpt lat="49.05757" lon="7.2437">
        <ele>362.7</ele>
        <time>2020-06-27T10:44:47Z</time>
      </trkpt>
      <trkpt lat="49.05755" lon="7.24376">
        <ele>362.9</ele>
        <time>2020-06-27T10:44:48Z</time>
      </trkpt>
      <trkpt lat="49.05752" lon="7.24379">
        <ele>363.1</ele>
        <time>2020-06-27T10:44:49Z</time>
      </trkpt>
      <trkpt lat="49.05749" lon="7.24387">
        <ele>363.4</ele>
        <time>2020-06-27T10:44:50Z</time>
      </trkpt>
      <trkpt lat="49.05747" lon="7.24392">
        <ele>363.6</ele>
        <time>2020-06-27T10:44:51Z</time>
      </trkpt>
      <trkpt lat="49.05745" lon="7.24396">
        <ele>363.8</ele>
        <time>2020-06-27T10:44:52Z</time>
      </trkpt>
      <trkpt lat="49.05742" lon="7.24402">
        <ele>364.1</ele>
        <time>2020-06-27T10:44:53Z</time>
      </trkpt>
      <trkpt lat="49.0574" lon="7.24407">
        <ele>364.3</ele>
        <time>2020-06-27T10:44:54Z</time>
      </trkpt>
      <trkpt lat="49.05737" lon="7.24412">
        <ele>364.5</ele>
        <time>2020-06-27T10:44:55Z</time>
      </trkpt>
      <trkpt lat="49.05736" lon="7.24416">
        <ele>364.6</ele>
        <time>2020-06-27T10:44:56Z</time>
      </trkpt>
      <trkpt lat="49.05734" lon="7.24421">
        <ele>364.8</ele>
        <time>2020-06-27T10:44:57Z</time>
      </trkpt>
      <trkpt lat="49.05732" lon="7.24425">
        <ele>364.9</ele>
        <time>2020-06-27T10:44:58Z</time>
      </trkpt>
      <trkpt lat="49.0573" lon="7.24429">
        <ele>365.1</ele>
        <time>2020-06-27T10:44:59Z</time>
      </trkpt>
      <trkpt lat="49.05729" lon="7.24433">
        <ele>365.2</ele>
        <time>2020-06-27T10:45:00Z</time>
      </trkpt>
      <trkpt lat="49.05726" lon="7.24439">
        <ele>365.4</ele>
        <time>2020-06-27T10:45:01Z</time>
      </trkpt>
      <trkpt lat="49.05723" lon="7.24443">
        <ele>365.6</ele>
        <time>2020-06-27T10:45:02Z</time>
      </trkpt>
      <trkpt lat="49.05721" lon="7.24448">
        <ele>365.7</ele>
        <time>2020-06-27T10:45:03Z</time>
      </trkpt>
      <trkpt lat="49.05718" lon="7.24453">
        <ele>365.9</ele>
        <time>2020-06-27T10:45:04Z</time>
      </trkpt>
      <trkpt lat="49.05716" lon="7.24458">
        <ele>366.1</ele>
        <time>2020-06-27T10:45:05Z</time>
      </trkpt>
      <trkpt lat="49.05714" lon="7.24461">
        <ele>366.2</ele>
        <time>2020-06-27T10:45:06Z</time>
      </trkpt>
      <trkpt lat="49.05711" lon="7.24467">
        <ele>366.4</ele>
        <time>2020-06-27T10:45:07Z</time>
      </trkpt>
      <trkpt lat="49.05708" lon="7.24472">
        <ele>366.6</ele>
        <time>2020-06-27T10:45:08Z</time>
      </trkpt>
      <trkpt lat="49.05705" lon="7.24477">
        <ele>366.8</ele>
        <time>2020-06-27T10:45:09Z</time>
      </trkpt>
      <trkpt lat="49.05703" lon="7.24483">
        <ele>367</ele>
        <time>2020-06-27T10:45:10Z</time>
      </trkpt>
      <trkpt lat="49.057" lon="7.24488">
        <ele>367.2</ele>
        <time>2020-06-27T10:45:11Z</time>
      </trkpt>
      <trkpt lat="49.05698" lon="7.24492">
        <ele>367.4</ele>
        <time>2020-06-27T10:45:12Z</time>
      </trkpt>
      <trkpt lat="49.05696" lon="7.24496">
        <ele>367.5</ele>
        <time>2020-06-27T10:45:13Z</time>
      </trkpt>
      <trkpt lat="49.05695" lon="7.245">
        <ele>367.6</ele>
        <time>2020-06-27T10:45:14Z</time>
      </trkpt>
      <trkpt lat="49.05692" lon="7.24504">
        <ele>367.7</ele>
        <time>2020-06-27T10:45:15Z</time>
      </trkpt>
      <trkpt lat="49.0569" lon="7.24509">
        <ele>367.8</ele>
        <time>2020-06-27T10:45:16Z</time>
      </trkpt>
      <trkpt lat="49.05688" lon="7.24513">
        <ele>367.9</ele>
        <time>2020-06-27T10:45:17Z</time>
      </trkpt>
      <trkpt lat="49.05686" lon="7.24518">
        <ele>368</ele>
        <time>2020-06-27T10:45:18Z</time>
      </trkpt>
      <trkpt lat="49.05683" lon="7.24523">
        <ele>368.1</ele>
        <time>2020-06-27T10:45:19Z</time>
      </trkpt>
      <trkpt lat="49.05681" lon="7.24527">
        <ele>368.2</ele>
        <time>2020-06-27T10:45:20Z</time>
      </trkpt>
      <trkpt lat="49.05678" lon="7.24532">
        <ele>368.3</ele>
        <time>2020-06-27T10:45:21Z</time>
      </trkpt>
      <trkpt lat="49.05677" lon="7.24536">
        <ele>368.4</ele>
        <time>2020-06-27T10:45:22Z</time>
      </trkpt>
      <trkpt lat="49.05675" lon="7.24542">
        <ele>368.5</ele>
        <time>2020-06-27T10:45:23Z</time>
      </trkpt>
      <trkpt lat="49.05673" lon="7.24548">
        <ele>368.6</ele>
        <time>2020-06-27T10:45:24Z</time>
      </trkpt>
      <trkpt lat="49.05671" lon="7.24551">
        <ele>368.6</ele>
        <time>2020-06-27T10:45:25Z</time>
      </trkpt>
      <trkpt lat="49.05669" lon="7.24557">
        <ele>368.7</ele>
        <time>2020-06-27T10:45:26Z</time>
      </trkpt>
      <trkpt lat="49.05666" lon="7.24562">
        <ele>368.8</ele>
        <time>2020-06-27T10:45:27Z</time>
      </trkpt>
      <trkpt lat="49.05663" lon="7.24568">
        <ele>368.9</ele>
        <time>2020-06-27T10:45:28Z</time>
      </trkpt>
      <trkpt lat="49.05661" lon="7.24573">
        <ele>369</ele>
        <time>2020-06-27T10:45:29Z</time>
      </trkpt>
      <trkpt lat="49.05658" lon="7.24578">
        <ele>369.1</ele>
        <time>2020-06-27T10:45:30Z</time>
      </trkpt>
      <trkpt lat="49.05657" lon="7.24582">
        <ele>369.2</ele>
        <time>2020-06-27T10:45:31Z</time>
      </trkpt>
      <trkpt lat="49.05655" lon="7.24588">
        <ele>369.3</ele>
        <time>2020-06-27T10:45:32Z</time>
      </trkpt>
      <trkpt lat="49.0565" lon="7.24594">
        <ele>369.4</ele>
        <time>2020-06-27T10:45:33Z</time>
      </trkpt>
      <trkpt lat="49.05648" lon="7.246">
        <ele>369.5</ele>
        <time>2020-06-27T10:45:34Z</time>
      </trkpt>
      <trkpt lat="49.05645" lon="7.24605">
        <ele>369.6</ele>
        <time>2020-06-27T10:45:35Z</time>
      </trkpt>
      <trkpt lat="49.05643" lon="7.24609">
        <ele>369.6</ele>
        <time>2020-06-27T10:45:36Z</time>
      </trkpt>
      <trkpt lat="49.05639" lon="7.24614">
        <ele>369.7</ele>
        <time>2020-06-27T10:45:37Z</time>
      </trkpt>
      <trkpt lat="49.05637" lon="7.2462">
        <ele>369.8</ele>
        <time>2020-06-27T10:45:38Z</time>
      </trkpt>
      <trkpt lat="49.05635" lon="7.24625">
        <ele>369.8</ele>
        <time>2020-06-27T10:45:39Z</time>
      </trkpt>
      <trkpt lat="49.05632" lon="7.2463">
        <ele>369.9</ele>
        <time>2020-06-27T10:45:40Z</time>
      </trkpt>
      <trkpt lat="49.05629" lon="7.24636">
        <ele>369.9</ele>
        <time>2020-06-27T10:45:41Z</time>
      </trkpt>
      <trkpt lat="49.05627" lon="7.24639">
        <ele>369.9</ele>
        <time>2020-06-27T10:45:42Z</time>
      </trkpt>
      <trkpt lat="49.05624" lon="7.24646">
        <ele>370</ele>
        <time>2020-06-27T10:45:43Z</time>
      </trkpt>
      <trkpt lat="49.05622" lon="7.24651">
        <ele>370</ele>
        <time>2020-06-27T10:45:44Z</time>
      </trkpt>
      <trkpt lat="49.05619" lon="7.24656">
        <ele>370</ele>
        <time>2020-06-27T10:45:45Z</time>
      </trkpt>
      <trkpt lat="49.05617" lon="7.24662">
        <ele>370.1</ele>
        <time>2020-06-27T10:45:46Z</time>
      </trkpt>
      <trkpt lat="49.05614" lon="7.24669">
        <ele>370.1</ele>
        <time>2020-06-27T10:45:47Z</time>
      </trkpt>
      <trkpt lat="49.05612" lon="7.24675">
        <ele>370.1</ele>
        <time>2020-06-27T10:45:48Z</time>
      </trkpt>
      <trkpt lat="49.05609" lon="7.24681">
        <ele>370</ele>
        <time>2020-06-27T10:45:49Z</time>
      </trkpt>
      <trkpt lat="49.05606" lon="7.24688">
        <ele>370</ele>
        <time>2020-06-27T10:45:50Z</time>
      </trkpt>
      <trkpt lat="49.05602" lon="7.24695">
        <ele>370</ele>
        <time>2020-06-27T10:45:51Z</time>
      </trkpt>
      <trkpt lat="49.05599" lon="7.247">
        <ele>370</ele>
        <time>2020-06-27T10:45:52Z</time>
      </trkpt>
      <trkpt lat="49.05595" lon="7.24706">
        <ele>369.9</ele>
        <time>2020-06-27T10:45:53Z</time>
      </trkpt>
      <trkpt lat="49.05592" lon="7.24711">
        <ele>369.9</ele>
        <time>2020-06-27T10:45:54Z</time>
      </trkpt>
      <trkpt lat="49.05589" lon="7.24717">
        <ele>369.9</ele>
        <time>2020-06-27T10:45:55Z</time>
      </trkpt>
      <trkpt lat="49.05586" lon="7.24726">
        <ele>369.9</ele>
        <time>2020-06-27T10:45:56Z</time>
      </trkpt>
      <trkpt lat="49.05582" lon="7.24733">
        <ele>369.8</ele>
        <time>2020-06-27T10:45:57Z</time>
      </trkpt>
      <trkpt lat="49.0558" lon="7.2474">
        <ele>369.8</ele>
        <time>2020-06-27T10:45:58Z</time>
      </trkpt>
      <trkpt lat="49.05577" lon="7.24747">
        <ele>369.7</ele>
        <time>2020-06-27T10:45:59Z</time>
      </trkpt>
      <trkpt lat="49.05573" lon="7.24754">
        <ele>369.7</ele>
        <time>2020-06-27T10:46:00Z</time>
      </trkpt>
      <trkpt lat="49.0557" lon="7.2476">
        <ele>369.6</ele>
        <time>2020-06-27T10:46:01Z</time>
      </trkpt>
      <trkpt lat="49.05566" lon="7.24766">
        <ele>369.5</ele>
        <time>2020-06-27T10:46:02Z</time>
      </trkpt>
      <trkpt lat="49.05563" lon="7.24773">
        <ele>369.5</ele>
        <time>2020-06-27T10:46:03Z</time>
      </trkpt>
      <trkpt lat="49.0556" lon="7.2478">
        <ele>369.4</ele>
        <time>2020-06-27T10:46:04Z</time>
      </trkpt>
      <trkpt lat="49.05557" lon="7.24788">
        <ele>369.3</ele>
        <time>2020-06-27T10:46:05Z</time>
      </trkpt>
      <trkpt lat="49.05553" lon="7.24795">
        <ele>369.2</ele>
        <time>2020-06-27T10:46:06Z</time>
      </trkpt>
      <trkpt lat="49.0555" lon="7.24802">
        <ele>369.2</ele>
        <time>2020-06-27T10:46:07Z</time>
      </trkpt>
      <trkpt lat="49.05547" lon="7.24809">
        <ele>369.1</ele>
        <time>2020-06-27T10:46:08Z</time>
      </trkpt>
      <trkpt lat="49.05544" lon="7.24816">
        <ele>369</ele>
        <time>2020-06-27T10:46:09Z</time>
      </trkpt>
      <trkpt lat="49.05542" lon="7.24823">
        <ele>369</ele>
        <time>2020-06-27T10:46:10Z</time>
      </trkpt>
      <trkpt lat="49.05539" lon="7.24833">
        <ele>368.9</ele>
        <time>2020-06-27T10:46:11Z</time>
      </trkpt>
      <trkpt lat="49.05536" lon="7.24842">
        <ele>368.9</ele>
        <time>2020-06-27T10:46:12Z</time>
      </trkpt>
      <trkpt lat="49.05534" lon="7.24849">
        <ele>368.9</ele>
        <time>2020-06-27T10:46:13Z</time>
      </trkpt>
      <trkpt lat="49.05532" lon="7.24858">
        <ele>368.8</ele>
        <time>2020-06-27T10:46:14Z</time>
      </trkpt>
      <trkpt lat="49.05527" lon="7.24866">
        <ele>368.8</ele>
        <time>2020-06-27T10:46:15Z</time>
      </trkpt>
      <trkpt lat="49.05524" lon="7.24876">
        <ele>368.8</ele>
        <time>2020-06-27T10:46:16Z</time>
      </trkpt>
      <trkpt lat="49.05522" lon="7.24885">
        <ele>368.8</ele>
        <time>2020-06-27T10:46:17Z</time>
      </trkpt>
      <trkpt lat="49.0552" lon="7.24894">
        <ele>368.6</ele>
        <time>2020-06-27T10:46:18Z</time>
      </trkpt>
      <trkpt lat="49.05518" lon="7.24904">
        <ele>368.4</ele>
        <time>2020-06-27T10:46:19Z</time>
      </trkpt>
      <trkpt lat="49.05516" lon="7.24912">
        <ele>368.2</ele>
        <time>2020-06-27T10:46:20Z</time>
      </trkpt>
      <trkpt lat="49.05515" lon="7.2492">
        <ele>368.1</ele>
        <time>2020-06-27T10:46:21Z</time>
      </trkpt>
      <trkpt lat="49.05513" lon="7.24928">
        <ele>368</ele>
        <time>2020-06-27T10:46:22Z</time>
      </trkpt>
      <trkpt lat="49.05511" lon="7.24937">
        <ele>367.9</ele>
        <time>2020-06-27T10:46:23Z</time>
      </trkpt>
      <trkpt lat="49.05511" lon="7.24946">
        <ele>367.8</ele>
        <time>2020-06-27T10:46:24Z</time>
      </trkpt>
      <trkpt lat="49.05509" lon="7.24953">
        <ele>367.7</ele>
        <time>2020-06-27T10:46:25Z</time>
      </trkpt>
      <trkpt lat="49.05508" lon="7.24961">
        <ele>367.7</ele>
        <time>2020-06-27T10:46:26Z</time>
      </trkpt>
      <trkpt lat="49.05508" lon="7.24971">
        <ele>367.6</ele>
        <time>2020-06-27T10:46:27Z</time>
      </trkpt>
      <trkpt lat="49.05508" lon="7.2498">
        <ele>367.5</ele>
        <time>2020-06-27T10:46:28Z</time>
      </trkpt>
      <trkpt lat="49.05507" lon="7.24988">
        <ele>367.5</ele>
        <time>2020-06-27T10:46:29Z</time>
      </trkpt>
      <trkpt lat="49.05506" lon="7.24998">
        <ele>367.4</ele>
        <time>2020-06-27T10:46:30Z</time>
      </trkpt>
      <trkpt lat="49.05505" lon="7.25008">
        <ele>367.4</ele>
        <time>2020-06-27T10:46:31Z</time>
      </trkpt>
      <trkpt lat="49.05505" lon="7.25018">
        <ele>367.3</ele>
        <time>2020-06-27T10:46:32Z</time>
      </trkpt>
      <trkpt lat="49.05505" lon="7.25029">
        <ele>367.2</ele>
        <time>2020-06-27T10:46:33Z</time>
      </trkpt>
      <trkpt lat="49.05505" lon="7.25039">
        <ele>367.1</ele>
        <time>2020-06-27T10:46:34Z</time>
      </trkpt>
      <trkpt lat="49.05504" lon="7.25049">
        <ele>367.1</ele>
        <time>2020-06-27T10:46:35Z</time>
      </trkpt>
      <trkpt lat="49.05504" lon="7.25058">
        <ele>367</ele>
        <time>2020-06-27T10:46:36Z</time>
      </trkpt>
      <trkpt lat="49.05503" lon="7.25067">
        <ele>366.9</ele>
        <time>2020-06-27T10:46:37Z</time>
      </trkpt>
      <trkpt lat="49.05502" lon="7.25077">
        <ele>366.9</ele>
        <time>2020-06-27T10:46:38Z</time>
      </trkpt>
      <trkpt lat="49.05502" lon="7.25087">
        <ele>366.8</ele>
        <time>2020-06-27T10:46:39Z</time>
      </trkpt>
      <trkpt lat="49.05501" lon="7.25097">
        <ele>366.8</ele>
        <time>2020-06-27T10:46:40Z</time>
      </trkpt>
      <trkpt lat="49.055" lon="7.25108">
        <ele>366.7</ele>
        <time>2020-06-27T10:46:41Z</time>
      </trkpt>
      <trkpt lat="49.055" lon="7.25118">
        <ele>366.7</ele>
        <time>2020-06-27T10:46:42Z</time>
      </trkpt>
      <trkpt lat="49.05499" lon="7.25128">
        <ele>366.6</ele>
        <time>2020-06-27T10:46:43Z</time>
      </trkpt>
      <trkpt lat="49.05498" lon="7.25139">
        <ele>366.6</ele>
        <time>2020-06-27T10:46:44Z</time>
      </trkpt>
      <trkpt lat="49.05497" lon="7.25148">
        <ele>366.6</ele>
        <time>2020-06-27T10:46:45Z</time>
      </trkpt>
      <trkpt lat="49.05497" lon="7.25158">
        <ele>366.6</ele>
        <time>2020-06-27T10:46:46Z</time>
      </trkpt>
      <trkpt lat="49.05496" lon="7.25168">
        <ele>366.5</ele>
        <time>2020-06-27T10:46:47Z</time>
      </trkpt>
      <trkpt lat="49.05496" lon="7.25177">
        <ele>366.5</ele>
        <time>2020-06-27T10:46:48Z</time>
      </trkpt>
      <trkpt lat="49.05495" lon="7.25187">
        <ele>366.4</ele>
        <time>2020-06-27T10:46:49Z</time>
      </trkpt>
      <trkpt lat="49.05494" lon="7.25197">
        <ele>366.3</ele>
        <time>2020-06-27T10:46:50Z</time>
      </trkpt>
      <trkpt lat="49.05494" lon="7.25207">
        <ele>366.3</ele>
        <time>2020-06-27T10:46:51Z</time>
      </trkpt>
      <trkpt lat="49.05493" lon="7.25216">
        <ele>366.2</ele>
        <time>2020-06-27T10:46:52Z</time>
      </trkpt>
      <trkpt lat="49.05492" lon="7.25226">
        <ele>366.2</ele>
        <time>2020-06-27T10:46:53Z</time>
      </trkpt>
      <trkpt lat="49.05491" lon="7.25235">
        <ele>366.1</ele>
        <time>2020-06-27T10:46:54Z</time>
      </trkpt>
      <trkpt lat="49.05491" lon="7.25245">
        <ele>366</ele>
        <time>2020-06-27T10:46:55Z</time>
      </trkpt>
      <trkpt lat="49.05491" lon="7.25254">
        <ele>365.9</ele>
        <time>2020-06-27T10:46:56Z</time>
      </trkpt>
      <trkpt lat="49.0549" lon="7.25264">
        <ele>365.7</ele>
        <time>2020-06-27T10:46:57Z</time>
      </trkpt>
      <trkpt lat="49.05489" lon="7.25274">
        <ele>365.6</ele>
        <time>2020-06-27T10:46:58Z</time>
      </trkpt>
      <trkpt lat="49.05489" lon="7.25284">
        <ele>365.5</ele>
        <time>2020-06-27T10:46:59Z</time>
      </trkpt>
      <trkpt lat="49.05488" lon="7.25294">
        <ele>365.5</ele>
        <time>2020-06-27T10:47:00Z</time>
      </trkpt>
      <trkpt lat="49.05487" lon="7.25304">
        <ele>365.3</ele>
        <time>2020-06-27T10:47:01Z</time>
      </trkpt>
      <trkpt lat="49.05487" lon="7.25315">
        <ele>365.2</ele>
        <time>2020-06-27T10:47:02Z</time>
      </trkpt>
      <trkpt lat="49.05486" lon="7.25324">
        <ele>365</ele>
        <time>2020-06-27T10:47:03Z</time>
      </trkpt>
      <trkpt lat="49.05486" lon="7.25334">
        <ele>364.9</ele>
        <time>2020-06-27T10:47:04Z</time>
      </trkpt>
      <trkpt lat="49.05486" lon="7.25344">
        <ele>364.7</ele>
        <time>2020-06-27T10:47:05Z</time>
      </trkpt>
      <trkpt lat="49.05486" lon="7.25354">
        <ele>364.5</ele>
        <time>2020-06-27T10:47:06Z</time>
      </trkpt>
      <trkpt lat="49.05485" lon="7.25364">
        <ele>364.4</ele>
        <time>2020-06-27T10:47:07Z</time>
      </trkpt>
      <trkpt lat="49.05485" lon="7.25375">
        <ele>364.2</ele>
        <time>2020-06-27T10:47:08Z</time>
      </trkpt>
      <trkpt lat="49.05484" lon="7.25386">
        <ele>363.9</ele>
        <time>2020-06-27T10:47:09Z</time>
      </trkpt>
      <trkpt lat="49.05483" lon="7.25396">
        <ele>363.8</ele>
        <time>2020-06-27T10:47:10Z</time>
      </trkpt>
      <trkpt lat="49.05483" lon="7.25407">
        <ele>363.6</ele>
        <time>2020-06-27T10:47:11Z</time>
      </trkpt>
      <trkpt lat="49.05482" lon="7.25419">
        <ele>363.4</ele>
        <time>2020-06-27T10:47:12Z</time>
      </trkpt>
      <trkpt lat="49.0548" lon="7.2543">
        <ele>363.3</ele>
        <time>2020-06-27T10:47:13Z</time>
      </trkpt>
      <trkpt lat="49.05479" lon="7.25442">
        <ele>363.1</ele>
        <time>2020-06-27T10:47:14Z</time>
      </trkpt>
      <trkpt lat="49.05478" lon="7.25454">
        <ele>363</ele>
        <time>2020-06-27T10:47:15Z</time>
      </trkpt>
      <trkpt lat="49.05477" lon="7.25465">
        <ele>362.8</ele>
        <time>2020-06-27T10:47:16Z</time>
      </trkpt>
      <trkpt lat="49.05476" lon="7.25477">
        <ele>362.7</ele>
        <time>2020-06-27T10:47:17Z</time>
      </trkpt>
      <trkpt lat="49.05475" lon="7.25489">
        <ele>362.5</ele>
        <time>2020-06-27T10:47:18Z</time>
      </trkpt>
      <trkpt lat="49.05473" lon="7.25501">
        <ele>362.4</ele>
        <time>2020-06-27T10:47:19Z</time>
      </trkpt>
      <trkpt lat="49.05472" lon="7.25512">
        <ele>362.4</ele>
        <time>2020-06-27T10:47:20Z</time>
      </trkpt>
      <trkpt lat="49.05471" lon="7.25524">
        <ele>362.3</ele>
        <time>2020-06-27T10:47:21Z</time>
      </trkpt>
      <trkpt lat="49.0547" lon="7.25535">
        <ele>362.3</ele>
        <time>2020-06-27T10:47:22Z</time>
      </trkpt>
      <trkpt lat="49.0547" lon="7.25546">
        <ele>362.4</ele>
        <time>2020-06-27T10:47:23Z</time>
      </trkpt>
      <trkpt lat="49.05469" lon="7.25557">
        <ele>362.4</ele>
        <time>2020-06-27T10:47:24Z</time>
      </trkpt>
      <trkpt lat="49.05467" lon="7.25567">
        <ele>362.5</ele>
        <time>2020-06-27T10:47:25Z</time>
      </trkpt>
      <trkpt lat="49.05466" lon="7.25578">
        <ele>362.6</ele>
        <time>2020-06-27T10:47:26Z</time>
      </trkpt>
      <trkpt lat="49.05466" lon="7.25588">
        <ele>362.8</ele>
        <time>2020-06-27T10:47:27Z</time>
      </trkpt>
      <trkpt lat="49.05465" lon="7.25599">
        <ele>363</ele>
        <time>2020-06-27T10:47:28Z</time>
      </trkpt>
      <trkpt lat="49.05464" lon="7.25609">
        <ele>363.1</ele>
        <time>2020-06-27T10:47:29Z</time>
      </trkpt>
      <trkpt lat="49.05464" lon="7.2562">
        <ele>363.3</ele>
        <time>2020-06-27T10:47:30Z</time>
      </trkpt>
      <trkpt lat="49.05463" lon="7.2563">
        <ele>363.5</ele>
        <time>2020-06-27T10:47:31Z</time>
      </trkpt>
      <trkpt lat="49.05462" lon="7.2564">
        <ele>363.7</ele>
        <time>2020-06-27T10:47:32Z</time>
      </trkpt>
      <trkpt lat="49.05462" lon="7.2565">
        <ele>363.9</ele>
        <time>2020-06-27T10:47:33Z</time>
      </trkpt>
      <trkpt lat="49.05461" lon="7.25659">
        <ele>364.1</ele>
        <time>2020-06-27T10:47:34Z</time>
      </trkpt>
      <trkpt lat="49.0546" lon="7.25669">
        <ele>364.3</ele>
        <time>2020-06-27T10:47:35Z</time>
      </trkpt>
      <trkpt lat="49.0546" lon="7.25678">
        <ele>364.6</ele>
        <time>2020-06-27T10:47:36Z</time>
      </trkpt>
      <trkpt lat="49.05459" lon="7.25687">
        <ele>364.8</ele>
        <time>2020-06-27T10:47:37Z</time>
      </trkpt>
      <trkpt lat="49.05458" lon="7.25696">
        <ele>365</ele>
        <time>2020-06-27T10:47:38Z</time>
      </trkpt>
      <trkpt lat="49.05458" lon="7.25706">
        <ele>365.2</ele>
        <time>2020-06-27T10:47:39Z</time>
      </trkpt>
      <trkpt lat="49.05457" lon="7.25715">
        <ele>365.4</ele>
        <time>2020-06-27T10:47:40Z</time>
      </trkpt>
      <trkpt lat="49.05457" lon="7.25724">
        <ele>365.6</ele>
        <time>2020-06-27T10:47:41Z</time>
      </trkpt>
      <trkpt lat="49.05456" lon="7.25733">
        <ele>365.8</ele>
        <time>2020-06-27T10:47:42Z</time>
      </trkpt>
      <trkpt lat="49.05456" lon="7.25742">
        <ele>366</ele>
        <time>2020-06-27T10:47:43Z</time>
      </trkpt>
      <trkpt lat="49.05456" lon="7.25751">
        <ele>366.2</ele>
        <time>2020-06-27T10:47:44Z</time>
      </trkpt>
      <trkpt lat="49.05456" lon="7.2576">
        <ele>366.4</ele>
        <time>2020-06-27T10:47:45Z</time>
      </trkpt>
      <trkpt lat="49.05455" lon="7.25769">
        <ele>366.6</ele>
        <time>2020-06-27T10:47:46Z</time>
      </trkpt>
      <trkpt lat="49.05454" lon="7.25777">
        <ele>366.8</ele>
        <time>2020-06-27T10:47:47Z</time>
      </trkpt>
      <trkpt lat="49.05454" lon="7.25786">
        <ele>367</ele>
        <time>2020-06-27T10:47:48Z</time>
      </trkpt>
      <trkpt lat="49.05453" lon="7.25795">
        <ele>367.1</ele>
        <time>2020-06-27T10:47:49Z</time>
      </trkpt>
      <trkpt lat="49.05453" lon="7.25804">
        <ele>367.2</ele>
        <time>2020-06-27T10:47:50Z</time>
      </trkpt>
      <trkpt lat="49.05453" lon="7.25813">
        <ele>367.3</ele>
        <time>2020-06-27T10:47:51Z</time>
      </trkpt>
      <trkpt lat="49.05452" lon="7.25822">
        <ele>367.5</ele>
        <time>2020-06-27T10:47:52Z</time>
      </trkpt>
      <trkpt lat="49.05451" lon="7.25831">
        <ele>367.7</ele>
        <time>2020-06-27T10:47:53Z</time>
      </trkpt>
      <trkpt lat="49.05451" lon="7.2584">
        <ele>367.8</ele>
        <time>2020-06-27T10:47:54Z</time>
      </trkpt>
      <trkpt lat="49.05449" lon="7.25848">
        <ele>368</ele>
        <time>2020-06-27T10:47:55Z</time>
      </trkpt>
      <trkpt lat="49.05449" lon="7.25857">
        <ele>368.1</ele>
        <time>2020-06-27T10:47:56Z</time>
      </trkpt>
      <trkpt lat="49.05449" lon="7.25867">
        <ele>368.2</ele>
        <time>2020-06-27T10:47:57Z</time>
      </trkpt>
      <trkpt lat="49.05448" lon="7.25876">
        <ele>368.3</ele>
        <time>2020-06-27T10:47:58Z</time>
      </trkpt>
      <trkpt lat="49.05448" lon="7.25884">
        <ele>368.3</ele>
        <time>2020-06-27T10:47:59Z</time>
      </trkpt>
      <trkpt lat="49.05447" lon="7.25892">
        <ele>368.4</ele>
        <time>2020-06-27T10:48:00Z</time>
      </trkpt>
      <trkpt lat="49.05446" lon="7.25899">
        <ele>368.4</ele>
        <time>2020-06-27T10:48:01Z</time>
      </trkpt>
      <trkpt lat="49.05446" lon="7.25907">
        <ele>368.4</ele>
        <time>2020-06-27T10:48:02Z</time>
      </trkpt>
      <trkpt lat="49.05445" lon="7.25915">
        <ele>368.4</ele>
        <time>2020-06-27T10:48:03Z</time>
      </trkpt>
      <trkpt lat="49.05444" lon="7.25922">
        <ele>368.4</ele>
        <time>2020-06-27T10:48:04Z</time>
      </trkpt>
      <trkpt lat="49.05444" lon="7.25931">
        <ele>368.3</ele>
        <time>2020-06-27T10:48:05Z</time>
      </trkpt>
      <trkpt lat="49.05444" lon="7.25939">
        <ele>368.3</ele>
        <time>2020-06-27T10:48:06Z</time>
      </trkpt>
      <trkpt lat="49.05443" lon="7.25948">
        <ele>368.2</ele>
        <time>2020-06-27T10:48:07Z</time>
      </trkpt>
      <trkpt lat="49.05443" lon="7.25957">
        <ele>368.1</ele>
        <time>2020-06-27T10:48:08Z</time>
      </trkpt>
      <trkpt lat="49.05444" lon="7.25966">
        <ele>368</ele>
        <time>2020-06-27T10:48:09Z</time>
      </trkpt>
      <trkpt lat="49.05444" lon="7.25976">
        <ele>367.8</ele>
        <time>2020-06-27T10:48:10Z</time>
      </trkpt>
      <trkpt lat="49.05444" lon="7.25985">
        <ele>367.6</ele>
        <time>2020-06-27T10:48:11Z</time>
      </trkpt>
      <trkpt lat="49.05443" lon="7.25993">
        <ele>367.4</ele>
        <time>2020-06-27T10:48:12Z</time>
      </trkpt>
      <trkpt lat="49.05443" lon="7.26001">
        <ele>367.2</ele>
        <time>2020-06-27T10:48:13Z</time>
      </trkpt>
      <trkpt lat="49.05442" lon="7.2601">
        <ele>366.9</ele>
        <time>2020-06-27T10:48:14Z</time>
      </trkpt>
      <trkpt lat="49.05442" lon="7.26018">
        <ele>366.7</ele>
        <time>2020-06-27T10:48:15Z</time>
      </trkpt>
      <trkpt lat="49.05441" lon="7.26028">
        <ele>366.5</ele>
        <time>2020-06-27T10:48:16Z</time>
      </trkpt>
      <trkpt lat="49.05441" lon="7.26037">
        <ele>366.2</ele>
        <time>2020-06-27T10:48:17Z</time>
      </trkpt>
      <trkpt lat="49.05441" lon="7.26049">
        <ele>365.9</ele>
        <time>2020-06-27T10:48:18Z</time>
      </trkpt>
      <trkpt lat="49.05439" lon="7.2606">
        <ele>365.6</ele>
        <time>2020-06-27T10:48:19Z</time>
      </trkpt>
      <trkpt lat="49.05439" lon="7.26071">
        <ele>365.3</ele>
        <time>2020-06-27T10:48:20Z</time>
      </trkpt>
      <trkpt lat="49.05438" lon="7.26082">
        <ele>365</ele>
        <time>2020-06-27T10:48:21Z</time>
      </trkpt>
      <trkpt lat="49.05436" lon="7.26097">
        <ele>364.5</ele>
        <time>2020-06-27T10:48:22Z</time>
      </trkpt>
      <trkpt lat="49.05435" lon="7.2611">
        <ele>364.2</ele>
        <time>2020-06-27T10:48:23Z</time>
      </trkpt>
      <trkpt lat="49.05434" lon="7.26122">
        <ele>363.9</ele>
        <time>2020-06-27T10:48:24Z</time>
      </trkpt>
      <trkpt lat="49.05433" lon="7.26134">
        <ele>363.7</ele>
        <time>2020-06-27T10:48:25Z</time>
      </trkpt>
      <trkpt lat="49.05432" lon="7.26147">
        <ele>363.4</ele>
        <time>2020-06-27T10:48:26Z</time>
      </trkpt>
      <trkpt lat="49.05431" lon="7.26158">
        <ele>363.3</ele>
        <time>2020-06-27T10:48:27Z</time>
      </trkpt>
      <trkpt lat="49.0543" lon="7.2617">
        <ele>363.1</ele>
        <time>2020-06-27T10:48:28Z</time>
      </trkpt>
      <trkpt lat="49.0543" lon="7.26182">
        <ele>363</ele>
        <time>2020-06-27T10:48:29Z</time>
      </trkpt>
      <trkpt lat="49.05429" lon="7.26194">
        <ele>362.9</ele>
        <time>2020-06-27T10:48:30Z</time>
      </trkpt>
      <trkpt lat="49.05428" lon="7.26206">
        <ele>362.8</ele>
        <time>2020-06-27T10:48:31Z</time>
      </trkpt>
      <trkpt lat="49.05428" lon="7.26217">
        <ele>362.8</ele>
        <time>2020-06-27T10:48:32Z</time>
      </trkpt>
      <trkpt lat="49.05427" lon="7.26228">
        <ele>362.8</ele>
        <time>2020-06-27T10:48:33Z</time>
      </trkpt>
      <trkpt lat="49.05427" lon="7.26239">
        <ele>362.7</ele>
        <time>2020-06-27T10:48:34Z</time>
      </trkpt>
      <trkpt lat="49.05427" lon="7.26249">
        <ele>362.7</ele>
        <time>2020-06-27T10:48:35Z</time>
      </trkpt>
      <trkpt lat="49.05427" lon="7.2626">
        <ele>362.7</ele>
        <time>2020-06-27T10:48:36Z</time>
      </trkpt>
      <trkpt lat="49.05426" lon="7.2627">
        <ele>362.7</ele>
        <time>2020-06-27T10:48:37Z</time>
      </trkpt>
      <trkpt lat="49.05426" lon="7.26281">
        <ele>362.7</ele>
        <time>2020-06-27T10:48:38Z</time>
      </trkpt>
      <trkpt lat="49.05425" lon="7.26291">
        <ele>362.8</ele>
        <time>2020-06-27T10:48:39Z</time>
      </trkpt>
      <trkpt lat="49.05425" lon="7.26301">
        <ele>362.9</ele>
        <time>2020-06-27T10:48:40Z</time>
      </trkpt>
      <trkpt lat="49.05424" lon="7.26307">
        <ele>362.9</ele>
        <time>2020-06-27T10:48:41Z</time>
      </trkpt>
      <trkpt lat="49.05421" lon="7.26311">
        <ele>363</ele>
        <time>2020-06-27T10:48:42Z</time>
      </trkpt>
      <trkpt lat="49.05415" lon="7.26312">
        <ele>362.6</ele>
        <time>2020-06-27T10:48:43Z</time>
      </trkpt>
      <trkpt lat="49.0541" lon="7.26313">
        <ele>362.3</ele>
        <time>2020-06-27T10:48:44Z</time>
      </trkpt>
      <trkpt lat="49.05404" lon="7.26316">
        <ele>362</ele>
        <time>2020-06-27T10:48:45Z</time>
      </trkpt>
      <trkpt lat="49.05399" lon="7.26319">
        <ele>361.8</ele>
        <time>2020-06-27T10:48:46Z</time>
      </trkpt>
      <trkpt lat="49.05393" lon="7.26323">
        <ele>361.7</ele>
        <time>2020-06-27T10:48:47Z</time>
      </trkpt>
      <trkpt lat="49.05387" lon="7.26326">
        <ele>361.6</ele>
        <time>2020-06-27T10:48:48Z</time>
      </trkpt>
      <trkpt lat="49.05381" lon="7.26329">
        <ele>361.6</ele>
        <time>2020-06-27T10:48:49Z</time>
      </trkpt>
      <trkpt lat="49.05375" lon="7.26332">
        <ele>361.7</ele>
        <time>2020-06-27T10:48:50Z</time>
      </trkpt>
      <trkpt lat="49.0537" lon="7.26336">
        <ele>361.8</ele>
        <time>2020-06-27T10:48:51Z</time>
      </trkpt>
      <trkpt lat="49.05365" lon="7.26339">
        <ele>361.9</ele>
        <time>2020-06-27T10:48:52Z</time>
      </trkpt>
      <trkpt lat="49.05361" lon="7.26343">
        <ele>362</ele>
        <time>2020-06-27T10:48:53Z</time>
      </trkpt>
      <trkpt lat="49.05356" lon="7.26344">
        <ele>362.1</ele>
        <time>2020-06-27T10:48:54Z</time>
      </trkpt>
      <trkpt lat="49.05351" lon="7.26346">
        <ele>362.2</ele>
        <time>2020-06-27T10:48:55Z</time>
      </trkpt>
      <trkpt lat="49.05346" lon="7.26348">
        <ele>362.2</ele>
        <time>2020-06-27T10:48:56Z</time>
      </trkpt>
      <trkpt lat="49.05342" lon="7.26351">
        <ele>362.3</ele>
        <time>2020-06-27T10:48:57Z</time>
      </trkpt>
      <trkpt lat="49.05338" lon="7.26353">
        <ele>362.3</ele>
        <time>2020-06-27T10:48:58Z</time>
      </trkpt>
      <trkpt lat="49.05335" lon="7.26355">
        <ele>362.2</ele>
        <time>2020-06-27T10:48:59Z</time>
      </trkpt>
      <trkpt lat="49.05331" lon="7.26358">
        <ele>362.2</ele>
        <time>2020-06-27T10:49:00Z</time>
      </trkpt>
      <trkpt lat="49.05327" lon="7.2636">
        <ele>362.2</ele>
        <time>2020-06-27T10:49:01Z</time>
      </trkpt>
      <trkpt lat="49.05322" lon="7.26361">
        <ele>362.1</ele>
        <time>2020-06-27T10:49:02Z</time>
      </trkpt>
      <trkpt lat="49.05318" lon="7.26365">
        <ele>362</ele>
        <time>2020-06-27T10:49:03Z</time>
      </trkpt>
      <trkpt lat="49.05314" lon="7.26366">
        <ele>361.9</ele>
        <time>2020-06-27T10:49:04Z</time>
      </trkpt>
      <trkpt lat="49.05309" lon="7.26368">
        <ele>361.8</ele>
        <time>2020-06-27T10:49:05Z</time>
      </trkpt>
      <trkpt lat="49.05304" lon="7.26368">
        <ele>361.7</ele>
        <time>2020-06-27T10:49:06Z</time>
      </trkpt>
      <trkpt lat="49.05299" lon="7.26369">
        <ele>361.4</ele>
        <time>2020-06-27T10:49:07Z</time>
      </trkpt>
      <trkpt lat="49.05294" lon="7.26371">
        <ele>361.1</ele>
        <time>2020-06-27T10:49:08Z</time>
      </trkpt>
      <trkpt lat="49.05288" lon="7.26373">
        <ele>360.6</ele>
        <time>2020-06-27T10:49:09Z</time>
      </trkpt>
      <trkpt lat="49.05282" lon="7.26374">
        <ele>360.2</ele>
        <time>2020-06-27T10:49:10Z</time>
      </trkpt>
      <trkpt lat="49.05276" lon="7.26376">
        <ele>359.7</ele>
        <time>2020-06-27T10:49:11Z</time>
      </trkpt>
      <trkpt lat="49.0527" lon="7.26376">
        <ele>359.2</ele>
        <time>2020-06-27T10:49:12Z</time>
      </trkpt>
      <trkpt lat="49.05264" lon="7.26378">
        <ele>358.6</ele>
        <time>2020-06-27T10:49:13Z</time>
      </trkpt>
      <trkpt lat="49.05258" lon="7.26382">
        <ele>358.1</ele>
        <time>2020-06-27T10:49:14Z</time>
      </trkpt>
      <trkpt lat="49.05253" lon="7.26384">
        <ele>357.5</ele>
        <time>2020-06-27T10:49:15Z</time>
      </trkpt>
      <trkpt lat="49.05247" lon="7.26386">
        <ele>356.9</ele>
        <time>2020-06-27T10:49:16Z</time>
      </trkpt>
      <trkpt lat="49.05241" lon="7.26389">
        <ele>356.3</ele>
        <time>2020-06-27T10:49:17Z</time>
      </trkpt>
      <trkpt lat="49.05235" lon="7.2639">
        <ele>355.8</ele>
        <time>2020-06-27T10:49:18Z</time>
      </trkpt>
      <trkpt lat="49.0523" lon="7.26393">
        <ele>355.2</ele>
        <time>2020-06-27T10:49:19Z</time>
      </trkpt>
      <trkpt lat="49.05224" lon="7.26394">
        <ele>354.6</ele>
        <time>2020-06-27T10:49:20Z</time>
      </trkpt>
      <trkpt lat="49.05218" lon="7.26396">
        <ele>354</ele>
        <time>2020-06-27T10:49:21Z</time>
      </trkpt>
      <trkpt lat="49.05212" lon="7.26397">
        <ele>353.4</ele>
        <time>2020-06-27T10:49:22Z</time>
      </trkpt>
      <trkpt lat="49.05206" lon="7.264">
        <ele>352.7</ele>
        <time>2020-06-27T10:49:23Z</time>
      </trkpt>
      <trkpt lat="49.052" lon="7.26403">
        <ele>352</ele>
        <time>2020-06-27T10:49:24Z</time>
      </trkpt>
      <trkpt lat="49.05195" lon="7.26407">
        <ele>351.3</ele>
        <time>2020-06-27T10:49:25Z</time>
      </trkpt>
      <trkpt lat="49.05189" lon="7.26408">
        <ele>350.6</ele>
        <time>2020-06-27T10:49:26Z</time>
      </trkpt>
      <trkpt lat="49.05183" lon="7.2641">
        <ele>349.8</ele>
        <time>2020-06-27T10:49:27Z</time>
      </trkpt>
      <trkpt lat="49.05176" lon="7.26409">
        <ele>348.9</ele>
        <time>2020-06-27T10:49:28Z</time>
      </trkpt>
      <trkpt lat="49.05169" lon="7.2641">
        <ele>347.8</ele>
        <time>2020-06-27T10:49:29Z</time>
      </trkpt>
      <trkpt lat="49.05163" lon="7.26412">
        <ele>346.8</ele>
        <time>2020-06-27T10:49:30Z</time>
      </trkpt>
      <trkpt lat="49.05156" lon="7.26413">
        <ele>345.7</ele>
        <time>2020-06-27T10:49:31Z</time>
      </trkpt>
      <trkpt lat="49.0515" lon="7.26414">
        <ele>344.7</ele>
        <time>2020-06-27T10:49:32Z</time>
      </trkpt>
      <trkpt lat="49.05144" lon="7.26415">
        <ele>343.9</ele>
        <time>2020-06-27T10:49:33Z</time>
      </trkpt>
      <trkpt lat="49.05138" lon="7.26415">
        <ele>343</ele>
        <time>2020-06-27T10:49:34Z</time>
      </trkpt>
      <trkpt lat="49.05133" lon="7.26415">
        <ele>342.3</ele>
        <time>2020-06-27T10:49:35Z</time>
      </trkpt>
      <trkpt lat="49.05128" lon="7.26418">
        <ele>341.6</ele>
        <time>2020-06-27T10:49:36Z</time>
      </trkpt>
      <trkpt lat="49.05124" lon="7.26419">
        <ele>340.9</ele>
        <time>2020-06-27T10:49:37Z</time>
      </trkpt>
      <trkpt lat="49.0512" lon="7.26421">
        <ele>340.3</ele>
        <time>2020-06-27T10:49:38Z</time>
      </trkpt>
      <trkpt lat="49.05116" lon="7.2642">
        <ele>339.7</ele>
        <time>2020-06-27T10:49:39Z</time>
      </trkpt>
      <trkpt lat="49.05112" lon="7.26417">
        <ele>339</ele>
        <time>2020-06-27T10:49:40Z</time>
      </trkpt>
      <trkpt lat="49.05107" lon="7.26417">
        <ele>338.2</ele>
        <time>2020-06-27T10:49:41Z</time>
      </trkpt>
      <trkpt lat="49.05101" lon="7.26416">
        <ele>336.5</ele>
        <time>2020-06-27T10:49:42Z</time>
      </trkpt>
      <trkpt lat="49.05095" lon="7.26415">
        <ele>336.2</ele>
        <time>2020-06-27T10:49:43Z</time>
      </trkpt>
      <trkpt lat="49.05089" lon="7.26412">
        <ele>336</ele>
        <time>2020-06-27T10:49:44Z</time>
      </trkpt>
      <trkpt lat="49.05083" lon="7.26408">
        <ele>335.7</ele>
        <time>2020-06-27T10:49:45Z</time>
      </trkpt>
      <trkpt lat="49.05077" lon="7.26405">
        <ele>335.4</ele>
        <time>2020-06-27T10:49:46Z</time>
      </trkpt>
      <trkpt lat="49.05072" lon="7.26401">
        <ele>335.2</ele>
        <time>2020-06-27T10:49:47Z</time>
      </trkpt>
      <trkpt lat="49.05065" lon="7.26397">
        <ele>334.9</ele>
        <time>2020-06-27T10:49:48Z</time>
      </trkpt>
      <trkpt lat="49.05058" lon="7.26395">
        <ele>334.6</ele>
        <time>2020-06-27T10:49:49Z</time>
      </trkpt>
      <trkpt lat="49.05052" lon="7.26395">
        <ele>334.3</ele>
        <time>2020-06-27T10:49:50Z</time>
      </trkpt>
      <trkpt lat="49.05047" lon="7.26397">
        <ele>334.1</ele>
        <time>2020-06-27T10:49:51Z</time>
      </trkpt>
      <trkpt lat="49.05042" lon="7.26399">
        <ele>333.9</ele>
        <time>2020-06-27T10:49:52Z</time>
      </trkpt>
      <trkpt lat="49.05038" lon="7.26401">
        <ele>333.7</ele>
        <time>2020-06-27T10:49:53Z</time>
      </trkpt>
      <trkpt lat="49.05033" lon="7.26403">
        <ele>333.5</ele>
        <time>2020-06-27T10:49:54Z</time>
      </trkpt>
      <trkpt lat="49.05029" lon="7.26405">
        <ele>333.3</ele>
        <time>2020-06-27T10:49:55Z</time>
      </trkpt>
      <trkpt lat="49.05025" lon="7.26407">
        <ele>333.2</ele>
        <time>2020-06-27T10:49:56Z</time>
      </trkpt>
      <trkpt lat="49.0502" lon="7.26409">
        <ele>333</ele>
        <time>2020-06-27T10:49:57Z</time>
      </trkpt>
      <trkpt lat="49.05016" lon="7.26412">
        <ele>332.8</ele>
        <time>2020-06-27T10:49:58Z</time>
      </trkpt>
      <trkpt lat="49.05012" lon="7.26415">
        <ele>332.6</ele>
        <time>2020-06-27T10:49:59Z</time>
      </trkpt>
      <trkpt lat="49.05008" lon="7.26417">
        <ele>332.4</ele>
        <time>2020-06-27T10:50:00Z</time>
      </trkpt>
      <trkpt lat="49.05004" lon="7.2642">
        <ele>332.2</ele>
        <time>2020-06-27T10:50:01Z</time>
      </trkpt>
      <trkpt lat="49.04999" lon="7.26423">
        <ele>332</ele>
        <time>2020-06-27T10:50:02Z</time>
      </trkpt>
      <trkpt lat="49.04994" lon="7.26423">
        <ele>332</ele>
        <time>2020-06-27T10:50:03Z</time>
      </trkpt>
      <trkpt lat="49.04989" lon="7.26426">
        <ele>331.7</ele>
        <time>2020-06-27T10:50:04Z</time>
      </trkpt>
      <trkpt lat="49.04983" lon="7.2643">
        <ele>331.4</ele>
        <time>2020-06-27T10:50:05Z</time>
      </trkpt>
      <trkpt lat="49.04978" lon="7.26432">
        <ele>331</ele>
        <time>2020-06-27T10:50:06Z</time>
      </trkpt>
      <trkpt lat="49.0497" lon="7.26431">
        <ele>330.6</ele>
        <time>2020-06-27T10:50:07Z</time>
      </trkpt>
      <trkpt lat="49.04963" lon="7.26435">
        <ele>330.2</ele>
        <time>2020-06-27T10:50:08Z</time>
      </trkpt>
      <trkpt lat="49.04956" lon="7.26437">
        <ele>329.8</ele>
        <time>2020-06-27T10:50:09Z</time>
      </trkpt>
      <trkpt lat="49.04949" lon="7.26441">
        <ele>329.3</ele>
        <time>2020-06-27T10:50:10Z</time>
      </trkpt>
      <trkpt lat="49.04942" lon="7.26443">
        <ele>328.9</ele>
        <time>2020-06-27T10:50:11Z</time>
      </trkpt>
      <trkpt lat="49.04935" lon="7.26447">
        <ele>328.5</ele>
        <time>2020-06-27T10:50:12Z</time>
      </trkpt>
      <trkpt lat="49.04928" lon="7.26452">
        <ele>328</ele>
        <time>2020-06-27T10:50:13Z</time>
      </trkpt>
      <trkpt lat="49.04921" lon="7.26454">
        <ele>327.6</ele>
        <time>2020-06-27T10:50:14Z</time>
      </trkpt>
      <trkpt lat="49.04913" lon="7.26456">
        <ele>327.1</ele>
        <time>2020-06-27T10:50:15Z</time>
      </trkpt>
      <trkpt lat="49.04906" lon="7.26457">
        <ele>326.6</ele>
        <time>2020-06-27T10:50:16Z</time>
      </trkpt>
      <trkpt lat="49.04898" lon="7.26456">
        <ele>326.1</ele>
        <time>2020-06-27T10:50:17Z</time>
      </trkpt>
      <trkpt lat="49.0489" lon="7.26453">
        <ele>325.6</ele>
        <time>2020-06-27T10:50:18Z</time>
      </trkpt>
      <trkpt lat="49.04882" lon="7.26451">
        <ele>325.1</ele>
        <time>2020-06-27T10:50:19Z</time>
      </trkpt>
      <trkpt lat="49.04874" lon="7.26448">
        <ele>324.6</ele>
        <time>2020-06-27T10:50:20Z</time>
      </trkpt>
      <trkpt lat="49.04866" lon="7.26443">
        <ele>324.1</ele>
        <time>2020-06-27T10:50:21Z</time>
      </trkpt>
      <trkpt lat="49.04859" lon="7.26438">
        <ele>323.5</ele>
        <time>2020-06-27T10:50:22Z</time>
      </trkpt>
      <trkpt lat="49.04851" lon="7.26432">
        <ele>323</ele>
        <time>2020-06-27T10:50:23Z</time>
      </trkpt>
      <trkpt lat="49.04844" lon="7.26425">
        <ele>322.5</ele>
        <time>2020-06-27T10:50:24Z</time>
      </trkpt>
      <trkpt lat="49.04837" lon="7.26419">
        <ele>322</ele>
        <time>2020-06-27T10:50:25Z</time>
      </trkpt>
      <trkpt lat="49.0483" lon="7.26412">
        <ele>321.5</ele>
        <time>2020-06-27T10:50:26Z</time>
      </trkpt>
      <trkpt lat="49.04824" lon="7.26405">
        <ele>321</ele>
        <time>2020-06-27T10:50:27Z</time>
      </trkpt>
      <trkpt lat="49.04817" lon="7.26399">
        <ele>320.5</ele>
        <time>2020-06-27T10:50:28Z</time>
      </trkpt>
      <trkpt lat="49.04811" lon="7.26393">
        <ele>320</ele>
        <time>2020-06-27T10:50:29Z</time>
      </trkpt>
      <trkpt lat="49.04804" lon="7.26387">
        <ele>319.5</ele>
        <time>2020-06-27T10:50:30Z</time>
      </trkpt>
      <trkpt lat="49.04797" lon="7.26382">
        <ele>319</ele>
        <time>2020-06-27T10:50:31Z</time>
      </trkpt>
      <trkpt lat="49.04789" lon="7.26378">
        <ele>318.4</ele>
        <time>2020-06-27T10:50:32Z</time>
      </trkpt>
      <trkpt lat="49.04781" lon="7.26379">
        <ele>317.8</ele>
        <time>2020-06-27T10:50:33Z</time>
      </trkpt>
      <trkpt lat="49.04773" lon="7.26381">
        <ele>317.2</ele>
        <time>2020-06-27T10:50:34Z</time>
      </trkpt>
      <trkpt lat="49.04765" lon="7.26383">
        <ele>316.6</ele>
        <time>2020-06-27T10:50:35Z</time>
      </trkpt>
      <trkpt lat="49.04757" lon="7.26382">
        <ele>316.1</ele>
        <time>2020-06-27T10:50:36Z</time>
      </trkpt>
      <trkpt lat="49.04749" lon="7.26385">
        <ele>315.3</ele>
        <time>2020-06-27T10:50:37Z</time>
      </trkpt>
      <trkpt lat="49.04742" lon="7.2639">
        <ele>314.9</ele>
        <time>2020-06-27T10:50:38Z</time>
      </trkpt>
      <trkpt lat="49.04734" lon="7.26393">
        <ele>314.4</ele>
        <time>2020-06-27T10:50:39Z</time>
      </trkpt>
      <trkpt lat="49.04726" lon="7.26398">
        <ele>314</ele>
        <time>2020-06-27T10:50:40Z</time>
      </trkpt>
      <trkpt lat="49.04719" lon="7.26404">
        <ele>313.7</ele>
        <time>2020-06-27T10:50:41Z</time>
      </trkpt>
      <trkpt lat="49.04712" lon="7.26409">
        <ele>313.4</ele>
        <time>2020-06-27T10:50:42Z</time>
      </trkpt>
      <trkpt lat="49.04705" lon="7.26415">
        <ele>313.1</ele>
        <time>2020-06-27T10:50:43Z</time>
      </trkpt>
      <trkpt lat="49.04698" lon="7.2642">
        <ele>312.9</ele>
        <time>2020-06-27T10:50:44Z</time>
      </trkpt>
      <trkpt lat="49.04692" lon="7.26429">
        <ele>312.6</ele>
        <time>2020-06-27T10:50:45Z</time>
      </trkpt>
      <trkpt lat="49.04686" lon="7.26436">
        <ele>312.4</ele>
        <time>2020-06-27T10:50:46Z</time>
      </trkpt>
      <trkpt lat="49.04679" lon="7.26441">
        <ele>312.3</ele>
        <time>2020-06-27T10:50:47Z</time>
      </trkpt>
      <trkpt lat="49.04672" lon="7.26448">
        <ele>312.1</ele>
        <time>2020-06-27T10:50:48Z</time>
      </trkpt>
      <trkpt lat="49.04664" lon="7.26455">
        <ele>312</ele>
        <time>2020-06-27T10:50:49Z</time>
      </trkpt>
      <trkpt lat="49.04657" lon="7.26462">
        <ele>312</ele>
        <time>2020-06-27T10:50:50Z</time>
      </trkpt>
      <trkpt lat="49.04649" lon="7.26469">
        <ele>311.8</ele>
        <time>2020-06-27T10:50:51Z</time>
      </trkpt>
      <trkpt lat="49.04641" lon="7.26475">
        <ele>311.7</ele>
        <time>2020-06-27T10:50:52Z</time>
      </trkpt>
      <trkpt lat="49.04634" lon="7.26482">
        <ele>311.6</ele>
        <time>2020-06-27T10:50:53Z</time>
      </trkpt>
      <trkpt lat="49.04627" lon="7.26488">
        <ele>311.5</ele>
        <time>2020-06-27T10:50:54Z</time>
      </trkpt>
      <trkpt lat="49.0462" lon="7.26495">
        <ele>311.4</ele>
        <time>2020-06-27T10:50:55Z</time>
      </trkpt>
      <trkpt lat="49.04609" lon="7.265">
        <ele>311.2</ele>
        <time>2020-06-27T10:50:56Z</time>
      </trkpt>
      <trkpt lat="49.04602" lon="7.26506">
        <ele>310.9</ele>
        <time>2020-06-27T10:50:57Z</time>
      </trkpt>
      <trkpt lat="49.04594" lon="7.26512">
        <ele>310.6</ele>
        <time>2020-06-27T10:50:58Z</time>
      </trkpt>
      <trkpt lat="49.04587" lon="7.26519">
        <ele>310.3</ele>
        <time>2020-06-27T10:50:59Z</time>
      </trkpt>
      <trkpt lat="49.04579" lon="7.26525">
        <ele>309.9</ele>
        <time>2020-06-27T10:51:00Z</time>
      </trkpt>
      <trkpt lat="49.04571" lon="7.26532">
        <ele>309.6</ele>
        <time>2020-06-27T10:51:01Z</time>
      </trkpt>
      <trkpt lat="49.04562" lon="7.2654">
        <ele>309.3</ele>
        <time>2020-06-27T10:51:02Z</time>
      </trkpt>
      <trkpt lat="49.04551" lon="7.2655">
        <ele>308.9</ele>
        <time>2020-06-27T10:51:03Z</time>
      </trkpt>
      <trkpt lat="49.04542" lon="7.26559">
        <ele>308.8</ele>
        <time>2020-06-27T10:51:04Z</time>
      </trkpt>
      <trkpt lat="49.04533" lon="7.26565">
        <ele>308.7</ele>
        <time>2020-06-27T10:51:05Z</time>
      </trkpt>
      <trkpt lat="49.04526" lon="7.26575">
        <ele>308.6</ele>
        <time>2020-06-27T10:51:06Z</time>
      </trkpt>
      <trkpt lat="49.0452" lon="7.26584">
        <ele>308.7</ele>
        <time>2020-06-27T10:51:07Z</time>
      </trkpt>
      <trkpt lat="49.04512" lon="7.26593">
        <ele>308.6</ele>
        <time>2020-06-27T10:51:08Z</time>
      </trkpt>
      <trkpt lat="49.04506" lon="7.26601">
        <ele>308.5</ele>
        <time>2020-06-27T10:51:09Z</time>
      </trkpt>
      <trkpt lat="49.04502" lon="7.26609">
        <ele>308.6</ele>
        <time>2020-06-27T10:51:10Z</time>
      </trkpt>
      <trkpt lat="49.04498" lon="7.26616">
        <ele>308.6</ele>
        <time>2020-06-27T10:51:11Z</time>
      </trkpt>
      <trkpt lat="49.04495" lon="7.26626">
        <ele>308.8</ele>
        <time>2020-06-27T10:51:12Z</time>
      </trkpt>
      <trkpt lat="49.04492" lon="7.26635">
        <ele>308.9</ele>
        <time>2020-06-27T10:51:13Z</time>
      </trkpt>
      <trkpt lat="49.04489" lon="7.26643">
        <ele>309.1</ele>
        <time>2020-06-27T10:51:14Z</time>
      </trkpt>
      <trkpt lat="49.04486" lon="7.2665">
        <ele>309.4</ele>
        <time>2020-06-27T10:51:15Z</time>
      </trkpt>
      <trkpt lat="49.04482" lon="7.26658">
        <ele>309.6</ele>
        <time>2020-06-27T10:51:16Z</time>
      </trkpt>
      <trkpt lat="49.04479" lon="7.26666">
        <ele>309.7</ele>
        <time>2020-06-27T10:51:17Z</time>
      </trkpt>
      <trkpt lat="49.04475" lon="7.26672">
        <ele>309.8</ele>
        <time>2020-06-27T10:51:18Z</time>
      </trkpt>
      <trkpt lat="49.04472" lon="7.26676">
        <ele>309.9</ele>
        <time>2020-06-27T10:51:19Z</time>
      </trkpt>
      <trkpt lat="49.04469" lon="7.26682">
        <ele>310.1</ele>
        <time>2020-06-27T10:51:20Z</time>
      </trkpt>
      <trkpt lat="49.04466" lon="7.26686">
        <ele>310.2</ele>
        <time>2020-06-27T10:51:21Z</time>
      </trkpt>
      <trkpt lat="49.04463" lon="7.26691">
        <ele>310.3</ele>
        <time>2020-06-27T10:51:22Z</time>
      </trkpt>
      <trkpt lat="49.0446" lon="7.26694">
        <ele>310.5</ele>
        <time>2020-06-27T10:51:23Z</time>
      </trkpt>
      <trkpt lat="49.04456" lon="7.26698">
        <ele>310.6</ele>
        <time>2020-06-27T10:51:24Z</time>
      </trkpt>
      <trkpt lat="49.04453" lon="7.26702">
        <ele>310.7</ele>
        <time>2020-06-27T10:51:25Z</time>
      </trkpt>
      <trkpt lat="49.0445" lon="7.26705">
        <ele>310.8</ele>
        <time>2020-06-27T10:51:26Z</time>
      </trkpt>
      <trkpt lat="49.04448" lon="7.26708">
        <ele>310.8</ele>
        <time>2020-06-27T10:51:27Z</time>
      </trkpt>
      <trkpt lat="49.04446" lon="7.2671">
        <ele>310.9</ele>
        <time>2020-06-27T10:51:28Z</time>
      </trkpt>
      <trkpt lat="49.04443" lon="7.26714">
        <ele>311</ele>
        <time>2020-06-27T10:51:29Z</time>
      </trkpt>
      <trkpt lat="49.0444" lon="7.26718">
        <ele>311.1</ele>
        <time>2020-06-27T10:51:30Z</time>
      </trkpt>
      <trkpt lat="49.04438" lon="7.26722">
        <ele>311.2</ele>
        <time>2020-06-27T10:51:31Z</time>
      </trkpt>
      <trkpt lat="49.04435" lon="7.26726">
        <ele>311.3</ele>
        <time>2020-06-27T10:51:32Z</time>
      </trkpt>
      <trkpt lat="49.04432" lon="7.26729">
        <ele>311.4</ele>
        <time>2020-06-27T10:51:33Z</time>
      </trkpt>
      <trkpt lat="49.04429" lon="7.26732">
        <ele>311.5</ele>
        <time>2020-06-27T10:51:34Z</time>
      </trkpt>
      <trkpt lat="49.04427" lon="7.26737">
        <ele>311.6</ele>
        <time>2020-06-27T10:51:35Z</time>
      </trkpt>
      <trkpt lat="49.04425" lon="7.26742">
        <ele>311.7</ele>
        <time>2020-06-27T10:51:36Z</time>
      </trkpt>
      <trkpt lat="49.04423" lon="7.26748">
        <ele>311.7</ele>
        <time>2020-06-27T10:51:37Z</time>
      </trkpt>
      <trkpt lat="49.04421" lon="7.26754">
        <ele>311.8</ele>
        <time>2020-06-27T10:51:38Z</time>
      </trkpt>
      <trkpt lat="49.0442" lon="7.26762">
        <ele>311.8</ele>
        <time>2020-06-27T10:51:39Z</time>
      </trkpt>
      <trkpt lat="49.04419" lon="7.26768">
        <ele>311.9</ele>
        <time>2020-06-27T10:51:40Z</time>
      </trkpt>
      <trkpt lat="49.04418" lon="7.26775">
        <ele>312</ele>
        <time>2020-06-27T10:51:41Z</time>
      </trkpt>
      <trkpt lat="49.04416" lon="7.26781">
        <ele>312.1</ele>
        <time>2020-06-27T10:51:42Z</time>
      </trkpt>
      <trkpt lat="49.04415" lon="7.26788">
        <ele>312.1</ele>
        <time>2020-06-27T10:51:43Z</time>
      </trkpt>
      <trkpt lat="49.04414" lon="7.26795">
        <ele>312.2</ele>
        <time>2020-06-27T10:51:44Z</time>
      </trkpt>
      <trkpt lat="49.04413" lon="7.26801">
        <ele>312.3</ele>
        <time>2020-06-27T10:51:45Z</time>
      </trkpt>
      <trkpt lat="49.04412" lon="7.26808">
        <ele>312.5</ele>
        <time>2020-06-27T10:51:46Z</time>
      </trkpt>
      <trkpt lat="49.0441" lon="7.26814">
        <ele>312.6</ele>
        <time>2020-06-27T10:51:47Z</time>
      </trkpt>
      <trkpt lat="49.04409" lon="7.26821">
        <ele>312.7</ele>
        <time>2020-06-27T10:51:48Z</time>
      </trkpt>
      <trkpt lat="49.04409" lon="7.26827">
        <ele>312.7</ele>
        <time>2020-06-27T10:51:49Z</time>
      </trkpt>
      <trkpt lat="49.04408" lon="7.26834">
        <ele>312.8</ele>
        <time>2020-06-27T10:51:50Z</time>
      </trkpt>
      <trkpt lat="49.04407" lon="7.26841">
        <ele>312.8</ele>
        <time>2020-06-27T10:51:51Z</time>
      </trkpt>
      <trkpt lat="49.04406" lon="7.26847">
        <ele>312.9</ele>
        <time>2020-06-27T10:51:52Z</time>
      </trkpt>
      <trkpt lat="49.04406" lon="7.26854">
        <ele>312.9</ele>
        <time>2020-06-27T10:51:53Z</time>
      </trkpt>
      <trkpt lat="49.04405" lon="7.2686">
        <ele>313</ele>
        <time>2020-06-27T10:51:54Z</time>
      </trkpt>
      <trkpt lat="49.04404" lon="7.26866">
        <ele>313</ele>
        <time>2020-06-27T10:51:55Z</time>
      </trkpt>
      <trkpt lat="49.04405" lon="7.26873">
        <ele>313.1</ele>
        <time>2020-06-27T10:51:56Z</time>
      </trkpt>
      <trkpt lat="49.04404" lon="7.26881">
        <ele>313.2</ele>
        <time>2020-06-27T10:51:57Z</time>
      </trkpt>
      <trkpt lat="49.04403" lon="7.26888">
        <ele>313.3</ele>
        <time>2020-06-27T10:51:58Z</time>
      </trkpt>
      <trkpt lat="49.04404" lon="7.26895">
        <ele>313.4</ele>
        <time>2020-06-27T10:51:59Z</time>
      </trkpt>
      <trkpt lat="49.04404" lon="7.26902">
        <ele>313.5</ele>
        <time>2020-06-27T10:52:00Z</time>
      </trkpt>
      <trkpt lat="49.04404" lon="7.26909">
        <ele>313.6</ele>
        <time>2020-06-27T10:52:01Z</time>
      </trkpt>
      <trkpt lat="49.04403" lon="7.26916">
        <ele>313.7</ele>
        <time>2020-06-27T10:52:02Z</time>
      </trkpt>
      <trkpt lat="49.04403" lon="7.26923">
        <ele>313.8</ele>
        <time>2020-06-27T10:52:03Z</time>
      </trkpt>
      <trkpt lat="49.04401" lon="7.2693">
        <ele>313.9</ele>
        <time>2020-06-27T10:52:04Z</time>
      </trkpt>
      <trkpt lat="49.04399" lon="7.26937">
        <ele>313.9</ele>
        <time>2020-06-27T10:52:05Z</time>
      </trkpt>
      <trkpt lat="49.04398" lon="7.26943">
        <ele>314</ele>
        <time>2020-06-27T10:52:06Z</time>
      </trkpt>
      <trkpt lat="49.04397" lon="7.26949">
        <ele>314.1</ele>
        <time>2020-06-27T10:52:07Z</time>
      </trkpt>
      <trkpt lat="49.04397" lon="7.26956">
        <ele>314.2</ele>
        <time>2020-06-27T10:52:08Z</time>
      </trkpt>
      <trkpt lat="49.04397" lon="7.26962">
        <ele>314.3</ele>
        <time>2020-06-27T10:52:09Z</time>
      </trkpt>
      <trkpt lat="49.04396" lon="7.26968">
        <ele>314.4</ele>
        <time>2020-06-27T10:52:10Z</time>
      </trkpt>
      <trkpt lat="49.04396" lon="7.26974">
        <ele>314.5</ele>
        <time>2020-06-27T10:52:11Z</time>
      </trkpt>
      <trkpt lat="49.04395" lon="7.26981">
        <ele>314.7</ele>
        <time>2020-06-27T10:52:12Z</time>
      </trkpt>
      <trkpt lat="49.04395" lon="7.26987">
        <ele>314.8</ele>
        <time>2020-06-27T10:52:13Z</time>
      </trkpt>
      <trkpt lat="49.04394" lon="7.26993">
        <ele>314.9</ele>
        <time>2020-06-27T10:52:14Z</time>
      </trkpt>
      <trkpt lat="49.04394" lon="7.26999">
        <ele>315</ele>
        <time>2020-06-27T10:52:15Z</time>
      </trkpt>
      <trkpt lat="49.04393" lon="7.27005">
        <ele>315.1</ele>
        <time>2020-06-27T10:52:16Z</time>
      </trkpt>
      <trkpt lat="49.04393" lon="7.27011">
        <ele>315.3</ele>
        <time>2020-06-27T10:52:17Z</time>
      </trkpt>
      <trkpt lat="49.04393" lon="7.27017">
        <ele>315.4</ele>
        <time>2020-06-27T10:52:18Z</time>
      </trkpt>
      <trkpt lat="49.04393" lon="7.27023">
        <ele>315.5</ele>
        <time>2020-06-27T10:52:19Z</time>
      </trkpt>
      <trkpt lat="49.04394" lon="7.27029">
        <ele>315.7</ele>
        <time>2020-06-27T10:52:20Z</time>
      </trkpt>
      <trkpt lat="49.04394" lon="7.27035">
        <ele>315.8</ele>
        <time>2020-06-27T10:52:21Z</time>
      </trkpt>
      <trkpt lat="49.04395" lon="7.2704">
        <ele>315.9</ele>
        <time>2020-06-27T10:52:22Z</time>
      </trkpt>
      <trkpt lat="49.04394" lon="7.27045">
        <ele>316</ele>
        <time>2020-06-27T10:52:23Z</time>
      </trkpt>
      <trkpt lat="49.04393" lon="7.2705">
        <ele>316.1</ele>
        <time>2020-06-27T10:52:24Z</time>
      </trkpt>
      <trkpt lat="49.04393" lon="7.27056">
        <ele>316.2</ele>
        <time>2020-06-27T10:52:25Z</time>
      </trkpt>
      <trkpt lat="49.04393" lon="7.27061">
        <ele>316.3</ele>
        <time>2020-06-27T10:52:26Z</time>
      </trkpt>
      <trkpt lat="49.04394" lon="7.27067">
        <ele>316.4</ele>
        <time>2020-06-27T10:52:27Z</time>
      </trkpt>
      <trkpt lat="49.04394" lon="7.27072">
        <ele>316.5</ele>
        <time>2020-06-27T10:52:28Z</time>
      </trkpt>
      <trkpt lat="49.04395" lon="7.27077">
        <ele>316.6</ele>
        <time>2020-06-27T10:52:29Z</time>
      </trkpt>
      <trkpt lat="49.04396" lon="7.27083">
        <ele>316.7</ele>
        <time>2020-06-27T10:52:30Z</time>
      </trkpt>
      <trkpt lat="49.04397" lon="7.27088">
        <ele>316.8</ele>
        <time>2020-06-27T10:52:31Z</time>
      </trkpt>
      <trkpt lat="49.04398" lon="7.27093">
        <ele>316.9</ele>
        <time>2020-06-27T10:52:32Z</time>
      </trkpt>
      <trkpt lat="49.044" lon="7.27098">
        <ele>317.1</ele>
        <time>2020-06-27T10:52:33Z</time>
      </trkpt>
      <trkpt lat="49.044" lon="7.27103">
        <ele>317.2</ele>
        <time>2020-06-27T10:52:34Z</time>
      </trkpt>
      <trkpt lat="49.04401" lon="7.27109">
        <ele>317.2</ele>
        <time>2020-06-27T10:52:35Z</time>
      </trkpt>
      <trkpt lat="49.04403" lon="7.27114">
        <ele>317.4</ele>
        <time>2020-06-27T10:52:36Z</time>
      </trkpt>
      <trkpt lat="49.04404" lon="7.2712">
        <ele>317.5</ele>
        <time>2020-06-27T10:52:37Z</time>
      </trkpt>
      <trkpt lat="49.04407" lon="7.27126">
        <ele>317.6</ele>
        <time>2020-06-27T10:52:38Z</time>
      </trkpt>
      <trkpt lat="49.04406" lon="7.27133">
        <ele>317.6</ele>
        <time>2020-06-27T10:52:39Z</time>
      </trkpt>
      <trkpt lat="49.04408" lon="7.27139">
        <ele>317.7</ele>
        <time>2020-06-27T10:52:40Z</time>
      </trkpt>
      <trkpt lat="49.04409" lon="7.27144">
        <ele>317.8</ele>
        <time>2020-06-27T10:52:41Z</time>
      </trkpt>
      <trkpt lat="49.0441" lon="7.27151">
        <ele>317.8</ele>
        <time>2020-06-27T10:52:42Z</time>
      </trkpt>
      <trkpt lat="49.04411" lon="7.27157">
        <ele>317.9</ele>
        <time>2020-06-27T10:52:43Z</time>
      </trkpt>
      <trkpt lat="49.04413" lon="7.27163">
        <ele>318</ele>
        <time>2020-06-27T10:52:44Z</time>
      </trkpt>
      <trkpt lat="49.04414" lon="7.27169">
        <ele>318.2</ele>
        <time>2020-06-27T10:52:45Z</time>
      </trkpt>
      <trkpt lat="49.04415" lon="7.27175">
        <ele>318.3</ele>
        <time>2020-06-27T10:52:46Z</time>
      </trkpt>
      <trkpt lat="49.04417" lon="7.2718">
        <ele>318.4</ele>
        <time>2020-06-27T10:52:47Z</time>
      </trkpt>
      <trkpt lat="49.04418" lon="7.27186">
        <ele>318.5</ele>
        <time>2020-06-27T10:52:48Z</time>
      </trkpt>
      <trkpt lat="49.04419" lon="7.27192">
        <ele>318.6</ele>
        <time>2020-06-27T10:52:49Z</time>
      </trkpt>
      <trkpt lat="49.0442" lon="7.27197">
        <ele>318.8</ele>
        <time>2020-06-27T10:52:50Z</time>
      </trkpt>
      <trkpt lat="49.04421" lon="7.27202">
        <ele>318.9</ele>
        <time>2020-06-27T10:52:51Z</time>
      </trkpt>
      <trkpt lat="49.04423" lon="7.27208">
        <ele>319</ele>
        <time>2020-06-27T10:52:52Z</time>
      </trkpt>
      <trkpt lat="49.04424" lon="7.27213">
        <ele>319.1</ele>
        <time>2020-06-27T10:52:53Z</time>
      </trkpt>
      <trkpt lat="49.04427" lon="7.27217">
        <ele>319.1</ele>
        <time>2020-06-27T10:52:54Z</time>
      </trkpt>
      <trkpt lat="49.04429" lon="7.27223">
        <ele>319.2</ele>
        <time>2020-06-27T10:52:55Z</time>
      </trkpt>
      <trkpt lat="49.04428" lon="7.2723">
        <ele>319.3</ele>
        <time>2020-06-27T10:52:56Z</time>
      </trkpt>
      <trkpt lat="49.04428" lon="7.27236">
        <ele>319.4</ele>
        <time>2020-06-27T10:52:57Z</time>
      </trkpt>
      <trkpt lat="49.04429" lon="7.27242">
        <ele>319.5</ele>
        <time>2020-06-27T10:52:58Z</time>
      </trkpt>
      <trkpt lat="49.04432" lon="7.27247">
        <ele>319.6</ele>
        <time>2020-06-27T10:52:59Z</time>
      </trkpt>
      <trkpt lat="49.04433" lon="7.27253">
        <ele>319.7</ele>
        <time>2020-06-27T10:53:00Z</time>
      </trkpt>
      <trkpt lat="49.04434" lon="7.27259">
        <ele>319.8</ele>
        <time>2020-06-27T10:53:01Z</time>
      </trkpt>
      <trkpt lat="49.04436" lon="7.27265">
        <ele>319.9</ele>
        <time>2020-06-27T10:53:02Z</time>
      </trkpt>
      <trkpt lat="49.04437" lon="7.2727">
        <ele>320</ele>
        <time>2020-06-27T10:53:03Z</time>
      </trkpt>
      <trkpt lat="49.0444" lon="7.27275">
        <ele>320.2</ele>
        <time>2020-06-27T10:53:04Z</time>
      </trkpt>
      <trkpt lat="49.04442" lon="7.27281">
        <ele>320.3</ele>
        <time>2020-06-27T10:53:05Z</time>
      </trkpt>
      <trkpt lat="49.04444" lon="7.27287">
        <ele>320.4</ele>
        <time>2020-06-27T10:53:06Z</time>
      </trkpt>
      <trkpt lat="49.04446" lon="7.27292">
        <ele>320.5</ele>
        <time>2020-06-27T10:53:07Z</time>
      </trkpt>
      <trkpt lat="49.04447" lon="7.27298">
        <ele>320.6</ele>
        <time>2020-06-27T10:53:08Z</time>
      </trkpt>
      <trkpt lat="49.04449" lon="7.27304">
        <ele>320.7</ele>
        <time>2020-06-27T10:53:09Z</time>
      </trkpt>
      <trkpt lat="49.04449" lon="7.2731">
        <ele>320.8</ele>
        <time>2020-06-27T10:53:10Z</time>
      </trkpt>
      <trkpt lat="49.04451" lon="7.27317">
        <ele>320.9</ele>
        <time>2020-06-27T10:53:11Z</time>
      </trkpt>
      <trkpt lat="49.04453" lon="7.27322">
        <ele>321</ele>
        <time>2020-06-27T10:53:12Z</time>
      </trkpt>
      <trkpt lat="49.04456" lon="7.27327">
        <ele>321</ele>
        <time>2020-06-27T10:53:13Z</time>
      </trkpt>
      <trkpt lat="49.04457" lon="7.27334">
        <ele>321.1</ele>
        <time>2020-06-27T10:53:14Z</time>
      </trkpt>
      <trkpt lat="49.04458" lon="7.2734">
        <ele>321.2</ele>
        <time>2020-06-27T10:53:15Z</time>
      </trkpt>
      <trkpt lat="49.04459" lon="7.27347">
        <ele>321.3</ele>
        <time>2020-06-27T10:53:16Z</time>
      </trkpt>
      <trkpt lat="49.0446" lon="7.27353">
        <ele>321.4</ele>
        <time>2020-06-27T10:53:17Z</time>
      </trkpt>
      <trkpt lat="49.04461" lon="7.27358">
        <ele>321.5</ele>
        <time>2020-06-27T10:53:18Z</time>
      </trkpt>
      <trkpt lat="49.04462" lon="7.27365">
        <ele>321.6</ele>
        <time>2020-06-27T10:53:19Z</time>
      </trkpt>
      <trkpt lat="49.04466" lon="7.2737">
        <ele>321.7</ele>
        <time>2020-06-27T10:53:20Z</time>
      </trkpt>
      <trkpt lat="49.04467" lon="7.27376">
        <ele>321.8</ele>
        <time>2020-06-27T10:53:21Z</time>
      </trkpt>
      <trkpt lat="49.04469" lon="7.27383">
        <ele>321.9</ele>
        <time>2020-06-27T10:53:22Z</time>
      </trkpt>
      <trkpt lat="49.04471" lon="7.27389">
        <ele>322</ele>
        <time>2020-06-27T10:53:23Z</time>
      </trkpt>
      <trkpt lat="49.04471" lon="7.27396">
        <ele>322.1</ele>
        <time>2020-06-27T10:53:24Z</time>
      </trkpt>
      <trkpt lat="49.04473" lon="7.27401">
        <ele>322.1</ele>
        <time>2020-06-27T10:53:25Z</time>
      </trkpt>
      <trkpt lat="49.0447" lon="7.27408">
        <ele>322.2</ele>
        <time>2020-06-27T10:53:26Z</time>
      </trkpt>
      <trkpt lat="49.04471" lon="7.27413">
        <ele>322.3</ele>
        <time>2020-06-27T10:53:27Z</time>
      </trkpt>
      <trkpt lat="49.04471" lon="7.2742">
        <ele>322.3</ele>
        <time>2020-06-27T10:53:28Z</time>
      </trkpt>
      <trkpt lat="49.04472" lon="7.27427">
        <ele>322.4</ele>
        <time>2020-06-27T10:53:29Z</time>
      </trkpt>
      <trkpt lat="49.04473" lon="7.27434">
        <ele>322.5</ele>
        <time>2020-06-27T10:53:30Z</time>
      </trkpt>
      <trkpt lat="49.04474" lon="7.27441">
        <ele>322.6</ele>
        <time>2020-06-27T10:53:31Z</time>
      </trkpt>
      <trkpt lat="49.04476" lon="7.27448">
        <ele>322.7</ele>
        <time>2020-06-27T10:53:32Z</time>
      </trkpt>
      <trkpt lat="49.04479" lon="7.27456">
        <ele>322.8</ele>
        <time>2020-06-27T10:53:33Z</time>
      </trkpt>
      <trkpt lat="49.0448" lon="7.27464">
        <ele>322.8</ele>
        <time>2020-06-27T10:53:34Z</time>
      </trkpt>
      <trkpt lat="49.04482" lon="7.2747">
        <ele>322.9</ele>
        <time>2020-06-27T10:53:35Z</time>
      </trkpt>
      <trkpt lat="49.04484" lon="7.27477">
        <ele>322.9</ele>
        <time>2020-06-27T10:53:36Z</time>
      </trkpt>
      <trkpt lat="49.04486" lon="7.27484">
        <ele>323</ele>
        <time>2020-06-27T10:53:37Z</time>
      </trkpt>
      <trkpt lat="49.04488" lon="7.2749">
        <ele>323.1</ele>
        <time>2020-06-27T10:53:38Z</time>
      </trkpt>
      <trkpt lat="49.0449" lon="7.27497">
        <ele>323.2</ele>
        <time>2020-06-27T10:53:39Z</time>
      </trkpt>
      <trkpt lat="49.04491" lon="7.27504">
        <ele>323.3</ele>
        <time>2020-06-27T10:53:40Z</time>
      </trkpt>
      <trkpt lat="49.04492" lon="7.27512">
        <ele>323.4</ele>
        <time>2020-06-27T10:53:41Z</time>
      </trkpt>
      <trkpt lat="49.04493" lon="7.27519">
        <ele>323.6</ele>
        <time>2020-06-27T10:53:42Z</time>
      </trkpt>
      <trkpt lat="49.04495" lon="7.27526">
        <ele>323.7</ele>
        <time>2020-06-27T10:53:43Z</time>
      </trkpt>
      <trkpt lat="49.04496" lon="7.27534">
        <ele>323.8</ele>
        <time>2020-06-27T10:53:44Z</time>
      </trkpt>
      <trkpt lat="49.04499" lon="7.27541">
        <ele>323.9</ele>
        <time>2020-06-27T10:53:45Z</time>
      </trkpt>
      <trkpt lat="49.045" lon="7.27548">
        <ele>324</ele>
        <time>2020-06-27T10:53:46Z</time>
      </trkpt>
      <trkpt lat="49.04501" lon="7.27555">
        <ele>324.1</ele>
        <time>2020-06-27T10:53:47Z</time>
      </trkpt>
      <trkpt lat="49.04503" lon="7.27562">
        <ele>324.1</ele>
        <time>2020-06-27T10:53:48Z</time>
      </trkpt>
      <trkpt lat="49.04504" lon="7.2757">
        <ele>324.2</ele>
        <time>2020-06-27T10:53:49Z</time>
      </trkpt>
      <trkpt lat="49.04506" lon="7.27576">
        <ele>324.3</ele>
        <time>2020-06-27T10:53:50Z</time>
      </trkpt>
      <trkpt lat="49.04507" lon="7.27583">
        <ele>324.3</ele>
        <time>2020-06-27T10:53:51Z</time>
      </trkpt>
      <trkpt lat="49.0451" lon="7.2759">
        <ele>324.4</ele>
        <time>2020-06-27T10:53:52Z</time>
      </trkpt>
      <trkpt lat="49.04512" lon="7.27597">
        <ele>324.6</ele>
        <time>2020-06-27T10:53:53Z</time>
      </trkpt>
      <trkpt lat="49.04514" lon="7.27604">
        <ele>324.7</ele>
        <time>2020-06-27T10:53:54Z</time>
      </trkpt>
      <trkpt lat="49.04516" lon="7.27611">
        <ele>324.8</ele>
        <time>2020-06-27T10:53:55Z</time>
      </trkpt>
      <trkpt lat="49.04518" lon="7.27618">
        <ele>324.9</ele>
        <time>2020-06-27T10:53:56Z</time>
      </trkpt>
      <trkpt lat="49.0452" lon="7.27625">
        <ele>325.1</ele>
        <time>2020-06-27T10:53:57Z</time>
      </trkpt>
      <trkpt lat="49.04522" lon="7.27633">
        <ele>325.2</ele>
        <time>2020-06-27T10:53:58Z</time>
      </trkpt>
      <trkpt lat="49.04524" lon="7.2764">
        <ele>325.4</ele>
        <time>2020-06-27T10:53:59Z</time>
      </trkpt>
      <trkpt lat="49.04526" lon="7.27647">
        <ele>325.6</ele>
        <time>2020-06-27T10:54:00Z</time>
      </trkpt>
      <trkpt lat="49.04527" lon="7.27655">
        <ele>325.7</ele>
        <time>2020-06-27T10:54:01Z</time>
      </trkpt>
      <trkpt lat="49.04529" lon="7.27662">
        <ele>325.9</ele>
        <time>2020-06-27T10:54:02Z</time>
      </trkpt>
      <trkpt lat="49.04531" lon="7.2767">
        <ele>326</ele>
        <time>2020-06-27T10:54:03Z</time>
      </trkpt>
      <trkpt lat="49.04533" lon="7.27678">
        <ele>326.2</ele>
        <time>2020-06-27T10:54:04Z</time>
      </trkpt>
      <trkpt lat="49.04535" lon="7.27687">
        <ele>326.4</ele>
        <time>2020-06-27T10:54:05Z</time>
      </trkpt>
      <trkpt lat="49.04537" lon="7.27696">
        <ele>326.5</ele>
        <time>2020-06-27T10:54:06Z</time>
      </trkpt>
      <trkpt lat="49.0454" lon="7.27704">
        <ele>326.7</ele>
        <time>2020-06-27T10:54:07Z</time>
      </trkpt>
      <trkpt lat="49.04542" lon="7.27711">
        <ele>326.9</ele>
        <time>2020-06-27T10:54:08Z</time>
      </trkpt>
      <trkpt lat="49.04544" lon="7.2772">
        <ele>327</ele>
        <time>2020-06-27T10:54:09Z</time>
      </trkpt>
      <trkpt lat="49.04546" lon="7.27728">
        <ele>327.2</ele>
        <time>2020-06-27T10:54:10Z</time>
      </trkpt>
      <trkpt lat="49.04548" lon="7.27737">
        <ele>327.4</ele>
        <time>2020-06-27T10:54:11Z</time>
      </trkpt>
      <trkpt lat="49.0455" lon="7.27744">
        <ele>327.5</ele>
        <time>2020-06-27T10:54:12Z</time>
      </trkpt>
      <trkpt lat="49.04552" lon="7.27751">
        <ele>327.7</ele>
        <time>2020-06-27T10:54:13Z</time>
      </trkpt>
      <trkpt lat="49.04554" lon="7.27758">
        <ele>327.8</ele>
        <time>2020-06-27T10:54:14Z</time>
      </trkpt>
      <trkpt lat="49.04555" lon="7.27765">
        <ele>328</ele>
        <time>2020-06-27T10:54:15Z</time>
      </trkpt>
      <trkpt lat="49.04557" lon="7.27771">
        <ele>328.1</ele>
        <time>2020-06-27T10:54:16Z</time>
      </trkpt>
      <trkpt lat="49.04559" lon="7.27778">
        <ele>328.2</ele>
        <time>2020-06-27T10:54:17Z</time>
      </trkpt>
      <trkpt lat="49.0456" lon="7.27785">
        <ele>328.3</ele>
        <time>2020-06-27T10:54:18Z</time>
      </trkpt>
      <trkpt lat="49.04562" lon="7.27791">
        <ele>328.3</ele>
        <time>2020-06-27T10:54:19Z</time>
      </trkpt>
      <trkpt lat="49.04563" lon="7.27797">
        <ele>328.4</ele>
        <time>2020-06-27T10:54:20Z</time>
      </trkpt>
      <trkpt lat="49.04565" lon="7.27802">
        <ele>328.5</ele>
        <time>2020-06-27T10:54:21Z</time>
      </trkpt>
      <trkpt lat="49.04566" lon="7.27812">
        <ele>328.6</ele>
        <time>2020-06-27T10:54:22Z</time>
      </trkpt>
      <trkpt lat="49.04567" lon="7.27819">
        <ele>328.8</ele>
        <time>2020-06-27T10:54:23Z</time>
      </trkpt>
      <trkpt lat="49.04569" lon="7.27827">
        <ele>328.9</ele>
        <time>2020-06-27T10:54:24Z</time>
      </trkpt>
      <trkpt lat="49.04569" lon="7.27831">
        <ele>328.9</ele>
        <time>2020-06-27T10:54:25Z</time>
      </trkpt>
      <trkpt lat="49.0457" lon="7.27837">
        <ele>329.1</ele>
        <time>2020-06-27T10:54:26Z</time>
      </trkpt>
      <trkpt lat="49.0457" lon="7.27844">
        <ele>329</ele>
        <time>2020-06-27T10:54:27Z</time>
      </trkpt>
      <trkpt lat="49.04572" lon="7.27851">
        <ele>328.8</ele>
        <time>2020-06-27T10:54:28Z</time>
      </trkpt>
      <trkpt lat="49.04573" lon="7.27857">
        <ele>328.8</ele>
        <time>2020-06-27T10:54:29Z</time>
      </trkpt>
      <trkpt lat="49.04574" lon="7.27861">
        <ele>328.7</ele>
        <time>2020-06-27T10:54:30Z</time>
      </trkpt>
      <trkpt lat="49.04576" lon="7.27868">
        <ele>328.6</ele>
        <time>2020-06-27T10:54:31Z</time>
      </trkpt>
      <trkpt lat="49.04578" lon="7.27876">
        <ele>328.5</ele>
        <time>2020-06-27T10:54:32Z</time>
      </trkpt>
      <trkpt lat="49.04579" lon="7.27884">
        <ele>328.3</ele>
        <time>2020-06-27T10:54:33Z</time>
      </trkpt>
      <trkpt lat="49.04581" lon="7.27893">
        <ele>328.2</ele>
        <time>2020-06-27T10:54:34Z</time>
      </trkpt>
      <trkpt lat="49.04583" lon="7.279">
        <ele>328</ele>
        <time>2020-06-27T10:54:35Z</time>
      </trkpt>
      <trkpt lat="49.04586" lon="7.27908">
        <ele>327.8</ele>
        <time>2020-06-27T10:54:36Z</time>
      </trkpt>
      <trkpt lat="49.04588" lon="7.27916">
        <ele>327.7</ele>
        <time>2020-06-27T10:54:37Z</time>
      </trkpt>
      <trkpt lat="49.0459" lon="7.27923">
        <ele>327.6</ele>
        <time>2020-06-27T10:54:38Z</time>
      </trkpt>
      <trkpt lat="49.04592" lon="7.27932">
        <ele>327.5</ele>
        <time>2020-06-27T10:54:39Z</time>
      </trkpt>
      <trkpt lat="49.04594" lon="7.27941">
        <ele>327.3</ele>
        <time>2020-06-27T10:54:40Z</time>
      </trkpt>
      <trkpt lat="49.04596" lon="7.27952">
        <ele>327.2</ele>
        <time>2020-06-27T10:54:41Z</time>
      </trkpt>
      <trkpt lat="49.04598" lon="7.27961">
        <ele>327.1</ele>
        <time>2020-06-27T10:54:42Z</time>
      </trkpt>
      <trkpt lat="49.04601" lon="7.27973">
        <ele>326.9</ele>
        <time>2020-06-27T10:54:43Z</time>
      </trkpt>
      <trkpt lat="49.04603" lon="7.27983">
        <ele>326.7</ele>
        <time>2020-06-27T10:54:44Z</time>
      </trkpt>
      <trkpt lat="49.04605" lon="7.27993">
        <ele>326.6</ele>
        <time>2020-06-27T10:54:45Z</time>
      </trkpt>
      <trkpt lat="49.04607" lon="7.28002">
        <ele>326.4</ele>
        <time>2020-06-27T10:54:46Z</time>
      </trkpt>
      <trkpt lat="49.0461" lon="7.28012">
        <ele>326.3</ele>
        <time>2020-06-27T10:54:47Z</time>
      </trkpt>
      <trkpt lat="49.04613" lon="7.28025">
        <ele>326.1</ele>
        <time>2020-06-27T10:54:48Z</time>
      </trkpt>
      <trkpt lat="49.04615" lon="7.28036">
        <ele>326</ele>
        <time>2020-06-27T10:54:49Z</time>
      </trkpt>
      <trkpt lat="49.04617" lon="7.28048">
        <ele>326</ele>
        <time>2020-06-27T10:54:50Z</time>
      </trkpt>
      <trkpt lat="49.04619" lon="7.28059">
        <ele>325.9</ele>
        <time>2020-06-27T10:54:51Z</time>
      </trkpt>
      <trkpt lat="49.04621" lon="7.2807">
        <ele>325.8</ele>
        <time>2020-06-27T10:54:52Z</time>
      </trkpt>
      <trkpt lat="49.04623" lon="7.28081">
        <ele>325.8</ele>
        <time>2020-06-27T10:54:53Z</time>
      </trkpt>
      <trkpt lat="49.04625" lon="7.28091">
        <ele>325.8</ele>
        <time>2020-06-27T10:54:54Z</time>
      </trkpt>
      <trkpt lat="49.04627" lon="7.28102">
        <ele>325.8</ele>
        <time>2020-06-27T10:54:55Z</time>
      </trkpt>
      <trkpt lat="49.04629" lon="7.28113">
        <ele>325.7</ele>
        <time>2020-06-27T10:54:56Z</time>
      </trkpt>
      <trkpt lat="49.04631" lon="7.28124">
        <ele>325.7</ele>
        <time>2020-06-27T10:54:57Z</time>
      </trkpt>
      <trkpt lat="49.04633" lon="7.28136">
        <ele>325.7</ele>
        <time>2020-06-27T10:54:58Z</time>
      </trkpt>
      <trkpt lat="49.04635" lon="7.28147">
        <ele>325.6</ele>
        <time>2020-06-27T10:54:59Z</time>
      </trkpt>
      <trkpt lat="49.04637" lon="7.28159">
        <ele>325.5</ele>
        <time>2020-06-27T10:55:00Z</time>
      </trkpt>
      <trkpt lat="49.04639" lon="7.2817">
        <ele>325.5</ele>
        <time>2020-06-27T10:55:01Z</time>
      </trkpt>
      <trkpt lat="49.0464" lon="7.28181">
        <ele>325.4</ele>
        <time>2020-06-27T10:55:02Z</time>
      </trkpt>
      <trkpt lat="49.04643" lon="7.28192">
        <ele>325.3</ele>
        <time>2020-06-27T10:55:03Z</time>
      </trkpt>
      <trkpt lat="49.04645" lon="7.28203">
        <ele>325.2</ele>
        <time>2020-06-27T10:55:04Z</time>
      </trkpt>
      <trkpt lat="49.04647" lon="7.28213">
        <ele>325.2</ele>
        <time>2020-06-27T10:55:05Z</time>
      </trkpt>
      <trkpt lat="49.04648" lon="7.28224">
        <ele>325.1</ele>
        <time>2020-06-27T10:55:06Z</time>
      </trkpt>
      <trkpt lat="49.0465" lon="7.28234">
        <ele>325.1</ele>
        <time>2020-06-27T10:55:07Z</time>
      </trkpt>
      <trkpt lat="49.04651" lon="7.28245">
        <ele>325.1</ele>
        <time>2020-06-27T10:55:08Z</time>
      </trkpt>
      <trkpt lat="49.04653" lon="7.28256">
        <ele>325.2</ele>
        <time>2020-06-27T10:55:09Z</time>
      </trkpt>
      <trkpt lat="49.04654" lon="7.28267">
        <ele>325.1</ele>
        <time>2020-06-27T10:55:10Z</time>
      </trkpt>
      <trkpt lat="49.04656" lon="7.28278">
        <ele>325.1</ele>
        <time>2020-06-27T10:55:11Z</time>
      </trkpt>
      <trkpt lat="49.04658" lon="7.28288">
        <ele>325.1</ele>
        <time>2020-06-27T10:55:12Z</time>
      </trkpt>
      <trkpt lat="49.0466" lon="7.28299">
        <ele>325</ele>
        <time>2020-06-27T10:55:13Z</time>
      </trkpt>
      <trkpt lat="49.04662" lon="7.2831">
        <ele>325</ele>
        <time>2020-06-27T10:55:14Z</time>
      </trkpt>
      <trkpt lat="49.04664" lon="7.28321">
        <ele>324.9</ele>
        <time>2020-06-27T10:55:15Z</time>
      </trkpt>
      <trkpt lat="49.04666" lon="7.28333">
        <ele>324.9</ele>
        <time>2020-06-27T10:55:16Z</time>
      </trkpt>
      <trkpt lat="49.04668" lon="7.28344">
        <ele>324.8</ele>
        <time>2020-06-27T10:55:17Z</time>
      </trkpt>
      <trkpt lat="49.0467" lon="7.28355">
        <ele>324.7</ele>
        <time>2020-06-27T10:55:18Z</time>
      </trkpt>
      <trkpt lat="49.04672" lon="7.28366">
        <ele>324.6</ele>
        <time>2020-06-27T10:55:19Z</time>
      </trkpt>
      <trkpt lat="49.04674" lon="7.28377">
        <ele>324.5</ele>
        <time>2020-06-27T10:55:20Z</time>
      </trkpt>
      <trkpt lat="49.04676" lon="7.28388">
        <ele>324.4</ele>
        <time>2020-06-27T10:55:21Z</time>
      </trkpt>
      <trkpt lat="49.04677" lon="7.28399">
        <ele>324.4</ele>
        <time>2020-06-27T10:55:22Z</time>
      </trkpt>
      <trkpt lat="49.04679" lon="7.2841">
        <ele>324.5</ele>
        <time>2020-06-27T10:55:23Z</time>
      </trkpt>
      <trkpt lat="49.04681" lon="7.28421">
        <ele>324.6</ele>
        <time>2020-06-27T10:55:24Z</time>
      </trkpt>
      <trkpt lat="49.04683" lon="7.28432">
        <ele>324.7</ele>
        <time>2020-06-27T10:55:25Z</time>
      </trkpt>
      <trkpt lat="49.04685" lon="7.28443">
        <ele>324.8</ele>
        <time>2020-06-27T10:55:26Z</time>
      </trkpt>
      <trkpt lat="49.04687" lon="7.28454">
        <ele>324.9</ele>
        <time>2020-06-27T10:55:27Z</time>
      </trkpt>
      <trkpt lat="49.04689" lon="7.28465">
        <ele>324.9</ele>
        <time>2020-06-27T10:55:28Z</time>
      </trkpt>
      <trkpt lat="49.04691" lon="7.28475">
        <ele>325</ele>
        <time>2020-06-27T10:55:29Z</time>
      </trkpt>
      <trkpt lat="49.04694" lon="7.28485">
        <ele>325.1</ele>
        <time>2020-06-27T10:55:30Z</time>
      </trkpt>
      <trkpt lat="49.04696" lon="7.28496">
        <ele>325.3</ele>
        <time>2020-06-27T10:55:31Z</time>
      </trkpt>
      <trkpt lat="49.04698" lon="7.28506">
        <ele>325.4</ele>
        <time>2020-06-27T10:55:32Z</time>
      </trkpt>
      <trkpt lat="49.047" lon="7.28516">
        <ele>325.6</ele>
        <time>2020-06-27T10:55:33Z</time>
      </trkpt>
      <trkpt lat="49.04702" lon="7.28526">
        <ele>325.7</ele>
        <time>2020-06-27T10:55:34Z</time>
      </trkpt>
      <trkpt lat="49.04704" lon="7.28536">
        <ele>325.7</ele>
        <time>2020-06-27T10:55:35Z</time>
      </trkpt>
      <trkpt lat="49.04705" lon="7.28546">
        <ele>325.8</ele>
        <time>2020-06-27T10:55:36Z</time>
      </trkpt>
      <trkpt lat="49.04707" lon="7.28556">
        <ele>326</ele>
        <time>2020-06-27T10:55:37Z</time>
      </trkpt>
      <trkpt lat="49.04709" lon="7.28565">
        <ele>326.1</ele>
        <time>2020-06-27T10:55:38Z</time>
      </trkpt>
      <trkpt lat="49.04712" lon="7.28574">
        <ele>326.1</ele>
        <time>2020-06-27T10:55:39Z</time>
      </trkpt>
      <trkpt lat="49.04714" lon="7.28583">
        <ele>326.3</ele>
        <time>2020-06-27T10:55:40Z</time>
      </trkpt>
      <trkpt lat="49.04715" lon="7.28594">
        <ele>326.4</ele>
        <time>2020-06-27T10:55:41Z</time>
      </trkpt>
      <trkpt lat="49.04716" lon="7.28604">
        <ele>326.5</ele>
        <time>2020-06-27T10:55:42Z</time>
      </trkpt>
      <trkpt lat="49.04716" lon="7.28614">
        <ele>326.5</ele>
        <time>2020-06-27T10:55:43Z</time>
      </trkpt>
      <trkpt lat="49.04717" lon="7.28625">
        <ele>326.7</ele>
        <time>2020-06-27T10:55:44Z</time>
      </trkpt>
      <trkpt lat="49.04719" lon="7.28635">
        <ele>326.8</ele>
        <time>2020-06-27T10:55:45Z</time>
      </trkpt>
      <trkpt lat="49.0472" lon="7.28645">
        <ele>326.9</ele>
        <time>2020-06-27T10:55:46Z</time>
      </trkpt>
      <trkpt lat="49.04722" lon="7.28655">
        <ele>326.9</ele>
        <time>2020-06-27T10:55:47Z</time>
      </trkpt>
      <trkpt lat="49.04724" lon="7.28665">
        <ele>327</ele>
        <time>2020-06-27T10:55:48Z</time>
      </trkpt>
      <trkpt lat="49.04725" lon="7.28675">
        <ele>327.1</ele>
        <time>2020-06-27T10:55:49Z</time>
      </trkpt>
      <trkpt lat="49.04727" lon="7.28685">
        <ele>327.2</ele>
        <time>2020-06-27T10:55:50Z</time>
      </trkpt>
      <trkpt lat="49.04728" lon="7.28694">
        <ele>327.3</ele>
        <time>2020-06-27T10:55:51Z</time>
      </trkpt>
      <trkpt lat="49.0473" lon="7.28704">
        <ele>327.3</ele>
        <time>2020-06-27T10:55:52Z</time>
      </trkpt>
      <trkpt lat="49.04732" lon="7.28713">
        <ele>327.4</ele>
        <time>2020-06-27T10:55:53Z</time>
      </trkpt>
      <trkpt lat="49.04733" lon="7.28722">
        <ele>327.4</ele>
        <time>2020-06-27T10:55:54Z</time>
      </trkpt>
      <trkpt lat="49.04735" lon="7.28731">
        <ele>327.5</ele>
        <time>2020-06-27T10:55:55Z</time>
      </trkpt>
      <trkpt lat="49.04736" lon="7.28741">
        <ele>327.6</ele>
        <time>2020-06-27T10:55:56Z</time>
      </trkpt>
      <trkpt lat="49.04737" lon="7.2875">
        <ele>327.7</ele>
        <time>2020-06-27T10:55:57Z</time>
      </trkpt>
      <trkpt lat="49.04739" lon="7.28759">
        <ele>327.8</ele>
        <time>2020-06-27T10:55:58Z</time>
      </trkpt>
      <trkpt lat="49.0474" lon="7.28768">
        <ele>327.9</ele>
        <time>2020-06-27T10:55:59Z</time>
      </trkpt>
      <trkpt lat="49.04742" lon="7.28777">
        <ele>328</ele>
        <time>2020-06-27T10:56:00Z</time>
      </trkpt>
      <trkpt lat="49.04743" lon="7.28786">
        <ele>328.1</ele>
        <time>2020-06-27T10:56:01Z</time>
      </trkpt>
      <trkpt lat="49.04745" lon="7.28795">
        <ele>328.2</ele>
        <time>2020-06-27T10:56:02Z</time>
      </trkpt>
      <trkpt lat="49.04747" lon="7.28804">
        <ele>328.3</ele>
        <time>2020-06-27T10:56:03Z</time>
      </trkpt>
      <trkpt lat="49.04749" lon="7.28813">
        <ele>328.4</ele>
        <time>2020-06-27T10:56:04Z</time>
      </trkpt>
      <trkpt lat="49.0475" lon="7.28822">
        <ele>328.5</ele>
        <time>2020-06-27T10:56:05Z</time>
      </trkpt>
      <trkpt lat="49.04751" lon="7.2883">
        <ele>328.5</ele>
        <time>2020-06-27T10:56:06Z</time>
      </trkpt>
      <trkpt lat="49.04753" lon="7.28838">
        <ele>328.6</ele>
        <time>2020-06-27T10:56:07Z</time>
      </trkpt>
      <trkpt lat="49.04753" lon="7.28848">
        <ele>328.7</ele>
        <time>2020-06-27T10:56:08Z</time>
      </trkpt>
      <trkpt lat="49.04755" lon="7.28856">
        <ele>328.8</ele>
        <time>2020-06-27T10:56:09Z</time>
      </trkpt>
      <trkpt lat="49.04757" lon="7.28865">
        <ele>328.9</ele>
        <time>2020-06-27T10:56:10Z</time>
      </trkpt>
      <trkpt lat="49.04759" lon="7.28873">
        <ele>329</ele>
        <time>2020-06-27T10:56:11Z</time>
      </trkpt>
      <trkpt lat="49.0476" lon="7.28882">
        <ele>329.1</ele>
        <time>2020-06-27T10:56:12Z</time>
      </trkpt>
      <trkpt lat="49.04762" lon="7.28889">
        <ele>329.2</ele>
        <time>2020-06-27T10:56:13Z</time>
      </trkpt>
      <trkpt lat="49.04764" lon="7.28897">
        <ele>329.3</ele>
        <time>2020-06-27T10:56:14Z</time>
      </trkpt>
      <trkpt lat="49.04765" lon="7.28906">
        <ele>329.4</ele>
        <time>2020-06-27T10:56:15Z</time>
      </trkpt>
      <trkpt lat="49.04766" lon="7.28914">
        <ele>329.4</ele>
        <time>2020-06-27T10:56:16Z</time>
      </trkpt>
      <trkpt lat="49.04768" lon="7.28923">
        <ele>329.5</ele>
        <time>2020-06-27T10:56:17Z</time>
      </trkpt>
      <trkpt lat="49.0477" lon="7.28931">
        <ele>329.6</ele>
        <time>2020-06-27T10:56:18Z</time>
      </trkpt>
      <trkpt lat="49.04771" lon="7.2894">
        <ele>329.6</ele>
        <time>2020-06-27T10:56:19Z</time>
      </trkpt>
      <trkpt lat="49.04773" lon="7.28949">
        <ele>329.7</ele>
        <time>2020-06-27T10:56:20Z</time>
      </trkpt>
      <trkpt lat="49.04773" lon="7.28958">
        <ele>329.8</ele>
        <time>2020-06-27T10:56:21Z</time>
      </trkpt>
      <trkpt lat="49.04774" lon="7.28967">
        <ele>329.8</ele>
        <time>2020-06-27T10:56:22Z</time>
      </trkpt>
      <trkpt lat="49.04776" lon="7.28976">
        <ele>329.8</ele>
        <time>2020-06-27T10:56:23Z</time>
      </trkpt>
      <trkpt lat="49.04777" lon="7.28985">
        <ele>329.8</ele>
        <time>2020-06-27T10:56:24Z</time>
      </trkpt>
      <trkpt lat="49.04779" lon="7.28993">
        <ele>329.8</ele>
        <time>2020-06-27T10:56:25Z</time>
      </trkpt>
      <trkpt lat="49.04781" lon="7.29002">
        <ele>329.8</ele>
        <time>2020-06-27T10:56:26Z</time>
      </trkpt>
      <trkpt lat="49.04783" lon="7.2901">
        <ele>329.8</ele>
        <time>2020-06-27T10:56:27Z</time>
      </trkpt>
      <trkpt lat="49.04785" lon="7.29018">
        <ele>329.8</ele>
        <time>2020-06-27T10:56:28Z</time>
      </trkpt>
      <trkpt lat="49.04786" lon="7.29028">
        <ele>329.7</ele>
        <time>2020-06-27T10:56:29Z</time>
      </trkpt>
      <trkpt lat="49.04788" lon="7.29038">
        <ele>329.6</ele>
        <time>2020-06-27T10:56:30Z</time>
      </trkpt>
      <trkpt lat="49.0479" lon="7.29047">
        <ele>329.5</ele>
        <time>2020-06-27T10:56:31Z</time>
      </trkpt>
      <trkpt lat="49.04791" lon="7.29057">
        <ele>329.3</ele>
        <time>2020-06-27T10:56:32Z</time>
      </trkpt>
      <trkpt lat="49.04792" lon="7.29067">
        <ele>329.2</ele>
        <time>2020-06-27T10:56:33Z</time>
      </trkpt>
      <trkpt lat="49.04793" lon="7.29077">
        <ele>329.1</ele>
        <time>2020-06-27T10:56:34Z</time>
      </trkpt>
      <trkpt lat="49.04794" lon="7.29087">
        <ele>329</ele>
        <time>2020-06-27T10:56:35Z</time>
      </trkpt>
      <trkpt lat="49.04796" lon="7.29097">
        <ele>328.9</ele>
        <time>2020-06-27T10:56:36Z</time>
      </trkpt>
      <trkpt lat="49.04797" lon="7.29107">
        <ele>328.7</ele>
        <time>2020-06-27T10:56:37Z</time>
      </trkpt>
      <trkpt lat="49.04798" lon="7.29118">
        <ele>328.6</ele>
        <time>2020-06-27T10:56:38Z</time>
      </trkpt>
      <trkpt lat="49.048" lon="7.29129">
        <ele>328.5</ele>
        <time>2020-06-27T10:56:39Z</time>
      </trkpt>
      <trkpt lat="49.04802" lon="7.2914">
        <ele>328.3</ele>
        <time>2020-06-27T10:56:40Z</time>
      </trkpt>
      <trkpt lat="49.04802" lon="7.29151">
        <ele>328.2</ele>
        <time>2020-06-27T10:56:41Z</time>
      </trkpt>
      <trkpt lat="49.04803" lon="7.29163">
        <ele>328.1</ele>
        <time>2020-06-27T10:56:42Z</time>
      </trkpt>
      <trkpt lat="49.04805" lon="7.29174">
        <ele>327.9</ele>
        <time>2020-06-27T10:56:43Z</time>
      </trkpt>
      <trkpt lat="49.04807" lon="7.29185">
        <ele>327.7</ele>
        <time>2020-06-27T10:56:44Z</time>
      </trkpt>
      <trkpt lat="49.04808" lon="7.29197">
        <ele>327.6</ele>
        <time>2020-06-27T10:56:45Z</time>
      </trkpt>
      <trkpt lat="49.0481" lon="7.29208">
        <ele>327.5</ele>
        <time>2020-06-27T10:56:46Z</time>
      </trkpt>
      <trkpt lat="49.04811" lon="7.29219">
        <ele>327.4</ele>
        <time>2020-06-27T10:56:47Z</time>
      </trkpt>
      <trkpt lat="49.04813" lon="7.29231">
        <ele>327.3</ele>
        <time>2020-06-27T10:56:48Z</time>
      </trkpt>
      <trkpt lat="49.04814" lon="7.29242">
        <ele>327.3</ele>
        <time>2020-06-27T10:56:49Z</time>
      </trkpt>
      <trkpt lat="49.04816" lon="7.29254">
        <ele>327.3</ele>
        <time>2020-06-27T10:56:50Z</time>
      </trkpt>
      <trkpt lat="49.04817" lon="7.29266">
        <ele>327.3</ele>
        <time>2020-06-27T10:56:51Z</time>
      </trkpt>
      <trkpt lat="49.04819" lon="7.29277">
        <ele>327.4</ele>
        <time>2020-06-27T10:56:52Z</time>
      </trkpt>
      <trkpt lat="49.04821" lon="7.29289">
        <ele>327.4</ele>
        <time>2020-06-27T10:56:53Z</time>
      </trkpt>
      <trkpt lat="49.04822" lon="7.293">
        <ele>327.5</ele>
        <time>2020-06-27T10:56:54Z</time>
      </trkpt>
      <trkpt lat="49.04824" lon="7.29311">
        <ele>327.6</ele>
        <time>2020-06-27T10:56:55Z</time>
      </trkpt>
      <trkpt lat="49.04825" lon="7.29323">
        <ele>327.7</ele>
        <time>2020-06-27T10:56:56Z</time>
      </trkpt>
      <trkpt lat="49.04827" lon="7.29334">
        <ele>327.9</ele>
        <time>2020-06-27T10:56:57Z</time>
      </trkpt>
      <trkpt lat="49.04828" lon="7.29344">
        <ele>328</ele>
        <time>2020-06-27T10:56:58Z</time>
      </trkpt>
      <trkpt lat="49.0483" lon="7.29354">
        <ele>328.2</ele>
        <time>2020-06-27T10:56:59Z</time>
      </trkpt>
      <trkpt lat="49.04831" lon="7.29363">
        <ele>328.4</ele>
        <time>2020-06-27T10:57:00Z</time>
      </trkpt>
      <trkpt lat="49.04832" lon="7.29373">
        <ele>328.6</ele>
        <time>2020-06-27T10:57:01Z</time>
      </trkpt>
      <trkpt lat="49.04833" lon="7.29382">
        <ele>328.8</ele>
        <time>2020-06-27T10:57:02Z</time>
      </trkpt>
      <trkpt lat="49.04834" lon="7.29391">
        <ele>329</ele>
        <time>2020-06-27T10:57:03Z</time>
      </trkpt>
      <trkpt lat="49.04836" lon="7.29401">
        <ele>329.3</ele>
        <time>2020-06-27T10:57:04Z</time>
      </trkpt>
      <trkpt lat="49.04837" lon="7.2941">
        <ele>329.5</ele>
        <time>2020-06-27T10:57:05Z</time>
      </trkpt>
      <trkpt lat="49.04838" lon="7.29418">
        <ele>329.6</ele>
        <time>2020-06-27T10:57:06Z</time>
      </trkpt>
      <trkpt lat="49.04839" lon="7.29427">
        <ele>329.8</ele>
        <time>2020-06-27T10:57:07Z</time>
      </trkpt>
      <trkpt lat="49.0484" lon="7.29436">
        <ele>330.1</ele>
        <time>2020-06-27T10:57:08Z</time>
      </trkpt>
      <trkpt lat="49.04841" lon="7.29445">
        <ele>330.3</ele>
        <time>2020-06-27T10:57:09Z</time>
      </trkpt>
      <trkpt lat="49.04842" lon="7.29453">
        <ele>330.6</ele>
        <time>2020-06-27T10:57:10Z</time>
      </trkpt>
      <trkpt lat="49.04845" lon="7.29461">
        <ele>330.8</ele>
        <time>2020-06-27T10:57:11Z</time>
      </trkpt>
      <trkpt lat="49.04846" lon="7.29468">
        <ele>331</ele>
        <time>2020-06-27T10:57:12Z</time>
      </trkpt>
      <trkpt lat="49.04845" lon="7.29477">
        <ele>331.2</ele>
        <time>2020-06-27T10:57:13Z</time>
      </trkpt>
      <trkpt lat="49.04846" lon="7.29485">
        <ele>331.4</ele>
        <time>2020-06-27T10:57:14Z</time>
      </trkpt>
      <trkpt lat="49.04847" lon="7.29492">
        <ele>331.5</ele>
        <time>2020-06-27T10:57:15Z</time>
      </trkpt>
      <trkpt lat="49.04849" lon="7.29499">
        <ele>331.6</ele>
        <time>2020-06-27T10:57:16Z</time>
      </trkpt>
      <trkpt lat="49.04849" lon="7.29507">
        <ele>331.7</ele>
        <time>2020-06-27T10:57:17Z</time>
      </trkpt>
      <trkpt lat="49.0485" lon="7.29515">
        <ele>331.8</ele>
        <time>2020-06-27T10:57:18Z</time>
      </trkpt>
      <trkpt lat="49.04852" lon="7.29524">
        <ele>331.8</ele>
        <time>2020-06-27T10:57:19Z</time>
      </trkpt>
      <trkpt lat="49.04853" lon="7.29532">
        <ele>331.9</ele>
        <time>2020-06-27T10:57:20Z</time>
      </trkpt>
      <trkpt lat="49.04854" lon="7.2954">
        <ele>332</ele>
        <time>2020-06-27T10:57:21Z</time>
      </trkpt>
      <trkpt lat="49.04855" lon="7.29548">
        <ele>332.2</ele>
        <time>2020-06-27T10:57:22Z</time>
      </trkpt>
      <trkpt lat="49.04857" lon="7.29556">
        <ele>332.3</ele>
        <time>2020-06-27T10:57:23Z</time>
      </trkpt>
      <trkpt lat="49.04859" lon="7.29564">
        <ele>332.4</ele>
        <time>2020-06-27T10:57:24Z</time>
      </trkpt>
      <trkpt lat="49.0486" lon="7.29572">
        <ele>332.4</ele>
        <time>2020-06-27T10:57:25Z</time>
      </trkpt>
      <trkpt lat="49.04861" lon="7.29579">
        <ele>332.5</ele>
        <time>2020-06-27T10:57:26Z</time>
      </trkpt>
      <trkpt lat="49.04863" lon="7.29585">
        <ele>332.6</ele>
        <time>2020-06-27T10:57:27Z</time>
      </trkpt>
      <trkpt lat="49.04865" lon="7.29594">
        <ele>332.7</ele>
        <time>2020-06-27T10:57:28Z</time>
      </trkpt>
      <trkpt lat="49.04866" lon="7.29603">
        <ele>332.8</ele>
        <time>2020-06-27T10:57:29Z</time>
      </trkpt>
      <trkpt lat="49.04867" lon="7.29614">
        <ele>332.9</ele>
        <time>2020-06-27T10:57:30Z</time>
      </trkpt>
      <trkpt lat="49.0487" lon="7.29622">
        <ele>332.9</ele>
        <time>2020-06-27T10:57:31Z</time>
      </trkpt>
      <trkpt lat="49.04871" lon="7.29631">
        <ele>333</ele>
        <time>2020-06-27T10:57:32Z</time>
      </trkpt>
      <trkpt lat="49.04872" lon="7.29638">
        <ele>333.1</ele>
        <time>2020-06-27T10:57:33Z</time>
      </trkpt>
      <trkpt lat="49.04873" lon="7.29646">
        <ele>333.2</ele>
        <time>2020-06-27T10:57:34Z</time>
      </trkpt>
      <trkpt lat="49.04874" lon="7.29654">
        <ele>333.3</ele>
        <time>2020-06-27T10:57:35Z</time>
      </trkpt>
      <trkpt lat="49.04874" lon="7.29662">
        <ele>333.4</ele>
        <time>2020-06-27T10:57:36Z</time>
      </trkpt>
      <trkpt lat="49.04875" lon="7.2967">
        <ele>333.5</ele>
        <time>2020-06-27T10:57:37Z</time>
      </trkpt>
      <trkpt lat="49.04876" lon="7.29678">
        <ele>333.6</ele>
        <time>2020-06-27T10:57:38Z</time>
      </trkpt>
      <trkpt lat="49.04876" lon="7.29687">
        <ele>333.7</ele>
        <time>2020-06-27T10:57:39Z</time>
      </trkpt>
      <trkpt lat="49.04877" lon="7.29696">
        <ele>333.8</ele>
        <time>2020-06-27T10:57:40Z</time>
      </trkpt>
      <trkpt lat="49.04878" lon="7.29705">
        <ele>333.8</ele>
        <time>2020-06-27T10:57:41Z</time>
      </trkpt>
      <trkpt lat="49.04879" lon="7.29713">
        <ele>333.9</ele>
        <time>2020-06-27T10:57:42Z</time>
      </trkpt>
      <trkpt lat="49.0488" lon="7.2972">
        <ele>334</ele>
        <time>2020-06-27T10:57:43Z</time>
      </trkpt>
      <trkpt lat="49.0488" lon="7.29728">
        <ele>334</ele>
        <time>2020-06-27T10:57:44Z</time>
      </trkpt>
      <trkpt lat="49.04881" lon="7.29735">
        <ele>334</ele>
        <time>2020-06-27T10:57:45Z</time>
      </trkpt>
      <trkpt lat="49.04883" lon="7.29744">
        <ele>334.2</ele>
        <time>2020-06-27T10:57:46Z</time>
      </trkpt>
      <trkpt lat="49.04885" lon="7.29754">
        <ele>334.4</ele>
        <time>2020-06-27T10:57:47Z</time>
      </trkpt>
      <trkpt lat="49.04886" lon="7.29763">
        <ele>334.5</ele>
        <time>2020-06-27T10:57:48Z</time>
      </trkpt>
      <trkpt lat="49.04888" lon="7.29772">
        <ele>334.7</ele>
        <time>2020-06-27T10:57:49Z</time>
      </trkpt>
      <trkpt lat="49.04888" lon="7.2978">
        <ele>334.8</ele>
        <time>2020-06-27T10:57:50Z</time>
      </trkpt>
      <trkpt lat="49.0489" lon="7.29788">
        <ele>335</ele>
        <time>2020-06-27T10:57:51Z</time>
      </trkpt>
      <trkpt lat="49.0489" lon="7.29796">
        <ele>335.1</ele>
        <time>2020-06-27T10:57:52Z</time>
      </trkpt>
      <trkpt lat="49.04891" lon="7.29805">
        <ele>335.3</ele>
        <time>2020-06-27T10:57:53Z</time>
      </trkpt>
      <trkpt lat="49.04892" lon="7.29812">
        <ele>335.5</ele>
        <time>2020-06-27T10:57:54Z</time>
      </trkpt>
      <trkpt lat="49.04893" lon="7.2982">
        <ele>335.6</ele>
        <time>2020-06-27T10:57:55Z</time>
      </trkpt>
      <trkpt lat="49.04894" lon="7.29828">
        <ele>335.8</ele>
        <time>2020-06-27T10:57:56Z</time>
      </trkpt>
      <trkpt lat="49.04896" lon="7.29838">
        <ele>336</ele>
        <time>2020-06-27T10:57:57Z</time>
      </trkpt>
      <trkpt lat="49.04897" lon="7.29847">
        <ele>336.1</ele>
        <time>2020-06-27T10:57:58Z</time>
      </trkpt>
      <trkpt lat="49.04898" lon="7.29856">
        <ele>336.3</ele>
        <time>2020-06-27T10:57:59Z</time>
      </trkpt>
      <trkpt lat="49.04899" lon="7.29865">
        <ele>336.4</ele>
        <time>2020-06-27T10:58:00Z</time>
      </trkpt>
      <trkpt lat="49.04901" lon="7.29872">
        <ele>336.5</ele>
        <time>2020-06-27T10:58:01Z</time>
      </trkpt>
      <trkpt lat="49.04902" lon="7.29879">
        <ele>336.7</ele>
        <time>2020-06-27T10:58:02Z</time>
      </trkpt>
      <trkpt lat="49.04902" lon="7.29886">
        <ele>336.8</ele>
        <time>2020-06-27T10:58:03Z</time>
      </trkpt>
      <trkpt lat="49.04904" lon="7.29895">
        <ele>337</ele>
        <time>2020-06-27T10:58:04Z</time>
      </trkpt>
      <trkpt lat="49.04905" lon="7.29901">
        <ele>337.1</ele>
        <time>2020-06-27T10:58:05Z</time>
      </trkpt>
      <trkpt lat="49.04906" lon="7.29909">
        <ele>337.2</ele>
        <time>2020-06-27T10:58:06Z</time>
      </trkpt>
      <trkpt lat="49.04906" lon="7.29917">
        <ele>337.4</ele>
        <time>2020-06-27T10:58:07Z</time>
      </trkpt>
      <trkpt lat="49.04908" lon="7.29923">
        <ele>337.5</ele>
        <time>2020-06-27T10:58:08Z</time>
      </trkpt>
      <trkpt lat="49.04909" lon="7.29931">
        <ele>337.7</ele>
        <time>2020-06-27T10:58:09Z</time>
      </trkpt>
      <trkpt lat="49.04909" lon="7.2994">
        <ele>337.9</ele>
        <time>2020-06-27T10:58:10Z</time>
      </trkpt>
      <trkpt lat="49.04911" lon="7.29949">
        <ele>338.1</ele>
        <time>2020-06-27T10:58:11Z</time>
      </trkpt>
      <trkpt lat="49.04912" lon="7.29959">
        <ele>338.3</ele>
        <time>2020-06-27T10:58:12Z</time>
      </trkpt>
      <trkpt lat="49.04913" lon="7.29967">
        <ele>338.5</ele>
        <time>2020-06-27T10:58:13Z</time>
      </trkpt>
      <trkpt lat="49.04914" lon="7.29973">
        <ele>338.6</ele>
        <time>2020-06-27T10:58:14Z</time>
      </trkpt>
      <trkpt lat="49.04914" lon="7.29983">
        <ele>338.7</ele>
        <time>2020-06-27T10:58:15Z</time>
      </trkpt>
      <trkpt lat="49.04915" lon="7.2999">
        <ele>338.8</ele>
        <time>2020-06-27T10:58:16Z</time>
      </trkpt>
      <trkpt lat="49.04917" lon="7.29998">
        <ele>338.9</ele>
        <time>2020-06-27T10:58:17Z</time>
      </trkpt>
      <trkpt lat="49.04917" lon="7.30006">
        <ele>339.1</ele>
        <time>2020-06-27T10:58:18Z</time>
      </trkpt>
      <trkpt lat="49.04919" lon="7.30015">
        <ele>339.4</ele>
        <time>2020-06-27T10:58:19Z</time>
      </trkpt>
      <trkpt lat="49.04921" lon="7.30023">
        <ele>339.4</ele>
        <time>2020-06-27T10:58:20Z</time>
      </trkpt>
      <trkpt lat="49.04922" lon="7.3003">
        <ele>339.4</ele>
        <time>2020-06-27T10:58:21Z</time>
      </trkpt>
      <trkpt lat="49.04923" lon="7.30039">
        <ele>339.5</ele>
        <time>2020-06-27T10:58:22Z</time>
      </trkpt>
      <trkpt lat="49.04924" lon="7.30048">
        <ele>339.5</ele>
        <time>2020-06-27T10:58:23Z</time>
      </trkpt>
      <trkpt lat="49.04925" lon="7.30056">
        <ele>339.6</ele>
        <time>2020-06-27T10:58:24Z</time>
      </trkpt>
      <trkpt lat="49.04926" lon="7.30065">
        <ele>339.7</ele>
        <time>2020-06-27T10:58:25Z</time>
      </trkpt>
      <trkpt lat="49.04928" lon="7.30074">
        <ele>339.8</ele>
        <time>2020-06-27T10:58:26Z</time>
      </trkpt>
      <trkpt lat="49.04929" lon="7.30081">
        <ele>339.9</ele>
        <time>2020-06-27T10:58:27Z</time>
      </trkpt>
      <trkpt lat="49.0493" lon="7.30088">
        <ele>340</ele>
        <time>2020-06-27T10:58:28Z</time>
      </trkpt>
      <trkpt lat="49.04931" lon="7.30097">
        <ele>340.1</ele>
        <time>2020-06-27T10:58:29Z</time>
      </trkpt>
      <trkpt lat="49.04933" lon="7.30105">
        <ele>340.1</ele>
        <time>2020-06-27T10:58:30Z</time>
      </trkpt>
      <trkpt lat="49.04934" lon="7.30114">
        <ele>340.2</ele>
        <time>2020-06-27T10:58:31Z</time>
      </trkpt>
      <trkpt lat="49.04935" lon="7.30122">
        <ele>340.2</ele>
        <time>2020-06-27T10:58:32Z</time>
      </trkpt>
      <trkpt lat="49.04936" lon="7.3013">
        <ele>340.3</ele>
        <time>2020-06-27T10:58:33Z</time>
      </trkpt>
      <trkpt lat="49.04938" lon="7.30138">
        <ele>340.3</ele>
        <time>2020-06-27T10:58:34Z</time>
      </trkpt>
      <trkpt lat="49.04939" lon="7.30146">
        <ele>340.3</ele>
        <time>2020-06-27T10:58:35Z</time>
      </trkpt>
      <trkpt lat="49.0494" lon="7.30154">
        <ele>340.4</ele>
        <time>2020-06-27T10:58:36Z</time>
      </trkpt>
      <trkpt lat="49.04941" lon="7.30164">
        <ele>340.4</ele>
        <time>2020-06-27T10:58:37Z</time>
      </trkpt>
      <trkpt lat="49.04943" lon="7.30172">
        <ele>340.4</ele>
        <time>2020-06-27T10:58:38Z</time>
      </trkpt>
      <trkpt lat="49.04944" lon="7.3018">
        <ele>340.3</ele>
        <time>2020-06-27T10:58:39Z</time>
      </trkpt>
      <trkpt lat="49.04944" lon="7.3019">
        <ele>340.3</ele>
        <time>2020-06-27T10:58:40Z</time>
      </trkpt>
      <trkpt lat="49.04945" lon="7.30199">
        <ele>340.3</ele>
        <time>2020-06-27T10:58:41Z</time>
      </trkpt>
      <trkpt lat="49.04947" lon="7.30209">
        <ele>340.3</ele>
        <time>2020-06-27T10:58:42Z</time>
      </trkpt>
      <trkpt lat="49.04948" lon="7.30219">
        <ele>340.3</ele>
        <time>2020-06-27T10:58:43Z</time>
      </trkpt>
      <trkpt lat="49.04949" lon="7.30228">
        <ele>340.3</ele>
        <time>2020-06-27T10:58:44Z</time>
      </trkpt>
      <trkpt lat="49.04951" lon="7.30239">
        <ele>340.4</ele>
        <time>2020-06-27T10:58:45Z</time>
      </trkpt>
      <trkpt lat="49.04952" lon="7.30249">
        <ele>340.4</ele>
        <time>2020-06-27T10:58:46Z</time>
      </trkpt>
      <trkpt lat="49.04953" lon="7.30259">
        <ele>340.5</ele>
        <time>2020-06-27T10:58:47Z</time>
      </trkpt>
      <trkpt lat="49.04954" lon="7.30269">
        <ele>340.5</ele>
        <time>2020-06-27T10:58:48Z</time>
      </trkpt>
      <trkpt lat="49.04955" lon="7.30279">
        <ele>340.6</ele>
        <time>2020-06-27T10:58:49Z</time>
      </trkpt>
      <trkpt lat="49.04956" lon="7.30288">
        <ele>340.6</ele>
        <time>2020-06-27T10:58:50Z</time>
      </trkpt>
      <trkpt lat="49.04957" lon="7.30299">
        <ele>340.7</ele>
        <time>2020-06-27T10:58:51Z</time>
      </trkpt>
      <trkpt lat="49.04958" lon="7.30307">
        <ele>340.7</ele>
        <time>2020-06-27T10:58:52Z</time>
      </trkpt>
      <trkpt lat="49.04959" lon="7.30316">
        <ele>340.8</ele>
        <time>2020-06-27T10:58:53Z</time>
      </trkpt>
      <trkpt lat="49.04961" lon="7.30326">
        <ele>340.9</ele>
        <time>2020-06-27T10:58:54Z</time>
      </trkpt>
      <trkpt lat="49.04962" lon="7.30335">
        <ele>341</ele>
        <time>2020-06-27T10:58:55Z</time>
      </trkpt>
      <trkpt lat="49.04963" lon="7.30344">
        <ele>341.1</ele>
        <time>2020-06-27T10:58:56Z</time>
      </trkpt>
      <trkpt lat="49.04966" lon="7.30356">
        <ele>341.2</ele>
        <time>2020-06-27T10:58:57Z</time>
      </trkpt>
      <trkpt lat="49.04966" lon="7.30364">
        <ele>341.2</ele>
        <time>2020-06-27T10:58:58Z</time>
      </trkpt>
      <trkpt lat="49.04967" lon="7.30373">
        <ele>341.3</ele>
        <time>2020-06-27T10:58:59Z</time>
      </trkpt>
      <trkpt lat="49.04968" lon="7.3038">
        <ele>341.4</ele>
        <time>2020-06-27T10:59:00Z</time>
      </trkpt>
      <trkpt lat="49.0497" lon="7.30391">
        <ele>341.5</ele>
        <time>2020-06-27T10:59:01Z</time>
      </trkpt>
      <trkpt lat="49.04971" lon="7.304">
        <ele>341.6</ele>
        <time>2020-06-27T10:59:02Z</time>
      </trkpt>
      <trkpt lat="49.04973" lon="7.30411">
        <ele>341.7</ele>
        <time>2020-06-27T10:59:03Z</time>
      </trkpt>
      <trkpt lat="49.04975" lon="7.3042">
        <ele>341.7</ele>
        <time>2020-06-27T10:59:04Z</time>
      </trkpt>
      <trkpt lat="49.04975" lon="7.30428">
        <ele>341.8</ele>
        <time>2020-06-27T10:59:05Z</time>
      </trkpt>
      <trkpt lat="49.04976" lon="7.30437">
        <ele>341.9</ele>
        <time>2020-06-27T10:59:06Z</time>
      </trkpt>
      <trkpt lat="49.04977" lon="7.30444">
        <ele>341.9</ele>
        <time>2020-06-27T10:59:07Z</time>
      </trkpt>
      <trkpt lat="49.04977" lon="7.30452">
        <ele>342</ele>
        <time>2020-06-27T10:59:08Z</time>
      </trkpt>
      <trkpt lat="49.04977" lon="7.3046">
        <ele>342.1</ele>
        <time>2020-06-27T10:59:09Z</time>
      </trkpt>
      <trkpt lat="49.04979" lon="7.3047">
        <ele>342.2</ele>
        <time>2020-06-27T10:59:10Z</time>
      </trkpt>
      <trkpt lat="49.0498" lon="7.30479">
        <ele>342.3</ele>
        <time>2020-06-27T10:59:11Z</time>
      </trkpt>
      <trkpt lat="49.04981" lon="7.30486">
        <ele>342.5</ele>
        <time>2020-06-27T10:59:12Z</time>
      </trkpt>
      <trkpt lat="49.04982" lon="7.30496">
        <ele>342.6</ele>
        <time>2020-06-27T10:59:13Z</time>
      </trkpt>
      <trkpt lat="49.04984" lon="7.30504">
        <ele>342.8</ele>
        <time>2020-06-27T10:59:14Z</time>
      </trkpt>
      <trkpt lat="49.04985" lon="7.30511">
        <ele>342.9</ele>
        <time>2020-06-27T10:59:15Z</time>
      </trkpt>
      <trkpt lat="49.04986" lon="7.30521">
        <ele>343.1</ele>
        <time>2020-06-27T10:59:16Z</time>
      </trkpt>
      <trkpt lat="49.04986" lon="7.30529">
        <ele>343.2</ele>
        <time>2020-06-27T10:59:17Z</time>
      </trkpt>
      <trkpt lat="49.04988" lon="7.30538">
        <ele>343.4</ele>
        <time>2020-06-27T10:59:18Z</time>
      </trkpt>
      <trkpt lat="49.04989" lon="7.30546">
        <ele>343.6</ele>
        <time>2020-06-27T10:59:19Z</time>
      </trkpt>
      <trkpt lat="49.04991" lon="7.30553">
        <ele>343.7</ele>
        <time>2020-06-27T10:59:20Z</time>
      </trkpt>
      <trkpt lat="49.04992" lon="7.3056">
        <ele>343.9</ele>
        <time>2020-06-27T10:59:21Z</time>
      </trkpt>
      <trkpt lat="49.04993" lon="7.30568">
        <ele>344.1</ele>
        <time>2020-06-27T10:59:22Z</time>
      </trkpt>
      <trkpt lat="49.04995" lon="7.30576">
        <ele>344.2</ele>
        <time>2020-06-27T10:59:23Z</time>
      </trkpt>
      <trkpt lat="49.04995" lon="7.30584">
        <ele>344.4</ele>
        <time>2020-06-27T10:59:24Z</time>
      </trkpt>
      <trkpt lat="49.04997" lon="7.3059">
        <ele>344.6</ele>
        <time>2020-06-27T10:59:25Z</time>
      </trkpt>
      <trkpt lat="49.04998" lon="7.30598">
        <ele>344.8</ele>
        <time>2020-06-27T10:59:26Z</time>
      </trkpt>
      <trkpt lat="49.04999" lon="7.30605">
        <ele>345</ele>
        <time>2020-06-27T10:59:27Z</time>
      </trkpt>
      <trkpt lat="49.05" lon="7.30611">
        <ele>345.2</ele>
        <time>2020-06-27T10:59:28Z</time>
      </trkpt>
      <trkpt lat="49.05001" lon="7.30618">
        <ele>345.4</ele>
        <time>2020-06-27T10:59:29Z</time>
      </trkpt>
      <trkpt lat="49.05002" lon="7.30624">
        <ele>345.7</ele>
        <time>2020-06-27T10:59:30Z</time>
      </trkpt>
      <trkpt lat="49.05004" lon="7.30631">
        <ele>345.9</ele>
        <time>2020-06-27T10:59:31Z</time>
      </trkpt>
      <trkpt lat="49.05004" lon="7.3064">
        <ele>346.3</ele>
        <time>2020-06-27T10:59:32Z</time>
      </trkpt>
      <trkpt lat="49.05005" lon="7.30648">
        <ele>346.6</ele>
        <time>2020-06-27T10:59:33Z</time>
      </trkpt>
      <trkpt lat="49.05006" lon="7.30655">
        <ele>346.9</ele>
        <time>2020-06-27T10:59:34Z</time>
      </trkpt>
      <trkpt lat="49.05007" lon="7.30663">
        <ele>347.2</ele>
        <time>2020-06-27T10:59:35Z</time>
      </trkpt>
      <trkpt lat="49.05007" lon="7.30669">
        <ele>347.5</ele>
        <time>2020-06-27T10:59:36Z</time>
      </trkpt>
      <trkpt lat="49.05008" lon="7.30677">
        <ele>347.7</ele>
        <time>2020-06-27T10:59:37Z</time>
      </trkpt>
      <trkpt lat="49.05009" lon="7.30684">
        <ele>348</ele>
        <time>2020-06-27T10:59:38Z</time>
      </trkpt>
      <trkpt lat="49.05009" lon="7.3069">
        <ele>348.2</ele>
        <time>2020-06-27T10:59:39Z</time>
      </trkpt>
      <trkpt lat="49.05011" lon="7.30697">
        <ele>348.4</ele>
        <time>2020-06-27T10:59:40Z</time>
      </trkpt>
      <trkpt lat="49.05011" lon="7.30704">
        <ele>348.7</ele>
        <time>2020-06-27T10:59:41Z</time>
      </trkpt>
      <trkpt lat="49.05012" lon="7.30711">
        <ele>349</ele>
        <time>2020-06-27T10:59:42Z</time>
      </trkpt>
      <trkpt lat="49.05013" lon="7.30715">
        <ele>349.1</ele>
        <time>2020-06-27T10:59:43Z</time>
      </trkpt>
      <trkpt lat="49.05013" lon="7.30722">
        <ele>349.4</ele>
        <time>2020-06-27T10:59:44Z</time>
      </trkpt>
      <trkpt lat="49.05015" lon="7.3073">
        <ele>349.6</ele>
        <time>2020-06-27T10:59:45Z</time>
      </trkpt>
      <trkpt lat="49.05016" lon="7.30736">
        <ele>349.8</ele>
        <time>2020-06-27T10:59:46Z</time>
      </trkpt>
      <trkpt lat="49.05017" lon="7.30743">
        <ele>350</ele>
        <time>2020-06-27T10:59:47Z</time>
      </trkpt>
      <trkpt lat="49.05017" lon="7.30748">
        <ele>350.1</ele>
        <time>2020-06-27T10:59:48Z</time>
      </trkpt>
      <trkpt lat="49.05018" lon="7.30753">
        <ele>350.3</ele>
        <time>2020-06-27T10:59:49Z</time>
      </trkpt>
      <trkpt lat="49.05018" lon="7.30759">
        <ele>350.5</ele>
        <time>2020-06-27T10:59:50Z</time>
      </trkpt>
      <trkpt lat="49.05019" lon="7.30765">
        <ele>350.7</ele>
        <time>2020-06-27T10:59:51Z</time>
      </trkpt>
      <trkpt lat="49.05019" lon="7.30768">
        <ele>350.8</ele>
        <time>2020-06-27T10:59:52Z</time>
      </trkpt>
      <trkpt lat="49.05019" lon="7.30773">
        <ele>351</ele>
        <time>2020-06-27T10:59:53Z</time>
      </trkpt>
      <trkpt lat="49.05019" lon="7.3078">
        <ele>351.1</ele>
        <time>2020-06-27T10:59:54Z</time>
      </trkpt>
      <trkpt lat="49.05019" lon="7.30783">
        <ele>351.2</ele>
        <time>2020-06-27T10:59:55Z</time>
      </trkpt>
      <trkpt lat="49.05019" lon="7.3079">
        <ele>351.5</ele>
        <time>2020-06-27T10:59:56Z</time>
      </trkpt>
      <trkpt lat="49.05021" lon="7.30795">
        <ele>351.6</ele>
        <time>2020-06-27T10:59:57Z</time>
      </trkpt>
      <trkpt lat="49.05021" lon="7.30801">
        <ele>351.8</ele>
        <time>2020-06-27T10:59:58Z</time>
      </trkpt>
      <trkpt lat="49.05022" lon="7.30807">
        <ele>352</ele>
        <time>2020-06-27T10:59:59Z</time>
      </trkpt>
      <trkpt lat="49.05023" lon="7.30813">
        <ele>352.1</ele>
        <time>2020-06-27T11:00:00Z</time>
      </trkpt>
      <trkpt lat="49.05023" lon="7.30819">
        <ele>352.3</ele>
        <time>2020-06-27T11:00:01Z</time>
      </trkpt>
      <trkpt lat="49.05024" lon="7.30826">
        <ele>352.4</ele>
        <time>2020-06-27T11:00:02Z</time>
      </trkpt>
      <trkpt lat="49.05026" lon="7.30832">
        <ele>352.6</ele>
        <time>2020-06-27T11:00:03Z</time>
      </trkpt>
      <trkpt lat="49.05027" lon="7.30839">
        <ele>352.9</ele>
        <time>2020-06-27T11:00:04Z</time>
      </trkpt>
      <trkpt lat="49.05028" lon="7.30844">
        <ele>353.1</ele>
        <time>2020-06-27T11:00:05Z</time>
      </trkpt>
      <trkpt lat="49.0503" lon="7.3085">
        <ele>353.3</ele>
        <time>2020-06-27T11:00:06Z</time>
      </trkpt>
      <trkpt lat="49.0503" lon="7.30856">
        <ele>353.5</ele>
        <time>2020-06-27T11:00:07Z</time>
      </trkpt>
      <trkpt lat="49.05032" lon="7.30861">
        <ele>353.7</ele>
        <time>2020-06-27T11:00:08Z</time>
      </trkpt>
      <trkpt lat="49.05033" lon="7.30868">
        <ele>353.9</ele>
        <time>2020-06-27T11:00:09Z</time>
      </trkpt>
      <trkpt lat="49.05033" lon="7.30873">
        <ele>354</ele>
        <time>2020-06-27T11:00:10Z</time>
      </trkpt>
      <trkpt lat="49.05032" lon="7.30881">
        <ele>354.2</ele>
        <time>2020-06-27T11:00:11Z</time>
      </trkpt>
      <trkpt lat="49.05033" lon="7.30889">
        <ele>354.4</ele>
        <time>2020-06-27T11:00:12Z</time>
      </trkpt>
      <trkpt lat="49.05034" lon="7.30896">
        <ele>354.7</ele>
        <time>2020-06-27T11:00:13Z</time>
      </trkpt>
      <trkpt lat="49.05034" lon="7.30903">
        <ele>354.8</ele>
        <time>2020-06-27T11:00:14Z</time>
      </trkpt>
      <trkpt lat="49.05035" lon="7.3091">
        <ele>355</ele>
        <time>2020-06-27T11:00:15Z</time>
      </trkpt>
      <trkpt lat="49.05036" lon="7.30918">
        <ele>355.2</ele>
        <time>2020-06-27T11:00:16Z</time>
      </trkpt>
      <trkpt lat="49.05037" lon="7.30924">
        <ele>355.4</ele>
        <time>2020-06-27T11:00:17Z</time>
      </trkpt>
      <trkpt lat="49.05038" lon="7.30928">
        <ele>355.5</ele>
        <time>2020-06-27T11:00:18Z</time>
      </trkpt>
      <trkpt lat="49.05039" lon="7.30933">
        <ele>355.6</ele>
        <time>2020-06-27T11:00:19Z</time>
      </trkpt>
      <trkpt lat="49.0504" lon="7.30937">
        <ele>355.6</ele>
        <time>2020-06-27T11:00:20Z</time>
      </trkpt>
      <trkpt lat="49.0504" lon="7.30939">
        <ele>355.7</ele>
        <time>2020-06-27T11:00:21Z</time>
      </trkpt>
      <trkpt lat="49.0504" lon="7.30941">
        <ele>355.7</ele>
        <time>2020-06-27T11:00:22Z</time>
      </trkpt>
      <trkpt lat="49.0504" lon="7.30944">
        <ele>355.8</ele>
        <time>2020-06-27T11:00:23Z</time>
      </trkpt>
      <trkpt lat="49.0504" lon="7.30945">
        <ele>355.8</ele>
        <time>2020-06-27T11:00:24Z</time>
      </trkpt>
      <trkpt lat="49.0504" lon="7.30946">
        <ele>355.8</ele>
        <time>2020-06-27T11:00:25Z</time>
      </trkpt>
      <trkpt lat="49.0504" lon="7.30947">
        <ele>355.8</ele>
        <time>2020-06-27T11:00:26Z</time>
      </trkpt>
      <trkpt lat="49.0504" lon="7.30948">
        <ele>355.8</ele>
        <time>2020-06-27T11:00:27Z</time>
      </trkpt>
      <trkpt lat="49.0504" lon="7.30948">
        <ele>355.8</ele>
        <time>2020-06-27T11:00:28Z</time>
      </trkpt>
      <trkpt lat="49.0504" lon="7.30949">
        <ele>355.8</ele>
        <time>2020-06-27T11:00:29Z</time>
      </trkpt>
      <trkpt lat="49.0504" lon="7.3095">
        <ele>355.8</ele>
        <time>2020-06-27T11:00:30Z</time>
      </trkpt>
      <trkpt lat="49.0504" lon="7.30951">
        <ele>355.9</ele>
        <time>2020-06-27T11:00:31Z</time>
      </trkpt>
      <trkpt lat="49.0504" lon="7.30951">
        <ele>355.9</ele>
        <time>2020-06-27T11:00:32Z</time>
      </trkpt>
      <trkpt lat="49.0504" lon="7.30952">
        <ele>355.9</ele>
        <time>2020-06-27T11:00:33Z</time>
      </trkpt>
      <trkpt lat="49.05041" lon="7.30953">
        <ele>355.9</ele>
        <time>2020-06-27T11:03:29Z</time>
      </trkpt>
      <trkpt lat="49.05041" lon="7.30954">
        <ele>355.9</ele>
        <time>2020-06-27T11:03:30Z</time>
      </trkpt>
      <trkpt lat="49.0504" lon="7.3096">
        <ele>356</ele>
        <time>2020-06-27T11:03:31Z</time>
      </trkpt>
      <trkpt lat="49.05041" lon="7.30966">
        <ele>356.1</ele>
        <time>2020-06-27T11:03:32Z</time>
      </trkpt>
      <trkpt lat="49.05042" lon="7.3097">
        <ele>356.1</ele>
        <time>2020-06-27T11:03:33Z</time>
      </trkpt>
      <trkpt lat="49.05043" lon="7.30975">
        <ele>356.1</ele>
        <time>2020-06-27T11:03:34Z</time>
      </trkpt>
      <trkpt lat="49.05043" lon="7.30979">
        <ele>356.2</ele>
        <time>2020-06-27T11:03:35Z</time>
      </trkpt>
      <trkpt lat="49.05045" lon="7.30984">
        <ele>356.2</ele>
        <time>2020-06-27T11:03:36Z</time>
      </trkpt>
      <trkpt lat="49.05045" lon="7.30988">
        <ele>356.2</ele>
        <time>2020-06-27T11:03:37Z</time>
      </trkpt>
      <trkpt lat="49.05046" lon="7.30993">
        <ele>356.3</ele>
        <time>2020-06-27T11:03:38Z</time>
      </trkpt>
      <trkpt lat="49.05045" lon="7.30995">
        <ele>356.3</ele>
        <time>2020-06-27T11:03:39Z</time>
      </trkpt>
      <trkpt lat="49.05046" lon="7.31">
        <ele>356.3</ele>
        <time>2020-06-27T11:03:40Z</time>
      </trkpt>
      <trkpt lat="49.05046" lon="7.31002">
        <ele>356.3</ele>
        <time>2020-06-27T11:03:41Z</time>
      </trkpt>
      <trkpt lat="49.05046" lon="7.31008">
        <ele>356.4</ele>
        <time>2020-06-27T11:03:42Z</time>
      </trkpt>
      <trkpt lat="49.05047" lon="7.3101">
        <ele>356.4</ele>
        <time>2020-06-27T11:03:43Z</time>
      </trkpt>
      <trkpt lat="49.05047" lon="7.31015">
        <ele>356.4</ele>
        <time>2020-06-27T11:03:44Z</time>
      </trkpt>
      <trkpt lat="49.05048" lon="7.3102">
        <ele>356.5</ele>
        <time>2020-06-27T11:03:45Z</time>
      </trkpt>
      <trkpt lat="49.05048" lon="7.31025">
        <ele>356.5</ele>
        <time>2020-06-27T11:03:46Z</time>
      </trkpt>
      <trkpt lat="49.05049" lon="7.31034">
        <ele>356.6</ele>
        <time>2020-06-27T11:03:47Z</time>
      </trkpt>
      <trkpt lat="49.05049" lon="7.3104">
        <ele>356.6</ele>
        <time>2020-06-27T11:03:48Z</time>
      </trkpt>
      <trkpt lat="49.0505" lon="7.31046">
        <ele>356.7</ele>
        <time>2020-06-27T11:03:49Z</time>
      </trkpt>
      <trkpt lat="49.0505" lon="7.31052">
        <ele>356.7</ele>
        <time>2020-06-27T11:03:50Z</time>
      </trkpt>
      <trkpt lat="49.05051" lon="7.31057">
        <ele>356.8</ele>
        <time>2020-06-27T11:03:51Z</time>
      </trkpt>
      <trkpt lat="49.05053" lon="7.31063">
        <ele>356.8</ele>
        <time>2020-06-27T11:03:52Z</time>
      </trkpt>
      <trkpt lat="49.05054" lon="7.31068">
        <ele>356.8</ele>
        <time>2020-06-27T11:03:53Z</time>
      </trkpt>
      <trkpt lat="49.05055" lon="7.31073">
        <ele>356.9</ele>
        <time>2020-06-27T11:03:54Z</time>
      </trkpt>
      <trkpt lat="49.05056" lon="7.31079">
        <ele>356.9</ele>
        <time>2020-06-27T11:03:55Z</time>
      </trkpt>
      <trkpt lat="49.05056" lon="7.31086">
        <ele>357</ele>
        <time>2020-06-27T11:03:56Z</time>
      </trkpt>
      <trkpt lat="49.05057" lon="7.31091">
        <ele>357</ele>
        <time>2020-06-27T11:03:57Z</time>
      </trkpt>
      <trkpt lat="49.05059" lon="7.31099">
        <ele>357</ele>
        <time>2020-06-27T11:03:58Z</time>
      </trkpt>
      <trkpt lat="49.0506" lon="7.31105">
        <ele>357.1</ele>
        <time>2020-06-27T11:03:59Z</time>
      </trkpt>
      <trkpt lat="49.0506" lon="7.31112">
        <ele>357.1</ele>
        <time>2020-06-27T11:04:00Z</time>
      </trkpt>
      <trkpt lat="49.05061" lon="7.31119">
        <ele>357.1</ele>
        <time>2020-06-27T11:04:01Z</time>
      </trkpt>
      <trkpt lat="49.05062" lon="7.31125">
        <ele>357.1</ele>
        <time>2020-06-27T11:04:02Z</time>
      </trkpt>
      <trkpt lat="49.05063" lon="7.31131">
        <ele>357.1</ele>
        <time>2020-06-27T11:04:03Z</time>
      </trkpt>
      <trkpt lat="49.05064" lon="7.31136">
        <ele>357</ele>
        <time>2020-06-27T11:04:04Z</time>
      </trkpt>
      <trkpt lat="49.05065" lon="7.31141">
        <ele>357</ele>
        <time>2020-06-27T11:04:05Z</time>
      </trkpt>
      <trkpt lat="49.05066" lon="7.31146">
        <ele>357</ele>
        <time>2020-06-27T11:04:06Z</time>
      </trkpt>
      <trkpt lat="49.05067" lon="7.31151">
        <ele>357</ele>
        <time>2020-06-27T11:04:07Z</time>
      </trkpt>
      <trkpt lat="49.05068" lon="7.31156">
        <ele>357</ele>
        <time>2020-06-27T11:04:08Z</time>
      </trkpt>
      <trkpt lat="49.05068" lon="7.31161">
        <ele>357</ele>
        <time>2020-06-27T11:04:09Z</time>
      </trkpt>
      <trkpt lat="49.05068" lon="7.31166">
        <ele>357</ele>
        <time>2020-06-27T11:04:10Z</time>
      </trkpt>
      <trkpt lat="49.05068" lon="7.31172">
        <ele>357</ele>
        <time>2020-06-27T11:04:11Z</time>
      </trkpt>
      <trkpt lat="49.05068" lon="7.31177">
        <ele>357</ele>
        <time>2020-06-27T11:04:12Z</time>
      </trkpt>
      <trkpt lat="49.05069" lon="7.31182">
        <ele>357</ele>
        <time>2020-06-27T11:04:13Z</time>
      </trkpt>
      <trkpt lat="49.05069" lon="7.31186">
        <ele>357</ele>
        <time>2020-06-27T11:04:14Z</time>
      </trkpt>
      <trkpt lat="49.0507" lon="7.31191">
        <ele>356.9</ele>
        <time>2020-06-27T11:04:15Z</time>
      </trkpt>
      <trkpt lat="49.0507" lon="7.31199">
        <ele>356.9</ele>
        <time>2020-06-27T11:04:16Z</time>
      </trkpt>
      <trkpt lat="49.05072" lon="7.31206">
        <ele>356.9</ele>
        <time>2020-06-27T11:04:17Z</time>
      </trkpt>
      <trkpt lat="49.05073" lon="7.31213">
        <ele>356.9</ele>
        <time>2020-06-27T11:04:18Z</time>
      </trkpt>
      <trkpt lat="49.05074" lon="7.31221">
        <ele>356.9</ele>
        <time>2020-06-27T11:04:19Z</time>
      </trkpt>
      <trkpt lat="49.05075" lon="7.31227">
        <ele>356.8</ele>
        <time>2020-06-27T11:04:20Z</time>
      </trkpt>
      <trkpt lat="49.05076" lon="7.31234">
        <ele>356.8</ele>
        <time>2020-06-27T11:04:21Z</time>
      </trkpt>
      <trkpt lat="49.05077" lon="7.3124">
        <ele>356.8</ele>
        <time>2020-06-27T11:04:22Z</time>
      </trkpt>
      <trkpt lat="49.05078" lon="7.31247">
        <ele>356.7</ele>
        <time>2020-06-27T11:04:23Z</time>
      </trkpt>
      <trkpt lat="49.05079" lon="7.31253">
        <ele>356.7</ele>
        <time>2020-06-27T11:04:24Z</time>
      </trkpt>
      <trkpt lat="49.05081" lon="7.31259">
        <ele>356.6</ele>
        <time>2020-06-27T11:04:25Z</time>
      </trkpt>
      <trkpt lat="49.05081" lon="7.31267">
        <ele>356.6</ele>
        <time>2020-06-27T11:04:26Z</time>
      </trkpt>
      <trkpt lat="49.05082" lon="7.31274">
        <ele>356.6</ele>
        <time>2020-06-27T11:04:27Z</time>
      </trkpt>
      <trkpt lat="49.05083" lon="7.31281">
        <ele>356.7</ele>
        <time>2020-06-27T11:04:28Z</time>
      </trkpt>
      <trkpt lat="49.05085" lon="7.31288">
        <ele>356.7</ele>
        <time>2020-06-27T11:04:29Z</time>
      </trkpt>
      <trkpt lat="49.05086" lon="7.31295">
        <ele>356.7</ele>
        <time>2020-06-27T11:04:30Z</time>
      </trkpt>
      <trkpt lat="49.05089" lon="7.31301">
        <ele>356.7</ele>
        <time>2020-06-27T11:04:31Z</time>
      </trkpt>
      <trkpt lat="49.0509" lon="7.31308">
        <ele>356.6</ele>
        <time>2020-06-27T11:04:32Z</time>
      </trkpt>
      <trkpt lat="49.05092" lon="7.31315">
        <ele>356.6</ele>
        <time>2020-06-27T11:04:33Z</time>
      </trkpt>
      <trkpt lat="49.05093" lon="7.31321">
        <ele>356.5</ele>
        <time>2020-06-27T11:04:34Z</time>
      </trkpt>
      <trkpt lat="49.05095" lon="7.31328">
        <ele>356.4</ele>
        <time>2020-06-27T11:04:35Z</time>
      </trkpt>
      <trkpt lat="49.05097" lon="7.31333">
        <ele>356.3</ele>
        <time>2020-06-27T11:04:36Z</time>
      </trkpt>
      <trkpt lat="49.05099" lon="7.31339">
        <ele>356.2</ele>
        <time>2020-06-27T11:04:37Z</time>
      </trkpt>
      <trkpt lat="49.05101" lon="7.31345">
        <ele>356.1</ele>
        <time>2020-06-27T11:04:38Z</time>
      </trkpt>
      <trkpt lat="49.05103" lon="7.31352">
        <ele>356</ele>
        <time>2020-06-27T11:04:39Z</time>
      </trkpt>
      <trkpt lat="49.05105" lon="7.3136">
        <ele>355.7</ele>
        <time>2020-06-27T11:04:40Z</time>
      </trkpt>
      <trkpt lat="49.05109" lon="7.31367">
        <ele>355.5</ele>
        <time>2020-06-27T11:04:41Z</time>
      </trkpt>
      <trkpt lat="49.05111" lon="7.31376">
        <ele>355.3</ele>
        <time>2020-06-27T11:04:42Z</time>
      </trkpt>
      <trkpt lat="49.05114" lon="7.31385">
        <ele>355</ele>
        <time>2020-06-27T11:04:43Z</time>
      </trkpt>
      <trkpt lat="49.05118" lon="7.31393">
        <ele>354.7</ele>
        <time>2020-06-27T11:04:44Z</time>
      </trkpt>
      <trkpt lat="49.05121" lon="7.31402">
        <ele>354.4</ele>
        <time>2020-06-27T11:04:45Z</time>
      </trkpt>
      <trkpt lat="49.05125" lon="7.31412">
        <ele>354</ele>
        <time>2020-06-27T11:04:46Z</time>
      </trkpt>
      <trkpt lat="49.05129" lon="7.31422">
        <ele>353.6</ele>
        <time>2020-06-27T11:04:47Z</time>
      </trkpt>
      <trkpt lat="49.05131" lon="7.31433">
        <ele>353.2</ele>
        <time>2020-06-27T11:04:48Z</time>
      </trkpt>
      <trkpt lat="49.05134" lon="7.31445">
        <ele>352.7</ele>
        <time>2020-06-27T11:04:49Z</time>
      </trkpt>
      <trkpt lat="49.05137" lon="7.31457">
        <ele>352.2</ele>
        <time>2020-06-27T11:04:50Z</time>
      </trkpt>
      <trkpt lat="49.05139" lon="7.31471">
        <ele>351.7</ele>
        <time>2020-06-27T11:04:51Z</time>
      </trkpt>
      <trkpt lat="49.05142" lon="7.31486">
        <ele>351.2</ele>
        <time>2020-06-27T11:04:52Z</time>
      </trkpt>
      <trkpt lat="49.05144" lon="7.315">
        <ele>350.7</ele>
        <time>2020-06-27T11:04:53Z</time>
      </trkpt>
      <trkpt lat="49.05146" lon="7.31515">
        <ele>350.2</ele>
        <time>2020-06-27T11:04:54Z</time>
      </trkpt>
      <trkpt lat="49.05147" lon="7.3153">
        <ele>349.6</ele>
        <time>2020-06-27T11:04:55Z</time>
      </trkpt>
      <trkpt lat="49.05149" lon="7.31545">
        <ele>349.2</ele>
        <time>2020-06-27T11:04:56Z</time>
      </trkpt>
      <trkpt lat="49.05151" lon="7.3156">
        <ele>348.6</ele>
        <time>2020-06-27T11:04:57Z</time>
      </trkpt>
      <trkpt lat="49.05153" lon="7.31575">
        <ele>348.1</ele>
        <time>2020-06-27T11:04:58Z</time>
      </trkpt>
      <trkpt lat="49.05155" lon="7.31591">
        <ele>347.5</ele>
        <time>2020-06-27T11:04:59Z</time>
      </trkpt>
      <trkpt lat="49.05157" lon="7.31606">
        <ele>346.8</ele>
        <time>2020-06-27T11:05:00Z</time>
      </trkpt>
      <trkpt lat="49.0516" lon="7.31622">
        <ele>346.2</ele>
        <time>2020-06-27T11:05:01Z</time>
      </trkpt>
      <trkpt lat="49.05163" lon="7.31638">
        <ele>345.6</ele>
        <time>2020-06-27T11:05:02Z</time>
      </trkpt>
      <trkpt lat="49.05167" lon="7.31654">
        <ele>345.1</ele>
        <time>2020-06-27T11:05:03Z</time>
      </trkpt>
      <trkpt lat="49.0517" lon="7.3167">
        <ele>344.5</ele>
        <time>2020-06-27T11:05:04Z</time>
      </trkpt>
      <trkpt lat="49.05173" lon="7.31686">
        <ele>343.9</ele>
        <time>2020-06-27T11:05:05Z</time>
      </trkpt>
      <trkpt lat="49.05177" lon="7.31701">
        <ele>343.3</ele>
        <time>2020-06-27T11:05:06Z</time>
      </trkpt>
      <trkpt lat="49.05181" lon="7.31716">
        <ele>342.7</ele>
        <time>2020-06-27T11:05:07Z</time>
      </trkpt>
      <trkpt lat="49.05185" lon="7.31732">
        <ele>342.2</ele>
        <time>2020-06-27T11:05:08Z</time>
      </trkpt>
      <trkpt lat="49.0519" lon="7.31747">
        <ele>341.6</ele>
        <time>2020-06-27T11:05:09Z</time>
      </trkpt>
      <trkpt lat="49.05195" lon="7.31762">
        <ele>341</ele>
        <time>2020-06-27T11:05:10Z</time>
      </trkpt>
      <trkpt lat="49.05201" lon="7.31776">
        <ele>340.3</ele>
        <time>2020-06-27T11:05:11Z</time>
      </trkpt>
      <trkpt lat="49.05207" lon="7.3179">
        <ele>339.7</ele>
        <time>2020-06-27T11:05:12Z</time>
      </trkpt>
      <trkpt lat="49.05214" lon="7.31804">
        <ele>339</ele>
        <time>2020-06-27T11:05:13Z</time>
      </trkpt>
      <trkpt lat="49.05222" lon="7.31817">
        <ele>338.4</ele>
        <time>2020-06-27T11:05:14Z</time>
      </trkpt>
      <trkpt lat="49.0523" lon="7.3183">
        <ele>337.8</ele>
        <time>2020-06-27T11:05:15Z</time>
      </trkpt>
      <trkpt lat="49.05239" lon="7.31841">
        <ele>337.3</ele>
        <time>2020-06-27T11:05:16Z</time>
      </trkpt>
      <trkpt lat="49.05248" lon="7.31852">
        <ele>336.7</ele>
        <time>2020-06-27T11:05:17Z</time>
      </trkpt>
      <trkpt lat="49.05258" lon="7.31863">
        <ele>336.1</ele>
        <time>2020-06-27T11:05:18Z</time>
      </trkpt>
      <trkpt lat="49.05268" lon="7.31872">
        <ele>335.5</ele>
        <time>2020-06-27T11:05:19Z</time>
      </trkpt>
      <trkpt lat="49.05279" lon="7.31882">
        <ele>334.9</ele>
        <time>2020-06-27T11:05:20Z</time>
      </trkpt>
      <trkpt lat="49.05289" lon="7.3189">
        <ele>334.2</ele>
        <time>2020-06-27T11:05:21Z</time>
      </trkpt>
      <trkpt lat="49.053" lon="7.31899">
        <ele>333.5</ele>
        <time>2020-06-27T11:05:22Z</time>
      </trkpt>
      <trkpt lat="49.05311" lon="7.31908">
        <ele>332.9</ele>
        <time>2020-06-27T11:05:23Z</time>
      </trkpt>
      <trkpt lat="49.05321" lon="7.31917">
        <ele>332.2</ele>
        <time>2020-06-27T11:05:24Z</time>
      </trkpt>
      <trkpt lat="49.05332" lon="7.31926">
        <ele>331.6</ele>
        <time>2020-06-27T11:05:25Z</time>
      </trkpt>
      <trkpt lat="49.05343" lon="7.31935">
        <ele>330.9</ele>
        <time>2020-06-27T11:05:26Z</time>
      </trkpt>
      <trkpt lat="49.05353" lon="7.31944">
        <ele>330.3</ele>
        <time>2020-06-27T11:05:27Z</time>
      </trkpt>
      <trkpt lat="49.05364" lon="7.31953">
        <ele>329.7</ele>
        <time>2020-06-27T11:05:28Z</time>
      </trkpt>
      <trkpt lat="49.05374" lon="7.31962">
        <ele>329.2</ele>
        <time>2020-06-27T11:05:29Z</time>
      </trkpt>
      <trkpt lat="49.05385" lon="7.31971">
        <ele>328.6</ele>
        <time>2020-06-27T11:05:30Z</time>
      </trkpt>
      <trkpt lat="49.05395" lon="7.3198">
        <ele>328.1</ele>
        <time>2020-06-27T11:05:31Z</time>
      </trkpt>
      <trkpt lat="49.05405" lon="7.31988">
        <ele>327.5</ele>
        <time>2020-06-27T11:05:32Z</time>
      </trkpt>
      <trkpt lat="49.05414" lon="7.31997">
        <ele>327</ele>
        <time>2020-06-27T11:05:33Z</time>
      </trkpt>
      <trkpt lat="49.05422" lon="7.32007">
        <ele>326.5</ele>
        <time>2020-06-27T11:05:34Z</time>
      </trkpt>
      <trkpt lat="49.05428" lon="7.32018">
        <ele>326</ele>
        <time>2020-06-27T11:05:35Z</time>
      </trkpt>
      <trkpt lat="49.05434" lon="7.32029">
        <ele>325.6</ele>
        <time>2020-06-27T11:05:36Z</time>
      </trkpt>
      <trkpt lat="49.05439" lon="7.32041">
        <ele>325.1</ele>
        <time>2020-06-27T11:05:37Z</time>
      </trkpt>
      <trkpt lat="49.05443" lon="7.32055">
        <ele>324.6</ele>
        <time>2020-06-27T11:05:38Z</time>
      </trkpt>
      <trkpt lat="49.05445" lon="7.3207">
        <ele>324.2</ele>
        <time>2020-06-27T11:05:39Z</time>
      </trkpt>
      <trkpt lat="49.05445" lon="7.32085">
        <ele>323.7</ele>
        <time>2020-06-27T11:05:40Z</time>
      </trkpt>
      <trkpt lat="49.05444" lon="7.32101">
        <ele>323.1</ele>
        <time>2020-06-27T11:05:41Z</time>
      </trkpt>
      <trkpt lat="49.05441" lon="7.32116">
        <ele>322.6</ele>
        <time>2020-06-27T11:05:42Z</time>
      </trkpt>
      <trkpt lat="49.05437" lon="7.32131">
        <ele>322</ele>
        <time>2020-06-27T11:05:43Z</time>
      </trkpt>
      <trkpt lat="49.05431" lon="7.32145">
        <ele>321.4</ele>
        <time>2020-06-27T11:05:44Z</time>
      </trkpt>
      <trkpt lat="49.05423" lon="7.32157">
        <ele>320.7</ele>
        <time>2020-06-27T11:05:45Z</time>
      </trkpt>
      <trkpt lat="49.05414" lon="7.32167">
        <ele>320</ele>
        <time>2020-06-27T11:05:46Z</time>
      </trkpt>
      <trkpt lat="49.05405" lon="7.32177">
        <ele>319.3</ele>
        <time>2020-06-27T11:05:47Z</time>
      </trkpt>
      <trkpt lat="49.05396" lon="7.32187">
        <ele>318.7</ele>
        <time>2020-06-27T11:05:48Z</time>
      </trkpt>
      <trkpt lat="49.05387" lon="7.32198">
        <ele>318.1</ele>
        <time>2020-06-27T11:05:49Z</time>
      </trkpt>
      <trkpt lat="49.05379" lon="7.32209">
        <ele>317.5</ele>
        <time>2020-06-27T11:05:50Z</time>
      </trkpt>
      <trkpt lat="49.05371" lon="7.3222">
        <ele>316.9</ele>
        <time>2020-06-27T11:05:51Z</time>
      </trkpt>
      <trkpt lat="49.05365" lon="7.32233">
        <ele>316.3</ele>
        <time>2020-06-27T11:05:52Z</time>
      </trkpt>
      <trkpt lat="49.0536" lon="7.32248">
        <ele>315.8</ele>
        <time>2020-06-27T11:05:53Z</time>
      </trkpt>
      <trkpt lat="49.05355" lon="7.32263">
        <ele>315.3</ele>
        <time>2020-06-27T11:05:54Z</time>
      </trkpt>
      <trkpt lat="49.05352" lon="7.32278">
        <ele>314.7</ele>
        <time>2020-06-27T11:05:55Z</time>
      </trkpt>
      <trkpt lat="49.05349" lon="7.32294">
        <ele>314.2</ele>
        <time>2020-06-27T11:05:56Z</time>
      </trkpt>
      <trkpt lat="49.05348" lon="7.3231">
        <ele>313.6</ele>
        <time>2020-06-27T11:05:57Z</time>
      </trkpt>
      <trkpt lat="49.05348" lon="7.32326">
        <ele>313.1</ele>
        <time>2020-06-27T11:05:58Z</time>
      </trkpt>
      <trkpt lat="49.05348" lon="7.32341">
        <ele>312.6</ele>
        <time>2020-06-27T11:05:59Z</time>
      </trkpt>
      <trkpt lat="49.05349" lon="7.32358">
        <ele>312</ele>
        <time>2020-06-27T11:06:00Z</time>
      </trkpt>
      <trkpt lat="49.05351" lon="7.32374">
        <ele>311.5</ele>
        <time>2020-06-27T11:06:01Z</time>
      </trkpt>
      <trkpt lat="49.05354" lon="7.3239">
        <ele>311</ele>
        <time>2020-06-27T11:06:02Z</time>
      </trkpt>
      <trkpt lat="49.05356" lon="7.32407">
        <ele>310.5</ele>
        <time>2020-06-27T11:06:03Z</time>
      </trkpt>
      <trkpt lat="49.05354" lon="7.32423">
        <ele>310.1</ele>
        <time>2020-06-27T11:06:04Z</time>
      </trkpt>
      <trkpt lat="49.05351" lon="7.32438">
        <ele>309.6</ele>
        <time>2020-06-27T11:06:05Z</time>
      </trkpt>
      <trkpt lat="49.05345" lon="7.3245">
        <ele>309.2</ele>
        <time>2020-06-27T11:06:06Z</time>
      </trkpt>
      <trkpt lat="49.05338" lon="7.32461">
        <ele>308.6</ele>
        <time>2020-06-27T11:06:07Z</time>
      </trkpt>
      <trkpt lat="49.05329" lon="7.32468">
        <ele>308.1</ele>
        <time>2020-06-27T11:06:08Z</time>
      </trkpt>
      <trkpt lat="49.0532" lon="7.32471">
        <ele>307.5</ele>
        <time>2020-06-27T11:06:09Z</time>
      </trkpt>
      <trkpt lat="49.0531" lon="7.32473">
        <ele>307</ele>
        <time>2020-06-27T11:06:10Z</time>
      </trkpt>
      <trkpt lat="49.053" lon="7.32473">
        <ele>306.5</ele>
        <time>2020-06-27T11:06:11Z</time>
      </trkpt>
      <trkpt lat="49.0529" lon="7.32471">
        <ele>306</ele>
        <time>2020-06-27T11:06:12Z</time>
      </trkpt>
      <trkpt lat="49.05281" lon="7.32474">
        <ele>305.7</ele>
        <time>2020-06-27T11:06:13Z</time>
      </trkpt>
      <trkpt lat="49.05272" lon="7.3248">
        <ele>305.3</ele>
        <time>2020-06-27T11:06:14Z</time>
      </trkpt>
      <trkpt lat="49.05265" lon="7.32487">
        <ele>305</ele>
        <time>2020-06-27T11:06:15Z</time>
      </trkpt>
      <trkpt lat="49.05259" lon="7.32497">
        <ele>304.7</ele>
        <time>2020-06-27T11:06:16Z</time>
      </trkpt>
      <trkpt lat="49.05255" lon="7.32509">
        <ele>304.2</ele>
        <time>2020-06-27T11:06:17Z</time>
      </trkpt>
      <trkpt lat="49.05252" lon="7.32522">
        <ele>303.9</ele>
        <time>2020-06-27T11:06:18Z</time>
      </trkpt>
      <trkpt lat="49.05251" lon="7.32536">
        <ele>303.5</ele>
        <time>2020-06-27T11:06:19Z</time>
      </trkpt>
      <trkpt lat="49.05252" lon="7.32549">
        <ele>303.2</ele>
        <time>2020-06-27T11:06:20Z</time>
      </trkpt>
      <trkpt lat="49.05255" lon="7.32561">
        <ele>302.9</ele>
        <time>2020-06-27T11:06:21Z</time>
      </trkpt>
      <trkpt lat="49.05259" lon="7.32571">
        <ele>302.6</ele>
        <time>2020-06-27T11:06:22Z</time>
      </trkpt>
      <trkpt lat="49.05264" lon="7.32582">
        <ele>302.3</ele>
        <time>2020-06-27T11:06:23Z</time>
      </trkpt>
      <trkpt lat="49.05269" lon="7.32593">
        <ele>301.9</ele>
        <time>2020-06-27T11:06:24Z</time>
      </trkpt>
      <trkpt lat="49.05275" lon="7.32604">
        <ele>301.6</ele>
        <time>2020-06-27T11:06:25Z</time>
      </trkpt>
      <trkpt lat="49.05281" lon="7.32614">
        <ele>301.2</ele>
        <time>2020-06-27T11:06:26Z</time>
      </trkpt>
      <trkpt lat="49.05287" lon="7.32624">
        <ele>300.8</ele>
        <time>2020-06-27T11:06:27Z</time>
      </trkpt>
      <trkpt lat="49.05294" lon="7.32634">
        <ele>300.5</ele>
        <time>2020-06-27T11:06:28Z</time>
      </trkpt>
      <trkpt lat="49.053" lon="7.32643">
        <ele>300.2</ele>
        <time>2020-06-27T11:06:29Z</time>
      </trkpt>
      <trkpt lat="49.05307" lon="7.32653">
        <ele>299.8</ele>
        <time>2020-06-27T11:06:30Z</time>
      </trkpt>
      <trkpt lat="49.05314" lon="7.32663">
        <ele>299.4</ele>
        <time>2020-06-27T11:06:31Z</time>
      </trkpt>
      <trkpt lat="49.05321" lon="7.32673">
        <ele>299</ele>
        <time>2020-06-27T11:06:32Z</time>
      </trkpt>
      <trkpt lat="49.05327" lon="7.32684">
        <ele>298.6</ele>
        <time>2020-06-27T11:06:33Z</time>
      </trkpt>
      <trkpt lat="49.05332" lon="7.32696">
        <ele>298.2</ele>
        <time>2020-06-27T11:06:34Z</time>
      </trkpt>
      <trkpt lat="49.05337" lon="7.32709">
        <ele>297.8</ele>
        <time>2020-06-27T11:06:35Z</time>
      </trkpt>
      <trkpt lat="49.05341" lon="7.32722">
        <ele>297.4</ele>
        <time>2020-06-27T11:06:36Z</time>
      </trkpt>
      <trkpt lat="49.05345" lon="7.32736">
        <ele>297</ele>
        <time>2020-06-27T11:06:37Z</time>
      </trkpt>
      <trkpt lat="49.05348" lon="7.32751">
        <ele>296.6</ele>
        <time>2020-06-27T11:06:38Z</time>
      </trkpt>
      <trkpt lat="49.0535" lon="7.32765">
        <ele>296.1</ele>
        <time>2020-06-27T11:06:39Z</time>
      </trkpt>
      <trkpt lat="49.05352" lon="7.3278">
        <ele>295.6</ele>
        <time>2020-06-27T11:06:40Z</time>
      </trkpt>
      <trkpt lat="49.05353" lon="7.32795">
        <ele>295.1</ele>
        <time>2020-06-27T11:06:41Z</time>
      </trkpt>
      <trkpt lat="49.05354" lon="7.3281">
        <ele>294.6</ele>
        <time>2020-06-27T11:06:42Z</time>
      </trkpt>
      <trkpt lat="49.05356" lon="7.32824">
        <ele>294.1</ele>
        <time>2020-06-27T11:06:43Z</time>
      </trkpt>
      <trkpt lat="49.05357" lon="7.32839">
        <ele>293.6</ele>
        <time>2020-06-27T11:06:44Z</time>
      </trkpt>
      <trkpt lat="49.05359" lon="7.32853">
        <ele>293.1</ele>
        <time>2020-06-27T11:06:45Z</time>
      </trkpt>
      <trkpt lat="49.05362" lon="7.32868">
        <ele>292.6</ele>
        <time>2020-06-27T11:06:46Z</time>
      </trkpt>
      <trkpt lat="49.05363" lon="7.32883">
        <ele>292.1</ele>
        <time>2020-06-27T11:06:47Z</time>
      </trkpt>
      <trkpt lat="49.05365" lon="7.32898">
        <ele>291.6</ele>
        <time>2020-06-27T11:06:48Z</time>
      </trkpt>
      <trkpt lat="49.05367" lon="7.32914">
        <ele>291</ele>
        <time>2020-06-27T11:06:49Z</time>
      </trkpt>
      <trkpt lat="49.05369" lon="7.3293">
        <ele>290.5</ele>
        <time>2020-06-27T11:06:50Z</time>
      </trkpt>
      <trkpt lat="49.0537" lon="7.32945">
        <ele>289.9</ele>
        <time>2020-06-27T11:06:51Z</time>
      </trkpt>
      <trkpt lat="49.05371" lon="7.32961">
        <ele>289.3</ele>
        <time>2020-06-27T11:06:52Z</time>
      </trkpt>
      <trkpt lat="49.05373" lon="7.32978">
        <ele>288.7</ele>
        <time>2020-06-27T11:06:53Z</time>
      </trkpt>
      <trkpt lat="49.05374" lon="7.32995">
        <ele>288.1</ele>
        <time>2020-06-27T11:06:54Z</time>
      </trkpt>
      <trkpt lat="49.05376" lon="7.33012">
        <ele>287.6</ele>
        <time>2020-06-27T11:06:55Z</time>
      </trkpt>
      <trkpt lat="49.05378" lon="7.3303">
        <ele>287</ele>
        <time>2020-06-27T11:06:56Z</time>
      </trkpt>
      <trkpt lat="49.05379" lon="7.33047">
        <ele>286.5</ele>
        <time>2020-06-27T11:06:57Z</time>
      </trkpt>
      <trkpt lat="49.05381" lon="7.33064">
        <ele>285.9</ele>
        <time>2020-06-27T11:06:58Z</time>
      </trkpt>
      <trkpt lat="49.05383" lon="7.33081">
        <ele>285.4</ele>
        <time>2020-06-27T11:06:59Z</time>
      </trkpt>
      <trkpt lat="49.05385" lon="7.33099">
        <ele>284.8</ele>
        <time>2020-06-27T11:07:00Z</time>
      </trkpt>
      <trkpt lat="49.05387" lon="7.33117">
        <ele>284.3</ele>
        <time>2020-06-27T11:07:01Z</time>
      </trkpt>
      <trkpt lat="49.05388" lon="7.33135">
        <ele>283.9</ele>
        <time>2020-06-27T11:07:02Z</time>
      </trkpt>
      <trkpt lat="49.05389" lon="7.33152">
        <ele>283.5</ele>
        <time>2020-06-27T11:07:03Z</time>
      </trkpt>
      <trkpt lat="49.0539" lon="7.3317">
        <ele>283</ele>
        <time>2020-06-27T11:07:04Z</time>
      </trkpt>
      <trkpt lat="49.0539" lon="7.33187">
        <ele>282.6</ele>
        <time>2020-06-27T11:07:05Z</time>
      </trkpt>
      <trkpt lat="49.05391" lon="7.33205">
        <ele>282.2</ele>
        <time>2020-06-27T11:07:06Z</time>
      </trkpt>
      <trkpt lat="49.05392" lon="7.33223">
        <ele>281.8</ele>
        <time>2020-06-27T11:07:07Z</time>
      </trkpt>
      <trkpt lat="49.05392" lon="7.3324">
        <ele>281.4</ele>
        <time>2020-06-27T11:07:08Z</time>
      </trkpt>
      <trkpt lat="49.05391" lon="7.33258">
        <ele>281</ele>
        <time>2020-06-27T11:07:09Z</time>
      </trkpt>
      <trkpt lat="49.05391" lon="7.33275">
        <ele>280.6</ele>
        <time>2020-06-27T11:07:10Z</time>
      </trkpt>
      <trkpt lat="49.05391" lon="7.33293">
        <ele>280.1</ele>
        <time>2020-06-27T11:07:11Z</time>
      </trkpt>
      <trkpt lat="49.0539" lon="7.33311">
        <ele>279.5</ele>
        <time>2020-06-27T11:07:12Z</time>
      </trkpt>
      <trkpt lat="49.0539" lon="7.33328">
        <ele>279</ele>
        <time>2020-06-27T11:07:13Z</time>
      </trkpt>
      <trkpt lat="49.0539" lon="7.33346">
        <ele>278.5</ele>
        <time>2020-06-27T11:07:14Z</time>
      </trkpt>
      <trkpt lat="49.05389" lon="7.33364">
        <ele>277.9</ele>
        <time>2020-06-27T11:07:15Z</time>
      </trkpt>
      <trkpt lat="49.0539" lon="7.33382">
        <ele>277.3</ele>
        <time>2020-06-27T11:07:16Z</time>
      </trkpt>
      <trkpt lat="49.05391" lon="7.334">
        <ele>276.8</ele>
        <time>2020-06-27T11:07:17Z</time>
      </trkpt>
      <trkpt lat="49.05391" lon="7.33417">
        <ele>276.3</ele>
        <time>2020-06-27T11:07:18Z</time>
      </trkpt>
      <trkpt lat="49.05392" lon="7.33434">
        <ele>275.8</ele>
        <time>2020-06-27T11:07:19Z</time>
      </trkpt>
      <trkpt lat="49.05392" lon="7.33451">
        <ele>275.3</ele>
        <time>2020-06-27T11:07:20Z</time>
      </trkpt>
      <trkpt lat="49.05393" lon="7.33468">
        <ele>274.8</ele>
        <time>2020-06-27T11:07:21Z</time>
      </trkpt>
      <trkpt lat="49.05394" lon="7.33486">
        <ele>274.2</ele>
        <time>2020-06-27T11:07:22Z</time>
      </trkpt>
      <trkpt lat="49.05395" lon="7.33503">
        <ele>273.7</ele>
        <time>2020-06-27T11:07:23Z</time>
      </trkpt>
      <trkpt lat="49.05395" lon="7.33522">
        <ele>273.2</ele>
        <time>2020-06-27T11:07:24Z</time>
      </trkpt>
      <trkpt lat="49.05397" lon="7.33539">
        <ele>272.8</ele>
        <time>2020-06-27T11:07:25Z</time>
      </trkpt>
      <trkpt lat="49.05398" lon="7.33556">
        <ele>272.3</ele>
        <time>2020-06-27T11:07:26Z</time>
      </trkpt>
      <trkpt lat="49.05399" lon="7.33572">
        <ele>271.9</ele>
        <time>2020-06-27T11:07:27Z</time>
      </trkpt>
      <trkpt lat="49.054" lon="7.33589">
        <ele>271.4</ele>
        <time>2020-06-27T11:07:28Z</time>
      </trkpt>
      <trkpt lat="49.05401" lon="7.33605">
        <ele>270.9</ele>
        <time>2020-06-27T11:07:29Z</time>
      </trkpt>
      <trkpt lat="49.05402" lon="7.33621">
        <ele>270.5</ele>
        <time>2020-06-27T11:07:30Z</time>
      </trkpt>
      <trkpt lat="49.05402" lon="7.33638">
        <ele>270</ele>
        <time>2020-06-27T11:07:31Z</time>
      </trkpt>
      <trkpt lat="49.05403" lon="7.33654">
        <ele>269.4</ele>
        <time>2020-06-27T11:07:32Z</time>
      </trkpt>
      <trkpt lat="49.05404" lon="7.33669">
        <ele>268.8</ele>
        <time>2020-06-27T11:07:33Z</time>
      </trkpt>
      <trkpt lat="49.05405" lon="7.33684">
        <ele>268.2</ele>
        <time>2020-06-27T11:07:34Z</time>
      </trkpt>
      <trkpt lat="49.05406" lon="7.33699">
        <ele>267.6</ele>
        <time>2020-06-27T11:07:35Z</time>
      </trkpt>
      <trkpt lat="49.05407" lon="7.33714">
        <ele>267</ele>
        <time>2020-06-27T11:07:36Z</time>
      </trkpt>
      <trkpt lat="49.05408" lon="7.3373">
        <ele>266.4</ele>
        <time>2020-06-27T11:07:37Z</time>
      </trkpt>
      <trkpt lat="49.05409" lon="7.33745">
        <ele>265.8</ele>
        <time>2020-06-27T11:07:38Z</time>
      </trkpt>
      <trkpt lat="49.0541" lon="7.3376">
        <ele>265.2</ele>
        <time>2020-06-27T11:07:39Z</time>
      </trkpt>
      <trkpt lat="49.0541" lon="7.33775">
        <ele>264.7</ele>
        <time>2020-06-27T11:07:40Z</time>
      </trkpt>
      <trkpt lat="49.05409" lon="7.33791">
        <ele>264.3</ele>
        <time>2020-06-27T11:07:41Z</time>
      </trkpt>
      <trkpt lat="49.05406" lon="7.33806">
        <ele>264</ele>
        <time>2020-06-27T11:07:42Z</time>
      </trkpt>
      <trkpt lat="49.05403" lon="7.3382">
        <ele>263.9</ele>
        <time>2020-06-27T11:07:43Z</time>
      </trkpt>
      <trkpt lat="49.05399" lon="7.33833">
        <ele>263.6</ele>
        <time>2020-06-27T11:07:44Z</time>
      </trkpt>
      <trkpt lat="49.05395" lon="7.33845">
        <ele>263.4</ele>
        <time>2020-06-27T11:07:45Z</time>
      </trkpt>
      <trkpt lat="49.05389" lon="7.33855">
        <ele>263.3</ele>
        <time>2020-06-27T11:07:46Z</time>
      </trkpt>
      <trkpt lat="49.05383" lon="7.33864">
        <ele>263.1</ele>
        <time>2020-06-27T11:07:47Z</time>
      </trkpt>
      <trkpt lat="49.05377" lon="7.33871">
        <ele>263</ele>
        <time>2020-06-27T11:07:48Z</time>
      </trkpt>
      <trkpt lat="49.0537" lon="7.33877">
        <ele>263</ele>
        <time>2020-06-27T11:07:49Z</time>
      </trkpt>
      <trkpt lat="49.05363" lon="7.33881">
        <ele>263.1</ele>
        <time>2020-06-27T11:07:50Z</time>
      </trkpt>
      <trkpt lat="49.05357" lon="7.33885">
        <ele>263.2</ele>
        <time>2020-06-27T11:07:51Z</time>
      </trkpt>
      <trkpt lat="49.0535" lon="7.33888">
        <ele>263.4</ele>
        <time>2020-06-27T11:07:52Z</time>
      </trkpt>
      <trkpt lat="49.05344" lon="7.3389">
        <ele>263.6</ele>
        <time>2020-06-27T11:07:53Z</time>
      </trkpt>
      <trkpt lat="49.05338" lon="7.33891">
        <ele>263.9</ele>
        <time>2020-06-27T11:07:54Z</time>
      </trkpt>
      <trkpt lat="49.05334" lon="7.33891">
        <ele>264.2</ele>
        <time>2020-06-27T11:07:55Z</time>
      </trkpt>
      <trkpt lat="49.05329" lon="7.33892">
        <ele>264.5</ele>
        <time>2020-06-27T11:07:56Z</time>
      </trkpt>
      <trkpt lat="49.05325" lon="7.3389">
        <ele>264.7</ele>
        <time>2020-06-27T11:07:57Z</time>
      </trkpt>
      <trkpt lat="49.05322" lon="7.33889">
        <ele>265</ele>
        <time>2020-06-27T11:07:58Z</time>
      </trkpt>
      <trkpt lat="49.05318" lon="7.33888">
        <ele>265.2</ele>
        <time>2020-06-27T11:07:59Z</time>
      </trkpt>
      <trkpt lat="49.05316" lon="7.33887">
        <ele>265.4</ele>
        <time>2020-06-27T11:08:00Z</time>
      </trkpt>
      <trkpt lat="49.05313" lon="7.33886">
        <ele>265.6</ele>
        <time>2020-06-27T11:08:01Z</time>
      </trkpt>
      <trkpt lat="49.05309" lon="7.33886">
        <ele>265.8</ele>
        <time>2020-06-27T11:08:02Z</time>
      </trkpt>
      <trkpt lat="49.05308" lon="7.33886">
        <ele>265.9</ele>
        <time>2020-06-27T11:08:03Z</time>
      </trkpt>
      <trkpt lat="49.05306" lon="7.33882">
        <ele>266.1</ele>
        <time>2020-06-27T11:08:04Z</time>
      </trkpt>
      <trkpt lat="49.05305" lon="7.33881">
        <ele>266.2</ele>
        <time>2020-06-27T11:08:05Z</time>
      </trkpt>
      <trkpt lat="49.05303" lon="7.3388">
        <ele>266.3</ele>
        <time>2020-06-27T11:08:06Z</time>
      </trkpt>
      <trkpt lat="49.05302" lon="7.3388">
        <ele>266.4</ele>
        <time>2020-06-27T11:08:07Z</time>
      </trkpt>
      <trkpt lat="49.05301" lon="7.33879">
        <ele>266.5</ele>
        <time>2020-06-27T11:08:08Z</time>
      </trkpt>
      <trkpt lat="49.05301" lon="7.33877">
        <ele>266.5</ele>
        <time>2020-06-27T11:08:09Z</time>
      </trkpt>
      <trkpt lat="49.05302" lon="7.33876">
        <ele>266.6</ele>
        <time>2020-06-27T11:08:10Z</time>
      </trkpt>
      <trkpt lat="49.05302" lon="7.33874">
        <ele>266.7</ele>
        <time>2020-06-27T11:08:11Z</time>
      </trkpt>
      <trkpt lat="49.05302" lon="7.33873">
        <ele>266.7</ele>
        <time>2020-06-27T11:08:12Z</time>
      </trkpt>
      <trkpt lat="49.05302" lon="7.33874">
        <ele>266.8</ele>
        <time>2020-06-27T11:08:13Z</time>
      </trkpt>
      <trkpt lat="49.05302" lon="7.33875">
        <ele>266.9</ele>
        <time>2020-06-27T11:08:14Z</time>
      </trkpt>
      <trkpt lat="49.05302" lon="7.33876">
        <ele>266.9</ele>
        <time>2020-06-27T11:08:15Z</time>
      </trkpt>
      <trkpt lat="49.05302" lon="7.33877">
        <ele>266.9</ele>
        <time>2020-06-27T11:08:16Z</time>
      </trkpt>
      <trkpt lat="49.05302" lon="7.33878">
        <ele>267</ele>
        <time>2020-06-27T11:08:17Z</time>
      </trkpt>
      <trkpt lat="49.05302" lon="7.33879">
        <ele>267</ele>
        <time>2020-06-27T11:08:18Z</time>
      </trkpt>
      <trkpt lat="49.05302" lon="7.3388">
        <ele>267.1</ele>
        <time>2020-06-27T11:08:32Z</time>
      </trkpt>
      <trkpt lat="49.05303" lon="7.3388">
        <ele>267.1</ele>
        <time>2020-06-27T11:08:33Z</time>
      </trkpt>
      <trkpt lat="49.05306" lon="7.33881">
        <ele>267.4</ele>
        <time>2020-06-27T11:08:34Z</time>
      </trkpt>
      <trkpt lat="49.05311" lon="7.33881">
        <ele>267.7</ele>
        <time>2020-06-27T11:08:35Z</time>
      </trkpt>
      <trkpt lat="49.05315" lon="7.33884">
        <ele>267.7</ele>
        <time>2020-06-27T11:08:36Z</time>
      </trkpt>
      <trkpt lat="49.05319" lon="7.33887">
        <ele>267.8</ele>
        <time>2020-06-27T11:08:37Z</time>
      </trkpt>
      <trkpt lat="49.05322" lon="7.3389">
        <ele>267.8</ele>
        <time>2020-06-27T11:08:38Z</time>
      </trkpt>
      <trkpt lat="49.05326" lon="7.33894">
        <ele>267.9</ele>
        <time>2020-06-27T11:08:39Z</time>
      </trkpt>
      <trkpt lat="49.0533" lon="7.33898">
        <ele>267.9</ele>
        <time>2020-06-27T11:08:40Z</time>
      </trkpt>
      <trkpt lat="49.05335" lon="7.33902">
        <ele>268</ele>
        <time>2020-06-27T11:08:41Z</time>
      </trkpt>
      <trkpt lat="49.0534" lon="7.33907">
        <ele>268</ele>
        <time>2020-06-27T11:08:42Z</time>
      </trkpt>
      <trkpt lat="49.05344" lon="7.33911">
        <ele>268</ele>
        <time>2020-06-27T11:08:43Z</time>
      </trkpt>
      <trkpt lat="49.05349" lon="7.33915">
        <ele>268</ele>
        <time>2020-06-27T11:08:44Z</time>
      </trkpt>
      <trkpt lat="49.05354" lon="7.33918">
        <ele>267.9</ele>
        <time>2020-06-27T11:08:45Z</time>
      </trkpt>
      <trkpt lat="49.0536" lon="7.3392">
        <ele>267.8</ele>
        <time>2020-06-27T11:08:46Z</time>
      </trkpt>
      <trkpt lat="49.05365" lon="7.33924">
        <ele>267.7</ele>
        <time>2020-06-27T11:08:47Z</time>
      </trkpt>
      <trkpt lat="49.0537" lon="7.33928">
        <ele>267.7</ele>
        <time>2020-06-27T11:08:48Z</time>
      </trkpt>
      <trkpt lat="49.05375" lon="7.33932">
        <ele>267.6</ele>
        <time>2020-06-27T11:08:49Z</time>
      </trkpt>
      <trkpt lat="49.05381" lon="7.33934">
        <ele>267.5</ele>
        <time>2020-06-27T11:08:50Z</time>
      </trkpt>
      <trkpt lat="49.05386" lon="7.33938">
        <ele>267.5</ele>
        <time>2020-06-27T11:08:51Z</time>
      </trkpt>
      <trkpt lat="49.05391" lon="7.33942">
        <ele>267.5</ele>
        <time>2020-06-27T11:08:52Z</time>
      </trkpt>
      <trkpt lat="49.05395" lon="7.33947">
        <ele>267.4</ele>
        <time>2020-06-27T11:08:53Z</time>
      </trkpt>
      <trkpt lat="49.05399" lon="7.33951">
        <ele>267.4</ele>
        <time>2020-06-27T11:08:54Z</time>
      </trkpt>
      <trkpt lat="49.05402" lon="7.33956">
        <ele>267.4</ele>
        <time>2020-06-27T11:08:55Z</time>
      </trkpt>
      <trkpt lat="49.05405" lon="7.3396">
        <ele>268.1</ele>
        <time>2020-06-27T11:08:56Z</time>
      </trkpt>
      <trkpt lat="49.05407" lon="7.33964">
        <ele>268.4</ele>
        <time>2020-06-27T11:08:57Z</time>
      </trkpt>
      <trkpt lat="49.05409" lon="7.33968">
        <ele>268.7</ele>
        <time>2020-06-27T11:08:58Z</time>
      </trkpt>
      <trkpt lat="49.05411" lon="7.33972">
        <ele>268.9</ele>
        <time>2020-06-27T11:08:59Z</time>
      </trkpt>
      <trkpt lat="49.05413" lon="7.33976">
        <ele>269.2</ele>
        <time>2020-06-27T11:09:00Z</time>
      </trkpt>
      <trkpt lat="49.05415" lon="7.33979">
        <ele>269.4</ele>
        <time>2020-06-27T11:09:01Z</time>
      </trkpt>
      <trkpt lat="49.05417" lon="7.33983">
        <ele>269.6</ele>
        <time>2020-06-27T11:09:02Z</time>
      </trkpt>
      <trkpt lat="49.05419" lon="7.33985">
        <ele>269.8</ele>
        <time>2020-06-27T11:09:03Z</time>
      </trkpt>
      <trkpt lat="49.0542" lon="7.33987">
        <ele>269.9</ele>
        <time>2020-06-27T11:09:04Z</time>
      </trkpt>
      <trkpt lat="49.05421" lon="7.33987">
        <ele>270</ele>
        <time>2020-06-27T11:09:05Z</time>
      </trkpt>
      <trkpt lat="49.05423" lon="7.3399">
        <ele>270.1</ele>
        <time>2020-06-27T11:09:06Z</time>
      </trkpt>
      <trkpt lat="49.05425" lon="7.33994">
        <ele>270.4</ele>
        <time>2020-06-27T11:09:07Z</time>
      </trkpt>
      <trkpt lat="49.05425" lon="7.33995">
        <ele>270.4</ele>
        <time>2020-06-27T11:09:08Z</time>
      </trkpt>
      <trkpt lat="49.05427" lon="7.33998">
        <ele>270.7</ele>
        <time>2020-06-27T11:09:09Z</time>
      </trkpt>
      <trkpt lat="49.05428" lon="7.34">
        <ele>270.7</ele>
        <time>2020-06-27T11:09:10Z</time>
      </trkpt>
      <trkpt lat="49.05431" lon="7.34004">
        <ele>271</ele>
        <time>2020-06-27T11:09:11Z</time>
      </trkpt>
      <trkpt lat="49.05431" lon="7.34006">
        <ele>271.1</ele>
        <time>2020-06-27T11:09:12Z</time>
      </trkpt>
      <trkpt lat="49.05432" lon="7.3401">
        <ele>271.4</ele>
        <time>2020-06-27T11:09:13Z</time>
      </trkpt>
      <trkpt lat="49.05434" lon="7.34014">
        <ele>271.6</ele>
        <time>2020-06-27T11:09:14Z</time>
      </trkpt>
      <trkpt lat="49.05436" lon="7.34019">
        <ele>271.9</ele>
        <time>2020-06-27T11:09:15Z</time>
      </trkpt>
      <trkpt lat="49.05437" lon="7.3402">
        <ele>272</ele>
        <time>2020-06-27T11:09:16Z</time>
      </trkpt>
      <trkpt lat="49.05439" lon="7.34025">
        <ele>272.3</ele>
        <time>2020-06-27T11:09:17Z</time>
      </trkpt>
      <trkpt lat="49.05439" lon="7.34026">
        <ele>272.4</ele>
        <time>2020-06-27T11:09:18Z</time>
      </trkpt>
      <trkpt lat="49.05442" lon="7.3403">
        <ele>272.7</ele>
        <time>2020-06-27T11:09:19Z</time>
      </trkpt>
      <trkpt lat="49.05442" lon="7.34031">
        <ele>272.8</ele>
        <time>2020-06-27T11:09:20Z</time>
      </trkpt>
      <trkpt lat="49.05444" lon="7.34036">
        <ele>273.1</ele>
        <time>2020-06-27T11:09:21Z</time>
      </trkpt>
      <trkpt lat="49.05445" lon="7.34037">
        <ele>273.2</ele>
        <time>2020-06-27T11:09:22Z</time>
      </trkpt>
      <trkpt lat="49.05448" lon="7.34041">
        <ele>273.5</ele>
        <time>2020-06-27T11:09:23Z</time>
      </trkpt>
      <trkpt lat="49.05449" lon="7.34042">
        <ele>273.6</ele>
        <time>2020-06-27T11:09:24Z</time>
      </trkpt>
      <trkpt lat="49.05451" lon="7.34045">
        <ele>273.9</ele>
        <time>2020-06-27T11:09:25Z</time>
      </trkpt>
      <trkpt lat="49.05452" lon="7.34046">
        <ele>274</ele>
        <time>2020-06-27T11:09:26Z</time>
      </trkpt>
      <trkpt lat="49.05454" lon="7.3405">
        <ele>274.3</ele>
        <time>2020-06-27T11:09:27Z</time>
      </trkpt>
      <trkpt lat="49.05457" lon="7.34052">
        <ele>274.6</ele>
        <time>2020-06-27T11:09:28Z</time>
      </trkpt>
      <trkpt lat="49.05458" lon="7.34053">
        <ele>274.7</ele>
        <time>2020-06-27T11:09:29Z</time>
      </trkpt>
      <trkpt lat="49.05459" lon="7.34055">
        <ele>274.8</ele>
        <time>2020-06-27T11:09:30Z</time>
      </trkpt>
      <trkpt lat="49.0546" lon="7.34057">
        <ele>275</ele>
        <time>2020-06-27T11:09:31Z</time>
      </trkpt>
      <trkpt lat="49.05463" lon="7.3406">
        <ele>275.3</ele>
        <time>2020-06-27T11:09:32Z</time>
      </trkpt>
      <trkpt lat="49.05464" lon="7.3406">
        <ele>275.4</ele>
        <time>2020-06-27T11:09:33Z</time>
      </trkpt>
      <trkpt lat="49.05466" lon="7.34064">
        <ele>275.7</ele>
        <time>2020-06-27T11:09:34Z</time>
      </trkpt>
      <trkpt lat="49.05467" lon="7.34065">
        <ele>275.8</ele>
        <time>2020-06-27T11:09:35Z</time>
      </trkpt>
      <trkpt lat="49.05468" lon="7.34068">
        <ele>276</ele>
        <time>2020-06-27T11:09:36Z</time>
      </trkpt>
      <trkpt lat="49.05469" lon="7.34069">
        <ele>276.2</ele>
        <time>2020-06-27T11:09:37Z</time>
      </trkpt>
      <trkpt lat="49.05471" lon="7.34071">
        <ele>276.4</ele>
        <time>2020-06-27T11:09:38Z</time>
      </trkpt>
      <trkpt lat="49.05472" lon="7.34073">
        <ele>276.6</ele>
        <time>2020-06-27T11:09:39Z</time>
      </trkpt>
      <trkpt lat="49.05472" lon="7.34075">
        <ele>276.7</ele>
        <time>2020-06-27T11:09:40Z</time>
      </trkpt>
      <trkpt lat="49.05473" lon="7.34076">
        <ele>276.9</ele>
        <time>2020-06-27T11:09:41Z</time>
      </trkpt>
      <trkpt lat="49.05474" lon="7.34079">
        <ele>277</ele>
        <time>2020-06-27T11:09:42Z</time>
      </trkpt>
      <trkpt lat="49.05475" lon="7.34081">
        <ele>277.3</ele>
        <time>2020-06-27T11:09:43Z</time>
      </trkpt>
      <trkpt lat="49.05477" lon="7.34085">
        <ele>277.6</ele>
        <time>2020-06-27T11:09:44Z</time>
      </trkpt>
      <trkpt lat="49.05477" lon="7.34086">
        <ele>277.7</ele>
        <time>2020-06-27T11:09:45Z</time>
      </trkpt>
      <trkpt lat="49.0548" lon="7.34089">
        <ele>278</ele>
        <time>2020-06-27T11:09:46Z</time>
      </trkpt>
      <trkpt lat="49.0548" lon="7.3409">
        <ele>278.1</ele>
        <time>2020-06-27T11:09:47Z</time>
      </trkpt>
      <trkpt lat="49.05482" lon="7.34093">
        <ele>278.4</ele>
        <time>2020-06-27T11:09:48Z</time>
      </trkpt>
      <trkpt lat="49.05483" lon="7.34094">
        <ele>278.5</ele>
        <time>2020-06-27T11:09:49Z</time>
      </trkpt>
      <trkpt lat="49.05484" lon="7.34095">
        <ele>278.7</ele>
        <time>2020-06-27T11:09:50Z</time>
      </trkpt>
      <trkpt lat="49.05485" lon="7.34096">
        <ele>278.8</ele>
        <time>2020-06-27T11:09:51Z</time>
      </trkpt>
      <trkpt lat="49.05487" lon="7.34098">
        <ele>279.1</ele>
        <time>2020-06-27T11:09:52Z</time>
      </trkpt>
      <trkpt lat="49.05488" lon="7.34099">
        <ele>279.2</ele>
        <time>2020-06-27T11:09:53Z</time>
      </trkpt>
      <trkpt lat="49.05489" lon="7.34099">
        <ele>279.3</ele>
        <time>2020-06-27T11:09:54Z</time>
      </trkpt>
      <trkpt lat="49.0549" lon="7.341">
        <ele>279.5</ele>
        <time>2020-06-27T11:09:55Z</time>
      </trkpt>
      <trkpt lat="49.05491" lon="7.34102">
        <ele>279.7</ele>
        <time>2020-06-27T11:09:56Z</time>
      </trkpt>
      <trkpt lat="49.05494" lon="7.34104">
        <ele>280</ele>
        <time>2020-06-27T11:09:57Z</time>
      </trkpt>
      <trkpt lat="49.05494" lon="7.34105">
        <ele>280.1</ele>
        <time>2020-06-27T11:09:58Z</time>
      </trkpt>
      <trkpt lat="49.05496" lon="7.34109">
        <ele>280.5</ele>
        <time>2020-06-27T11:09:59Z</time>
      </trkpt>
      <trkpt lat="49.05497" lon="7.3411">
        <ele>280.6</ele>
        <time>2020-06-27T11:10:00Z</time>
      </trkpt>
      <trkpt lat="49.055" lon="7.34113">
        <ele>281.1</ele>
        <time>2020-06-27T11:10:01Z</time>
      </trkpt>
      <trkpt lat="49.055" lon="7.34114">
        <ele>281.2</ele>
        <time>2020-06-27T11:10:02Z</time>
      </trkpt>
      <trkpt lat="49.05503" lon="7.34117">
        <ele>281.6</ele>
        <time>2020-06-27T11:10:03Z</time>
      </trkpt>
      <trkpt lat="49.05503" lon="7.34118">
        <ele>281.7</ele>
        <time>2020-06-27T11:10:04Z</time>
      </trkpt>
      <trkpt lat="49.05505" lon="7.34122">
        <ele>282</ele>
        <time>2020-06-27T11:10:05Z</time>
      </trkpt>
      <trkpt lat="49.05506" lon="7.34123">
        <ele>282.1</ele>
        <time>2020-06-27T11:10:06Z</time>
      </trkpt>
      <trkpt lat="49.05507" lon="7.34124">
        <ele>282.4</ele>
        <time>2020-06-27T11:10:07Z</time>
      </trkpt>
      <trkpt lat="49.05509" lon="7.34125">
        <ele>282.6</ele>
        <time>2020-06-27T11:10:08Z</time>
      </trkpt>
      <trkpt lat="49.0551" lon="7.34127">
        <ele>282.8</ele>
        <time>2020-06-27T11:10:09Z</time>
      </trkpt>
      <trkpt lat="49.05511" lon="7.34129">
        <ele>283</ele>
        <time>2020-06-27T11:10:10Z</time>
      </trkpt>
      <trkpt lat="49.05514" lon="7.34131">
        <ele>283.4</ele>
        <time>2020-06-27T11:10:11Z</time>
      </trkpt>
      <trkpt lat="49.05515" lon="7.34132">
        <ele>283.5</ele>
        <time>2020-06-27T11:10:12Z</time>
      </trkpt>
      <trkpt lat="49.05516" lon="7.34134">
        <ele>283.7</ele>
        <time>2020-06-27T11:10:13Z</time>
      </trkpt>
      <trkpt lat="49.05518" lon="7.34135">
        <ele>283.9</ele>
        <time>2020-06-27T11:10:14Z</time>
      </trkpt>
      <trkpt lat="49.0552" lon="7.34138">
        <ele>284.3</ele>
        <time>2020-06-27T11:10:15Z</time>
      </trkpt>
      <trkpt lat="49.05521" lon="7.34139">
        <ele>284.4</ele>
        <time>2020-06-27T11:10:16Z</time>
      </trkpt>
      <trkpt lat="49.05522" lon="7.3414">
        <ele>284.6</ele>
        <time>2020-06-27T11:10:17Z</time>
      </trkpt>
      <trkpt lat="49.05523" lon="7.34142">
        <ele>284.8</ele>
        <time>2020-06-27T11:10:18Z</time>
      </trkpt>
      <trkpt lat="49.05526" lon="7.34144">
        <ele>285.2</ele>
        <time>2020-06-27T11:10:19Z</time>
      </trkpt>
      <trkpt lat="49.05526" lon="7.34145">
        <ele>285.3</ele>
        <time>2020-06-27T11:10:20Z</time>
      </trkpt>
      <trkpt lat="49.05527" lon="7.34146">
        <ele>285.5</ele>
        <time>2020-06-27T11:10:21Z</time>
      </trkpt>
      <trkpt lat="49.05528" lon="7.34148">
        <ele>285.7</ele>
        <time>2020-06-27T11:10:22Z</time>
      </trkpt>
      <trkpt lat="49.05531" lon="7.3415">
        <ele>286.1</ele>
        <time>2020-06-27T11:10:23Z</time>
      </trkpt>
      <trkpt lat="49.05532" lon="7.3415">
        <ele>286.3</ele>
        <time>2020-06-27T11:10:24Z</time>
      </trkpt>
      <trkpt lat="49.05534" lon="7.34152">
        <ele>286.6</ele>
        <time>2020-06-27T11:10:25Z</time>
      </trkpt>
      <trkpt lat="49.05535" lon="7.34154">
        <ele>286.8</ele>
        <time>2020-06-27T11:10:26Z</time>
      </trkpt>
      <trkpt lat="49.05537" lon="7.34156">
        <ele>287.2</ele>
        <time>2020-06-27T11:10:27Z</time>
      </trkpt>
      <trkpt lat="49.05538" lon="7.34157">
        <ele>287.4</ele>
        <time>2020-06-27T11:10:28Z</time>
      </trkpt>
      <trkpt lat="49.0554" lon="7.3416">
        <ele>287.8</ele>
        <time>2020-06-27T11:10:29Z</time>
      </trkpt>
      <trkpt lat="49.05542" lon="7.34163">
        <ele>288.1</ele>
        <time>2020-06-27T11:10:30Z</time>
      </trkpt>
      <trkpt lat="49.05543" lon="7.34164">
        <ele>288.3</ele>
        <time>2020-06-27T11:10:31Z</time>
      </trkpt>
      <trkpt lat="49.05544" lon="7.34166">
        <ele>288.5</ele>
        <time>2020-06-27T11:10:32Z</time>
      </trkpt>
      <trkpt lat="49.05545" lon="7.34168">
        <ele>288.8</ele>
        <time>2020-06-27T11:10:33Z</time>
      </trkpt>
      <trkpt lat="49.05547" lon="7.34172">
        <ele>289.2</ele>
        <time>2020-06-27T11:10:34Z</time>
      </trkpt>
      <trkpt lat="49.05548" lon="7.34173">
        <ele>289.3</ele>
        <time>2020-06-27T11:10:35Z</time>
      </trkpt>
      <trkpt lat="49.05549" lon="7.34174">
        <ele>289.5</ele>
        <time>2020-06-27T11:10:36Z</time>
      </trkpt>
      <trkpt lat="49.0555" lon="7.34175">
        <ele>289.7</ele>
        <time>2020-06-27T11:10:37Z</time>
      </trkpt>
      <trkpt lat="49.05551" lon="7.34176">
        <ele>289.9</ele>
        <time>2020-06-27T11:10:38Z</time>
      </trkpt>
      <trkpt lat="49.05553" lon="7.34178">
        <ele>290.2</ele>
        <time>2020-06-27T11:10:39Z</time>
      </trkpt>
      <trkpt lat="49.05554" lon="7.3418">
        <ele>290.5</ele>
        <time>2020-06-27T11:10:40Z</time>
      </trkpt>
      <trkpt lat="49.05555" lon="7.34182">
        <ele>290.7</ele>
        <time>2020-06-27T11:10:41Z</time>
      </trkpt>
      <trkpt lat="49.05556" lon="7.34183">
        <ele>290.9</ele>
        <time>2020-06-27T11:10:42Z</time>
      </trkpt>
      <trkpt lat="49.05557" lon="7.34186">
        <ele>291.2</ele>
        <time>2020-06-27T11:10:43Z</time>
      </trkpt>
      <trkpt lat="49.05559" lon="7.34189">
        <ele>291.6</ele>
        <time>2020-06-27T11:10:44Z</time>
      </trkpt>
      <trkpt lat="49.0556" lon="7.3419">
        <ele>291.7</ele>
        <time>2020-06-27T11:10:45Z</time>
      </trkpt>
      <trkpt lat="49.05561" lon="7.34194">
        <ele>292.1</ele>
        <time>2020-06-27T11:10:46Z</time>
      </trkpt>
      <trkpt lat="49.05563" lon="7.34198">
        <ele>292.6</ele>
        <time>2020-06-27T11:10:47Z</time>
      </trkpt>
      <trkpt lat="49.05563" lon="7.342">
        <ele>292.7</ele>
        <time>2020-06-27T11:10:48Z</time>
      </trkpt>
      <trkpt lat="49.05565" lon="7.34204">
        <ele>293.1</ele>
        <time>2020-06-27T11:10:49Z</time>
      </trkpt>
      <trkpt lat="49.05566" lon="7.34205">
        <ele>293.2</ele>
        <time>2020-06-27T11:10:50Z</time>
      </trkpt>
      <trkpt lat="49.05567" lon="7.34207">
        <ele>293.5</ele>
        <time>2020-06-27T11:10:51Z</time>
      </trkpt>
      <trkpt lat="49.05568" lon="7.34208">
        <ele>293.7</ele>
        <time>2020-06-27T11:10:52Z</time>
      </trkpt>
      <trkpt lat="49.05569" lon="7.34211">
        <ele>293.9</ele>
        <time>2020-06-27T11:10:53Z</time>
      </trkpt>
      <trkpt lat="49.0557" lon="7.34212">
        <ele>294</ele>
        <time>2020-06-27T11:10:54Z</time>
      </trkpt>
      <trkpt lat="49.0557" lon="7.34213">
        <ele>294.1</ele>
        <time>2020-06-27T11:10:55Z</time>
      </trkpt>
      <trkpt lat="49.05572" lon="7.34216">
        <ele>294.4</ele>
        <time>2020-06-27T11:10:56Z</time>
      </trkpt>
      <trkpt lat="49.05572" lon="7.34217">
        <ele>294.5</ele>
        <time>2020-06-27T11:10:57Z</time>
      </trkpt>
      <trkpt lat="49.05573" lon="7.34219">
        <ele>294.6</ele>
        <time>2020-06-27T11:10:58Z</time>
      </trkpt>
      <trkpt lat="49.05574" lon="7.34222">
        <ele>294.9</ele>
        <time>2020-06-27T11:10:59Z</time>
      </trkpt>
      <trkpt lat="49.05575" lon="7.34223">
        <ele>295.1</ele>
        <time>2020-06-27T11:11:00Z</time>
      </trkpt>
      <trkpt lat="49.05575" lon="7.34225">
        <ele>295.2</ele>
        <time>2020-06-27T11:11:01Z</time>
      </trkpt>
      <trkpt lat="49.05576" lon="7.34226">
        <ele>295.3</ele>
        <time>2020-06-27T11:11:02Z</time>
      </trkpt>
      <trkpt lat="49.05576" lon="7.34228">
        <ele>295.4</ele>
        <time>2020-06-27T11:11:03Z</time>
      </trkpt>
      <trkpt lat="49.05577" lon="7.34232">
        <ele>295.7</ele>
        <time>2020-06-27T11:11:04Z</time>
      </trkpt>
      <trkpt lat="49.05577" lon="7.34233">
        <ele>295.8</ele>
        <time>2020-06-27T11:11:05Z</time>
      </trkpt>
      <trkpt lat="49.05577" lon="7.34235">
        <ele>295.9</ele>
        <time>2020-06-27T11:11:06Z</time>
      </trkpt>
      <trkpt lat="49.05577" lon="7.34237">
        <ele>296.1</ele>
        <time>2020-06-27T11:11:07Z</time>
      </trkpt>
      <trkpt lat="49.05578" lon="7.3424">
        <ele>296.3</ele>
        <time>2020-06-27T11:11:08Z</time>
      </trkpt>
      <trkpt lat="49.05578" lon="7.34243">
        <ele>296.5</ele>
        <time>2020-06-27T11:11:09Z</time>
      </trkpt>
      <trkpt lat="49.05578" lon="7.34245">
        <ele>296.7</ele>
        <time>2020-06-27T11:11:10Z</time>
      </trkpt>
      <trkpt lat="49.05579" lon="7.3425">
        <ele>297.1</ele>
        <time>2020-06-27T11:11:11Z</time>
      </trkpt>
      <trkpt lat="49.05579" lon="7.34252">
        <ele>297.2</ele>
        <time>2020-06-27T11:11:12Z</time>
      </trkpt>
      <trkpt lat="49.0558" lon="7.34256">
        <ele>297.5</ele>
        <time>2020-06-27T11:11:13Z</time>
      </trkpt>
      <trkpt lat="49.0558" lon="7.34257">
        <ele>297.6</ele>
        <time>2020-06-27T11:11:14Z</time>
      </trkpt>
      <trkpt lat="49.0558" lon="7.3426">
        <ele>297.8</ele>
        <time>2020-06-27T11:11:15Z</time>
      </trkpt>
      <trkpt lat="49.0558" lon="7.34262">
        <ele>298</ele>
        <time>2020-06-27T11:11:16Z</time>
      </trkpt>
      <trkpt lat="49.0558" lon="7.34265">
        <ele>298.2</ele>
        <time>2020-06-27T11:11:17Z</time>
      </trkpt>
      <trkpt lat="49.05581" lon="7.34267">
        <ele>298.3</ele>
        <time>2020-06-27T11:11:18Z</time>
      </trkpt>
      <trkpt lat="49.05581" lon="7.34269">
        <ele>298.5</ele>
        <time>2020-06-27T11:11:19Z</time>
      </trkpt>
      <trkpt lat="49.05582" lon="7.34271">
        <ele>298.7</ele>
        <time>2020-06-27T11:11:20Z</time>
      </trkpt>
      <trkpt lat="49.05582" lon="7.34274">
        <ele>298.9</ele>
        <time>2020-06-27T11:11:21Z</time>
      </trkpt>
      <trkpt lat="49.05582" lon="7.34277">
        <ele>299.1</ele>
        <time>2020-06-27T11:11:22Z</time>
      </trkpt>
      <trkpt lat="49.05582" lon="7.34279">
        <ele>299.3</ele>
        <time>2020-06-27T11:11:23Z</time>
      </trkpt>
      <trkpt lat="49.05583" lon="7.34281">
        <ele>299.5</ele>
        <time>2020-06-27T11:11:24Z</time>
      </trkpt>
      <trkpt lat="49.05583" lon="7.34284">
        <ele>299.7</ele>
        <time>2020-06-27T11:11:25Z</time>
      </trkpt>
      <trkpt lat="49.05583" lon="7.34286">
        <ele>299.9</ele>
        <time>2020-06-27T11:11:26Z</time>
      </trkpt>
      <trkpt lat="49.05584" lon="7.34289">
        <ele>300.1</ele>
        <time>2020-06-27T11:11:27Z</time>
      </trkpt>
      <trkpt lat="49.05584" lon="7.3429">
        <ele>300.2</ele>
        <time>2020-06-27T11:11:28Z</time>
      </trkpt>
      <trkpt lat="49.05584" lon="7.34293">
        <ele>300.4</ele>
        <time>2020-06-27T11:11:29Z</time>
      </trkpt>
      <trkpt lat="49.05584" lon="7.34295">
        <ele>300.6</ele>
        <time>2020-06-27T11:11:30Z</time>
      </trkpt>
      <trkpt lat="49.05584" lon="7.34298">
        <ele>300.8</ele>
        <time>2020-06-27T11:11:31Z</time>
      </trkpt>
      <trkpt lat="49.05584" lon="7.343">
        <ele>301</ele>
        <time>2020-06-27T11:11:32Z</time>
      </trkpt>
      <trkpt lat="49.05584" lon="7.34304">
        <ele>301.3</ele>
        <time>2020-06-27T11:11:33Z</time>
      </trkpt>
      <trkpt lat="49.05584" lon="7.34305">
        <ele>301.4</ele>
        <time>2020-06-27T11:11:34Z</time>
      </trkpt>
      <trkpt lat="49.05584" lon="7.34307">
        <ele>301.6</ele>
        <time>2020-06-27T11:11:35Z</time>
      </trkpt>
      <trkpt lat="49.05584" lon="7.3431">
        <ele>301.8</ele>
        <time>2020-06-27T11:11:36Z</time>
      </trkpt>
      <trkpt lat="49.05583" lon="7.34312">
        <ele>302</ele>
        <time>2020-06-27T11:11:37Z</time>
      </trkpt>
      <trkpt lat="49.05583" lon="7.34314">
        <ele>302.1</ele>
        <time>2020-06-27T11:11:38Z</time>
      </trkpt>
      <trkpt lat="49.05582" lon="7.34316">
        <ele>302.3</ele>
        <time>2020-06-27T11:11:39Z</time>
      </trkpt>
      <trkpt lat="49.05582" lon="7.34318">
        <ele>302.5</ele>
        <time>2020-06-27T11:11:40Z</time>
      </trkpt>
      <trkpt lat="49.05582" lon="7.34321">
        <ele>302.6</ele>
        <time>2020-06-27T11:11:41Z</time>
      </trkpt>
      <trkpt lat="49.05582" lon="7.34323">
        <ele>302.8</ele>
        <time>2020-06-27T11:11:42Z</time>
      </trkpt>
      <trkpt lat="49.05582" lon="7.34326">
        <ele>303.3</ele>
        <time>2020-06-27T11:11:43Z</time>
      </trkpt>
      <trkpt lat="49.05582" lon="7.34328">
        <ele>303.5</ele>
        <time>2020-06-27T11:11:44Z</time>
      </trkpt>
      <trkpt lat="49.05582" lon="7.34331">
        <ele>303.7</ele>
        <time>2020-06-27T11:11:45Z</time>
      </trkpt>
      <trkpt lat="49.05582" lon="7.34333">
        <ele>303.9</ele>
        <time>2020-06-27T11:11:46Z</time>
      </trkpt>
      <trkpt lat="49.05582" lon="7.34335">
        <ele>304.1</ele>
        <time>2020-06-27T11:11:47Z</time>
      </trkpt>
      <trkpt lat="49.05582" lon="7.34337">
        <ele>304.2</ele>
        <time>2020-06-27T11:11:48Z</time>
      </trkpt>
      <trkpt lat="49.05581" lon="7.3434">
        <ele>304.5</ele>
        <time>2020-06-27T11:11:49Z</time>
      </trkpt>
      <trkpt lat="49.05581" lon="7.34342">
        <ele>304.7</ele>
        <time>2020-06-27T11:11:50Z</time>
      </trkpt>
      <trkpt lat="49.05581" lon="7.34345">
        <ele>304.9</ele>
        <time>2020-06-27T11:11:51Z</time>
      </trkpt>
      <trkpt lat="49.05581" lon="7.34347">
        <ele>305</ele>
        <time>2020-06-27T11:11:52Z</time>
      </trkpt>
      <trkpt lat="49.05581" lon="7.34349">
        <ele>305.2</ele>
        <time>2020-06-27T11:11:53Z</time>
      </trkpt>
      <trkpt lat="49.05581" lon="7.34352">
        <ele>305.4</ele>
        <time>2020-06-27T11:11:54Z</time>
      </trkpt>
      <trkpt lat="49.05581" lon="7.34354">
        <ele>305.6</ele>
        <time>2020-06-27T11:11:55Z</time>
      </trkpt>
      <trkpt lat="49.05581" lon="7.34356">
        <ele>305.8</ele>
        <time>2020-06-27T11:11:56Z</time>
      </trkpt>
      <trkpt lat="49.05581" lon="7.34359">
        <ele>305.9</ele>
        <time>2020-06-27T11:11:57Z</time>
      </trkpt>
      <trkpt lat="49.05581" lon="7.34361">
        <ele>306.2</ele>
        <time>2020-06-27T11:11:58Z</time>
      </trkpt>
      <trkpt lat="49.0558" lon="7.34366">
        <ele>306.5</ele>
        <time>2020-06-27T11:11:59Z</time>
      </trkpt>
      <trkpt lat="49.05579" lon="7.34368">
        <ele>306.6</ele>
        <time>2020-06-27T11:12:00Z</time>
      </trkpt>
      <trkpt lat="49.05578" lon="7.3437">
        <ele>306.8</ele>
        <time>2020-06-27T11:12:01Z</time>
      </trkpt>
      <trkpt lat="49.05578" lon="7.34373">
        <ele>307.1</ele>
        <time>2020-06-27T11:12:02Z</time>
      </trkpt>
      <trkpt lat="49.05577" lon="7.34375">
        <ele>307.3</ele>
        <time>2020-06-27T11:12:03Z</time>
      </trkpt>
      <trkpt lat="49.05577" lon="7.34377">
        <ele>307.4</ele>
        <time>2020-06-27T11:12:04Z</time>
      </trkpt>
      <trkpt lat="49.05576" lon="7.34379">
        <ele>307.6</ele>
        <time>2020-06-27T11:12:05Z</time>
      </trkpt>
      <trkpt lat="49.05576" lon="7.34381">
        <ele>307.8</ele>
        <time>2020-06-27T11:12:06Z</time>
      </trkpt>
      <trkpt lat="49.05575" lon="7.34386">
        <ele>308.1</ele>
        <time>2020-06-27T11:12:07Z</time>
      </trkpt>
      <trkpt lat="49.05575" lon="7.34387">
        <ele>308.2</ele>
        <time>2020-06-27T11:12:08Z</time>
      </trkpt>
      <trkpt lat="49.05575" lon="7.3439">
        <ele>308.4</ele>
        <time>2020-06-27T11:12:09Z</time>
      </trkpt>
      <trkpt lat="49.05575" lon="7.34392">
        <ele>308.6</ele>
        <time>2020-06-27T11:12:10Z</time>
      </trkpt>
      <trkpt lat="49.05574" lon="7.34395">
        <ele>308.8</ele>
        <time>2020-06-27T11:12:11Z</time>
      </trkpt>
      <trkpt lat="49.05573" lon="7.34397">
        <ele>309</ele>
        <time>2020-06-27T11:12:12Z</time>
      </trkpt>
      <trkpt lat="49.05573" lon="7.34399">
        <ele>309.2</ele>
        <time>2020-06-27T11:12:13Z</time>
      </trkpt>
      <trkpt lat="49.05572" lon="7.34401">
        <ele>309.4</ele>
        <time>2020-06-27T11:12:14Z</time>
      </trkpt>
      <trkpt lat="49.05571" lon="7.34403">
        <ele>309.6</ele>
        <time>2020-06-27T11:12:15Z</time>
      </trkpt>
      <trkpt lat="49.05571" lon="7.34405">
        <ele>309.8</ele>
        <time>2020-06-27T11:12:16Z</time>
      </trkpt>
      <trkpt lat="49.05569" lon="7.3441">
        <ele>310.1</ele>
        <time>2020-06-27T11:12:17Z</time>
      </trkpt>
      <trkpt lat="49.05568" lon="7.34411">
        <ele>310.3</ele>
        <time>2020-06-27T11:12:18Z</time>
      </trkpt>
      <trkpt lat="49.05566" lon="7.34414">
        <ele>310.6</ele>
        <time>2020-06-27T11:12:19Z</time>
      </trkpt>
      <trkpt lat="49.05566" lon="7.34415">
        <ele>310.7</ele>
        <time>2020-06-27T11:12:20Z</time>
      </trkpt>
      <trkpt lat="49.05564" lon="7.34419">
        <ele>311.1</ele>
        <time>2020-06-27T11:12:21Z</time>
      </trkpt>
      <trkpt lat="49.05564" lon="7.3442">
        <ele>311.2</ele>
        <time>2020-06-27T11:12:22Z</time>
      </trkpt>
      <trkpt lat="49.05563" lon="7.34422">
        <ele>311.3</ele>
        <time>2020-06-27T11:12:23Z</time>
      </trkpt>
      <trkpt lat="49.05562" lon="7.34424">
        <ele>311.5</ele>
        <time>2020-06-27T11:12:24Z</time>
      </trkpt>
      <trkpt lat="49.0556" lon="7.34425">
        <ele>311.7</ele>
        <time>2020-06-27T11:12:25Z</time>
      </trkpt>
      <trkpt lat="49.05559" lon="7.34427">
        <ele>311.9</ele>
        <time>2020-06-27T11:12:26Z</time>
      </trkpt>
      <trkpt lat="49.05558" lon="7.34429">
        <ele>312</ele>
        <time>2020-06-27T11:12:27Z</time>
      </trkpt>
      <trkpt lat="49.05557" lon="7.34431">
        <ele>312.2</ele>
        <time>2020-06-27T11:12:28Z</time>
      </trkpt>
      <trkpt lat="49.05556" lon="7.34433">
        <ele>312.4</ele>
        <time>2020-06-27T11:12:29Z</time>
      </trkpt>
      <trkpt lat="49.05555" lon="7.34435">
        <ele>312.6</ele>
        <time>2020-06-27T11:12:30Z</time>
      </trkpt>
      <trkpt lat="49.05552" lon="7.34437">
        <ele>312.9</ele>
        <time>2020-06-27T11:12:31Z</time>
      </trkpt>
      <trkpt lat="49.05552" lon="7.34438">
        <ele>313</ele>
        <time>2020-06-27T11:12:32Z</time>
      </trkpt>
      <trkpt lat="49.05549" lon="7.34442">
        <ele>313.3</ele>
        <time>2020-06-27T11:12:33Z</time>
      </trkpt>
      <trkpt lat="49.05548" lon="7.34443">
        <ele>313.4</ele>
        <time>2020-06-27T11:12:34Z</time>
      </trkpt>
      <trkpt lat="49.05547" lon="7.34444">
        <ele>313.6</ele>
        <time>2020-06-27T11:12:35Z</time>
      </trkpt>
      <trkpt lat="49.05545" lon="7.34444">
        <ele>313.8</ele>
        <time>2020-06-27T11:12:36Z</time>
      </trkpt>
      <trkpt lat="49.05544" lon="7.34445">
        <ele>313.9</ele>
        <time>2020-06-27T11:12:37Z</time>
      </trkpt>
      <trkpt lat="49.05542" lon="7.34446">
        <ele>314.1</ele>
        <time>2020-06-27T11:12:38Z</time>
      </trkpt>
      <trkpt lat="49.05541" lon="7.34448">
        <ele>314.3</ele>
        <time>2020-06-27T11:12:39Z</time>
      </trkpt>
      <trkpt lat="49.05539" lon="7.34449">
        <ele>314.5</ele>
        <time>2020-06-27T11:12:40Z</time>
      </trkpt>
      <trkpt lat="49.05538" lon="7.34449">
        <ele>314.7</ele>
        <time>2020-06-27T11:12:41Z</time>
      </trkpt>
      <trkpt lat="49.05537" lon="7.3445">
        <ele>314.9</ele>
        <time>2020-06-27T11:12:42Z</time>
      </trkpt>
      <trkpt lat="49.05535" lon="7.3445">
        <ele>315.1</ele>
        <time>2020-06-27T11:12:43Z</time>
      </trkpt>
      <trkpt lat="49.05533" lon="7.34452">
        <ele>315.3</ele>
        <time>2020-06-27T11:12:44Z</time>
      </trkpt>
      <trkpt lat="49.05532" lon="7.34453">
        <ele>315.4</ele>
        <time>2020-06-27T11:12:45Z</time>
      </trkpt>
      <trkpt lat="49.0553" lon="7.34454">
        <ele>315.6</ele>
        <time>2020-06-27T11:12:46Z</time>
      </trkpt>
      <trkpt lat="49.05529" lon="7.34455">
        <ele>315.7</ele>
        <time>2020-06-27T11:12:47Z</time>
      </trkpt>
      <trkpt lat="49.05527" lon="7.34455">
        <ele>315.9</ele>
        <time>2020-06-27T11:12:48Z</time>
      </trkpt>
      <trkpt lat="49.05526" lon="7.34456">
        <ele>316</ele>
        <time>2020-06-27T11:12:49Z</time>
      </trkpt>
      <trkpt lat="49.05524" lon="7.34458">
        <ele>316.2</ele>
        <time>2020-06-27T11:12:50Z</time>
      </trkpt>
      <trkpt lat="49.05522" lon="7.34459">
        <ele>316.3</ele>
        <time>2020-06-27T11:12:51Z</time>
      </trkpt>
      <trkpt lat="49.05521" lon="7.34459">
        <ele>316.5</ele>
        <time>2020-06-27T11:12:52Z</time>
      </trkpt>
      <trkpt lat="49.05519" lon="7.34459">
        <ele>316.6</ele>
        <time>2020-06-27T11:12:53Z</time>
      </trkpt>
      <trkpt lat="49.05517" lon="7.34459">
        <ele>316.7</ele>
        <time>2020-06-27T11:12:54Z</time>
      </trkpt>
      <trkpt lat="49.05516" lon="7.34459">
        <ele>316.9</ele>
        <time>2020-06-27T11:12:55Z</time>
      </trkpt>
      <trkpt lat="49.05514" lon="7.34459">
        <ele>317</ele>
        <time>2020-06-27T11:12:56Z</time>
      </trkpt>
      <trkpt lat="49.05512" lon="7.3446">
        <ele>317.2</ele>
        <time>2020-06-27T11:12:57Z</time>
      </trkpt>
      <trkpt lat="49.05511" lon="7.3446">
        <ele>317.3</ele>
        <time>2020-06-27T11:12:58Z</time>
      </trkpt>
      <trkpt lat="49.05509" lon="7.3446">
        <ele>317.5</ele>
        <time>2020-06-27T11:12:59Z</time>
      </trkpt>
      <trkpt lat="49.05507" lon="7.34461">
        <ele>317.6</ele>
        <time>2020-06-27T11:13:00Z</time>
      </trkpt>
      <trkpt lat="49.05504" lon="7.34461">
        <ele>317.8</ele>
        <time>2020-06-27T11:13:01Z</time>
      </trkpt>
      <trkpt lat="49.05503" lon="7.34461">
        <ele>317.9</ele>
        <time>2020-06-27T11:13:02Z</time>
      </trkpt>
      <trkpt lat="49.05499" lon="7.34461">
        <ele>318.3</ele>
        <time>2020-06-27T11:13:03Z</time>
      </trkpt>
      <trkpt lat="49.05498" lon="7.34462">
        <ele>318.4</ele>
        <time>2020-06-27T11:13:04Z</time>
      </trkpt>
      <trkpt lat="49.05495" lon="7.34462">
        <ele>318.7</ele>
        <time>2020-06-27T11:13:05Z</time>
      </trkpt>
      <trkpt lat="49.05494" lon="7.34462">
        <ele>318.8</ele>
        <time>2020-06-27T11:13:06Z</time>
      </trkpt>
      <trkpt lat="49.0549" lon="7.34463">
        <ele>319.1</ele>
        <time>2020-06-27T11:13:07Z</time>
      </trkpt>
      <trkpt lat="49.05489" lon="7.34463">
        <ele>319.2</ele>
        <time>2020-06-27T11:13:08Z</time>
      </trkpt>
      <trkpt lat="49.05486" lon="7.34463">
        <ele>319.5</ele>
        <time>2020-06-27T11:13:09Z</time>
      </trkpt>
      <trkpt lat="49.05485" lon="7.34463">
        <ele>319.6</ele>
        <time>2020-06-27T11:13:10Z</time>
      </trkpt>
      <trkpt lat="49.05482" lon="7.34462">
        <ele>319.9</ele>
        <time>2020-06-27T11:13:11Z</time>
      </trkpt>
      <trkpt lat="49.05481" lon="7.34462">
        <ele>320</ele>
        <time>2020-06-27T11:13:12Z</time>
      </trkpt>
      <trkpt lat="49.05479" lon="7.34462">
        <ele>320.1</ele>
        <time>2020-06-27T11:13:13Z</time>
      </trkpt>
      <trkpt lat="49.05477" lon="7.34461">
        <ele>320.3</ele>
        <time>2020-06-27T11:13:14Z</time>
      </trkpt>
      <trkpt lat="49.05474" lon="7.3446">
        <ele>320.6</ele>
        <time>2020-06-27T11:13:15Z</time>
      </trkpt>
      <trkpt lat="49.05473" lon="7.3446">
        <ele>320.7</ele>
        <time>2020-06-27T11:13:16Z</time>
      </trkpt>
      <trkpt lat="49.05472" lon="7.34459">
        <ele>320.9</ele>
        <time>2020-06-27T11:13:17Z</time>
      </trkpt>
      <trkpt lat="49.0547" lon="7.34459">
        <ele>321.1</ele>
        <time>2020-06-27T11:13:18Z</time>
      </trkpt>
      <trkpt lat="49.05467" lon="7.34459">
        <ele>321.4</ele>
        <time>2020-06-27T11:13:19Z</time>
      </trkpt>
      <trkpt lat="49.05466" lon="7.34459">
        <ele>321.5</ele>
        <time>2020-06-27T11:13:20Z</time>
      </trkpt>
      <trkpt lat="49.05463" lon="7.34458">
        <ele>321.8</ele>
        <time>2020-06-27T11:13:21Z</time>
      </trkpt>
      <trkpt lat="49.05462" lon="7.34457">
        <ele>321.9</ele>
        <time>2020-06-27T11:13:22Z</time>
      </trkpt>
      <trkpt lat="49.05461" lon="7.34457">
        <ele>322.1</ele>
        <time>2020-06-27T11:13:23Z</time>
      </trkpt>
      <trkpt lat="49.05459" lon="7.34457">
        <ele>322.2</ele>
        <time>2020-06-27T11:13:24Z</time>
      </trkpt>
      <trkpt lat="49.05456" lon="7.34457">
        <ele>322.5</ele>
        <time>2020-06-27T11:13:25Z</time>
      </trkpt>
      <trkpt lat="49.05455" lon="7.34457">
        <ele>322.6</ele>
        <time>2020-06-27T11:13:26Z</time>
      </trkpt>
      <trkpt lat="49.05452" lon="7.34457">
        <ele>322.9</ele>
        <time>2020-06-27T11:13:27Z</time>
      </trkpt>
      <trkpt lat="49.05451" lon="7.34458">
        <ele>323</ele>
        <time>2020-06-27T11:13:28Z</time>
      </trkpt>
      <trkpt lat="49.05449" lon="7.34459">
        <ele>323.4</ele>
        <time>2020-06-27T11:13:29Z</time>
      </trkpt>
      <trkpt lat="49.05447" lon="7.3446">
        <ele>323.5</ele>
        <time>2020-06-27T11:13:30Z</time>
      </trkpt>
      <trkpt lat="49.05444" lon="7.34462">
        <ele>323.8</ele>
        <time>2020-06-27T11:13:31Z</time>
      </trkpt>
      <trkpt lat="49.05443" lon="7.34462">
        <ele>324</ele>
        <time>2020-06-27T11:13:32Z</time>
      </trkpt>
      <trkpt lat="49.0544" lon="7.34463">
        <ele>324.3</ele>
        <time>2020-06-27T11:13:33Z</time>
      </trkpt>
      <trkpt lat="49.05439" lon="7.34464">
        <ele>324.4</ele>
        <time>2020-06-27T11:13:34Z</time>
      </trkpt>
      <trkpt lat="49.05436" lon="7.34465">
        <ele>324.7</ele>
        <time>2020-06-27T11:13:35Z</time>
      </trkpt>
      <trkpt lat="49.05435" lon="7.34465">
        <ele>324.8</ele>
        <time>2020-06-27T11:13:36Z</time>
      </trkpt>
      <trkpt lat="49.05432" lon="7.34467">
        <ele>325.1</ele>
        <time>2020-06-27T11:13:37Z</time>
      </trkpt>
      <trkpt lat="49.05431" lon="7.34467">
        <ele>325.3</ele>
        <time>2020-06-27T11:13:38Z</time>
      </trkpt>
      <trkpt lat="49.05428" lon="7.34469">
        <ele>325.6</ele>
        <time>2020-06-27T11:13:39Z</time>
      </trkpt>
      <trkpt lat="49.05427" lon="7.3447">
        <ele>325.7</ele>
        <time>2020-06-27T11:13:40Z</time>
      </trkpt>
      <trkpt lat="49.05425" lon="7.34471">
        <ele>325.8</ele>
        <time>2020-06-27T11:13:41Z</time>
      </trkpt>
      <trkpt lat="49.05424" lon="7.34472">
        <ele>326</ele>
        <time>2020-06-27T11:13:42Z</time>
      </trkpt>
      <trkpt lat="49.05421" lon="7.34474">
        <ele>326.3</ele>
        <time>2020-06-27T11:13:43Z</time>
      </trkpt>
      <trkpt lat="49.0542" lon="7.34474">
        <ele>326.3</ele>
        <time>2020-06-27T11:13:44Z</time>
      </trkpt>
      <trkpt lat="49.05418" lon="7.34477">
        <ele>326.6</ele>
        <time>2020-06-27T11:13:45Z</time>
      </trkpt>
      <trkpt lat="49.05417" lon="7.34478">
        <ele>326.7</ele>
        <time>2020-06-27T11:13:46Z</time>
      </trkpt>
      <trkpt lat="49.05414" lon="7.34481">
        <ele>327</ele>
        <time>2020-06-27T11:13:47Z</time>
      </trkpt>
      <trkpt lat="49.05413" lon="7.34482">
        <ele>327.1</ele>
        <time>2020-06-27T11:13:48Z</time>
      </trkpt>
      <trkpt lat="49.05411" lon="7.34486">
        <ele>327.4</ele>
        <time>2020-06-27T11:13:49Z</time>
      </trkpt>
      <trkpt lat="49.0541" lon="7.34487">
        <ele>327.6</ele>
        <time>2020-06-27T11:13:50Z</time>
      </trkpt>
      <trkpt lat="49.05408" lon="7.34491">
        <ele>327.9</ele>
        <time>2020-06-27T11:13:51Z</time>
      </trkpt>
      <trkpt lat="49.05407" lon="7.34492">
        <ele>328</ele>
        <time>2020-06-27T11:13:52Z</time>
      </trkpt>
      <trkpt lat="49.05406" lon="7.34494">
        <ele>328.2</ele>
        <time>2020-06-27T11:13:53Z</time>
      </trkpt>
      <trkpt lat="49.05405" lon="7.34497">
        <ele>328.4</ele>
        <time>2020-06-27T11:13:54Z</time>
      </trkpt>
      <trkpt lat="49.05402" lon="7.345">
        <ele>328.6</ele>
        <time>2020-06-27T11:13:55Z</time>
      </trkpt>
      <trkpt lat="49.05402" lon="7.34501">
        <ele>328.7</ele>
        <time>2020-06-27T11:13:56Z</time>
      </trkpt>
      <trkpt lat="49.05399" lon="7.34504">
        <ele>329</ele>
        <time>2020-06-27T11:13:57Z</time>
      </trkpt>
      <trkpt lat="49.05398" lon="7.34505">
        <ele>329.1</ele>
        <time>2020-06-27T11:13:58Z</time>
      </trkpt>
      <trkpt lat="49.05397" lon="7.34507">
        <ele>329.2</ele>
        <time>2020-06-27T11:13:59Z</time>
      </trkpt>
      <trkpt lat="49.05396" lon="7.34509">
        <ele>329.3</ele>
        <time>2020-06-27T11:14:00Z</time>
      </trkpt>
      <trkpt lat="49.05394" lon="7.34512">
        <ele>329.6</ele>
        <time>2020-06-27T11:14:01Z</time>
      </trkpt>
      <trkpt lat="49.05392" lon="7.34515">
        <ele>329.8</ele>
        <time>2020-06-27T11:14:02Z</time>
      </trkpt>
      <trkpt lat="49.05391" lon="7.34515">
        <ele>329.8</ele>
        <time>2020-06-27T11:14:03Z</time>
      </trkpt>
      <trkpt lat="49.05389" lon="7.34517">
        <ele>330</ele>
        <time>2020-06-27T11:14:04Z</time>
      </trkpt>
      <trkpt lat="49.05388" lon="7.34518">
        <ele>330.1</ele>
        <time>2020-06-27T11:14:05Z</time>
      </trkpt>
      <trkpt lat="49.05387" lon="7.34519">
        <ele>330.2</ele>
        <time>2020-06-27T11:14:06Z</time>
      </trkpt>
      <trkpt lat="49.05384" lon="7.34522">
        <ele>330.4</ele>
        <time>2020-06-27T11:14:07Z</time>
      </trkpt>
      <trkpt lat="49.05383" lon="7.34523">
        <ele>330.5</ele>
        <time>2020-06-27T11:14:08Z</time>
      </trkpt>
      <trkpt lat="49.05382" lon="7.34525">
        <ele>330.6</ele>
        <time>2020-06-27T11:14:09Z</time>
      </trkpt>
      <trkpt lat="49.05382" lon="7.34526">
        <ele>330.7</ele>
        <time>2020-06-27T11:14:10Z</time>
      </trkpt>
      <trkpt lat="49.05382" lon="7.34528">
        <ele>330.8</ele>
        <time>2020-06-27T11:14:11Z</time>
      </trkpt>
      <trkpt lat="49.0538" lon="7.34529">
        <ele>330.9</ele>
        <time>2020-06-27T11:14:12Z</time>
      </trkpt>
      <trkpt lat="49.05379" lon="7.34529">
        <ele>331</ele>
        <time>2020-06-27T11:14:13Z</time>
      </trkpt>
      <trkpt lat="49.05377" lon="7.34532">
        <ele>331.2</ele>
        <time>2020-06-27T11:14:14Z</time>
      </trkpt>
      <trkpt lat="49.05377" lon="7.34533">
        <ele>331.2</ele>
        <time>2020-06-27T11:14:15Z</time>
      </trkpt>
      <trkpt lat="49.05376" lon="7.34534">
        <ele>331.3</ele>
        <time>2020-06-27T11:14:16Z</time>
      </trkpt>
      <trkpt lat="49.05374" lon="7.34538">
        <ele>331.6</ele>
        <time>2020-06-27T11:14:17Z</time>
      </trkpt>
      <trkpt lat="49.05373" lon="7.3454">
        <ele>331.7</ele>
        <time>2020-06-27T11:14:18Z</time>
      </trkpt>
      <trkpt lat="49.05371" lon="7.34544">
        <ele>331.9</ele>
        <time>2020-06-27T11:14:19Z</time>
      </trkpt>
      <trkpt lat="49.0537" lon="7.34545">
        <ele>332</ele>
        <time>2020-06-27T11:14:20Z</time>
      </trkpt>
      <trkpt lat="49.05368" lon="7.34548">
        <ele>332.3</ele>
        <time>2020-06-27T11:14:21Z</time>
      </trkpt>
      <trkpt lat="49.05367" lon="7.34549">
        <ele>332.3</ele>
        <time>2020-06-27T11:14:22Z</time>
      </trkpt>
      <trkpt lat="49.05365" lon="7.34553">
        <ele>332.6</ele>
        <time>2020-06-27T11:14:23Z</time>
      </trkpt>
      <trkpt lat="49.05364" lon="7.34554">
        <ele>332.7</ele>
        <time>2020-06-27T11:14:24Z</time>
      </trkpt>
      <trkpt lat="49.05362" lon="7.34558">
        <ele>332.9</ele>
        <time>2020-06-27T11:14:25Z</time>
      </trkpt>
      <trkpt lat="49.05362" lon="7.3456">
        <ele>333</ele>
        <time>2020-06-27T11:14:26Z</time>
      </trkpt>
      <trkpt lat="49.0536" lon="7.34564">
        <ele>333.3</ele>
        <time>2020-06-27T11:14:27Z</time>
      </trkpt>
      <trkpt lat="49.05359" lon="7.34565">
        <ele>333.3</ele>
        <time>2020-06-27T11:14:28Z</time>
      </trkpt>
      <trkpt lat="49.05357" lon="7.34569">
        <ele>333.6</ele>
        <time>2020-06-27T11:14:29Z</time>
      </trkpt>
      <trkpt lat="49.05356" lon="7.3457">
        <ele>333.7</ele>
        <time>2020-06-27T11:14:30Z</time>
      </trkpt>
      <trkpt lat="49.05354" lon="7.34573">
        <ele>334</ele>
        <time>2020-06-27T11:14:31Z</time>
      </trkpt>
      <trkpt lat="49.05353" lon="7.34574">
        <ele>334.1</ele>
        <time>2020-06-27T11:14:32Z</time>
      </trkpt>
      <trkpt lat="49.05351" lon="7.34577">
        <ele>334.3</ele>
        <time>2020-06-27T11:14:33Z</time>
      </trkpt>
      <trkpt lat="49.05349" lon="7.34581">
        <ele>334.6</ele>
        <time>2020-06-27T11:14:34Z</time>
      </trkpt>
      <trkpt lat="49.05348" lon="7.34582">
        <ele>334.7</ele>
        <time>2020-06-27T11:14:35Z</time>
      </trkpt>
      <trkpt lat="49.05347" lon="7.34586">
        <ele>335</ele>
        <time>2020-06-27T11:14:36Z</time>
      </trkpt>
      <trkpt lat="49.05346" lon="7.34587">
        <ele>335.1</ele>
        <time>2020-06-27T11:14:37Z</time>
      </trkpt>
      <trkpt lat="49.05345" lon="7.3459">
        <ele>335.3</ele>
        <time>2020-06-27T11:14:38Z</time>
      </trkpt>
      <trkpt lat="49.05344" lon="7.34592">
        <ele>335.4</ele>
        <time>2020-06-27T11:14:39Z</time>
      </trkpt>
      <trkpt lat="49.05343" lon="7.34593">
        <ele>335.6</ele>
        <time>2020-06-27T11:14:40Z</time>
      </trkpt>
      <trkpt lat="49.05342" lon="7.34595">
        <ele>335.7</ele>
        <time>2020-06-27T11:14:41Z</time>
      </trkpt>
      <trkpt lat="49.05341" lon="7.34597">
        <ele>335.9</ele>
        <time>2020-06-27T11:14:42Z</time>
      </trkpt>
      <trkpt lat="49.05339" lon="7.346">
        <ele>336.2</ele>
        <time>2020-06-27T11:14:43Z</time>
      </trkpt>
      <trkpt lat="49.05338" lon="7.34602">
        <ele>336.3</ele>
        <time>2020-06-27T11:14:44Z</time>
      </trkpt>
      <trkpt lat="49.05337" lon="7.34605">
        <ele>336.6</ele>
        <time>2020-06-27T11:14:45Z</time>
      </trkpt>
      <trkpt lat="49.05334" lon="7.3461">
        <ele>337</ele>
        <time>2020-06-27T11:14:46Z</time>
      </trkpt>
      <trkpt lat="49.05333" lon="7.34611">
        <ele>337.1</ele>
        <time>2020-06-27T11:14:47Z</time>
      </trkpt>
      <trkpt lat="49.05331" lon="7.34615">
        <ele>337.5</ele>
        <time>2020-06-27T11:14:48Z</time>
      </trkpt>
      <trkpt lat="49.0533" lon="7.34616">
        <ele>337.5</ele>
        <time>2020-06-27T11:14:49Z</time>
      </trkpt>
      <trkpt lat="49.05328" lon="7.3462">
        <ele>337.9</ele>
        <time>2020-06-27T11:14:50Z</time>
      </trkpt>
      <trkpt lat="49.05327" lon="7.34621">
        <ele>338</ele>
        <time>2020-06-27T11:14:51Z</time>
      </trkpt>
      <trkpt lat="49.05325" lon="7.34624">
        <ele>338.3</ele>
        <time>2020-06-27T11:14:52Z</time>
      </trkpt>
      <trkpt lat="49.05324" lon="7.34627">
        <ele>338.6</ele>
        <time>2020-06-27T11:14:53Z</time>
      </trkpt>
      <trkpt lat="49.05323" lon="7.34628">
        <ele>338.7</ele>
        <time>2020-06-27T11:14:54Z</time>
      </trkpt>
      <trkpt lat="49.05322" lon="7.3463">
        <ele>338.9</ele>
        <time>2020-06-27T11:14:55Z</time>
      </trkpt>
      <trkpt lat="49.05321" lon="7.34633">
        <ele>339.1</ele>
        <time>2020-06-27T11:14:56Z</time>
      </trkpt>
      <trkpt lat="49.0532" lon="7.34635">
        <ele>339.3</ele>
        <time>2020-06-27T11:14:57Z</time>
      </trkpt>
      <trkpt lat="49.05319" lon="7.34637">
        <ele>339.5</ele>
        <time>2020-06-27T11:14:58Z</time>
      </trkpt>
      <trkpt lat="49.05317" lon="7.3464">
        <ele>339.8</ele>
        <time>2020-06-27T11:14:59Z</time>
      </trkpt>
      <trkpt lat="49.05315" lon="7.34644">
        <ele>340.1</ele>
        <time>2020-06-27T11:15:00Z</time>
      </trkpt>
      <trkpt lat="49.05314" lon="7.34646">
        <ele>340.3</ele>
        <time>2020-06-27T11:15:01Z</time>
      </trkpt>
      <trkpt lat="49.05312" lon="7.3465">
        <ele>340.6</ele>
        <time>2020-06-27T11:15:02Z</time>
      </trkpt>
      <trkpt lat="49.05311" lon="7.34652">
        <ele>340.8</ele>
        <time>2020-06-27T11:15:03Z</time>
      </trkpt>
      <trkpt lat="49.05309" lon="7.34655">
        <ele>341.1</ele>
        <time>2020-06-27T11:15:04Z</time>
      </trkpt>
      <trkpt lat="49.05308" lon="7.34656">
        <ele>341.3</ele>
        <time>2020-06-27T11:15:05Z</time>
      </trkpt>
      <trkpt lat="49.05306" lon="7.3466">
        <ele>341.6</ele>
        <time>2020-06-27T11:15:06Z</time>
      </trkpt>
      <trkpt lat="49.05305" lon="7.34661">
        <ele>341.7</ele>
        <time>2020-06-27T11:15:07Z</time>
      </trkpt>
      <trkpt lat="49.05304" lon="7.34665">
        <ele>342.1</ele>
        <time>2020-06-27T11:15:08Z</time>
      </trkpt>
      <trkpt lat="49.05304" lon="7.34666">
        <ele>342.2</ele>
        <time>2020-06-27T11:15:09Z</time>
      </trkpt>
      <trkpt lat="49.05301" lon="7.34669">
        <ele>342.5</ele>
        <time>2020-06-27T11:15:10Z</time>
      </trkpt>
      <trkpt lat="49.05301" lon="7.3467">
        <ele>342.6</ele>
        <time>2020-06-27T11:15:11Z</time>
      </trkpt>
      <trkpt lat="49.05299" lon="7.34671">
        <ele>342.8</ele>
        <time>2020-06-27T11:15:12Z</time>
      </trkpt>
      <trkpt lat="49.05298" lon="7.34673">
        <ele>342.9</ele>
        <time>2020-06-27T11:15:13Z</time>
      </trkpt>
      <trkpt lat="49.05298" lon="7.34675">
        <ele>343.1</ele>
        <time>2020-06-27T11:15:14Z</time>
      </trkpt>
      <trkpt lat="49.05297" lon="7.34677">
        <ele>343.3</ele>
        <time>2020-06-27T11:15:15Z</time>
      </trkpt>
      <trkpt lat="49.05295" lon="7.34682">
        <ele>343.7</ele>
        <time>2020-06-27T11:15:16Z</time>
      </trkpt>
      <trkpt lat="49.05294" lon="7.34683">
        <ele>343.8</ele>
        <time>2020-06-27T11:15:17Z</time>
      </trkpt>
      <trkpt lat="49.05292" lon="7.34688">
        <ele>344.2</ele>
        <time>2020-06-27T11:15:18Z</time>
      </trkpt>
      <trkpt lat="49.05291" lon="7.34689">
        <ele>344.3</ele>
        <time>2020-06-27T11:15:19Z</time>
      </trkpt>
      <trkpt lat="49.05289" lon="7.34692">
        <ele>344.6</ele>
        <time>2020-06-27T11:15:20Z</time>
      </trkpt>
      <trkpt lat="49.05288" lon="7.34693">
        <ele>344.7</ele>
        <time>2020-06-27T11:15:21Z</time>
      </trkpt>
      <trkpt lat="49.05286" lon="7.34697">
        <ele>345</ele>
        <time>2020-06-27T11:15:22Z</time>
      </trkpt>
      <trkpt lat="49.05285" lon="7.34698">
        <ele>345.1</ele>
        <time>2020-06-27T11:15:23Z</time>
      </trkpt>
      <trkpt lat="49.05283" lon="7.34701">
        <ele>345.4</ele>
        <time>2020-06-27T11:15:24Z</time>
      </trkpt>
      <trkpt lat="49.05282" lon="7.34703">
        <ele>345.5</ele>
        <time>2020-06-27T11:15:25Z</time>
      </trkpt>
      <trkpt lat="49.0528" lon="7.34706">
        <ele>345.8</ele>
        <time>2020-06-27T11:15:26Z</time>
      </trkpt>
      <trkpt lat="49.0528" lon="7.34708">
        <ele>345.9</ele>
        <time>2020-06-27T11:15:27Z</time>
      </trkpt>
      <trkpt lat="49.05277" lon="7.34712">
        <ele>346.3</ele>
        <time>2020-06-27T11:15:28Z</time>
      </trkpt>
      <trkpt lat="49.05277" lon="7.34713">
        <ele>346.4</ele>
        <time>2020-06-27T11:15:29Z</time>
      </trkpt>
      <trkpt lat="49.05275" lon="7.34717">
        <ele>346.7</ele>
        <time>2020-06-27T11:15:30Z</time>
      </trkpt>
      <trkpt lat="49.05274" lon="7.34718">
        <ele>346.8</ele>
        <time>2020-06-27T11:15:31Z</time>
      </trkpt>
      <trkpt lat="49.05272" lon="7.34721">
        <ele>347.1</ele>
        <time>2020-06-27T11:15:32Z</time>
      </trkpt>
      <trkpt lat="49.05272" lon="7.34722">
        <ele>347.2</ele>
        <time>2020-06-27T11:15:33Z</time>
      </trkpt>
      <trkpt lat="49.05271" lon="7.34724">
        <ele>347.4</ele>
        <time>2020-06-27T11:15:34Z</time>
      </trkpt>
      <trkpt lat="49.05269" lon="7.34726">
        <ele>347.6</ele>
        <time>2020-06-27T11:15:35Z</time>
      </trkpt>
      <trkpt lat="49.05267" lon="7.34729">
        <ele>347.9</ele>
        <time>2020-06-27T11:15:36Z</time>
      </trkpt>
      <trkpt lat="49.05266" lon="7.34731">
        <ele>348</ele>
        <time>2020-06-27T11:15:37Z</time>
      </trkpt>
      <trkpt lat="49.05264" lon="7.34735">
        <ele>348.4</ele>
        <time>2020-06-27T11:15:38Z</time>
      </trkpt>
      <trkpt lat="49.05264" lon="7.34736">
        <ele>348.5</ele>
        <time>2020-06-27T11:15:39Z</time>
      </trkpt>
      <trkpt lat="49.05262" lon="7.34738">
        <ele>348.7</ele>
        <time>2020-06-27T11:15:40Z</time>
      </trkpt>
      <trkpt lat="49.05261" lon="7.3474">
        <ele>348.9</ele>
        <time>2020-06-27T11:15:41Z</time>
      </trkpt>
      <trkpt lat="49.05259" lon="7.34744">
        <ele>349.3</ele>
        <time>2020-06-27T11:15:42Z</time>
      </trkpt>
      <trkpt lat="49.05258" lon="7.34745">
        <ele>349.4</ele>
        <time>2020-06-27T11:15:43Z</time>
      </trkpt>
      <trkpt lat="49.05256" lon="7.34748">
        <ele>349.8</ele>
        <time>2020-06-27T11:15:44Z</time>
      </trkpt>
      <trkpt lat="49.05256" lon="7.34749">
        <ele>349.9</ele>
        <time>2020-06-27T11:15:45Z</time>
      </trkpt>
      <trkpt lat="49.05254" lon="7.34753">
        <ele>350.3</ele>
        <time>2020-06-27T11:15:46Z</time>
      </trkpt>
      <trkpt lat="49.05253" lon="7.34755">
        <ele>350.5</ele>
        <time>2020-06-27T11:15:47Z</time>
      </trkpt>
      <trkpt lat="49.05251" lon="7.34759">
        <ele>350.9</ele>
        <time>2020-06-27T11:15:48Z</time>
      </trkpt>
      <trkpt lat="49.0525" lon="7.3476">
        <ele>351</ele>
        <time>2020-06-27T11:15:49Z</time>
      </trkpt>
      <trkpt lat="49.05248" lon="7.34764">
        <ele>351.5</ele>
        <time>2020-06-27T11:15:50Z</time>
      </trkpt>
      <trkpt lat="49.05247" lon="7.34765">
        <ele>351.6</ele>
        <time>2020-06-27T11:15:51Z</time>
      </trkpt>
      <trkpt lat="49.05246" lon="7.34767">
        <ele>351.8</ele>
        <time>2020-06-27T11:15:52Z</time>
      </trkpt>
      <trkpt lat="49.05245" lon="7.34769">
        <ele>352</ele>
        <time>2020-06-27T11:15:53Z</time>
      </trkpt>
      <trkpt lat="49.05243" lon="7.34772">
        <ele>352.5</ele>
        <time>2020-06-27T11:15:54Z</time>
      </trkpt>
      <trkpt lat="49.05242" lon="7.34773">
        <ele>352.6</ele>
        <time>2020-06-27T11:15:55Z</time>
      </trkpt>
      <trkpt lat="49.0524" lon="7.34777">
        <ele>353.1</ele>
        <time>2020-06-27T11:15:56Z</time>
      </trkpt>
      <trkpt lat="49.05239" lon="7.34778">
        <ele>353.4</ele>
        <time>2020-06-27T11:15:57Z</time>
      </trkpt>
      <trkpt lat="49.05238" lon="7.34782">
        <ele>353.9</ele>
        <time>2020-06-27T11:15:58Z</time>
      </trkpt>
      <trkpt lat="49.05237" lon="7.34783">
        <ele>354.1</ele>
        <time>2020-06-27T11:15:59Z</time>
      </trkpt>
      <trkpt lat="49.05236" lon="7.34785">
        <ele>354.3</ele>
        <time>2020-06-27T11:16:00Z</time>
      </trkpt>
      <trkpt lat="49.05235" lon="7.34787">
        <ele>354.7</ele>
        <time>2020-06-27T11:16:01Z</time>
      </trkpt>
      <trkpt lat="49.05232" lon="7.3479">
        <ele>355.1</ele>
        <time>2020-06-27T11:16:02Z</time>
      </trkpt>
      <trkpt lat="49.05231" lon="7.3479">
        <ele>355.2</ele>
        <time>2020-06-27T11:16:03Z</time>
      </trkpt>
      <trkpt lat="49.05231" lon="7.34792">
        <ele>355.4</ele>
        <time>2020-06-27T11:16:04Z</time>
      </trkpt>
      <trkpt lat="49.0523" lon="7.34795">
        <ele>355.6</ele>
        <time>2020-06-27T11:16:05Z</time>
      </trkpt>
      <trkpt lat="49.05228" lon="7.34798">
        <ele>356</ele>
        <time>2020-06-27T11:16:06Z</time>
      </trkpt>
      <trkpt lat="49.05227" lon="7.34799">
        <ele>356.1</ele>
        <time>2020-06-27T11:16:07Z</time>
      </trkpt>
      <trkpt lat="49.05226" lon="7.34803">
        <ele>356.4</ele>
        <time>2020-06-27T11:16:08Z</time>
      </trkpt>
      <trkpt lat="49.05225" lon="7.34805">
        <ele>356.5</ele>
        <time>2020-06-27T11:16:09Z</time>
      </trkpt>
      <trkpt lat="49.05223" lon="7.34809">
        <ele>356.9</ele>
        <time>2020-06-27T11:16:10Z</time>
      </trkpt>
      <trkpt lat="49.05223" lon="7.3481">
        <ele>357</ele>
        <time>2020-06-27T11:16:11Z</time>
      </trkpt>
      <trkpt lat="49.05222" lon="7.34812">
        <ele>357.2</ele>
        <time>2020-06-27T11:16:12Z</time>
      </trkpt>
      <trkpt lat="49.0522" lon="7.34813">
        <ele>357.3</ele>
        <time>2020-06-27T11:16:13Z</time>
      </trkpt>
      <trkpt lat="49.05219" lon="7.34815">
        <ele>357.5</ele>
        <time>2020-06-27T11:16:14Z</time>
      </trkpt>
      <trkpt lat="49.05219" lon="7.34817">
        <ele>357.7</ele>
        <time>2020-06-27T11:16:15Z</time>
      </trkpt>
      <trkpt lat="49.05217" lon="7.34821">
        <ele>358</ele>
        <time>2020-06-27T11:16:16Z</time>
      </trkpt>
      <trkpt lat="49.05216" lon="7.34823">
        <ele>358.1</ele>
        <time>2020-06-27T11:16:17Z</time>
      </trkpt>
      <trkpt lat="49.05214" lon="7.34827">
        <ele>358.5</ele>
        <time>2020-06-27T11:16:18Z</time>
      </trkpt>
      <trkpt lat="49.05214" lon="7.34829">
        <ele>358.6</ele>
        <time>2020-06-27T11:16:19Z</time>
      </trkpt>
      <trkpt lat="49.05212" lon="7.34833">
        <ele>358.8</ele>
        <time>2020-06-27T11:16:20Z</time>
      </trkpt>
      <trkpt lat="49.05212" lon="7.34834">
        <ele>358.9</ele>
        <time>2020-06-27T11:16:21Z</time>
      </trkpt>
      <trkpt lat="49.0521" lon="7.34838">
        <ele>359.2</ele>
        <time>2020-06-27T11:16:22Z</time>
      </trkpt>
      <trkpt lat="49.05209" lon="7.34839">
        <ele>359.3</ele>
        <time>2020-06-27T11:16:23Z</time>
      </trkpt>
      <trkpt lat="49.05208" lon="7.34843">
        <ele>359.6</ele>
        <time>2020-06-27T11:16:24Z</time>
      </trkpt>
      <trkpt lat="49.05207" lon="7.34844">
        <ele>359.7</ele>
        <time>2020-06-27T11:16:25Z</time>
      </trkpt>
      <trkpt lat="49.05206" lon="7.34848">
        <ele>359.9</ele>
        <time>2020-06-27T11:16:26Z</time>
      </trkpt>
      <trkpt lat="49.05206" lon="7.3485">
        <ele>360</ele>
        <time>2020-06-27T11:16:27Z</time>
      </trkpt>
      <trkpt lat="49.05204" lon="7.34854">
        <ele>360.4</ele>
        <time>2020-06-27T11:16:28Z</time>
      </trkpt>
      <trkpt lat="49.05204" lon="7.34856">
        <ele>360.5</ele>
        <time>2020-06-27T11:16:29Z</time>
      </trkpt>
      <trkpt lat="49.05202" lon="7.3486">
        <ele>360.8</ele>
        <time>2020-06-27T11:16:30Z</time>
      </trkpt>
      <trkpt lat="49.05201" lon="7.34861">
        <ele>360.9</ele>
        <time>2020-06-27T11:16:31Z</time>
      </trkpt>
      <trkpt lat="49.052" lon="7.34866">
        <ele>361.2</ele>
        <time>2020-06-27T11:16:32Z</time>
      </trkpt>
      <trkpt lat="49.05199" lon="7.34867">
        <ele>361.3</ele>
        <time>2020-06-27T11:16:33Z</time>
      </trkpt>
      <trkpt lat="49.05198" lon="7.34869">
        <ele>361.5</ele>
        <time>2020-06-27T11:16:34Z</time>
      </trkpt>
      <trkpt lat="49.05197" lon="7.34872">
        <ele>361.6</ele>
        <time>2020-06-27T11:16:35Z</time>
      </trkpt>
      <trkpt lat="49.05197" lon="7.34874">
        <ele>361.8</ele>
        <time>2020-06-27T11:16:36Z</time>
      </trkpt>
      <trkpt lat="49.05196" lon="7.34877">
        <ele>362</ele>
        <time>2020-06-27T11:16:37Z</time>
      </trkpt>
      <trkpt lat="49.05196" lon="7.34879">
        <ele>362.1</ele>
        <time>2020-06-27T11:16:38Z</time>
      </trkpt>
      <trkpt lat="49.05195" lon="7.34882">
        <ele>362.3</ele>
        <time>2020-06-27T11:16:39Z</time>
      </trkpt>
      <trkpt lat="49.05194" lon="7.34886">
        <ele>362.6</ele>
        <time>2020-06-27T11:16:40Z</time>
      </trkpt>
      <trkpt lat="49.05194" lon="7.34888">
        <ele>362.7</ele>
        <time>2020-06-27T11:16:41Z</time>
      </trkpt>
      <trkpt lat="49.05194" lon="7.3489">
        <ele>362.8</ele>
        <time>2020-06-27T11:16:42Z</time>
      </trkpt>
      <trkpt lat="49.05193" lon="7.34892">
        <ele>363</ele>
        <time>2020-06-27T11:16:43Z</time>
      </trkpt>
      <trkpt lat="49.05192" lon="7.34897">
        <ele>363.2</ele>
        <time>2020-06-27T11:16:44Z</time>
      </trkpt>
      <trkpt lat="49.05192" lon="7.34898">
        <ele>363.3</ele>
        <time>2020-06-27T11:16:45Z</time>
      </trkpt>
      <trkpt lat="49.05192" lon="7.34903">
        <ele>363.5</ele>
        <time>2020-06-27T11:16:46Z</time>
      </trkpt>
      <trkpt lat="49.05192" lon="7.34904">
        <ele>363.6</ele>
        <time>2020-06-27T11:16:47Z</time>
      </trkpt>
      <trkpt lat="49.05191" lon="7.3491">
        <ele>363.9</ele>
        <time>2020-06-27T11:16:48Z</time>
      </trkpt>
      <trkpt lat="49.05191" lon="7.34911">
        <ele>364</ele>
        <time>2020-06-27T11:16:49Z</time>
      </trkpt>
      <trkpt lat="49.05191" lon="7.34917">
        <ele>364.3</ele>
        <time>2020-06-27T11:16:50Z</time>
      </trkpt>
      <trkpt lat="49.05191" lon="7.34919">
        <ele>364.4</ele>
        <time>2020-06-27T11:16:51Z</time>
      </trkpt>
      <trkpt lat="49.0519" lon="7.34924">
        <ele>364.7</ele>
        <time>2020-06-27T11:16:52Z</time>
      </trkpt>
      <trkpt lat="49.0519" lon="7.34926">
        <ele>364.8</ele>
        <time>2020-06-27T11:16:53Z</time>
      </trkpt>
      <trkpt lat="49.05189" lon="7.34932">
        <ele>365.1</ele>
        <time>2020-06-27T11:16:54Z</time>
      </trkpt>
      <trkpt lat="49.05189" lon="7.34934">
        <ele>365.2</ele>
        <time>2020-06-27T11:16:55Z</time>
      </trkpt>
      <trkpt lat="49.05188" lon="7.34938">
        <ele>365.5</ele>
        <time>2020-06-27T11:16:56Z</time>
      </trkpt>
      <trkpt lat="49.05188" lon="7.34942">
        <ele>365.7</ele>
        <time>2020-06-27T11:16:57Z</time>
      </trkpt>
      <trkpt lat="49.05188" lon="7.34946">
        <ele>365.9</ele>
        <time>2020-06-27T11:16:58Z</time>
      </trkpt>
      <trkpt lat="49.05187" lon="7.34951">
        <ele>366.2</ele>
        <time>2020-06-27T11:16:59Z</time>
      </trkpt>
      <trkpt lat="49.05186" lon="7.34955">
        <ele>366.4</ele>
        <time>2020-06-27T11:17:00Z</time>
      </trkpt>
      <trkpt lat="49.05186" lon="7.34959">
        <ele>366.6</ele>
        <time>2020-06-27T11:17:01Z</time>
      </trkpt>
      <trkpt lat="49.05185" lon="7.34964">
        <ele>366.9</ele>
        <time>2020-06-27T11:17:02Z</time>
      </trkpt>
      <trkpt lat="49.05185" lon="7.34969">
        <ele>367.1</ele>
        <time>2020-06-27T11:17:03Z</time>
      </trkpt>
      <trkpt lat="49.05184" lon="7.34971">
        <ele>367.2</ele>
        <time>2020-06-27T11:17:04Z</time>
      </trkpt>
      <trkpt lat="49.05184" lon="7.34977">
        <ele>367.5</ele>
        <time>2020-06-27T11:17:05Z</time>
      </trkpt>
      <trkpt lat="49.05184" lon="7.34979">
        <ele>367.6</ele>
        <time>2020-06-27T11:17:06Z</time>
      </trkpt>
      <trkpt lat="49.05183" lon="7.34983">
        <ele>367.8</ele>
        <time>2020-06-27T11:17:07Z</time>
      </trkpt>
      <trkpt lat="49.05183" lon="7.34985">
        <ele>367.8</ele>
        <time>2020-06-27T11:17:08Z</time>
      </trkpt>
      <trkpt lat="49.05182" lon="7.34991">
        <ele>368.1</ele>
        <time>2020-06-27T11:17:09Z</time>
      </trkpt>
      <trkpt lat="49.05181" lon="7.34993">
        <ele>368.2</ele>
        <time>2020-06-27T11:17:10Z</time>
      </trkpt>
      <trkpt lat="49.0518" lon="7.34999">
        <ele>368.4</ele>
        <time>2020-06-27T11:17:11Z</time>
      </trkpt>
      <trkpt lat="49.0518" lon="7.35002">
        <ele>368.6</ele>
        <time>2020-06-27T11:17:12Z</time>
      </trkpt>
      <trkpt lat="49.05179" lon="7.35008">
        <ele>368.8</ele>
        <time>2020-06-27T11:17:13Z</time>
      </trkpt>
      <trkpt lat="49.05179" lon="7.3501">
        <ele>368.9</ele>
        <time>2020-06-27T11:17:14Z</time>
      </trkpt>
      <trkpt lat="49.05179" lon="7.35015">
        <ele>369.1</ele>
        <time>2020-06-27T11:17:15Z</time>
      </trkpt>
      <trkpt lat="49.05178" lon="7.3502">
        <ele>369.3</ele>
        <time>2020-06-27T11:17:16Z</time>
      </trkpt>
      <trkpt lat="49.05178" lon="7.35025">
        <ele>369.5</ele>
        <time>2020-06-27T11:17:17Z</time>
      </trkpt>
      <trkpt lat="49.05177" lon="7.35027">
        <ele>369.6</ele>
        <time>2020-06-27T11:17:18Z</time>
      </trkpt>
      <trkpt lat="49.05177" lon="7.35031">
        <ele>369.7</ele>
        <time>2020-06-27T11:17:19Z</time>
      </trkpt>
      <trkpt lat="49.05177" lon="7.35037">
        <ele>370</ele>
        <time>2020-06-27T11:17:20Z</time>
      </trkpt>
      <trkpt lat="49.05177" lon="7.35039">
        <ele>370</ele>
        <time>2020-06-27T11:17:21Z</time>
      </trkpt>
      <trkpt lat="49.05178" lon="7.35045">
        <ele>370.2</ele>
        <time>2020-06-27T11:17:22Z</time>
      </trkpt>
      <trkpt lat="49.05178" lon="7.35047">
        <ele>370.3</ele>
        <time>2020-06-27T11:17:23Z</time>
      </trkpt>
      <trkpt lat="49.05177" lon="7.35052">
        <ele>370.5</ele>
        <time>2020-06-27T11:17:24Z</time>
      </trkpt>
      <trkpt lat="49.05178" lon="7.35055">
        <ele>370.6</ele>
        <time>2020-06-27T11:17:25Z</time>
      </trkpt>
      <trkpt lat="49.05176" lon="7.3506">
        <ele>370.8</ele>
        <time>2020-06-27T11:17:26Z</time>
      </trkpt>
      <trkpt lat="49.05176" lon="7.35064">
        <ele>371</ele>
        <time>2020-06-27T11:17:27Z</time>
      </trkpt>
      <trkpt lat="49.05176" lon="7.35069">
        <ele>371.2</ele>
        <time>2020-06-27T11:17:28Z</time>
      </trkpt>
      <trkpt lat="49.05176" lon="7.35071">
        <ele>371.3</ele>
        <time>2020-06-27T11:17:29Z</time>
      </trkpt>
      <trkpt lat="49.05176" lon="7.35077">
        <ele>371.5</ele>
        <time>2020-06-27T11:17:30Z</time>
      </trkpt>
      <trkpt lat="49.05176" lon="7.35079">
        <ele>371.6</ele>
        <time>2020-06-27T11:17:31Z</time>
      </trkpt>
      <trkpt lat="49.05177" lon="7.35083">
        <ele>371.8</ele>
        <time>2020-06-27T11:17:32Z</time>
      </trkpt>
      <trkpt lat="49.05177" lon="7.35087">
        <ele>371.9</ele>
        <time>2020-06-27T11:17:33Z</time>
      </trkpt>
      <trkpt lat="49.05178" lon="7.35092">
        <ele>372.1</ele>
        <time>2020-06-27T11:17:34Z</time>
      </trkpt>
      <trkpt lat="49.05178" lon="7.35097">
        <ele>372.2</ele>
        <time>2020-06-27T11:17:35Z</time>
      </trkpt>
      <trkpt lat="49.05178" lon="7.351">
        <ele>372.3</ele>
        <time>2020-06-27T11:17:36Z</time>
      </trkpt>
      <trkpt lat="49.05179" lon="7.35106">
        <ele>372.5</ele>
        <time>2020-06-27T11:17:37Z</time>
      </trkpt>
      <trkpt lat="49.05179" lon="7.35108">
        <ele>372.5</ele>
        <time>2020-06-27T11:17:38Z</time>
      </trkpt>
      <trkpt lat="49.0518" lon="7.35115">
        <ele>372.7</ele>
        <time>2020-06-27T11:17:39Z</time>
      </trkpt>
      <trkpt lat="49.0518" lon="7.35118">
        <ele>372.8</ele>
        <time>2020-06-27T11:17:40Z</time>
      </trkpt>
      <trkpt lat="49.0518" lon="7.35123">
        <ele>372.9</ele>
        <time>2020-06-27T11:17:41Z</time>
      </trkpt>
      <trkpt lat="49.0518" lon="7.35129">
        <ele>373</ele>
        <time>2020-06-27T11:17:42Z</time>
      </trkpt>
      <trkpt lat="49.0518" lon="7.35131">
        <ele>373.1</ele>
        <time>2020-06-27T11:17:43Z</time>
      </trkpt>
      <trkpt lat="49.0518" lon="7.35135">
        <ele>373.2</ele>
        <time>2020-06-27T11:17:44Z</time>
      </trkpt>
      <trkpt lat="49.05181" lon="7.35139">
        <ele>373.3</ele>
        <time>2020-06-27T11:17:45Z</time>
      </trkpt>
      <trkpt lat="49.05182" lon="7.35145">
        <ele>373.4</ele>
        <time>2020-06-27T11:17:46Z</time>
      </trkpt>
      <trkpt lat="49.05182" lon="7.35147">
        <ele>373.5</ele>
        <time>2020-06-27T11:17:47Z</time>
      </trkpt>
      <trkpt lat="49.05182" lon="7.35154">
        <ele>373.6</ele>
        <time>2020-06-27T11:17:48Z</time>
      </trkpt>
      <trkpt lat="49.05182" lon="7.35158">
        <ele>373.7</ele>
        <time>2020-06-27T11:17:49Z</time>
      </trkpt>
      <trkpt lat="49.05183" lon="7.35162">
        <ele>373.8</ele>
        <time>2020-06-27T11:17:50Z</time>
      </trkpt>
      <trkpt lat="49.05184" lon="7.35166">
        <ele>373.9</ele>
        <time>2020-06-27T11:17:51Z</time>
      </trkpt>
      <trkpt lat="49.05184" lon="7.3517">
        <ele>374</ele>
        <time>2020-06-27T11:17:52Z</time>
      </trkpt>
      <trkpt lat="49.05185" lon="7.35175">
        <ele>374.1</ele>
        <time>2020-06-27T11:17:53Z</time>
      </trkpt>
      <trkpt lat="49.05186" lon="7.35181">
        <ele>374.2</ele>
        <time>2020-06-27T11:17:54Z</time>
      </trkpt>
      <trkpt lat="49.05186" lon="7.35184">
        <ele>374.3</ele>
        <time>2020-06-27T11:17:55Z</time>
      </trkpt>
      <trkpt lat="49.05186" lon="7.35188">
        <ele>374.4</ele>
        <time>2020-06-27T11:17:56Z</time>
      </trkpt>
      <trkpt lat="49.05186" lon="7.35194">
        <ele>374.5</ele>
        <time>2020-06-27T11:17:57Z</time>
      </trkpt>
      <trkpt lat="49.05187" lon="7.35195">
        <ele>374.5</ele>
        <time>2020-06-27T11:17:58Z</time>
      </trkpt>
      <trkpt lat="49.05187" lon="7.35201">
        <ele>374.6</ele>
        <time>2020-06-27T11:17:59Z</time>
      </trkpt>
      <trkpt lat="49.05188" lon="7.35208">
        <ele>374.7</ele>
        <time>2020-06-27T11:18:00Z</time>
      </trkpt>
      <trkpt lat="49.05188" lon="7.35211">
        <ele>374.8</ele>
        <time>2020-06-27T11:18:01Z</time>
      </trkpt>
      <trkpt lat="49.05188" lon="7.35215">
        <ele>374.9</ele>
        <time>2020-06-27T11:18:02Z</time>
      </trkpt>
      <trkpt lat="49.05189" lon="7.35222">
        <ele>375</ele>
        <time>2020-06-27T11:18:03Z</time>
      </trkpt>
      <trkpt lat="49.0519" lon="7.35225">
        <ele>375.1</ele>
        <time>2020-06-27T11:18:04Z</time>
      </trkpt>
      <trkpt lat="49.0519" lon="7.35229">
        <ele>375.1</ele>
        <time>2020-06-27T11:18:05Z</time>
      </trkpt>
      <trkpt lat="49.05191" lon="7.35234">
        <ele>375.2</ele>
        <time>2020-06-27T11:18:06Z</time>
      </trkpt>
      <trkpt lat="49.05192" lon="7.35238">
        <ele>375.3</ele>
        <time>2020-06-27T11:18:07Z</time>
      </trkpt>
      <trkpt lat="49.05193" lon="7.35244">
        <ele>375.4</ele>
        <time>2020-06-27T11:18:08Z</time>
      </trkpt>
      <trkpt lat="49.05193" lon="7.35249">
        <ele>375.4</ele>
        <time>2020-06-27T11:18:09Z</time>
      </trkpt>
      <trkpt lat="49.05193" lon="7.35254">
        <ele>375.5</ele>
        <time>2020-06-27T11:18:10Z</time>
      </trkpt>
      <trkpt lat="49.05192" lon="7.35261">
        <ele>375.6</ele>
        <time>2020-06-27T11:18:11Z</time>
      </trkpt>
      <trkpt lat="49.05192" lon="7.35263">
        <ele>375.7</ele>
        <time>2020-06-27T11:18:12Z</time>
      </trkpt>
      <trkpt lat="49.05193" lon="7.35268">
        <ele>375.8</ele>
        <time>2020-06-27T11:18:13Z</time>
      </trkpt>
      <trkpt lat="49.05194" lon="7.35272">
        <ele>375.8</ele>
        <time>2020-06-27T11:18:14Z</time>
      </trkpt>
      <trkpt lat="49.05194" lon="7.35278">
        <ele>375.9</ele>
        <time>2020-06-27T11:18:15Z</time>
      </trkpt>
      <trkpt lat="49.05195" lon="7.35281">
        <ele>375.9</ele>
        <time>2020-06-27T11:18:16Z</time>
      </trkpt>
      <trkpt lat="49.05195" lon="7.35287">
        <ele>376</ele>
        <time>2020-06-27T11:18:17Z</time>
      </trkpt>
      <trkpt lat="49.05196" lon="7.35293">
        <ele>376.1</ele>
        <time>2020-06-27T11:18:18Z</time>
      </trkpt>
      <trkpt lat="49.05197" lon="7.35298">
        <ele>376.2</ele>
        <time>2020-06-27T11:18:19Z</time>
      </trkpt>
      <trkpt lat="49.05198" lon="7.35303">
        <ele>376.3</ele>
        <time>2020-06-27T11:18:20Z</time>
      </trkpt>
      <trkpt lat="49.05198" lon="7.35308">
        <ele>376.3</ele>
        <time>2020-06-27T11:18:21Z</time>
      </trkpt>
      <trkpt lat="49.05199" lon="7.35313">
        <ele>376.4</ele>
        <time>2020-06-27T11:18:22Z</time>
      </trkpt>
      <trkpt lat="49.05199" lon="7.35318">
        <ele>376.4</ele>
        <time>2020-06-27T11:18:23Z</time>
      </trkpt>
      <trkpt lat="49.05199" lon="7.35323">
        <ele>376.5</ele>
        <time>2020-06-27T11:18:24Z</time>
      </trkpt>
      <trkpt lat="49.05199" lon="7.35329">
        <ele>376.5</ele>
        <time>2020-06-27T11:18:25Z</time>
      </trkpt>
      <trkpt lat="49.05199" lon="7.35334">
        <ele>376.6</ele>
        <time>2020-06-27T11:18:26Z</time>
      </trkpt>
      <trkpt lat="49.05201" lon="7.35342">
        <ele>376.6</ele>
        <time>2020-06-27T11:18:27Z</time>
      </trkpt>
      <trkpt lat="49.05201" lon="7.35346">
        <ele>376.7</ele>
        <time>2020-06-27T11:18:28Z</time>
      </trkpt>
      <trkpt lat="49.05201" lon="7.35355">
        <ele>376.7</ele>
        <time>2020-06-27T11:18:29Z</time>
      </trkpt>
      <trkpt lat="49.05202" lon="7.35361">
        <ele>376.8</ele>
        <time>2020-06-27T11:18:30Z</time>
      </trkpt>
      <trkpt lat="49.05203" lon="7.35369">
        <ele>376.8</ele>
        <time>2020-06-27T11:18:31Z</time>
      </trkpt>
      <trkpt lat="49.05203" lon="7.35374">
        <ele>376.8</ele>
        <time>2020-06-27T11:18:32Z</time>
      </trkpt>
      <trkpt lat="49.05204" lon="7.35379">
        <ele>376.8</ele>
        <time>2020-06-27T11:18:33Z</time>
      </trkpt>
      <trkpt lat="49.05204" lon="7.35383">
        <ele>376.8</ele>
        <time>2020-06-27T11:18:34Z</time>
      </trkpt>
      <trkpt lat="49.05205" lon="7.35388">
        <ele>376.8</ele>
        <time>2020-06-27T11:18:35Z</time>
      </trkpt>
      <trkpt lat="49.05205" lon="7.35393">
        <ele>376.8</ele>
        <time>2020-06-27T11:18:36Z</time>
      </trkpt>
      <trkpt lat="49.05207" lon="7.35398">
        <ele>376.8</ele>
        <time>2020-06-27T11:18:37Z</time>
      </trkpt>
      <trkpt lat="49.05206" lon="7.35405">
        <ele>376.8</ele>
        <time>2020-06-27T11:18:38Z</time>
      </trkpt>
      <trkpt lat="49.05207" lon="7.35411">
        <ele>376.8</ele>
        <time>2020-06-27T11:18:39Z</time>
      </trkpt>
      <trkpt lat="49.05206" lon="7.35418">
        <ele>376.8</ele>
        <time>2020-06-27T11:18:40Z</time>
      </trkpt>
      <trkpt lat="49.05206" lon="7.35423">
        <ele>376.8</ele>
        <time>2020-06-27T11:18:41Z</time>
      </trkpt>
      <trkpt lat="49.05207" lon="7.35429">
        <ele>376.8</ele>
        <time>2020-06-27T11:18:42Z</time>
      </trkpt>
      <trkpt lat="49.05208" lon="7.35435">
        <ele>376.8</ele>
        <time>2020-06-27T11:18:43Z</time>
      </trkpt>
      <trkpt lat="49.05208" lon="7.35442">
        <ele>376.8</ele>
        <time>2020-06-27T11:18:44Z</time>
      </trkpt>
      <trkpt lat="49.05209" lon="7.35449">
        <ele>376.8</ele>
        <time>2020-06-27T11:18:45Z</time>
      </trkpt>
      <trkpt lat="49.05209" lon="7.35455">
        <ele>376.9</ele>
        <time>2020-06-27T11:18:46Z</time>
      </trkpt>
      <trkpt lat="49.0521" lon="7.35462">
        <ele>376.9</ele>
        <time>2020-06-27T11:18:47Z</time>
      </trkpt>
      <trkpt lat="49.05212" lon="7.35469">
        <ele>376.9</ele>
        <time>2020-06-27T11:18:48Z</time>
      </trkpt>
      <trkpt lat="49.05214" lon="7.35477">
        <ele>377</ele>
        <time>2020-06-27T11:18:49Z</time>
      </trkpt>
      <trkpt lat="49.05214" lon="7.35484">
        <ele>377</ele>
        <time>2020-06-27T11:18:50Z</time>
      </trkpt>
      <trkpt lat="49.05214" lon="7.3549">
        <ele>377.1</ele>
        <time>2020-06-27T11:18:51Z</time>
      </trkpt>
      <trkpt lat="49.05215" lon="7.35498">
        <ele>377.1</ele>
        <time>2020-06-27T11:18:52Z</time>
      </trkpt>
      <trkpt lat="49.05216" lon="7.35503">
        <ele>377.1</ele>
        <time>2020-06-27T11:18:53Z</time>
      </trkpt>
      <trkpt lat="49.05217" lon="7.3551">
        <ele>377.1</ele>
        <time>2020-06-27T11:18:54Z</time>
      </trkpt>
      <trkpt lat="49.05217" lon="7.35516">
        <ele>377.1</ele>
        <time>2020-06-27T11:18:55Z</time>
      </trkpt>
      <trkpt lat="49.05219" lon="7.35523">
        <ele>377.1</ele>
        <time>2020-06-27T11:18:56Z</time>
      </trkpt>
      <trkpt lat="49.0522" lon="7.35529">
        <ele>377</ele>
        <time>2020-06-27T11:18:57Z</time>
      </trkpt>
      <trkpt lat="49.05221" lon="7.35535">
        <ele>377</ele>
        <time>2020-06-27T11:18:58Z</time>
      </trkpt>
      <trkpt lat="49.05222" lon="7.35541">
        <ele>377</ele>
        <time>2020-06-27T11:18:59Z</time>
      </trkpt>
      <trkpt lat="49.05222" lon="7.35546">
        <ele>377</ele>
        <time>2020-06-27T11:19:00Z</time>
      </trkpt>
      <trkpt lat="49.05222" lon="7.35552">
        <ele>377</ele>
        <time>2020-06-27T11:19:01Z</time>
      </trkpt>
      <trkpt lat="49.05223" lon="7.35559">
        <ele>377</ele>
        <time>2020-06-27T11:19:02Z</time>
      </trkpt>
      <trkpt lat="49.05224" lon="7.35564">
        <ele>377</ele>
        <time>2020-06-27T11:19:03Z</time>
      </trkpt>
      <trkpt lat="49.05226" lon="7.35571">
        <ele>377</ele>
        <time>2020-06-27T11:19:04Z</time>
      </trkpt>
      <trkpt lat="49.05225" lon="7.35575">
        <ele>377</ele>
        <time>2020-06-27T11:19:05Z</time>
      </trkpt>
      <trkpt lat="49.05226" lon="7.35582">
        <ele>377</ele>
        <time>2020-06-27T11:19:06Z</time>
      </trkpt>
      <trkpt lat="49.05226" lon="7.35586">
        <ele>376.9</ele>
        <time>2020-06-27T11:19:07Z</time>
      </trkpt>
      <trkpt lat="49.05226" lon="7.35591">
        <ele>376.9</ele>
        <time>2020-06-27T11:19:08Z</time>
      </trkpt>
      <trkpt lat="49.05226" lon="7.35596">
        <ele>376.8</ele>
        <time>2020-06-27T11:19:09Z</time>
      </trkpt>
      <trkpt lat="49.05226" lon="7.35598">
        <ele>376.8</ele>
        <time>2020-06-27T11:19:10Z</time>
      </trkpt>
      <trkpt lat="49.05227" lon="7.35606">
        <ele>376.7</ele>
        <time>2020-06-27T11:19:11Z</time>
      </trkpt>
      <trkpt lat="49.05228" lon="7.3561">
        <ele>376.7</ele>
        <time>2020-06-27T11:19:12Z</time>
      </trkpt>
      <trkpt lat="49.05228" lon="7.35615">
        <ele>376.6</ele>
        <time>2020-06-27T11:19:13Z</time>
      </trkpt>
      <trkpt lat="49.05229" lon="7.35622">
        <ele>376.5</ele>
        <time>2020-06-27T11:19:14Z</time>
      </trkpt>
      <trkpt lat="49.05229" lon="7.35627">
        <ele>376.5</ele>
        <time>2020-06-27T11:19:15Z</time>
      </trkpt>
      <trkpt lat="49.0523" lon="7.35633">
        <ele>376.4</ele>
        <time>2020-06-27T11:19:16Z</time>
      </trkpt>
      <trkpt lat="49.0523" lon="7.35639">
        <ele>376.3</ele>
        <time>2020-06-27T11:19:17Z</time>
      </trkpt>
      <trkpt lat="49.0523" lon="7.35645">
        <ele>376.3</ele>
        <time>2020-06-27T11:19:18Z</time>
      </trkpt>
      <trkpt lat="49.05231" lon="7.35651">
        <ele>376.2</ele>
        <time>2020-06-27T11:19:19Z</time>
      </trkpt>
      <trkpt lat="49.05232" lon="7.35655">
        <ele>376.2</ele>
        <time>2020-06-27T11:19:20Z</time>
      </trkpt>
      <trkpt lat="49.05233" lon="7.3566">
        <ele>376.1</ele>
        <time>2020-06-27T11:19:21Z</time>
      </trkpt>
      <trkpt lat="49.05233" lon="7.35662">
        <ele>376.1</ele>
        <time>2020-06-27T11:19:22Z</time>
      </trkpt>
      <trkpt lat="49.05235" lon="7.35669">
        <ele>376</ele>
        <time>2020-06-27T11:19:23Z</time>
      </trkpt>
      <trkpt lat="49.05235" lon="7.35674">
        <ele>376</ele>
        <time>2020-06-27T11:19:24Z</time>
      </trkpt>
      <trkpt lat="49.05237" lon="7.35681">
        <ele>375.9</ele>
        <time>2020-06-27T11:19:25Z</time>
      </trkpt>
      <trkpt lat="49.05237" lon="7.35686">
        <ele>375.9</ele>
        <time>2020-06-27T11:19:26Z</time>
      </trkpt>
      <trkpt lat="49.05238" lon="7.35693">
        <ele>375.8</ele>
        <time>2020-06-27T11:19:27Z</time>
      </trkpt>
      <trkpt lat="49.05239" lon="7.35698">
        <ele>375.8</ele>
        <time>2020-06-27T11:19:28Z</time>
      </trkpt>
      <trkpt lat="49.0524" lon="7.35704">
        <ele>375.7</ele>
        <time>2020-06-27T11:19:29Z</time>
      </trkpt>
      <trkpt lat="49.0524" lon="7.35711">
        <ele>375.6</ele>
        <time>2020-06-27T11:19:30Z</time>
      </trkpt>
      <trkpt lat="49.0524" lon="7.35718">
        <ele>375.5</ele>
        <time>2020-06-27T11:19:31Z</time>
      </trkpt>
      <trkpt lat="49.05241" lon="7.35725">
        <ele>375.4</ele>
        <time>2020-06-27T11:19:32Z</time>
      </trkpt>
      <trkpt lat="49.05242" lon="7.35732">
        <ele>375.3</ele>
        <time>2020-06-27T11:19:33Z</time>
      </trkpt>
      <trkpt lat="49.05242" lon="7.3574">
        <ele>375.2</ele>
        <time>2020-06-27T11:19:34Z</time>
      </trkpt>
      <trkpt lat="49.05243" lon="7.35748">
        <ele>375</ele>
        <time>2020-06-27T11:19:35Z</time>
      </trkpt>
      <trkpt lat="49.05244" lon="7.35756">
        <ele>374.9</ele>
        <time>2020-06-27T11:19:36Z</time>
      </trkpt>
      <trkpt lat="49.05244" lon="7.35762">
        <ele>374.8</ele>
        <time>2020-06-27T11:19:37Z</time>
      </trkpt>
      <trkpt lat="49.05244" lon="7.3577">
        <ele>374.7</ele>
        <time>2020-06-27T11:19:38Z</time>
      </trkpt>
      <trkpt lat="49.05245" lon="7.3578">
        <ele>374.5</ele>
        <time>2020-06-27T11:19:39Z</time>
      </trkpt>
      <trkpt lat="49.05247" lon="7.35787">
        <ele>374.4</ele>
        <time>2020-06-27T11:19:40Z</time>
      </trkpt>
      <trkpt lat="49.05248" lon="7.35795">
        <ele>374.3</ele>
        <time>2020-06-27T11:19:41Z</time>
      </trkpt>
      <trkpt lat="49.05248" lon="7.35802">
        <ele>374.3</ele>
        <time>2020-06-27T11:19:42Z</time>
      </trkpt>
      <trkpt lat="49.05249" lon="7.35811">
        <ele>374.2</ele>
        <time>2020-06-27T11:19:43Z</time>
      </trkpt>
      <trkpt lat="49.0525" lon="7.3582">
        <ele>374.1</ele>
        <time>2020-06-27T11:19:44Z</time>
      </trkpt>
      <trkpt lat="49.0525" lon="7.3583">
        <ele>374</ele>
        <time>2020-06-27T11:19:45Z</time>
      </trkpt>
      <trkpt lat="49.05251" lon="7.35839">
        <ele>374</ele>
        <time>2020-06-27T11:19:46Z</time>
      </trkpt>
      <trkpt lat="49.05252" lon="7.35846">
        <ele>373.9</ele>
        <time>2020-06-27T11:19:47Z</time>
      </trkpt>
      <trkpt lat="49.05253" lon="7.35856">
        <ele>373.8</ele>
        <time>2020-06-27T11:19:48Z</time>
      </trkpt>
      <trkpt lat="49.05254" lon="7.35865">
        <ele>373.7</ele>
        <time>2020-06-27T11:19:49Z</time>
      </trkpt>
      <trkpt lat="49.05255" lon="7.35876">
        <ele>373.6</ele>
        <time>2020-06-27T11:19:50Z</time>
      </trkpt>
      <trkpt lat="49.05256" lon="7.35886">
        <ele>373.6</ele>
        <time>2020-06-27T11:19:51Z</time>
      </trkpt>
      <trkpt lat="49.05257" lon="7.35895">
        <ele>373.5</ele>
        <time>2020-06-27T11:19:52Z</time>
      </trkpt>
      <trkpt lat="49.05259" lon="7.35904">
        <ele>373.5</ele>
        <time>2020-06-27T11:19:53Z</time>
      </trkpt>
      <trkpt lat="49.05259" lon="7.35912">
        <ele>373.5</ele>
        <time>2020-06-27T11:19:54Z</time>
      </trkpt>
      <trkpt lat="49.0526" lon="7.3592">
        <ele>373.5</ele>
        <time>2020-06-27T11:19:55Z</time>
      </trkpt>
      <trkpt lat="49.0526" lon="7.35928">
        <ele>373.4</ele>
        <time>2020-06-27T11:19:56Z</time>
      </trkpt>
      <trkpt lat="49.05261" lon="7.35937">
        <ele>373.4</ele>
        <time>2020-06-27T11:19:57Z</time>
      </trkpt>
      <trkpt lat="49.05262" lon="7.35945">
        <ele>373.4</ele>
        <time>2020-06-27T11:19:58Z</time>
      </trkpt>
      <trkpt lat="49.05262" lon="7.35955">
        <ele>373.4</ele>
        <time>2020-06-27T11:19:59Z</time>
      </trkpt>
      <trkpt lat="49.05263" lon="7.35962">
        <ele>373.4</ele>
        <time>2020-06-27T11:20:00Z</time>
      </trkpt>
      <trkpt lat="49.05264" lon="7.35971">
        <ele>373.4</ele>
        <time>2020-06-27T11:20:01Z</time>
      </trkpt>
      <trkpt lat="49.05263" lon="7.35978">
        <ele>373.4</ele>
        <time>2020-06-27T11:20:02Z</time>
      </trkpt>
      <trkpt lat="49.05265" lon="7.35986">
        <ele>373.4</ele>
        <time>2020-06-27T11:20:03Z</time>
      </trkpt>
      <trkpt lat="49.05265" lon="7.35994">
        <ele>373.5</ele>
        <time>2020-06-27T11:20:04Z</time>
      </trkpt>
      <trkpt lat="49.05267" lon="7.36002">
        <ele>373.5</ele>
        <time>2020-06-27T11:20:05Z</time>
      </trkpt>
      <trkpt lat="49.05267" lon="7.36009">
        <ele>373.6</ele>
        <time>2020-06-27T11:20:06Z</time>
      </trkpt>
      <trkpt lat="49.05268" lon="7.36017">
        <ele>373.7</ele>
        <time>2020-06-27T11:20:07Z</time>
      </trkpt>
      <trkpt lat="49.05268" lon="7.36025">
        <ele>373.9</ele>
        <time>2020-06-27T11:20:08Z</time>
      </trkpt>
      <trkpt lat="49.0527" lon="7.36033">
        <ele>374.1</ele>
        <time>2020-06-27T11:20:09Z</time>
      </trkpt>
      <trkpt lat="49.05271" lon="7.3604">
        <ele>374.3</ele>
        <time>2020-06-27T11:20:10Z</time>
      </trkpt>
      <trkpt lat="49.05272" lon="7.36047">
        <ele>374.5</ele>
        <time>2020-06-27T11:20:11Z</time>
      </trkpt>
      <trkpt lat="49.05273" lon="7.36055">
        <ele>374.5</ele>
        <time>2020-06-27T11:20:12Z</time>
      </trkpt>
      <trkpt lat="49.05274" lon="7.36062">
        <ele>374.5</ele>
        <time>2020-06-27T11:20:13Z</time>
      </trkpt>
      <trkpt lat="49.05275" lon="7.36071">
        <ele>374.5</ele>
        <time>2020-06-27T11:20:14Z</time>
      </trkpt>
      <trkpt lat="49.05275" lon="7.36078">
        <ele>374.5</ele>
        <time>2020-06-27T11:20:15Z</time>
      </trkpt>
      <trkpt lat="49.05275" lon="7.36085">
        <ele>374.5</ele>
        <time>2020-06-27T11:20:16Z</time>
      </trkpt>
      <trkpt lat="49.05277" lon="7.36094">
        <ele>374.6</ele>
        <time>2020-06-27T11:20:17Z</time>
      </trkpt>
      <trkpt lat="49.05278" lon="7.36102">
        <ele>374.6</ele>
        <time>2020-06-27T11:20:18Z</time>
      </trkpt>
      <trkpt lat="49.05279" lon="7.36109">
        <ele>374.7</ele>
        <time>2020-06-27T11:20:19Z</time>
      </trkpt>
      <trkpt lat="49.0528" lon="7.36116">
        <ele>374.8</ele>
        <time>2020-06-27T11:20:20Z</time>
      </trkpt>
      <trkpt lat="49.05281" lon="7.36125">
        <ele>374.9</ele>
        <time>2020-06-27T11:20:21Z</time>
      </trkpt>
      <trkpt lat="49.05282" lon="7.36133">
        <ele>375</ele>
        <time>2020-06-27T11:20:22Z</time>
      </trkpt>
      <trkpt lat="49.05284" lon="7.36141">
        <ele>375.1</ele>
        <time>2020-06-27T11:20:23Z</time>
      </trkpt>
      <trkpt lat="49.05285" lon="7.36148">
        <ele>375.3</ele>
        <time>2020-06-27T11:20:24Z</time>
      </trkpt>
      <trkpt lat="49.05286" lon="7.36155">
        <ele>375.4</ele>
        <time>2020-06-27T11:20:25Z</time>
      </trkpt>
      <trkpt lat="49.05287" lon="7.36163">
        <ele>375.6</ele>
        <time>2020-06-27T11:20:26Z</time>
      </trkpt>
      <trkpt lat="49.05288" lon="7.3617">
        <ele>375.7</ele>
        <time>2020-06-27T11:20:27Z</time>
      </trkpt>
      <trkpt lat="49.05288" lon="7.36177">
        <ele>375.9</ele>
        <time>2020-06-27T11:20:28Z</time>
      </trkpt>
      <trkpt lat="49.05288" lon="7.36185">
        <ele>376</ele>
        <time>2020-06-27T11:20:29Z</time>
      </trkpt>
      <trkpt lat="49.05289" lon="7.36194">
        <ele>376.1</ele>
        <time>2020-06-27T11:20:30Z</time>
      </trkpt>
      <trkpt lat="49.05289" lon="7.36201">
        <ele>376.2</ele>
        <time>2020-06-27T11:20:31Z</time>
      </trkpt>
      <trkpt lat="49.0529" lon="7.36207">
        <ele>376.4</ele>
        <time>2020-06-27T11:20:32Z</time>
      </trkpt>
      <trkpt lat="49.0529" lon="7.36214">
        <ele>376.5</ele>
        <time>2020-06-27T11:20:33Z</time>
      </trkpt>
      <trkpt lat="49.05291" lon="7.36221">
        <ele>376.6</ele>
        <time>2020-06-27T11:20:34Z</time>
      </trkpt>
      <trkpt lat="49.05293" lon="7.36229">
        <ele>376.8</ele>
        <time>2020-06-27T11:20:35Z</time>
      </trkpt>
      <trkpt lat="49.05293" lon="7.36235">
        <ele>376.9</ele>
        <time>2020-06-27T11:20:36Z</time>
      </trkpt>
      <trkpt lat="49.05294" lon="7.36243">
        <ele>377</ele>
        <time>2020-06-27T11:20:37Z</time>
      </trkpt>
      <trkpt lat="49.05295" lon="7.3625">
        <ele>377.2</ele>
        <time>2020-06-27T11:20:38Z</time>
      </trkpt>
      <trkpt lat="49.05296" lon="7.36256">
        <ele>377.3</ele>
        <time>2020-06-27T11:20:39Z</time>
      </trkpt>
      <trkpt lat="49.05296" lon="7.36263">
        <ele>377.5</ele>
        <time>2020-06-27T11:20:40Z</time>
      </trkpt>
      <trkpt lat="49.05297" lon="7.3627">
        <ele>377.6</ele>
        <time>2020-06-27T11:20:41Z</time>
      </trkpt>
      <trkpt lat="49.05296" lon="7.36278">
        <ele>377.8</ele>
        <time>2020-06-27T11:20:42Z</time>
      </trkpt>
      <trkpt lat="49.05298" lon="7.36285">
        <ele>378</ele>
        <time>2020-06-27T11:20:43Z</time>
      </trkpt>
      <trkpt lat="49.05299" lon="7.36292">
        <ele>378.1</ele>
        <time>2020-06-27T11:20:44Z</time>
      </trkpt>
      <trkpt lat="49.053" lon="7.36297">
        <ele>378.3</ele>
        <time>2020-06-27T11:20:45Z</time>
      </trkpt>
      <trkpt lat="49.05301" lon="7.36306">
        <ele>378.6</ele>
        <time>2020-06-27T11:20:46Z</time>
      </trkpt>
      <trkpt lat="49.05301" lon="7.36313">
        <ele>378.8</ele>
        <time>2020-06-27T11:20:47Z</time>
      </trkpt>
      <trkpt lat="49.05302" lon="7.3632">
        <ele>379.1</ele>
        <time>2020-06-27T11:20:48Z</time>
      </trkpt>
      <trkpt lat="49.05303" lon="7.36327">
        <ele>379.5</ele>
        <time>2020-06-27T11:20:49Z</time>
      </trkpt>
      <trkpt lat="49.05303" lon="7.36334">
        <ele>379.8</ele>
        <time>2020-06-27T11:20:50Z</time>
      </trkpt>
      <trkpt lat="49.05305" lon="7.36343">
        <ele>380.1</ele>
        <time>2020-06-27T11:20:51Z</time>
      </trkpt>
      <trkpt lat="49.05306" lon="7.36351">
        <ele>380.2</ele>
        <time>2020-06-27T11:20:52Z</time>
      </trkpt>
      <trkpt lat="49.05307" lon="7.36355">
        <ele>380.3</ele>
        <time>2020-06-27T11:20:53Z</time>
      </trkpt>
      <trkpt lat="49.05309" lon="7.36361">
        <ele>380.4</ele>
        <time>2020-06-27T11:20:54Z</time>
      </trkpt>
      <trkpt lat="49.05309" lon="7.36367">
        <ele>380.6</ele>
        <time>2020-06-27T11:20:55Z</time>
      </trkpt>
      <trkpt lat="49.0531" lon="7.36374">
        <ele>380.7</ele>
        <time>2020-06-27T11:20:56Z</time>
      </trkpt>
      <trkpt lat="49.0531" lon="7.36381">
        <ele>380.8</ele>
        <time>2020-06-27T11:20:57Z</time>
      </trkpt>
      <trkpt lat="49.0531" lon="7.36389">
        <ele>381</ele>
        <time>2020-06-27T11:20:58Z</time>
      </trkpt>
      <trkpt lat="49.05311" lon="7.36396">
        <ele>381.1</ele>
        <time>2020-06-27T11:20:59Z</time>
      </trkpt>
      <trkpt lat="49.05312" lon="7.36402">
        <ele>381.2</ele>
        <time>2020-06-27T11:21:00Z</time>
      </trkpt>
      <trkpt lat="49.05313" lon="7.36409">
        <ele>381.4</ele>
        <time>2020-06-27T11:21:01Z</time>
      </trkpt>
      <trkpt lat="49.05316" lon="7.36416">
        <ele>381.6</ele>
        <time>2020-06-27T11:21:02Z</time>
      </trkpt>
      <trkpt lat="49.05316" lon="7.36423">
        <ele>381.7</ele>
        <time>2020-06-27T11:21:03Z</time>
      </trkpt>
      <trkpt lat="49.05316" lon="7.36429">
        <ele>381.9</ele>
        <time>2020-06-27T11:21:04Z</time>
      </trkpt>
      <trkpt lat="49.05317" lon="7.36436">
        <ele>382</ele>
        <time>2020-06-27T11:21:05Z</time>
      </trkpt>
      <trkpt lat="49.05318" lon="7.36442">
        <ele>382.1</ele>
        <time>2020-06-27T11:21:06Z</time>
      </trkpt>
      <trkpt lat="49.05319" lon="7.36449">
        <ele>382.3</ele>
        <time>2020-06-27T11:21:07Z</time>
      </trkpt>
      <trkpt lat="49.05319" lon="7.36455">
        <ele>382.4</ele>
        <time>2020-06-27T11:21:08Z</time>
      </trkpt>
      <trkpt lat="49.05319" lon="7.36461">
        <ele>382.6</ele>
        <time>2020-06-27T11:21:09Z</time>
      </trkpt>
      <trkpt lat="49.05319" lon="7.36468">
        <ele>382.7</ele>
        <time>2020-06-27T11:21:10Z</time>
      </trkpt>
      <trkpt lat="49.05321" lon="7.36474">
        <ele>382.8</ele>
        <time>2020-06-27T11:21:11Z</time>
      </trkpt>
      <trkpt lat="49.05321" lon="7.36481">
        <ele>383</ele>
        <time>2020-06-27T11:21:12Z</time>
      </trkpt>
      <trkpt lat="49.05323" lon="7.36488">
        <ele>383.1</ele>
        <time>2020-06-27T11:21:13Z</time>
      </trkpt>
      <trkpt lat="49.05323" lon="7.36493">
        <ele>383.2</ele>
        <time>2020-06-27T11:21:14Z</time>
      </trkpt>
      <trkpt lat="49.05323" lon="7.36501">
        <ele>383.4</ele>
        <time>2020-06-27T11:21:15Z</time>
      </trkpt>
      <trkpt lat="49.05324" lon="7.36508">
        <ele>383.5</ele>
        <time>2020-06-27T11:21:16Z</time>
      </trkpt>
      <trkpt lat="49.05325" lon="7.36515">
        <ele>383.6</ele>
        <time>2020-06-27T11:21:17Z</time>
      </trkpt>
      <trkpt lat="49.05325" lon="7.36521">
        <ele>383.7</ele>
        <time>2020-06-27T11:21:18Z</time>
      </trkpt>
      <trkpt lat="49.05326" lon="7.36527">
        <ele>383.9</ele>
        <time>2020-06-27T11:21:19Z</time>
      </trkpt>
      <trkpt lat="49.05326" lon="7.36534">
        <ele>384</ele>
        <time>2020-06-27T11:21:20Z</time>
      </trkpt>
      <trkpt lat="49.05327" lon="7.36543">
        <ele>384.2</ele>
        <time>2020-06-27T11:21:21Z</time>
      </trkpt>
      <trkpt lat="49.05328" lon="7.36551">
        <ele>384.3</ele>
        <time>2020-06-27T11:21:22Z</time>
      </trkpt>
      <trkpt lat="49.05329" lon="7.36558">
        <ele>384.5</ele>
        <time>2020-06-27T11:21:23Z</time>
      </trkpt>
      <trkpt lat="49.0533" lon="7.36566">
        <ele>384.6</ele>
        <time>2020-06-27T11:21:24Z</time>
      </trkpt>
      <trkpt lat="49.0533" lon="7.36573">
        <ele>384.7</ele>
        <time>2020-06-27T11:21:25Z</time>
      </trkpt>
      <trkpt lat="49.0533" lon="7.3658">
        <ele>384.8</ele>
        <time>2020-06-27T11:21:26Z</time>
      </trkpt>
      <trkpt lat="49.05331" lon="7.36588">
        <ele>384.8</ele>
        <time>2020-06-27T11:21:27Z</time>
      </trkpt>
      <trkpt lat="49.05332" lon="7.36595">
        <ele>384.9</ele>
        <time>2020-06-27T11:21:28Z</time>
      </trkpt>
      <trkpt lat="49.05332" lon="7.36603">
        <ele>385</ele>
        <time>2020-06-27T11:21:29Z</time>
      </trkpt>
      <trkpt lat="49.05334" lon="7.36611">
        <ele>385</ele>
        <time>2020-06-27T11:21:30Z</time>
      </trkpt>
      <trkpt lat="49.05334" lon="7.36618">
        <ele>385.1</ele>
        <time>2020-06-27T11:21:31Z</time>
      </trkpt>
      <trkpt lat="49.05335" lon="7.36626">
        <ele>385.3</ele>
        <time>2020-06-27T11:21:32Z</time>
      </trkpt>
      <trkpt lat="49.05335" lon="7.36633">
        <ele>385.4</ele>
        <time>2020-06-27T11:21:33Z</time>
      </trkpt>
      <trkpt lat="49.05336" lon="7.3664">
        <ele>385.5</ele>
        <time>2020-06-27T11:21:34Z</time>
      </trkpt>
      <trkpt lat="49.05337" lon="7.36647">
        <ele>385.6</ele>
        <time>2020-06-27T11:21:35Z</time>
      </trkpt>
      <trkpt lat="49.05338" lon="7.36654">
        <ele>385.7</ele>
        <time>2020-06-27T11:21:36Z</time>
      </trkpt>
      <trkpt lat="49.05338" lon="7.36662">
        <ele>385.8</ele>
        <time>2020-06-27T11:21:37Z</time>
      </trkpt>
      <trkpt lat="49.05339" lon="7.36669">
        <ele>385.8</ele>
        <time>2020-06-27T11:21:38Z</time>
      </trkpt>
      <trkpt lat="49.0534" lon="7.36676">
        <ele>385.9</ele>
        <time>2020-06-27T11:21:39Z</time>
      </trkpt>
      <trkpt lat="49.05341" lon="7.36683">
        <ele>385.9</ele>
        <time>2020-06-27T11:21:40Z</time>
      </trkpt>
      <trkpt lat="49.05342" lon="7.36691">
        <ele>386</ele>
        <time>2020-06-27T11:21:41Z</time>
      </trkpt>
      <trkpt lat="49.05343" lon="7.36697">
        <ele>386.1</ele>
        <time>2020-06-27T11:21:42Z</time>
      </trkpt>
      <trkpt lat="49.05343" lon="7.36705">
        <ele>386.2</ele>
        <time>2020-06-27T11:21:43Z</time>
      </trkpt>
      <trkpt lat="49.05344" lon="7.36713">
        <ele>386.4</ele>
        <time>2020-06-27T11:21:44Z</time>
      </trkpt>
      <trkpt lat="49.05345" lon="7.3672">
        <ele>386.5</ele>
        <time>2020-06-27T11:21:45Z</time>
      </trkpt>
      <trkpt lat="49.05346" lon="7.36726">
        <ele>386.7</ele>
        <time>2020-06-27T11:21:46Z</time>
      </trkpt>
      <trkpt lat="49.05347" lon="7.36734">
        <ele>386.8</ele>
        <time>2020-06-27T11:21:47Z</time>
      </trkpt>
      <trkpt lat="49.05348" lon="7.36741">
        <ele>386.9</ele>
        <time>2020-06-27T11:21:48Z</time>
      </trkpt>
      <trkpt lat="49.05349" lon="7.36749">
        <ele>387</ele>
        <time>2020-06-27T11:21:49Z</time>
      </trkpt>
      <trkpt lat="49.0535" lon="7.36756">
        <ele>387.1</ele>
        <time>2020-06-27T11:21:50Z</time>
      </trkpt>
      <trkpt lat="49.05351" lon="7.36764">
        <ele>387.2</ele>
        <time>2020-06-27T11:21:51Z</time>
      </trkpt>
      <trkpt lat="49.05352" lon="7.36771">
        <ele>387.2</ele>
        <time>2020-06-27T11:21:52Z</time>
      </trkpt>
      <trkpt lat="49.05353" lon="7.36777">
        <ele>387.3</ele>
        <time>2020-06-27T11:21:53Z</time>
      </trkpt>
      <trkpt lat="49.05354" lon="7.36785">
        <ele>387.3</ele>
        <time>2020-06-27T11:21:54Z</time>
      </trkpt>
      <trkpt lat="49.05354" lon="7.36792">
        <ele>387.4</ele>
        <time>2020-06-27T11:21:55Z</time>
      </trkpt>
      <trkpt lat="49.05355" lon="7.36799">
        <ele>387.5</ele>
        <time>2020-06-27T11:21:56Z</time>
      </trkpt>
      <trkpt lat="49.05356" lon="7.36805">
        <ele>387.5</ele>
        <time>2020-06-27T11:21:57Z</time>
      </trkpt>
      <trkpt lat="49.05356" lon="7.36813">
        <ele>387.6</ele>
        <time>2020-06-27T11:21:58Z</time>
      </trkpt>
      <trkpt lat="49.05357" lon="7.3682">
        <ele>387.7</ele>
        <time>2020-06-27T11:21:59Z</time>
      </trkpt>
      <trkpt lat="49.05357" lon="7.36827">
        <ele>387.8</ele>
        <time>2020-06-27T11:22:00Z</time>
      </trkpt>
      <trkpt lat="49.05358" lon="7.36835">
        <ele>387.9</ele>
        <time>2020-06-27T11:22:01Z</time>
      </trkpt>
      <trkpt lat="49.05359" lon="7.36842">
        <ele>388</ele>
        <time>2020-06-27T11:22:02Z</time>
      </trkpt>
      <trkpt lat="49.05359" lon="7.36851">
        <ele>388.1</ele>
        <time>2020-06-27T11:22:03Z</time>
      </trkpt>
      <trkpt lat="49.0536" lon="7.36858">
        <ele>388.3</ele>
        <time>2020-06-27T11:22:04Z</time>
      </trkpt>
      <trkpt lat="49.05361" lon="7.36866">
        <ele>388.5</ele>
        <time>2020-06-27T11:22:05Z</time>
      </trkpt>
      <trkpt lat="49.05361" lon="7.36872">
        <ele>388.7</ele>
        <time>2020-06-27T11:22:06Z</time>
      </trkpt>
      <trkpt lat="49.05361" lon="7.3688">
        <ele>388.9</ele>
        <time>2020-06-27T11:22:07Z</time>
      </trkpt>
      <trkpt lat="49.05363" lon="7.36887">
        <ele>389</ele>
        <time>2020-06-27T11:22:08Z</time>
      </trkpt>
      <trkpt lat="49.05364" lon="7.36895">
        <ele>389.1</ele>
        <time>2020-06-27T11:22:09Z</time>
      </trkpt>
      <trkpt lat="49.05365" lon="7.36901">
        <ele>389.1</ele>
        <time>2020-06-27T11:22:10Z</time>
      </trkpt>
      <trkpt lat="49.05366" lon="7.36909">
        <ele>389.2</ele>
        <time>2020-06-27T11:22:11Z</time>
      </trkpt>
      <trkpt lat="49.05366" lon="7.36917">
        <ele>389.3</ele>
        <time>2020-06-27T11:22:12Z</time>
      </trkpt>
      <trkpt lat="49.05367" lon="7.36923">
        <ele>389.4</ele>
        <time>2020-06-27T11:22:13Z</time>
      </trkpt>
      <trkpt lat="49.05368" lon="7.36931">
        <ele>389.5</ele>
        <time>2020-06-27T11:22:14Z</time>
      </trkpt>
      <trkpt lat="49.05369" lon="7.36939">
        <ele>389.7</ele>
        <time>2020-06-27T11:22:15Z</time>
      </trkpt>
      <trkpt lat="49.0537" lon="7.36947">
        <ele>389.9</ele>
        <time>2020-06-27T11:22:16Z</time>
      </trkpt>
      <trkpt lat="49.05371" lon="7.36954">
        <ele>390</ele>
        <time>2020-06-27T11:22:17Z</time>
      </trkpt>
      <trkpt lat="49.05372" lon="7.36961">
        <ele>390.1</ele>
        <time>2020-06-27T11:22:18Z</time>
      </trkpt>
      <trkpt lat="49.05373" lon="7.36968">
        <ele>390.2</ele>
        <time>2020-06-27T11:22:19Z</time>
      </trkpt>
      <trkpt lat="49.05374" lon="7.36975">
        <ele>390.3</ele>
        <time>2020-06-27T11:22:20Z</time>
      </trkpt>
      <trkpt lat="49.05375" lon="7.36981">
        <ele>390.5</ele>
        <time>2020-06-27T11:22:21Z</time>
      </trkpt>
      <trkpt lat="49.05376" lon="7.36988">
        <ele>390.6</ele>
        <time>2020-06-27T11:22:22Z</time>
      </trkpt>
      <trkpt lat="49.05376" lon="7.36996">
        <ele>390.8</ele>
        <time>2020-06-27T11:22:23Z</time>
      </trkpt>
      <trkpt lat="49.05377" lon="7.37002">
        <ele>390.9</ele>
        <time>2020-06-27T11:22:24Z</time>
      </trkpt>
      <trkpt lat="49.05378" lon="7.3701">
        <ele>391.1</ele>
        <time>2020-06-27T11:22:25Z</time>
      </trkpt>
      <trkpt lat="49.05378" lon="7.37017">
        <ele>391.2</ele>
        <time>2020-06-27T11:22:26Z</time>
      </trkpt>
      <trkpt lat="49.05378" lon="7.37026">
        <ele>391.3</ele>
        <time>2020-06-27T11:22:27Z</time>
      </trkpt>
      <trkpt lat="49.05379" lon="7.37033">
        <ele>391.5</ele>
        <time>2020-06-27T11:22:28Z</time>
      </trkpt>
      <trkpt lat="49.0538" lon="7.3704">
        <ele>391.6</ele>
        <time>2020-06-27T11:22:29Z</time>
      </trkpt>
      <trkpt lat="49.0538" lon="7.37047">
        <ele>391.7</ele>
        <time>2020-06-27T11:22:30Z</time>
      </trkpt>
      <trkpt lat="49.05381" lon="7.37053">
        <ele>391.9</ele>
        <time>2020-06-27T11:22:31Z</time>
      </trkpt>
      <trkpt lat="49.05382" lon="7.37061">
        <ele>392</ele>
        <time>2020-06-27T11:22:32Z</time>
      </trkpt>
      <trkpt lat="49.05383" lon="7.37068">
        <ele>392.1</ele>
        <time>2020-06-27T11:22:33Z</time>
      </trkpt>
      <trkpt lat="49.05384" lon="7.37075">
        <ele>392.2</ele>
        <time>2020-06-27T11:22:34Z</time>
      </trkpt>
      <trkpt lat="49.05386" lon="7.37082">
        <ele>392.3</ele>
        <time>2020-06-27T11:22:35Z</time>
      </trkpt>
      <trkpt lat="49.05385" lon="7.3709">
        <ele>392.4</ele>
        <time>2020-06-27T11:22:36Z</time>
      </trkpt>
      <trkpt lat="49.05386" lon="7.37097">
        <ele>392.5</ele>
        <time>2020-06-27T11:22:37Z</time>
      </trkpt>
      <trkpt lat="49.05386" lon="7.37103">
        <ele>392.6</ele>
        <time>2020-06-27T11:22:38Z</time>
      </trkpt>
      <trkpt lat="49.05387" lon="7.3711">
        <ele>392.8</ele>
        <time>2020-06-27T11:22:39Z</time>
      </trkpt>
      <trkpt lat="49.05388" lon="7.37117">
        <ele>392.9</ele>
        <time>2020-06-27T11:22:40Z</time>
      </trkpt>
      <trkpt lat="49.05389" lon="7.37124">
        <ele>393.1</ele>
        <time>2020-06-27T11:22:41Z</time>
      </trkpt>
      <trkpt lat="49.05389" lon="7.37131">
        <ele>393.2</ele>
        <time>2020-06-27T11:22:42Z</time>
      </trkpt>
      <trkpt lat="49.0539" lon="7.37137">
        <ele>393.3</ele>
        <time>2020-06-27T11:22:43Z</time>
      </trkpt>
      <trkpt lat="49.0539" lon="7.37144">
        <ele>393.5</ele>
        <time>2020-06-27T11:22:44Z</time>
      </trkpt>
      <trkpt lat="49.05392" lon="7.37152">
        <ele>393.6</ele>
        <time>2020-06-27T11:22:45Z</time>
      </trkpt>
      <trkpt lat="49.05393" lon="7.37158">
        <ele>393.7</ele>
        <time>2020-06-27T11:22:46Z</time>
      </trkpt>
      <trkpt lat="49.05393" lon="7.37163">
        <ele>393.8</ele>
        <time>2020-06-27T11:22:47Z</time>
      </trkpt>
      <trkpt lat="49.05395" lon="7.37171">
        <ele>393.9</ele>
        <time>2020-06-27T11:22:48Z</time>
      </trkpt>
      <trkpt lat="49.05394" lon="7.37177">
        <ele>394</ele>
        <time>2020-06-27T11:22:49Z</time>
      </trkpt>
      <trkpt lat="49.05396" lon="7.37183">
        <ele>394.1</ele>
        <time>2020-06-27T11:22:50Z</time>
      </trkpt>
      <trkpt lat="49.05396" lon="7.37191">
        <ele>394.3</ele>
        <time>2020-06-27T11:22:51Z</time>
      </trkpt>
      <trkpt lat="49.05397" lon="7.37196">
        <ele>394.4</ele>
        <time>2020-06-27T11:22:52Z</time>
      </trkpt>
      <trkpt lat="49.05398" lon="7.37203">
        <ele>394.6</ele>
        <time>2020-06-27T11:22:53Z</time>
      </trkpt>
      <trkpt lat="49.05398" lon="7.37209">
        <ele>394.7</ele>
        <time>2020-06-27T11:22:54Z</time>
      </trkpt>
      <trkpt lat="49.05399" lon="7.37217">
        <ele>394.8</ele>
        <time>2020-06-27T11:22:55Z</time>
      </trkpt>
      <trkpt lat="49.05401" lon="7.37224">
        <ele>394.9</ele>
        <time>2020-06-27T11:22:56Z</time>
      </trkpt>
      <trkpt lat="49.05402" lon="7.3723">
        <ele>394.9</ele>
        <time>2020-06-27T11:22:57Z</time>
      </trkpt>
      <trkpt lat="49.05404" lon="7.37236">
        <ele>395</ele>
        <time>2020-06-27T11:22:58Z</time>
      </trkpt>
      <trkpt lat="49.05407" lon="7.37242">
        <ele>395.1</ele>
        <time>2020-06-27T11:22:59Z</time>
      </trkpt>
      <trkpt lat="49.05409" lon="7.37248">
        <ele>395.1</ele>
        <time>2020-06-27T11:23:00Z</time>
      </trkpt>
      <trkpt lat="49.05412" lon="7.37256">
        <ele>395.1</ele>
        <time>2020-06-27T11:23:01Z</time>
      </trkpt>
      <trkpt lat="49.05415" lon="7.37262">
        <ele>395.2</ele>
        <time>2020-06-27T11:23:02Z</time>
      </trkpt>
      <trkpt lat="49.05418" lon="7.37269">
        <ele>395.2</ele>
        <time>2020-06-27T11:23:03Z</time>
      </trkpt>
      <trkpt lat="49.05422" lon="7.37276">
        <ele>395.2</ele>
        <time>2020-06-27T11:23:04Z</time>
      </trkpt>
      <trkpt lat="49.05426" lon="7.37281">
        <ele>395.1</ele>
        <time>2020-06-27T11:23:05Z</time>
      </trkpt>
      <trkpt lat="49.05429" lon="7.37287">
        <ele>395.1</ele>
        <time>2020-06-27T11:23:06Z</time>
      </trkpt>
      <trkpt lat="49.05433" lon="7.37292">
        <ele>395.1</ele>
        <time>2020-06-27T11:23:07Z</time>
      </trkpt>
      <trkpt lat="49.05437" lon="7.37298">
        <ele>395</ele>
        <time>2020-06-27T11:23:08Z</time>
      </trkpt>
      <trkpt lat="49.05441" lon="7.37304">
        <ele>394.9</ele>
        <time>2020-06-27T11:23:09Z</time>
      </trkpt>
      <trkpt lat="49.05445" lon="7.37311">
        <ele>394.9</ele>
        <time>2020-06-27T11:23:10Z</time>
      </trkpt>
      <trkpt lat="49.0545" lon="7.37315">
        <ele>394.8</ele>
        <time>2020-06-27T11:23:11Z</time>
      </trkpt>
      <trkpt lat="49.05455" lon="7.37323">
        <ele>394.8</ele>
        <time>2020-06-27T11:23:12Z</time>
      </trkpt>
      <trkpt lat="49.05459" lon="7.37329">
        <ele>394.8</ele>
        <time>2020-06-27T11:23:13Z</time>
      </trkpt>
      <trkpt lat="49.05463" lon="7.37334">
        <ele>394.9</ele>
        <time>2020-06-27T11:23:14Z</time>
      </trkpt>
      <trkpt lat="49.05467" lon="7.3734">
        <ele>395</ele>
        <time>2020-06-27T11:23:15Z</time>
      </trkpt>
      <trkpt lat="49.05473" lon="7.37343">
        <ele>395.2</ele>
        <time>2020-06-27T11:23:16Z</time>
      </trkpt>
      <trkpt lat="49.05477" lon="7.37348">
        <ele>395.1</ele>
        <time>2020-06-27T11:23:17Z</time>
      </trkpt>
      <trkpt lat="49.05483" lon="7.37354">
        <ele>395</ele>
        <time>2020-06-27T11:23:18Z</time>
      </trkpt>
      <trkpt lat="49.05487" lon="7.3736">
        <ele>394.9</ele>
        <time>2020-06-27T11:23:19Z</time>
      </trkpt>
      <trkpt lat="49.05492" lon="7.37367">
        <ele>394.9</ele>
        <time>2020-06-27T11:23:20Z</time>
      </trkpt>
      <trkpt lat="49.05497" lon="7.37374">
        <ele>394.9</ele>
        <time>2020-06-27T11:23:21Z</time>
      </trkpt>
      <trkpt lat="49.05502" lon="7.3738">
        <ele>395</ele>
        <time>2020-06-27T11:23:22Z</time>
      </trkpt>
      <trkpt lat="49.05505" lon="7.37387">
        <ele>395</ele>
        <time>2020-06-27T11:23:23Z</time>
      </trkpt>
      <trkpt lat="49.05508" lon="7.37391">
        <ele>395</ele>
        <time>2020-06-27T11:23:24Z</time>
      </trkpt>
      <trkpt lat="49.05512" lon="7.37398">
        <ele>395.1</ele>
        <time>2020-06-27T11:23:25Z</time>
      </trkpt>
      <trkpt lat="49.05517" lon="7.37403">
        <ele>395.1</ele>
        <time>2020-06-27T11:23:26Z</time>
      </trkpt>
      <trkpt lat="49.05522" lon="7.37408">
        <ele>395.1</ele>
        <time>2020-06-27T11:23:27Z</time>
      </trkpt>
      <trkpt lat="49.05527" lon="7.37413">
        <ele>395.1</ele>
        <time>2020-06-27T11:23:28Z</time>
      </trkpt>
      <trkpt lat="49.0553" lon="7.37417">
        <ele>395.2</ele>
        <time>2020-06-27T11:23:29Z</time>
      </trkpt>
      <trkpt lat="49.05534" lon="7.37424">
        <ele>395.2</ele>
        <time>2020-06-27T11:23:30Z</time>
      </trkpt>
      <trkpt lat="49.05538" lon="7.3743">
        <ele>395.3</ele>
        <time>2020-06-27T11:23:31Z</time>
      </trkpt>
      <trkpt lat="49.05543" lon="7.37436">
        <ele>395.3</ele>
        <time>2020-06-27T11:23:32Z</time>
      </trkpt>
      <trkpt lat="49.05546" lon="7.37441">
        <ele>395.3</ele>
        <time>2020-06-27T11:23:33Z</time>
      </trkpt>
      <trkpt lat="49.05551" lon="7.37445">
        <ele>395.4</ele>
        <time>2020-06-27T11:23:34Z</time>
      </trkpt>
      <trkpt lat="49.05553" lon="7.37449">
        <ele>395.4</ele>
        <time>2020-06-27T11:23:35Z</time>
      </trkpt>
      <trkpt lat="49.05556" lon="7.37453">
        <ele>395.4</ele>
        <time>2020-06-27T11:23:36Z</time>
      </trkpt>
      <trkpt lat="49.05559" lon="7.37458">
        <ele>395.4</ele>
        <time>2020-06-27T11:23:37Z</time>
      </trkpt>
      <trkpt lat="49.05563" lon="7.37463">
        <ele>395.4</ele>
        <time>2020-06-27T11:23:38Z</time>
      </trkpt>
      <trkpt lat="49.05566" lon="7.37468">
        <ele>395.4</ele>
        <time>2020-06-27T11:23:39Z</time>
      </trkpt>
      <trkpt lat="49.05571" lon="7.37473">
        <ele>395.5</ele>
        <time>2020-06-27T11:23:40Z</time>
      </trkpt>
      <trkpt lat="49.05576" lon="7.37481">
        <ele>395.5</ele>
        <time>2020-06-27T11:23:41Z</time>
      </trkpt>
      <trkpt lat="49.0558" lon="7.37488">
        <ele>395.5</ele>
        <time>2020-06-27T11:23:42Z</time>
      </trkpt>
      <trkpt lat="49.05584" lon="7.37493">
        <ele>395.6</ele>
        <time>2020-06-27T11:23:43Z</time>
      </trkpt>
      <trkpt lat="49.05589" lon="7.37499">
        <ele>395.6</ele>
        <time>2020-06-27T11:23:44Z</time>
      </trkpt>
      <trkpt lat="49.05593" lon="7.37503">
        <ele>395.6</ele>
        <time>2020-06-27T11:23:45Z</time>
      </trkpt>
      <trkpt lat="49.05597" lon="7.3751">
        <ele>395.7</ele>
        <time>2020-06-27T11:23:46Z</time>
      </trkpt>
      <trkpt lat="49.056" lon="7.37515">
        <ele>395.7</ele>
        <time>2020-06-27T11:23:47Z</time>
      </trkpt>
      <trkpt lat="49.05603" lon="7.3752">
        <ele>395.8</ele>
        <time>2020-06-27T11:23:48Z</time>
      </trkpt>
      <trkpt lat="49.05608" lon="7.37524">
        <ele>395.8</ele>
        <time>2020-06-27T11:23:49Z</time>
      </trkpt>
      <trkpt lat="49.05612" lon="7.37529">
        <ele>395.9</ele>
        <time>2020-06-27T11:23:50Z</time>
      </trkpt>
      <trkpt lat="49.05615" lon="7.37535">
        <ele>395.9</ele>
        <time>2020-06-27T11:23:51Z</time>
      </trkpt>
      <trkpt lat="49.05619" lon="7.37541">
        <ele>396</ele>
        <time>2020-06-27T11:23:52Z</time>
      </trkpt>
      <trkpt lat="49.05624" lon="7.37547">
        <ele>396.1</ele>
        <time>2020-06-27T11:23:53Z</time>
      </trkpt>
      <trkpt lat="49.05627" lon="7.37552">
        <ele>396.1</ele>
        <time>2020-06-27T11:23:54Z</time>
      </trkpt>
      <trkpt lat="49.05631" lon="7.37558">
        <ele>396.2</ele>
        <time>2020-06-27T11:23:55Z</time>
      </trkpt>
      <trkpt lat="49.05636" lon="7.37563">
        <ele>396.2</ele>
        <time>2020-06-27T11:23:56Z</time>
      </trkpt>
      <trkpt lat="49.05641" lon="7.37569">
        <ele>396.3</ele>
        <time>2020-06-27T11:23:57Z</time>
      </trkpt>
      <trkpt lat="49.05646" lon="7.37575">
        <ele>396.4</ele>
        <time>2020-06-27T11:23:58Z</time>
      </trkpt>
      <trkpt lat="49.0565" lon="7.37581">
        <ele>396.5</ele>
        <time>2020-06-27T11:23:59Z</time>
      </trkpt>
      <trkpt lat="49.05655" lon="7.37588">
        <ele>396.7</ele>
        <time>2020-06-27T11:24:00Z</time>
      </trkpt>
      <trkpt lat="49.05659" lon="7.37595">
        <ele>396.9</ele>
        <time>2020-06-27T11:24:01Z</time>
      </trkpt>
      <trkpt lat="49.05663" lon="7.37599">
        <ele>397.2</ele>
        <time>2020-06-27T11:24:02Z</time>
      </trkpt>
      <trkpt lat="49.05668" lon="7.37605">
        <ele>397.5</ele>
        <time>2020-06-27T11:24:03Z</time>
      </trkpt>
      <trkpt lat="49.05673" lon="7.37612">
        <ele>397.5</ele>
        <time>2020-06-27T11:24:04Z</time>
      </trkpt>
      <trkpt lat="49.05678" lon="7.37619">
        <ele>397.5</ele>
        <time>2020-06-27T11:24:05Z</time>
      </trkpt>
      <trkpt lat="49.05683" lon="7.37626">
        <ele>397.5</ele>
        <time>2020-06-27T11:24:06Z</time>
      </trkpt>
      <trkpt lat="49.05687" lon="7.37633">
        <ele>397.6</ele>
        <time>2020-06-27T11:24:07Z</time>
      </trkpt>
      <trkpt lat="49.05691" lon="7.37638">
        <ele>397.6</ele>
        <time>2020-06-27T11:24:08Z</time>
      </trkpt>
      <trkpt lat="49.05696" lon="7.37643">
        <ele>397.6</ele>
        <time>2020-06-27T11:24:09Z</time>
      </trkpt>
      <trkpt lat="49.057" lon="7.37649">
        <ele>397.6</ele>
        <time>2020-06-27T11:24:10Z</time>
      </trkpt>
      <trkpt lat="49.05704" lon="7.37654">
        <ele>397.6</ele>
        <time>2020-06-27T11:24:11Z</time>
      </trkpt>
      <trkpt lat="49.05708" lon="7.37658">
        <ele>397.7</ele>
        <time>2020-06-27T11:24:12Z</time>
      </trkpt>
      <trkpt lat="49.05713" lon="7.37667">
        <ele>397.7</ele>
        <time>2020-06-27T11:24:13Z</time>
      </trkpt>
      <trkpt lat="49.05717" lon="7.37671">
        <ele>397.7</ele>
        <time>2020-06-27T11:24:14Z</time>
      </trkpt>
      <trkpt lat="49.05722" lon="7.3768">
        <ele>397.7</ele>
        <time>2020-06-27T11:24:15Z</time>
      </trkpt>
      <trkpt lat="49.05727" lon="7.37685">
        <ele>397.7</ele>
        <time>2020-06-27T11:24:16Z</time>
      </trkpt>
      <trkpt lat="49.05732" lon="7.37691">
        <ele>397.8</ele>
        <time>2020-06-27T11:24:17Z</time>
      </trkpt>
      <trkpt lat="49.05737" lon="7.37698">
        <ele>397.8</ele>
        <time>2020-06-27T11:24:18Z</time>
      </trkpt>
      <trkpt lat="49.05742" lon="7.37704">
        <ele>397.8</ele>
        <time>2020-06-27T11:24:19Z</time>
      </trkpt>
      <trkpt lat="49.05747" lon="7.3771">
        <ele>397.8</ele>
        <time>2020-06-27T11:24:20Z</time>
      </trkpt>
      <trkpt lat="49.05752" lon="7.37716">
        <ele>397.8</ele>
        <time>2020-06-27T11:24:21Z</time>
      </trkpt>
      <trkpt lat="49.05757" lon="7.37722">
        <ele>397.8</ele>
        <time>2020-06-27T11:24:22Z</time>
      </trkpt>
      <trkpt lat="49.05761" lon="7.37729">
        <ele>397.8</ele>
        <time>2020-06-27T11:24:23Z</time>
      </trkpt>
      <trkpt lat="49.05766" lon="7.37736">
        <ele>397.8</ele>
        <time>2020-06-27T11:24:24Z</time>
      </trkpt>
      <trkpt lat="49.05771" lon="7.37743">
        <ele>397.9</ele>
        <time>2020-06-27T11:24:25Z</time>
      </trkpt>
      <trkpt lat="49.05776" lon="7.3775">
        <ele>397.9</ele>
        <time>2020-06-27T11:24:26Z</time>
      </trkpt>
      <trkpt lat="49.05781" lon="7.37756">
        <ele>398</ele>
        <time>2020-06-27T11:24:27Z</time>
      </trkpt>
      <trkpt lat="49.05786" lon="7.37763">
        <ele>398.1</ele>
        <time>2020-06-27T11:24:28Z</time>
      </trkpt>
      <trkpt lat="49.05791" lon="7.37769">
        <ele>398.3</ele>
        <time>2020-06-27T11:24:29Z</time>
      </trkpt>
      <trkpt lat="49.05795" lon="7.37776">
        <ele>398.3</ele>
        <time>2020-06-27T11:24:30Z</time>
      </trkpt>
      <trkpt lat="49.058" lon="7.37782">
        <ele>398.3</ele>
        <time>2020-06-27T11:24:31Z</time>
      </trkpt>
      <trkpt lat="49.05804" lon="7.37789">
        <ele>398.2</ele>
        <time>2020-06-27T11:24:32Z</time>
      </trkpt>
      <trkpt lat="49.05809" lon="7.37795">
        <ele>398.2</ele>
        <time>2020-06-27T11:24:33Z</time>
      </trkpt>
      <trkpt lat="49.05814" lon="7.37801">
        <ele>398.2</ele>
        <time>2020-06-27T11:24:34Z</time>
      </trkpt>
      <trkpt lat="49.05818" lon="7.37808">
        <ele>398.2</ele>
        <time>2020-06-27T11:24:35Z</time>
      </trkpt>
      <trkpt lat="49.05823" lon="7.37815">
        <ele>398.2</ele>
        <time>2020-06-27T11:24:36Z</time>
      </trkpt>
      <trkpt lat="49.05828" lon="7.37821">
        <ele>398.3</ele>
        <time>2020-06-27T11:24:37Z</time>
      </trkpt>
      <trkpt lat="49.05832" lon="7.37827">
        <ele>398.3</ele>
        <time>2020-06-27T11:24:38Z</time>
      </trkpt>
      <trkpt lat="49.05837" lon="7.37833">
        <ele>398.4</ele>
        <time>2020-06-27T11:24:39Z</time>
      </trkpt>
      <trkpt lat="49.05842" lon="7.3784">
        <ele>398.4</ele>
        <time>2020-06-27T11:24:40Z</time>
      </trkpt>
      <trkpt lat="49.05847" lon="7.37846">
        <ele>398.4</ele>
        <time>2020-06-27T11:24:41Z</time>
      </trkpt>
      <trkpt lat="49.05852" lon="7.37852">
        <ele>398.4</ele>
        <time>2020-06-27T11:24:42Z</time>
      </trkpt>
      <trkpt lat="49.05856" lon="7.37858">
        <ele>398.4</ele>
        <time>2020-06-27T11:24:43Z</time>
      </trkpt>
      <trkpt lat="49.0586" lon="7.37864">
        <ele>398.5</ele>
        <time>2020-06-27T11:24:44Z</time>
      </trkpt>
      <trkpt lat="49.05864" lon="7.3787">
        <ele>398.5</ele>
        <time>2020-06-27T11:24:45Z</time>
      </trkpt>
      <trkpt lat="49.05868" lon="7.37877">
        <ele>398.6</ele>
        <time>2020-06-27T11:24:46Z</time>
      </trkpt>
      <trkpt lat="49.05873" lon="7.3788">
        <ele>398.6</ele>
        <time>2020-06-27T11:24:47Z</time>
      </trkpt>
      <trkpt lat="49.05877" lon="7.37887">
        <ele>398.6</ele>
        <time>2020-06-27T11:24:48Z</time>
      </trkpt>
      <trkpt lat="49.0588" lon="7.37892">
        <ele>398.6</ele>
        <time>2020-06-27T11:24:49Z</time>
      </trkpt>
      <trkpt lat="49.05884" lon="7.37898">
        <ele>398.7</ele>
        <time>2020-06-27T11:24:50Z</time>
      </trkpt>
      <trkpt lat="49.05888" lon="7.37905">
        <ele>398.7</ele>
        <time>2020-06-27T11:24:51Z</time>
      </trkpt>
      <trkpt lat="49.05892" lon="7.3791">
        <ele>398.8</ele>
        <time>2020-06-27T11:24:52Z</time>
      </trkpt>
      <trkpt lat="49.05897" lon="7.37914">
        <ele>398.9</ele>
        <time>2020-06-27T11:24:53Z</time>
      </trkpt>
      <trkpt lat="49.05901" lon="7.37918">
        <ele>399.1</ele>
        <time>2020-06-27T11:24:54Z</time>
      </trkpt>
      <trkpt lat="49.05906" lon="7.37923">
        <ele>399.4</ele>
        <time>2020-06-27T11:24:55Z</time>
      </trkpt>
      <trkpt lat="49.0591" lon="7.37928">
        <ele>399.5</ele>
        <time>2020-06-27T11:24:56Z</time>
      </trkpt>
      <trkpt lat="49.05914" lon="7.37934">
        <ele>399.5</ele>
        <time>2020-06-27T11:24:57Z</time>
      </trkpt>
      <trkpt lat="49.05918" lon="7.3794">
        <ele>399.5</ele>
        <time>2020-06-27T11:24:58Z</time>
      </trkpt>
      <trkpt lat="49.05922" lon="7.37945">
        <ele>399.6</ele>
        <time>2020-06-27T11:24:59Z</time>
      </trkpt>
      <trkpt lat="49.05925" lon="7.3795">
        <ele>399.6</ele>
        <time>2020-06-27T11:25:00Z</time>
      </trkpt>
      <trkpt lat="49.05929" lon="7.37954">
        <ele>399.5</ele>
        <time>2020-06-27T11:25:01Z</time>
      </trkpt>
      <trkpt lat="49.05933" lon="7.37959">
        <ele>399.5</ele>
        <time>2020-06-27T11:25:02Z</time>
      </trkpt>
      <trkpt lat="49.05936" lon="7.37964">
        <ele>399.5</ele>
        <time>2020-06-27T11:25:03Z</time>
      </trkpt>
      <trkpt lat="49.0594" lon="7.3797">
        <ele>399.6</ele>
        <time>2020-06-27T11:25:04Z</time>
      </trkpt>
      <trkpt lat="49.05944" lon="7.37976">
        <ele>399.6</ele>
        <time>2020-06-27T11:25:05Z</time>
      </trkpt>
      <trkpt lat="49.05948" lon="7.37982">
        <ele>399.7</ele>
        <time>2020-06-27T11:25:06Z</time>
      </trkpt>
      <trkpt lat="49.05952" lon="7.37988">
        <ele>399.8</ele>
        <time>2020-06-27T11:25:07Z</time>
      </trkpt>
      <trkpt lat="49.05956" lon="7.37994">
        <ele>399.9</ele>
        <time>2020-06-27T11:25:08Z</time>
      </trkpt>
      <trkpt lat="49.0596" lon="7.37999">
        <ele>400</ele>
        <time>2020-06-27T11:25:09Z</time>
      </trkpt>
      <trkpt lat="49.05965" lon="7.38005">
        <ele>400.1</ele>
        <time>2020-06-27T11:25:10Z</time>
      </trkpt>
      <trkpt lat="49.05969" lon="7.38011">
        <ele>400.2</ele>
        <time>2020-06-27T11:25:11Z</time>
      </trkpt>
      <trkpt lat="49.05973" lon="7.38017">
        <ele>400.3</ele>
        <time>2020-06-27T11:25:12Z</time>
      </trkpt>
      <trkpt lat="49.05979" lon="7.38023">
        <ele>400.4</ele>
        <time>2020-06-27T11:25:13Z</time>
      </trkpt>
      <trkpt lat="49.05984" lon="7.38028">
        <ele>400.5</ele>
        <time>2020-06-27T11:25:14Z</time>
      </trkpt>
      <trkpt lat="49.05989" lon="7.38035">
        <ele>400.6</ele>
        <time>2020-06-27T11:25:15Z</time>
      </trkpt>
      <trkpt lat="49.05993" lon="7.38041">
        <ele>400.8</ele>
        <time>2020-06-27T11:25:16Z</time>
      </trkpt>
      <trkpt lat="49.05997" lon="7.38047">
        <ele>400.9</ele>
        <time>2020-06-27T11:25:17Z</time>
      </trkpt>
      <trkpt lat="49.06001" lon="7.38054">
        <ele>401</ele>
        <time>2020-06-27T11:25:18Z</time>
      </trkpt>
      <trkpt lat="49.06005" lon="7.38061">
        <ele>401.1</ele>
        <time>2020-06-27T11:25:19Z</time>
      </trkpt>
      <trkpt lat="49.06009" lon="7.38068">
        <ele>401.2</ele>
        <time>2020-06-27T11:25:20Z</time>
      </trkpt>
      <trkpt lat="49.06013" lon="7.38074">
        <ele>401.3</ele>
        <time>2020-06-27T11:25:21Z</time>
      </trkpt>
      <trkpt lat="49.06018" lon="7.3808">
        <ele>401.5</ele>
        <time>2020-06-27T11:25:22Z</time>
      </trkpt>
      <trkpt lat="49.06021" lon="7.38087">
        <ele>401.7</ele>
        <time>2020-06-27T11:25:23Z</time>
      </trkpt>
      <trkpt lat="49.06025" lon="7.38094">
        <ele>401.6</ele>
        <time>2020-06-27T11:25:24Z</time>
      </trkpt>
      <trkpt lat="49.06028" lon="7.38102">
        <ele>401.5</ele>
        <time>2020-06-27T11:25:25Z</time>
      </trkpt>
      <trkpt lat="49.06032" lon="7.38108">
        <ele>401.4</ele>
        <time>2020-06-27T11:25:26Z</time>
      </trkpt>
      <trkpt lat="49.06035" lon="7.38115">
        <ele>401.4</ele>
        <time>2020-06-27T11:25:27Z</time>
      </trkpt>
      <trkpt lat="49.06038" lon="7.38123">
        <ele>401.4</ele>
        <time>2020-06-27T11:25:28Z</time>
      </trkpt>
      <trkpt lat="49.0604" lon="7.3813">
        <ele>401.4</ele>
        <time>2020-06-27T11:25:29Z</time>
      </trkpt>
      <trkpt lat="49.06043" lon="7.38137">
        <ele>401.4</ele>
        <time>2020-06-27T11:25:30Z</time>
      </trkpt>
      <trkpt lat="49.06047" lon="7.38143">
        <ele>401.4</ele>
        <time>2020-06-27T11:25:31Z</time>
      </trkpt>
      <trkpt lat="49.0605" lon="7.3815">
        <ele>401.5</ele>
        <time>2020-06-27T11:25:32Z</time>
      </trkpt>
      <trkpt lat="49.06052" lon="7.38157">
        <ele>401.5</ele>
        <time>2020-06-27T11:25:33Z</time>
      </trkpt>
      <trkpt lat="49.06055" lon="7.38166">
        <ele>401.4</ele>
        <time>2020-06-27T11:25:34Z</time>
      </trkpt>
      <trkpt lat="49.06058" lon="7.38174">
        <ele>401.2</ele>
        <time>2020-06-27T11:25:35Z</time>
      </trkpt>
      <trkpt lat="49.06061" lon="7.38182">
        <ele>401.1</ele>
        <time>2020-06-27T11:25:36Z</time>
      </trkpt>
      <trkpt lat="49.06062" lon="7.38192">
        <ele>401</ele>
        <time>2020-06-27T11:25:37Z</time>
      </trkpt>
      <trkpt lat="49.06064" lon="7.38201">
        <ele>400.8</ele>
        <time>2020-06-27T11:25:38Z</time>
      </trkpt>
      <trkpt lat="49.06065" lon="7.38211">
        <ele>400.6</ele>
        <time>2020-06-27T11:25:39Z</time>
      </trkpt>
      <trkpt lat="49.06065" lon="7.38221">
        <ele>400.4</ele>
        <time>2020-06-27T11:25:40Z</time>
      </trkpt>
      <trkpt lat="49.06065" lon="7.38231">
        <ele>400.2</ele>
        <time>2020-06-27T11:25:41Z</time>
      </trkpt>
      <trkpt lat="49.06065" lon="7.38242">
        <ele>400</ele>
        <time>2020-06-27T11:25:42Z</time>
      </trkpt>
      <trkpt lat="49.06064" lon="7.38253">
        <ele>399.8</ele>
        <time>2020-06-27T11:25:43Z</time>
      </trkpt>
      <trkpt lat="49.06064" lon="7.38264">
        <ele>399.6</ele>
        <time>2020-06-27T11:25:44Z</time>
      </trkpt>
      <trkpt lat="49.06063" lon="7.38275">
        <ele>399.4</ele>
        <time>2020-06-27T11:25:45Z</time>
      </trkpt>
      <trkpt lat="49.06063" lon="7.38287">
        <ele>399.3</ele>
        <time>2020-06-27T11:25:46Z</time>
      </trkpt>
      <trkpt lat="49.06064" lon="7.38298">
        <ele>399.2</ele>
        <time>2020-06-27T11:25:47Z</time>
      </trkpt>
      <trkpt lat="49.06064" lon="7.3831">
        <ele>399.1</ele>
        <time>2020-06-27T11:25:48Z</time>
      </trkpt>
      <trkpt lat="49.06064" lon="7.38321">
        <ele>399</ele>
        <time>2020-06-27T11:25:49Z</time>
      </trkpt>
      <trkpt lat="49.06064" lon="7.38333">
        <ele>398.9</ele>
        <time>2020-06-27T11:25:50Z</time>
      </trkpt>
      <trkpt lat="49.06064" lon="7.38344">
        <ele>398.7</ele>
        <time>2020-06-27T11:25:51Z</time>
      </trkpt>
      <trkpt lat="49.06064" lon="7.38356">
        <ele>398.6</ele>
        <time>2020-06-27T11:25:52Z</time>
      </trkpt>
      <trkpt lat="49.06064" lon="7.38368">
        <ele>398.6</ele>
        <time>2020-06-27T11:25:53Z</time>
      </trkpt>
      <trkpt lat="49.06064" lon="7.3838">
        <ele>398.6</ele>
        <time>2020-06-27T11:25:54Z</time>
      </trkpt>
      <trkpt lat="49.06064" lon="7.38391">
        <ele>398.6</ele>
        <time>2020-06-27T11:25:55Z</time>
      </trkpt>
      <trkpt lat="49.06064" lon="7.38403">
        <ele>398.6</ele>
        <time>2020-06-27T11:25:56Z</time>
      </trkpt>
      <trkpt lat="49.06064" lon="7.38415">
        <ele>398.7</ele>
        <time>2020-06-27T11:25:57Z</time>
      </trkpt>
      <trkpt lat="49.06064" lon="7.38427">
        <ele>398.8</ele>
        <time>2020-06-27T11:25:58Z</time>
      </trkpt>
      <trkpt lat="49.06064" lon="7.38438">
        <ele>399</ele>
        <time>2020-06-27T11:25:59Z</time>
      </trkpt>
      <trkpt lat="49.06065" lon="7.3845">
        <ele>399.2</ele>
        <time>2020-06-27T11:26:00Z</time>
      </trkpt>
      <trkpt lat="49.06065" lon="7.38461">
        <ele>399.5</ele>
        <time>2020-06-27T11:26:01Z</time>
      </trkpt>
      <trkpt lat="49.06065" lon="7.38472">
        <ele>399.6</ele>
        <time>2020-06-27T11:26:02Z</time>
      </trkpt>
      <trkpt lat="49.06065" lon="7.38484">
        <ele>399.6</ele>
        <time>2020-06-27T11:26:03Z</time>
      </trkpt>
      <trkpt lat="49.06066" lon="7.38495">
        <ele>399.6</ele>
        <time>2020-06-27T11:26:04Z</time>
      </trkpt>
      <trkpt lat="49.06066" lon="7.38506">
        <ele>399.6</ele>
        <time>2020-06-27T11:26:05Z</time>
      </trkpt>
      <trkpt lat="49.06066" lon="7.38517">
        <ele>399.6</ele>
        <time>2020-06-27T11:26:06Z</time>
      </trkpt>
      <trkpt lat="49.06066" lon="7.38528">
        <ele>399.6</ele>
        <time>2020-06-27T11:26:07Z</time>
      </trkpt>
      <trkpt lat="49.06066" lon="7.38539">
        <ele>399.7</ele>
        <time>2020-06-27T11:26:08Z</time>
      </trkpt>
      <trkpt lat="49.06066" lon="7.3855">
        <ele>399.7</ele>
        <time>2020-06-27T11:26:09Z</time>
      </trkpt>
      <trkpt lat="49.06067" lon="7.38561">
        <ele>399.8</ele>
        <time>2020-06-27T11:26:10Z</time>
      </trkpt>
      <trkpt lat="49.06067" lon="7.38571">
        <ele>399.9</ele>
        <time>2020-06-27T11:26:11Z</time>
      </trkpt>
      <trkpt lat="49.06067" lon="7.38582">
        <ele>400</ele>
        <time>2020-06-27T11:26:12Z</time>
      </trkpt>
      <trkpt lat="49.06067" lon="7.38592">
        <ele>400.1</ele>
        <time>2020-06-27T11:26:13Z</time>
      </trkpt>
      <trkpt lat="49.06067" lon="7.38603">
        <ele>400.1</ele>
        <time>2020-06-27T11:26:14Z</time>
      </trkpt>
      <trkpt lat="49.06067" lon="7.38613">
        <ele>400.2</ele>
        <time>2020-06-27T11:26:15Z</time>
      </trkpt>
      <trkpt lat="49.06068" lon="7.38624">
        <ele>400.2</ele>
        <time>2020-06-27T11:26:16Z</time>
      </trkpt>
      <trkpt lat="49.06068" lon="7.38634">
        <ele>400.2</ele>
        <time>2020-06-27T11:26:17Z</time>
      </trkpt>
      <trkpt lat="49.06068" lon="7.38644">
        <ele>400.3</ele>
        <time>2020-06-27T11:26:18Z</time>
      </trkpt>
      <trkpt lat="49.06068" lon="7.38654">
        <ele>400.3</ele>
        <time>2020-06-27T11:26:19Z</time>
      </trkpt>
      <trkpt lat="49.06067" lon="7.38663">
        <ele>400.4</ele>
        <time>2020-06-27T11:26:20Z</time>
      </trkpt>
      <trkpt lat="49.06067" lon="7.38673">
        <ele>400.4</ele>
        <time>2020-06-27T11:26:21Z</time>
      </trkpt>
      <trkpt lat="49.06067" lon="7.38682">
        <ele>400.4</ele>
        <time>2020-06-27T11:26:22Z</time>
      </trkpt>
      <trkpt lat="49.06068" lon="7.3869">
        <ele>400.5</ele>
        <time>2020-06-27T11:26:23Z</time>
      </trkpt>
      <trkpt lat="49.06069" lon="7.38699">
        <ele>400.5</ele>
        <time>2020-06-27T11:26:24Z</time>
      </trkpt>
      <trkpt lat="49.06069" lon="7.38708">
        <ele>400.6</ele>
        <time>2020-06-27T11:26:25Z</time>
      </trkpt>
      <trkpt lat="49.06068" lon="7.38717">
        <ele>400.7</ele>
        <time>2020-06-27T11:26:26Z</time>
      </trkpt>
      <trkpt lat="49.06068" lon="7.38726">
        <ele>400.7</ele>
        <time>2020-06-27T11:26:27Z</time>
      </trkpt>
      <trkpt lat="49.06069" lon="7.38735">
        <ele>400.8</ele>
        <time>2020-06-27T11:26:28Z</time>
      </trkpt>
      <trkpt lat="49.06068" lon="7.38743">
        <ele>400.8</ele>
        <time>2020-06-27T11:26:29Z</time>
      </trkpt>
      <trkpt lat="49.06069" lon="7.38754">
        <ele>400.9</ele>
        <time>2020-06-27T11:26:30Z</time>
      </trkpt>
      <trkpt lat="49.0607" lon="7.38763">
        <ele>401</ele>
        <time>2020-06-27T11:26:31Z</time>
      </trkpt>
      <trkpt lat="49.0607" lon="7.38773">
        <ele>401</ele>
        <time>2020-06-27T11:26:32Z</time>
      </trkpt>
      <trkpt lat="49.0607" lon="7.38782">
        <ele>401.1</ele>
        <time>2020-06-27T11:26:33Z</time>
      </trkpt>
      <trkpt lat="49.0607" lon="7.38792">
        <ele>401.1</ele>
        <time>2020-06-27T11:26:34Z</time>
      </trkpt>
      <trkpt lat="49.0607" lon="7.38801">
        <ele>401.2</ele>
        <time>2020-06-27T11:26:35Z</time>
      </trkpt>
      <trkpt lat="49.0607" lon="7.3881">
        <ele>401.3</ele>
        <time>2020-06-27T11:26:36Z</time>
      </trkpt>
      <trkpt lat="49.06071" lon="7.38819">
        <ele>401.4</ele>
        <time>2020-06-27T11:26:37Z</time>
      </trkpt>
      <trkpt lat="49.06071" lon="7.38828">
        <ele>401.5</ele>
        <time>2020-06-27T11:26:38Z</time>
      </trkpt>
      <trkpt lat="49.0607" lon="7.38838">
        <ele>401.7</ele>
        <time>2020-06-27T11:26:39Z</time>
      </trkpt>
      <trkpt lat="49.0607" lon="7.38847">
        <ele>401.8</ele>
        <time>2020-06-27T11:26:40Z</time>
      </trkpt>
      <trkpt lat="49.0607" lon="7.38855">
        <ele>401.8</ele>
        <time>2020-06-27T11:26:41Z</time>
      </trkpt>
      <trkpt lat="49.06071" lon="7.38863">
        <ele>401.9</ele>
        <time>2020-06-27T11:26:42Z</time>
      </trkpt>
      <trkpt lat="49.06072" lon="7.38872">
        <ele>401.9</ele>
        <time>2020-06-27T11:26:43Z</time>
      </trkpt>
      <trkpt lat="49.06072" lon="7.38881">
        <ele>402</ele>
        <time>2020-06-27T11:26:44Z</time>
      </trkpt>
      <trkpt lat="49.06072" lon="7.3889">
        <ele>402.1</ele>
        <time>2020-06-27T11:26:45Z</time>
      </trkpt>
      <trkpt lat="49.06072" lon="7.38899">
        <ele>402.2</ele>
        <time>2020-06-27T11:26:46Z</time>
      </trkpt>
      <trkpt lat="49.06071" lon="7.38906">
        <ele>402.3</ele>
        <time>2020-06-27T11:26:47Z</time>
      </trkpt>
      <trkpt lat="49.06071" lon="7.38916">
        <ele>402.5</ele>
        <time>2020-06-27T11:26:48Z</time>
      </trkpt>
      <trkpt lat="49.0607" lon="7.38925">
        <ele>402.7</ele>
        <time>2020-06-27T11:26:49Z</time>
      </trkpt>
      <trkpt lat="49.06069" lon="7.38934">
        <ele>402.8</ele>
        <time>2020-06-27T11:26:50Z</time>
      </trkpt>
      <trkpt lat="49.06068" lon="7.38942">
        <ele>402.9</ele>
        <time>2020-06-27T11:26:51Z</time>
      </trkpt>
      <trkpt lat="49.06066" lon="7.3895">
        <ele>403</ele>
        <time>2020-06-27T11:26:52Z</time>
      </trkpt>
      <trkpt lat="49.06064" lon="7.38961">
        <ele>403.1</ele>
        <time>2020-06-27T11:26:53Z</time>
      </trkpt>
      <trkpt lat="49.06063" lon="7.38969">
        <ele>403.2</ele>
        <time>2020-06-27T11:26:54Z</time>
      </trkpt>
      <trkpt lat="49.06061" lon="7.38979">
        <ele>403.4</ele>
        <time>2020-06-27T11:26:55Z</time>
      </trkpt>
      <trkpt lat="49.0606" lon="7.38985">
        <ele>403.5</ele>
        <time>2020-06-27T11:26:56Z</time>
      </trkpt>
      <trkpt lat="49.06059" lon="7.38994">
        <ele>403.7</ele>
        <time>2020-06-27T11:26:57Z</time>
      </trkpt>
      <trkpt lat="49.06057" lon="7.39001">
        <ele>403.8</ele>
        <time>2020-06-27T11:26:58Z</time>
      </trkpt>
      <trkpt lat="49.06056" lon="7.39008">
        <ele>403.9</ele>
        <time>2020-06-27T11:26:59Z</time>
      </trkpt>
      <trkpt lat="49.06055" lon="7.39015">
        <ele>404.1</ele>
        <time>2020-06-27T11:27:00Z</time>
      </trkpt>
      <trkpt lat="49.06054" lon="7.39022">
        <ele>404.3</ele>
        <time>2020-06-27T11:27:01Z</time>
      </trkpt>
      <trkpt lat="49.06053" lon="7.3903">
        <ele>404.5</ele>
        <time>2020-06-27T11:27:02Z</time>
      </trkpt>
      <trkpt lat="49.06052" lon="7.39037">
        <ele>404.6</ele>
        <time>2020-06-27T11:27:03Z</time>
      </trkpt>
      <trkpt lat="49.06051" lon="7.39044">
        <ele>404.7</ele>
        <time>2020-06-27T11:27:04Z</time>
      </trkpt>
      <trkpt lat="49.06052" lon="7.39051">
        <ele>404.9</ele>
        <time>2020-06-27T11:27:05Z</time>
      </trkpt>
      <trkpt lat="49.06053" lon="7.39055">
        <ele>405</ele>
        <time>2020-06-27T11:27:06Z</time>
      </trkpt>
      <trkpt lat="49.06055" lon="7.39061">
        <ele>405.1</ele>
        <time>2020-06-27T11:27:07Z</time>
      </trkpt>
      <trkpt lat="49.06056" lon="7.39066">
        <ele>405.3</ele>
        <time>2020-06-27T11:27:08Z</time>
      </trkpt>
      <trkpt lat="49.06057" lon="7.39072">
        <ele>405.4</ele>
        <time>2020-06-27T11:27:09Z</time>
      </trkpt>
      <trkpt lat="49.06058" lon="7.39078">
        <ele>405.9</ele>
        <time>2020-06-27T11:27:10Z</time>
      </trkpt>
      <trkpt lat="49.0606" lon="7.39083">
        <ele>405.9</ele>
        <time>2020-06-27T11:27:11Z</time>
      </trkpt>
      <trkpt lat="49.0606" lon="7.39087">
        <ele>406</ele>
        <time>2020-06-27T11:27:12Z</time>
      </trkpt>
      <trkpt lat="49.06062" lon="7.39092">
        <ele>406</ele>
        <time>2020-06-27T11:27:13Z</time>
      </trkpt>
      <trkpt lat="49.06061" lon="7.39097">
        <ele>406.1</ele>
        <time>2020-06-27T11:27:14Z</time>
      </trkpt>
      <trkpt lat="49.06058" lon="7.39102">
        <ele>406.1</ele>
        <time>2020-06-27T11:27:15Z</time>
      </trkpt>
      <trkpt lat="49.06055" lon="7.39108">
        <ele>406.2</ele>
        <time>2020-06-27T11:27:16Z</time>
      </trkpt>
      <trkpt lat="49.06053" lon="7.39114">
        <ele>406.3</ele>
        <time>2020-06-27T11:27:17Z</time>
      </trkpt>
      <trkpt lat="49.06049" lon="7.39121">
        <ele>406.4</ele>
        <time>2020-06-27T11:27:18Z</time>
      </trkpt>
      <trkpt lat="49.06047" lon="7.39125">
        <ele>406.4</ele>
        <time>2020-06-27T11:27:19Z</time>
      </trkpt>
      <trkpt lat="49.06045" lon="7.39131">
        <ele>406.5</ele>
        <time>2020-06-27T11:27:20Z</time>
      </trkpt>
      <trkpt lat="49.06044" lon="7.39134">
        <ele>406.5</ele>
        <time>2020-06-27T11:27:21Z</time>
      </trkpt>
      <trkpt lat="49.06042" lon="7.39138">
        <ele>406.5</ele>
        <time>2020-06-27T11:27:22Z</time>
      </trkpt>
      <trkpt lat="49.06041" lon="7.3914">
        <ele>406.6</ele>
        <time>2020-06-27T11:27:23Z</time>
      </trkpt>
      <trkpt lat="49.06039" lon="7.39146">
        <ele>406.6</ele>
        <time>2020-06-27T11:27:24Z</time>
      </trkpt>
      <trkpt lat="49.06038" lon="7.39152">
        <ele>406.6</ele>
        <time>2020-06-27T11:27:25Z</time>
      </trkpt>
      <trkpt lat="49.06036" lon="7.39157">
        <ele>406.6</ele>
        <time>2020-06-27T11:27:26Z</time>
      </trkpt>
      <trkpt lat="49.06034" lon="7.39163">
        <ele>406.7</ele>
        <time>2020-06-27T11:27:27Z</time>
      </trkpt>
      <trkpt lat="49.06033" lon="7.39167">
        <ele>406.8</ele>
        <time>2020-06-27T11:27:28Z</time>
      </trkpt>
      <trkpt lat="49.06031" lon="7.39173">
        <ele>406.9</ele>
        <time>2020-06-27T11:27:29Z</time>
      </trkpt>
      <trkpt lat="49.06029" lon="7.39178">
        <ele>406.9</ele>
        <time>2020-06-27T11:27:30Z</time>
      </trkpt>
      <trkpt lat="49.06027" lon="7.39182">
        <ele>407</ele>
        <time>2020-06-27T11:27:31Z</time>
      </trkpt>
      <trkpt lat="49.06025" lon="7.39189">
        <ele>407.1</ele>
        <time>2020-06-27T11:27:32Z</time>
      </trkpt>
      <trkpt lat="49.06023" lon="7.39194">
        <ele>407.2</ele>
        <time>2020-06-27T11:27:33Z</time>
      </trkpt>
      <trkpt lat="49.06021" lon="7.39202">
        <ele>407.4</ele>
        <time>2020-06-27T11:27:34Z</time>
      </trkpt>
      <trkpt lat="49.0602" lon="7.39206">
        <ele>407.5</ele>
        <time>2020-06-27T11:27:35Z</time>
      </trkpt>
      <trkpt lat="49.06019" lon="7.39211">
        <ele>407.6</ele>
        <time>2020-06-27T11:27:36Z</time>
      </trkpt>
      <trkpt lat="49.06018" lon="7.39219">
        <ele>407.8</ele>
        <time>2020-06-27T11:27:37Z</time>
      </trkpt>
      <trkpt lat="49.06016" lon="7.39224">
        <ele>408</ele>
        <time>2020-06-27T11:27:38Z</time>
      </trkpt>
      <trkpt lat="49.06015" lon="7.39231">
        <ele>408.1</ele>
        <time>2020-06-27T11:27:39Z</time>
      </trkpt>
      <trkpt lat="49.06014" lon="7.39236">
        <ele>408.3</ele>
        <time>2020-06-27T11:27:40Z</time>
      </trkpt>
      <trkpt lat="49.06012" lon="7.39242">
        <ele>408.4</ele>
        <time>2020-06-27T11:27:41Z</time>
      </trkpt>
      <trkpt lat="49.06011" lon="7.39247">
        <ele>408.5</ele>
        <time>2020-06-27T11:27:42Z</time>
      </trkpt>
      <trkpt lat="49.06009" lon="7.39254">
        <ele>408.6</ele>
        <time>2020-06-27T11:27:43Z</time>
      </trkpt>
      <trkpt lat="49.06008" lon="7.39261">
        <ele>408.8</ele>
        <time>2020-06-27T11:27:44Z</time>
      </trkpt>
      <trkpt lat="49.06007" lon="7.39267">
        <ele>408.9</ele>
        <time>2020-06-27T11:27:45Z</time>
      </trkpt>
      <trkpt lat="49.06006" lon="7.39274">
        <ele>409</ele>
        <time>2020-06-27T11:27:46Z</time>
      </trkpt>
      <trkpt lat="49.06003" lon="7.3928">
        <ele>409.2</ele>
        <time>2020-06-27T11:27:47Z</time>
      </trkpt>
      <trkpt lat="49.06001" lon="7.39288">
        <ele>409.3</ele>
        <time>2020-06-27T11:27:48Z</time>
      </trkpt>
      <trkpt lat="49.06001" lon="7.39293">
        <ele>409.4</ele>
        <time>2020-06-27T11:27:49Z</time>
      </trkpt>
      <trkpt lat="49.06001" lon="7.39299">
        <ele>409.5</ele>
        <time>2020-06-27T11:27:50Z</time>
      </trkpt>
      <trkpt lat="49.06" lon="7.39305">
        <ele>409.6</ele>
        <time>2020-06-27T11:27:51Z</time>
      </trkpt>
      <trkpt lat="49.05998" lon="7.39313">
        <ele>409.8</ele>
        <time>2020-06-27T11:27:52Z</time>
      </trkpt>
      <trkpt lat="49.05997" lon="7.39318">
        <ele>409.9</ele>
        <time>2020-06-27T11:27:53Z</time>
      </trkpt>
      <trkpt lat="49.05995" lon="7.39327">
        <ele>410.1</ele>
        <time>2020-06-27T11:27:54Z</time>
      </trkpt>
      <trkpt lat="49.05994" lon="7.39331">
        <ele>410.1</ele>
        <time>2020-06-27T11:27:55Z</time>
      </trkpt>
      <trkpt lat="49.05993" lon="7.39338">
        <ele>410.3</ele>
        <time>2020-06-27T11:27:56Z</time>
      </trkpt>
      <trkpt lat="49.05991" lon="7.39346">
        <ele>410.4</ele>
        <time>2020-06-27T11:27:57Z</time>
      </trkpt>
      <trkpt lat="49.0599" lon="7.39352">
        <ele>410.4</ele>
        <time>2020-06-27T11:27:58Z</time>
      </trkpt>
      <trkpt lat="49.05989" lon="7.3936">
        <ele>410.5</ele>
        <time>2020-06-27T11:27:59Z</time>
      </trkpt>
      <trkpt lat="49.05988" lon="7.39369">
        <ele>410.6</ele>
        <time>2020-06-27T11:28:00Z</time>
      </trkpt>
      <trkpt lat="49.05986" lon="7.39377">
        <ele>410.7</ele>
        <time>2020-06-27T11:28:01Z</time>
      </trkpt>
      <trkpt lat="49.05984" lon="7.39386">
        <ele>410.8</ele>
        <time>2020-06-27T11:28:02Z</time>
      </trkpt>
      <trkpt lat="49.05983" lon="7.39394">
        <ele>410.9</ele>
        <time>2020-06-27T11:28:03Z</time>
      </trkpt>
      <trkpt lat="49.05983" lon="7.39403">
        <ele>410.9</ele>
        <time>2020-06-27T11:28:04Z</time>
      </trkpt>
      <trkpt lat="49.05982" lon="7.39408">
        <ele>410.9</ele>
        <time>2020-06-27T11:28:05Z</time>
      </trkpt>
      <trkpt lat="49.0598" lon="7.39414">
        <ele>411</ele>
        <time>2020-06-27T11:28:06Z</time>
      </trkpt>
      <trkpt lat="49.05979" lon="7.39423">
        <ele>411</ele>
        <time>2020-06-27T11:28:07Z</time>
      </trkpt>
      <trkpt lat="49.05977" lon="7.3943">
        <ele>411.1</ele>
        <time>2020-06-27T11:28:08Z</time>
      </trkpt>
      <trkpt lat="49.05976" lon="7.39438">
        <ele>411.1</ele>
        <time>2020-06-27T11:28:09Z</time>
      </trkpt>
      <trkpt lat="49.05975" lon="7.39445">
        <ele>411.1</ele>
        <time>2020-06-27T11:28:10Z</time>
      </trkpt>
      <trkpt lat="49.05973" lon="7.39453">
        <ele>411.2</ele>
        <time>2020-06-27T11:28:11Z</time>
      </trkpt>
      <trkpt lat="49.05971" lon="7.3946">
        <ele>411.2</ele>
        <time>2020-06-27T11:28:12Z</time>
      </trkpt>
      <trkpt lat="49.05969" lon="7.39468">
        <ele>411.2</ele>
        <time>2020-06-27T11:28:13Z</time>
      </trkpt>
      <trkpt lat="49.05967" lon="7.39476">
        <ele>411.2</ele>
        <time>2020-06-27T11:28:14Z</time>
      </trkpt>
      <trkpt lat="49.05965" lon="7.39485">
        <ele>411.2</ele>
        <time>2020-06-27T11:28:15Z</time>
      </trkpt>
      <trkpt lat="49.05964" lon="7.39491">
        <ele>411.2</ele>
        <time>2020-06-27T11:28:16Z</time>
      </trkpt>
      <trkpt lat="49.05963" lon="7.39499">
        <ele>411.1</ele>
        <time>2020-06-27T11:28:17Z</time>
      </trkpt>
      <trkpt lat="49.0596" lon="7.39508">
        <ele>411.1</ele>
        <time>2020-06-27T11:28:18Z</time>
      </trkpt>
      <trkpt lat="49.05959" lon="7.39516">
        <ele>411</ele>
        <time>2020-06-27T11:28:19Z</time>
      </trkpt>
      <trkpt lat="49.05956" lon="7.39525">
        <ele>410.9</ele>
        <time>2020-06-27T11:28:20Z</time>
      </trkpt>
      <trkpt lat="49.05955" lon="7.3953">
        <ele>410.9</ele>
        <time>2020-06-27T11:28:21Z</time>
      </trkpt>
      <trkpt lat="49.05953" lon="7.3954">
        <ele>410.8</ele>
        <time>2020-06-27T11:28:22Z</time>
      </trkpt>
      <trkpt lat="49.05952" lon="7.39548">
        <ele>410.7</ele>
        <time>2020-06-27T11:28:23Z</time>
      </trkpt>
      <trkpt lat="49.05951" lon="7.39559">
        <ele>410.7</ele>
        <time>2020-06-27T11:28:24Z</time>
      </trkpt>
      <trkpt lat="49.0595" lon="7.39565">
        <ele>410.6</ele>
        <time>2020-06-27T11:28:25Z</time>
      </trkpt>
      <trkpt lat="49.05949" lon="7.39572">
        <ele>410.5</ele>
        <time>2020-06-27T11:28:26Z</time>
      </trkpt>
      <trkpt lat="49.05947" lon="7.3958">
        <ele>410.4</ele>
        <time>2020-06-27T11:28:27Z</time>
      </trkpt>
      <trkpt lat="49.05945" lon="7.3959">
        <ele>410.3</ele>
        <time>2020-06-27T11:28:28Z</time>
      </trkpt>
      <trkpt lat="49.05943" lon="7.39599">
        <ele>410.1</ele>
        <time>2020-06-27T11:28:29Z</time>
      </trkpt>
      <trkpt lat="49.05941" lon="7.3961">
        <ele>410</ele>
        <time>2020-06-27T11:28:30Z</time>
      </trkpt>
      <trkpt lat="49.05939" lon="7.39618">
        <ele>409.9</ele>
        <time>2020-06-27T11:28:31Z</time>
      </trkpt>
      <trkpt lat="49.05936" lon="7.39629">
        <ele>409.7</ele>
        <time>2020-06-27T11:28:32Z</time>
      </trkpt>
      <trkpt lat="49.05935" lon="7.39638">
        <ele>409.6</ele>
        <time>2020-06-27T11:28:33Z</time>
      </trkpt>
      <trkpt lat="49.05934" lon="7.39646">
        <ele>409.5</ele>
        <time>2020-06-27T11:28:34Z</time>
      </trkpt>
      <trkpt lat="49.05933" lon="7.39657">
        <ele>409.3</ele>
        <time>2020-06-27T11:28:35Z</time>
      </trkpt>
      <trkpt lat="49.05931" lon="7.39667">
        <ele>409.2</ele>
        <time>2020-06-27T11:28:36Z</time>
      </trkpt>
      <trkpt lat="49.0593" lon="7.39675">
        <ele>409</ele>
        <time>2020-06-27T11:28:37Z</time>
      </trkpt>
      <trkpt lat="49.05928" lon="7.39686">
        <ele>408.8</ele>
        <time>2020-06-27T11:28:38Z</time>
      </trkpt>
      <trkpt lat="49.05925" lon="7.39697">
        <ele>408.6</ele>
        <time>2020-06-27T11:28:39Z</time>
      </trkpt>
      <trkpt lat="49.05924" lon="7.39708">
        <ele>408.4</ele>
        <time>2020-06-27T11:28:40Z</time>
      </trkpt>
      <trkpt lat="49.05922" lon="7.3972">
        <ele>408.2</ele>
        <time>2020-06-27T11:28:41Z</time>
      </trkpt>
      <trkpt lat="49.0592" lon="7.39732">
        <ele>408</ele>
        <time>2020-06-27T11:28:42Z</time>
      </trkpt>
      <trkpt lat="49.05918" lon="7.39743">
        <ele>407.8</ele>
        <time>2020-06-27T11:28:43Z</time>
      </trkpt>
      <trkpt lat="49.05916" lon="7.39753">
        <ele>407.6</ele>
        <time>2020-06-27T11:28:44Z</time>
      </trkpt>
      <trkpt lat="49.05914" lon="7.39764">
        <ele>407.5</ele>
        <time>2020-06-27T11:28:45Z</time>
      </trkpt>
      <trkpt lat="49.05912" lon="7.39775">
        <ele>407.5</ele>
        <time>2020-06-27T11:28:46Z</time>
      </trkpt>
      <trkpt lat="49.0591" lon="7.39785">
        <ele>407.6</ele>
        <time>2020-06-27T11:28:47Z</time>
      </trkpt>
      <trkpt lat="49.05909" lon="7.39796">
        <ele>407.7</ele>
        <time>2020-06-27T11:28:48Z</time>
      </trkpt>
      <trkpt lat="49.05907" lon="7.39807">
        <ele>407.8</ele>
        <time>2020-06-27T11:28:49Z</time>
      </trkpt>
      <trkpt lat="49.05906" lon="7.39818">
        <ele>407.8</ele>
        <time>2020-06-27T11:28:50Z</time>
      </trkpt>
      <trkpt lat="49.05904" lon="7.39828">
        <ele>407.8</ele>
        <time>2020-06-27T11:28:51Z</time>
      </trkpt>
      <trkpt lat="49.05902" lon="7.39838">
        <ele>407.7</ele>
        <time>2020-06-27T11:28:52Z</time>
      </trkpt>
      <trkpt lat="49.059" lon="7.39847">
        <ele>407.7</ele>
        <time>2020-06-27T11:28:53Z</time>
      </trkpt>
      <trkpt lat="49.05898" lon="7.39855">
        <ele>407.7</ele>
        <time>2020-06-27T11:28:54Z</time>
      </trkpt>
      <trkpt lat="49.05897" lon="7.39861">
        <ele>407.7</ele>
        <time>2020-06-27T11:28:55Z</time>
      </trkpt>
      <trkpt lat="49.05896" lon="7.39867">
        <ele>407.7</ele>
        <time>2020-06-27T11:28:56Z</time>
      </trkpt>
      <trkpt lat="49.05894" lon="7.39872">
        <ele>407.7</ele>
        <time>2020-06-27T11:28:57Z</time>
      </trkpt>
      <trkpt lat="49.05893" lon="7.39876">
        <ele>407.7</ele>
        <time>2020-06-27T11:28:58Z</time>
      </trkpt>
      <trkpt lat="49.05891" lon="7.3988">
        <ele>407.7</ele>
        <time>2020-06-27T11:28:59Z</time>
      </trkpt>
      <trkpt lat="49.05891" lon="7.39884">
        <ele>407.8</ele>
        <time>2020-06-27T11:29:00Z</time>
      </trkpt>
      <trkpt lat="49.05892" lon="7.3989">
        <ele>407.8</ele>
        <time>2020-06-27T11:29:01Z</time>
      </trkpt>
      <trkpt lat="49.05892" lon="7.39892">
        <ele>407.8</ele>
        <time>2020-06-27T11:29:02Z</time>
      </trkpt>
      <trkpt lat="49.05892" lon="7.39894">
        <ele>407.8</ele>
        <time>2020-06-27T11:29:03Z</time>
      </trkpt>
      <trkpt lat="49.05892" lon="7.39897">
        <ele>407.8</ele>
        <time>2020-06-27T11:29:04Z</time>
      </trkpt>
      <trkpt lat="49.05896" lon="7.39898">
        <ele>407.5</ele>
        <time>2020-06-27T11:29:05Z</time>
      </trkpt>
      <trkpt lat="49.05898" lon="7.39899">
        <ele>407.4</ele>
        <time>2020-06-27T11:29:06Z</time>
      </trkpt>
      <trkpt lat="49.05903" lon="7.39901">
        <ele>407.2</ele>
        <time>2020-06-27T11:29:07Z</time>
      </trkpt>
      <trkpt lat="49.05907" lon="7.39907">
        <ele>406.9</ele>
        <time>2020-06-27T11:29:08Z</time>
      </trkpt>
      <trkpt lat="49.0591" lon="7.39914">
        <ele>406.6</ele>
        <time>2020-06-27T11:29:09Z</time>
      </trkpt>
      <trkpt lat="49.05913" lon="7.39923">
        <ele>406.3</ele>
        <time>2020-06-27T11:29:10Z</time>
      </trkpt>
      <trkpt lat="49.05914" lon="7.39934">
        <ele>405.9</ele>
        <time>2020-06-27T11:29:11Z</time>
      </trkpt>
      <trkpt lat="49.05915" lon="7.39945">
        <ele>405.6</ele>
        <time>2020-06-27T11:29:12Z</time>
      </trkpt>
      <trkpt lat="49.05915" lon="7.39957">
        <ele>405.4</ele>
        <time>2020-06-27T11:29:13Z</time>
      </trkpt>
      <trkpt lat="49.05916" lon="7.39969">
        <ele>405.3</ele>
        <time>2020-06-27T11:29:14Z</time>
      </trkpt>
      <trkpt lat="49.05917" lon="7.39981">
        <ele>405.2</ele>
        <time>2020-06-27T11:29:15Z</time>
      </trkpt>
      <trkpt lat="49.05918" lon="7.39993">
        <ele>405.2</ele>
        <time>2020-06-27T11:29:16Z</time>
      </trkpt>
      <trkpt lat="49.05919" lon="7.40005">
        <ele>405.2</ele>
        <time>2020-06-27T11:29:17Z</time>
      </trkpt>
      <trkpt lat="49.0592" lon="7.40016">
        <ele>405.3</ele>
        <time>2020-06-27T11:29:18Z</time>
      </trkpt>
      <trkpt lat="49.05922" lon="7.40028">
        <ele>405.4</ele>
        <time>2020-06-27T11:29:19Z</time>
      </trkpt>
      <trkpt lat="49.05923" lon="7.4004">
        <ele>405.6</ele>
        <time>2020-06-27T11:29:20Z</time>
      </trkpt>
      <trkpt lat="49.05924" lon="7.40051">
        <ele>405.7</ele>
        <time>2020-06-27T11:29:21Z</time>
      </trkpt>
      <trkpt lat="49.05925" lon="7.40062">
        <ele>405.8</ele>
        <time>2020-06-27T11:29:22Z</time>
      </trkpt>
      <trkpt lat="49.05927" lon="7.40074">
        <ele>405.9</ele>
        <time>2020-06-27T11:29:23Z</time>
      </trkpt>
      <trkpt lat="49.05928" lon="7.40085">
        <ele>406.1</ele>
        <time>2020-06-27T11:29:24Z</time>
      </trkpt>
      <trkpt lat="49.05928" lon="7.40096">
        <ele>406.3</ele>
        <time>2020-06-27T11:29:25Z</time>
      </trkpt>
      <trkpt lat="49.05929" lon="7.40106">
        <ele>406.5</ele>
        <time>2020-06-27T11:29:26Z</time>
      </trkpt>
      <trkpt lat="49.05929" lon="7.40117">
        <ele>406.7</ele>
        <time>2020-06-27T11:29:27Z</time>
      </trkpt>
      <trkpt lat="49.0593" lon="7.40127">
        <ele>406.8</ele>
        <time>2020-06-27T11:29:28Z</time>
      </trkpt>
      <trkpt lat="49.0593" lon="7.40137">
        <ele>407</ele>
        <time>2020-06-27T11:29:29Z</time>
      </trkpt>
      <trkpt lat="49.05931" lon="7.40147">
        <ele>407.2</ele>
        <time>2020-06-27T11:29:30Z</time>
      </trkpt>
      <trkpt lat="49.05931" lon="7.40157">
        <ele>407.4</ele>
        <time>2020-06-27T11:29:31Z</time>
      </trkpt>
      <trkpt lat="49.05932" lon="7.40166">
        <ele>407.6</ele>
        <time>2020-06-27T11:29:32Z</time>
      </trkpt>
      <trkpt lat="49.05933" lon="7.40175">
        <ele>407.7</ele>
        <time>2020-06-27T11:29:33Z</time>
      </trkpt>
      <trkpt lat="49.05934" lon="7.40184">
        <ele>407.9</ele>
        <time>2020-06-27T11:29:34Z</time>
      </trkpt>
      <trkpt lat="49.05935" lon="7.40192">
        <ele>408</ele>
        <time>2020-06-27T11:29:35Z</time>
      </trkpt>
      <trkpt lat="49.05935" lon="7.402">
        <ele>408.1</ele>
        <time>2020-06-27T11:29:36Z</time>
      </trkpt>
      <trkpt lat="49.05936" lon="7.40208">
        <ele>408.2</ele>
        <time>2020-06-27T11:29:37Z</time>
      </trkpt>
      <trkpt lat="49.05936" lon="7.40216">
        <ele>408.4</ele>
        <time>2020-06-27T11:29:38Z</time>
      </trkpt>
      <trkpt lat="49.05936" lon="7.40224">
        <ele>408.4</ele>
        <time>2020-06-27T11:29:39Z</time>
      </trkpt>
      <trkpt lat="49.05936" lon="7.40231">
        <ele>408.5</ele>
        <time>2020-06-27T11:29:40Z</time>
      </trkpt>
      <trkpt lat="49.05936" lon="7.40239">
        <ele>408.5</ele>
        <time>2020-06-27T11:29:41Z</time>
      </trkpt>
      <trkpt lat="49.05936" lon="7.40247">
        <ele>408.5</ele>
        <time>2020-06-27T11:29:42Z</time>
      </trkpt>
      <trkpt lat="49.05936" lon="7.40254">
        <ele>408.5</ele>
        <time>2020-06-27T11:29:43Z</time>
      </trkpt>
      <trkpt lat="49.05935" lon="7.40261">
        <ele>408.5</ele>
        <time>2020-06-27T11:29:44Z</time>
      </trkpt>
      <trkpt lat="49.05933" lon="7.40268">
        <ele>408.5</ele>
        <time>2020-06-27T11:29:45Z</time>
      </trkpt>
      <trkpt lat="49.05932" lon="7.40276">
        <ele>408.5</ele>
        <time>2020-06-27T11:29:46Z</time>
      </trkpt>
      <trkpt lat="49.0593" lon="7.40282">
        <ele>408.4</ele>
        <time>2020-06-27T11:29:47Z</time>
      </trkpt>
      <trkpt lat="49.05928" lon="7.40289">
        <ele>408.4</ele>
        <time>2020-06-27T11:29:48Z</time>
      </trkpt>
      <trkpt lat="49.05927" lon="7.40296">
        <ele>408.3</ele>
        <time>2020-06-27T11:29:49Z</time>
      </trkpt>
      <trkpt lat="49.05925" lon="7.40304">
        <ele>408.2</ele>
        <time>2020-06-27T11:29:50Z</time>
      </trkpt>
      <trkpt lat="49.05923" lon="7.40313">
        <ele>407.6</ele>
        <time>2020-06-27T11:29:51Z</time>
      </trkpt>
      <trkpt lat="49.05922" lon="7.40322">
        <ele>407.3</ele>
        <time>2020-06-27T11:29:52Z</time>
      </trkpt>
      <trkpt lat="49.05921" lon="7.40332">
        <ele>406.9</ele>
        <time>2020-06-27T11:29:53Z</time>
      </trkpt>
      <trkpt lat="49.05918" lon="7.40341">
        <ele>406.5</ele>
        <time>2020-06-27T11:29:54Z</time>
      </trkpt>
      <trkpt lat="49.05916" lon="7.40351">
        <ele>406</ele>
        <time>2020-06-27T11:29:55Z</time>
      </trkpt>
      <trkpt lat="49.05913" lon="7.40362">
        <ele>405.5</ele>
        <time>2020-06-27T11:29:56Z</time>
      </trkpt>
      <trkpt lat="49.0591" lon="7.40373">
        <ele>404.8</ele>
        <time>2020-06-27T11:29:57Z</time>
      </trkpt>
      <trkpt lat="49.05908" lon="7.40387">
        <ele>404</ele>
        <time>2020-06-27T11:29:58Z</time>
      </trkpt>
      <trkpt lat="49.05906" lon="7.40401">
        <ele>403.2</ele>
        <time>2020-06-27T11:29:59Z</time>
      </trkpt>
      <trkpt lat="49.05903" lon="7.40415">
        <ele>402.2</ele>
        <time>2020-06-27T11:30:00Z</time>
      </trkpt>
      <trkpt lat="49.05899" lon="7.4043">
        <ele>401.2</ele>
        <time>2020-06-27T11:30:01Z</time>
      </trkpt>
      <trkpt lat="49.05895" lon="7.40445">
        <ele>400</ele>
        <time>2020-06-27T11:30:02Z</time>
      </trkpt>
      <trkpt lat="49.0589" lon="7.40461">
        <ele>398.8</ele>
        <time>2020-06-27T11:30:03Z</time>
      </trkpt>
      <trkpt lat="49.05886" lon="7.40478">
        <ele>397.5</ele>
        <time>2020-06-27T11:30:04Z</time>
      </trkpt>
      <trkpt lat="49.05883" lon="7.40496">
        <ele>396.3</ele>
        <time>2020-06-27T11:30:05Z</time>
      </trkpt>
      <trkpt lat="49.05879" lon="7.40514">
        <ele>394.7</ele>
        <time>2020-06-27T11:30:06Z</time>
      </trkpt>
      <trkpt lat="49.05876" lon="7.40533">
        <ele>393.2</ele>
        <time>2020-06-27T11:30:07Z</time>
      </trkpt>
      <trkpt lat="49.05871" lon="7.40553">
        <ele>391.6</ele>
        <time>2020-06-27T11:30:08Z</time>
      </trkpt>
      <trkpt lat="49.05865" lon="7.40572">
        <ele>389.9</ele>
        <time>2020-06-27T11:30:09Z</time>
      </trkpt>
      <trkpt lat="49.05861" lon="7.40592">
        <ele>388.2</ele>
        <time>2020-06-27T11:30:10Z</time>
      </trkpt>
      <trkpt lat="49.05856" lon="7.40613">
        <ele>386.7</ele>
        <time>2020-06-27T11:30:11Z</time>
      </trkpt>
      <trkpt lat="49.05851" lon="7.40634">
        <ele>385.2</ele>
        <time>2020-06-27T11:30:12Z</time>
      </trkpt>
      <trkpt lat="49.05845" lon="7.40655">
        <ele>384.1</ele>
        <time>2020-06-27T11:30:13Z</time>
      </trkpt>
      <trkpt lat="49.0584" lon="7.40677">
        <ele>382.5</ele>
        <time>2020-06-27T11:30:14Z</time>
      </trkpt>
      <trkpt lat="49.05835" lon="7.40699">
        <ele>380.9</ele>
        <time>2020-06-27T11:30:15Z</time>
      </trkpt>
      <trkpt lat="49.0583" lon="7.40721">
        <ele>379.2</ele>
        <time>2020-06-27T11:30:16Z</time>
      </trkpt>
      <trkpt lat="49.05827" lon="7.40747">
        <ele>377.3</ele>
        <time>2020-06-27T11:30:17Z</time>
      </trkpt>
      <trkpt lat="49.05823" lon="7.40771">
        <ele>375.5</ele>
        <time>2020-06-27T11:30:18Z</time>
      </trkpt>
      <trkpt lat="49.05819" lon="7.40796">
        <ele>373.5</ele>
        <time>2020-06-27T11:30:19Z</time>
      </trkpt>
      <trkpt lat="49.05812" lon="7.40818">
        <ele>371.6</ele>
        <time>2020-06-27T11:30:20Z</time>
      </trkpt>
      <trkpt lat="49.05803" lon="7.40846">
        <ele>369.2</ele>
        <time>2020-06-27T11:30:21Z</time>
      </trkpt>
      <trkpt lat="49.05797" lon="7.40873">
        <ele>367</ele>
        <time>2020-06-27T11:30:22Z</time>
      </trkpt>
      <trkpt lat="49.05794" lon="7.40898">
        <ele>365.2</ele>
        <time>2020-06-27T11:30:23Z</time>
      </trkpt>
      <trkpt lat="49.05789" lon="7.40923">
        <ele>363.4</ele>
        <time>2020-06-27T11:30:24Z</time>
      </trkpt>
      <trkpt lat="49.05784" lon="7.40948">
        <ele>361.4</ele>
        <time>2020-06-27T11:30:25Z</time>
      </trkpt>
      <trkpt lat="49.05777" lon="7.40972">
        <ele>359.5</ele>
        <time>2020-06-27T11:30:26Z</time>
      </trkpt>
      <trkpt lat="49.05771" lon="7.40997">
        <ele>357.4</ele>
        <time>2020-06-27T11:30:27Z</time>
      </trkpt>
      <trkpt lat="49.05765" lon="7.41022">
        <ele>355.2</ele>
        <time>2020-06-27T11:30:28Z</time>
      </trkpt>
      <trkpt lat="49.05761" lon="7.41049">
        <ele>353</ele>
        <time>2020-06-27T11:30:29Z</time>
      </trkpt>
      <trkpt lat="49.05756" lon="7.41078">
        <ele>350.7</ele>
        <time>2020-06-27T11:30:30Z</time>
      </trkpt>
      <trkpt lat="49.05752" lon="7.41101">
        <ele>349</ele>
        <time>2020-06-27T11:30:31Z</time>
      </trkpt>
      <trkpt lat="49.05752" lon="7.41128">
        <ele>347.1</ele>
        <time>2020-06-27T11:30:32Z</time>
      </trkpt>
      <trkpt lat="49.05753" lon="7.41157">
        <ele>345.1</ele>
        <time>2020-06-27T11:30:33Z</time>
      </trkpt>
      <trkpt lat="49.05751" lon="7.41178">
        <ele>343.5</ele>
        <time>2020-06-27T11:30:34Z</time>
      </trkpt>
      <trkpt lat="49.0575" lon="7.41199">
        <ele>341.9</ele>
        <time>2020-06-27T11:30:35Z</time>
      </trkpt>
      <trkpt lat="49.05751" lon="7.41223">
        <ele>340</ele>
        <time>2020-06-27T11:30:36Z</time>
      </trkpt>
      <trkpt lat="49.05749" lon="7.41245">
        <ele>338.3</ele>
        <time>2020-06-27T11:30:37Z</time>
      </trkpt>
      <trkpt lat="49.05745" lon="7.41266">
        <ele>336.6</ele>
        <time>2020-06-27T11:30:38Z</time>
      </trkpt>
      <trkpt lat="49.05736" lon="7.41287">
        <ele>334.5</ele>
        <time>2020-06-27T11:30:39Z</time>
      </trkpt>
      <trkpt lat="49.05727" lon="7.41305">
        <ele>332.6</ele>
        <time>2020-06-27T11:30:40Z</time>
      </trkpt>
      <trkpt lat="49.05717" lon="7.41325">
        <ele>330.6</ele>
        <time>2020-06-27T11:30:41Z</time>
      </trkpt>
      <trkpt lat="49.05706" lon="7.41344">
        <ele>328.7</ele>
        <time>2020-06-27T11:30:42Z</time>
      </trkpt>
      <trkpt lat="49.05696" lon="7.41364">
        <ele>326.7</ele>
        <time>2020-06-27T11:30:43Z</time>
      </trkpt>
      <trkpt lat="49.05686" lon="7.41384">
        <ele>324.8</ele>
        <time>2020-06-27T11:30:44Z</time>
      </trkpt>
      <trkpt lat="49.05675" lon="7.41404">
        <ele>323</ele>
        <time>2020-06-27T11:30:45Z</time>
      </trkpt>
      <trkpt lat="49.05666" lon="7.41429">
        <ele>320.9</ele>
        <time>2020-06-27T11:30:46Z</time>
      </trkpt>
      <trkpt lat="49.05658" lon="7.41453">
        <ele>318.8</ele>
        <time>2020-06-27T11:30:47Z</time>
      </trkpt>
      <trkpt lat="49.05649" lon="7.41474">
        <ele>317</ele>
        <time>2020-06-27T11:30:48Z</time>
      </trkpt>
      <trkpt lat="49.0564" lon="7.41495">
        <ele>315.3</ele>
        <time>2020-06-27T11:30:49Z</time>
      </trkpt>
      <trkpt lat="49.0563" lon="7.4151">
        <ele>313.9</ele>
        <time>2020-06-27T11:30:50Z</time>
      </trkpt>
      <trkpt lat="49.05625" lon="7.41535">
        <ele>312.2</ele>
        <time>2020-06-27T11:30:51Z</time>
      </trkpt>
      <trkpt lat="49.05616" lon="7.41549">
        <ele>310.9</ele>
        <time>2020-06-27T11:30:52Z</time>
      </trkpt>
      <trkpt lat="49.05607" lon="7.41565">
        <ele>309.6</ele>
        <time>2020-06-27T11:30:53Z</time>
      </trkpt>
      <trkpt lat="49.05601" lon="7.41586">
        <ele>308.2</ele>
        <time>2020-06-27T11:30:54Z</time>
      </trkpt>
      <trkpt lat="49.05592" lon="7.41602">
        <ele>307.1</ele>
        <time>2020-06-27T11:30:55Z</time>
      </trkpt>
      <trkpt lat="49.05586" lon="7.41615">
        <ele>306.3</ele>
        <time>2020-06-27T11:30:56Z</time>
      </trkpt>
      <trkpt lat="49.05581" lon="7.41627">
        <ele>305.6</ele>
        <time>2020-06-27T11:30:57Z</time>
      </trkpt>
      <trkpt lat="49.05579" lon="7.41636">
        <ele>305.1</ele>
        <time>2020-06-27T11:30:58Z</time>
      </trkpt>
      <trkpt lat="49.05576" lon="7.41645">
        <ele>304.6</ele>
        <time>2020-06-27T11:30:59Z</time>
      </trkpt>
      <trkpt lat="49.05573" lon="7.41653">
        <ele>304.1</ele>
        <time>2020-06-27T11:31:00Z</time>
      </trkpt>
      <trkpt lat="49.0557" lon="7.41661">
        <ele>303.7</ele>
        <time>2020-06-27T11:31:01Z</time>
      </trkpt>
      <trkpt lat="49.05568" lon="7.41671">
        <ele>303.2</ele>
        <time>2020-06-27T11:31:02Z</time>
      </trkpt>
      <trkpt lat="49.05565" lon="7.41682">
        <ele>302.6</ele>
        <time>2020-06-27T11:31:03Z</time>
      </trkpt>
      <trkpt lat="49.0556" lon="7.41692">
        <ele>302</ele>
        <time>2020-06-27T11:31:04Z</time>
      </trkpt>
      <trkpt lat="49.05555" lon="7.41702">
        <ele>301.5</ele>
        <time>2020-06-27T11:31:05Z</time>
      </trkpt>
      <trkpt lat="49.05551" lon="7.41712">
        <ele>301</ele>
        <time>2020-06-27T11:31:06Z</time>
      </trkpt>
      <trkpt lat="49.05547" lon="7.41717">
        <ele>300.7</ele>
        <time>2020-06-27T11:31:07Z</time>
      </trkpt>
      <trkpt lat="49.05543" lon="7.41727">
        <ele>300.3</ele>
        <time>2020-06-27T11:31:08Z</time>
      </trkpt>
      <trkpt lat="49.05538" lon="7.41733">
        <ele>300</ele>
        <time>2020-06-27T11:31:09Z</time>
      </trkpt>
      <trkpt lat="49.05534" lon="7.41742">
        <ele>299.7</ele>
        <time>2020-06-27T11:31:10Z</time>
      </trkpt>
      <trkpt lat="49.05532" lon="7.41754">
        <ele>299.3</ele>
        <time>2020-06-27T11:31:11Z</time>
      </trkpt>
      <trkpt lat="49.05525" lon="7.41758">
        <ele>299</ele>
        <time>2020-06-27T11:31:12Z</time>
      </trkpt>
      <trkpt lat="49.05523" lon="7.41767">
        <ele>298.8</ele>
        <time>2020-06-27T11:31:13Z</time>
      </trkpt>
      <trkpt lat="49.0552" lon="7.41778">
        <ele>298.2</ele>
        <time>2020-06-27T11:31:14Z</time>
      </trkpt>
      <trkpt lat="49.05516" lon="7.41787">
        <ele>298</ele>
        <time>2020-06-27T11:31:15Z</time>
      </trkpt>
      <trkpt lat="49.05512" lon="7.41791">
        <ele>297.8</ele>
        <time>2020-06-27T11:31:16Z</time>
      </trkpt>
      <trkpt lat="49.0551" lon="7.41802">
        <ele>297.5</ele>
        <time>2020-06-27T11:31:17Z</time>
      </trkpt>
      <trkpt lat="49.05506" lon="7.4181">
        <ele>297.3</ele>
        <time>2020-06-27T11:31:18Z</time>
      </trkpt>
      <trkpt lat="49.05501" lon="7.4182">
        <ele>297.1</ele>
        <time>2020-06-27T11:31:19Z</time>
      </trkpt>
      <trkpt lat="49.05496" lon="7.41828">
        <ele>297</ele>
        <time>2020-06-27T11:31:20Z</time>
      </trkpt>
      <trkpt lat="49.05492" lon="7.41841">
        <ele>296.4</ele>
        <time>2020-06-27T11:31:21Z</time>
      </trkpt>
      <trkpt lat="49.05487" lon="7.4185">
        <ele>295.9</ele>
        <time>2020-06-27T11:31:22Z</time>
      </trkpt>
      <trkpt lat="49.05483" lon="7.41861">
        <ele>295.4</ele>
        <time>2020-06-27T11:31:23Z</time>
      </trkpt>
      <trkpt lat="49.05476" lon="7.41866">
        <ele>295</ele>
        <time>2020-06-27T11:31:24Z</time>
      </trkpt>
      <trkpt lat="49.05474" lon="7.41879">
        <ele>294.7</ele>
        <time>2020-06-27T11:31:25Z</time>
      </trkpt>
      <trkpt lat="49.0547" lon="7.4189">
        <ele>294.4</ele>
        <time>2020-06-27T11:31:26Z</time>
      </trkpt>
      <trkpt lat="49.05466" lon="7.419">
        <ele>294</ele>
        <time>2020-06-27T11:31:27Z</time>
      </trkpt>
      <trkpt lat="49.05462" lon="7.41909">
        <ele>293.6</ele>
        <time>2020-06-27T11:31:28Z</time>
      </trkpt>
      <trkpt lat="49.05459" lon="7.41916">
        <ele>293.3</ele>
        <time>2020-06-27T11:31:29Z</time>
      </trkpt>
      <trkpt lat="49.05459" lon="7.41927">
        <ele>293</ele>
        <time>2020-06-27T11:31:30Z</time>
      </trkpt>
      <trkpt lat="49.05453" lon="7.41935">
        <ele>292.6</ele>
        <time>2020-06-27T11:31:31Z</time>
      </trkpt>
      <trkpt lat="49.05451" lon="7.41944">
        <ele>292.4</ele>
        <time>2020-06-27T11:31:32Z</time>
      </trkpt>
      <trkpt lat="49.05447" lon="7.41952">
        <ele>292.1</ele>
        <time>2020-06-27T11:31:33Z</time>
      </trkpt>
      <trkpt lat="49.0544" lon="7.4196">
        <ele>291.8</ele>
        <time>2020-06-27T11:31:34Z</time>
      </trkpt>
      <trkpt lat="49.05439" lon="7.41974">
        <ele>291.5</ele>
        <time>2020-06-27T11:31:35Z</time>
      </trkpt>
      <trkpt lat="49.05433" lon="7.41984">
        <ele>291.2</ele>
        <time>2020-06-27T11:31:36Z</time>
      </trkpt>
      <trkpt lat="49.05428" lon="7.41991">
        <ele>290.9</ele>
        <time>2020-06-27T11:31:37Z</time>
      </trkpt>
      <trkpt lat="49.05424" lon="7.42001">
        <ele>290.6</ele>
        <time>2020-06-27T11:31:38Z</time>
      </trkpt>
      <trkpt lat="49.05418" lon="7.42009">
        <ele>290.3</ele>
        <time>2020-06-27T11:31:39Z</time>
      </trkpt>
      <trkpt lat="49.05413" lon="7.42019">
        <ele>290</ele>
        <time>2020-06-27T11:31:40Z</time>
      </trkpt>
      <trkpt lat="49.05409" lon="7.42029">
        <ele>289.8</ele>
        <time>2020-06-27T11:31:41Z</time>
      </trkpt>
      <trkpt lat="49.05407" lon="7.42042">
        <ele>289.5</ele>
        <time>2020-06-27T11:31:42Z</time>
      </trkpt>
      <trkpt lat="49.05401" lon="7.42049">
        <ele>289.4</ele>
        <time>2020-06-27T11:31:43Z</time>
      </trkpt>
      <trkpt lat="49.05398" lon="7.4206">
        <ele>289.3</ele>
        <time>2020-06-27T11:31:44Z</time>
      </trkpt>
      <trkpt lat="49.05394" lon="7.42068">
        <ele>289.3</ele>
        <time>2020-06-27T11:31:45Z</time>
      </trkpt>
      <trkpt lat="49.05392" lon="7.42073">
        <ele>289.2</ele>
        <time>2020-06-27T11:31:46Z</time>
      </trkpt>
      <trkpt lat="49.05389" lon="7.42079">
        <ele>289</ele>
        <time>2020-06-27T11:31:47Z</time>
      </trkpt>
      <trkpt lat="49.05386" lon="7.42083">
        <ele>288.8</ele>
        <time>2020-06-27T11:31:48Z</time>
      </trkpt>
      <trkpt lat="49.05385" lon="7.42089">
        <ele>288.7</ele>
        <time>2020-06-27T11:31:49Z</time>
      </trkpt>
      <trkpt lat="49.05385" lon="7.42097">
        <ele>288.4</ele>
        <time>2020-06-27T11:31:50Z</time>
      </trkpt>
      <trkpt lat="49.05377" lon="7.42101">
        <ele>288.2</ele>
        <time>2020-06-27T11:31:51Z</time>
      </trkpt>
      <trkpt lat="49.05373" lon="7.42109">
        <ele>288</ele>
        <time>2020-06-27T11:31:52Z</time>
      </trkpt>
      <trkpt lat="49.05373" lon="7.42118">
        <ele>287.9</ele>
        <time>2020-06-27T11:31:53Z</time>
      </trkpt>
      <trkpt lat="49.05368" lon="7.42122">
        <ele>287.9</ele>
        <time>2020-06-27T11:31:54Z</time>
      </trkpt>
      <trkpt lat="49.05365" lon="7.42132">
        <ele>287.8</ele>
        <time>2020-06-27T11:31:55Z</time>
      </trkpt>
      <trkpt lat="49.05363" lon="7.42135">
        <ele>287.8</ele>
        <time>2020-06-27T11:31:56Z</time>
      </trkpt>
      <trkpt lat="49.05362" lon="7.42143">
        <ele>287.7</ele>
        <time>2020-06-27T11:31:57Z</time>
      </trkpt>
      <trkpt lat="49.05362" lon="7.4215">
        <ele>287.6</ele>
        <time>2020-06-27T11:31:58Z</time>
      </trkpt>
      <trkpt lat="49.05358" lon="7.42156">
        <ele>287.6</ele>
        <time>2020-06-27T11:31:59Z</time>
      </trkpt>
      <trkpt lat="49.05355" lon="7.42163">
        <ele>287.6</ele>
        <time>2020-06-27T11:32:00Z</time>
      </trkpt>
      <trkpt lat="49.05352" lon="7.42171">
        <ele>287.6</ele>
        <time>2020-06-27T11:32:01Z</time>
      </trkpt>
      <trkpt lat="49.05348" lon="7.42178">
        <ele>287.7</ele>
        <time>2020-06-27T11:32:02Z</time>
      </trkpt>
      <trkpt lat="49.05345" lon="7.42183">
        <ele>287.7</ele>
        <time>2020-06-27T11:32:03Z</time>
      </trkpt>
      <trkpt lat="49.05343" lon="7.42189">
        <ele>287.8</ele>
        <time>2020-06-27T11:32:04Z</time>
      </trkpt>
      <trkpt lat="49.0534" lon="7.42196">
        <ele>288</ele>
        <time>2020-06-27T11:32:05Z</time>
      </trkpt>
      <trkpt lat="49.05338" lon="7.422">
        <ele>288.1</ele>
        <time>2020-06-27T11:32:06Z</time>
      </trkpt>
      <trkpt lat="49.05337" lon="7.42206">
        <ele>288.2</ele>
        <time>2020-06-27T11:32:07Z</time>
      </trkpt>
      <trkpt lat="49.05334" lon="7.42209">
        <ele>288.3</ele>
        <time>2020-06-27T11:32:08Z</time>
      </trkpt>
      <trkpt lat="49.05333" lon="7.42214">
        <ele>288.4</ele>
        <time>2020-06-27T11:32:09Z</time>
      </trkpt>
      <trkpt lat="49.0533" lon="7.4222">
        <ele>288.7</ele>
        <time>2020-06-27T11:32:10Z</time>
      </trkpt>
      <trkpt lat="49.05328" lon="7.42225">
        <ele>288.8</ele>
        <time>2020-06-27T11:32:11Z</time>
      </trkpt>
      <trkpt lat="49.05325" lon="7.42233">
        <ele>289.1</ele>
        <time>2020-06-27T11:32:12Z</time>
      </trkpt>
      <trkpt lat="49.05323" lon="7.42236">
        <ele>289.6</ele>
        <time>2020-06-27T11:32:13Z</time>
      </trkpt>
      <trkpt lat="49.05318" lon="7.42246">
        <ele>289.7</ele>
        <time>2020-06-27T11:32:14Z</time>
      </trkpt>
      <trkpt lat="49.05316" lon="7.42253">
        <ele>289.8</ele>
        <time>2020-06-27T11:32:15Z</time>
      </trkpt>
      <trkpt lat="49.05315" lon="7.42258">
        <ele>289.9</ele>
        <time>2020-06-27T11:32:16Z</time>
      </trkpt>
      <trkpt lat="49.05312" lon="7.42263">
        <ele>290</ele>
        <time>2020-06-27T11:32:17Z</time>
      </trkpt>
      <trkpt lat="49.0531" lon="7.42265">
        <ele>290</ele>
        <time>2020-06-27T11:32:18Z</time>
      </trkpt>
      <trkpt lat="49.05308" lon="7.42268">
        <ele>290.1</ele>
        <time>2020-06-27T11:32:19Z</time>
      </trkpt>
      <trkpt lat="49.05308" lon="7.4227">
        <ele>290.1</ele>
        <time>2020-06-27T11:32:20Z</time>
      </trkpt>
      <trkpt lat="49.05305" lon="7.42273">
        <ele>290.1</ele>
        <time>2020-06-27T11:32:21Z</time>
      </trkpt>
      <trkpt lat="49.05304" lon="7.42274">
        <ele>290.2</ele>
        <time>2020-06-27T11:32:22Z</time>
      </trkpt>
      <trkpt lat="49.05305" lon="7.4228">
        <ele>290.2</ele>
        <time>2020-06-27T11:32:23Z</time>
      </trkpt>
      <trkpt lat="49.05304" lon="7.4228">
        <ele>290.2</ele>
        <time>2020-06-27T11:32:24Z</time>
      </trkpt>
      <trkpt lat="49.05302" lon="7.42282">
        <ele>290.3</ele>
        <time>2020-06-27T11:32:25Z</time>
      </trkpt>
      <trkpt lat="49.05302" lon="7.42284">
        <ele>290.3</ele>
        <time>2020-06-27T11:32:26Z</time>
      </trkpt>
      <trkpt lat="49.05302" lon="7.42285">
        <ele>290.3</ele>
        <time>2020-06-27T11:32:27Z</time>
      </trkpt>
      <trkpt lat="49.05302" lon="7.42285">
        <ele>290.3</ele>
        <time>2020-06-27T11:32:28Z</time>
      </trkpt>
      <trkpt lat="49.05302" lon="7.42286">
        <ele>290.3</ele>
        <time>2020-06-27T11:32:29Z</time>
      </trkpt>
      <trkpt lat="49.05302" lon="7.42286">
        <ele>290.3</ele>
        <time>2020-06-27T11:32:30Z</time>
      </trkpt>
      <trkpt lat="49.05302" lon="7.42287">
        <ele>290.4</ele>
        <time>2020-06-27T11:32:31Z</time>
      </trkpt>
      <trkpt lat="49.05302" lon="7.42287">
        <ele>290.4</ele>
        <time>2020-06-27T11:32:32Z</time>
      </trkpt>
      <trkpt lat="49.05302" lon="7.42287">
        <ele>290.4</ele>
        <time>2020-06-27T11:32:33Z</time>
      </trkpt>
      <trkpt lat="49.05302" lon="7.42288">
        <ele>290.4</ele>
        <time>2020-06-27T11:32:34Z</time>
      </trkpt>
      <trkpt lat="49.05302" lon="7.42288">
        <ele>290.4</ele>
        <time>2020-06-27T11:33:53Z</time>
      </trkpt>
      <trkpt lat="49.05302" lon="7.42289">
        <ele>290.4</ele>
        <time>2020-06-27T11:33:54Z</time>
      </trkpt>
      <trkpt lat="49.05302" lon="7.42289">
        <ele>290.4</ele>
        <time>2020-06-27T11:33:55Z</time>
      </trkpt>
      <trkpt lat="49.05301" lon="7.42291">
        <ele>290.4</ele>
        <time>2020-06-27T11:33:56Z</time>
      </trkpt>
      <trkpt lat="49.05302" lon="7.42294">
        <ele>290.4</ele>
        <time>2020-06-27T11:33:57Z</time>
      </trkpt>
      <trkpt lat="49.05301" lon="7.42296">
        <ele>290.5</ele>
        <time>2020-06-27T11:33:58Z</time>
      </trkpt>
      <trkpt lat="49.05301" lon="7.42299">
        <ele>290.5</ele>
        <time>2020-06-27T11:33:59Z</time>
      </trkpt>
      <trkpt lat="49.053" lon="7.42303">
        <ele>290.6</ele>
        <time>2020-06-27T11:34:00Z</time>
      </trkpt>
      <trkpt lat="49.05299" lon="7.42305">
        <ele>290.6</ele>
        <time>2020-06-27T11:34:01Z</time>
      </trkpt>
      <trkpt lat="49.05298" lon="7.42309">
        <ele>290.7</ele>
        <time>2020-06-27T11:34:02Z</time>
      </trkpt>
      <trkpt lat="49.05295" lon="7.42313">
        <ele>290.7</ele>
        <time>2020-06-27T11:34:03Z</time>
      </trkpt>
      <trkpt lat="49.05294" lon="7.42317">
        <ele>290.8</ele>
        <time>2020-06-27T11:34:04Z</time>
      </trkpt>
      <trkpt lat="49.05293" lon="7.42323">
        <ele>290.9</ele>
        <time>2020-06-27T11:34:05Z</time>
      </trkpt>
      <trkpt lat="49.05292" lon="7.42328">
        <ele>290.9</ele>
        <time>2020-06-27T11:34:06Z</time>
      </trkpt>
      <trkpt lat="49.05293" lon="7.42333">
        <ele>291</ele>
        <time>2020-06-27T11:34:07Z</time>
      </trkpt>
      <trkpt lat="49.05292" lon="7.42338">
        <ele>291.1</ele>
        <time>2020-06-27T11:34:08Z</time>
      </trkpt>
      <trkpt lat="49.05291" lon="7.42342">
        <ele>291.1</ele>
        <time>2020-06-27T11:34:09Z</time>
      </trkpt>
      <trkpt lat="49.05291" lon="7.42347">
        <ele>291.2</ele>
        <time>2020-06-27T11:34:10Z</time>
      </trkpt>
      <trkpt lat="49.0529" lon="7.42351">
        <ele>291.2</ele>
        <time>2020-06-27T11:34:11Z</time>
      </trkpt>
      <trkpt lat="49.05288" lon="7.42355">
        <ele>291.2</ele>
        <time>2020-06-27T11:34:12Z</time>
      </trkpt>
      <trkpt lat="49.05286" lon="7.4236">
        <ele>291.2</ele>
        <time>2020-06-27T11:34:13Z</time>
      </trkpt>
      <trkpt lat="49.05285" lon="7.42365">
        <ele>291.2</ele>
        <time>2020-06-27T11:34:14Z</time>
      </trkpt>
      <trkpt lat="49.05283" lon="7.4237">
        <ele>291.2</ele>
        <time>2020-06-27T11:34:15Z</time>
      </trkpt>
      <trkpt lat="49.0528" lon="7.42375">
        <ele>291.2</ele>
        <time>2020-06-27T11:34:16Z</time>
      </trkpt>
      <trkpt lat="49.05277" lon="7.42381">
        <ele>291.2</ele>
        <time>2020-06-27T11:34:17Z</time>
      </trkpt>
      <trkpt lat="49.05276" lon="7.42387">
        <ele>291.2</ele>
        <time>2020-06-27T11:34:18Z</time>
      </trkpt>
      <trkpt lat="49.05274" lon="7.42392">
        <ele>291.2</ele>
        <time>2020-06-27T11:34:19Z</time>
      </trkpt>
      <trkpt lat="49.05273" lon="7.42397">
        <ele>291.2</ele>
        <time>2020-06-27T11:34:20Z</time>
      </trkpt>
      <trkpt lat="49.05271" lon="7.42402">
        <ele>291.2</ele>
        <time>2020-06-27T11:34:21Z</time>
      </trkpt>
      <trkpt lat="49.05269" lon="7.42407">
        <ele>291.3</ele>
        <time>2020-06-27T11:34:22Z</time>
      </trkpt>
      <trkpt lat="49.05267" lon="7.42413">
        <ele>291.3</ele>
        <time>2020-06-27T11:34:23Z</time>
      </trkpt>
      <trkpt lat="49.05265" lon="7.42419">
        <ele>291.2</ele>
        <time>2020-06-27T11:34:24Z</time>
      </trkpt>
      <trkpt lat="49.05263" lon="7.42425">
        <ele>291.2</ele>
        <time>2020-06-27T11:34:25Z</time>
      </trkpt>
      <trkpt lat="49.05262" lon="7.4243">
        <ele>291.2</ele>
        <time>2020-06-27T11:34:26Z</time>
      </trkpt>
      <trkpt lat="49.05261" lon="7.42437">
        <ele>291.2</ele>
        <time>2020-06-27T11:34:27Z</time>
      </trkpt>
      <trkpt lat="49.05259" lon="7.42442">
        <ele>291.2</ele>
        <time>2020-06-27T11:34:28Z</time>
      </trkpt>
      <trkpt lat="49.05257" lon="7.42447">
        <ele>291.2</ele>
        <time>2020-06-27T11:34:29Z</time>
      </trkpt>
      <trkpt lat="49.05256" lon="7.42453">
        <ele>291.1</ele>
        <time>2020-06-27T11:34:30Z</time>
      </trkpt>
      <trkpt lat="49.05255" lon="7.42459">
        <ele>291.1</ele>
        <time>2020-06-27T11:34:31Z</time>
      </trkpt>
      <trkpt lat="49.05254" lon="7.42464">
        <ele>291.1</ele>
        <time>2020-06-27T11:34:32Z</time>
      </trkpt>
      <trkpt lat="49.05253" lon="7.42469">
        <ele>291.1</ele>
        <time>2020-06-27T11:34:33Z</time>
      </trkpt>
      <trkpt lat="49.05252" lon="7.42473">
        <ele>291</ele>
        <time>2020-06-27T11:34:34Z</time>
      </trkpt>
      <trkpt lat="49.05251" lon="7.42478">
        <ele>291</ele>
        <time>2020-06-27T11:34:35Z</time>
      </trkpt>
      <trkpt lat="49.0525" lon="7.4248">
        <ele>291</ele>
        <time>2020-06-27T11:34:36Z</time>
      </trkpt>
      <trkpt lat="49.05248" lon="7.42484">
        <ele>291</ele>
        <time>2020-06-27T11:34:37Z</time>
      </trkpt>
      <trkpt lat="49.05248" lon="7.42488">
        <ele>291</ele>
        <time>2020-06-27T11:34:38Z</time>
      </trkpt>
      <trkpt lat="49.05247" lon="7.42493">
        <ele>291</ele>
        <time>2020-06-27T11:34:39Z</time>
      </trkpt>
      <trkpt lat="49.05246" lon="7.42498">
        <ele>291</ele>
        <time>2020-06-27T11:34:40Z</time>
      </trkpt>
      <trkpt lat="49.05245" lon="7.42503">
        <ele>291</ele>
        <time>2020-06-27T11:34:41Z</time>
      </trkpt>
      <trkpt lat="49.05244" lon="7.42508">
        <ele>290.9</ele>
        <time>2020-06-27T11:34:42Z</time>
      </trkpt>
      <trkpt lat="49.05242" lon="7.42513">
        <ele>290.9</ele>
        <time>2020-06-27T11:34:43Z</time>
      </trkpt>
      <trkpt lat="49.0524" lon="7.42518">
        <ele>290.9</ele>
        <time>2020-06-27T11:34:44Z</time>
      </trkpt>
      <trkpt lat="49.05239" lon="7.42523">
        <ele>290.8</ele>
        <time>2020-06-27T11:34:45Z</time>
      </trkpt>
      <trkpt lat="49.05237" lon="7.42529">
        <ele>290.8</ele>
        <time>2020-06-27T11:34:46Z</time>
      </trkpt>
      <trkpt lat="49.05235" lon="7.42535">
        <ele>290.7</ele>
        <time>2020-06-27T11:34:47Z</time>
      </trkpt>
      <trkpt lat="49.05233" lon="7.4254">
        <ele>290.7</ele>
        <time>2020-06-27T11:34:48Z</time>
      </trkpt>
      <trkpt lat="49.05232" lon="7.42545">
        <ele>290.7</ele>
        <time>2020-06-27T11:34:49Z</time>
      </trkpt>
      <trkpt lat="49.05231" lon="7.4255">
        <ele>290.7</ele>
        <time>2020-06-27T11:34:50Z</time>
      </trkpt>
      <trkpt lat="49.05229" lon="7.42555">
        <ele>290.7</ele>
        <time>2020-06-27T11:34:51Z</time>
      </trkpt>
      <trkpt lat="49.05228" lon="7.4256">
        <ele>290.8</ele>
        <time>2020-06-27T11:34:52Z</time>
      </trkpt>
      <trkpt lat="49.05226" lon="7.42564">
        <ele>290.8</ele>
        <time>2020-06-27T11:34:53Z</time>
      </trkpt>
      <trkpt lat="49.05225" lon="7.42568">
        <ele>290.9</ele>
        <time>2020-06-27T11:34:54Z</time>
      </trkpt>
      <trkpt lat="49.05224" lon="7.42573">
        <ele>290.9</ele>
        <time>2020-06-27T11:34:55Z</time>
      </trkpt>
      <trkpt lat="49.05222" lon="7.42576">
        <ele>290.9</ele>
        <time>2020-06-27T11:34:56Z</time>
      </trkpt>
      <trkpt lat="49.05221" lon="7.4258">
        <ele>290.9</ele>
        <time>2020-06-27T11:34:57Z</time>
      </trkpt>
      <trkpt lat="49.05222" lon="7.42586">
        <ele>290.9</ele>
        <time>2020-06-27T11:34:58Z</time>
      </trkpt>
      <trkpt lat="49.05222" lon="7.42589">
        <ele>291.1</ele>
        <time>2020-06-27T11:34:59Z</time>
      </trkpt>
      <trkpt lat="49.05223" lon="7.42593">
        <ele>291.2</ele>
        <time>2020-06-27T11:35:00Z</time>
      </trkpt>
      <trkpt lat="49.05225" lon="7.42597">
        <ele>291.4</ele>
        <time>2020-06-27T11:35:01Z</time>
      </trkpt>
      <trkpt lat="49.05228" lon="7.42601">
        <ele>291.5</ele>
        <time>2020-06-27T11:35:02Z</time>
      </trkpt>
      <trkpt lat="49.05229" lon="7.42603">
        <ele>291.5</ele>
        <time>2020-06-27T11:35:03Z</time>
      </trkpt>
      <trkpt lat="49.05232" lon="7.42606">
        <ele>291.7</ele>
        <time>2020-06-27T11:35:04Z</time>
      </trkpt>
      <trkpt lat="49.05232" lon="7.42608">
        <ele>291.7</ele>
        <time>2020-06-27T11:35:05Z</time>
      </trkpt>
      <trkpt lat="49.05234" lon="7.42611">
        <ele>291.8</ele>
        <time>2020-06-27T11:35:06Z</time>
      </trkpt>
      <trkpt lat="49.05235" lon="7.42612">
        <ele>291.9</ele>
        <time>2020-06-27T11:35:07Z</time>
      </trkpt>
      <trkpt lat="49.05238" lon="7.42617">
        <ele>292</ele>
        <time>2020-06-27T11:35:08Z</time>
      </trkpt>
      <trkpt lat="49.05239" lon="7.42618">
        <ele>292.1</ele>
        <time>2020-06-27T11:35:09Z</time>
      </trkpt>
      <trkpt lat="49.05241" lon="7.42622">
        <ele>292.2</ele>
        <time>2020-06-27T11:35:10Z</time>
      </trkpt>
      <trkpt lat="49.05244" lon="7.42625">
        <ele>292.3</ele>
        <time>2020-06-27T11:35:11Z</time>
      </trkpt>
      <trkpt lat="49.05246" lon="7.42629">
        <ele>292.5</ele>
        <time>2020-06-27T11:35:12Z</time>
      </trkpt>
      <trkpt lat="49.05249" lon="7.42633">
        <ele>292.7</ele>
        <time>2020-06-27T11:35:13Z</time>
      </trkpt>
      <trkpt lat="49.05251" lon="7.42636">
        <ele>292.8</ele>
        <time>2020-06-27T11:35:14Z</time>
      </trkpt>
      <trkpt lat="49.05253" lon="7.42639">
        <ele>292.9</ele>
        <time>2020-06-27T11:35:15Z</time>
      </trkpt>
      <trkpt lat="49.05256" lon="7.42642">
        <ele>293.1</ele>
        <time>2020-06-27T11:35:16Z</time>
      </trkpt>
      <trkpt lat="49.05258" lon="7.42645">
        <ele>293.2</ele>
        <time>2020-06-27T11:35:17Z</time>
      </trkpt>
      <trkpt lat="49.0526" lon="7.4265">
        <ele>293.4</ele>
        <time>2020-06-27T11:35:18Z</time>
      </trkpt>
      <trkpt lat="49.05262" lon="7.42655">
        <ele>293.6</ele>
        <time>2020-06-27T11:35:19Z</time>
      </trkpt>
      <trkpt lat="49.05264" lon="7.42658">
        <ele>293.7</ele>
        <time>2020-06-27T11:35:20Z</time>
      </trkpt>
      <trkpt lat="49.05267" lon="7.42661">
        <ele>293.9</ele>
        <time>2020-06-27T11:35:21Z</time>
      </trkpt>
      <trkpt lat="49.05269" lon="7.42664">
        <ele>294</ele>
        <time>2020-06-27T11:35:22Z</time>
      </trkpt>
      <trkpt lat="49.05272" lon="7.42668">
        <ele>294.2</ele>
        <time>2020-06-27T11:35:23Z</time>
      </trkpt>
      <trkpt lat="49.05273" lon="7.4267">
        <ele>294.3</ele>
        <time>2020-06-27T11:35:24Z</time>
      </trkpt>
      <trkpt lat="49.05274" lon="7.42674">
        <ele>294.4</ele>
        <time>2020-06-27T11:35:25Z</time>
      </trkpt>
      <trkpt lat="49.05276" lon="7.42679">
        <ele>294.6</ele>
        <time>2020-06-27T11:35:26Z</time>
      </trkpt>
      <trkpt lat="49.05279" lon="7.42684">
        <ele>294.8</ele>
        <time>2020-06-27T11:35:27Z</time>
      </trkpt>
      <trkpt lat="49.05281" lon="7.42688">
        <ele>294.9</ele>
        <time>2020-06-27T11:35:28Z</time>
      </trkpt>
      <trkpt lat="49.05284" lon="7.42692">
        <ele>295.1</ele>
        <time>2020-06-27T11:35:29Z</time>
      </trkpt>
      <trkpt lat="49.05287" lon="7.42696">
        <ele>295.3</ele>
        <time>2020-06-27T11:35:30Z</time>
      </trkpt>
      <trkpt lat="49.05289" lon="7.427">
        <ele>295.5</ele>
        <time>2020-06-27T11:35:31Z</time>
      </trkpt>
      <trkpt lat="49.0529" lon="7.42702">
        <ele>295.6</ele>
        <time>2020-06-27T11:35:32Z</time>
      </trkpt>
      <trkpt lat="49.05292" lon="7.42704">
        <ele>295.7</ele>
        <time>2020-06-27T11:35:33Z</time>
      </trkpt>
      <trkpt lat="49.05295" lon="7.42708">
        <ele>295.9</ele>
        <time>2020-06-27T11:35:34Z</time>
      </trkpt>
      <trkpt lat="49.05296" lon="7.42709">
        <ele>296</ele>
        <time>2020-06-27T11:35:35Z</time>
      </trkpt>
      <trkpt lat="49.05298" lon="7.42713">
        <ele>296.1</ele>
        <time>2020-06-27T11:35:36Z</time>
      </trkpt>
      <trkpt lat="49.053" lon="7.42716">
        <ele>296.3</ele>
        <time>2020-06-27T11:35:37Z</time>
      </trkpt>
      <trkpt lat="49.05303" lon="7.42719">
        <ele>296.4</ele>
        <time>2020-06-27T11:35:38Z</time>
      </trkpt>
      <trkpt lat="49.05304" lon="7.42723">
        <ele>296.6</ele>
        <time>2020-06-27T11:35:39Z</time>
      </trkpt>
      <trkpt lat="49.05306" lon="7.42728">
        <ele>296.7</ele>
        <time>2020-06-27T11:35:40Z</time>
      </trkpt>
      <trkpt lat="49.05307" lon="7.4273">
        <ele>296.8</ele>
        <time>2020-06-27T11:35:41Z</time>
      </trkpt>
      <trkpt lat="49.05309" lon="7.42733">
        <ele>296.9</ele>
        <time>2020-06-27T11:35:42Z</time>
      </trkpt>
      <trkpt lat="49.05312" lon="7.42736">
        <ele>297</ele>
        <time>2020-06-27T11:35:43Z</time>
      </trkpt>
      <trkpt lat="49.05314" lon="7.42738">
        <ele>297.1</ele>
        <time>2020-06-27T11:35:44Z</time>
      </trkpt>
      <trkpt lat="49.05316" lon="7.42742">
        <ele>297.2</ele>
        <time>2020-06-27T11:35:45Z</time>
      </trkpt>
      <trkpt lat="49.05319" lon="7.42745">
        <ele>297.3</ele>
        <time>2020-06-27T11:35:46Z</time>
      </trkpt>
      <trkpt lat="49.05321" lon="7.42747">
        <ele>297.4</ele>
        <time>2020-06-27T11:35:47Z</time>
      </trkpt>
      <trkpt lat="49.05324" lon="7.42751">
        <ele>297.5</ele>
        <time>2020-06-27T11:35:48Z</time>
      </trkpt>
      <trkpt lat="49.05326" lon="7.42754">
        <ele>297.6</ele>
        <time>2020-06-27T11:35:49Z</time>
      </trkpt>
      <trkpt lat="49.0533" lon="7.42758">
        <ele>297.8</ele>
        <time>2020-06-27T11:35:50Z</time>
      </trkpt>
      <trkpt lat="49.05332" lon="7.42762">
        <ele>297.9</ele>
        <time>2020-06-27T11:35:51Z</time>
      </trkpt>
      <trkpt lat="49.05335" lon="7.42765">
        <ele>298</ele>
        <time>2020-06-27T11:35:52Z</time>
      </trkpt>
      <trkpt lat="49.05338" lon="7.42768">
        <ele>298.1</ele>
        <time>2020-06-27T11:35:53Z</time>
      </trkpt>
      <trkpt lat="49.05339" lon="7.42769">
        <ele>298.1</ele>
        <time>2020-06-27T11:35:54Z</time>
      </trkpt>
      <trkpt lat="49.05341" lon="7.42774">
        <ele>298.2</ele>
        <time>2020-06-27T11:35:55Z</time>
      </trkpt>
      <trkpt lat="49.05342" lon="7.42776">
        <ele>298.3</ele>
        <time>2020-06-27T11:35:56Z</time>
      </trkpt>
      <trkpt lat="49.05344" lon="7.4278">
        <ele>298.3</ele>
        <time>2020-06-27T11:35:57Z</time>
      </trkpt>
      <trkpt lat="49.05346" lon="7.42783">
        <ele>298.4</ele>
        <time>2020-06-27T11:35:58Z</time>
      </trkpt>
      <trkpt lat="49.05349" lon="7.42787">
        <ele>298.5</ele>
        <time>2020-06-27T11:35:59Z</time>
      </trkpt>
      <trkpt lat="49.0535" lon="7.42789">
        <ele>298.5</ele>
        <time>2020-06-27T11:36:00Z</time>
      </trkpt>
      <trkpt lat="49.05351" lon="7.42793">
        <ele>298.5</ele>
        <time>2020-06-27T11:36:01Z</time>
      </trkpt>
      <trkpt lat="49.05353" lon="7.42798">
        <ele>298.6</ele>
        <time>2020-06-27T11:36:02Z</time>
      </trkpt>
      <trkpt lat="49.05355" lon="7.42801">
        <ele>298.6</ele>
        <time>2020-06-27T11:36:03Z</time>
      </trkpt>
      <trkpt lat="49.05358" lon="7.42806">
        <ele>298.7</ele>
        <time>2020-06-27T11:36:04Z</time>
      </trkpt>
      <trkpt lat="49.0536" lon="7.4281">
        <ele>298.7</ele>
        <time>2020-06-27T11:36:05Z</time>
      </trkpt>
      <trkpt lat="49.05363" lon="7.42813">
        <ele>298.7</ele>
        <time>2020-06-27T11:36:06Z</time>
      </trkpt>
      <trkpt lat="49.05365" lon="7.42815">
        <ele>298.7</ele>
        <time>2020-06-27T11:36:07Z</time>
      </trkpt>
      <trkpt lat="49.05367" lon="7.4282">
        <ele>298.8</ele>
        <time>2020-06-27T11:36:08Z</time>
      </trkpt>
      <trkpt lat="49.0537" lon="7.42822">
        <ele>298.8</ele>
        <time>2020-06-27T11:36:09Z</time>
      </trkpt>
      <trkpt lat="49.05372" lon="7.42827">
        <ele>298.8</ele>
        <time>2020-06-27T11:36:10Z</time>
      </trkpt>
      <trkpt lat="49.05374" lon="7.42831">
        <ele>298.8</ele>
        <time>2020-06-27T11:36:11Z</time>
      </trkpt>
      <trkpt lat="49.05377" lon="7.42835">
        <ele>298.7</ele>
        <time>2020-06-27T11:36:12Z</time>
      </trkpt>
      <trkpt lat="49.05379" lon="7.4284">
        <ele>298.5</ele>
        <time>2020-06-27T11:36:13Z</time>
      </trkpt>
      <trkpt lat="49.05382" lon="7.42844">
        <ele>298.4</ele>
        <time>2020-06-27T11:36:14Z</time>
      </trkpt>
      <trkpt lat="49.05386" lon="7.42848">
        <ele>298.3</ele>
        <time>2020-06-27T11:36:15Z</time>
      </trkpt>
      <trkpt lat="49.05388" lon="7.42853">
        <ele>298.2</ele>
        <time>2020-06-27T11:36:16Z</time>
      </trkpt>
      <trkpt lat="49.05391" lon="7.42857">
        <ele>298.1</ele>
        <time>2020-06-27T11:36:17Z</time>
      </trkpt>
      <trkpt lat="49.05394" lon="7.42861">
        <ele>298</ele>
        <time>2020-06-27T11:36:18Z</time>
      </trkpt>
      <trkpt lat="49.05397" lon="7.42866">
        <ele>297.9</ele>
        <time>2020-06-27T11:36:19Z</time>
      </trkpt>
      <trkpt lat="49.054" lon="7.42873">
        <ele>297.7</ele>
        <time>2020-06-27T11:36:20Z</time>
      </trkpt>
      <trkpt lat="49.05404" lon="7.42878">
        <ele>297.5</ele>
        <time>2020-06-27T11:36:21Z</time>
      </trkpt>
      <trkpt lat="49.05408" lon="7.42882">
        <ele>297.2</ele>
        <time>2020-06-27T11:36:22Z</time>
      </trkpt>
      <trkpt lat="49.05412" lon="7.42887">
        <ele>297</ele>
        <time>2020-06-27T11:36:23Z</time>
      </trkpt>
      <trkpt lat="49.05415" lon="7.42892">
        <ele>296.9</ele>
        <time>2020-06-27T11:36:24Z</time>
      </trkpt>
      <trkpt lat="49.05418" lon="7.42898">
        <ele>296.6</ele>
        <time>2020-06-27T11:36:25Z</time>
      </trkpt>
      <trkpt lat="49.05421" lon="7.42902">
        <ele>296.4</ele>
        <time>2020-06-27T11:36:26Z</time>
      </trkpt>
      <trkpt lat="49.05425" lon="7.42909">
        <ele>296.2</ele>
        <time>2020-06-27T11:36:27Z</time>
      </trkpt>
      <trkpt lat="49.05429" lon="7.42914">
        <ele>296</ele>
        <time>2020-06-27T11:36:28Z</time>
      </trkpt>
      <trkpt lat="49.05432" lon="7.42922">
        <ele>295.7</ele>
        <time>2020-06-27T11:36:29Z</time>
      </trkpt>
      <trkpt lat="49.05437" lon="7.42928">
        <ele>295.4</ele>
        <time>2020-06-27T11:36:30Z</time>
      </trkpt>
      <trkpt lat="49.05442" lon="7.42934">
        <ele>295</ele>
        <time>2020-06-27T11:36:31Z</time>
      </trkpt>
      <trkpt lat="49.05446" lon="7.42941">
        <ele>294.9</ele>
        <time>2020-06-27T11:36:32Z</time>
      </trkpt>
      <trkpt lat="49.05452" lon="7.42946">
        <ele>294.7</ele>
        <time>2020-06-27T11:36:33Z</time>
      </trkpt>
      <trkpt lat="49.05455" lon="7.42953">
        <ele>294.6</ele>
        <time>2020-06-27T11:36:34Z</time>
      </trkpt>
      <trkpt lat="49.0546" lon="7.42959">
        <ele>294.6</ele>
        <time>2020-06-27T11:36:35Z</time>
      </trkpt>
      <trkpt lat="49.05465" lon="7.42965">
        <ele>294.5</ele>
        <time>2020-06-27T11:36:36Z</time>
      </trkpt>
      <trkpt lat="49.05469" lon="7.42973">
        <ele>294.4</ele>
        <time>2020-06-27T11:36:37Z</time>
      </trkpt>
      <trkpt lat="49.05473" lon="7.42978">
        <ele>294.5</ele>
        <time>2020-06-27T11:36:38Z</time>
      </trkpt>
      <trkpt lat="49.05477" lon="7.42985">
        <ele>294.5</ele>
        <time>2020-06-27T11:36:39Z</time>
      </trkpt>
      <trkpt lat="49.05481" lon="7.42991">
        <ele>294.6</ele>
        <time>2020-06-27T11:36:40Z</time>
      </trkpt>
      <trkpt lat="49.05485" lon="7.42998">
        <ele>294.7</ele>
        <time>2020-06-27T11:36:41Z</time>
      </trkpt>
      <trkpt lat="49.05489" lon="7.43005">
        <ele>294.9</ele>
        <time>2020-06-27T11:36:42Z</time>
      </trkpt>
      <trkpt lat="49.05491" lon="7.43012">
        <ele>295</ele>
        <time>2020-06-27T11:36:43Z</time>
      </trkpt>
      <trkpt lat="49.05495" lon="7.43018">
        <ele>295.2</ele>
        <time>2020-06-27T11:36:44Z</time>
      </trkpt>
      <trkpt lat="49.05498" lon="7.43023">
        <ele>295.3</ele>
        <time>2020-06-27T11:36:45Z</time>
      </trkpt>
      <trkpt lat="49.05501" lon="7.43028">
        <ele>295.5</ele>
        <time>2020-06-27T11:36:46Z</time>
      </trkpt>
      <trkpt lat="49.05503" lon="7.43035">
        <ele>295.7</ele>
        <time>2020-06-27T11:36:47Z</time>
      </trkpt>
      <trkpt lat="49.05506" lon="7.4304">
        <ele>295.8</ele>
        <time>2020-06-27T11:36:48Z</time>
      </trkpt>
      <trkpt lat="49.05508" lon="7.43044">
        <ele>295.9</ele>
        <time>2020-06-27T11:36:49Z</time>
      </trkpt>
      <trkpt lat="49.05511" lon="7.43049">
        <ele>296.1</ele>
        <time>2020-06-27T11:36:50Z</time>
      </trkpt>
      <trkpt lat="49.05513" lon="7.43052">
        <ele>296.2</ele>
        <time>2020-06-27T11:36:51Z</time>
      </trkpt>
      <trkpt lat="49.05517" lon="7.43055">
        <ele>296.4</ele>
        <time>2020-06-27T11:36:52Z</time>
      </trkpt>
      <trkpt lat="49.05519" lon="7.4306">
        <ele>296.5</ele>
        <time>2020-06-27T11:36:53Z</time>
      </trkpt>
      <trkpt lat="49.05522" lon="7.43068">
        <ele>296.8</ele>
        <time>2020-06-27T11:36:54Z</time>
      </trkpt>
      <trkpt lat="49.05523" lon="7.43075">
        <ele>297</ele>
        <time>2020-06-27T11:36:55Z</time>
      </trkpt>
      <trkpt lat="49.05524" lon="7.43081">
        <ele>297.1</ele>
        <time>2020-06-27T11:36:56Z</time>
      </trkpt>
      <trkpt lat="49.05524" lon="7.43087">
        <ele>297.4</ele>
        <time>2020-06-27T11:36:57Z</time>
      </trkpt>
      <trkpt lat="49.05526" lon="7.43092">
        <ele>297.6</ele>
        <time>2020-06-27T11:36:58Z</time>
      </trkpt>
      <trkpt lat="49.05526" lon="7.43098">
        <ele>297.8</ele>
        <time>2020-06-27T11:36:59Z</time>
      </trkpt>
      <trkpt lat="49.05526" lon="7.43102">
        <ele>297.9</ele>
        <time>2020-06-27T11:37:00Z</time>
      </trkpt>
      <trkpt lat="49.05528" lon="7.43108">
        <ele>298</ele>
        <time>2020-06-27T11:37:01Z</time>
      </trkpt>
      <trkpt lat="49.05529" lon="7.43114">
        <ele>298.2</ele>
        <time>2020-06-27T11:37:02Z</time>
      </trkpt>
      <trkpt lat="49.0553" lon="7.43119">
        <ele>298.3</ele>
        <time>2020-06-27T11:37:03Z</time>
      </trkpt>
      <trkpt lat="49.05532" lon="7.43124">
        <ele>298.5</ele>
        <time>2020-06-27T11:37:04Z</time>
      </trkpt>
      <trkpt lat="49.05532" lon="7.43131">
        <ele>298.6</ele>
        <time>2020-06-27T11:37:05Z</time>
      </trkpt>
      <trkpt lat="49.05533" lon="7.43137">
        <ele>298.7</ele>
        <time>2020-06-27T11:37:06Z</time>
      </trkpt>
      <trkpt lat="49.05534" lon="7.43141">
        <ele>298.8</ele>
        <time>2020-06-27T11:37:07Z</time>
      </trkpt>
      <trkpt lat="49.05535" lon="7.43148">
        <ele>298.9</ele>
        <time>2020-06-27T11:37:08Z</time>
      </trkpt>
      <trkpt lat="49.05537" lon="7.43154">
        <ele>299</ele>
        <time>2020-06-27T11:37:09Z</time>
      </trkpt>
      <trkpt lat="49.0554" lon="7.4316">
        <ele>299.1</ele>
        <time>2020-06-27T11:37:10Z</time>
      </trkpt>
      <trkpt lat="49.05541" lon="7.43166">
        <ele>299.2</ele>
        <time>2020-06-27T11:37:11Z</time>
      </trkpt>
      <trkpt lat="49.05543" lon="7.43172">
        <ele>299.3</ele>
        <time>2020-06-27T11:37:12Z</time>
      </trkpt>
      <trkpt lat="49.05545" lon="7.43178">
        <ele>299.4</ele>
        <time>2020-06-27T11:37:13Z</time>
      </trkpt>
      <trkpt lat="49.05547" lon="7.43185">
        <ele>299.6</ele>
        <time>2020-06-27T11:37:14Z</time>
      </trkpt>
      <trkpt lat="49.05549" lon="7.43193">
        <ele>299.8</ele>
        <time>2020-06-27T11:37:15Z</time>
      </trkpt>
      <trkpt lat="49.05549" lon="7.432">
        <ele>299.9</ele>
        <time>2020-06-27T11:37:16Z</time>
      </trkpt>
      <trkpt lat="49.0555" lon="7.43203">
        <ele>300</ele>
        <time>2020-06-27T11:37:17Z</time>
      </trkpt>
      <trkpt lat="49.05552" lon="7.43209">
        <ele>300.2</ele>
        <time>2020-06-27T11:37:18Z</time>
      </trkpt>
      <trkpt lat="49.05554" lon="7.43215">
        <ele>300.3</ele>
        <time>2020-06-27T11:37:19Z</time>
      </trkpt>
      <trkpt lat="49.05554" lon="7.4322">
        <ele>300.4</ele>
        <time>2020-06-27T11:37:20Z</time>
      </trkpt>
      <trkpt lat="49.05554" lon="7.43228">
        <ele>300.6</ele>
        <time>2020-06-27T11:37:21Z</time>
      </trkpt>
      <trkpt lat="49.05555" lon="7.43234">
        <ele>300.8</ele>
        <time>2020-06-27T11:37:22Z</time>
      </trkpt>
      <trkpt lat="49.05557" lon="7.4324">
        <ele>300.9</ele>
        <time>2020-06-27T11:37:23Z</time>
      </trkpt>
      <trkpt lat="49.05558" lon="7.43247">
        <ele>301.1</ele>
        <time>2020-06-27T11:37:24Z</time>
      </trkpt>
      <trkpt lat="49.05559" lon="7.43253">
        <ele>301.3</ele>
        <time>2020-06-27T11:37:25Z</time>
      </trkpt>
      <trkpt lat="49.05561" lon="7.43261">
        <ele>301.6</ele>
        <time>2020-06-27T11:37:26Z</time>
      </trkpt>
      <trkpt lat="49.05562" lon="7.43265">
        <ele>301.7</ele>
        <time>2020-06-27T11:37:27Z</time>
      </trkpt>
      <trkpt lat="49.05563" lon="7.4327">
        <ele>301.9</ele>
        <time>2020-06-27T11:37:28Z</time>
      </trkpt>
      <trkpt lat="49.05564" lon="7.43276">
        <ele>302.1</ele>
        <time>2020-06-27T11:37:29Z</time>
      </trkpt>
      <trkpt lat="49.05563" lon="7.43283">
        <ele>302.3</ele>
        <time>2020-06-27T11:37:30Z</time>
      </trkpt>
      <trkpt lat="49.05564" lon="7.4329">
        <ele>302.5</ele>
        <time>2020-06-27T11:37:31Z</time>
      </trkpt>
      <trkpt lat="49.05565" lon="7.43295">
        <ele>302.6</ele>
        <time>2020-06-27T11:37:32Z</time>
      </trkpt>
      <trkpt lat="49.05566" lon="7.433">
        <ele>302.7</ele>
        <time>2020-06-27T11:37:33Z</time>
      </trkpt>
      <trkpt lat="49.05567" lon="7.43305">
        <ele>302.7</ele>
        <time>2020-06-27T11:37:34Z</time>
      </trkpt>
      <trkpt lat="49.05568" lon="7.4331">
        <ele>302.8</ele>
        <time>2020-06-27T11:37:35Z</time>
      </trkpt>
      <trkpt lat="49.05569" lon="7.43317">
        <ele>302.9</ele>
        <time>2020-06-27T11:37:36Z</time>
      </trkpt>
      <trkpt lat="49.05571" lon="7.43322">
        <ele>303</ele>
        <time>2020-06-27T11:37:37Z</time>
      </trkpt>
      <trkpt lat="49.05573" lon="7.43329">
        <ele>303.1</ele>
        <time>2020-06-27T11:37:38Z</time>
      </trkpt>
      <trkpt lat="49.05574" lon="7.43334">
        <ele>303.4</ele>
        <time>2020-06-27T11:37:39Z</time>
      </trkpt>
      <trkpt lat="49.05576" lon="7.4334">
        <ele>303.5</ele>
        <time>2020-06-27T11:37:40Z</time>
      </trkpt>
      <trkpt lat="49.05577" lon="7.43345">
        <ele>303.7</ele>
        <time>2020-06-27T11:37:41Z</time>
      </trkpt>
      <trkpt lat="49.05578" lon="7.43349">
        <ele>303.8</ele>
        <time>2020-06-27T11:37:42Z</time>
      </trkpt>
      <trkpt lat="49.0558" lon="7.43355">
        <ele>304</ele>
        <time>2020-06-27T11:37:43Z</time>
      </trkpt>
      <trkpt lat="49.05581" lon="7.43359">
        <ele>304.1</ele>
        <time>2020-06-27T11:37:44Z</time>
      </trkpt>
      <trkpt lat="49.05582" lon="7.43365">
        <ele>304.3</ele>
        <time>2020-06-27T11:37:45Z</time>
      </trkpt>
      <trkpt lat="49.05583" lon="7.43371">
        <ele>304.5</ele>
        <time>2020-06-27T11:37:46Z</time>
      </trkpt>
      <trkpt lat="49.05585" lon="7.43377">
        <ele>304.7</ele>
        <time>2020-06-27T11:37:47Z</time>
      </trkpt>
      <trkpt lat="49.05586" lon="7.43379">
        <ele>304.8</ele>
        <time>2020-06-27T11:37:48Z</time>
      </trkpt>
      <trkpt lat="49.05588" lon="7.43384">
        <ele>304.9</ele>
        <time>2020-06-27T11:37:49Z</time>
      </trkpt>
      <trkpt lat="49.05588" lon="7.43386">
        <ele>305</ele>
        <time>2020-06-27T11:37:50Z</time>
      </trkpt>
      <trkpt lat="49.0559" lon="7.43392">
        <ele>305.1</ele>
        <time>2020-06-27T11:37:51Z</time>
      </trkpt>
      <trkpt lat="49.05591" lon="7.43397">
        <ele>305.1</ele>
        <time>2020-06-27T11:37:52Z</time>
      </trkpt>
      <trkpt lat="49.05592" lon="7.43403">
        <ele>305.2</ele>
        <time>2020-06-27T11:37:53Z</time>
      </trkpt>
      <trkpt lat="49.05592" lon="7.43408">
        <ele>305.2</ele>
        <time>2020-06-27T11:37:54Z</time>
      </trkpt>
      <trkpt lat="49.05591" lon="7.43414">
        <ele>305.3</ele>
        <time>2020-06-27T11:37:55Z</time>
      </trkpt>
      <trkpt lat="49.0559" lon="7.43418">
        <ele>305.3</ele>
        <time>2020-06-27T11:37:56Z</time>
      </trkpt>
      <trkpt lat="49.05589" lon="7.43423">
        <ele>305.4</ele>
        <time>2020-06-27T11:37:57Z</time>
      </trkpt>
      <trkpt lat="49.05588" lon="7.43427">
        <ele>305.6</ele>
        <time>2020-06-27T11:37:58Z</time>
      </trkpt>
      <trkpt lat="49.05588" lon="7.43432">
        <ele>305.8</ele>
        <time>2020-06-27T11:37:59Z</time>
      </trkpt>
      <trkpt lat="49.05586" lon="7.43436">
        <ele>305.9</ele>
        <time>2020-06-27T11:38:00Z</time>
      </trkpt>
      <trkpt lat="49.05585" lon="7.4344">
        <ele>306.1</ele>
        <time>2020-06-27T11:38:01Z</time>
      </trkpt>
      <trkpt lat="49.05583" lon="7.43444">
        <ele>306.2</ele>
        <time>2020-06-27T11:38:02Z</time>
      </trkpt>
      <trkpt lat="49.05582" lon="7.43449">
        <ele>306.4</ele>
        <time>2020-06-27T11:38:03Z</time>
      </trkpt>
      <trkpt lat="49.0558" lon="7.43454">
        <ele>306.5</ele>
        <time>2020-06-27T11:38:04Z</time>
      </trkpt>
      <trkpt lat="49.05578" lon="7.4346">
        <ele>306.7</ele>
        <time>2020-06-27T11:38:05Z</time>
      </trkpt>
      <trkpt lat="49.05576" lon="7.43465">
        <ele>306.8</ele>
        <time>2020-06-27T11:38:06Z</time>
      </trkpt>
      <trkpt lat="49.05575" lon="7.4347">
        <ele>307</ele>
        <time>2020-06-27T11:38:07Z</time>
      </trkpt>
      <trkpt lat="49.05573" lon="7.43475">
        <ele>307.1</ele>
        <time>2020-06-27T11:38:08Z</time>
      </trkpt>
      <trkpt lat="49.05571" lon="7.4348">
        <ele>307.2</ele>
        <time>2020-06-27T11:38:09Z</time>
      </trkpt>
      <trkpt lat="49.0557" lon="7.43482">
        <ele>307.3</ele>
        <time>2020-06-27T11:38:10Z</time>
      </trkpt>
      <trkpt lat="49.05569" lon="7.43486">
        <ele>307.4</ele>
        <time>2020-06-27T11:38:11Z</time>
      </trkpt>
      <trkpt lat="49.05567" lon="7.4349">
        <ele>307.5</ele>
        <time>2020-06-27T11:38:12Z</time>
      </trkpt>
      <trkpt lat="49.05565" lon="7.43495">
        <ele>307.6</ele>
        <time>2020-06-27T11:38:13Z</time>
      </trkpt>
      <trkpt lat="49.05562" lon="7.43498">
        <ele>307.8</ele>
        <time>2020-06-27T11:38:14Z</time>
      </trkpt>
      <trkpt lat="49.0556" lon="7.43503">
        <ele>308</ele>
        <time>2020-06-27T11:38:15Z</time>
      </trkpt>
      <trkpt lat="49.05557" lon="7.43506">
        <ele>308.1</ele>
        <time>2020-06-27T11:38:16Z</time>
      </trkpt>
      <trkpt lat="49.05555" lon="7.4351">
        <ele>308.2</ele>
        <time>2020-06-27T11:38:17Z</time>
      </trkpt>
      <trkpt lat="49.05552" lon="7.43513">
        <ele>308.4</ele>
        <time>2020-06-27T11:38:18Z</time>
      </trkpt>
      <trkpt lat="49.0555" lon="7.43519">
        <ele>308.5</ele>
        <time>2020-06-27T11:38:19Z</time>
      </trkpt>
      <trkpt lat="49.05547" lon="7.43523">
        <ele>308.6</ele>
        <time>2020-06-27T11:38:20Z</time>
      </trkpt>
      <trkpt lat="49.05545" lon="7.43526">
        <ele>308.7</ele>
        <time>2020-06-27T11:38:21Z</time>
      </trkpt>
      <trkpt lat="49.05541" lon="7.4353">
        <ele>308.8</ele>
        <time>2020-06-27T11:38:22Z</time>
      </trkpt>
      <trkpt lat="49.05538" lon="7.43534">
        <ele>308.9</ele>
        <time>2020-06-27T11:38:23Z</time>
      </trkpt>
      <trkpt lat="49.05537" lon="7.43536">
        <ele>308.9</ele>
        <time>2020-06-27T11:38:24Z</time>
      </trkpt>
      <trkpt lat="49.05534" lon="7.4354">
        <ele>309</ele>
        <time>2020-06-27T11:38:25Z</time>
      </trkpt>
      <trkpt lat="49.05531" lon="7.43545">
        <ele>309</ele>
        <time>2020-06-27T11:38:26Z</time>
      </trkpt>
      <trkpt lat="49.05528" lon="7.4355">
        <ele>309.1</ele>
        <time>2020-06-27T11:38:27Z</time>
      </trkpt>
      <trkpt lat="49.05525" lon="7.43554">
        <ele>309.2</ele>
        <time>2020-06-27T11:38:28Z</time>
      </trkpt>
      <trkpt lat="49.05523" lon="7.43558">
        <ele>309.2</ele>
        <time>2020-06-27T11:38:29Z</time>
      </trkpt>
      <trkpt lat="49.05521" lon="7.43562">
        <ele>309.3</ele>
        <time>2020-06-27T11:38:30Z</time>
      </trkpt>
      <trkpt lat="49.05518" lon="7.43565">
        <ele>309.3</ele>
        <time>2020-06-27T11:38:31Z</time>
      </trkpt>
      <trkpt lat="49.05516" lon="7.43569">
        <ele>309.4</ele>
        <time>2020-06-27T11:38:32Z</time>
      </trkpt>
      <trkpt lat="49.05514" lon="7.43573">
        <ele>309.5</ele>
        <time>2020-06-27T11:38:33Z</time>
      </trkpt>
      <trkpt lat="49.0551" lon="7.43577">
        <ele>309.6</ele>
        <time>2020-06-27T11:38:34Z</time>
      </trkpt>
      <trkpt lat="49.05507" lon="7.43583">
        <ele>309.7</ele>
        <time>2020-06-27T11:38:35Z</time>
      </trkpt>
      <trkpt lat="49.05504" lon="7.43589">
        <ele>309.7</ele>
        <time>2020-06-27T11:38:36Z</time>
      </trkpt>
      <trkpt lat="49.05502" lon="7.43594">
        <ele>309.8</ele>
        <time>2020-06-27T11:38:37Z</time>
      </trkpt>
      <trkpt lat="49.05499" lon="7.436">
        <ele>309.8</ele>
        <time>2020-06-27T11:38:38Z</time>
      </trkpt>
      <trkpt lat="49.05496" lon="7.43604">
        <ele>309.9</ele>
        <time>2020-06-27T11:38:39Z</time>
      </trkpt>
      <trkpt lat="49.05493" lon="7.43608">
        <ele>309.9</ele>
        <time>2020-06-27T11:38:40Z</time>
      </trkpt>
      <trkpt lat="49.0549" lon="7.43612">
        <ele>309.9</ele>
        <time>2020-06-27T11:38:41Z</time>
      </trkpt>
      <trkpt lat="49.05488" lon="7.43618">
        <ele>310</ele>
        <time>2020-06-27T11:38:42Z</time>
      </trkpt>
      <trkpt lat="49.05485" lon="7.43623">
        <ele>310</ele>
        <time>2020-06-27T11:38:43Z</time>
      </trkpt>
      <trkpt lat="49.05483" lon="7.43628">
        <ele>310</ele>
        <time>2020-06-27T11:38:44Z</time>
      </trkpt>
      <trkpt lat="49.05481" lon="7.43633">
        <ele>310.1</ele>
        <time>2020-06-27T11:38:45Z</time>
      </trkpt>
      <trkpt lat="49.05478" lon="7.43638">
        <ele>310.1</ele>
        <time>2020-06-27T11:38:46Z</time>
      </trkpt>
      <trkpt lat="49.05476" lon="7.43643">
        <ele>310.2</ele>
        <time>2020-06-27T11:38:47Z</time>
      </trkpt>
      <trkpt lat="49.05474" lon="7.43648">
        <ele>310.2</ele>
        <time>2020-06-27T11:38:48Z</time>
      </trkpt>
      <trkpt lat="49.05471" lon="7.43652">
        <ele>310.2</ele>
        <time>2020-06-27T11:38:49Z</time>
      </trkpt>
      <trkpt lat="49.05468" lon="7.43657">
        <ele>310.3</ele>
        <time>2020-06-27T11:38:50Z</time>
      </trkpt>
      <trkpt lat="49.05467" lon="7.43664">
        <ele>310.4</ele>
        <time>2020-06-27T11:38:51Z</time>
      </trkpt>
      <trkpt lat="49.05465" lon="7.43669">
        <ele>310.4</ele>
        <time>2020-06-27T11:38:52Z</time>
      </trkpt>
      <trkpt lat="49.05463" lon="7.43674">
        <ele>310.5</ele>
        <time>2020-06-27T11:38:53Z</time>
      </trkpt>
      <trkpt lat="49.0546" lon="7.43679">
        <ele>310.5</ele>
        <time>2020-06-27T11:38:54Z</time>
      </trkpt>
      <trkpt lat="49.05457" lon="7.43685">
        <ele>310.6</ele>
        <time>2020-06-27T11:38:55Z</time>
      </trkpt>
      <trkpt lat="49.05455" lon="7.4369">
        <ele>310.7</ele>
        <time>2020-06-27T11:38:56Z</time>
      </trkpt>
      <trkpt lat="49.05452" lon="7.43696">
        <ele>310.7</ele>
        <time>2020-06-27T11:38:57Z</time>
      </trkpt>
      <trkpt lat="49.0545" lon="7.43702">
        <ele>310.7</ele>
        <time>2020-06-27T11:38:58Z</time>
      </trkpt>
      <trkpt lat="49.05447" lon="7.43706">
        <ele>310.8</ele>
        <time>2020-06-27T11:38:59Z</time>
      </trkpt>
      <trkpt lat="49.05445" lon="7.43713">
        <ele>310.9</ele>
        <time>2020-06-27T11:39:00Z</time>
      </trkpt>
      <trkpt lat="49.05443" lon="7.43718">
        <ele>310.9</ele>
        <time>2020-06-27T11:39:01Z</time>
      </trkpt>
      <trkpt lat="49.05441" lon="7.43724">
        <ele>311</ele>
        <time>2020-06-27T11:39:02Z</time>
      </trkpt>
      <trkpt lat="49.0544" lon="7.4373">
        <ele>311.1</ele>
        <time>2020-06-27T11:39:03Z</time>
      </trkpt>
      <trkpt lat="49.05437" lon="7.43736">
        <ele>311.2</ele>
        <time>2020-06-27T11:39:04Z</time>
      </trkpt>
      <trkpt lat="49.05436" lon="7.43741">
        <ele>311.2</ele>
        <time>2020-06-27T11:39:05Z</time>
      </trkpt>
      <trkpt lat="49.05434" lon="7.43748">
        <ele>311.3</ele>
        <time>2020-06-27T11:39:06Z</time>
      </trkpt>
      <trkpt lat="49.05431" lon="7.43751">
        <ele>311.3</ele>
        <time>2020-06-27T11:39:07Z</time>
      </trkpt>
      <trkpt lat="49.05429" lon="7.43756">
        <ele>311.4</ele>
        <time>2020-06-27T11:39:08Z</time>
      </trkpt>
      <trkpt lat="49.05426" lon="7.43763">
        <ele>311.4</ele>
        <time>2020-06-27T11:39:09Z</time>
      </trkpt>
      <trkpt lat="49.05424" lon="7.43769">
        <ele>311.5</ele>
        <time>2020-06-27T11:39:10Z</time>
      </trkpt>
      <trkpt lat="49.05422" lon="7.43774">
        <ele>311.5</ele>
        <time>2020-06-27T11:39:11Z</time>
      </trkpt>
      <trkpt lat="49.0542" lon="7.4378">
        <ele>311.5</ele>
        <time>2020-06-27T11:39:12Z</time>
      </trkpt>
      <trkpt lat="49.05419" lon="7.43786">
        <ele>311.5</ele>
        <time>2020-06-27T11:39:13Z</time>
      </trkpt>
      <trkpt lat="49.05416" lon="7.43791">
        <ele>311.5</ele>
        <time>2020-06-27T11:39:14Z</time>
      </trkpt>
      <trkpt lat="49.05413" lon="7.43795">
        <ele>311.5</ele>
        <time>2020-06-27T11:39:15Z</time>
      </trkpt>
      <trkpt lat="49.05407" lon="7.43796">
        <ele>311.6</ele>
        <time>2020-06-27T11:39:16Z</time>
      </trkpt>
      <trkpt lat="49.05403" lon="7.43796">
        <ele>311.6</ele>
        <time>2020-06-27T11:39:17Z</time>
      </trkpt>
      <trkpt lat="49.05399" lon="7.43796">
        <ele>311.7</ele>
        <time>2020-06-27T11:39:18Z</time>
      </trkpt>
      <trkpt lat="49.05395" lon="7.43795">
        <ele>311.7</ele>
        <time>2020-06-27T11:39:19Z</time>
      </trkpt>
      <trkpt lat="49.05391" lon="7.43793">
        <ele>311.7</ele>
        <time>2020-06-27T11:39:20Z</time>
      </trkpt>
      <trkpt lat="49.05386" lon="7.43792">
        <ele>311.7</ele>
        <time>2020-06-27T11:39:21Z</time>
      </trkpt>
      <trkpt lat="49.05383" lon="7.43791">
        <ele>311.7</ele>
        <time>2020-06-27T11:39:22Z</time>
      </trkpt>
      <trkpt lat="49.05379" lon="7.43792">
        <ele>311.7</ele>
        <time>2020-06-27T11:39:23Z</time>
      </trkpt>
      <trkpt lat="49.05377" lon="7.43792">
        <ele>311.7</ele>
        <time>2020-06-27T11:39:24Z</time>
      </trkpt>
      <trkpt lat="49.05375" lon="7.43787">
        <ele>311.7</ele>
        <time>2020-06-27T11:39:25Z</time>
      </trkpt>
      <trkpt lat="49.05375" lon="7.43784">
        <ele>311.7</ele>
        <time>2020-06-27T11:39:26Z</time>
      </trkpt>
      <trkpt lat="49.05378" lon="7.4378">
        <ele>311.7</ele>
        <time>2020-06-27T11:39:27Z</time>
      </trkpt>
      <trkpt lat="49.05378" lon="7.4378">
        <ele>311.7</ele>
        <time>2020-06-27T11:39:28Z</time>
      </trkpt>
      <trkpt lat="49.05381" lon="7.43781">
        <ele>311.7</ele>
        <time>2020-06-27T11:39:29Z</time>
      </trkpt>
      <trkpt lat="49.05382" lon="7.43781">
        <ele>311.7</ele>
        <time>2020-06-27T11:39:30Z</time>
      </trkpt>
      <trkpt lat="49.05384" lon="7.43784">
        <ele>311.7</ele>
        <time>2020-06-27T11:39:31Z</time>
      </trkpt>
      <trkpt lat="49.05385" lon="7.43786">
        <ele>311.7</ele>
        <time>2020-06-27T11:39:32Z</time>
      </trkpt>
      <trkpt lat="49.05385" lon="7.43791">
        <ele>311.7</ele>
        <time>2020-06-27T11:39:33Z</time>
      </trkpt>
      <trkpt lat="49.05384" lon="7.43792">
        <ele>311.7</ele>
        <time>2020-06-27T11:39:34Z</time>
      </trkpt>
      <trkpt lat="49.05381" lon="7.43795">
        <ele>311.7</ele>
        <time>2020-06-27T11:39:35Z</time>
      </trkpt>
      <trkpt lat="49.0538" lon="7.43796">
        <ele>311.7</ele>
        <time>2020-06-27T11:39:36Z</time>
      </trkpt>
      <trkpt lat="49.05378" lon="7.438">
        <ele>311.7</ele>
        <time>2020-06-27T11:39:37Z</time>
      </trkpt>
      <trkpt lat="49.05376" lon="7.43804">
        <ele>311.7</ele>
        <time>2020-06-27T11:39:38Z</time>
      </trkpt>
      <trkpt lat="49.05375" lon="7.4381">
        <ele>311.7</ele>
        <time>2020-06-27T11:39:39Z</time>
      </trkpt>
      <trkpt lat="49.05375" lon="7.43817">
        <ele>311.7</ele>
        <time>2020-06-27T11:39:40Z</time>
      </trkpt>
      <trkpt lat="49.05375" lon="7.43822">
        <ele>311.7</ele>
        <time>2020-06-27T11:39:41Z</time>
      </trkpt>
      <trkpt lat="49.05376" lon="7.43828">
        <ele>311.7</ele>
        <time>2020-06-27T11:39:42Z</time>
      </trkpt>
      <trkpt lat="49.05377" lon="7.43832">
        <ele>311.7</ele>
        <time>2020-06-27T11:39:43Z</time>
      </trkpt>
      <trkpt lat="49.05379" lon="7.43835">
        <ele>312.1</ele>
        <time>2020-06-27T11:39:44Z</time>
      </trkpt>
      <trkpt lat="49.05382" lon="7.43838">
        <ele>312.1</ele>
        <time>2020-06-27T11:39:45Z</time>
      </trkpt>
      <trkpt lat="49.05383" lon="7.43839">
        <ele>312.1</ele>
        <time>2020-06-27T11:39:46Z</time>
      </trkpt>
      <trkpt lat="49.05385" lon="7.43843">
        <ele>312.1</ele>
        <time>2020-06-27T11:39:47Z</time>
      </trkpt>
      <trkpt lat="49.05385" lon="7.43849">
        <ele>312.1</ele>
        <time>2020-06-27T11:39:48Z</time>
      </trkpt>
      <trkpt lat="49.05385" lon="7.43851">
        <ele>312.2</ele>
        <time>2020-06-27T11:39:49Z</time>
      </trkpt>
      <trkpt lat="49.05385" lon="7.43857">
        <ele>312.2</ele>
        <time>2020-06-27T11:39:50Z</time>
      </trkpt>
      <trkpt lat="49.05385" lon="7.4386">
        <ele>312.2</ele>
        <time>2020-06-27T11:39:51Z</time>
      </trkpt>
      <trkpt lat="49.05385" lon="7.43864">
        <ele>312.2</ele>
        <time>2020-06-27T11:39:52Z</time>
      </trkpt>
      <trkpt lat="49.05386" lon="7.4387">
        <ele>312.3</ele>
        <time>2020-06-27T11:39:53Z</time>
      </trkpt>
      <trkpt lat="49.05386" lon="7.43872">
        <ele>312.3</ele>
        <time>2020-06-27T11:39:54Z</time>
      </trkpt>
      <trkpt lat="49.05387" lon="7.43877">
        <ele>312.4</ele>
        <time>2020-06-27T11:39:55Z</time>
      </trkpt>
      <trkpt lat="49.05388" lon="7.43881">
        <ele>312.4</ele>
        <time>2020-06-27T11:39:56Z</time>
      </trkpt>
      <trkpt lat="49.05388" lon="7.43886">
        <ele>312.5</ele>
        <time>2020-06-27T11:39:57Z</time>
      </trkpt>
      <trkpt lat="49.05387" lon="7.4389">
        <ele>312.5</ele>
        <time>2020-06-27T11:39:58Z</time>
      </trkpt>
      <trkpt lat="49.05387" lon="7.43894">
        <ele>312.6</ele>
        <time>2020-06-27T11:39:59Z</time>
      </trkpt>
      <trkpt lat="49.05388" lon="7.439">
        <ele>312.7</ele>
        <time>2020-06-27T11:40:00Z</time>
      </trkpt>
      <trkpt lat="49.05388" lon="7.43903">
        <ele>312.7</ele>
        <time>2020-06-27T11:40:01Z</time>
      </trkpt>
      <trkpt lat="49.0539" lon="7.43909">
        <ele>312.8</ele>
        <time>2020-06-27T11:40:02Z</time>
      </trkpt>
      <trkpt lat="49.0539" lon="7.43911">
        <ele>312.8</ele>
        <time>2020-06-27T11:40:03Z</time>
      </trkpt>
      <trkpt lat="49.05391" lon="7.43915">
        <ele>312.9</ele>
        <time>2020-06-27T11:40:04Z</time>
      </trkpt>
      <trkpt lat="49.05392" lon="7.43919">
        <ele>312.9</ele>
        <time>2020-06-27T11:40:05Z</time>
      </trkpt>
      <trkpt lat="49.05393" lon="7.43923">
        <ele>313</ele>
        <time>2020-06-27T11:40:06Z</time>
      </trkpt>
      <trkpt lat="49.05394" lon="7.4393">
        <ele>313.1</ele>
        <time>2020-06-27T11:40:07Z</time>
      </trkpt>
      <trkpt lat="49.05394" lon="7.43932">
        <ele>313.1</ele>
        <time>2020-06-27T11:40:08Z</time>
      </trkpt>
      <trkpt lat="49.05395" lon="7.43938">
        <ele>313.2</ele>
        <time>2020-06-27T11:40:09Z</time>
      </trkpt>
      <trkpt lat="49.05396" lon="7.4394">
        <ele>313.3</ele>
        <time>2020-06-27T11:40:10Z</time>
      </trkpt>
      <trkpt lat="49.05396" lon="7.43945">
        <ele>313.4</ele>
        <time>2020-06-27T11:40:11Z</time>
      </trkpt>
      <trkpt lat="49.05396" lon="7.43951">
        <ele>313.5</ele>
        <time>2020-06-27T11:40:12Z</time>
      </trkpt>
      <trkpt lat="49.05396" lon="7.43953">
        <ele>313.5</ele>
        <time>2020-06-27T11:40:13Z</time>
      </trkpt>
      <trkpt lat="49.05396" lon="7.43959">
        <ele>313.6</ele>
        <time>2020-06-27T11:40:14Z</time>
      </trkpt>
      <trkpt lat="49.05396" lon="7.4396">
        <ele>313.6</ele>
        <time>2020-06-27T11:40:15Z</time>
      </trkpt>
      <trkpt lat="49.05396" lon="7.43965">
        <ele>313.6</ele>
        <time>2020-06-27T11:40:16Z</time>
      </trkpt>
      <trkpt lat="49.05395" lon="7.4397">
        <ele>313.7</ele>
        <time>2020-06-27T11:40:17Z</time>
      </trkpt>
      <trkpt lat="49.05396" lon="7.43976">
        <ele>313.8</ele>
        <time>2020-06-27T11:40:18Z</time>
      </trkpt>
      <trkpt lat="49.05397" lon="7.43982">
        <ele>313.8</ele>
        <time>2020-06-27T11:40:19Z</time>
      </trkpt>
      <trkpt lat="49.05398" lon="7.43985">
        <ele>313.9</ele>
        <time>2020-06-27T11:40:20Z</time>
      </trkpt>
      <trkpt lat="49.05398" lon="7.43989">
        <ele>313.9</ele>
        <time>2020-06-27T11:40:21Z</time>
      </trkpt>
      <trkpt lat="49.05399" lon="7.43996">
        <ele>314</ele>
        <time>2020-06-27T11:40:22Z</time>
      </trkpt>
      <trkpt lat="49.054" lon="7.43998">
        <ele>314</ele>
        <time>2020-06-27T11:40:23Z</time>
      </trkpt>
      <trkpt lat="49.054" lon="7.44004">
        <ele>314.1</ele>
        <time>2020-06-27T11:40:24Z</time>
      </trkpt>
      <trkpt lat="49.05401" lon="7.44011">
        <ele>314.1</ele>
        <time>2020-06-27T11:40:25Z</time>
      </trkpt>
      <trkpt lat="49.05403" lon="7.4402">
        <ele>314.2</ele>
        <time>2020-06-27T11:40:26Z</time>
      </trkpt>
      <trkpt lat="49.05403" lon="7.44026">
        <ele>314.3</ele>
        <time>2020-06-27T11:40:27Z</time>
      </trkpt>
      <trkpt lat="49.05404" lon="7.44032">
        <ele>314.3</ele>
        <time>2020-06-27T11:40:28Z</time>
      </trkpt>
      <trkpt lat="49.05405" lon="7.4404">
        <ele>314.4</ele>
        <time>2020-06-27T11:40:29Z</time>
      </trkpt>
      <trkpt lat="49.05406" lon="7.44048">
        <ele>314.5</ele>
        <time>2020-06-27T11:40:30Z</time>
      </trkpt>
      <trkpt lat="49.05406" lon="7.44055">
        <ele>314.5</ele>
        <time>2020-06-27T11:40:31Z</time>
      </trkpt>
      <trkpt lat="49.05407" lon="7.44064">
        <ele>314.6</ele>
        <time>2020-06-27T11:40:32Z</time>
      </trkpt>
      <trkpt lat="49.05407" lon="7.4407">
        <ele>314.6</ele>
        <time>2020-06-27T11:40:33Z</time>
      </trkpt>
      <trkpt lat="49.05408" lon="7.44078">
        <ele>314.7</ele>
        <time>2020-06-27T11:40:34Z</time>
      </trkpt>
      <trkpt lat="49.0541" lon="7.44083">
        <ele>314.8</ele>
        <time>2020-06-27T11:40:35Z</time>
      </trkpt>
      <trkpt lat="49.05411" lon="7.44093">
        <ele>314.8</ele>
        <time>2020-06-27T11:40:36Z</time>
      </trkpt>
      <trkpt lat="49.05412" lon="7.441">
        <ele>314.9</ele>
        <time>2020-06-27T11:40:37Z</time>
      </trkpt>
      <trkpt lat="49.05413" lon="7.44108">
        <ele>314.9</ele>
        <time>2020-06-27T11:40:38Z</time>
      </trkpt>
      <trkpt lat="49.05414" lon="7.44116">
        <ele>314.9</ele>
        <time>2020-06-27T11:40:39Z</time>
      </trkpt>
      <trkpt lat="49.05414" lon="7.44121">
        <ele>314.9</ele>
        <time>2020-06-27T11:40:40Z</time>
      </trkpt>
      <trkpt lat="49.05415" lon="7.44129">
        <ele>314.9</ele>
        <time>2020-06-27T11:40:41Z</time>
      </trkpt>
      <trkpt lat="49.05416" lon="7.44137">
        <ele>314.9</ele>
        <time>2020-06-27T11:40:42Z</time>
      </trkpt>
      <trkpt lat="49.05418" lon="7.44144">
        <ele>314.9</ele>
        <time>2020-06-27T11:40:43Z</time>
      </trkpt>
      <trkpt lat="49.05418" lon="7.44151">
        <ele>314.8</ele>
        <time>2020-06-27T11:40:44Z</time>
      </trkpt>
      <trkpt lat="49.05419" lon="7.44158">
        <ele>314.8</ele>
        <time>2020-06-27T11:40:45Z</time>
      </trkpt>
      <trkpt lat="49.0542" lon="7.44167">
        <ele>314.7</ele>
        <time>2020-06-27T11:40:46Z</time>
      </trkpt>
      <trkpt lat="49.05421" lon="7.44175">
        <ele>314.6</ele>
        <time>2020-06-27T11:40:47Z</time>
      </trkpt>
      <trkpt lat="49.05422" lon="7.44184">
        <ele>314.5</ele>
        <time>2020-06-27T11:40:48Z</time>
      </trkpt>
      <trkpt lat="49.05423" lon="7.44191">
        <ele>314.3</ele>
        <time>2020-06-27T11:40:49Z</time>
      </trkpt>
      <trkpt lat="49.05423" lon="7.44201">
        <ele>314</ele>
        <time>2020-06-27T11:40:50Z</time>
      </trkpt>
      <trkpt lat="49.05424" lon="7.44208">
        <ele>313.9</ele>
        <time>2020-06-27T11:40:51Z</time>
      </trkpt>
      <trkpt lat="49.05425" lon="7.44217">
        <ele>313.7</ele>
        <time>2020-06-27T11:40:52Z</time>
      </trkpt>
      <trkpt lat="49.05426" lon="7.44227">
        <ele>313.4</ele>
        <time>2020-06-27T11:40:53Z</time>
      </trkpt>
      <trkpt lat="49.05427" lon="7.44236">
        <ele>313.2</ele>
        <time>2020-06-27T11:40:54Z</time>
      </trkpt>
      <trkpt lat="49.05427" lon="7.44243">
        <ele>313</ele>
        <time>2020-06-27T11:40:55Z</time>
      </trkpt>
      <trkpt lat="49.05428" lon="7.44254">
        <ele>312.7</ele>
        <time>2020-06-27T11:40:56Z</time>
      </trkpt>
      <trkpt lat="49.05429" lon="7.44265">
        <ele>312.5</ele>
        <time>2020-06-27T11:40:57Z</time>
      </trkpt>
      <trkpt lat="49.0543" lon="7.44278">
        <ele>312.2</ele>
        <time>2020-06-27T11:40:58Z</time>
      </trkpt>
      <trkpt lat="49.05431" lon="7.44286">
        <ele>312.1</ele>
        <time>2020-06-27T11:40:59Z</time>
      </trkpt>
      <trkpt lat="49.05433" lon="7.44297">
        <ele>311.9</ele>
        <time>2020-06-27T11:41:00Z</time>
      </trkpt>
      <trkpt lat="49.05435" lon="7.44308">
        <ele>311.6</ele>
        <time>2020-06-27T11:41:01Z</time>
      </trkpt>
      <trkpt lat="49.05436" lon="7.4432">
        <ele>311.4</ele>
        <time>2020-06-27T11:41:02Z</time>
      </trkpt>
      <trkpt lat="49.05437" lon="7.44331">
        <ele>311.1</ele>
        <time>2020-06-27T11:41:03Z</time>
      </trkpt>
      <trkpt lat="49.05438" lon="7.44344">
        <ele>310.9</ele>
        <time>2020-06-27T11:41:04Z</time>
      </trkpt>
      <trkpt lat="49.05439" lon="7.44355">
        <ele>310.6</ele>
        <time>2020-06-27T11:41:05Z</time>
      </trkpt>
      <trkpt lat="49.05441" lon="7.44367">
        <ele>310.4</ele>
        <time>2020-06-27T11:41:06Z</time>
      </trkpt>
      <trkpt lat="49.05442" lon="7.44379">
        <ele>310.1</ele>
        <time>2020-06-27T11:41:07Z</time>
      </trkpt>
      <trkpt lat="49.05443" lon="7.44392">
        <ele>309.8</ele>
        <time>2020-06-27T11:41:08Z</time>
      </trkpt>
      <trkpt lat="49.05444" lon="7.44404">
        <ele>309.6</ele>
        <time>2020-06-27T11:41:09Z</time>
      </trkpt>
      <trkpt lat="49.05445" lon="7.44417">
        <ele>309.4</ele>
        <time>2020-06-27T11:41:10Z</time>
      </trkpt>
      <trkpt lat="49.05446" lon="7.4443">
        <ele>309.1</ele>
        <time>2020-06-27T11:41:11Z</time>
      </trkpt>
      <trkpt lat="49.05448" lon="7.44442">
        <ele>308.9</ele>
        <time>2020-06-27T11:41:12Z</time>
      </trkpt>
      <trkpt lat="49.05449" lon="7.44455">
        <ele>308.7</ele>
        <time>2020-06-27T11:41:13Z</time>
      </trkpt>
      <trkpt lat="49.0545" lon="7.44467">
        <ele>308.4</ele>
        <time>2020-06-27T11:41:14Z</time>
      </trkpt>
      <trkpt lat="49.05451" lon="7.4448">
        <ele>308.3</ele>
        <time>2020-06-27T11:41:15Z</time>
      </trkpt>
      <trkpt lat="49.05453" lon="7.44492">
        <ele>308.1</ele>
        <time>2020-06-27T11:41:16Z</time>
      </trkpt>
      <trkpt lat="49.05455" lon="7.44504">
        <ele>308</ele>
        <time>2020-06-27T11:41:17Z</time>
      </trkpt>
      <trkpt lat="49.05456" lon="7.44517">
        <ele>307.9</ele>
        <time>2020-06-27T11:41:18Z</time>
      </trkpt>
      <trkpt lat="49.05458" lon="7.44529">
        <ele>307.8</ele>
        <time>2020-06-27T11:41:19Z</time>
      </trkpt>
      <trkpt lat="49.05459" lon="7.4454">
        <ele>307.7</ele>
        <time>2020-06-27T11:41:20Z</time>
      </trkpt>
      <trkpt lat="49.05461" lon="7.44551">
        <ele>307.6</ele>
        <time>2020-06-27T11:41:21Z</time>
      </trkpt>
      <trkpt lat="49.05462" lon="7.44561">
        <ele>307.5</ele>
        <time>2020-06-27T11:41:22Z</time>
      </trkpt>
      <trkpt lat="49.05464" lon="7.4457">
        <ele>307.5</ele>
        <time>2020-06-27T11:41:23Z</time>
      </trkpt>
      <trkpt lat="49.05465" lon="7.44579">
        <ele>307.4</ele>
        <time>2020-06-27T11:41:24Z</time>
      </trkpt>
      <trkpt lat="49.05465" lon="7.44588">
        <ele>307.3</ele>
        <time>2020-06-27T11:41:25Z</time>
      </trkpt>
      <trkpt lat="49.05466" lon="7.44598">
        <ele>307.3</ele>
        <time>2020-06-27T11:41:26Z</time>
      </trkpt>
      <trkpt lat="49.05467" lon="7.44607">
        <ele>307.3</ele>
        <time>2020-06-27T11:41:27Z</time>
      </trkpt>
      <trkpt lat="49.05469" lon="7.44617">
        <ele>307.2</ele>
        <time>2020-06-27T11:41:28Z</time>
      </trkpt>
      <trkpt lat="49.05469" lon="7.44626">
        <ele>307.2</ele>
        <time>2020-06-27T11:41:29Z</time>
      </trkpt>
      <trkpt lat="49.0547" lon="7.44636">
        <ele>307.2</ele>
        <time>2020-06-27T11:41:30Z</time>
      </trkpt>
      <trkpt lat="49.0547" lon="7.44645">
        <ele>307.2</ele>
        <time>2020-06-27T11:41:31Z</time>
      </trkpt>
      <trkpt lat="49.05471" lon="7.44654">
        <ele>307.1</ele>
        <time>2020-06-27T11:41:32Z</time>
      </trkpt>
      <trkpt lat="49.05472" lon="7.44662">
        <ele>307.1</ele>
        <time>2020-06-27T11:41:33Z</time>
      </trkpt>
      <trkpt lat="49.05473" lon="7.44671">
        <ele>307.1</ele>
        <time>2020-06-27T11:41:34Z</time>
      </trkpt>
      <trkpt lat="49.05474" lon="7.4468">
        <ele>307.1</ele>
        <time>2020-06-27T11:41:35Z</time>
      </trkpt>
      <trkpt lat="49.05477" lon="7.44688">
        <ele>307</ele>
        <time>2020-06-27T11:41:36Z</time>
      </trkpt>
      <trkpt lat="49.05478" lon="7.44696">
        <ele>307</ele>
        <time>2020-06-27T11:41:37Z</time>
      </trkpt>
      <trkpt lat="49.05478" lon="7.44704">
        <ele>307.1</ele>
        <time>2020-06-27T11:41:38Z</time>
      </trkpt>
      <trkpt lat="49.05479" lon="7.44713">
        <ele>307.1</ele>
        <time>2020-06-27T11:41:39Z</time>
      </trkpt>
      <trkpt lat="49.0548" lon="7.44722">
        <ele>307.1</ele>
        <time>2020-06-27T11:41:40Z</time>
      </trkpt>
      <trkpt lat="49.05481" lon="7.4473">
        <ele>307.1</ele>
        <time>2020-06-27T11:41:41Z</time>
      </trkpt>
      <trkpt lat="49.05483" lon="7.44739">
        <ele>307.1</ele>
        <time>2020-06-27T11:41:42Z</time>
      </trkpt>
      <trkpt lat="49.05483" lon="7.44747">
        <ele>307.1</ele>
        <time>2020-06-27T11:41:43Z</time>
      </trkpt>
      <trkpt lat="49.05484" lon="7.44756">
        <ele>307.1</ele>
        <time>2020-06-27T11:41:44Z</time>
      </trkpt>
      <trkpt lat="49.05485" lon="7.44765">
        <ele>307.2</ele>
        <time>2020-06-27T11:41:45Z</time>
      </trkpt>
      <trkpt lat="49.05486" lon="7.44773">
        <ele>307.2</ele>
        <time>2020-06-27T11:41:46Z</time>
      </trkpt>
      <trkpt lat="49.05488" lon="7.44781">
        <ele>307.2</ele>
        <time>2020-06-27T11:41:47Z</time>
      </trkpt>
      <trkpt lat="49.05488" lon="7.4479">
        <ele>307.2</ele>
        <time>2020-06-27T11:41:48Z</time>
      </trkpt>
      <trkpt lat="49.0549" lon="7.44799">
        <ele>307.2</ele>
        <time>2020-06-27T11:41:49Z</time>
      </trkpt>
      <trkpt lat="49.05489" lon="7.44807">
        <ele>307.2</ele>
        <time>2020-06-27T11:41:50Z</time>
      </trkpt>
      <trkpt lat="49.05489" lon="7.44816">
        <ele>307.2</ele>
        <time>2020-06-27T11:41:51Z</time>
      </trkpt>
      <trkpt lat="49.05489" lon="7.44825">
        <ele>307.2</ele>
        <time>2020-06-27T11:41:52Z</time>
      </trkpt>
      <trkpt lat="49.05489" lon="7.44833">
        <ele>307.2</ele>
        <time>2020-06-27T11:41:53Z</time>
      </trkpt>
      <trkpt lat="49.05489" lon="7.44842">
        <ele>307.2</ele>
        <time>2020-06-27T11:41:54Z</time>
      </trkpt>
      <trkpt lat="49.05489" lon="7.44851">
        <ele>307.2</ele>
        <time>2020-06-27T11:41:55Z</time>
      </trkpt>
      <trkpt lat="49.05489" lon="7.4486">
        <ele>307.2</ele>
        <time>2020-06-27T11:41:56Z</time>
      </trkpt>
      <trkpt lat="49.05489" lon="7.4487">
        <ele>307.1</ele>
        <time>2020-06-27T11:41:57Z</time>
      </trkpt>
      <trkpt lat="49.0549" lon="7.44879">
        <ele>307.1</ele>
        <time>2020-06-27T11:41:58Z</time>
      </trkpt>
      <trkpt lat="49.05489" lon="7.44888">
        <ele>307</ele>
        <time>2020-06-27T11:41:59Z</time>
      </trkpt>
      <trkpt lat="49.05489" lon="7.44898">
        <ele>307</ele>
        <time>2020-06-27T11:42:00Z</time>
      </trkpt>
      <trkpt lat="49.05489" lon="7.44907">
        <ele>306.9</ele>
        <time>2020-06-27T11:42:01Z</time>
      </trkpt>
      <trkpt lat="49.05489" lon="7.44917">
        <ele>306.9</ele>
        <time>2020-06-27T11:42:02Z</time>
      </trkpt>
      <trkpt lat="49.05489" lon="7.44926">
        <ele>306.9</ele>
        <time>2020-06-27T11:42:03Z</time>
      </trkpt>
      <trkpt lat="49.05488" lon="7.44936">
        <ele>306.9</ele>
        <time>2020-06-27T11:42:04Z</time>
      </trkpt>
      <trkpt lat="49.05486" lon="7.44946">
        <ele>307</ele>
        <time>2020-06-27T11:42:05Z</time>
      </trkpt>
      <trkpt lat="49.05486" lon="7.44956">
        <ele>307</ele>
        <time>2020-06-27T11:42:06Z</time>
      </trkpt>
      <trkpt lat="49.05486" lon="7.44966">
        <ele>307.1</ele>
        <time>2020-06-27T11:42:07Z</time>
      </trkpt>
      <trkpt lat="49.05487" lon="7.44976">
        <ele>307.1</ele>
        <time>2020-06-27T11:42:08Z</time>
      </trkpt>
      <trkpt lat="49.05487" lon="7.44986">
        <ele>307.2</ele>
        <time>2020-06-27T11:42:09Z</time>
      </trkpt>
      <trkpt lat="49.05487" lon="7.44996">
        <ele>307.3</ele>
        <time>2020-06-27T11:42:10Z</time>
      </trkpt>
      <trkpt lat="49.05488" lon="7.45006">
        <ele>307.4</ele>
        <time>2020-06-27T11:42:11Z</time>
      </trkpt>
      <trkpt lat="49.05488" lon="7.45015">
        <ele>307.5</ele>
        <time>2020-06-27T11:42:12Z</time>
      </trkpt>
      <trkpt lat="49.05487" lon="7.45024">
        <ele>307.6</ele>
        <time>2020-06-27T11:42:13Z</time>
      </trkpt>
      <trkpt lat="49.05487" lon="7.45034">
        <ele>307.7</ele>
        <time>2020-06-27T11:42:14Z</time>
      </trkpt>
      <trkpt lat="49.05488" lon="7.45043">
        <ele>307.8</ele>
        <time>2020-06-27T11:42:15Z</time>
      </trkpt>
      <trkpt lat="49.05487" lon="7.45052">
        <ele>307.9</ele>
        <time>2020-06-27T11:42:16Z</time>
      </trkpt>
      <trkpt lat="49.05487" lon="7.45061">
        <ele>308</ele>
        <time>2020-06-27T11:42:17Z</time>
      </trkpt>
      <trkpt lat="49.05488" lon="7.45069">
        <ele>308.1</ele>
        <time>2020-06-27T11:42:18Z</time>
      </trkpt>
      <trkpt lat="49.05488" lon="7.45078">
        <ele>308.2</ele>
        <time>2020-06-27T11:42:19Z</time>
      </trkpt>
      <trkpt lat="49.05488" lon="7.45086">
        <ele>308.3</ele>
        <time>2020-06-27T11:42:20Z</time>
      </trkpt>
      <trkpt lat="49.05488" lon="7.45095">
        <ele>308.5</ele>
        <time>2020-06-27T11:42:21Z</time>
      </trkpt>
      <trkpt lat="49.05489" lon="7.45103">
        <ele>308.6</ele>
        <time>2020-06-27T11:42:22Z</time>
      </trkpt>
      <trkpt lat="49.05489" lon="7.45111">
        <ele>308.7</ele>
        <time>2020-06-27T11:42:23Z</time>
      </trkpt>
      <trkpt lat="49.05489" lon="7.45119">
        <ele>308.8</ele>
        <time>2020-06-27T11:42:24Z</time>
      </trkpt>
      <trkpt lat="49.05489" lon="7.45128">
        <ele>308.9</ele>
        <time>2020-06-27T11:42:25Z</time>
      </trkpt>
      <trkpt lat="49.05489" lon="7.45136">
        <ele>309</ele>
        <time>2020-06-27T11:42:26Z</time>
      </trkpt>
      <trkpt lat="49.05488" lon="7.45144">
        <ele>309.1</ele>
        <time>2020-06-27T11:42:27Z</time>
      </trkpt>
      <trkpt lat="49.05489" lon="7.45153">
        <ele>309.2</ele>
        <time>2020-06-27T11:42:28Z</time>
      </trkpt>
      <trkpt lat="49.05489" lon="7.45161">
        <ele>309.3</ele>
        <time>2020-06-27T11:42:29Z</time>
      </trkpt>
      <trkpt lat="49.05488" lon="7.45169">
        <ele>309.4</ele>
        <time>2020-06-27T11:42:30Z</time>
      </trkpt>
      <trkpt lat="49.05488" lon="7.45177">
        <ele>309.5</ele>
        <time>2020-06-27T11:42:31Z</time>
      </trkpt>
      <trkpt lat="49.05488" lon="7.45184">
        <ele>309.6</ele>
        <time>2020-06-27T11:42:32Z</time>
      </trkpt>
      <trkpt lat="49.05488" lon="7.45192">
        <ele>309.8</ele>
        <time>2020-06-27T11:42:33Z</time>
      </trkpt>
      <trkpt lat="49.05489" lon="7.452">
        <ele>309.9</ele>
        <time>2020-06-27T11:42:34Z</time>
      </trkpt>
      <trkpt lat="49.05489" lon="7.45208">
        <ele>310</ele>
        <time>2020-06-27T11:42:35Z</time>
      </trkpt>
      <trkpt lat="49.05488" lon="7.45216">
        <ele>310.2</ele>
        <time>2020-06-27T11:42:36Z</time>
      </trkpt>
      <trkpt lat="49.05489" lon="7.45223">
        <ele>310.3</ele>
        <time>2020-06-27T11:42:37Z</time>
      </trkpt>
      <trkpt lat="49.0549" lon="7.45231">
        <ele>310.5</ele>
        <time>2020-06-27T11:42:38Z</time>
      </trkpt>
      <trkpt lat="49.0549" lon="7.45239">
        <ele>310.6</ele>
        <time>2020-06-27T11:42:39Z</time>
      </trkpt>
      <trkpt lat="49.05491" lon="7.45246">
        <ele>310.7</ele>
        <time>2020-06-27T11:42:40Z</time>
      </trkpt>
      <trkpt lat="49.0549" lon="7.45253">
        <ele>310.9</ele>
        <time>2020-06-27T11:42:41Z</time>
      </trkpt>
      <trkpt lat="49.0549" lon="7.45261">
        <ele>311</ele>
        <time>2020-06-27T11:42:42Z</time>
      </trkpt>
      <trkpt lat="49.0549" lon="7.45268">
        <ele>311.2</ele>
        <time>2020-06-27T11:42:43Z</time>
      </trkpt>
      <trkpt lat="49.0549" lon="7.45275">
        <ele>311.3</ele>
        <time>2020-06-27T11:42:44Z</time>
      </trkpt>
      <trkpt lat="49.0549" lon="7.45282">
        <ele>311.5</ele>
        <time>2020-06-27T11:42:45Z</time>
      </trkpt>
      <trkpt lat="49.0549" lon="7.45289">
        <ele>311.6</ele>
        <time>2020-06-27T11:42:46Z</time>
      </trkpt>
      <trkpt lat="49.05491" lon="7.45296">
        <ele>311.7</ele>
        <time>2020-06-27T11:42:47Z</time>
      </trkpt>
      <trkpt lat="49.05491" lon="7.45303">
        <ele>311.9</ele>
        <time>2020-06-27T11:42:48Z</time>
      </trkpt>
      <trkpt lat="49.05491" lon="7.4531">
        <ele>312</ele>
        <time>2020-06-27T11:42:49Z</time>
      </trkpt>
      <trkpt lat="49.05491" lon="7.45318">
        <ele>312.2</ele>
        <time>2020-06-27T11:42:50Z</time>
      </trkpt>
      <trkpt lat="49.05491" lon="7.45326">
        <ele>312.3</ele>
        <time>2020-06-27T11:42:51Z</time>
      </trkpt>
      <trkpt lat="49.05491" lon="7.45333">
        <ele>312.5</ele>
        <time>2020-06-27T11:42:52Z</time>
      </trkpt>
      <trkpt lat="49.05492" lon="7.45341">
        <ele>312.6</ele>
        <time>2020-06-27T11:42:53Z</time>
      </trkpt>
      <trkpt lat="49.05492" lon="7.45349">
        <ele>312.8</ele>
        <time>2020-06-27T11:42:54Z</time>
      </trkpt>
      <trkpt lat="49.05492" lon="7.45356">
        <ele>312.9</ele>
        <time>2020-06-27T11:42:55Z</time>
      </trkpt>
      <trkpt lat="49.05492" lon="7.45363">
        <ele>313</ele>
        <time>2020-06-27T11:42:56Z</time>
      </trkpt>
      <trkpt lat="49.05492" lon="7.4537">
        <ele>313.2</ele>
        <time>2020-06-27T11:42:57Z</time>
      </trkpt>
      <trkpt lat="49.05492" lon="7.45378">
        <ele>313.3</ele>
        <time>2020-06-27T11:42:58Z</time>
      </trkpt>
      <trkpt lat="49.05492" lon="7.45386">
        <ele>313.5</ele>
        <time>2020-06-27T11:42:59Z</time>
      </trkpt>
      <trkpt lat="49.05492" lon="7.45393">
        <ele>313.7</ele>
        <time>2020-06-27T11:43:00Z</time>
      </trkpt>
      <trkpt lat="49.05492" lon="7.45401">
        <ele>313.8</ele>
        <time>2020-06-27T11:43:01Z</time>
      </trkpt>
      <trkpt lat="49.05493" lon="7.45408">
        <ele>314</ele>
        <time>2020-06-27T11:43:02Z</time>
      </trkpt>
      <trkpt lat="49.05493" lon="7.45416">
        <ele>314.2</ele>
        <time>2020-06-27T11:43:03Z</time>
      </trkpt>
      <trkpt lat="49.05492" lon="7.45423">
        <ele>314.3</ele>
        <time>2020-06-27T11:43:04Z</time>
      </trkpt>
      <trkpt lat="49.05493" lon="7.45431">
        <ele>314.5</ele>
        <time>2020-06-27T11:43:05Z</time>
      </trkpt>
      <trkpt lat="49.05492" lon="7.45438">
        <ele>314.7</ele>
        <time>2020-06-27T11:43:06Z</time>
      </trkpt>
      <trkpt lat="49.05493" lon="7.45447">
        <ele>314.9</ele>
        <time>2020-06-27T11:43:07Z</time>
      </trkpt>
      <trkpt lat="49.05493" lon="7.45455">
        <ele>315.1</ele>
        <time>2020-06-27T11:43:08Z</time>
      </trkpt>
      <trkpt lat="49.05492" lon="7.45461">
        <ele>315.2</ele>
        <time>2020-06-27T11:43:09Z</time>
      </trkpt>
      <trkpt lat="49.05491" lon="7.45469">
        <ele>315.4</ele>
        <time>2020-06-27T11:43:10Z</time>
      </trkpt>
      <trkpt lat="49.05491" lon="7.45475">
        <ele>315.5</ele>
        <time>2020-06-27T11:43:11Z</time>
      </trkpt>
      <trkpt lat="49.05491" lon="7.45481">
        <ele>315.6</ele>
        <time>2020-06-27T11:43:12Z</time>
      </trkpt>
      <trkpt lat="49.05492" lon="7.45488">
        <ele>315.8</ele>
        <time>2020-06-27T11:43:13Z</time>
      </trkpt>
      <trkpt lat="49.05491" lon="7.45496">
        <ele>315.9</ele>
        <time>2020-06-27T11:43:14Z</time>
      </trkpt>
      <trkpt lat="49.05491" lon="7.45504">
        <ele>316</ele>
        <time>2020-06-27T11:43:15Z</time>
      </trkpt>
      <trkpt lat="49.05491" lon="7.45511">
        <ele>316.2</ele>
        <time>2020-06-27T11:43:16Z</time>
      </trkpt>
      <trkpt lat="49.0549" lon="7.45519">
        <ele>316.3</ele>
        <time>2020-06-27T11:43:17Z</time>
      </trkpt>
      <trkpt lat="49.05491" lon="7.45525">
        <ele>316.4</ele>
        <time>2020-06-27T11:43:18Z</time>
      </trkpt>
      <trkpt lat="49.0549" lon="7.45533">
        <ele>316.6</ele>
        <time>2020-06-27T11:43:19Z</time>
      </trkpt>
      <trkpt lat="49.0549" lon="7.45542">
        <ele>316.7</ele>
        <time>2020-06-27T11:43:20Z</time>
      </trkpt>
      <trkpt lat="49.05489" lon="7.45552">
        <ele>316.9</ele>
        <time>2020-06-27T11:43:21Z</time>
      </trkpt>
      <trkpt lat="49.05488" lon="7.45557">
        <ele>317</ele>
        <time>2020-06-27T11:43:22Z</time>
      </trkpt>
      <trkpt lat="49.05488" lon="7.45565">
        <ele>317.2</ele>
        <time>2020-06-27T11:43:23Z</time>
      </trkpt>
      <trkpt lat="49.05487" lon="7.45574">
        <ele>317.4</ele>
        <time>2020-06-27T11:43:24Z</time>
      </trkpt>
      <trkpt lat="49.05487" lon="7.45579">
        <ele>317.5</ele>
        <time>2020-06-27T11:43:25Z</time>
      </trkpt>
      <trkpt lat="49.05487" lon="7.45587">
        <ele>317.7</ele>
        <time>2020-06-27T11:43:26Z</time>
      </trkpt>
      <trkpt lat="49.05487" lon="7.45595">
        <ele>317.9</ele>
        <time>2020-06-27T11:43:27Z</time>
      </trkpt>
      <trkpt lat="49.05486" lon="7.45602">
        <ele>318</ele>
        <time>2020-06-27T11:43:28Z</time>
      </trkpt>
      <trkpt lat="49.05486" lon="7.45609">
        <ele>318.1</ele>
        <time>2020-06-27T11:43:29Z</time>
      </trkpt>
      <trkpt lat="49.05487" lon="7.45617">
        <ele>318.2</ele>
        <time>2020-06-27T11:43:30Z</time>
      </trkpt>
      <trkpt lat="49.05487" lon="7.45625">
        <ele>318.3</ele>
        <time>2020-06-27T11:43:31Z</time>
      </trkpt>
      <trkpt lat="49.05487" lon="7.45633">
        <ele>318.3</ele>
        <time>2020-06-27T11:43:32Z</time>
      </trkpt>
      <trkpt lat="49.05488" lon="7.4564">
        <ele>318.4</ele>
        <time>2020-06-27T11:43:33Z</time>
      </trkpt>
      <trkpt lat="49.05488" lon="7.45647">
        <ele>318.5</ele>
        <time>2020-06-27T11:43:34Z</time>
      </trkpt>
      <trkpt lat="49.05489" lon="7.45653">
        <ele>318.5</ele>
        <time>2020-06-27T11:43:35Z</time>
      </trkpt>
      <trkpt lat="49.05488" lon="7.45657">
        <ele>318.6</ele>
        <time>2020-06-27T11:43:36Z</time>
      </trkpt>
      <trkpt lat="49.05488" lon="7.45663">
        <ele>318.6</ele>
        <time>2020-06-27T11:43:37Z</time>
      </trkpt>
      <trkpt lat="49.05488" lon="7.45669">
        <ele>318.7</ele>
        <time>2020-06-27T11:43:38Z</time>
      </trkpt>
      <trkpt lat="49.05488" lon="7.45674">
        <ele>318.7</ele>
        <time>2020-06-27T11:43:39Z</time>
      </trkpt>
      <trkpt lat="49.05488" lon="7.45681">
        <ele>318.8</ele>
        <time>2020-06-27T11:43:40Z</time>
      </trkpt>
      <trkpt lat="49.05488" lon="7.45685">
        <ele>318.8</ele>
        <time>2020-06-27T11:43:41Z</time>
      </trkpt>
      <trkpt lat="49.05488" lon="7.4569">
        <ele>318.8</ele>
        <time>2020-06-27T11:43:42Z</time>
      </trkpt>
      <trkpt lat="49.05488" lon="7.45695">
        <ele>318.8</ele>
        <time>2020-06-27T11:43:43Z</time>
      </trkpt>
      <trkpt lat="49.05488" lon="7.457">
        <ele>318.8</ele>
        <time>2020-06-27T11:43:44Z</time>
      </trkpt>
      <trkpt lat="49.05487" lon="7.45707">
        <ele>318.8</ele>
        <time>2020-06-27T11:43:45Z</time>
      </trkpt>
      <trkpt lat="49.05487" lon="7.45714">
        <ele>318.8</ele>
        <time>2020-06-27T11:43:46Z</time>
      </trkpt>
      <trkpt lat="49.05487" lon="7.45722">
        <ele>318.8</ele>
        <time>2020-06-27T11:43:47Z</time>
      </trkpt>
      <trkpt lat="49.05488" lon="7.45726">
        <ele>318.8</ele>
        <time>2020-06-27T11:43:48Z</time>
      </trkpt>
      <trkpt lat="49.05488" lon="7.45734">
        <ele>318.8</ele>
        <time>2020-06-27T11:43:49Z</time>
      </trkpt>
      <trkpt lat="49.05489" lon="7.4574">
        <ele>318.7</ele>
        <time>2020-06-27T11:43:50Z</time>
      </trkpt>
      <trkpt lat="49.05489" lon="7.45747">
        <ele>318.6</ele>
        <time>2020-06-27T11:43:51Z</time>
      </trkpt>
      <trkpt lat="49.0549" lon="7.45753">
        <ele>318.6</ele>
        <time>2020-06-27T11:43:52Z</time>
      </trkpt>
      <trkpt lat="49.0549" lon="7.45759">
        <ele>318.5</ele>
        <time>2020-06-27T11:43:53Z</time>
      </trkpt>
      <trkpt lat="49.05489" lon="7.45766">
        <ele>318.4</ele>
        <time>2020-06-27T11:43:54Z</time>
      </trkpt>
      <trkpt lat="49.05489" lon="7.45772">
        <ele>318.2</ele>
        <time>2020-06-27T11:43:55Z</time>
      </trkpt>
      <trkpt lat="49.05489" lon="7.4578">
        <ele>318</ele>
        <time>2020-06-27T11:43:56Z</time>
      </trkpt>
      <trkpt lat="49.0549" lon="7.45788">
        <ele>317.8</ele>
        <time>2020-06-27T11:43:57Z</time>
      </trkpt>
      <trkpt lat="49.0549" lon="7.45796">
        <ele>317.5</ele>
        <time>2020-06-27T11:43:58Z</time>
      </trkpt>
      <trkpt lat="49.05491" lon="7.45805">
        <ele>317.3</ele>
        <time>2020-06-27T11:43:59Z</time>
      </trkpt>
      <trkpt lat="49.05491" lon="7.45813">
        <ele>317</ele>
        <time>2020-06-27T11:44:00Z</time>
      </trkpt>
      <trkpt lat="49.05492" lon="7.45822">
        <ele>316.7</ele>
        <time>2020-06-27T11:44:01Z</time>
      </trkpt>
      <trkpt lat="49.05491" lon="7.45832">
        <ele>316.3</ele>
        <time>2020-06-27T11:44:02Z</time>
      </trkpt>
      <trkpt lat="49.05492" lon="7.45841">
        <ele>316</ele>
        <time>2020-06-27T11:44:03Z</time>
      </trkpt>
      <trkpt lat="49.05492" lon="7.45853">
        <ele>315.6</ele>
        <time>2020-06-27T11:44:04Z</time>
      </trkpt>
      <trkpt lat="49.05491" lon="7.45864">
        <ele>315.1</ele>
        <time>2020-06-27T11:44:05Z</time>
      </trkpt>
      <trkpt lat="49.05491" lon="7.45877">
        <ele>314.6</ele>
        <time>2020-06-27T11:44:06Z</time>
      </trkpt>
      <trkpt lat="49.05491" lon="7.45891">
        <ele>314</ele>
        <time>2020-06-27T11:44:07Z</time>
      </trkpt>
      <trkpt lat="49.05491" lon="7.45904">
        <ele>313.5</ele>
        <time>2020-06-27T11:44:08Z</time>
      </trkpt>
      <trkpt lat="49.05492" lon="7.45918">
        <ele>312.9</ele>
        <time>2020-06-27T11:44:09Z</time>
      </trkpt>
      <trkpt lat="49.05494" lon="7.45933">
        <ele>312.2</ele>
        <time>2020-06-27T11:44:10Z</time>
      </trkpt>
      <trkpt lat="49.05495" lon="7.45946">
        <ele>311.5</ele>
        <time>2020-06-27T11:44:11Z</time>
      </trkpt>
      <trkpt lat="49.05496" lon="7.4596">
        <ele>310.9</ele>
        <time>2020-06-27T11:44:12Z</time>
      </trkpt>
      <trkpt lat="49.05498" lon="7.45975">
        <ele>310.2</ele>
        <time>2020-06-27T11:44:13Z</time>
      </trkpt>
      <trkpt lat="49.055" lon="7.4599">
        <ele>309.6</ele>
        <time>2020-06-27T11:44:14Z</time>
      </trkpt>
      <trkpt lat="49.05502" lon="7.46005">
        <ele>309</ele>
        <time>2020-06-27T11:44:15Z</time>
      </trkpt>
      <trkpt lat="49.05504" lon="7.4602">
        <ele>308.3</ele>
        <time>2020-06-27T11:44:16Z</time>
      </trkpt>
      <trkpt lat="49.05505" lon="7.46035">
        <ele>307.7</ele>
        <time>2020-06-27T11:44:17Z</time>
      </trkpt>
      <trkpt lat="49.05507" lon="7.46051">
        <ele>307.1</ele>
        <time>2020-06-27T11:44:18Z</time>
      </trkpt>
      <trkpt lat="49.05509" lon="7.46067">
        <ele>306.6</ele>
        <time>2020-06-27T11:44:19Z</time>
      </trkpt>
      <trkpt lat="49.05511" lon="7.46082">
        <ele>306.1</ele>
        <time>2020-06-27T11:44:20Z</time>
      </trkpt>
      <trkpt lat="49.05513" lon="7.46097">
        <ele>305.7</ele>
        <time>2020-06-27T11:44:21Z</time>
      </trkpt>
      <trkpt lat="49.05516" lon="7.46112">
        <ele>305.3</ele>
        <time>2020-06-27T11:44:22Z</time>
      </trkpt>
      <trkpt lat="49.05519" lon="7.46127">
        <ele>304.9</ele>
        <time>2020-06-27T11:44:23Z</time>
      </trkpt>
      <trkpt lat="49.0552" lon="7.46141">
        <ele>304.6</ele>
        <time>2020-06-27T11:44:24Z</time>
      </trkpt>
      <trkpt lat="49.05521" lon="7.46156">
        <ele>304.3</ele>
        <time>2020-06-27T11:44:25Z</time>
      </trkpt>
      <trkpt lat="49.05522" lon="7.4617">
        <ele>304.1</ele>
        <time>2020-06-27T11:44:26Z</time>
      </trkpt>
      <trkpt lat="49.05524" lon="7.46184">
        <ele>303.9</ele>
        <time>2020-06-27T11:44:27Z</time>
      </trkpt>
      <trkpt lat="49.05526" lon="7.46198">
        <ele>303.6</ele>
        <time>2020-06-27T11:44:28Z</time>
      </trkpt>
      <trkpt lat="49.05528" lon="7.46211">
        <ele>303.4</ele>
        <time>2020-06-27T11:44:29Z</time>
      </trkpt>
      <trkpt lat="49.0553" lon="7.46224">
        <ele>303.2</ele>
        <time>2020-06-27T11:44:30Z</time>
      </trkpt>
      <trkpt lat="49.05532" lon="7.46237">
        <ele>303.1</ele>
        <time>2020-06-27T11:44:31Z</time>
      </trkpt>
      <trkpt lat="49.05533" lon="7.4625">
        <ele>303</ele>
        <time>2020-06-27T11:44:32Z</time>
      </trkpt>
      <trkpt lat="49.05535" lon="7.46262">
        <ele>302.9</ele>
        <time>2020-06-27T11:44:33Z</time>
      </trkpt>
      <trkpt lat="49.05537" lon="7.46274">
        <ele>302.8</ele>
        <time>2020-06-27T11:44:34Z</time>
      </trkpt>
      <trkpt lat="49.05538" lon="7.46286">
        <ele>302.7</ele>
        <time>2020-06-27T11:44:35Z</time>
      </trkpt>
      <trkpt lat="49.05539" lon="7.46298">
        <ele>302.7</ele>
        <time>2020-06-27T11:44:36Z</time>
      </trkpt>
      <trkpt lat="49.05541" lon="7.46309">
        <ele>302.7</ele>
        <time>2020-06-27T11:44:37Z</time>
      </trkpt>
      <trkpt lat="49.05543" lon="7.4632">
        <ele>302.7</ele>
        <time>2020-06-27T11:44:38Z</time>
      </trkpt>
      <trkpt lat="49.05544" lon="7.46332">
        <ele>302.7</ele>
        <time>2020-06-27T11:44:39Z</time>
      </trkpt>
      <trkpt lat="49.05545" lon="7.46343">
        <ele>302.7</ele>
        <time>2020-06-27T11:44:40Z</time>
      </trkpt>
      <trkpt lat="49.05546" lon="7.46353">
        <ele>302.7</ele>
        <time>2020-06-27T11:44:41Z</time>
      </trkpt>
      <trkpt lat="49.05547" lon="7.46364">
        <ele>302.7</ele>
        <time>2020-06-27T11:44:42Z</time>
      </trkpt>
      <trkpt lat="49.05548" lon="7.46374">
        <ele>302.7</ele>
        <time>2020-06-27T11:44:43Z</time>
      </trkpt>
      <trkpt lat="49.0555" lon="7.46384">
        <ele>302.7</ele>
        <time>2020-06-27T11:44:44Z</time>
      </trkpt>
      <trkpt lat="49.05552" lon="7.46394">
        <ele>302.7</ele>
        <time>2020-06-27T11:44:45Z</time>
      </trkpt>
      <trkpt lat="49.05553" lon="7.46404">
        <ele>302.7</ele>
        <time>2020-06-27T11:44:46Z</time>
      </trkpt>
      <trkpt lat="49.05554" lon="7.46414">
        <ele>302.8</ele>
        <time>2020-06-27T11:44:47Z</time>
      </trkpt>
      <trkpt lat="49.05555" lon="7.46424">
        <ele>302.8</ele>
        <time>2020-06-27T11:44:48Z</time>
      </trkpt>
      <trkpt lat="49.05556" lon="7.46433">
        <ele>302.8</ele>
        <time>2020-06-27T11:44:49Z</time>
      </trkpt>
      <trkpt lat="49.05557" lon="7.46443">
        <ele>302.8</ele>
        <time>2020-06-27T11:44:50Z</time>
      </trkpt>
      <trkpt lat="49.05558" lon="7.46452">
        <ele>302.8</ele>
        <time>2020-06-27T11:44:51Z</time>
      </trkpt>
      <trkpt lat="49.05559" lon="7.46461">
        <ele>302.8</ele>
        <time>2020-06-27T11:44:52Z</time>
      </trkpt>
      <trkpt lat="49.05561" lon="7.46471">
        <ele>302.8</ele>
        <time>2020-06-27T11:44:53Z</time>
      </trkpt>
      <trkpt lat="49.05562" lon="7.46481">
        <ele>302.8</ele>
        <time>2020-06-27T11:44:54Z</time>
      </trkpt>
      <trkpt lat="49.05564" lon="7.4649">
        <ele>302.9</ele>
        <time>2020-06-27T11:44:55Z</time>
      </trkpt>
      <trkpt lat="49.05566" lon="7.465">
        <ele>302.9</ele>
        <time>2020-06-27T11:44:56Z</time>
      </trkpt>
      <trkpt lat="49.05567" lon="7.4651">
        <ele>302.9</ele>
        <time>2020-06-27T11:44:57Z</time>
      </trkpt>
      <trkpt lat="49.05568" lon="7.46521">
        <ele>302.9</ele>
        <time>2020-06-27T11:44:58Z</time>
      </trkpt>
      <trkpt lat="49.05569" lon="7.46532">
        <ele>302.9</ele>
        <time>2020-06-27T11:44:59Z</time>
      </trkpt>
      <trkpt lat="49.0557" lon="7.46542">
        <ele>302.9</ele>
        <time>2020-06-27T11:45:00Z</time>
      </trkpt>
      <trkpt lat="49.05571" lon="7.46553">
        <ele>302.8</ele>
        <time>2020-06-27T11:45:01Z</time>
      </trkpt>
      <trkpt lat="49.05573" lon="7.46564">
        <ele>302.7</ele>
        <time>2020-06-27T11:45:02Z</time>
      </trkpt>
      <trkpt lat="49.05574" lon="7.46575">
        <ele>302.6</ele>
        <time>2020-06-27T11:45:03Z</time>
      </trkpt>
      <trkpt lat="49.05575" lon="7.46586">
        <ele>302.5</ele>
        <time>2020-06-27T11:45:04Z</time>
      </trkpt>
      <trkpt lat="49.05576" lon="7.46598">
        <ele>302.4</ele>
        <time>2020-06-27T11:45:05Z</time>
      </trkpt>
      <trkpt lat="49.05578" lon="7.46609">
        <ele>302.2</ele>
        <time>2020-06-27T11:45:06Z</time>
      </trkpt>
      <trkpt lat="49.05578" lon="7.4662">
        <ele>302</ele>
        <time>2020-06-27T11:45:07Z</time>
      </trkpt>
      <trkpt lat="49.0558" lon="7.46632">
        <ele>301.8</ele>
        <time>2020-06-27T11:45:08Z</time>
      </trkpt>
      <trkpt lat="49.05581" lon="7.46643">
        <ele>301.6</ele>
        <time>2020-06-27T11:45:09Z</time>
      </trkpt>
      <trkpt lat="49.05582" lon="7.46655">
        <ele>301.4</ele>
        <time>2020-06-27T11:45:10Z</time>
      </trkpt>
      <trkpt lat="49.05582" lon="7.46667">
        <ele>301.2</ele>
        <time>2020-06-27T11:45:11Z</time>
      </trkpt>
      <trkpt lat="49.05583" lon="7.46679">
        <ele>301.1</ele>
        <time>2020-06-27T11:45:12Z</time>
      </trkpt>
      <trkpt lat="49.05584" lon="7.46692">
        <ele>300.9</ele>
        <time>2020-06-27T11:45:13Z</time>
      </trkpt>
      <trkpt lat="49.05584" lon="7.46704">
        <ele>300.7</ele>
        <time>2020-06-27T11:45:14Z</time>
      </trkpt>
      <trkpt lat="49.05584" lon="7.46716">
        <ele>300.5</ele>
        <time>2020-06-27T11:45:15Z</time>
      </trkpt>
      <trkpt lat="49.05585" lon="7.46728">
        <ele>300.2</ele>
        <time>2020-06-27T11:45:16Z</time>
      </trkpt>
      <trkpt lat="49.05584" lon="7.4674">
        <ele>300</ele>
        <time>2020-06-27T11:45:17Z</time>
      </trkpt>
      <trkpt lat="49.05585" lon="7.46752">
        <ele>299.8</ele>
        <time>2020-06-27T11:45:18Z</time>
      </trkpt>
      <trkpt lat="49.05585" lon="7.46764">
        <ele>299.5</ele>
        <time>2020-06-27T11:45:19Z</time>
      </trkpt>
      <trkpt lat="49.05584" lon="7.46777">
        <ele>299.3</ele>
        <time>2020-06-27T11:45:20Z</time>
      </trkpt>
      <trkpt lat="49.05583" lon="7.4679">
        <ele>299</ele>
        <time>2020-06-27T11:45:21Z</time>
      </trkpt>
      <trkpt lat="49.05581" lon="7.46803">
        <ele>298.8</ele>
        <time>2020-06-27T11:45:22Z</time>
      </trkpt>
      <trkpt lat="49.05579" lon="7.46816">
        <ele>298.5</ele>
        <time>2020-06-27T11:45:23Z</time>
      </trkpt>
      <trkpt lat="49.05577" lon="7.46829">
        <ele>298.2</ele>
        <time>2020-06-27T11:45:24Z</time>
      </trkpt>
      <trkpt lat="49.05575" lon="7.46842">
        <ele>298</ele>
        <time>2020-06-27T11:45:25Z</time>
      </trkpt>
      <trkpt lat="49.05573" lon="7.46856">
        <ele>297.8</ele>
        <time>2020-06-27T11:45:26Z</time>
      </trkpt>
      <trkpt lat="49.05572" lon="7.46869">
        <ele>297.6</ele>
        <time>2020-06-27T11:45:27Z</time>
      </trkpt>
      <trkpt lat="49.0557" lon="7.46883">
        <ele>297.4</ele>
        <time>2020-06-27T11:45:28Z</time>
      </trkpt>
      <trkpt lat="49.05567" lon="7.46896">
        <ele>297.4</ele>
        <time>2020-06-27T11:45:29Z</time>
      </trkpt>
      <trkpt lat="49.05565" lon="7.46909">
        <ele>297.4</ele>
        <time>2020-06-27T11:45:30Z</time>
      </trkpt>
      <trkpt lat="49.05563" lon="7.46922">
        <ele>297.4</ele>
        <time>2020-06-27T11:45:31Z</time>
      </trkpt>
      <trkpt lat="49.05562" lon="7.46935">
        <ele>297.5</ele>
        <time>2020-06-27T11:45:32Z</time>
      </trkpt>
      <trkpt lat="49.0556" lon="7.46947">
        <ele>297.6</ele>
        <time>2020-06-27T11:45:33Z</time>
      </trkpt>
      <trkpt lat="49.05558" lon="7.46959">
        <ele>297.7</ele>
        <time>2020-06-27T11:45:34Z</time>
      </trkpt>
      <trkpt lat="49.05556" lon="7.46971">
        <ele>297.9</ele>
        <time>2020-06-27T11:45:35Z</time>
      </trkpt>
      <trkpt lat="49.05554" lon="7.46982">
        <ele>298.1</ele>
        <time>2020-06-27T11:45:36Z</time>
      </trkpt>
      <trkpt lat="49.05552" lon="7.46993">
        <ele>298.4</ele>
        <time>2020-06-27T11:45:37Z</time>
      </trkpt>
      <trkpt lat="49.05549" lon="7.47003">
        <ele>298.6</ele>
        <time>2020-06-27T11:45:38Z</time>
      </trkpt>
      <trkpt lat="49.05547" lon="7.47013">
        <ele>298.8</ele>
        <time>2020-06-27T11:45:39Z</time>
      </trkpt>
      <trkpt lat="49.05545" lon="7.47022">
        <ele>299</ele>
        <time>2020-06-27T11:45:40Z</time>
      </trkpt>
      <trkpt lat="49.05543" lon="7.47031">
        <ele>299.2</ele>
        <time>2020-06-27T11:45:41Z</time>
      </trkpt>
      <trkpt lat="49.05542" lon="7.4704">
        <ele>299.3</ele>
        <time>2020-06-27T11:45:42Z</time>
      </trkpt>
      <trkpt lat="49.0554" lon="7.47049">
        <ele>299.4</ele>
        <time>2020-06-27T11:45:43Z</time>
      </trkpt>
      <trkpt lat="49.05539" lon="7.47058">
        <ele>299.6</ele>
        <time>2020-06-27T11:45:44Z</time>
      </trkpt>
      <trkpt lat="49.05538" lon="7.47066">
        <ele>299.7</ele>
        <time>2020-06-27T11:45:45Z</time>
      </trkpt>
      <trkpt lat="49.05538" lon="7.47076">
        <ele>299.9</ele>
        <time>2020-06-27T11:45:46Z</time>
      </trkpt>
      <trkpt lat="49.05538" lon="7.47084">
        <ele>300</ele>
        <time>2020-06-27T11:45:47Z</time>
      </trkpt>
      <trkpt lat="49.05536" lon="7.47092">
        <ele>300.2</ele>
        <time>2020-06-27T11:45:48Z</time>
      </trkpt>
      <trkpt lat="49.05534" lon="7.47101">
        <ele>300.3</ele>
        <time>2020-06-27T11:45:49Z</time>
      </trkpt>
      <trkpt lat="49.05531" lon="7.47108">
        <ele>300.4</ele>
        <time>2020-06-27T11:45:50Z</time>
      </trkpt>
      <trkpt lat="49.05531" lon="7.47117">
        <ele>300.6</ele>
        <time>2020-06-27T11:45:51Z</time>
      </trkpt>
      <trkpt lat="49.0553" lon="7.47125">
        <ele>300.7</ele>
        <time>2020-06-27T11:45:52Z</time>
      </trkpt>
      <trkpt lat="49.05529" lon="7.47133">
        <ele>300.8</ele>
        <time>2020-06-27T11:45:53Z</time>
      </trkpt>
      <trkpt lat="49.05528" lon="7.47141">
        <ele>300.9</ele>
        <time>2020-06-27T11:45:54Z</time>
      </trkpt>
      <trkpt lat="49.05527" lon="7.47148">
        <ele>300.9</ele>
        <time>2020-06-27T11:45:55Z</time>
      </trkpt>
      <trkpt lat="49.05526" lon="7.47156">
        <ele>301</ele>
        <time>2020-06-27T11:45:56Z</time>
      </trkpt>
      <trkpt lat="49.05525" lon="7.47163">
        <ele>301.1</ele>
        <time>2020-06-27T11:45:57Z</time>
      </trkpt>
      <trkpt lat="49.05525" lon="7.4717">
        <ele>301.2</ele>
        <time>2020-06-27T11:45:58Z</time>
      </trkpt>
      <trkpt lat="49.05523" lon="7.47178">
        <ele>301.3</ele>
        <time>2020-06-27T11:45:59Z</time>
      </trkpt>
      <trkpt lat="49.05522" lon="7.47185">
        <ele>301.3</ele>
        <time>2020-06-27T11:46:00Z</time>
      </trkpt>
      <trkpt lat="49.05521" lon="7.47192">
        <ele>301.4</ele>
        <time>2020-06-27T11:46:01Z</time>
      </trkpt>
      <trkpt lat="49.05519" lon="7.47199">
        <ele>301.4</ele>
        <time>2020-06-27T11:46:02Z</time>
      </trkpt>
      <trkpt lat="49.05518" lon="7.47207">
        <ele>301.5</ele>
        <time>2020-06-27T11:46:03Z</time>
      </trkpt>
      <trkpt lat="49.05516" lon="7.47214">
        <ele>301.5</ele>
        <time>2020-06-27T11:46:04Z</time>
      </trkpt>
      <trkpt lat="49.05515" lon="7.47223">
        <ele>301.5</ele>
        <time>2020-06-27T11:46:05Z</time>
      </trkpt>
      <trkpt lat="49.05514" lon="7.47229">
        <ele>301.5</ele>
        <time>2020-06-27T11:46:06Z</time>
      </trkpt>
      <trkpt lat="49.05512" lon="7.47239">
        <ele>301.5</ele>
        <time>2020-06-27T11:46:07Z</time>
      </trkpt>
      <trkpt lat="49.05511" lon="7.47245">
        <ele>301.5</ele>
        <time>2020-06-27T11:46:08Z</time>
      </trkpt>
      <trkpt lat="49.0551" lon="7.47251">
        <ele>301.5</ele>
        <time>2020-06-27T11:46:09Z</time>
      </trkpt>
      <trkpt lat="49.05509" lon="7.47259">
        <ele>301.5</ele>
        <time>2020-06-27T11:46:10Z</time>
      </trkpt>
      <trkpt lat="49.05508" lon="7.47266">
        <ele>301.5</ele>
        <time>2020-06-27T11:46:11Z</time>
      </trkpt>
      <trkpt lat="49.05508" lon="7.47275">
        <ele>301.7</ele>
        <time>2020-06-27T11:46:12Z</time>
      </trkpt>
      <trkpt lat="49.05507" lon="7.47283">
        <ele>301.7</ele>
        <time>2020-06-27T11:46:13Z</time>
      </trkpt>
      <trkpt lat="49.05505" lon="7.4729">
        <ele>301.7</ele>
        <time>2020-06-27T11:46:14Z</time>
      </trkpt>
      <trkpt lat="49.05503" lon="7.47298">
        <ele>301.7</ele>
        <time>2020-06-27T11:46:15Z</time>
      </trkpt>
      <trkpt lat="49.05502" lon="7.47308">
        <ele>301.7</ele>
        <time>2020-06-27T11:46:16Z</time>
      </trkpt>
      <trkpt lat="49.05501" lon="7.47318">
        <ele>301.6</ele>
        <time>2020-06-27T11:46:17Z</time>
      </trkpt>
      <trkpt lat="49.05499" lon="7.47326">
        <ele>301.6</ele>
        <time>2020-06-27T11:46:18Z</time>
      </trkpt>
      <trkpt lat="49.05498" lon="7.47334">
        <ele>301.6</ele>
        <time>2020-06-27T11:46:19Z</time>
      </trkpt>
      <trkpt lat="49.05496" lon="7.47344">
        <ele>301.5</ele>
        <time>2020-06-27T11:46:20Z</time>
      </trkpt>
      <trkpt lat="49.05494" lon="7.47349">
        <ele>301.5</ele>
        <time>2020-06-27T11:46:21Z</time>
      </trkpt>
      <trkpt lat="49.05493" lon="7.47358">
        <ele>301.4</ele>
        <time>2020-06-27T11:46:22Z</time>
      </trkpt>
      <trkpt lat="49.05491" lon="7.47367">
        <ele>301.4</ele>
        <time>2020-06-27T11:46:23Z</time>
      </trkpt>
      <trkpt lat="49.0549" lon="7.47375">
        <ele>301.3</ele>
        <time>2020-06-27T11:46:24Z</time>
      </trkpt>
      <trkpt lat="49.05489" lon="7.47383">
        <ele>301.2</ele>
        <time>2020-06-27T11:46:25Z</time>
      </trkpt>
      <trkpt lat="49.05488" lon="7.47392">
        <ele>301.1</ele>
        <time>2020-06-27T11:46:26Z</time>
      </trkpt>
      <trkpt lat="49.05487" lon="7.474">
        <ele>301</ele>
        <time>2020-06-27T11:46:27Z</time>
      </trkpt>
      <trkpt lat="49.05485" lon="7.4741">
        <ele>300.8</ele>
        <time>2020-06-27T11:46:28Z</time>
      </trkpt>
      <trkpt lat="49.05484" lon="7.4742">
        <ele>300.7</ele>
        <time>2020-06-27T11:46:29Z</time>
      </trkpt>
      <trkpt lat="49.05482" lon="7.47431">
        <ele>300.5</ele>
        <time>2020-06-27T11:46:30Z</time>
      </trkpt>
      <trkpt lat="49.05482" lon="7.47441">
        <ele>300.3</ele>
        <time>2020-06-27T11:46:31Z</time>
      </trkpt>
      <trkpt lat="49.05481" lon="7.47451">
        <ele>300.2</ele>
        <time>2020-06-27T11:46:32Z</time>
      </trkpt>
      <trkpt lat="49.05479" lon="7.47458">
        <ele>300</ele>
        <time>2020-06-27T11:46:33Z</time>
      </trkpt>
      <trkpt lat="49.05477" lon="7.47468">
        <ele>299.8</ele>
        <time>2020-06-27T11:46:34Z</time>
      </trkpt>
      <trkpt lat="49.05475" lon="7.47479">
        <ele>299.6</ele>
        <time>2020-06-27T11:46:35Z</time>
      </trkpt>
      <trkpt lat="49.05473" lon="7.47489">
        <ele>299.5</ele>
        <time>2020-06-27T11:46:36Z</time>
      </trkpt>
      <trkpt lat="49.0547" lon="7.47501">
        <ele>299.2</ele>
        <time>2020-06-27T11:46:37Z</time>
      </trkpt>
      <trkpt lat="49.05469" lon="7.47512">
        <ele>299</ele>
        <time>2020-06-27T11:46:38Z</time>
      </trkpt>
      <trkpt lat="49.05467" lon="7.47523">
        <ele>298.8</ele>
        <time>2020-06-27T11:46:39Z</time>
      </trkpt>
      <trkpt lat="49.05465" lon="7.47534">
        <ele>298.6</ele>
        <time>2020-06-27T11:46:40Z</time>
      </trkpt>
      <trkpt lat="49.05464" lon="7.47545">
        <ele>298.4</ele>
        <time>2020-06-27T11:46:41Z</time>
      </trkpt>
      <trkpt lat="49.05463" lon="7.47557">
        <ele>298.2</ele>
        <time>2020-06-27T11:46:42Z</time>
      </trkpt>
      <trkpt lat="49.05461" lon="7.47568">
        <ele>298</ele>
        <time>2020-06-27T11:46:43Z</time>
      </trkpt>
      <trkpt lat="49.0546" lon="7.47579">
        <ele>297.8</ele>
        <time>2020-06-27T11:46:44Z</time>
      </trkpt>
      <trkpt lat="49.05458" lon="7.47589">
        <ele>297.6</ele>
        <time>2020-06-27T11:46:45Z</time>
      </trkpt>
      <trkpt lat="49.05456" lon="7.476">
        <ele>297.3</ele>
        <time>2020-06-27T11:46:46Z</time>
      </trkpt>
      <trkpt lat="49.05454" lon="7.4761">
        <ele>297.2</ele>
        <time>2020-06-27T11:46:47Z</time>
      </trkpt>
      <trkpt lat="49.05452" lon="7.4762">
        <ele>297</ele>
        <time>2020-06-27T11:46:48Z</time>
      </trkpt>
      <trkpt lat="49.0545" lon="7.47631">
        <ele>296.8</ele>
        <time>2020-06-27T11:46:49Z</time>
      </trkpt>
      <trkpt lat="49.05448" lon="7.47642">
        <ele>296.6</ele>
        <time>2020-06-27T11:46:50Z</time>
      </trkpt>
      <trkpt lat="49.05446" lon="7.47652">
        <ele>296.5</ele>
        <time>2020-06-27T11:46:51Z</time>
      </trkpt>
      <trkpt lat="49.05445" lon="7.47665">
        <ele>296.4</ele>
        <time>2020-06-27T11:46:52Z</time>
      </trkpt>
      <trkpt lat="49.05442" lon="7.47677">
        <ele>296.2</ele>
        <time>2020-06-27T11:46:53Z</time>
      </trkpt>
      <trkpt lat="49.0544" lon="7.47688">
        <ele>296.1</ele>
        <time>2020-06-27T11:46:54Z</time>
      </trkpt>
      <trkpt lat="49.05438" lon="7.47699">
        <ele>296</ele>
        <time>2020-06-27T11:46:55Z</time>
      </trkpt>
      <trkpt lat="49.05437" lon="7.47709">
        <ele>295.9</ele>
        <time>2020-06-27T11:46:56Z</time>
      </trkpt>
      <trkpt lat="49.05436" lon="7.47719">
        <ele>295.7</ele>
        <time>2020-06-27T11:46:57Z</time>
      </trkpt>
      <trkpt lat="49.05434" lon="7.4773">
        <ele>295.6</ele>
        <time>2020-06-27T11:46:58Z</time>
      </trkpt>
      <trkpt lat="49.05433" lon="7.4774">
        <ele>295.5</ele>
        <time>2020-06-27T11:46:59Z</time>
      </trkpt>
      <trkpt lat="49.05432" lon="7.4775">
        <ele>295.4</ele>
        <time>2020-06-27T11:47:00Z</time>
      </trkpt>
      <trkpt lat="49.0543" lon="7.47761">
        <ele>295.3</ele>
        <time>2020-06-27T11:47:01Z</time>
      </trkpt>
      <trkpt lat="49.05428" lon="7.47771">
        <ele>295.2</ele>
        <time>2020-06-27T11:47:02Z</time>
      </trkpt>
      <trkpt lat="49.05427" lon="7.47781">
        <ele>295.1</ele>
        <time>2020-06-27T11:47:03Z</time>
      </trkpt>
      <trkpt lat="49.05426" lon="7.47792">
        <ele>295</ele>
        <time>2020-06-27T11:47:04Z</time>
      </trkpt>
      <trkpt lat="49.05423" lon="7.47802">
        <ele>294.9</ele>
        <time>2020-06-27T11:47:05Z</time>
      </trkpt>
      <trkpt lat="49.05421" lon="7.47813">
        <ele>294.8</ele>
        <time>2020-06-27T11:47:06Z</time>
      </trkpt>
      <trkpt lat="49.0542" lon="7.47824">
        <ele>294.7</ele>
        <time>2020-06-27T11:47:07Z</time>
      </trkpt>
      <trkpt lat="49.05418" lon="7.47835">
        <ele>294.6</ele>
        <time>2020-06-27T11:47:08Z</time>
      </trkpt>
      <trkpt lat="49.05417" lon="7.47845">
        <ele>294.6</ele>
        <time>2020-06-27T11:47:09Z</time>
      </trkpt>
      <trkpt lat="49.05415" lon="7.47856">
        <ele>294.6</ele>
        <time>2020-06-27T11:47:10Z</time>
      </trkpt>
      <trkpt lat="49.05414" lon="7.47867">
        <ele>294.6</ele>
        <time>2020-06-27T11:47:11Z</time>
      </trkpt>
      <trkpt lat="49.05412" lon="7.47877">
        <ele>294.5</ele>
        <time>2020-06-27T11:47:12Z</time>
      </trkpt>
      <trkpt lat="49.05411" lon="7.47888">
        <ele>294.4</ele>
        <time>2020-06-27T11:47:13Z</time>
      </trkpt>
      <trkpt lat="49.05409" lon="7.47899">
        <ele>294.4</ele>
        <time>2020-06-27T11:47:14Z</time>
      </trkpt>
      <trkpt lat="49.05408" lon="7.47909">
        <ele>294.4</ele>
        <time>2020-06-27T11:47:15Z</time>
      </trkpt>
      <trkpt lat="49.05406" lon="7.4792">
        <ele>294.4</ele>
        <time>2020-06-27T11:47:16Z</time>
      </trkpt>
      <trkpt lat="49.05404" lon="7.4793">
        <ele>294.5</ele>
        <time>2020-06-27T11:47:17Z</time>
      </trkpt>
      <trkpt lat="49.05403" lon="7.4794">
        <ele>294.6</ele>
        <time>2020-06-27T11:47:18Z</time>
      </trkpt>
      <trkpt lat="49.05401" lon="7.4795">
        <ele>294.7</ele>
        <time>2020-06-27T11:47:19Z</time>
      </trkpt>
      <trkpt lat="49.05399" lon="7.47959">
        <ele>294.8</ele>
        <time>2020-06-27T11:47:20Z</time>
      </trkpt>
      <trkpt lat="49.05398" lon="7.47968">
        <ele>294.9</ele>
        <time>2020-06-27T11:47:21Z</time>
      </trkpt>
      <trkpt lat="49.05396" lon="7.47978">
        <ele>295.1</ele>
        <time>2020-06-27T11:47:22Z</time>
      </trkpt>
      <trkpt lat="49.05395" lon="7.47987">
        <ele>295.2</ele>
        <time>2020-06-27T11:47:23Z</time>
      </trkpt>
      <trkpt lat="49.05393" lon="7.47995">
        <ele>295.3</ele>
        <time>2020-06-27T11:47:24Z</time>
      </trkpt>
      <trkpt lat="49.05391" lon="7.48004">
        <ele>295.4</ele>
        <time>2020-06-27T11:47:25Z</time>
      </trkpt>
      <trkpt lat="49.05389" lon="7.48013">
        <ele>295.5</ele>
        <time>2020-06-27T11:47:26Z</time>
      </trkpt>
      <trkpt lat="49.05388" lon="7.48021">
        <ele>295.6</ele>
        <time>2020-06-27T11:47:27Z</time>
      </trkpt>
      <trkpt lat="49.05386" lon="7.4803">
        <ele>295.6</ele>
        <time>2020-06-27T11:47:28Z</time>
      </trkpt>
      <trkpt lat="49.05386" lon="7.48038">
        <ele>295.7</ele>
        <time>2020-06-27T11:47:29Z</time>
      </trkpt>
      <trkpt lat="49.05385" lon="7.48047">
        <ele>295.8</ele>
        <time>2020-06-27T11:47:30Z</time>
      </trkpt>
      <trkpt lat="49.05384" lon="7.48055">
        <ele>295.8</ele>
        <time>2020-06-27T11:47:31Z</time>
      </trkpt>
      <trkpt lat="49.05383" lon="7.48062">
        <ele>295.9</ele>
        <time>2020-06-27T11:47:32Z</time>
      </trkpt>
      <trkpt lat="49.05381" lon="7.4807">
        <ele>295.9</ele>
        <time>2020-06-27T11:47:33Z</time>
      </trkpt>
      <trkpt lat="49.05381" lon="7.48079">
        <ele>295.9</ele>
        <time>2020-06-27T11:47:34Z</time>
      </trkpt>
      <trkpt lat="49.0538" lon="7.48087">
        <ele>296</ele>
        <time>2020-06-27T11:47:35Z</time>
      </trkpt>
      <trkpt lat="49.05379" lon="7.48095">
        <ele>296</ele>
        <time>2020-06-27T11:47:36Z</time>
      </trkpt>
      <trkpt lat="49.05377" lon="7.48103">
        <ele>296</ele>
        <time>2020-06-27T11:47:37Z</time>
      </trkpt>
      <trkpt lat="49.05377" lon="7.48111">
        <ele>296</ele>
        <time>2020-06-27T11:47:38Z</time>
      </trkpt>
      <trkpt lat="49.05374" lon="7.48118">
        <ele>296</ele>
        <time>2020-06-27T11:47:39Z</time>
      </trkpt>
      <trkpt lat="49.05372" lon="7.48125">
        <ele>296</ele>
        <time>2020-06-27T11:47:40Z</time>
      </trkpt>
      <trkpt lat="49.05371" lon="7.48132">
        <ele>295.9</ele>
        <time>2020-06-27T11:47:41Z</time>
      </trkpt>
      <trkpt lat="49.05369" lon="7.4814">
        <ele>295.8</ele>
        <time>2020-06-27T11:47:42Z</time>
      </trkpt>
      <trkpt lat="49.05368" lon="7.48148">
        <ele>295.8</ele>
        <time>2020-06-27T11:47:43Z</time>
      </trkpt>
      <trkpt lat="49.05367" lon="7.48157">
        <ele>295.7</ele>
        <time>2020-06-27T11:47:44Z</time>
      </trkpt>
      <trkpt lat="49.05367" lon="7.48166">
        <ele>295.6</ele>
        <time>2020-06-27T11:47:45Z</time>
      </trkpt>
      <trkpt lat="49.05365" lon="7.48176">
        <ele>295.5</ele>
        <time>2020-06-27T11:47:46Z</time>
      </trkpt>
      <trkpt lat="49.05364" lon="7.48185">
        <ele>295.5</ele>
        <time>2020-06-27T11:47:47Z</time>
      </trkpt>
      <trkpt lat="49.05362" lon="7.48194">
        <ele>295.4</ele>
        <time>2020-06-27T11:47:48Z</time>
      </trkpt>
      <trkpt lat="49.05361" lon="7.48204">
        <ele>295.3</ele>
        <time>2020-06-27T11:47:49Z</time>
      </trkpt>
      <trkpt lat="49.05359" lon="7.48213">
        <ele>295.1</ele>
        <time>2020-06-27T11:47:50Z</time>
      </trkpt>
      <trkpt lat="49.05358" lon="7.48223">
        <ele>295</ele>
        <time>2020-06-27T11:47:51Z</time>
      </trkpt>
      <trkpt lat="49.05358" lon="7.48233">
        <ele>294.8</ele>
        <time>2020-06-27T11:47:52Z</time>
      </trkpt>
      <trkpt lat="49.05358" lon="7.48243">
        <ele>294.7</ele>
        <time>2020-06-27T11:47:53Z</time>
      </trkpt>
      <trkpt lat="49.05357" lon="7.48253">
        <ele>294.5</ele>
        <time>2020-06-27T11:47:54Z</time>
      </trkpt>
      <trkpt lat="49.05357" lon="7.48263">
        <ele>294.4</ele>
        <time>2020-06-27T11:47:55Z</time>
      </trkpt>
      <trkpt lat="49.05358" lon="7.48273">
        <ele>294.3</ele>
        <time>2020-06-27T11:47:56Z</time>
      </trkpt>
      <trkpt lat="49.05357" lon="7.48284">
        <ele>294.2</ele>
        <time>2020-06-27T11:47:57Z</time>
      </trkpt>
      <trkpt lat="49.05358" lon="7.48294">
        <ele>294.2</ele>
        <time>2020-06-27T11:47:58Z</time>
      </trkpt>
      <trkpt lat="49.05359" lon="7.48303">
        <ele>294.2</ele>
        <time>2020-06-27T11:47:59Z</time>
      </trkpt>
      <trkpt lat="49.0536" lon="7.48313">
        <ele>294.2</ele>
        <time>2020-06-27T11:48:00Z</time>
      </trkpt>
      <trkpt lat="49.05361" lon="7.48323">
        <ele>294.2</ele>
        <time>2020-06-27T11:48:01Z</time>
      </trkpt>
      <trkpt lat="49.05362" lon="7.48333">
        <ele>294.2</ele>
        <time>2020-06-27T11:48:02Z</time>
      </trkpt>
      <trkpt lat="49.05364" lon="7.48343">
        <ele>294.3</ele>
        <time>2020-06-27T11:48:03Z</time>
      </trkpt>
      <trkpt lat="49.05366" lon="7.48352">
        <ele>294.3</ele>
        <time>2020-06-27T11:48:04Z</time>
      </trkpt>
      <trkpt lat="49.05368" lon="7.48362">
        <ele>294.3</ele>
        <time>2020-06-27T11:48:05Z</time>
      </trkpt>
      <trkpt lat="49.05369" lon="7.48372">
        <ele>294.4</ele>
        <time>2020-06-27T11:48:06Z</time>
      </trkpt>
      <trkpt lat="49.05371" lon="7.48382">
        <ele>294.5</ele>
        <time>2020-06-27T11:48:07Z</time>
      </trkpt>
      <trkpt lat="49.05373" lon="7.48392">
        <ele>294.7</ele>
        <time>2020-06-27T11:48:08Z</time>
      </trkpt>
      <trkpt lat="49.05375" lon="7.48401">
        <ele>294.8</ele>
        <time>2020-06-27T11:48:09Z</time>
      </trkpt>
      <trkpt lat="49.05377" lon="7.48411">
        <ele>295</ele>
        <time>2020-06-27T11:48:10Z</time>
      </trkpt>
      <trkpt lat="49.05378" lon="7.4842">
        <ele>295.1</ele>
        <time>2020-06-27T11:48:11Z</time>
      </trkpt>
      <trkpt lat="49.0538" lon="7.4843">
        <ele>295.2</ele>
        <time>2020-06-27T11:48:12Z</time>
      </trkpt>
      <trkpt lat="49.05382" lon="7.48439">
        <ele>295.4</ele>
        <time>2020-06-27T11:48:13Z</time>
      </trkpt>
      <trkpt lat="49.05384" lon="7.48448">
        <ele>295.5</ele>
        <time>2020-06-27T11:48:14Z</time>
      </trkpt>
      <trkpt lat="49.05386" lon="7.48457">
        <ele>295.6</ele>
        <time>2020-06-27T11:48:15Z</time>
      </trkpt>
      <trkpt lat="49.05388" lon="7.48465">
        <ele>295.7</ele>
        <time>2020-06-27T11:48:16Z</time>
      </trkpt>
      <trkpt lat="49.0539" lon="7.48474">
        <ele>295.8</ele>
        <time>2020-06-27T11:48:17Z</time>
      </trkpt>
      <trkpt lat="49.05393" lon="7.48482">
        <ele>296</ele>
        <time>2020-06-27T11:48:18Z</time>
      </trkpt>
      <trkpt lat="49.05396" lon="7.48491">
        <ele>296.1</ele>
        <time>2020-06-27T11:48:19Z</time>
      </trkpt>
      <trkpt lat="49.05399" lon="7.48498">
        <ele>296.2</ele>
        <time>2020-06-27T11:48:20Z</time>
      </trkpt>
      <trkpt lat="49.05401" lon="7.48506">
        <ele>296.3</ele>
        <time>2020-06-27T11:48:21Z</time>
      </trkpt>
      <trkpt lat="49.05402" lon="7.48515">
        <ele>296.4</ele>
        <time>2020-06-27T11:48:22Z</time>
      </trkpt>
      <trkpt lat="49.05403" lon="7.48524">
        <ele>296.4</ele>
        <time>2020-06-27T11:48:23Z</time>
      </trkpt>
      <trkpt lat="49.05404" lon="7.48533">
        <ele>296.5</ele>
        <time>2020-06-27T11:48:24Z</time>
      </trkpt>
      <trkpt lat="49.05405" lon="7.48541">
        <ele>296.6</ele>
        <time>2020-06-27T11:48:25Z</time>
      </trkpt>
      <trkpt lat="49.05406" lon="7.4855">
        <ele>296.6</ele>
        <time>2020-06-27T11:48:26Z</time>
      </trkpt>
      <trkpt lat="49.05409" lon="7.48559">
        <ele>296.6</ele>
        <time>2020-06-27T11:48:27Z</time>
      </trkpt>
      <trkpt lat="49.05411" lon="7.48567">
        <ele>296.6</ele>
        <time>2020-06-27T11:48:28Z</time>
      </trkpt>
      <trkpt lat="49.05413" lon="7.48576">
        <ele>296.6</ele>
        <time>2020-06-27T11:48:29Z</time>
      </trkpt>
      <trkpt lat="49.05414" lon="7.48585">
        <ele>296.5</ele>
        <time>2020-06-27T11:48:30Z</time>
      </trkpt>
      <trkpt lat="49.05416" lon="7.48594">
        <ele>296.3</ele>
        <time>2020-06-27T11:48:31Z</time>
      </trkpt>
      <trkpt lat="49.05418" lon="7.48603">
        <ele>296.2</ele>
        <time>2020-06-27T11:48:32Z</time>
      </trkpt>
      <trkpt lat="49.0542" lon="7.48612">
        <ele>296</ele>
        <time>2020-06-27T11:48:33Z</time>
      </trkpt>
      <trkpt lat="49.05421" lon="7.4862">
        <ele>295.9</ele>
        <time>2020-06-27T11:48:34Z</time>
      </trkpt>
      <trkpt lat="49.05423" lon="7.48629">
        <ele>295.8</ele>
        <time>2020-06-27T11:48:35Z</time>
      </trkpt>
      <trkpt lat="49.05423" lon="7.48638">
        <ele>295.6</ele>
        <time>2020-06-27T11:48:36Z</time>
      </trkpt>
      <trkpt lat="49.05425" lon="7.48647">
        <ele>295.5</ele>
        <time>2020-06-27T11:48:37Z</time>
      </trkpt>
      <trkpt lat="49.05427" lon="7.48656">
        <ele>295.3</ele>
        <time>2020-06-27T11:48:38Z</time>
      </trkpt>
      <trkpt lat="49.05429" lon="7.48665">
        <ele>295.1</ele>
        <time>2020-06-27T11:48:39Z</time>
      </trkpt>
      <trkpt lat="49.05431" lon="7.48675">
        <ele>294.9</ele>
        <time>2020-06-27T11:48:40Z</time>
      </trkpt>
      <trkpt lat="49.05433" lon="7.48685">
        <ele>294.6</ele>
        <time>2020-06-27T11:48:41Z</time>
      </trkpt>
      <trkpt lat="49.05435" lon="7.48695">
        <ele>294.4</ele>
        <time>2020-06-27T11:48:42Z</time>
      </trkpt>
      <trkpt lat="49.05436" lon="7.48706">
        <ele>294.2</ele>
        <time>2020-06-27T11:48:43Z</time>
      </trkpt>
      <trkpt lat="49.05436" lon="7.48717">
        <ele>294</ele>
        <time>2020-06-27T11:48:44Z</time>
      </trkpt>
      <trkpt lat="49.05438" lon="7.48729">
        <ele>293.8</ele>
        <time>2020-06-27T11:48:45Z</time>
      </trkpt>
      <trkpt lat="49.05438" lon="7.4874">
        <ele>293.6</ele>
        <time>2020-06-27T11:48:46Z</time>
      </trkpt>
      <trkpt lat="49.0544" lon="7.48751">
        <ele>293.4</ele>
        <time>2020-06-27T11:48:47Z</time>
      </trkpt>
      <trkpt lat="49.05441" lon="7.48762">
        <ele>293.3</ele>
        <time>2020-06-27T11:48:48Z</time>
      </trkpt>
      <trkpt lat="49.05441" lon="7.48773">
        <ele>293.2</ele>
        <time>2020-06-27T11:48:49Z</time>
      </trkpt>
      <trkpt lat="49.05442" lon="7.48784">
        <ele>293.3</ele>
        <time>2020-06-27T11:48:50Z</time>
      </trkpt>
      <trkpt lat="49.05441" lon="7.48795">
        <ele>293.4</ele>
        <time>2020-06-27T11:48:51Z</time>
      </trkpt>
      <trkpt lat="49.0544" lon="7.48805">
        <ele>293.5</ele>
        <time>2020-06-27T11:48:52Z</time>
      </trkpt>
      <trkpt lat="49.05438" lon="7.48814">
        <ele>293.8</ele>
        <time>2020-06-27T11:48:53Z</time>
      </trkpt>
      <trkpt lat="49.05436" lon="7.48823">
        <ele>294</ele>
        <time>2020-06-27T11:48:54Z</time>
      </trkpt>
      <trkpt lat="49.05434" lon="7.48831">
        <ele>294.3</ele>
        <time>2020-06-27T11:48:55Z</time>
      </trkpt>
      <trkpt lat="49.05432" lon="7.48839">
        <ele>294.5</ele>
        <time>2020-06-27T11:48:56Z</time>
      </trkpt>
      <trkpt lat="49.0543" lon="7.48846">
        <ele>294.7</ele>
        <time>2020-06-27T11:48:57Z</time>
      </trkpt>
      <trkpt lat="49.05427" lon="7.48853">
        <ele>295</ele>
        <time>2020-06-27T11:48:58Z</time>
      </trkpt>
      <trkpt lat="49.05424" lon="7.48859">
        <ele>295.3</ele>
        <time>2020-06-27T11:48:59Z</time>
      </trkpt>
      <trkpt lat="49.0542" lon="7.48865">
        <ele>295.6</ele>
        <time>2020-06-27T11:49:00Z</time>
      </trkpt>
      <trkpt lat="49.05417" lon="7.48871">
        <ele>295.8</ele>
        <time>2020-06-27T11:49:01Z</time>
      </trkpt>
      <trkpt lat="49.05414" lon="7.48875">
        <ele>296</ele>
        <time>2020-06-27T11:49:02Z</time>
      </trkpt>
      <trkpt lat="49.05411" lon="7.4888">
        <ele>296.3</ele>
        <time>2020-06-27T11:49:03Z</time>
      </trkpt>
      <trkpt lat="49.05407" lon="7.48886">
        <ele>296.5</ele>
        <time>2020-06-27T11:49:04Z</time>
      </trkpt>
      <trkpt lat="49.05404" lon="7.48892">
        <ele>296.8</ele>
        <time>2020-06-27T11:49:05Z</time>
      </trkpt>
      <trkpt lat="49.05401" lon="7.48898">
        <ele>297.1</ele>
        <time>2020-06-27T11:49:06Z</time>
      </trkpt>
      <trkpt lat="49.05399" lon="7.48903">
        <ele>297.3</ele>
        <time>2020-06-27T11:49:07Z</time>
      </trkpt>
      <trkpt lat="49.05395" lon="7.48907">
        <ele>297.6</ele>
        <time>2020-06-27T11:49:08Z</time>
      </trkpt>
      <trkpt lat="49.05393" lon="7.48912">
        <ele>297.8</ele>
        <time>2020-06-27T11:49:09Z</time>
      </trkpt>
      <trkpt lat="49.0539" lon="7.48916">
        <ele>298</ele>
        <time>2020-06-27T11:49:10Z</time>
      </trkpt>
      <trkpt lat="49.05389" lon="7.48921">
        <ele>298.2</ele>
        <time>2020-06-27T11:49:11Z</time>
      </trkpt>
      <trkpt lat="49.05387" lon="7.48926">
        <ele>298.4</ele>
        <time>2020-06-27T11:49:12Z</time>
      </trkpt>
      <trkpt lat="49.05385" lon="7.4893">
        <ele>298.6</ele>
        <time>2020-06-27T11:49:13Z</time>
      </trkpt>
      <trkpt lat="49.05382" lon="7.48934">
        <ele>298.8</ele>
        <time>2020-06-27T11:49:14Z</time>
      </trkpt>
      <trkpt lat="49.05381" lon="7.48938">
        <ele>299</ele>
        <time>2020-06-27T11:49:15Z</time>
      </trkpt>
      <trkpt lat="49.05378" lon="7.48944">
        <ele>299.2</ele>
        <time>2020-06-27T11:49:16Z</time>
      </trkpt>
      <trkpt lat="49.05375" lon="7.48949">
        <ele>299.5</ele>
        <time>2020-06-27T11:49:17Z</time>
      </trkpt>
      <trkpt lat="49.05373" lon="7.48955">
        <ele>299.7</ele>
        <time>2020-06-27T11:49:18Z</time>
      </trkpt>
      <trkpt lat="49.05371" lon="7.48959">
        <ele>299.8</ele>
        <time>2020-06-27T11:49:19Z</time>
      </trkpt>
      <trkpt lat="49.05369" lon="7.48962">
        <ele>300</ele>
        <time>2020-06-27T11:49:20Z</time>
      </trkpt>
      <trkpt lat="49.05367" lon="7.48966">
        <ele>300.1</ele>
        <time>2020-06-27T11:49:21Z</time>
      </trkpt>
      <trkpt lat="49.05364" lon="7.48971">
        <ele>300.4</ele>
        <time>2020-06-27T11:49:22Z</time>
      </trkpt>
      <trkpt lat="49.05359" lon="7.48979">
        <ele>300.7</ele>
        <time>2020-06-27T11:49:23Z</time>
      </trkpt>
      <trkpt lat="49.05356" lon="7.48983">
        <ele>300.9</ele>
        <time>2020-06-27T11:49:24Z</time>
      </trkpt>
      <trkpt lat="49.05354" lon="7.48986">
        <ele>301</ele>
        <time>2020-06-27T11:49:25Z</time>
      </trkpt>
      <trkpt lat="49.05351" lon="7.4899">
        <ele>301.2</ele>
        <time>2020-06-27T11:49:26Z</time>
      </trkpt>
      <trkpt lat="49.05348" lon="7.48995">
        <ele>301.4</ele>
        <time>2020-06-27T11:49:27Z</time>
      </trkpt>
      <trkpt lat="49.05346" lon="7.49001">
        <ele>301.6</ele>
        <time>2020-06-27T11:49:28Z</time>
      </trkpt>
      <trkpt lat="49.05344" lon="7.49006">
        <ele>301.8</ele>
        <time>2020-06-27T11:49:29Z</time>
      </trkpt>
      <trkpt lat="49.05341" lon="7.4901">
        <ele>302</ele>
        <time>2020-06-27T11:49:30Z</time>
      </trkpt>
      <trkpt lat="49.05338" lon="7.49014">
        <ele>302.1</ele>
        <time>2020-06-27T11:49:31Z</time>
      </trkpt>
      <trkpt lat="49.05335" lon="7.49018">
        <ele>302.3</ele>
        <time>2020-06-27T11:49:32Z</time>
      </trkpt>
      <trkpt lat="49.05333" lon="7.49021">
        <ele>302.5</ele>
        <time>2020-06-27T11:49:33Z</time>
      </trkpt>
      <trkpt lat="49.0533" lon="7.49028">
        <ele>302.7</ele>
        <time>2020-06-27T11:49:34Z</time>
      </trkpt>
      <trkpt lat="49.05327" lon="7.49031">
        <ele>302.8</ele>
        <time>2020-06-27T11:49:35Z</time>
      </trkpt>
      <trkpt lat="49.05325" lon="7.49035">
        <ele>303</ele>
        <time>2020-06-27T11:49:36Z</time>
      </trkpt>
      <trkpt lat="49.05323" lon="7.49041">
        <ele>303.2</ele>
        <time>2020-06-27T11:49:37Z</time>
      </trkpt>
      <trkpt lat="49.0532" lon="7.49045">
        <ele>303.4</ele>
        <time>2020-06-27T11:49:38Z</time>
      </trkpt>
      <trkpt lat="49.05317" lon="7.4905">
        <ele>303.5</ele>
        <time>2020-06-27T11:49:39Z</time>
      </trkpt>
      <trkpt lat="49.05315" lon="7.49054">
        <ele>303.7</ele>
        <time>2020-06-27T11:49:40Z</time>
      </trkpt>
      <trkpt lat="49.05312" lon="7.49059">
        <ele>303.8</ele>
        <time>2020-06-27T11:49:41Z</time>
      </trkpt>
      <trkpt lat="49.0531" lon="7.49061">
        <ele>303.9</ele>
        <time>2020-06-27T11:49:42Z</time>
      </trkpt>
      <trkpt lat="49.05307" lon="7.49065">
        <ele>304.1</ele>
        <time>2020-06-27T11:49:43Z</time>
      </trkpt>
      <trkpt lat="49.05303" lon="7.49068">
        <ele>304.3</ele>
        <time>2020-06-27T11:49:44Z</time>
      </trkpt>
      <trkpt lat="49.05301" lon="7.49074">
        <ele>304.5</ele>
        <time>2020-06-27T11:49:45Z</time>
      </trkpt>
      <trkpt lat="49.05299" lon="7.49079">
        <ele>304.7</ele>
        <time>2020-06-27T11:49:46Z</time>
      </trkpt>
      <trkpt lat="49.05297" lon="7.49082">
        <ele>304.8</ele>
        <time>2020-06-27T11:49:47Z</time>
      </trkpt>
      <trkpt lat="49.05294" lon="7.49086">
        <ele>305</ele>
        <time>2020-06-27T11:49:48Z</time>
      </trkpt>
      <trkpt lat="49.05291" lon="7.49091">
        <ele>305.2</ele>
        <time>2020-06-27T11:49:49Z</time>
      </trkpt>
      <trkpt lat="49.05289" lon="7.49095">
        <ele>305.4</ele>
        <time>2020-06-27T11:49:50Z</time>
      </trkpt>
      <trkpt lat="49.05287" lon="7.491">
        <ele>305.6</ele>
        <time>2020-06-27T11:49:51Z</time>
      </trkpt>
      <trkpt lat="49.05285" lon="7.49104">
        <ele>305.8</ele>
        <time>2020-06-27T11:49:52Z</time>
      </trkpt>
      <trkpt lat="49.05283" lon="7.49108">
        <ele>306</ele>
        <time>2020-06-27T11:49:53Z</time>
      </trkpt>
      <trkpt lat="49.05279" lon="7.49111">
        <ele>306.2</ele>
        <time>2020-06-27T11:49:54Z</time>
      </trkpt>
      <trkpt lat="49.05276" lon="7.49117">
        <ele>306.4</ele>
        <time>2020-06-27T11:49:55Z</time>
      </trkpt>
      <trkpt lat="49.05274" lon="7.49122">
        <ele>306.6</ele>
        <time>2020-06-27T11:49:56Z</time>
      </trkpt>
      <trkpt lat="49.05273" lon="7.49126">
        <ele>306.7</ele>
        <time>2020-06-27T11:49:57Z</time>
      </trkpt>
      <trkpt lat="49.05271" lon="7.4913">
        <ele>306.9</ele>
        <time>2020-06-27T11:49:58Z</time>
      </trkpt>
      <trkpt lat="49.05269" lon="7.49135">
        <ele>307.1</ele>
        <time>2020-06-27T11:49:59Z</time>
      </trkpt>
      <trkpt lat="49.05267" lon="7.4914">
        <ele>307.3</ele>
        <time>2020-06-27T11:50:00Z</time>
      </trkpt>
      <trkpt lat="49.05266" lon="7.49143">
        <ele>307.4</ele>
        <time>2020-06-27T11:50:01Z</time>
      </trkpt>
      <trkpt lat="49.05262" lon="7.49147">
        <ele>307.6</ele>
        <time>2020-06-27T11:50:02Z</time>
      </trkpt>
      <trkpt lat="49.05261" lon="7.49152">
        <ele>307.8</ele>
        <time>2020-06-27T11:50:03Z</time>
      </trkpt>
      <trkpt lat="49.05258" lon="7.49155">
        <ele>308</ele>
        <time>2020-06-27T11:50:04Z</time>
      </trkpt>
      <trkpt lat="49.05256" lon="7.4916">
        <ele>308.2</ele>
        <time>2020-06-27T11:50:05Z</time>
      </trkpt>
      <trkpt lat="49.05253" lon="7.49164">
        <ele>308.3</ele>
        <time>2020-06-27T11:50:06Z</time>
      </trkpt>
      <trkpt lat="49.05251" lon="7.49168">
        <ele>308.5</ele>
        <time>2020-06-27T11:50:07Z</time>
      </trkpt>
      <trkpt lat="49.05249" lon="7.49172">
        <ele>308.6</ele>
        <time>2020-06-27T11:50:08Z</time>
      </trkpt>
      <trkpt lat="49.05247" lon="7.49177">
        <ele>308.8</ele>
        <time>2020-06-27T11:50:09Z</time>
      </trkpt>
      <trkpt lat="49.05244" lon="7.49182">
        <ele>308.9</ele>
        <time>2020-06-27T11:50:10Z</time>
      </trkpt>
      <trkpt lat="49.05242" lon="7.49188">
        <ele>309.1</ele>
        <time>2020-06-27T11:50:11Z</time>
      </trkpt>
      <trkpt lat="49.0524" lon="7.4919">
        <ele>309.2</ele>
        <time>2020-06-27T11:50:12Z</time>
      </trkpt>
      <trkpt lat="49.05238" lon="7.49195">
        <ele>309.3</ele>
        <time>2020-06-27T11:50:13Z</time>
      </trkpt>
      <trkpt lat="49.05235" lon="7.49201">
        <ele>309.5</ele>
        <time>2020-06-27T11:50:14Z</time>
      </trkpt>
      <trkpt lat="49.05233" lon="7.49204">
        <ele>309.6</ele>
        <time>2020-06-27T11:50:15Z</time>
      </trkpt>
      <trkpt lat="49.0523" lon="7.4921">
        <ele>309.7</ele>
        <time>2020-06-27T11:50:16Z</time>
      </trkpt>
      <trkpt lat="49.05227" lon="7.49214">
        <ele>309.9</ele>
        <time>2020-06-27T11:50:17Z</time>
      </trkpt>
      <trkpt lat="49.05225" lon="7.49218">
        <ele>309.9</ele>
        <time>2020-06-27T11:50:18Z</time>
      </trkpt>
      <trkpt lat="49.05222" lon="7.49223">
        <ele>310</ele>
        <time>2020-06-27T11:50:19Z</time>
      </trkpt>
      <trkpt lat="49.05218" lon="7.49229">
        <ele>310.2</ele>
        <time>2020-06-27T11:50:20Z</time>
      </trkpt>
      <trkpt lat="49.05215" lon="7.49235">
        <ele>310.3</ele>
        <time>2020-06-27T11:50:21Z</time>
      </trkpt>
      <trkpt lat="49.05213" lon="7.49238">
        <ele>310.3</ele>
        <time>2020-06-27T11:50:22Z</time>
      </trkpt>
      <trkpt lat="49.05211" lon="7.49243">
        <ele>310.4</ele>
        <time>2020-06-27T11:50:23Z</time>
      </trkpt>
      <trkpt lat="49.05207" lon="7.49248">
        <ele>310.4</ele>
        <time>2020-06-27T11:50:24Z</time>
      </trkpt>
      <trkpt lat="49.05204" lon="7.49253">
        <ele>310.5</ele>
        <time>2020-06-27T11:50:25Z</time>
      </trkpt>
      <trkpt lat="49.05203" lon="7.4926">
        <ele>310.6</ele>
        <time>2020-06-27T11:50:26Z</time>
      </trkpt>
      <trkpt lat="49.05201" lon="7.49266">
        <ele>310.6</ele>
        <time>2020-06-27T11:50:27Z</time>
      </trkpt>
      <trkpt lat="49.05199" lon="7.49271">
        <ele>310.6</ele>
        <time>2020-06-27T11:50:28Z</time>
      </trkpt>
      <trkpt lat="49.05197" lon="7.49277">
        <ele>310.5</ele>
        <time>2020-06-27T11:50:29Z</time>
      </trkpt>
      <trkpt lat="49.05195" lon="7.49283">
        <ele>310.5</ele>
        <time>2020-06-27T11:50:30Z</time>
      </trkpt>
      <trkpt lat="49.05193" lon="7.49288">
        <ele>310.5</ele>
        <time>2020-06-27T11:50:31Z</time>
      </trkpt>
      <trkpt lat="49.0519" lon="7.49296">
        <ele>310.4</ele>
        <time>2020-06-27T11:50:32Z</time>
      </trkpt>
      <trkpt lat="49.05188" lon="7.49306">
        <ele>310.4</ele>
        <time>2020-06-27T11:50:33Z</time>
      </trkpt>
      <trkpt lat="49.05186" lon="7.49313">
        <ele>310.3</ele>
        <time>2020-06-27T11:50:34Z</time>
      </trkpt>
      <trkpt lat="49.05184" lon="7.4932">
        <ele>310.3</ele>
        <time>2020-06-27T11:50:35Z</time>
      </trkpt>
      <trkpt lat="49.05183" lon="7.49328">
        <ele>310.3</ele>
        <time>2020-06-27T11:50:36Z</time>
      </trkpt>
      <trkpt lat="49.05181" lon="7.49336">
        <ele>310.2</ele>
        <time>2020-06-27T11:50:37Z</time>
      </trkpt>
      <trkpt lat="49.05179" lon="7.49342">
        <ele>310.2</ele>
        <time>2020-06-27T11:50:38Z</time>
      </trkpt>
      <trkpt lat="49.05177" lon="7.49351">
        <ele>310.1</ele>
        <time>2020-06-27T11:50:39Z</time>
      </trkpt>
      <trkpt lat="49.05174" lon="7.49359">
        <ele>310.1</ele>
        <time>2020-06-27T11:50:40Z</time>
      </trkpt>
      <trkpt lat="49.05172" lon="7.49367">
        <ele>310</ele>
        <time>2020-06-27T11:50:41Z</time>
      </trkpt>
      <trkpt lat="49.05171" lon="7.49371">
        <ele>309.9</ele>
        <time>2020-06-27T11:50:42Z</time>
      </trkpt>
      <trkpt lat="49.05169" lon="7.49379">
        <ele>309.8</ele>
        <time>2020-06-27T11:50:43Z</time>
      </trkpt>
      <trkpt lat="49.05166" lon="7.49389">
        <ele>309.6</ele>
        <time>2020-06-27T11:50:44Z</time>
      </trkpt>
      <trkpt lat="49.05165" lon="7.49393">
        <ele>309.5</ele>
        <time>2020-06-27T11:50:45Z</time>
      </trkpt>
      <trkpt lat="49.05163" lon="7.494">
        <ele>309.3</ele>
        <time>2020-06-27T11:50:46Z</time>
      </trkpt>
      <trkpt lat="49.05162" lon="7.49404">
        <ele>309.2</ele>
        <time>2020-06-27T11:50:47Z</time>
      </trkpt>
      <trkpt lat="49.05161" lon="7.49414">
        <ele>309</ele>
        <time>2020-06-27T11:50:48Z</time>
      </trkpt>
      <trkpt lat="49.05159" lon="7.4942">
        <ele>308.8</ele>
        <time>2020-06-27T11:50:49Z</time>
      </trkpt>
      <trkpt lat="49.05157" lon="7.49429">
        <ele>308.5</ele>
        <time>2020-06-27T11:50:50Z</time>
      </trkpt>
      <trkpt lat="49.05155" lon="7.4944">
        <ele>308.1</ele>
        <time>2020-06-27T11:50:51Z</time>
      </trkpt>
      <trkpt lat="49.05152" lon="7.49448">
        <ele>307.7</ele>
        <time>2020-06-27T11:50:52Z</time>
      </trkpt>
      <trkpt lat="49.0515" lon="7.49456">
        <ele>307.4</ele>
        <time>2020-06-27T11:50:53Z</time>
      </trkpt>
      <trkpt lat="49.05147" lon="7.49465">
        <ele>307.1</ele>
        <time>2020-06-27T11:50:54Z</time>
      </trkpt>
      <trkpt lat="49.05144" lon="7.49473">
        <ele>306.8</ele>
        <time>2020-06-27T11:50:55Z</time>
      </trkpt>
      <trkpt lat="49.05141" lon="7.49484">
        <ele>306.4</ele>
        <time>2020-06-27T11:50:56Z</time>
      </trkpt>
      <trkpt lat="49.05139" lon="7.49494">
        <ele>306</ele>
        <time>2020-06-27T11:50:57Z</time>
      </trkpt>
      <trkpt lat="49.05137" lon="7.49505">
        <ele>305.7</ele>
        <time>2020-06-27T11:50:58Z</time>
      </trkpt>
      <trkpt lat="49.05134" lon="7.49516">
        <ele>305.3</ele>
        <time>2020-06-27T11:50:59Z</time>
      </trkpt>
      <trkpt lat="49.05131" lon="7.49528">
        <ele>304.9</ele>
        <time>2020-06-27T11:51:00Z</time>
      </trkpt>
      <trkpt lat="49.05128" lon="7.49539">
        <ele>304.5</ele>
        <time>2020-06-27T11:51:01Z</time>
      </trkpt>
      <trkpt lat="49.05125" lon="7.49552">
        <ele>304.2</ele>
        <time>2020-06-27T11:51:02Z</time>
      </trkpt>
      <trkpt lat="49.05123" lon="7.49563">
        <ele>303.9</ele>
        <time>2020-06-27T11:51:03Z</time>
      </trkpt>
      <trkpt lat="49.0512" lon="7.49572">
        <ele>303.7</ele>
        <time>2020-06-27T11:51:04Z</time>
      </trkpt>
      <trkpt lat="49.05117" lon="7.49583">
        <ele>303.5</ele>
        <time>2020-06-27T11:51:05Z</time>
      </trkpt>
      <trkpt lat="49.05114" lon="7.49594">
        <ele>303.3</ele>
        <time>2020-06-27T11:51:06Z</time>
      </trkpt>
      <trkpt lat="49.05111" lon="7.49605">
        <ele>303.2</ele>
        <time>2020-06-27T11:51:07Z</time>
      </trkpt>
      <trkpt lat="49.05109" lon="7.49615">
        <ele>303.2</ele>
        <time>2020-06-27T11:51:08Z</time>
      </trkpt>
      <trkpt lat="49.05107" lon="7.49625">
        <ele>303.2</ele>
        <time>2020-06-27T11:51:09Z</time>
      </trkpt>
      <trkpt lat="49.05104" lon="7.49635">
        <ele>303.3</ele>
        <time>2020-06-27T11:51:10Z</time>
      </trkpt>
      <trkpt lat="49.05102" lon="7.49644">
        <ele>303.3</ele>
        <time>2020-06-27T11:51:11Z</time>
      </trkpt>
      <trkpt lat="49.05099" lon="7.49653">
        <ele>303.4</ele>
        <time>2020-06-27T11:51:12Z</time>
      </trkpt>
      <trkpt lat="49.05096" lon="7.49662">
        <ele>303.4</ele>
        <time>2020-06-27T11:51:13Z</time>
      </trkpt>
      <trkpt lat="49.05094" lon="7.4967">
        <ele>303.5</ele>
        <time>2020-06-27T11:51:14Z</time>
      </trkpt>
      <trkpt lat="49.05091" lon="7.49678">
        <ele>303.6</ele>
        <time>2020-06-27T11:51:15Z</time>
      </trkpt>
      <trkpt lat="49.05088" lon="7.49686">
        <ele>303.7</ele>
        <time>2020-06-27T11:51:16Z</time>
      </trkpt>
      <trkpt lat="49.05087" lon="7.49694">
        <ele>303.8</ele>
        <time>2020-06-27T11:51:17Z</time>
      </trkpt>
      <trkpt lat="49.05086" lon="7.49703">
        <ele>304</ele>
        <time>2020-06-27T11:51:18Z</time>
      </trkpt>
      <trkpt lat="49.05084" lon="7.4971">
        <ele>304.1</ele>
        <time>2020-06-27T11:51:19Z</time>
      </trkpt>
      <trkpt lat="49.05082" lon="7.49718">
        <ele>304.3</ele>
        <time>2020-06-27T11:51:20Z</time>
      </trkpt>
      <trkpt lat="49.05082" lon="7.49727">
        <ele>304.5</ele>
        <time>2020-06-27T11:51:21Z</time>
      </trkpt>
      <trkpt lat="49.0508" lon="7.49734">
        <ele>304.6</ele>
        <time>2020-06-27T11:51:22Z</time>
      </trkpt>
      <trkpt lat="49.05077" lon="7.4974">
        <ele>304.7</ele>
        <time>2020-06-27T11:51:23Z</time>
      </trkpt>
      <trkpt lat="49.05075" lon="7.49747">
        <ele>304.8</ele>
        <time>2020-06-27T11:51:24Z</time>
      </trkpt>
      <trkpt lat="49.05073" lon="7.49754">
        <ele>304.9</ele>
        <time>2020-06-27T11:51:25Z</time>
      </trkpt>
      <trkpt lat="49.05073" lon="7.49762">
        <ele>305</ele>
        <time>2020-06-27T11:51:26Z</time>
      </trkpt>
      <trkpt lat="49.05072" lon="7.49769">
        <ele>305.1</ele>
        <time>2020-06-27T11:51:27Z</time>
      </trkpt>
      <trkpt lat="49.05072" lon="7.49777">
        <ele>305.2</ele>
        <time>2020-06-27T11:51:28Z</time>
      </trkpt>
      <trkpt lat="49.05069" lon="7.49783">
        <ele>305.4</ele>
        <time>2020-06-27T11:51:29Z</time>
      </trkpt>
      <trkpt lat="49.05067" lon="7.49788">
        <ele>305.5</ele>
        <time>2020-06-27T11:51:30Z</time>
      </trkpt>
      <trkpt lat="49.05065" lon="7.49794">
        <ele>305.7</ele>
        <time>2020-06-27T11:51:31Z</time>
      </trkpt>
      <trkpt lat="49.05063" lon="7.498">
        <ele>305.8</ele>
        <time>2020-06-27T11:51:32Z</time>
      </trkpt>
      <trkpt lat="49.05062" lon="7.49806">
        <ele>306</ele>
        <time>2020-06-27T11:51:33Z</time>
      </trkpt>
      <trkpt lat="49.0506" lon="7.49812">
        <ele>306.1</ele>
        <time>2020-06-27T11:51:34Z</time>
      </trkpt>
      <trkpt lat="49.0506" lon="7.49819">
        <ele>306.3</ele>
        <time>2020-06-27T11:51:35Z</time>
      </trkpt>
      <trkpt lat="49.05058" lon="7.49825">
        <ele>306.4</ele>
        <time>2020-06-27T11:51:36Z</time>
      </trkpt>
      <trkpt lat="49.05058" lon="7.49832">
        <ele>306.6</ele>
        <time>2020-06-27T11:51:37Z</time>
      </trkpt>
      <trkpt lat="49.05056" lon="7.49839">
        <ele>306.7</ele>
        <time>2020-06-27T11:51:38Z</time>
      </trkpt>
      <trkpt lat="49.05054" lon="7.49845">
        <ele>306.8</ele>
        <time>2020-06-27T11:51:39Z</time>
      </trkpt>
      <trkpt lat="49.05052" lon="7.49851">
        <ele>306.9</ele>
        <time>2020-06-27T11:51:40Z</time>
      </trkpt>
      <trkpt lat="49.05051" lon="7.49857">
        <ele>307.1</ele>
        <time>2020-06-27T11:51:41Z</time>
      </trkpt>
      <trkpt lat="49.0505" lon="7.49863">
        <ele>307.2</ele>
        <time>2020-06-27T11:51:42Z</time>
      </trkpt>
      <trkpt lat="49.05049" lon="7.4987">
        <ele>307.3</ele>
        <time>2020-06-27T11:51:43Z</time>
      </trkpt>
      <trkpt lat="49.05046" lon="7.49876">
        <ele>307.5</ele>
        <time>2020-06-27T11:51:44Z</time>
      </trkpt>
      <trkpt lat="49.05045" lon="7.49882">
        <ele>307.6</ele>
        <time>2020-06-27T11:51:45Z</time>
      </trkpt>
      <trkpt lat="49.05043" lon="7.49888">
        <ele>307.7</ele>
        <time>2020-06-27T11:51:46Z</time>
      </trkpt>
      <trkpt lat="49.05042" lon="7.49895">
        <ele>307.8</ele>
        <time>2020-06-27T11:51:47Z</time>
      </trkpt>
      <trkpt lat="49.05041" lon="7.49901">
        <ele>308</ele>
        <time>2020-06-27T11:51:48Z</time>
      </trkpt>
      <trkpt lat="49.05039" lon="7.49907">
        <ele>308.1</ele>
        <time>2020-06-27T11:51:49Z</time>
      </trkpt>
      <trkpt lat="49.05037" lon="7.49913">
        <ele>308.3</ele>
        <time>2020-06-27T11:51:50Z</time>
      </trkpt>
      <trkpt lat="49.05035" lon="7.49919">
        <ele>308.4</ele>
        <time>2020-06-27T11:51:51Z</time>
      </trkpt>
      <trkpt lat="49.05035" lon="7.49926">
        <ele>308.6</ele>
        <time>2020-06-27T11:51:52Z</time>
      </trkpt>
      <trkpt lat="49.05034" lon="7.49933">
        <ele>308.7</ele>
        <time>2020-06-27T11:51:53Z</time>
      </trkpt>
      <trkpt lat="49.05033" lon="7.4994">
        <ele>308.8</ele>
        <time>2020-06-27T11:51:54Z</time>
      </trkpt>
      <trkpt lat="49.05032" lon="7.49947">
        <ele>309</ele>
        <time>2020-06-27T11:51:55Z</time>
      </trkpt>
      <trkpt lat="49.05032" lon="7.49954">
        <ele>309.1</ele>
        <time>2020-06-27T11:51:56Z</time>
      </trkpt>
      <trkpt lat="49.05032" lon="7.49961">
        <ele>309.2</ele>
        <time>2020-06-27T11:51:57Z</time>
      </trkpt>
      <trkpt lat="49.05032" lon="7.49969">
        <ele>309.3</ele>
        <time>2020-06-27T11:51:58Z</time>
      </trkpt>
      <trkpt lat="49.05032" lon="7.49976">
        <ele>309.4</ele>
        <time>2020-06-27T11:51:59Z</time>
      </trkpt>
      <trkpt lat="49.05032" lon="7.49982">
        <ele>309.5</ele>
        <time>2020-06-27T11:52:00Z</time>
      </trkpt>
      <trkpt lat="49.05032" lon="7.49989">
        <ele>309.5</ele>
        <time>2020-06-27T11:52:01Z</time>
      </trkpt>
      <trkpt lat="49.05033" lon="7.49996">
        <ele>309.6</ele>
        <time>2020-06-27T11:52:02Z</time>
      </trkpt>
      <trkpt lat="49.05033" lon="7.50003">
        <ele>309.8</ele>
        <time>2020-06-27T11:52:03Z</time>
      </trkpt>
      <trkpt lat="49.05031" lon="7.5001">
        <ele>309.9</ele>
        <time>2020-06-27T11:52:04Z</time>
      </trkpt>
      <trkpt lat="49.0503" lon="7.50017">
        <ele>310</ele>
        <time>2020-06-27T11:52:05Z</time>
      </trkpt>
      <trkpt lat="49.05031" lon="7.50024">
        <ele>310.1</ele>
        <time>2020-06-27T11:52:06Z</time>
      </trkpt>
      <trkpt lat="49.05031" lon="7.50031">
        <ele>310.1</ele>
        <time>2020-06-27T11:52:07Z</time>
      </trkpt>
      <trkpt lat="49.05032" lon="7.50038">
        <ele>310.2</ele>
        <time>2020-06-27T11:52:08Z</time>
      </trkpt>
      <trkpt lat="49.05032" lon="7.50044">
        <ele>310.3</ele>
        <time>2020-06-27T11:52:09Z</time>
      </trkpt>
      <trkpt lat="49.05032" lon="7.50051">
        <ele>310.3</ele>
        <time>2020-06-27T11:52:10Z</time>
      </trkpt>
      <trkpt lat="49.05032" lon="7.50057">
        <ele>310.4</ele>
        <time>2020-06-27T11:52:11Z</time>
      </trkpt>
      <trkpt lat="49.05033" lon="7.50064">
        <ele>310.5</ele>
        <time>2020-06-27T11:52:12Z</time>
      </trkpt>
      <trkpt lat="49.05033" lon="7.50071">
        <ele>310.6</ele>
        <time>2020-06-27T11:52:13Z</time>
      </trkpt>
      <trkpt lat="49.05034" lon="7.50077">
        <ele>310.7</ele>
        <time>2020-06-27T11:52:14Z</time>
      </trkpt>
      <trkpt lat="49.05035" lon="7.50084">
        <ele>310.7</ele>
        <time>2020-06-27T11:52:15Z</time>
      </trkpt>
      <trkpt lat="49.05034" lon="7.50092">
        <ele>310.8</ele>
        <time>2020-06-27T11:52:16Z</time>
      </trkpt>
      <trkpt lat="49.05034" lon="7.50099">
        <ele>310.9</ele>
        <time>2020-06-27T11:52:17Z</time>
      </trkpt>
      <trkpt lat="49.05034" lon="7.50106">
        <ele>311</ele>
        <time>2020-06-27T11:52:18Z</time>
      </trkpt>
      <trkpt lat="49.05033" lon="7.50113">
        <ele>311.1</ele>
        <time>2020-06-27T11:52:19Z</time>
      </trkpt>
      <trkpt lat="49.05033" lon="7.50119">
        <ele>311.1</ele>
        <time>2020-06-27T11:52:20Z</time>
      </trkpt>
      <trkpt lat="49.05033" lon="7.50126">
        <ele>311.2</ele>
        <time>2020-06-27T11:52:21Z</time>
      </trkpt>
      <trkpt lat="49.05033" lon="7.50132">
        <ele>311.2</ele>
        <time>2020-06-27T11:52:22Z</time>
      </trkpt>
      <trkpt lat="49.05034" lon="7.50138">
        <ele>311.3</ele>
        <time>2020-06-27T11:52:23Z</time>
      </trkpt>
      <trkpt lat="49.05035" lon="7.50145">
        <ele>311.3</ele>
        <time>2020-06-27T11:52:24Z</time>
      </trkpt>
      <trkpt lat="49.05035" lon="7.50151">
        <ele>311.4</ele>
        <time>2020-06-27T11:52:25Z</time>
      </trkpt>
      <trkpt lat="49.05035" lon="7.50158">
        <ele>311.4</ele>
        <time>2020-06-27T11:52:26Z</time>
      </trkpt>
      <trkpt lat="49.05035" lon="7.50165">
        <ele>311.5</ele>
        <time>2020-06-27T11:52:27Z</time>
      </trkpt>
      <trkpt lat="49.05035" lon="7.50172">
        <ele>311.5</ele>
        <time>2020-06-27T11:52:28Z</time>
      </trkpt>
      <trkpt lat="49.05034" lon="7.50178">
        <ele>311.6</ele>
        <time>2020-06-27T11:52:29Z</time>
      </trkpt>
      <trkpt lat="49.05035" lon="7.50185">
        <ele>311.7</ele>
        <time>2020-06-27T11:52:30Z</time>
      </trkpt>
      <trkpt lat="49.05035" lon="7.50192">
        <ele>311.8</ele>
        <time>2020-06-27T11:52:31Z</time>
      </trkpt>
      <trkpt lat="49.05036" lon="7.50198">
        <ele>311.8</ele>
        <time>2020-06-27T11:52:32Z</time>
      </trkpt>
      <trkpt lat="49.05038" lon="7.50205">
        <ele>312</ele>
        <time>2020-06-27T11:52:33Z</time>
      </trkpt>
      <trkpt lat="49.05038" lon="7.50211">
        <ele>312.1</ele>
        <time>2020-06-27T11:52:34Z</time>
      </trkpt>
      <trkpt lat="49.05038" lon="7.50217">
        <ele>312.2</ele>
        <time>2020-06-27T11:52:35Z</time>
      </trkpt>
      <trkpt lat="49.05037" lon="7.50223">
        <ele>312.3</ele>
        <time>2020-06-27T11:52:36Z</time>
      </trkpt>
      <trkpt lat="49.05037" lon="7.5023">
        <ele>312.5</ele>
        <time>2020-06-27T11:52:37Z</time>
      </trkpt>
      <trkpt lat="49.05036" lon="7.50237">
        <ele>312.6</ele>
        <time>2020-06-27T11:52:38Z</time>
      </trkpt>
      <trkpt lat="49.05038" lon="7.50243">
        <ele>312.7</ele>
        <time>2020-06-27T11:52:39Z</time>
      </trkpt>
      <trkpt lat="49.05039" lon="7.50251">
        <ele>312.8</ele>
        <time>2020-06-27T11:52:40Z</time>
      </trkpt>
      <trkpt lat="49.05039" lon="7.50258">
        <ele>313</ele>
        <time>2020-06-27T11:52:41Z</time>
      </trkpt>
      <trkpt lat="49.05038" lon="7.50266">
        <ele>313.1</ele>
        <time>2020-06-27T11:52:42Z</time>
      </trkpt>
      <trkpt lat="49.05039" lon="7.50273">
        <ele>313.2</ele>
        <time>2020-06-27T11:52:43Z</time>
      </trkpt>
      <trkpt lat="49.05039" lon="7.50281">
        <ele>313.3</ele>
        <time>2020-06-27T11:52:44Z</time>
      </trkpt>
      <trkpt lat="49.05039" lon="7.50288">
        <ele>313.4</ele>
        <time>2020-06-27T11:52:45Z</time>
      </trkpt>
      <trkpt lat="49.05038" lon="7.50295">
        <ele>313.4</ele>
        <time>2020-06-27T11:52:46Z</time>
      </trkpt>
      <trkpt lat="49.05038" lon="7.50302">
        <ele>313.5</ele>
        <time>2020-06-27T11:52:47Z</time>
      </trkpt>
      <trkpt lat="49.05038" lon="7.50309">
        <ele>313.5</ele>
        <time>2020-06-27T11:52:48Z</time>
      </trkpt>
      <trkpt lat="49.05038" lon="7.50316">
        <ele>313.6</ele>
        <time>2020-06-27T11:52:49Z</time>
      </trkpt>
      <trkpt lat="49.05038" lon="7.50324">
        <ele>313.6</ele>
        <time>2020-06-27T11:52:50Z</time>
      </trkpt>
      <trkpt lat="49.05038" lon="7.50331">
        <ele>313.6</ele>
        <time>2020-06-27T11:52:51Z</time>
      </trkpt>
      <trkpt lat="49.05038" lon="7.50338">
        <ele>313.6</ele>
        <time>2020-06-27T11:52:52Z</time>
      </trkpt>
      <trkpt lat="49.05038" lon="7.50346">
        <ele>313.6</ele>
        <time>2020-06-27T11:52:53Z</time>
      </trkpt>
      <trkpt lat="49.05037" lon="7.50353">
        <ele>313.5</ele>
        <time>2020-06-27T11:52:54Z</time>
      </trkpt>
      <trkpt lat="49.05037" lon="7.5036">
        <ele>313.5</ele>
        <time>2020-06-27T11:52:55Z</time>
      </trkpt>
      <trkpt lat="49.05036" lon="7.50367">
        <ele>313.5</ele>
        <time>2020-06-27T11:52:56Z</time>
      </trkpt>
      <trkpt lat="49.05035" lon="7.50374">
        <ele>313.5</ele>
        <time>2020-06-27T11:52:57Z</time>
      </trkpt>
      <trkpt lat="49.05036" lon="7.50381">
        <ele>313.5</ele>
        <time>2020-06-27T11:52:58Z</time>
      </trkpt>
      <trkpt lat="49.05036" lon="7.50389">
        <ele>313.4</ele>
        <time>2020-06-27T11:52:59Z</time>
      </trkpt>
      <trkpt lat="49.05035" lon="7.50397">
        <ele>313.3</ele>
        <time>2020-06-27T11:53:00Z</time>
      </trkpt>
      <trkpt lat="49.05034" lon="7.50404">
        <ele>313.3</ele>
        <time>2020-06-27T11:53:01Z</time>
      </trkpt>
      <trkpt lat="49.05033" lon="7.50412">
        <ele>313.2</ele>
        <time>2020-06-27T11:53:02Z</time>
      </trkpt>
      <trkpt lat="49.05033" lon="7.5042">
        <ele>313.2</ele>
        <time>2020-06-27T11:53:03Z</time>
      </trkpt>
      <trkpt lat="49.05034" lon="7.50428">
        <ele>313.1</ele>
        <time>2020-06-27T11:53:04Z</time>
      </trkpt>
      <trkpt lat="49.05036" lon="7.50436">
        <ele>313</ele>
        <time>2020-06-27T11:53:05Z</time>
      </trkpt>
      <trkpt lat="49.05036" lon="7.50445">
        <ele>312.9</ele>
        <time>2020-06-27T11:53:06Z</time>
      </trkpt>
      <trkpt lat="49.05036" lon="7.50453">
        <ele>312.8</ele>
        <time>2020-06-27T11:53:07Z</time>
      </trkpt>
      <trkpt lat="49.05035" lon="7.50462">
        <ele>312.6</ele>
        <time>2020-06-27T11:53:08Z</time>
      </trkpt>
      <trkpt lat="49.05035" lon="7.50471">
        <ele>312.5</ele>
        <time>2020-06-27T11:53:09Z</time>
      </trkpt>
      <trkpt lat="49.05035" lon="7.5048">
        <ele>312.3</ele>
        <time>2020-06-27T11:53:10Z</time>
      </trkpt>
      <trkpt lat="49.05035" lon="7.50489">
        <ele>312.1</ele>
        <time>2020-06-27T11:53:11Z</time>
      </trkpt>
      <trkpt lat="49.05034" lon="7.50498">
        <ele>312.2</ele>
        <time>2020-06-27T11:53:12Z</time>
      </trkpt>
      <trkpt lat="49.05033" lon="7.50506">
        <ele>312.2</ele>
        <time>2020-06-27T11:53:13Z</time>
      </trkpt>
      <trkpt lat="49.05033" lon="7.50515">
        <ele>312</ele>
        <time>2020-06-27T11:53:14Z</time>
      </trkpt>
      <trkpt lat="49.05033" lon="7.50525">
        <ele>311.9</ele>
        <time>2020-06-27T11:53:15Z</time>
      </trkpt>
      <trkpt lat="49.05033" lon="7.50534">
        <ele>311.7</ele>
        <time>2020-06-27T11:53:16Z</time>
      </trkpt>
      <trkpt lat="49.05033" lon="7.50543">
        <ele>311.6</ele>
        <time>2020-06-27T11:53:17Z</time>
      </trkpt>
      <trkpt lat="49.05035" lon="7.50552">
        <ele>311.4</ele>
        <time>2020-06-27T11:53:18Z</time>
      </trkpt>
      <trkpt lat="49.05035" lon="7.50562">
        <ele>311.3</ele>
        <time>2020-06-27T11:53:19Z</time>
      </trkpt>
      <trkpt lat="49.05035" lon="7.50572">
        <ele>311.1</ele>
        <time>2020-06-27T11:53:20Z</time>
      </trkpt>
      <trkpt lat="49.05036" lon="7.50581">
        <ele>311</ele>
        <time>2020-06-27T11:53:21Z</time>
      </trkpt>
      <trkpt lat="49.05035" lon="7.5059">
        <ele>310.8</ele>
        <time>2020-06-27T11:53:22Z</time>
      </trkpt>
      <trkpt lat="49.05034" lon="7.506">
        <ele>310.7</ele>
        <time>2020-06-27T11:53:23Z</time>
      </trkpt>
      <trkpt lat="49.05034" lon="7.50609">
        <ele>310.5</ele>
        <time>2020-06-27T11:53:24Z</time>
      </trkpt>
      <trkpt lat="49.05034" lon="7.50618">
        <ele>310.3</ele>
        <time>2020-06-27T11:53:25Z</time>
      </trkpt>
      <trkpt lat="49.05033" lon="7.50627">
        <ele>310.2</ele>
        <time>2020-06-27T11:53:26Z</time>
      </trkpt>
      <trkpt lat="49.05034" lon="7.50636">
        <ele>310</ele>
        <time>2020-06-27T11:53:27Z</time>
      </trkpt>
      <trkpt lat="49.05035" lon="7.50646">
        <ele>309.8</ele>
        <time>2020-06-27T11:53:28Z</time>
      </trkpt>
      <trkpt lat="49.05033" lon="7.50655">
        <ele>309.6</ele>
        <time>2020-06-27T11:53:29Z</time>
      </trkpt>
      <trkpt lat="49.05035" lon="7.50665">
        <ele>309.4</ele>
        <time>2020-06-27T11:53:30Z</time>
      </trkpt>
      <trkpt lat="49.05033" lon="7.50674">
        <ele>309.1</ele>
        <time>2020-06-27T11:53:31Z</time>
      </trkpt>
      <trkpt lat="49.05034" lon="7.50684">
        <ele>308.8</ele>
        <time>2020-06-27T11:53:32Z</time>
      </trkpt>
      <trkpt lat="49.05034" lon="7.50695">
        <ele>308.6</ele>
        <time>2020-06-27T11:53:33Z</time>
      </trkpt>
      <trkpt lat="49.05035" lon="7.50706">
        <ele>308.2</ele>
        <time>2020-06-27T11:53:34Z</time>
      </trkpt>
      <trkpt lat="49.05035" lon="7.50718">
        <ele>307.9</ele>
        <time>2020-06-27T11:53:35Z</time>
      </trkpt>
      <trkpt lat="49.05035" lon="7.5073">
        <ele>307.6</ele>
        <time>2020-06-27T11:53:36Z</time>
      </trkpt>
      <trkpt lat="49.05035" lon="7.50742">
        <ele>307.2</ele>
        <time>2020-06-27T11:53:37Z</time>
      </trkpt>
      <trkpt lat="49.05034" lon="7.50755">
        <ele>306.7</ele>
        <time>2020-06-27T11:53:38Z</time>
      </trkpt>
      <trkpt lat="49.05034" lon="7.50769">
        <ele>306.2</ele>
        <time>2020-06-27T11:53:39Z</time>
      </trkpt>
      <trkpt lat="49.05034" lon="7.50783">
        <ele>305.8</ele>
        <time>2020-06-27T11:53:40Z</time>
      </trkpt>
      <trkpt lat="49.05033" lon="7.50796">
        <ele>305.3</ele>
        <time>2020-06-27T11:53:41Z</time>
      </trkpt>
      <trkpt lat="49.05033" lon="7.5081">
        <ele>304.9</ele>
        <time>2020-06-27T11:53:42Z</time>
      </trkpt>
      <trkpt lat="49.05032" lon="7.50824">
        <ele>304.5</ele>
        <time>2020-06-27T11:53:43Z</time>
      </trkpt>
      <trkpt lat="49.05032" lon="7.50839">
        <ele>304</ele>
        <time>2020-06-27T11:53:44Z</time>
      </trkpt>
      <trkpt lat="49.05032" lon="7.50854">
        <ele>303.6</ele>
        <time>2020-06-27T11:53:45Z</time>
      </trkpt>
      <trkpt lat="49.05032" lon="7.50869">
        <ele>303.1</ele>
        <time>2020-06-27T11:53:46Z</time>
      </trkpt>
      <trkpt lat="49.05031" lon="7.50884">
        <ele>302.7</ele>
        <time>2020-06-27T11:53:47Z</time>
      </trkpt>
      <trkpt lat="49.05031" lon="7.50899">
        <ele>302.2</ele>
        <time>2020-06-27T11:53:48Z</time>
      </trkpt>
      <trkpt lat="49.05031" lon="7.50914">
        <ele>301.9</ele>
        <time>2020-06-27T11:53:49Z</time>
      </trkpt>
      <trkpt lat="49.05031" lon="7.50932">
        <ele>301.4</ele>
        <time>2020-06-27T11:53:50Z</time>
      </trkpt>
      <trkpt lat="49.0503" lon="7.50948">
        <ele>301</ele>
        <time>2020-06-27T11:53:51Z</time>
      </trkpt>
      <trkpt lat="49.05028" lon="7.5097">
        <ele>300.5</ele>
        <time>2020-06-27T11:53:52Z</time>
      </trkpt>
      <trkpt lat="49.05026" lon="7.50988">
        <ele>300.1</ele>
        <time>2020-06-27T11:53:53Z</time>
      </trkpt>
      <trkpt lat="49.05025" lon="7.51004">
        <ele>299.8</ele>
        <time>2020-06-27T11:53:54Z</time>
      </trkpt>
      <trkpt lat="49.05024" lon="7.51018">
        <ele>299.5</ele>
        <time>2020-06-27T11:53:55Z</time>
      </trkpt>
      <trkpt lat="49.05024" lon="7.51032">
        <ele>299.3</ele>
        <time>2020-06-27T11:53:56Z</time>
      </trkpt>
      <trkpt lat="49.05023" lon="7.51045">
        <ele>299.1</ele>
        <time>2020-06-27T11:53:57Z</time>
      </trkpt>
      <trkpt lat="49.05022" lon="7.51058">
        <ele>298.9</ele>
        <time>2020-06-27T11:53:58Z</time>
      </trkpt>
      <trkpt lat="49.05022" lon="7.51071">
        <ele>298.7</ele>
        <time>2020-06-27T11:53:59Z</time>
      </trkpt>
      <trkpt lat="49.05021" lon="7.51083">
        <ele>298.5</ele>
        <time>2020-06-27T11:54:00Z</time>
      </trkpt>
      <trkpt lat="49.05022" lon="7.51095">
        <ele>298.4</ele>
        <time>2020-06-27T11:54:01Z</time>
      </trkpt>
      <trkpt lat="49.05022" lon="7.51108">
        <ele>298.2</ele>
        <time>2020-06-27T11:54:02Z</time>
      </trkpt>
      <trkpt lat="49.05022" lon="7.5112">
        <ele>298.1</ele>
        <time>2020-06-27T11:54:03Z</time>
      </trkpt>
      <trkpt lat="49.05021" lon="7.51132">
        <ele>297.9</ele>
        <time>2020-06-27T11:54:04Z</time>
      </trkpt>
      <trkpt lat="49.05021" lon="7.51144">
        <ele>297.7</ele>
        <time>2020-06-27T11:54:05Z</time>
      </trkpt>
      <trkpt lat="49.05021" lon="7.51156">
        <ele>297.5</ele>
        <time>2020-06-27T11:54:06Z</time>
      </trkpt>
      <trkpt lat="49.05021" lon="7.51167">
        <ele>297.4</ele>
        <time>2020-06-27T11:54:07Z</time>
      </trkpt>
      <trkpt lat="49.05021" lon="7.5118">
        <ele>297.2</ele>
        <time>2020-06-27T11:54:08Z</time>
      </trkpt>
      <trkpt lat="49.05021" lon="7.51192">
        <ele>297</ele>
        <time>2020-06-27T11:54:09Z</time>
      </trkpt>
      <trkpt lat="49.0502" lon="7.51205">
        <ele>296.8</ele>
        <time>2020-06-27T11:54:10Z</time>
      </trkpt>
      <trkpt lat="49.05019" lon="7.51217">
        <ele>296.6</ele>
        <time>2020-06-27T11:54:11Z</time>
      </trkpt>
      <trkpt lat="49.05019" lon="7.5123">
        <ele>296.4</ele>
        <time>2020-06-27T11:54:12Z</time>
      </trkpt>
      <trkpt lat="49.05019" lon="7.51242">
        <ele>296.2</ele>
        <time>2020-06-27T11:54:13Z</time>
      </trkpt>
      <trkpt lat="49.05019" lon="7.51255">
        <ele>295.9</ele>
        <time>2020-06-27T11:54:14Z</time>
      </trkpt>
      <trkpt lat="49.05019" lon="7.51268">
        <ele>295.7</ele>
        <time>2020-06-27T11:54:15Z</time>
      </trkpt>
      <trkpt lat="49.05018" lon="7.51281">
        <ele>295.4</ele>
        <time>2020-06-27T11:54:16Z</time>
      </trkpt>
      <trkpt lat="49.05018" lon="7.51294">
        <ele>295.2</ele>
        <time>2020-06-27T11:54:17Z</time>
      </trkpt>
      <trkpt lat="49.05017" lon="7.51307">
        <ele>295</ele>
        <time>2020-06-27T11:54:18Z</time>
      </trkpt>
      <trkpt lat="49.05017" lon="7.51319">
        <ele>294.9</ele>
        <time>2020-06-27T11:54:19Z</time>
      </trkpt>
      <trkpt lat="49.05017" lon="7.51332">
        <ele>294.7</ele>
        <time>2020-06-27T11:54:20Z</time>
      </trkpt>
      <trkpt lat="49.05016" lon="7.51345">
        <ele>294.5</ele>
        <time>2020-06-27T11:54:21Z</time>
      </trkpt>
      <trkpt lat="49.05017" lon="7.51358">
        <ele>294.4</ele>
        <time>2020-06-27T11:54:22Z</time>
      </trkpt>
      <trkpt lat="49.05017" lon="7.5137">
        <ele>294.2</ele>
        <time>2020-06-27T11:54:23Z</time>
      </trkpt>
      <trkpt lat="49.05017" lon="7.51383">
        <ele>294</ele>
        <time>2020-06-27T11:54:24Z</time>
      </trkpt>
      <trkpt lat="49.05017" lon="7.51395">
        <ele>293.8</ele>
        <time>2020-06-27T11:54:25Z</time>
      </trkpt>
      <trkpt lat="49.05017" lon="7.51407">
        <ele>293.7</ele>
        <time>2020-06-27T11:54:26Z</time>
      </trkpt>
      <trkpt lat="49.05017" lon="7.5142">
        <ele>293.6</ele>
        <time>2020-06-27T11:54:27Z</time>
      </trkpt>
      <trkpt lat="49.05017" lon="7.51432">
        <ele>293.5</ele>
        <time>2020-06-27T11:54:28Z</time>
      </trkpt>
      <trkpt lat="49.05017" lon="7.51444">
        <ele>293.4</ele>
        <time>2020-06-27T11:54:29Z</time>
      </trkpt>
      <trkpt lat="49.05016" lon="7.51456">
        <ele>293.3</ele>
        <time>2020-06-27T11:54:30Z</time>
      </trkpt>
      <trkpt lat="49.05016" lon="7.51467">
        <ele>293.2</ele>
        <time>2020-06-27T11:54:31Z</time>
      </trkpt>
      <trkpt lat="49.05017" lon="7.51478">
        <ele>293.1</ele>
        <time>2020-06-27T11:54:32Z</time>
      </trkpt>
      <trkpt lat="49.05017" lon="7.5149">
        <ele>293.1</ele>
        <time>2020-06-27T11:54:33Z</time>
      </trkpt>
      <trkpt lat="49.05017" lon="7.51501">
        <ele>293</ele>
        <time>2020-06-27T11:54:34Z</time>
      </trkpt>
      <trkpt lat="49.05016" lon="7.51512">
        <ele>292.9</ele>
        <time>2020-06-27T11:54:35Z</time>
      </trkpt>
      <trkpt lat="49.05016" lon="7.51524">
        <ele>292.9</ele>
        <time>2020-06-27T11:54:36Z</time>
      </trkpt>
      <trkpt lat="49.05016" lon="7.51535">
        <ele>292.8</ele>
        <time>2020-06-27T11:54:37Z</time>
      </trkpt>
      <trkpt lat="49.05016" lon="7.51547">
        <ele>292.8</ele>
        <time>2020-06-27T11:54:38Z</time>
      </trkpt>
      <trkpt lat="49.05016" lon="7.51559">
        <ele>292.7</ele>
        <time>2020-06-27T11:54:39Z</time>
      </trkpt>
      <trkpt lat="49.05016" lon="7.51571">
        <ele>292.7</ele>
        <time>2020-06-27T11:54:40Z</time>
      </trkpt>
      <trkpt lat="49.05015" lon="7.51583">
        <ele>292.7</ele>
        <time>2020-06-27T11:54:41Z</time>
      </trkpt>
      <trkpt lat="49.05014" lon="7.51595">
        <ele>292.7</ele>
        <time>2020-06-27T11:54:42Z</time>
      </trkpt>
      <trkpt lat="49.05015" lon="7.51607">
        <ele>292.7</ele>
        <time>2020-06-27T11:54:43Z</time>
      </trkpt>
      <trkpt lat="49.05016" lon="7.51619">
        <ele>292.6</ele>
        <time>2020-06-27T11:54:44Z</time>
      </trkpt>
      <trkpt lat="49.05017" lon="7.51631">
        <ele>292.6</ele>
        <time>2020-06-27T11:54:45Z</time>
      </trkpt>
      <trkpt lat="49.05016" lon="7.51643">
        <ele>292.5</ele>
        <time>2020-06-27T11:54:46Z</time>
      </trkpt>
      <trkpt lat="49.05016" lon="7.51655">
        <ele>292.4</ele>
        <time>2020-06-27T11:54:47Z</time>
      </trkpt>
      <trkpt lat="49.05016" lon="7.51667">
        <ele>292.1</ele>
        <time>2020-06-27T11:54:48Z</time>
      </trkpt>
      <trkpt lat="49.05016" lon="7.51679">
        <ele>292</ele>
        <time>2020-06-27T11:54:49Z</time>
      </trkpt>
      <trkpt lat="49.05017" lon="7.5169">
        <ele>291.8</ele>
        <time>2020-06-27T11:54:50Z</time>
      </trkpt>
      <trkpt lat="49.05018" lon="7.51701">
        <ele>291.7</ele>
        <time>2020-06-27T11:54:51Z</time>
      </trkpt>
      <trkpt lat="49.05019" lon="7.51712">
        <ele>291.6</ele>
        <time>2020-06-27T11:54:52Z</time>
      </trkpt>
      <trkpt lat="49.05019" lon="7.51723">
        <ele>291.6</ele>
        <time>2020-06-27T11:54:53Z</time>
      </trkpt>
      <trkpt lat="49.0502" lon="7.51734">
        <ele>291.5</ele>
        <time>2020-06-27T11:54:54Z</time>
      </trkpt>
      <trkpt lat="49.05021" lon="7.51745">
        <ele>291.4</ele>
        <time>2020-06-27T11:54:55Z</time>
      </trkpt>
      <trkpt lat="49.05022" lon="7.51755">
        <ele>291.4</ele>
        <time>2020-06-27T11:54:56Z</time>
      </trkpt>
      <trkpt lat="49.05024" lon="7.51766">
        <ele>291.3</ele>
        <time>2020-06-27T11:54:57Z</time>
      </trkpt>
      <trkpt lat="49.05025" lon="7.51777">
        <ele>291.2</ele>
        <time>2020-06-27T11:54:58Z</time>
      </trkpt>
      <trkpt lat="49.05028" lon="7.51786">
        <ele>291.2</ele>
        <time>2020-06-27T11:54:59Z</time>
      </trkpt>
      <trkpt lat="49.05029" lon="7.51796">
        <ele>291.1</ele>
        <time>2020-06-27T11:55:00Z</time>
      </trkpt>
      <trkpt lat="49.0503" lon="7.51806">
        <ele>291.1</ele>
        <time>2020-06-27T11:55:01Z</time>
      </trkpt>
      <trkpt lat="49.05031" lon="7.51816">
        <ele>291.1</ele>
        <time>2020-06-27T11:55:02Z</time>
      </trkpt>
      <trkpt lat="49.05033" lon="7.51826">
        <ele>291.1</ele>
        <time>2020-06-27T11:55:03Z</time>
      </trkpt>
      <trkpt lat="49.05035" lon="7.51835">
        <ele>291.1</ele>
        <time>2020-06-27T11:55:04Z</time>
      </trkpt>
      <trkpt lat="49.05036" lon="7.51845">
        <ele>291.2</ele>
        <time>2020-06-27T11:55:05Z</time>
      </trkpt>
      <trkpt lat="49.05037" lon="7.51855">
        <ele>291.2</ele>
        <time>2020-06-27T11:55:06Z</time>
      </trkpt>
      <trkpt lat="49.05039" lon="7.51865">
        <ele>291.3</ele>
        <time>2020-06-27T11:55:07Z</time>
      </trkpt>
      <trkpt lat="49.0504" lon="7.51875">
        <ele>291.3</ele>
        <time>2020-06-27T11:55:08Z</time>
      </trkpt>
      <trkpt lat="49.05042" lon="7.51884">
        <ele>291.4</ele>
        <time>2020-06-27T11:55:09Z</time>
      </trkpt>
      <trkpt lat="49.05043" lon="7.51894">
        <ele>291.4</ele>
        <time>2020-06-27T11:55:10Z</time>
      </trkpt>
      <trkpt lat="49.05044" lon="7.51904">
        <ele>291.5</ele>
        <time>2020-06-27T11:55:11Z</time>
      </trkpt>
      <trkpt lat="49.05044" lon="7.51914">
        <ele>291.5</ele>
        <time>2020-06-27T11:55:12Z</time>
      </trkpt>
      <trkpt lat="49.05045" lon="7.51924">
        <ele>291.6</ele>
        <time>2020-06-27T11:55:13Z</time>
      </trkpt>
      <trkpt lat="49.05046" lon="7.51933">
        <ele>291.6</ele>
        <time>2020-06-27T11:55:14Z</time>
      </trkpt>
      <trkpt lat="49.05047" lon="7.51943">
        <ele>291.7</ele>
        <time>2020-06-27T11:55:15Z</time>
      </trkpt>
      <trkpt lat="49.05048" lon="7.51952">
        <ele>291.8</ele>
        <time>2020-06-27T11:55:16Z</time>
      </trkpt>
      <trkpt lat="49.0505" lon="7.51961">
        <ele>291.8</ele>
        <time>2020-06-27T11:55:17Z</time>
      </trkpt>
      <trkpt lat="49.05052" lon="7.51969">
        <ele>291.9</ele>
        <time>2020-06-27T11:55:18Z</time>
      </trkpt>
      <trkpt lat="49.05052" lon="7.51978">
        <ele>292</ele>
        <time>2020-06-27T11:55:19Z</time>
      </trkpt>
      <trkpt lat="49.05053" lon="7.51987">
        <ele>292.1</ele>
        <time>2020-06-27T11:55:20Z</time>
      </trkpt>
      <trkpt lat="49.05055" lon="7.51995">
        <ele>292.2</ele>
        <time>2020-06-27T11:55:21Z</time>
      </trkpt>
      <trkpt lat="49.05057" lon="7.52003">
        <ele>292.3</ele>
        <time>2020-06-27T11:55:22Z</time>
      </trkpt>
      <trkpt lat="49.05058" lon="7.52012">
        <ele>292.4</ele>
        <time>2020-06-27T11:55:23Z</time>
      </trkpt>
      <trkpt lat="49.05059" lon="7.5202">
        <ele>292.5</ele>
        <time>2020-06-27T11:55:24Z</time>
      </trkpt>
      <trkpt lat="49.0506" lon="7.52028">
        <ele>292.6</ele>
        <time>2020-06-27T11:55:25Z</time>
      </trkpt>
      <trkpt lat="49.05062" lon="7.52036">
        <ele>292.6</ele>
        <time>2020-06-27T11:55:26Z</time>
      </trkpt>
      <trkpt lat="49.05062" lon="7.52045">
        <ele>292.7</ele>
        <time>2020-06-27T11:55:27Z</time>
      </trkpt>
      <trkpt lat="49.05064" lon="7.52053">
        <ele>292.7</ele>
        <time>2020-06-27T11:55:28Z</time>
      </trkpt>
      <trkpt lat="49.05065" lon="7.52061">
        <ele>292.7</ele>
        <time>2020-06-27T11:55:29Z</time>
      </trkpt>
      <trkpt lat="49.05066" lon="7.52069">
        <ele>292.8</ele>
        <time>2020-06-27T11:55:30Z</time>
      </trkpt>
      <trkpt lat="49.05068" lon="7.52077">
        <ele>292.8</ele>
        <time>2020-06-27T11:55:31Z</time>
      </trkpt>
      <trkpt lat="49.0507" lon="7.52084">
        <ele>292.9</ele>
        <time>2020-06-27T11:55:32Z</time>
      </trkpt>
      <trkpt lat="49.0507" lon="7.52092">
        <ele>293</ele>
        <time>2020-06-27T11:55:33Z</time>
      </trkpt>
      <trkpt lat="49.05072" lon="7.521">
        <ele>293.1</ele>
        <time>2020-06-27T11:55:34Z</time>
      </trkpt>
      <trkpt lat="49.05071" lon="7.52108">
        <ele>293.2</ele>
        <time>2020-06-27T11:55:35Z</time>
      </trkpt>
      <trkpt lat="49.05071" lon="7.52117">
        <ele>293.3</ele>
        <time>2020-06-27T11:55:36Z</time>
      </trkpt>
      <trkpt lat="49.05071" lon="7.52125">
        <ele>293.4</ele>
        <time>2020-06-27T11:55:37Z</time>
      </trkpt>
      <trkpt lat="49.05072" lon="7.52132">
        <ele>293.4</ele>
        <time>2020-06-27T11:55:38Z</time>
      </trkpt>
      <trkpt lat="49.05073" lon="7.5214">
        <ele>293.5</ele>
        <time>2020-06-27T11:55:39Z</time>
      </trkpt>
      <trkpt lat="49.05074" lon="7.52148">
        <ele>293.5</ele>
        <time>2020-06-27T11:55:40Z</time>
      </trkpt>
      <trkpt lat="49.05076" lon="7.52155">
        <ele>293.6</ele>
        <time>2020-06-27T11:55:41Z</time>
      </trkpt>
      <trkpt lat="49.05077" lon="7.52162">
        <ele>293.6</ele>
        <time>2020-06-27T11:55:42Z</time>
      </trkpt>
      <trkpt lat="49.05078" lon="7.5217">
        <ele>293.7</ele>
        <time>2020-06-27T11:55:43Z</time>
      </trkpt>
      <trkpt lat="49.05078" lon="7.52178">
        <ele>293.7</ele>
        <time>2020-06-27T11:55:44Z</time>
      </trkpt>
      <trkpt lat="49.05079" lon="7.52186">
        <ele>293.8</ele>
        <time>2020-06-27T11:55:45Z</time>
      </trkpt>
      <trkpt lat="49.0508" lon="7.52194">
        <ele>293.9</ele>
        <time>2020-06-27T11:55:46Z</time>
      </trkpt>
      <trkpt lat="49.05081" lon="7.52201">
        <ele>293.9</ele>
        <time>2020-06-27T11:55:47Z</time>
      </trkpt>
      <trkpt lat="49.05083" lon="7.52209">
        <ele>294</ele>
        <time>2020-06-27T11:55:48Z</time>
      </trkpt>
      <trkpt lat="49.05084" lon="7.52217">
        <ele>294.1</ele>
        <time>2020-06-27T11:55:49Z</time>
      </trkpt>
      <trkpt lat="49.05084" lon="7.52225">
        <ele>294.2</ele>
        <time>2020-06-27T11:55:50Z</time>
      </trkpt>
      <trkpt lat="49.05085" lon="7.52233">
        <ele>294.3</ele>
        <time>2020-06-27T11:55:51Z</time>
      </trkpt>
      <trkpt lat="49.05087" lon="7.52241">
        <ele>294.3</ele>
        <time>2020-06-27T11:55:52Z</time>
      </trkpt>
      <trkpt lat="49.05088" lon="7.52249">
        <ele>294.4</ele>
        <time>2020-06-27T11:55:53Z</time>
      </trkpt>
      <trkpt lat="49.0509" lon="7.52257">
        <ele>294.5</ele>
        <time>2020-06-27T11:55:54Z</time>
      </trkpt>
      <trkpt lat="49.0509" lon="7.52266">
        <ele>294.6</ele>
        <time>2020-06-27T11:55:55Z</time>
      </trkpt>
      <trkpt lat="49.0509" lon="7.52274">
        <ele>294.7</ele>
        <time>2020-06-27T11:55:56Z</time>
      </trkpt>
      <trkpt lat="49.05091" lon="7.52282">
        <ele>294.7</ele>
        <time>2020-06-27T11:55:57Z</time>
      </trkpt>
      <trkpt lat="49.05092" lon="7.5229">
        <ele>294.8</ele>
        <time>2020-06-27T11:55:58Z</time>
      </trkpt>
      <trkpt lat="49.05092" lon="7.52299">
        <ele>294.9</ele>
        <time>2020-06-27T11:55:59Z</time>
      </trkpt>
      <trkpt lat="49.05094" lon="7.52306">
        <ele>294.9</ele>
        <time>2020-06-27T11:56:00Z</time>
      </trkpt>
      <trkpt lat="49.05096" lon="7.52314">
        <ele>295</ele>
        <time>2020-06-27T11:56:01Z</time>
      </trkpt>
      <trkpt lat="49.05097" lon="7.52322">
        <ele>295</ele>
        <time>2020-06-27T11:56:02Z</time>
      </trkpt>
      <trkpt lat="49.05098" lon="7.5233">
        <ele>295.1</ele>
        <time>2020-06-27T11:56:03Z</time>
      </trkpt>
      <trkpt lat="49.05099" lon="7.52339">
        <ele>295.2</ele>
        <time>2020-06-27T11:56:04Z</time>
      </trkpt>
      <trkpt lat="49.05099" lon="7.52347">
        <ele>295.3</ele>
        <time>2020-06-27T11:56:05Z</time>
      </trkpt>
      <trkpt lat="49.051" lon="7.52355">
        <ele>295.3</ele>
        <time>2020-06-27T11:56:06Z</time>
      </trkpt>
      <trkpt lat="49.05101" lon="7.52363">
        <ele>295.4</ele>
        <time>2020-06-27T11:56:07Z</time>
      </trkpt>
      <trkpt lat="49.05101" lon="7.52372">
        <ele>295.4</ele>
        <time>2020-06-27T11:56:08Z</time>
      </trkpt>
      <trkpt lat="49.05102" lon="7.52379">
        <ele>295.5</ele>
        <time>2020-06-27T11:56:09Z</time>
      </trkpt>
      <trkpt lat="49.05103" lon="7.52387">
        <ele>295.5</ele>
        <time>2020-06-27T11:56:10Z</time>
      </trkpt>
      <trkpt lat="49.05104" lon="7.52395">
        <ele>295.6</ele>
        <time>2020-06-27T11:56:11Z</time>
      </trkpt>
      <trkpt lat="49.05106" lon="7.52403">
        <ele>295.6</ele>
        <time>2020-06-27T11:56:12Z</time>
      </trkpt>
      <trkpt lat="49.05107" lon="7.52411">
        <ele>295.7</ele>
        <time>2020-06-27T11:56:13Z</time>
      </trkpt>
      <trkpt lat="49.05109" lon="7.5242">
        <ele>295.7</ele>
        <time>2020-06-27T11:56:14Z</time>
      </trkpt>
      <trkpt lat="49.0511" lon="7.52428">
        <ele>295.7</ele>
        <time>2020-06-27T11:56:15Z</time>
      </trkpt>
      <trkpt lat="49.05112" lon="7.52436">
        <ele>295.8</ele>
        <time>2020-06-27T11:56:16Z</time>
      </trkpt>
      <trkpt lat="49.05112" lon="7.52445">
        <ele>295.8</ele>
        <time>2020-06-27T11:56:17Z</time>
      </trkpt>
      <trkpt lat="49.05112" lon="7.52454">
        <ele>295.8</ele>
        <time>2020-06-27T11:56:18Z</time>
      </trkpt>
      <trkpt lat="49.05113" lon="7.52462">
        <ele>295.8</ele>
        <time>2020-06-27T11:56:19Z</time>
      </trkpt>
      <trkpt lat="49.05113" lon="7.52471">
        <ele>295.8</ele>
        <time>2020-06-27T11:56:20Z</time>
      </trkpt>
      <trkpt lat="49.05114" lon="7.52479">
        <ele>295.8</ele>
        <time>2020-06-27T11:56:21Z</time>
      </trkpt>
      <trkpt lat="49.05116" lon="7.52487">
        <ele>295.8</ele>
        <time>2020-06-27T11:56:22Z</time>
      </trkpt>
      <trkpt lat="49.05117" lon="7.52496">
        <ele>295.8</ele>
        <time>2020-06-27T11:56:23Z</time>
      </trkpt>
      <trkpt lat="49.05118" lon="7.52504">
        <ele>295.7</ele>
        <time>2020-06-27T11:56:24Z</time>
      </trkpt>
      <trkpt lat="49.05119" lon="7.52513">
        <ele>295.6</ele>
        <time>2020-06-27T11:56:25Z</time>
      </trkpt>
      <trkpt lat="49.0512" lon="7.52521">
        <ele>295.6</ele>
        <time>2020-06-27T11:56:26Z</time>
      </trkpt>
      <trkpt lat="49.05121" lon="7.5253">
        <ele>295.5</ele>
        <time>2020-06-27T11:56:27Z</time>
      </trkpt>
      <trkpt lat="49.05122" lon="7.5254">
        <ele>295.5</ele>
        <time>2020-06-27T11:56:28Z</time>
      </trkpt>
      <trkpt lat="49.05124" lon="7.52548">
        <ele>295.4</ele>
        <time>2020-06-27T11:56:29Z</time>
      </trkpt>
      <trkpt lat="49.05126" lon="7.52557">
        <ele>295.3</ele>
        <time>2020-06-27T11:56:30Z</time>
      </trkpt>
      <trkpt lat="49.05128" lon="7.52567">
        <ele>295.2</ele>
        <time>2020-06-27T11:56:31Z</time>
      </trkpt>
      <trkpt lat="49.05129" lon="7.52575">
        <ele>295.1</ele>
        <time>2020-06-27T11:56:32Z</time>
      </trkpt>
      <trkpt lat="49.0513" lon="7.52584">
        <ele>295.1</ele>
        <time>2020-06-27T11:56:33Z</time>
      </trkpt>
      <trkpt lat="49.05132" lon="7.52593">
        <ele>295</ele>
        <time>2020-06-27T11:56:34Z</time>
      </trkpt>
      <trkpt lat="49.05133" lon="7.52602">
        <ele>294.9</ele>
        <time>2020-06-27T11:56:35Z</time>
      </trkpt>
      <trkpt lat="49.05135" lon="7.52611">
        <ele>294.9</ele>
        <time>2020-06-27T11:56:36Z</time>
      </trkpt>
      <trkpt lat="49.05137" lon="7.5262">
        <ele>294.8</ele>
        <time>2020-06-27T11:56:37Z</time>
      </trkpt>
      <trkpt lat="49.05139" lon="7.5263">
        <ele>294.7</ele>
        <time>2020-06-27T11:56:38Z</time>
      </trkpt>
      <trkpt lat="49.05141" lon="7.52639">
        <ele>294.6</ele>
        <time>2020-06-27T11:56:39Z</time>
      </trkpt>
      <trkpt lat="49.05143" lon="7.52648">
        <ele>294.5</ele>
        <time>2020-06-27T11:56:40Z</time>
      </trkpt>
      <trkpt lat="49.05145" lon="7.52658">
        <ele>294.4</ele>
        <time>2020-06-27T11:56:41Z</time>
      </trkpt>
      <trkpt lat="49.05146" lon="7.52669">
        <ele>294.3</ele>
        <time>2020-06-27T11:56:42Z</time>
      </trkpt>
      <trkpt lat="49.05147" lon="7.5268">
        <ele>294.2</ele>
        <time>2020-06-27T11:56:43Z</time>
      </trkpt>
      <trkpt lat="49.05149" lon="7.52691">
        <ele>294.1</ele>
        <time>2020-06-27T11:56:44Z</time>
      </trkpt>
      <trkpt lat="49.0515" lon="7.52702">
        <ele>294</ele>
        <time>2020-06-27T11:56:45Z</time>
      </trkpt>
      <trkpt lat="49.05151" lon="7.52713">
        <ele>294</ele>
        <time>2020-06-27T11:56:46Z</time>
      </trkpt>
      <trkpt lat="49.05153" lon="7.52724">
        <ele>293.9</ele>
        <time>2020-06-27T11:56:47Z</time>
      </trkpt>
      <trkpt lat="49.05155" lon="7.52734">
        <ele>293.6</ele>
        <time>2020-06-27T11:56:48Z</time>
      </trkpt>
      <trkpt lat="49.05157" lon="7.52745">
        <ele>293.3</ele>
        <time>2020-06-27T11:56:49Z</time>
      </trkpt>
      <trkpt lat="49.05159" lon="7.52756">
        <ele>293.1</ele>
        <time>2020-06-27T11:56:50Z</time>
      </trkpt>
      <trkpt lat="49.05161" lon="7.52766">
        <ele>292.9</ele>
        <time>2020-06-27T11:56:51Z</time>
      </trkpt>
      <trkpt lat="49.05163" lon="7.52777">
        <ele>292.8</ele>
        <time>2020-06-27T11:56:52Z</time>
      </trkpt>
      <trkpt lat="49.05165" lon="7.52788">
        <ele>292.7</ele>
        <time>2020-06-27T11:56:53Z</time>
      </trkpt>
      <trkpt lat="49.05166" lon="7.52799">
        <ele>292.6</ele>
        <time>2020-06-27T11:56:54Z</time>
      </trkpt>
      <trkpt lat="49.05168" lon="7.5281">
        <ele>292.5</ele>
        <time>2020-06-27T11:56:55Z</time>
      </trkpt>
      <trkpt lat="49.05171" lon="7.52821">
        <ele>292.4</ele>
        <time>2020-06-27T11:56:56Z</time>
      </trkpt>
      <trkpt lat="49.05173" lon="7.52832">
        <ele>292.3</ele>
        <time>2020-06-27T11:56:57Z</time>
      </trkpt>
      <trkpt lat="49.05175" lon="7.52843">
        <ele>292.2</ele>
        <time>2020-06-27T11:56:58Z</time>
      </trkpt>
      <trkpt lat="49.05177" lon="7.52854">
        <ele>292.1</ele>
        <time>2020-06-27T11:56:59Z</time>
      </trkpt>
      <trkpt lat="49.05179" lon="7.52865">
        <ele>292</ele>
        <time>2020-06-27T11:57:00Z</time>
      </trkpt>
      <trkpt lat="49.05181" lon="7.52876">
        <ele>291.9</ele>
        <time>2020-06-27T11:57:01Z</time>
      </trkpt>
      <trkpt lat="49.05183" lon="7.52887">
        <ele>291.9</ele>
        <time>2020-06-27T11:57:02Z</time>
      </trkpt>
      <trkpt lat="49.05185" lon="7.52898">
        <ele>291.9</ele>
        <time>2020-06-27T11:57:03Z</time>
      </trkpt>
      <trkpt lat="49.05188" lon="7.52908">
        <ele>291.8</ele>
        <time>2020-06-27T11:57:04Z</time>
      </trkpt>
      <trkpt lat="49.05189" lon="7.52919">
        <ele>291.8</ele>
        <time>2020-06-27T11:57:05Z</time>
      </trkpt>
      <trkpt lat="49.05192" lon="7.52929">
        <ele>291.7</ele>
        <time>2020-06-27T11:57:06Z</time>
      </trkpt>
      <trkpt lat="49.05194" lon="7.5294">
        <ele>291.6</ele>
        <time>2020-06-27T11:57:07Z</time>
      </trkpt>
      <trkpt lat="49.05196" lon="7.52951">
        <ele>291.5</ele>
        <time>2020-06-27T11:57:08Z</time>
      </trkpt>
      <trkpt lat="49.05199" lon="7.52962">
        <ele>291.5</ele>
        <time>2020-06-27T11:57:09Z</time>
      </trkpt>
      <trkpt lat="49.05201" lon="7.52972">
        <ele>291.4</ele>
        <time>2020-06-27T11:57:10Z</time>
      </trkpt>
      <trkpt lat="49.05203" lon="7.52983">
        <ele>291.3</ele>
        <time>2020-06-27T11:57:11Z</time>
      </trkpt>
      <trkpt lat="49.05205" lon="7.52994">
        <ele>291.3</ele>
        <time>2020-06-27T11:57:12Z</time>
      </trkpt>
      <trkpt lat="49.05207" lon="7.53005">
        <ele>291.2</ele>
        <time>2020-06-27T11:57:13Z</time>
      </trkpt>
      <trkpt lat="49.05209" lon="7.53015">
        <ele>291.2</ele>
        <time>2020-06-27T11:57:14Z</time>
      </trkpt>
      <trkpt lat="49.05211" lon="7.53026">
        <ele>291.1</ele>
        <time>2020-06-27T11:57:15Z</time>
      </trkpt>
      <trkpt lat="49.05213" lon="7.53037">
        <ele>291.1</ele>
        <time>2020-06-27T11:57:16Z</time>
      </trkpt>
      <trkpt lat="49.05215" lon="7.53048">
        <ele>291.1</ele>
        <time>2020-06-27T11:57:17Z</time>
      </trkpt>
      <trkpt lat="49.05217" lon="7.53059">
        <ele>291.1</ele>
        <time>2020-06-27T11:57:18Z</time>
      </trkpt>
      <trkpt lat="49.05219" lon="7.5307">
        <ele>291.1</ele>
        <time>2020-06-27T11:57:19Z</time>
      </trkpt>
      <trkpt lat="49.05222" lon="7.5308">
        <ele>291.1</ele>
        <time>2020-06-27T11:57:20Z</time>
      </trkpt>
      <trkpt lat="49.05224" lon="7.53091">
        <ele>291</ele>
        <time>2020-06-27T11:57:21Z</time>
      </trkpt>
      <trkpt lat="49.05226" lon="7.53102">
        <ele>291</ele>
        <time>2020-06-27T11:57:22Z</time>
      </trkpt>
      <trkpt lat="49.05228" lon="7.53113">
        <ele>291</ele>
        <time>2020-06-27T11:57:23Z</time>
      </trkpt>
      <trkpt lat="49.05231" lon="7.53124">
        <ele>290.9</ele>
        <time>2020-06-27T11:57:24Z</time>
      </trkpt>
      <trkpt lat="49.05233" lon="7.53135">
        <ele>290.8</ele>
        <time>2020-06-27T11:57:25Z</time>
      </trkpt>
      <trkpt lat="49.05235" lon="7.53146">
        <ele>290.8</ele>
        <time>2020-06-27T11:57:26Z</time>
      </trkpt>
      <trkpt lat="49.05237" lon="7.53158">
        <ele>290.8</ele>
        <time>2020-06-27T11:57:27Z</time>
      </trkpt>
      <trkpt lat="49.05239" lon="7.53169">
        <ele>290.8</ele>
        <time>2020-06-27T11:57:28Z</time>
      </trkpt>
      <trkpt lat="49.05241" lon="7.5318">
        <ele>290.9</ele>
        <time>2020-06-27T11:57:29Z</time>
      </trkpt>
      <trkpt lat="49.05243" lon="7.53191">
        <ele>291</ele>
        <time>2020-06-27T11:57:30Z</time>
      </trkpt>
      <trkpt lat="49.05245" lon="7.53201">
        <ele>291.1</ele>
        <time>2020-06-27T11:57:31Z</time>
      </trkpt>
      <trkpt lat="49.05247" lon="7.53212">
        <ele>291.2</ele>
        <time>2020-06-27T11:57:32Z</time>
      </trkpt>
      <trkpt lat="49.0525" lon="7.53222">
        <ele>291.3</ele>
        <time>2020-06-27T11:57:33Z</time>
      </trkpt>
      <trkpt lat="49.05251" lon="7.53232">
        <ele>291.5</ele>
        <time>2020-06-27T11:57:34Z</time>
      </trkpt>
      <trkpt lat="49.05253" lon="7.53242">
        <ele>291.6</ele>
        <time>2020-06-27T11:57:35Z</time>
      </trkpt>
      <trkpt lat="49.05255" lon="7.53252">
        <ele>291.8</ele>
        <time>2020-06-27T11:57:36Z</time>
      </trkpt>
      <trkpt lat="49.05257" lon="7.53261">
        <ele>292</ele>
        <time>2020-06-27T11:57:37Z</time>
      </trkpt>
      <trkpt lat="49.05259" lon="7.5327">
        <ele>292.2</ele>
        <time>2020-06-27T11:57:38Z</time>
      </trkpt>
      <trkpt lat="49.0526" lon="7.53279">
        <ele>292.4</ele>
        <time>2020-06-27T11:57:39Z</time>
      </trkpt>
      <trkpt lat="49.05262" lon="7.53287">
        <ele>292.5</ele>
        <time>2020-06-27T11:57:40Z</time>
      </trkpt>
      <trkpt lat="49.05265" lon="7.53295">
        <ele>292.7</ele>
        <time>2020-06-27T11:57:41Z</time>
      </trkpt>
      <trkpt lat="49.05266" lon="7.53303">
        <ele>292.8</ele>
        <time>2020-06-27T11:57:42Z</time>
      </trkpt>
      <trkpt lat="49.05267" lon="7.53311">
        <ele>293</ele>
        <time>2020-06-27T11:57:43Z</time>
      </trkpt>
      <trkpt lat="49.05269" lon="7.53319">
        <ele>293.2</ele>
        <time>2020-06-27T11:57:44Z</time>
      </trkpt>
      <trkpt lat="49.05271" lon="7.53326">
        <ele>293.5</ele>
        <time>2020-06-27T11:57:45Z</time>
      </trkpt>
      <trkpt lat="49.05273" lon="7.53333">
        <ele>293.8</ele>
        <time>2020-06-27T11:57:46Z</time>
      </trkpt>
      <trkpt lat="49.05274" lon="7.53339">
        <ele>294.1</ele>
        <time>2020-06-27T11:57:47Z</time>
      </trkpt>
      <trkpt lat="49.05275" lon="7.53345">
        <ele>294.4</ele>
        <time>2020-06-27T11:57:48Z</time>
      </trkpt>
      <trkpt lat="49.05276" lon="7.53351">
        <ele>294.6</ele>
        <time>2020-06-27T11:57:49Z</time>
      </trkpt>
      <trkpt lat="49.05277" lon="7.53356">
        <ele>294.8</ele>
        <time>2020-06-27T11:57:50Z</time>
      </trkpt>
      <trkpt lat="49.05278" lon="7.53362">
        <ele>295</ele>
        <time>2020-06-27T11:57:51Z</time>
      </trkpt>
      <trkpt lat="49.05279" lon="7.53368">
        <ele>295.3</ele>
        <time>2020-06-27T11:57:52Z</time>
      </trkpt>
      <trkpt lat="49.05281" lon="7.53373">
        <ele>295.5</ele>
        <time>2020-06-27T11:57:53Z</time>
      </trkpt>
      <trkpt lat="49.05282" lon="7.53379">
        <ele>295.8</ele>
        <time>2020-06-27T11:57:54Z</time>
      </trkpt>
      <trkpt lat="49.05283" lon="7.53384">
        <ele>296</ele>
        <time>2020-06-27T11:57:55Z</time>
      </trkpt>
      <trkpt lat="49.05285" lon="7.5339">
        <ele>296.3</ele>
        <time>2020-06-27T11:57:56Z</time>
      </trkpt>
      <trkpt lat="49.05286" lon="7.53395">
        <ele>296.5</ele>
        <time>2020-06-27T11:57:57Z</time>
      </trkpt>
      <trkpt lat="49.05287" lon="7.534">
        <ele>296.7</ele>
        <time>2020-06-27T11:57:58Z</time>
      </trkpt>
      <trkpt lat="49.05288" lon="7.53404">
        <ele>296.9</ele>
        <time>2020-06-27T11:57:59Z</time>
      </trkpt>
      <trkpt lat="49.0529" lon="7.53409">
        <ele>297.1</ele>
        <time>2020-06-27T11:58:00Z</time>
      </trkpt>
      <trkpt lat="49.05291" lon="7.53414">
        <ele>297.4</ele>
        <time>2020-06-27T11:58:01Z</time>
      </trkpt>
      <trkpt lat="49.05292" lon="7.5342">
        <ele>297.6</ele>
        <time>2020-06-27T11:58:02Z</time>
      </trkpt>
      <trkpt lat="49.05295" lon="7.53426">
        <ele>297.9</ele>
        <time>2020-06-27T11:58:03Z</time>
      </trkpt>
      <trkpt lat="49.05296" lon="7.53431">
        <ele>298.2</ele>
        <time>2020-06-27T11:58:04Z</time>
      </trkpt>
      <trkpt lat="49.05298" lon="7.53436">
        <ele>298.4</ele>
        <time>2020-06-27T11:58:05Z</time>
      </trkpt>
      <trkpt lat="49.053" lon="7.53442">
        <ele>298.7</ele>
        <time>2020-06-27T11:58:06Z</time>
      </trkpt>
      <trkpt lat="49.05302" lon="7.53448">
        <ele>298.9</ele>
        <time>2020-06-27T11:58:07Z</time>
      </trkpt>
      <trkpt lat="49.05303" lon="7.53453">
        <ele>299.1</ele>
        <time>2020-06-27T11:58:08Z</time>
      </trkpt>
      <trkpt lat="49.05305" lon="7.53458">
        <ele>299.4</ele>
        <time>2020-06-27T11:58:09Z</time>
      </trkpt>
      <trkpt lat="49.05307" lon="7.53462">
        <ele>299.6</ele>
        <time>2020-06-27T11:58:10Z</time>
      </trkpt>
      <trkpt lat="49.05308" lon="7.53464">
        <ele>299.6</ele>
        <time>2020-06-27T11:58:11Z</time>
      </trkpt>
      <trkpt lat="49.05309" lon="7.53469">
        <ele>299.8</ele>
        <time>2020-06-27T11:58:12Z</time>
      </trkpt>
      <trkpt lat="49.05311" lon="7.53476">
        <ele>300.1</ele>
        <time>2020-06-27T11:58:13Z</time>
      </trkpt>
      <trkpt lat="49.05312" lon="7.5348">
        <ele>300.3</ele>
        <time>2020-06-27T11:58:14Z</time>
      </trkpt>
      <trkpt lat="49.05314" lon="7.53485">
        <ele>300.5</ele>
        <time>2020-06-27T11:58:15Z</time>
      </trkpt>
      <trkpt lat="49.05315" lon="7.5349">
        <ele>300.8</ele>
        <time>2020-06-27T11:58:16Z</time>
      </trkpt>
      <trkpt lat="49.05317" lon="7.53494">
        <ele>301</ele>
        <time>2020-06-27T11:58:17Z</time>
      </trkpt>
      <trkpt lat="49.05318" lon="7.535">
        <ele>301.2</ele>
        <time>2020-06-27T11:58:18Z</time>
      </trkpt>
      <trkpt lat="49.0532" lon="7.53506">
        <ele>301.5</ele>
        <time>2020-06-27T11:58:19Z</time>
      </trkpt>
      <trkpt lat="49.05322" lon="7.5351">
        <ele>301.7</ele>
        <time>2020-06-27T11:58:20Z</time>
      </trkpt>
      <trkpt lat="49.05323" lon="7.53516">
        <ele>301.9</ele>
        <time>2020-06-27T11:58:21Z</time>
      </trkpt>
      <trkpt lat="49.05326" lon="7.53521">
        <ele>302.2</ele>
        <time>2020-06-27T11:58:22Z</time>
      </trkpt>
      <trkpt lat="49.05327" lon="7.53525">
        <ele>302.3</ele>
        <time>2020-06-27T11:58:23Z</time>
      </trkpt>
      <trkpt lat="49.05329" lon="7.53531">
        <ele>302.6</ele>
        <time>2020-06-27T11:58:24Z</time>
      </trkpt>
      <trkpt lat="49.0533" lon="7.53533">
        <ele>302.7</ele>
        <time>2020-06-27T11:58:25Z</time>
      </trkpt>
      <trkpt lat="49.05331" lon="7.53537">
        <ele>302.9</ele>
        <time>2020-06-27T11:58:26Z</time>
      </trkpt>
      <trkpt lat="49.05332" lon="7.53541">
        <ele>303</ele>
        <time>2020-06-27T11:58:27Z</time>
      </trkpt>
      <trkpt lat="49.05333" lon="7.53547">
        <ele>303.3</ele>
        <time>2020-06-27T11:58:28Z</time>
      </trkpt>
      <trkpt lat="49.05335" lon="7.53551">
        <ele>303.5</ele>
        <time>2020-06-27T11:58:29Z</time>
      </trkpt>
      <trkpt lat="49.05336" lon="7.53556">
        <ele>303.7</ele>
        <time>2020-06-27T11:58:30Z</time>
      </trkpt>
      <trkpt lat="49.05336" lon="7.53558">
        <ele>303.8</ele>
        <time>2020-06-27T11:58:31Z</time>
      </trkpt>
      <trkpt lat="49.05336" lon="7.53564">
        <ele>304</ele>
        <time>2020-06-27T11:58:32Z</time>
      </trkpt>
      <trkpt lat="49.05338" lon="7.5357">
        <ele>304.2</ele>
        <time>2020-06-27T11:58:33Z</time>
      </trkpt>
      <trkpt lat="49.05339" lon="7.53572">
        <ele>304.3</ele>
        <time>2020-06-27T11:58:34Z</time>
      </trkpt>
      <trkpt lat="49.05341" lon="7.53578">
        <ele>304.6</ele>
        <time>2020-06-27T11:58:35Z</time>
      </trkpt>
      <trkpt lat="49.05342" lon="7.53584">
        <ele>304.8</ele>
        <time>2020-06-27T11:58:36Z</time>
      </trkpt>
      <trkpt lat="49.05343" lon="7.53588">
        <ele>305</ele>
        <time>2020-06-27T11:58:37Z</time>
      </trkpt>
      <trkpt lat="49.05346" lon="7.53593">
        <ele>305.2</ele>
        <time>2020-06-27T11:58:38Z</time>
      </trkpt>
      <trkpt lat="49.05347" lon="7.53598">
        <ele>305.4</ele>
        <time>2020-06-27T11:58:39Z</time>
      </trkpt>
      <trkpt lat="49.05349" lon="7.53604">
        <ele>305.7</ele>
        <time>2020-06-27T11:58:40Z</time>
      </trkpt>
      <trkpt lat="49.0535" lon="7.53606">
        <ele>305.8</ele>
        <time>2020-06-27T11:58:41Z</time>
      </trkpt>
      <trkpt lat="49.05351" lon="7.53611">
        <ele>306</ele>
        <time>2020-06-27T11:58:42Z</time>
      </trkpt>
      <trkpt lat="49.05353" lon="7.53615">
        <ele>306.2</ele>
        <time>2020-06-27T11:58:43Z</time>
      </trkpt>
      <trkpt lat="49.05354" lon="7.5362">
        <ele>306.4</ele>
        <time>2020-06-27T11:58:44Z</time>
      </trkpt>
      <trkpt lat="49.05355" lon="7.53627">
        <ele>306.7</ele>
        <time>2020-06-27T11:58:45Z</time>
      </trkpt>
      <trkpt lat="49.05355" lon="7.53629">
        <ele>306.8</ele>
        <time>2020-06-27T11:58:46Z</time>
      </trkpt>
      <trkpt lat="49.05357" lon="7.53633">
        <ele>306.9</ele>
        <time>2020-06-27T11:58:47Z</time>
      </trkpt>
      <trkpt lat="49.05359" lon="7.53638">
        <ele>307.2</ele>
        <time>2020-06-27T11:58:48Z</time>
      </trkpt>
      <trkpt lat="49.0536" lon="7.53642">
        <ele>307.3</ele>
        <time>2020-06-27T11:58:49Z</time>
      </trkpt>
      <trkpt lat="49.05362" lon="7.53646">
        <ele>307.5</ele>
        <time>2020-06-27T11:58:50Z</time>
      </trkpt>
      <trkpt lat="49.05364" lon="7.53651">
        <ele>307.7</ele>
        <time>2020-06-27T11:58:51Z</time>
      </trkpt>
      <trkpt lat="49.05366" lon="7.53657">
        <ele>308</ele>
        <time>2020-06-27T11:58:52Z</time>
      </trkpt>
      <trkpt lat="49.05367" lon="7.53661">
        <ele>308.2</ele>
        <time>2020-06-27T11:58:53Z</time>
      </trkpt>
      <trkpt lat="49.05367" lon="7.53662">
        <ele>308.2</ele>
        <time>2020-06-27T11:58:54Z</time>
      </trkpt>
      <trkpt lat="49.05369" lon="7.53668">
        <ele>308.5</ele>
        <time>2020-06-27T11:58:55Z</time>
      </trkpt>
      <trkpt lat="49.0537" lon="7.53675">
        <ele>308.7</ele>
        <time>2020-06-27T11:58:56Z</time>
      </trkpt>
      <trkpt lat="49.05372" lon="7.53681">
        <ele>309</ele>
        <time>2020-06-27T11:58:57Z</time>
      </trkpt>
      <trkpt lat="49.05373" lon="7.53684">
        <ele>309.2</ele>
        <time>2020-06-27T11:58:58Z</time>
      </trkpt>
      <trkpt lat="49.05374" lon="7.53689">
        <ele>309.4</ele>
        <time>2020-06-27T11:58:59Z</time>
      </trkpt>
      <trkpt lat="49.05375" lon="7.53693">
        <ele>309.5</ele>
        <time>2020-06-27T11:59:00Z</time>
      </trkpt>
      <trkpt lat="49.05377" lon="7.53698">
        <ele>309.8</ele>
        <time>2020-06-27T11:59:01Z</time>
      </trkpt>
      <trkpt lat="49.05378" lon="7.53703">
        <ele>310</ele>
        <time>2020-06-27T11:59:02Z</time>
      </trkpt>
      <trkpt lat="49.05378" lon="7.53708">
        <ele>310.1</ele>
        <time>2020-06-27T11:59:03Z</time>
      </trkpt>
      <trkpt lat="49.05379" lon="7.53713">
        <ele>310.3</ele>
        <time>2020-06-27T11:59:04Z</time>
      </trkpt>
      <trkpt lat="49.05378" lon="7.5372">
        <ele>310.6</ele>
        <time>2020-06-27T11:59:05Z</time>
      </trkpt>
      <trkpt lat="49.05378" lon="7.53727">
        <ele>310.8</ele>
        <time>2020-06-27T11:59:06Z</time>
      </trkpt>
      <trkpt lat="49.05378" lon="7.53733">
        <ele>311</ele>
        <time>2020-06-27T11:59:07Z</time>
      </trkpt>
      <trkpt lat="49.05378" lon="7.53739">
        <ele>311.3</ele>
        <time>2020-06-27T11:59:08Z</time>
      </trkpt>
      <trkpt lat="49.05377" lon="7.53744">
        <ele>311.5</ele>
        <time>2020-06-27T11:59:09Z</time>
      </trkpt>
      <trkpt lat="49.05376" lon="7.53748">
        <ele>311.6</ele>
        <time>2020-06-27T11:59:10Z</time>
      </trkpt>
      <trkpt lat="49.05375" lon="7.53753">
        <ele>311.8</ele>
        <time>2020-06-27T11:59:11Z</time>
      </trkpt>
      <trkpt lat="49.05374" lon="7.53758">
        <ele>311.9</ele>
        <time>2020-06-27T11:59:12Z</time>
      </trkpt>
      <trkpt lat="49.05374" lon="7.53763">
        <ele>312.1</ele>
        <time>2020-06-27T11:59:13Z</time>
      </trkpt>
      <trkpt lat="49.05374" lon="7.5377">
        <ele>312.4</ele>
        <time>2020-06-27T11:59:14Z</time>
      </trkpt>
      <trkpt lat="49.05374" lon="7.53773">
        <ele>312.5</ele>
        <time>2020-06-27T11:59:15Z</time>
      </trkpt>
      <trkpt lat="49.05375" lon="7.53778">
        <ele>312.7</ele>
        <time>2020-06-27T11:59:16Z</time>
      </trkpt>
      <trkpt lat="49.05374" lon="7.53784">
        <ele>312.9</ele>
        <time>2020-06-27T11:59:17Z</time>
      </trkpt>
      <trkpt lat="49.05373" lon="7.53789">
        <ele>313.1</ele>
        <time>2020-06-27T11:59:18Z</time>
      </trkpt>
      <trkpt lat="49.05373" lon="7.53795">
        <ele>313.3</ele>
        <time>2020-06-27T11:59:19Z</time>
      </trkpt>
      <trkpt lat="49.05373" lon="7.538">
        <ele>313.5</ele>
        <time>2020-06-27T11:59:20Z</time>
      </trkpt>
      <trkpt lat="49.05373" lon="7.53805">
        <ele>313.7</ele>
        <time>2020-06-27T11:59:21Z</time>
      </trkpt>
      <trkpt lat="49.05372" lon="7.5381">
        <ele>313.9</ele>
        <time>2020-06-27T11:59:22Z</time>
      </trkpt>
      <trkpt lat="49.05371" lon="7.53816">
        <ele>314.1</ele>
        <time>2020-06-27T11:59:23Z</time>
      </trkpt>
      <trkpt lat="49.0537" lon="7.53821">
        <ele>314.3</ele>
        <time>2020-06-27T11:59:24Z</time>
      </trkpt>
      <trkpt lat="49.0537" lon="7.53825">
        <ele>314.5</ele>
        <time>2020-06-27T11:59:25Z</time>
      </trkpt>
      <trkpt lat="49.05369" lon="7.53827">
        <ele>314.6</ele>
        <time>2020-06-27T11:59:26Z</time>
      </trkpt>
      <trkpt lat="49.05369" lon="7.53835">
        <ele>314.9</ele>
        <time>2020-06-27T11:59:27Z</time>
      </trkpt>
      <trkpt lat="49.05368" lon="7.5384">
        <ele>315.1</ele>
        <time>2020-06-27T11:59:28Z</time>
      </trkpt>
      <trkpt lat="49.05367" lon="7.53845">
        <ele>315.3</ele>
        <time>2020-06-27T11:59:29Z</time>
      </trkpt>
      <trkpt lat="49.05367" lon="7.5385">
        <ele>315.5</ele>
        <time>2020-06-27T11:59:30Z</time>
      </trkpt>
      <trkpt lat="49.05367" lon="7.53857">
        <ele>315.8</ele>
        <time>2020-06-27T11:59:31Z</time>
      </trkpt>
      <trkpt lat="49.05368" lon="7.53864">
        <ele>316.1</ele>
        <time>2020-06-27T11:59:32Z</time>
      </trkpt>
      <trkpt lat="49.05367" lon="7.53867">
        <ele>316.2</ele>
        <time>2020-06-27T11:59:33Z</time>
      </trkpt>
      <trkpt lat="49.05367" lon="7.53872">
        <ele>316.4</ele>
        <time>2020-06-27T11:59:34Z</time>
      </trkpt>
      <trkpt lat="49.05366" lon="7.53879">
        <ele>316.7</ele>
        <time>2020-06-27T11:59:35Z</time>
      </trkpt>
      <trkpt lat="49.05366" lon="7.53883">
        <ele>316.8</ele>
        <time>2020-06-27T11:59:36Z</time>
      </trkpt>
      <trkpt lat="49.05365" lon="7.53888">
        <ele>317</ele>
        <time>2020-06-27T11:59:37Z</time>
      </trkpt>
      <trkpt lat="49.05364" lon="7.53892">
        <ele>317.2</ele>
        <time>2020-06-27T11:59:38Z</time>
      </trkpt>
      <trkpt lat="49.05364" lon="7.53897">
        <ele>317.4</ele>
        <time>2020-06-27T11:59:39Z</time>
      </trkpt>
      <trkpt lat="49.05364" lon="7.53902">
        <ele>317.5</ele>
        <time>2020-06-27T11:59:40Z</time>
      </trkpt>
      <trkpt lat="49.05364" lon="7.53908">
        <ele>317.7</ele>
        <time>2020-06-27T11:59:41Z</time>
      </trkpt>
      <trkpt lat="49.05364" lon="7.53913">
        <ele>317.9</ele>
        <time>2020-06-27T11:59:42Z</time>
      </trkpt>
      <trkpt lat="49.05364" lon="7.5392">
        <ele>318.2</ele>
        <time>2020-06-27T11:59:43Z</time>
      </trkpt>
      <trkpt lat="49.05364" lon="7.53922">
        <ele>318.2</ele>
        <time>2020-06-27T11:59:44Z</time>
      </trkpt>
      <trkpt lat="49.05365" lon="7.53927">
        <ele>318.4</ele>
        <time>2020-06-27T11:59:45Z</time>
      </trkpt>
      <trkpt lat="49.05366" lon="7.53931">
        <ele>318.6</ele>
        <time>2020-06-27T11:59:46Z</time>
      </trkpt>
      <trkpt lat="49.05366" lon="7.53936">
        <ele>318.8</ele>
        <time>2020-06-27T11:59:47Z</time>
      </trkpt>
      <trkpt lat="49.05365" lon="7.53941">
        <ele>319</ele>
        <time>2020-06-27T11:59:48Z</time>
      </trkpt>
      <trkpt lat="49.05366" lon="7.53946">
        <ele>319.2</ele>
        <time>2020-06-27T11:59:49Z</time>
      </trkpt>
      <trkpt lat="49.05366" lon="7.53948">
        <ele>319.2</ele>
        <time>2020-06-27T11:59:50Z</time>
      </trkpt>
      <trkpt lat="49.05366" lon="7.53954">
        <ele>319.5</ele>
        <time>2020-06-27T11:59:51Z</time>
      </trkpt>
      <trkpt lat="49.05367" lon="7.53959">
        <ele>319.7</ele>
        <time>2020-06-27T11:59:52Z</time>
      </trkpt>
      <trkpt lat="49.05368" lon="7.53965">
        <ele>319.9</ele>
        <time>2020-06-27T11:59:53Z</time>
      </trkpt>
      <trkpt lat="49.05368" lon="7.5397">
        <ele>320</ele>
        <time>2020-06-27T11:59:54Z</time>
      </trkpt>
      <trkpt lat="49.05369" lon="7.53976">
        <ele>320.2</ele>
        <time>2020-06-27T11:59:55Z</time>
      </trkpt>
      <trkpt lat="49.05371" lon="7.53982">
        <ele>320.4</ele>
        <time>2020-06-27T11:59:56Z</time>
      </trkpt>
      <trkpt lat="49.05373" lon="7.53986">
        <ele>320.5</ele>
        <time>2020-06-27T11:59:57Z</time>
      </trkpt>
      <trkpt lat="49.05374" lon="7.53993">
        <ele>320.7</ele>
        <time>2020-06-27T11:59:58Z</time>
      </trkpt>
      <trkpt lat="49.05375" lon="7.53999">
        <ele>320.9</ele>
        <time>2020-06-27T11:59:59Z</time>
      </trkpt>
      <trkpt lat="49.05376" lon="7.54004">
        <ele>321.1</ele>
        <time>2020-06-27T12:00:00Z</time>
      </trkpt>
      <trkpt lat="49.05377" lon="7.54008">
        <ele>321.2</ele>
        <time>2020-06-27T12:00:01Z</time>
      </trkpt>
      <trkpt lat="49.05379" lon="7.54015">
        <ele>321.4</ele>
        <time>2020-06-27T12:00:02Z</time>
      </trkpt>
      <trkpt lat="49.0538" lon="7.54017">
        <ele>321.5</ele>
        <time>2020-06-27T12:00:03Z</time>
      </trkpt>
      <trkpt lat="49.0538" lon="7.54022">
        <ele>321.7</ele>
        <time>2020-06-27T12:00:04Z</time>
      </trkpt>
      <trkpt lat="49.05381" lon="7.54026">
        <ele>321.8</ele>
        <time>2020-06-27T12:00:05Z</time>
      </trkpt>
      <trkpt lat="49.05382" lon="7.54031">
        <ele>322</ele>
        <time>2020-06-27T12:00:06Z</time>
      </trkpt>
      <trkpt lat="49.05383" lon="7.5404">
        <ele>322.2</ele>
        <time>2020-06-27T12:00:07Z</time>
      </trkpt>
      <trkpt lat="49.05383" lon="7.54047">
        <ele>322.4</ele>
        <time>2020-06-27T12:00:08Z</time>
      </trkpt>
      <trkpt lat="49.05383" lon="7.5405">
        <ele>322.5</ele>
        <time>2020-06-27T12:00:09Z</time>
      </trkpt>
      <trkpt lat="49.05384" lon="7.54056">
        <ele>322.6</ele>
        <time>2020-06-27T12:00:10Z</time>
      </trkpt>
      <trkpt lat="49.05385" lon="7.54062">
        <ele>322.8</ele>
        <time>2020-06-27T12:00:11Z</time>
      </trkpt>
      <trkpt lat="49.05386" lon="7.54065">
        <ele>322.8</ele>
        <time>2020-06-27T12:00:12Z</time>
      </trkpt>
      <trkpt lat="49.05386" lon="7.54069">
        <ele>322.9</ele>
        <time>2020-06-27T12:00:13Z</time>
      </trkpt>
      <trkpt lat="49.05388" lon="7.54076">
        <ele>323.1</ele>
        <time>2020-06-27T12:00:14Z</time>
      </trkpt>
      <trkpt lat="49.05388" lon="7.54082">
        <ele>323.3</ele>
        <time>2020-06-27T12:00:15Z</time>
      </trkpt>
      <trkpt lat="49.05388" lon="7.54086">
        <ele>323.4</ele>
        <time>2020-06-27T12:00:16Z</time>
      </trkpt>
      <trkpt lat="49.05389" lon="7.54092">
        <ele>323.6</ele>
        <time>2020-06-27T12:00:17Z</time>
      </trkpt>
      <trkpt lat="49.05389" lon="7.54095">
        <ele>323.6</ele>
        <time>2020-06-27T12:00:18Z</time>
      </trkpt>
      <trkpt lat="49.05391" lon="7.541">
        <ele>323.8</ele>
        <time>2020-06-27T12:00:19Z</time>
      </trkpt>
      <trkpt lat="49.05392" lon="7.54105">
        <ele>323.9</ele>
        <time>2020-06-27T12:00:20Z</time>
      </trkpt>
      <trkpt lat="49.05394" lon="7.5411">
        <ele>324.1</ele>
        <time>2020-06-27T12:00:21Z</time>
      </trkpt>
      <trkpt lat="49.05394" lon="7.54116">
        <ele>324.2</ele>
        <time>2020-06-27T12:00:22Z</time>
      </trkpt>
      <trkpt lat="49.05396" lon="7.5412">
        <ele>324.4</ele>
        <time>2020-06-27T12:00:23Z</time>
      </trkpt>
      <trkpt lat="49.05396" lon="7.54125">
        <ele>324.5</ele>
        <time>2020-06-27T12:00:24Z</time>
      </trkpt>
      <trkpt lat="49.05397" lon="7.54131">
        <ele>324.6</ele>
        <time>2020-06-27T12:00:25Z</time>
      </trkpt>
      <trkpt lat="49.05398" lon="7.54137">
        <ele>324.8</ele>
        <time>2020-06-27T12:00:26Z</time>
      </trkpt>
      <trkpt lat="49.05398" lon="7.54142">
        <ele>324.9</ele>
        <time>2020-06-27T12:00:27Z</time>
      </trkpt>
      <trkpt lat="49.05399" lon="7.54148">
        <ele>325.1</ele>
        <time>2020-06-27T12:00:28Z</time>
      </trkpt>
      <trkpt lat="49.05401" lon="7.54154">
        <ele>325.3</ele>
        <time>2020-06-27T12:00:29Z</time>
      </trkpt>
      <trkpt lat="49.05403" lon="7.5416">
        <ele>325.5</ele>
        <time>2020-06-27T12:00:30Z</time>
      </trkpt>
      <trkpt lat="49.05403" lon="7.54166">
        <ele>325.6</ele>
        <time>2020-06-27T12:00:31Z</time>
      </trkpt>
      <trkpt lat="49.05404" lon="7.54173">
        <ele>325.8</ele>
        <time>2020-06-27T12:00:32Z</time>
      </trkpt>
      <trkpt lat="49.05405" lon="7.54176">
        <ele>325.9</ele>
        <time>2020-06-27T12:00:33Z</time>
      </trkpt>
      <trkpt lat="49.05407" lon="7.54181">
        <ele>326</ele>
        <time>2020-06-27T12:00:34Z</time>
      </trkpt>
      <trkpt lat="49.05408" lon="7.54187">
        <ele>326.2</ele>
        <time>2020-06-27T12:00:35Z</time>
      </trkpt>
      <trkpt lat="49.05409" lon="7.54192">
        <ele>326.2</ele>
        <time>2020-06-27T12:00:36Z</time>
      </trkpt>
      <trkpt lat="49.05408" lon="7.54197">
        <ele>326.3</ele>
        <time>2020-06-27T12:00:37Z</time>
      </trkpt>
      <trkpt lat="49.05409" lon="7.54204">
        <ele>326.4</ele>
        <time>2020-06-27T12:00:38Z</time>
      </trkpt>
      <trkpt lat="49.05409" lon="7.54209">
        <ele>326.5</ele>
        <time>2020-06-27T12:00:39Z</time>
      </trkpt>
      <trkpt lat="49.05409" lon="7.54214">
        <ele>326.5</ele>
        <time>2020-06-27T12:00:40Z</time>
      </trkpt>
      <trkpt lat="49.0541" lon="7.54221">
        <ele>326.7</ele>
        <time>2020-06-27T12:00:41Z</time>
      </trkpt>
      <trkpt lat="49.05411" lon="7.54227">
        <ele>326.8</ele>
        <time>2020-06-27T12:00:42Z</time>
      </trkpt>
      <trkpt lat="49.05411" lon="7.54231">
        <ele>326.9</ele>
        <time>2020-06-27T12:00:43Z</time>
      </trkpt>
      <trkpt lat="49.05413" lon="7.54235">
        <ele>327</ele>
        <time>2020-06-27T12:00:44Z</time>
      </trkpt>
      <trkpt lat="49.05414" lon="7.5424">
        <ele>327.1</ele>
        <time>2020-06-27T12:00:45Z</time>
      </trkpt>
      <trkpt lat="49.05415" lon="7.54246">
        <ele>327.2</ele>
        <time>2020-06-27T12:00:46Z</time>
      </trkpt>
      <trkpt lat="49.05415" lon="7.54252">
        <ele>327.3</ele>
        <time>2020-06-27T12:00:47Z</time>
      </trkpt>
      <trkpt lat="49.05416" lon="7.54259">
        <ele>327.4</ele>
        <time>2020-06-27T12:00:48Z</time>
      </trkpt>
      <trkpt lat="49.05418" lon="7.54264">
        <ele>327.5</ele>
        <time>2020-06-27T12:00:49Z</time>
      </trkpt>
      <trkpt lat="49.05419" lon="7.54268">
        <ele>327.6</ele>
        <time>2020-06-27T12:00:50Z</time>
      </trkpt>
      <trkpt lat="49.0542" lon="7.54273">
        <ele>327.7</ele>
        <time>2020-06-27T12:00:51Z</time>
      </trkpt>
      <trkpt lat="49.05422" lon="7.54279">
        <ele>327.7</ele>
        <time>2020-06-27T12:00:52Z</time>
      </trkpt>
      <trkpt lat="49.05423" lon="7.54285">
        <ele>327.8</ele>
        <time>2020-06-27T12:00:53Z</time>
      </trkpt>
      <trkpt lat="49.05423" lon="7.54288">
        <ele>327.8</ele>
        <time>2020-06-27T12:00:54Z</time>
      </trkpt>
      <trkpt lat="49.05424" lon="7.54293">
        <ele>327.8</ele>
        <time>2020-06-27T12:00:55Z</time>
      </trkpt>
      <trkpt lat="49.05424" lon="7.54299">
        <ele>327.8</ele>
        <time>2020-06-27T12:00:56Z</time>
      </trkpt>
      <trkpt lat="49.05426" lon="7.54306">
        <ele>328.1</ele>
        <time>2020-06-27T12:00:57Z</time>
      </trkpt>
      <trkpt lat="49.05427" lon="7.54311">
        <ele>328.4</ele>
        <time>2020-06-27T12:00:58Z</time>
      </trkpt>
      <trkpt lat="49.05428" lon="7.54319">
        <ele>328.6</ele>
        <time>2020-06-27T12:00:59Z</time>
      </trkpt>
      <trkpt lat="49.0543" lon="7.54323">
        <ele>328.7</ele>
        <time>2020-06-27T12:01:00Z</time>
      </trkpt>
      <trkpt lat="49.05431" lon="7.54329">
        <ele>328.7</ele>
        <time>2020-06-27T12:01:01Z</time>
      </trkpt>
      <trkpt lat="49.05431" lon="7.54336">
        <ele>328.6</ele>
        <time>2020-06-27T12:01:02Z</time>
      </trkpt>
      <trkpt lat="49.05433" lon="7.54342">
        <ele>328.5</ele>
        <time>2020-06-27T12:01:03Z</time>
      </trkpt>
      <trkpt lat="49.05434" lon="7.54348">
        <ele>328.3</ele>
        <time>2020-06-27T12:01:04Z</time>
      </trkpt>
      <trkpt lat="49.05436" lon="7.54355">
        <ele>328.2</ele>
        <time>2020-06-27T12:01:05Z</time>
      </trkpt>
      <trkpt lat="49.05437" lon="7.54359">
        <ele>328</ele>
        <time>2020-06-27T12:01:06Z</time>
      </trkpt>
      <trkpt lat="49.05439" lon="7.54369">
        <ele>327.7</ele>
        <time>2020-06-27T12:01:07Z</time>
      </trkpt>
      <trkpt lat="49.0544" lon="7.54378">
        <ele>327.3</ele>
        <time>2020-06-27T12:01:08Z</time>
      </trkpt>
      <trkpt lat="49.0544" lon="7.54383">
        <ele>327.1</ele>
        <time>2020-06-27T12:01:09Z</time>
      </trkpt>
      <trkpt lat="49.05441" lon="7.54394">
        <ele>326.7</ele>
        <time>2020-06-27T12:01:10Z</time>
      </trkpt>
      <trkpt lat="49.05443" lon="7.54403">
        <ele>326.4</ele>
        <time>2020-06-27T12:01:11Z</time>
      </trkpt>
      <trkpt lat="49.05444" lon="7.54412">
        <ele>326</ele>
        <time>2020-06-27T12:01:12Z</time>
      </trkpt>
      <trkpt lat="49.05446" lon="7.54421">
        <ele>325.6</ele>
        <time>2020-06-27T12:01:13Z</time>
      </trkpt>
      <trkpt lat="49.05449" lon="7.5443">
        <ele>325.2</ele>
        <time>2020-06-27T12:01:14Z</time>
      </trkpt>
      <trkpt lat="49.05452" lon="7.54439">
        <ele>324.8</ele>
        <time>2020-06-27T12:01:15Z</time>
      </trkpt>
      <trkpt lat="49.05456" lon="7.54449">
        <ele>324.3</ele>
        <time>2020-06-27T12:01:16Z</time>
      </trkpt>
      <trkpt lat="49.05459" lon="7.54456">
        <ele>323.9</ele>
        <time>2020-06-27T12:01:17Z</time>
      </trkpt>
      <trkpt lat="49.05463" lon="7.54464">
        <ele>323.5</ele>
        <time>2020-06-27T12:01:18Z</time>
      </trkpt>
      <trkpt lat="49.05466" lon="7.54471">
        <ele>323.1</ele>
        <time>2020-06-27T12:01:19Z</time>
      </trkpt>
      <trkpt lat="49.0547" lon="7.54481">
        <ele>322.5</ele>
        <time>2020-06-27T12:01:20Z</time>
      </trkpt>
      <trkpt lat="49.05475" lon="7.5449">
        <ele>322</ele>
        <time>2020-06-27T12:01:21Z</time>
      </trkpt>
      <trkpt lat="49.05479" lon="7.545">
        <ele>321.4</ele>
        <time>2020-06-27T12:01:22Z</time>
      </trkpt>
      <trkpt lat="49.05484" lon="7.54511">
        <ele>320.7</ele>
        <time>2020-06-27T12:01:23Z</time>
      </trkpt>
      <trkpt lat="49.05489" lon="7.54522">
        <ele>320.1</ele>
        <time>2020-06-27T12:01:24Z</time>
      </trkpt>
      <trkpt lat="49.05492" lon="7.54533">
        <ele>319.4</ele>
        <time>2020-06-27T12:01:25Z</time>
      </trkpt>
      <trkpt lat="49.05495" lon="7.54544">
        <ele>318.8</ele>
        <time>2020-06-27T12:01:26Z</time>
      </trkpt>
      <trkpt lat="49.05499" lon="7.54556">
        <ele>318.3</ele>
        <time>2020-06-27T12:01:27Z</time>
      </trkpt>
      <trkpt lat="49.05502" lon="7.54569">
        <ele>317.7</ele>
        <time>2020-06-27T12:01:28Z</time>
      </trkpt>
      <trkpt lat="49.05504" lon="7.54581">
        <ele>317.1</ele>
        <time>2020-06-27T12:01:29Z</time>
      </trkpt>
      <trkpt lat="49.05507" lon="7.54594">
        <ele>316.4</ele>
        <time>2020-06-27T12:01:30Z</time>
      </trkpt>
      <trkpt lat="49.0551" lon="7.54608">
        <ele>315.8</ele>
        <time>2020-06-27T12:01:31Z</time>
      </trkpt>
      <trkpt lat="49.05512" lon="7.54621">
        <ele>315.2</ele>
        <time>2020-06-27T12:01:32Z</time>
      </trkpt>
      <trkpt lat="49.05515" lon="7.54634">
        <ele>314.6</ele>
        <time>2020-06-27T12:01:33Z</time>
      </trkpt>
      <trkpt lat="49.05518" lon="7.54647">
        <ele>314</ele>
        <time>2020-06-27T12:01:34Z</time>
      </trkpt>
      <trkpt lat="49.05521" lon="7.54662">
        <ele>313.3</ele>
        <time>2020-06-27T12:01:35Z</time>
      </trkpt>
      <trkpt lat="49.05523" lon="7.54676">
        <ele>312.7</ele>
        <time>2020-06-27T12:01:36Z</time>
      </trkpt>
      <trkpt lat="49.05525" lon="7.54691">
        <ele>312.1</ele>
        <time>2020-06-27T12:01:37Z</time>
      </trkpt>
      <trkpt lat="49.05528" lon="7.54705">
        <ele>311.5</ele>
        <time>2020-06-27T12:01:38Z</time>
      </trkpt>
      <trkpt lat="49.0553" lon="7.5472">
        <ele>311</ele>
        <time>2020-06-27T12:01:39Z</time>
      </trkpt>
      <trkpt lat="49.05533" lon="7.54735">
        <ele>310.5</ele>
        <time>2020-06-27T12:01:40Z</time>
      </trkpt>
      <trkpt lat="49.05536" lon="7.54749">
        <ele>310</ele>
        <time>2020-06-27T12:01:41Z</time>
      </trkpt>
      <trkpt lat="49.05538" lon="7.54764">
        <ele>309.4</ele>
        <time>2020-06-27T12:01:42Z</time>
      </trkpt>
      <trkpt lat="49.05539" lon="7.5478">
        <ele>308.7</ele>
        <time>2020-06-27T12:01:43Z</time>
      </trkpt>
      <trkpt lat="49.0554" lon="7.54795">
        <ele>308.2</ele>
        <time>2020-06-27T12:01:44Z</time>
      </trkpt>
      <trkpt lat="49.05541" lon="7.5481">
        <ele>307.5</ele>
        <time>2020-06-27T12:01:45Z</time>
      </trkpt>
      <trkpt lat="49.05541" lon="7.54825">
        <ele>306.9</ele>
        <time>2020-06-27T12:01:46Z</time>
      </trkpt>
      <trkpt lat="49.0554" lon="7.5484">
        <ele>306.2</ele>
        <time>2020-06-27T12:01:47Z</time>
      </trkpt>
      <trkpt lat="49.05539" lon="7.54856">
        <ele>305.5</ele>
        <time>2020-06-27T12:01:48Z</time>
      </trkpt>
      <trkpt lat="49.05537" lon="7.54871">
        <ele>304.9</ele>
        <time>2020-06-27T12:01:49Z</time>
      </trkpt>
      <trkpt lat="49.05535" lon="7.54886">
        <ele>304.4</ele>
        <time>2020-06-27T12:01:50Z</time>
      </trkpt>
      <trkpt lat="49.05533" lon="7.54901">
        <ele>303.9</ele>
        <time>2020-06-27T12:01:51Z</time>
      </trkpt>
      <trkpt lat="49.05529" lon="7.54915">
        <ele>303.4</ele>
        <time>2020-06-27T12:01:52Z</time>
      </trkpt>
      <trkpt lat="49.05526" lon="7.5493">
        <ele>302.9</ele>
        <time>2020-06-27T12:01:53Z</time>
      </trkpt>
      <trkpt lat="49.05522" lon="7.54944">
        <ele>302.3</ele>
        <time>2020-06-27T12:01:54Z</time>
      </trkpt>
      <trkpt lat="49.05519" lon="7.54958">
        <ele>301.8</ele>
        <time>2020-06-27T12:01:55Z</time>
      </trkpt>
      <trkpt lat="49.05517" lon="7.54973">
        <ele>301.1</ele>
        <time>2020-06-27T12:01:56Z</time>
      </trkpt>
      <trkpt lat="49.05514" lon="7.54988">
        <ele>300.6</ele>
        <time>2020-06-27T12:01:57Z</time>
      </trkpt>
      <trkpt lat="49.05511" lon="7.55003">
        <ele>300</ele>
        <time>2020-06-27T12:01:58Z</time>
      </trkpt>
      <trkpt lat="49.05509" lon="7.55018">
        <ele>299.6</ele>
        <time>2020-06-27T12:01:59Z</time>
      </trkpt>
      <trkpt lat="49.05507" lon="7.55033">
        <ele>299.2</ele>
        <time>2020-06-27T12:02:00Z</time>
      </trkpt>
      <trkpt lat="49.05505" lon="7.55048">
        <ele>298.7</ele>
        <time>2020-06-27T12:02:01Z</time>
      </trkpt>
      <trkpt lat="49.05503" lon="7.55063">
        <ele>298.2</ele>
        <time>2020-06-27T12:02:02Z</time>
      </trkpt>
      <trkpt lat="49.05502" lon="7.55079">
        <ele>297.6</ele>
        <time>2020-06-27T12:02:03Z</time>
      </trkpt>
      <trkpt lat="49.05502" lon="7.55094">
        <ele>297</ele>
        <time>2020-06-27T12:02:04Z</time>
      </trkpt>
      <trkpt lat="49.05501" lon="7.5511">
        <ele>296.3</ele>
        <time>2020-06-27T12:02:05Z</time>
      </trkpt>
      <trkpt lat="49.05501" lon="7.55125">
        <ele>295.7</ele>
        <time>2020-06-27T12:02:06Z</time>
      </trkpt>
      <trkpt lat="49.05502" lon="7.55141">
        <ele>295</ele>
        <time>2020-06-27T12:02:07Z</time>
      </trkpt>
      <trkpt lat="49.05503" lon="7.55158">
        <ele>294.4</ele>
        <time>2020-06-27T12:02:08Z</time>
      </trkpt>
      <trkpt lat="49.05503" lon="7.55174">
        <ele>293.7</ele>
        <time>2020-06-27T12:02:09Z</time>
      </trkpt>
      <trkpt lat="49.05504" lon="7.5519">
        <ele>293.1</ele>
        <time>2020-06-27T12:02:10Z</time>
      </trkpt>
      <trkpt lat="49.05505" lon="7.55207">
        <ele>292.6</ele>
        <time>2020-06-27T12:02:11Z</time>
      </trkpt>
      <trkpt lat="49.05505" lon="7.55223">
        <ele>292.1</ele>
        <time>2020-06-27T12:02:12Z</time>
      </trkpt>
      <trkpt lat="49.05506" lon="7.5524">
        <ele>291.6</ele>
        <time>2020-06-27T12:02:13Z</time>
      </trkpt>
      <trkpt lat="49.05506" lon="7.55256">
        <ele>291.1</ele>
        <time>2020-06-27T12:02:14Z</time>
      </trkpt>
      <trkpt lat="49.05507" lon="7.55272">
        <ele>290.5</ele>
        <time>2020-06-27T12:02:15Z</time>
      </trkpt>
      <trkpt lat="49.05508" lon="7.55288">
        <ele>289.9</ele>
        <time>2020-06-27T12:02:16Z</time>
      </trkpt>
      <trkpt lat="49.05509" lon="7.55304">
        <ele>289.3</ele>
        <time>2020-06-27T12:02:17Z</time>
      </trkpt>
      <trkpt lat="49.0551" lon="7.5532">
        <ele>288.7</ele>
        <time>2020-06-27T12:02:18Z</time>
      </trkpt>
      <trkpt lat="49.05511" lon="7.55336">
        <ele>288.1</ele>
        <time>2020-06-27T12:02:19Z</time>
      </trkpt>
      <trkpt lat="49.05512" lon="7.55352">
        <ele>287.4</ele>
        <time>2020-06-27T12:02:20Z</time>
      </trkpt>
      <trkpt lat="49.05512" lon="7.55369">
        <ele>286.8</ele>
        <time>2020-06-27T12:02:21Z</time>
      </trkpt>
      <trkpt lat="49.05512" lon="7.55385">
        <ele>286.2</ele>
        <time>2020-06-27T12:02:22Z</time>
      </trkpt>
      <trkpt lat="49.05512" lon="7.55402">
        <ele>285.7</ele>
        <time>2020-06-27T12:02:23Z</time>
      </trkpt>
      <trkpt lat="49.05512" lon="7.55419">
        <ele>285.4</ele>
        <time>2020-06-27T12:02:24Z</time>
      </trkpt>
      <trkpt lat="49.05511" lon="7.55435">
        <ele>285.2</ele>
        <time>2020-06-27T12:02:25Z</time>
      </trkpt>
      <trkpt lat="49.05511" lon="7.55451">
        <ele>285.2</ele>
        <time>2020-06-27T12:02:26Z</time>
      </trkpt>
      <trkpt lat="49.05512" lon="7.55467">
        <ele>285.3</ele>
        <time>2020-06-27T12:02:27Z</time>
      </trkpt>
      <trkpt lat="49.05513" lon="7.55483">
        <ele>285.4</ele>
        <time>2020-06-27T12:02:28Z</time>
      </trkpt>
      <trkpt lat="49.05514" lon="7.55497">
        <ele>285.7</ele>
        <time>2020-06-27T12:02:29Z</time>
      </trkpt>
      <trkpt lat="49.05514" lon="7.55512">
        <ele>285.9</ele>
        <time>2020-06-27T12:02:30Z</time>
      </trkpt>
      <trkpt lat="49.05515" lon="7.55525">
        <ele>286.2</ele>
        <time>2020-06-27T12:02:31Z</time>
      </trkpt>
      <trkpt lat="49.05519" lon="7.55536">
        <ele>286.5</ele>
        <time>2020-06-27T12:02:32Z</time>
      </trkpt>
      <trkpt lat="49.05522" lon="7.55547">
        <ele>286.8</ele>
        <time>2020-06-27T12:02:33Z</time>
      </trkpt>
      <trkpt lat="49.05525" lon="7.55557">
        <ele>287.1</ele>
        <time>2020-06-27T12:02:34Z</time>
      </trkpt>
      <trkpt lat="49.05529" lon="7.55566">
        <ele>287.5</ele>
        <time>2020-06-27T12:02:35Z</time>
      </trkpt>
      <trkpt lat="49.05534" lon="7.55574">
        <ele>287.9</ele>
        <time>2020-06-27T12:02:36Z</time>
      </trkpt>
      <trkpt lat="49.05538" lon="7.55582">
        <ele>288.3</ele>
        <time>2020-06-27T12:02:37Z</time>
      </trkpt>
      <trkpt lat="49.05543" lon="7.55589">
        <ele>288.8</ele>
        <time>2020-06-27T12:02:38Z</time>
      </trkpt>
      <trkpt lat="49.05547" lon="7.55595">
        <ele>289.2</ele>
        <time>2020-06-27T12:02:39Z</time>
      </trkpt>
      <trkpt lat="49.05552" lon="7.55601">
        <ele>289.7</ele>
        <time>2020-06-27T12:02:40Z</time>
      </trkpt>
      <trkpt lat="49.05556" lon="7.55607">
        <ele>290.2</ele>
        <time>2020-06-27T12:02:41Z</time>
      </trkpt>
      <trkpt lat="49.05561" lon="7.55613">
        <ele>290.6</ele>
        <time>2020-06-27T12:02:42Z</time>
      </trkpt>
      <trkpt lat="49.05564" lon="7.55618">
        <ele>291</ele>
        <time>2020-06-27T12:02:43Z</time>
      </trkpt>
      <trkpt lat="49.05569" lon="7.55623">
        <ele>291.5</ele>
        <time>2020-06-27T12:02:44Z</time>
      </trkpt>
      <trkpt lat="49.05574" lon="7.55626">
        <ele>291.8</ele>
        <time>2020-06-27T12:02:45Z</time>
      </trkpt>
      <trkpt lat="49.05579" lon="7.5563">
        <ele>292.2</ele>
        <time>2020-06-27T12:02:46Z</time>
      </trkpt>
      <trkpt lat="49.05583" lon="7.55633">
        <ele>292.5</ele>
        <time>2020-06-27T12:02:47Z</time>
      </trkpt>
      <trkpt lat="49.05588" lon="7.55636">
        <ele>292.9</ele>
        <time>2020-06-27T12:02:48Z</time>
      </trkpt>
      <trkpt lat="49.05594" lon="7.55638">
        <ele>293.2</ele>
        <time>2020-06-27T12:02:49Z</time>
      </trkpt>
      <trkpt lat="49.05599" lon="7.5564">
        <ele>293.5</ele>
        <time>2020-06-27T12:02:50Z</time>
      </trkpt>
      <trkpt lat="49.05604" lon="7.55641">
        <ele>293.9</ele>
        <time>2020-06-27T12:02:51Z</time>
      </trkpt>
      <trkpt lat="49.05609" lon="7.55643">
        <ele>294.2</ele>
        <time>2020-06-27T12:02:52Z</time>
      </trkpt>
      <trkpt lat="49.05613" lon="7.55646">
        <ele>294.5</ele>
        <time>2020-06-27T12:02:53Z</time>
      </trkpt>
      <trkpt lat="49.05618" lon="7.55648">
        <ele>294.8</ele>
        <time>2020-06-27T12:02:54Z</time>
      </trkpt>
      <trkpt lat="49.05622" lon="7.55651">
        <ele>295</ele>
        <time>2020-06-27T12:02:55Z</time>
      </trkpt>
      <trkpt lat="49.05627" lon="7.55652">
        <ele>295.4</ele>
        <time>2020-06-27T12:02:56Z</time>
      </trkpt>
      <trkpt lat="49.05632" lon="7.55656">
        <ele>295.7</ele>
        <time>2020-06-27T12:02:57Z</time>
      </trkpt>
      <trkpt lat="49.05637" lon="7.5566">
        <ele>296.1</ele>
        <time>2020-06-27T12:02:58Z</time>
      </trkpt>
      <trkpt lat="49.05642" lon="7.55663">
        <ele>296.4</ele>
        <time>2020-06-27T12:02:59Z</time>
      </trkpt>
      <trkpt lat="49.05647" lon="7.55666">
        <ele>296.7</ele>
        <time>2020-06-27T12:03:00Z</time>
      </trkpt>
      <trkpt lat="49.05653" lon="7.55667">
        <ele>297</ele>
        <time>2020-06-27T12:03:01Z</time>
      </trkpt>
      <trkpt lat="49.05658" lon="7.5567">
        <ele>297.4</ele>
        <time>2020-06-27T12:03:02Z</time>
      </trkpt>
      <trkpt lat="49.05664" lon="7.55673">
        <ele>297.7</ele>
        <time>2020-06-27T12:03:03Z</time>
      </trkpt>
      <trkpt lat="49.05667" lon="7.55676">
        <ele>297.9</ele>
        <time>2020-06-27T12:03:04Z</time>
      </trkpt>
      <trkpt lat="49.05671" lon="7.55679">
        <ele>298.2</ele>
        <time>2020-06-27T12:03:05Z</time>
      </trkpt>
      <trkpt lat="49.05676" lon="7.55681">
        <ele>298.4</ele>
        <time>2020-06-27T12:03:06Z</time>
      </trkpt>
      <trkpt lat="49.05679" lon="7.55682">
        <ele>298.6</ele>
        <time>2020-06-27T12:03:07Z</time>
      </trkpt>
      <trkpt lat="49.05684" lon="7.55684">
        <ele>298.9</ele>
        <time>2020-06-27T12:03:08Z</time>
      </trkpt>
      <trkpt lat="49.05686" lon="7.55685">
        <ele>299.1</ele>
        <time>2020-06-27T12:03:09Z</time>
      </trkpt>
      <trkpt lat="49.0569" lon="7.55686">
        <ele>299.3</ele>
        <time>2020-06-27T12:03:10Z</time>
      </trkpt>
      <trkpt lat="49.05691" lon="7.55687">
        <ele>299.4</ele>
        <time>2020-06-27T12:03:11Z</time>
      </trkpt>
      <trkpt lat="49.05695" lon="7.55688">
        <ele>299.5</ele>
        <time>2020-06-27T12:03:12Z</time>
      </trkpt>
      <trkpt lat="49.05699" lon="7.5569">
        <ele>299.8</ele>
        <time>2020-06-27T12:03:13Z</time>
      </trkpt>
      <trkpt lat="49.05703" lon="7.55694">
        <ele>300</ele>
        <time>2020-06-27T12:03:14Z</time>
      </trkpt>
      <trkpt lat="49.05706" lon="7.55696">
        <ele>300.2</ele>
        <time>2020-06-27T12:03:15Z</time>
      </trkpt>
      <trkpt lat="49.0571" lon="7.55698">
        <ele>300.4</ele>
        <time>2020-06-27T12:03:16Z</time>
      </trkpt>
      <trkpt lat="49.05713" lon="7.557">
        <ele>300.6</ele>
        <time>2020-06-27T12:03:17Z</time>
      </trkpt>
      <trkpt lat="49.05717" lon="7.55702">
        <ele>300.7</ele>
        <time>2020-06-27T12:03:18Z</time>
      </trkpt>
      <trkpt lat="49.0572" lon="7.55705">
        <ele>300.8</ele>
        <time>2020-06-27T12:03:19Z</time>
      </trkpt>
      <trkpt lat="49.05723" lon="7.55707">
        <ele>300.9</ele>
        <time>2020-06-27T12:03:20Z</time>
      </trkpt>
      <trkpt lat="49.05728" lon="7.55709">
        <ele>301.1</ele>
        <time>2020-06-27T12:03:21Z</time>
      </trkpt>
      <trkpt lat="49.05731" lon="7.5571">
        <ele>301.2</ele>
        <time>2020-06-27T12:03:22Z</time>
      </trkpt>
      <trkpt lat="49.05736" lon="7.55712">
        <ele>301.3</ele>
        <time>2020-06-27T12:03:23Z</time>
      </trkpt>
      <trkpt lat="49.0574" lon="7.55713">
        <ele>301.4</ele>
        <time>2020-06-27T12:03:24Z</time>
      </trkpt>
      <trkpt lat="49.05745" lon="7.55715">
        <ele>301.4</ele>
        <time>2020-06-27T12:03:25Z</time>
      </trkpt>
      <trkpt lat="49.05749" lon="7.55719">
        <ele>301.4</ele>
        <time>2020-06-27T12:03:26Z</time>
      </trkpt>
      <trkpt lat="49.05753" lon="7.55721">
        <ele>301.3</ele>
        <time>2020-06-27T12:03:27Z</time>
      </trkpt>
      <trkpt lat="49.05758" lon="7.55723">
        <ele>301.3</ele>
        <time>2020-06-27T12:03:28Z</time>
      </trkpt>
      <trkpt lat="49.05762" lon="7.55726">
        <ele>301.2</ele>
        <time>2020-06-27T12:03:29Z</time>
      </trkpt>
      <trkpt lat="49.05766" lon="7.55728">
        <ele>301.1</ele>
        <time>2020-06-27T12:03:30Z</time>
      </trkpt>
      <trkpt lat="49.05768" lon="7.55729">
        <ele>301.1</ele>
        <time>2020-06-27T12:03:31Z</time>
      </trkpt>
      <trkpt lat="49.05773" lon="7.5573">
        <ele>300.9</ele>
        <time>2020-06-27T12:03:32Z</time>
      </trkpt>
      <trkpt lat="49.05779" lon="7.55733">
        <ele>300.8</ele>
        <time>2020-06-27T12:03:33Z</time>
      </trkpt>
      <trkpt lat="49.05784" lon="7.55736">
        <ele>300.5</ele>
        <time>2020-06-27T12:03:34Z</time>
      </trkpt>
      <trkpt lat="49.0579" lon="7.55738">
        <ele>300.3</ele>
        <time>2020-06-27T12:03:35Z</time>
      </trkpt>
      <trkpt lat="49.05796" lon="7.55739">
        <ele>300</ele>
        <time>2020-06-27T12:03:36Z</time>
      </trkpt>
      <trkpt lat="49.05801" lon="7.55742">
        <ele>299.7</ele>
        <time>2020-06-27T12:03:37Z</time>
      </trkpt>
      <trkpt lat="49.05807" lon="7.55743">
        <ele>299.4</ele>
        <time>2020-06-27T12:03:38Z</time>
      </trkpt>
      <trkpt lat="49.05813" lon="7.55745">
        <ele>299.1</ele>
        <time>2020-06-27T12:03:39Z</time>
      </trkpt>
      <trkpt lat="49.0582" lon="7.55744">
        <ele>298.7</ele>
        <time>2020-06-27T12:03:40Z</time>
      </trkpt>
      <trkpt lat="49.05828" lon="7.55743">
        <ele>298.3</ele>
        <time>2020-06-27T12:03:41Z</time>
      </trkpt>
      <trkpt lat="49.05836" lon="7.55742">
        <ele>297.9</ele>
        <time>2020-06-27T12:03:42Z</time>
      </trkpt>
      <trkpt lat="49.05845" lon="7.55741">
        <ele>297.4</ele>
        <time>2020-06-27T12:03:43Z</time>
      </trkpt>
      <trkpt lat="49.05854" lon="7.55742">
        <ele>296.9</ele>
        <time>2020-06-27T12:03:44Z</time>
      </trkpt>
      <trkpt lat="49.05862" lon="7.55743">
        <ele>296.4</ele>
        <time>2020-06-27T12:03:45Z</time>
      </trkpt>
      <trkpt lat="49.05871" lon="7.55742">
        <ele>295.9</ele>
        <time>2020-06-27T12:03:46Z</time>
      </trkpt>
      <trkpt lat="49.05879" lon="7.55743">
        <ele>295.3</ele>
        <time>2020-06-27T12:03:47Z</time>
      </trkpt>
      <trkpt lat="49.05888" lon="7.55744">
        <ele>294.8</ele>
        <time>2020-06-27T12:03:48Z</time>
      </trkpt>
      <trkpt lat="49.05898" lon="7.55748">
        <ele>294.2</ele>
        <time>2020-06-27T12:03:49Z</time>
      </trkpt>
      <trkpt lat="49.05906" lon="7.55752">
        <ele>293.7</ele>
        <time>2020-06-27T12:03:50Z</time>
      </trkpt>
      <trkpt lat="49.05915" lon="7.55756">
        <ele>293.1</ele>
        <time>2020-06-27T12:03:51Z</time>
      </trkpt>
      <trkpt lat="49.05923" lon="7.55762">
        <ele>292.5</ele>
        <time>2020-06-27T12:03:52Z</time>
      </trkpt>
      <trkpt lat="49.05931" lon="7.55767">
        <ele>292</ele>
        <time>2020-06-27T12:03:53Z</time>
      </trkpt>
      <trkpt lat="49.0594" lon="7.55776">
        <ele>291.4</ele>
        <time>2020-06-27T12:03:54Z</time>
      </trkpt>
      <trkpt lat="49.05948" lon="7.55786">
        <ele>290.8</ele>
        <time>2020-06-27T12:03:55Z</time>
      </trkpt>
      <trkpt lat="49.05955" lon="7.55797">
        <ele>290.1</ele>
        <time>2020-06-27T12:03:56Z</time>
      </trkpt>
      <trkpt lat="49.05962" lon="7.55808">
        <ele>289.5</ele>
        <time>2020-06-27T12:03:57Z</time>
      </trkpt>
      <trkpt lat="49.05969" lon="7.5582">
        <ele>288.9</ele>
        <time>2020-06-27T12:03:58Z</time>
      </trkpt>
      <trkpt lat="49.05974" lon="7.55833">
        <ele>288.4</ele>
        <time>2020-06-27T12:03:59Z</time>
      </trkpt>
      <trkpt lat="49.05979" lon="7.55846">
        <ele>287.9</ele>
        <time>2020-06-27T12:04:00Z</time>
      </trkpt>
      <trkpt lat="49.05984" lon="7.5586">
        <ele>287.4</ele>
        <time>2020-06-27T12:04:01Z</time>
      </trkpt>
      <trkpt lat="49.05989" lon="7.55874">
        <ele>286.9</ele>
        <time>2020-06-27T12:04:02Z</time>
      </trkpt>
      <trkpt lat="49.05994" lon="7.55888">
        <ele>286.4</ele>
        <time>2020-06-27T12:04:03Z</time>
      </trkpt>
      <trkpt lat="49.05998" lon="7.55903">
        <ele>285.8</ele>
        <time>2020-06-27T12:04:04Z</time>
      </trkpt>
      <trkpt lat="49.06002" lon="7.55918">
        <ele>285.1</ele>
        <time>2020-06-27T12:04:05Z</time>
      </trkpt>
      <trkpt lat="49.06006" lon="7.55933">
        <ele>284.5</ele>
        <time>2020-06-27T12:04:06Z</time>
      </trkpt>
      <trkpt lat="49.0601" lon="7.55948">
        <ele>283.9</ele>
        <time>2020-06-27T12:04:07Z</time>
      </trkpt>
      <trkpt lat="49.06014" lon="7.55963">
        <ele>283.4</ele>
        <time>2020-06-27T12:04:08Z</time>
      </trkpt>
      <trkpt lat="49.06018" lon="7.55978">
        <ele>282.8</ele>
        <time>2020-06-27T12:04:09Z</time>
      </trkpt>
      <trkpt lat="49.06023" lon="7.55992">
        <ele>282.2</ele>
        <time>2020-06-27T12:04:10Z</time>
      </trkpt>
      <trkpt lat="49.06028" lon="7.56006">
        <ele>281.6</ele>
        <time>2020-06-27T12:04:11Z</time>
      </trkpt>
      <trkpt lat="49.06034" lon="7.56019">
        <ele>281</ele>
        <time>2020-06-27T12:04:12Z</time>
      </trkpt>
      <trkpt lat="49.06041" lon="7.56031">
        <ele>280.3</ele>
        <time>2020-06-27T12:04:13Z</time>
      </trkpt>
      <trkpt lat="49.06048" lon="7.56043">
        <ele>279.7</ele>
        <time>2020-06-27T12:04:14Z</time>
      </trkpt>
      <trkpt lat="49.06056" lon="7.56053">
        <ele>279.1</ele>
        <time>2020-06-27T12:04:15Z</time>
      </trkpt>
      <trkpt lat="49.06065" lon="7.56062">
        <ele>278.5</ele>
        <time>2020-06-27T12:04:16Z</time>
      </trkpt>
      <trkpt lat="49.06074" lon="7.56069">
        <ele>278</ele>
        <time>2020-06-27T12:04:17Z</time>
      </trkpt>
      <trkpt lat="49.06085" lon="7.56074">
        <ele>277.4</ele>
        <time>2020-06-27T12:04:18Z</time>
      </trkpt>
      <trkpt lat="49.06096" lon="7.5608">
        <ele>276.7</ele>
        <time>2020-06-27T12:04:19Z</time>
      </trkpt>
      <trkpt lat="49.06106" lon="7.56084">
        <ele>276.1</ele>
        <time>2020-06-27T12:04:20Z</time>
      </trkpt>
      <trkpt lat="49.06117" lon="7.5609">
        <ele>275.5</ele>
        <time>2020-06-27T12:04:21Z</time>
      </trkpt>
      <trkpt lat="49.06127" lon="7.56094">
        <ele>275</ele>
        <time>2020-06-27T12:04:22Z</time>
      </trkpt>
      <trkpt lat="49.06138" lon="7.561">
        <ele>274.5</ele>
        <time>2020-06-27T12:04:23Z</time>
      </trkpt>
      <trkpt lat="49.06149" lon="7.56104">
        <ele>274.1</ele>
        <time>2020-06-27T12:04:24Z</time>
      </trkpt>
      <trkpt lat="49.06159" lon="7.5611">
        <ele>273.7</ele>
        <time>2020-06-27T12:04:25Z</time>
      </trkpt>
      <trkpt lat="49.06169" lon="7.56116">
        <ele>273.4</ele>
        <time>2020-06-27T12:04:26Z</time>
      </trkpt>
      <trkpt lat="49.06178" lon="7.56123">
        <ele>273</ele>
        <time>2020-06-27T12:04:27Z</time>
      </trkpt>
      <trkpt lat="49.06188" lon="7.56131">
        <ele>272.6</ele>
        <time>2020-06-27T12:04:28Z</time>
      </trkpt>
      <trkpt lat="49.06197" lon="7.56139">
        <ele>272.2</ele>
        <time>2020-06-27T12:04:29Z</time>
      </trkpt>
      <trkpt lat="49.06206" lon="7.56148">
        <ele>271.9</ele>
        <time>2020-06-27T12:04:30Z</time>
      </trkpt>
      <trkpt lat="49.06214" lon="7.56156">
        <ele>271.6</ele>
        <time>2020-06-27T12:04:31Z</time>
      </trkpt>
      <trkpt lat="49.06223" lon="7.56165">
        <ele>271.3</ele>
        <time>2020-06-27T12:04:32Z</time>
      </trkpt>
      <trkpt lat="49.06231" lon="7.56173">
        <ele>271.1</ele>
        <time>2020-06-27T12:04:33Z</time>
      </trkpt>
      <trkpt lat="49.06238" lon="7.56182">
        <ele>270.9</ele>
        <time>2020-06-27T12:04:34Z</time>
      </trkpt>
      <trkpt lat="49.06246" lon="7.56192">
        <ele>270.7</ele>
        <time>2020-06-27T12:04:35Z</time>
      </trkpt>
      <trkpt lat="49.06254" lon="7.562">
        <ele>270.5</ele>
        <time>2020-06-27T12:04:36Z</time>
      </trkpt>
      <trkpt lat="49.06262" lon="7.56209">
        <ele>270.3</ele>
        <time>2020-06-27T12:04:37Z</time>
      </trkpt>
      <trkpt lat="49.0627" lon="7.56217">
        <ele>270</ele>
        <time>2020-06-27T12:04:38Z</time>
      </trkpt>
      <trkpt lat="49.06277" lon="7.56227">
        <ele>269.8</ele>
        <time>2020-06-27T12:04:39Z</time>
      </trkpt>
      <trkpt lat="49.06284" lon="7.56236">
        <ele>269.5</ele>
        <time>2020-06-27T12:04:40Z</time>
      </trkpt>
      <trkpt lat="49.06291" lon="7.56246">
        <ele>269.3</ele>
        <time>2020-06-27T12:04:41Z</time>
      </trkpt>
      <trkpt lat="49.06297" lon="7.56257">
        <ele>269.2</ele>
        <time>2020-06-27T12:04:42Z</time>
      </trkpt>
      <trkpt lat="49.06302" lon="7.56268">
        <ele>269.1</ele>
        <time>2020-06-27T12:04:43Z</time>
      </trkpt>
      <trkpt lat="49.06308" lon="7.56279">
        <ele>269</ele>
        <time>2020-06-27T12:04:44Z</time>
      </trkpt>
      <trkpt lat="49.06313" lon="7.5629">
        <ele>268.9</ele>
        <time>2020-06-27T12:04:45Z</time>
      </trkpt>
      <trkpt lat="49.06317" lon="7.56301">
        <ele>268.9</ele>
        <time>2020-06-27T12:04:46Z</time>
      </trkpt>
      <trkpt lat="49.06321" lon="7.56312">
        <ele>268.9</ele>
        <time>2020-06-27T12:04:47Z</time>
      </trkpt>
      <trkpt lat="49.06326" lon="7.56323">
        <ele>268.9</ele>
        <time>2020-06-27T12:04:48Z</time>
      </trkpt>
      <trkpt lat="49.0633" lon="7.56334">
        <ele>268.9</ele>
        <time>2020-06-27T12:04:49Z</time>
      </trkpt>
      <trkpt lat="49.06333" lon="7.56344">
        <ele>268.9</ele>
        <time>2020-06-27T12:04:50Z</time>
      </trkpt>
      <trkpt lat="49.06338" lon="7.56354">
        <ele>268.8</ele>
        <time>2020-06-27T12:04:51Z</time>
      </trkpt>
      <trkpt lat="49.06342" lon="7.56365">
        <ele>268.8</ele>
        <time>2020-06-27T12:04:52Z</time>
      </trkpt>
      <trkpt lat="49.06346" lon="7.56376">
        <ele>268.9</ele>
        <time>2020-06-27T12:04:53Z</time>
      </trkpt>
      <trkpt lat="49.0635" lon="7.56387">
        <ele>268.9</ele>
        <time>2020-06-27T12:04:54Z</time>
      </trkpt>
      <trkpt lat="49.06354" lon="7.56398">
        <ele>268.9</ele>
        <time>2020-06-27T12:04:55Z</time>
      </trkpt>
      <trkpt lat="49.06358" lon="7.56409">
        <ele>269</ele>
        <time>2020-06-27T12:04:56Z</time>
      </trkpt>
      <trkpt lat="49.0636" lon="7.5642">
        <ele>268.9</ele>
        <time>2020-06-27T12:04:57Z</time>
      </trkpt>
      <trkpt lat="49.06364" lon="7.56431">
        <ele>268.8</ele>
        <time>2020-06-27T12:04:58Z</time>
      </trkpt>
      <trkpt lat="49.06367" lon="7.56441">
        <ele>268.7</ele>
        <time>2020-06-27T12:04:59Z</time>
      </trkpt>
      <trkpt lat="49.06371" lon="7.56452">
        <ele>268.6</ele>
        <time>2020-06-27T12:05:00Z</time>
      </trkpt>
      <trkpt lat="49.06374" lon="7.56462">
        <ele>268.5</ele>
        <time>2020-06-27T12:05:01Z</time>
      </trkpt>
      <trkpt lat="49.06377" lon="7.56472">
        <ele>268.4</ele>
        <time>2020-06-27T12:05:02Z</time>
      </trkpt>
      <trkpt lat="49.06379" lon="7.56482">
        <ele>268.4</ele>
        <time>2020-06-27T12:05:03Z</time>
      </trkpt>
      <trkpt lat="49.06381" lon="7.56493">
        <ele>268.3</ele>
        <time>2020-06-27T12:05:04Z</time>
      </trkpt>
      <trkpt lat="49.06383" lon="7.56503">
        <ele>268.2</ele>
        <time>2020-06-27T12:05:05Z</time>
      </trkpt>
      <trkpt lat="49.06385" lon="7.56514">
        <ele>268</ele>
        <time>2020-06-27T12:05:06Z</time>
      </trkpt>
      <trkpt lat="49.06387" lon="7.56525">
        <ele>267.8</ele>
        <time>2020-06-27T12:05:07Z</time>
      </trkpt>
      <trkpt lat="49.06388" lon="7.56536">
        <ele>267.6</ele>
        <time>2020-06-27T12:05:08Z</time>
      </trkpt>
      <trkpt lat="49.06391" lon="7.56546">
        <ele>267.5</ele>
        <time>2020-06-27T12:05:09Z</time>
      </trkpt>
      <trkpt lat="49.06393" lon="7.56558">
        <ele>267.4</ele>
        <time>2020-06-27T12:05:10Z</time>
      </trkpt>
      <trkpt lat="49.06396" lon="7.56569">
        <ele>267.2</ele>
        <time>2020-06-27T12:05:11Z</time>
      </trkpt>
      <trkpt lat="49.06397" lon="7.56581">
        <ele>267</ele>
        <time>2020-06-27T12:05:12Z</time>
      </trkpt>
      <trkpt lat="49.064" lon="7.56592">
        <ele>266.8</ele>
        <time>2020-06-27T12:05:13Z</time>
      </trkpt>
      <trkpt lat="49.06401" lon="7.56604">
        <ele>266.6</ele>
        <time>2020-06-27T12:05:14Z</time>
      </trkpt>
      <trkpt lat="49.06403" lon="7.56616">
        <ele>266.1</ele>
        <time>2020-06-27T12:05:15Z</time>
      </trkpt>
      <trkpt lat="49.06405" lon="7.56628">
        <ele>265.6</ele>
        <time>2020-06-27T12:05:16Z</time>
      </trkpt>
      <trkpt lat="49.06407" lon="7.5664">
        <ele>265.3</ele>
        <time>2020-06-27T12:05:17Z</time>
      </trkpt>
      <trkpt lat="49.06409" lon="7.56653">
        <ele>265</ele>
        <time>2020-06-27T12:05:18Z</time>
      </trkpt>
      <trkpt lat="49.06411" lon="7.56665">
        <ele>264.8</ele>
        <time>2020-06-27T12:05:19Z</time>
      </trkpt>
      <trkpt lat="49.06413" lon="7.56678">
        <ele>264.6</ele>
        <time>2020-06-27T12:05:20Z</time>
      </trkpt>
      <trkpt lat="49.06415" lon="7.5669">
        <ele>264.4</ele>
        <time>2020-06-27T12:05:21Z</time>
      </trkpt>
      <trkpt lat="49.06417" lon="7.56702">
        <ele>264.3</ele>
        <time>2020-06-27T12:05:22Z</time>
      </trkpt>
      <trkpt lat="49.06419" lon="7.56715">
        <ele>264.1</ele>
        <time>2020-06-27T12:05:23Z</time>
      </trkpt>
      <trkpt lat="49.06421" lon="7.56727">
        <ele>264</ele>
        <time>2020-06-27T12:05:24Z</time>
      </trkpt>
      <trkpt lat="49.06424" lon="7.56739">
        <ele>263.9</ele>
        <time>2020-06-27T12:05:25Z</time>
      </trkpt>
      <trkpt lat="49.06426" lon="7.56751">
        <ele>263.8</ele>
        <time>2020-06-27T12:05:26Z</time>
      </trkpt>
      <trkpt lat="49.06428" lon="7.56763">
        <ele>263.7</ele>
        <time>2020-06-27T12:05:27Z</time>
      </trkpt>
      <trkpt lat="49.06431" lon="7.56775">
        <ele>263.6</ele>
        <time>2020-06-27T12:05:28Z</time>
      </trkpt>
      <trkpt lat="49.06433" lon="7.56787">
        <ele>263.4</ele>
        <time>2020-06-27T12:05:29Z</time>
      </trkpt>
      <trkpt lat="49.06435" lon="7.56799">
        <ele>263.3</ele>
        <time>2020-06-27T12:05:30Z</time>
      </trkpt>
      <trkpt lat="49.06437" lon="7.56811">
        <ele>263.2</ele>
        <time>2020-06-27T12:05:31Z</time>
      </trkpt>
      <trkpt lat="49.06439" lon="7.56822">
        <ele>263</ele>
        <time>2020-06-27T12:05:32Z</time>
      </trkpt>
      <trkpt lat="49.06441" lon="7.56834">
        <ele>262.9</ele>
        <time>2020-06-27T12:05:33Z</time>
      </trkpt>
      <trkpt lat="49.06443" lon="7.56846">
        <ele>262.8</ele>
        <time>2020-06-27T12:05:34Z</time>
      </trkpt>
      <trkpt lat="49.06445" lon="7.56857">
        <ele>262.7</ele>
        <time>2020-06-27T12:05:35Z</time>
      </trkpt>
      <trkpt lat="49.06448" lon="7.56869">
        <ele>262.7</ele>
        <time>2020-06-27T12:05:36Z</time>
      </trkpt>
      <trkpt lat="49.06449" lon="7.5688">
        <ele>262.6</ele>
        <time>2020-06-27T12:05:37Z</time>
      </trkpt>
      <trkpt lat="49.06451" lon="7.56891">
        <ele>262.5</ele>
        <time>2020-06-27T12:05:38Z</time>
      </trkpt>
      <trkpt lat="49.06452" lon="7.56902">
        <ele>262.5</ele>
        <time>2020-06-27T12:05:39Z</time>
      </trkpt>
      <trkpt lat="49.06455" lon="7.56912">
        <ele>262.4</ele>
        <time>2020-06-27T12:05:40Z</time>
      </trkpt>
      <trkpt lat="49.06457" lon="7.56923">
        <ele>262.3</ele>
        <time>2020-06-27T12:05:41Z</time>
      </trkpt>
      <trkpt lat="49.06459" lon="7.56934">
        <ele>262.3</ele>
        <time>2020-06-27T12:05:42Z</time>
      </trkpt>
      <trkpt lat="49.0646" lon="7.56945">
        <ele>262.2</ele>
        <time>2020-06-27T12:05:43Z</time>
      </trkpt>
      <trkpt lat="49.06463" lon="7.56956">
        <ele>262.2</ele>
        <time>2020-06-27T12:05:44Z</time>
      </trkpt>
      <trkpt lat="49.06465" lon="7.56967">
        <ele>262.1</ele>
        <time>2020-06-27T12:05:45Z</time>
      </trkpt>
      <trkpt lat="49.06467" lon="7.56979">
        <ele>262</ele>
        <time>2020-06-27T12:05:46Z</time>
      </trkpt>
      <trkpt lat="49.06468" lon="7.5699">
        <ele>262</ele>
        <time>2020-06-27T12:05:47Z</time>
      </trkpt>
      <trkpt lat="49.0647" lon="7.57002">
        <ele>261.9</ele>
        <time>2020-06-27T12:05:48Z</time>
      </trkpt>
      <trkpt lat="49.06472" lon="7.57013">
        <ele>261.8</ele>
        <time>2020-06-27T12:05:49Z</time>
      </trkpt>
      <trkpt lat="49.06474" lon="7.57023">
        <ele>261.7</ele>
        <time>2020-06-27T12:05:50Z</time>
      </trkpt>
      <trkpt lat="49.06476" lon="7.57034">
        <ele>261.7</ele>
        <time>2020-06-27T12:05:51Z</time>
      </trkpt>
      <trkpt lat="49.06478" lon="7.57045">
        <ele>261.6</ele>
        <time>2020-06-27T12:05:52Z</time>
      </trkpt>
      <trkpt lat="49.0648" lon="7.57055">
        <ele>261.5</ele>
        <time>2020-06-27T12:05:53Z</time>
      </trkpt>
      <trkpt lat="49.06481" lon="7.57067">
        <ele>261.4</ele>
        <time>2020-06-27T12:05:54Z</time>
      </trkpt>
      <trkpt lat="49.06482" lon="7.57078">
        <ele>261.2</ele>
        <time>2020-06-27T12:05:55Z</time>
      </trkpt>
      <trkpt lat="49.06482" lon="7.57089">
        <ele>261.1</ele>
        <time>2020-06-27T12:05:56Z</time>
      </trkpt>
      <trkpt lat="49.06481" lon="7.571">
        <ele>261</ele>
        <time>2020-06-27T12:05:57Z</time>
      </trkpt>
      <trkpt lat="49.06479" lon="7.57111">
        <ele>260.8</ele>
        <time>2020-06-27T12:05:58Z</time>
      </trkpt>
      <trkpt lat="49.06478" lon="7.57121">
        <ele>260.8</ele>
        <time>2020-06-27T12:05:59Z</time>
      </trkpt>
      <trkpt lat="49.06475" lon="7.5713">
        <ele>260.7</ele>
        <time>2020-06-27T12:06:00Z</time>
      </trkpt>
      <trkpt lat="49.06471" lon="7.57139">
        <ele>260.6</ele>
        <time>2020-06-27T12:06:01Z</time>
      </trkpt>
      <trkpt lat="49.06467" lon="7.57147">
        <ele>260.4</ele>
        <time>2020-06-27T12:06:02Z</time>
      </trkpt>
      <trkpt lat="49.06463" lon="7.57155">
        <ele>260.1</ele>
        <time>2020-06-27T12:06:03Z</time>
      </trkpt>
      <trkpt lat="49.06458" lon="7.57162">
        <ele>259.9</ele>
        <time>2020-06-27T12:06:04Z</time>
      </trkpt>
      <trkpt lat="49.06452" lon="7.57167">
        <ele>259.8</ele>
        <time>2020-06-27T12:06:05Z</time>
      </trkpt>
      <trkpt lat="49.06446" lon="7.57172">
        <ele>259.8</ele>
        <time>2020-06-27T12:06:06Z</time>
      </trkpt>
      <trkpt lat="49.0644" lon="7.57176">
        <ele>259.7</ele>
        <time>2020-06-27T12:06:07Z</time>
      </trkpt>
      <trkpt lat="49.06434" lon="7.57178">
        <ele>259.7</ele>
        <time>2020-06-27T12:06:08Z</time>
      </trkpt>
      <trkpt lat="49.06428" lon="7.5718">
        <ele>259.6</ele>
        <time>2020-06-27T12:06:09Z</time>
      </trkpt>
      <trkpt lat="49.06422" lon="7.57183">
        <ele>259.6</ele>
        <time>2020-06-27T12:06:10Z</time>
      </trkpt>
      <trkpt lat="49.0596" lon="7.62525">
        <ele>272.3</ele>
        <time>2020-06-27T14:21:14Z</time>
      </trkpt>
      <trkpt lat="49.05961" lon="7.62526">
        <ele>272.3</ele>
        <time>2020-06-27T14:21:30Z</time>
      </trkpt>
      <trkpt lat="49.05961" lon="7.62527">
        <ele>272.3</ele>
        <time>2020-06-27T14:21:33Z</time>
      </trkpt>
      <trkpt lat="49.05962" lon="7.62527">
        <ele>272.3</ele>
        <time>2020-06-27T14:21:34Z</time>
      </trkpt>
      <trkpt lat="49.05962" lon="7.62528">
        <ele>272.3</ele>
        <time>2020-06-27T14:21:35Z</time>
      </trkpt>
      <trkpt lat="49.05963" lon="7.62529">
        <ele>272.3</ele>
        <time>2020-06-27T14:21:36Z</time>
      </trkpt>
      <trkpt lat="49.05963" lon="7.62529">
        <ele>272.3</ele>
        <time>2020-06-27T14:21:37Z</time>
      </trkpt>
      <trkpt lat="49.05964" lon="7.6253">
        <ele>272.3</ele>
        <time>2020-06-27T14:21:38Z</time>
      </trkpt>
      <trkpt lat="49.05964" lon="7.62531">
        <ele>272.2</ele>
        <time>2020-06-27T14:21:39Z</time>
      </trkpt>
      <trkpt lat="49.05965" lon="7.62531">
        <ele>272.2</ele>
        <time>2020-06-27T14:21:40Z</time>
      </trkpt>
      <trkpt lat="49.05965" lon="7.62532">
        <ele>272.2</ele>
        <time>2020-06-27T14:23:11Z</time>
      </trkpt>
      <trkpt lat="49.05966" lon="7.62533">
        <ele>272.2</ele>
        <time>2020-06-27T14:23:12Z</time>
      </trkpt>
      <trkpt lat="49.05966" lon="7.62533">
        <ele>272.2</ele>
        <time>2020-06-27T14:23:13Z</time>
      </trkpt>
      <trkpt lat="49.05967" lon="7.62534">
        <ele>272.2</ele>
        <time>2020-06-27T14:23:14Z</time>
      </trkpt>
      <trkpt lat="49.05966" lon="7.62532">
        <ele>272.2</ele>
        <time>2020-06-27T14:23:15Z</time>
      </trkpt>
      <trkpt lat="49.05965" lon="7.62531">
        <ele>272.2</ele>
        <time>2020-06-27T14:23:16Z</time>
      </trkpt>
      <trkpt lat="49.05963" lon="7.62529">
        <ele>272.1</ele>
        <time>2020-06-27T14:23:17Z</time>
      </trkpt>
      <trkpt lat="49.05963" lon="7.62527">
        <ele>272.1</ele>
        <time>2020-06-27T14:23:18Z</time>
      </trkpt>
      <trkpt lat="49.05962" lon="7.62526">
        <ele>272.1</ele>
        <time>2020-06-27T14:23:19Z</time>
      </trkpt>
      <trkpt lat="49.05962" lon="7.62525">
        <ele>272.1</ele>
        <time>2020-06-27T14:23:20Z</time>
      </trkpt>
      <trkpt lat="49.05962" lon="7.62523">
        <ele>272.1</ele>
        <time>2020-06-27T14:23:21Z</time>
      </trkpt>
      <trkpt lat="49.05961" lon="7.62522">
        <ele>272</ele>
        <time>2020-06-27T14:23:22Z</time>
      </trkpt>
      <trkpt lat="49.0596" lon="7.62518">
        <ele>272</ele>
        <time>2020-06-27T14:23:23Z</time>
      </trkpt>
      <trkpt lat="49.05959" lon="7.62516">
        <ele>272</ele>
        <time>2020-06-27T14:23:24Z</time>
      </trkpt>
      <trkpt lat="49.05958" lon="7.62514">
        <ele>272</ele>
        <time>2020-06-27T14:23:25Z</time>
      </trkpt>
      <trkpt lat="49.05957" lon="7.62512">
        <ele>271.9</ele>
        <time>2020-06-27T14:23:26Z</time>
      </trkpt>
      <trkpt lat="49.05956" lon="7.6251">
        <ele>271.9</ele>
        <time>2020-06-27T14:23:27Z</time>
      </trkpt>
      <trkpt lat="49.05955" lon="7.62508">
        <ele>271.9</ele>
        <time>2020-06-27T14:23:28Z</time>
      </trkpt>
      <trkpt lat="49.05953" lon="7.62504">
        <ele>271.8</ele>
        <time>2020-06-27T14:23:29Z</time>
      </trkpt>
      <trkpt lat="49.05953" lon="7.62503">
        <ele>271.8</ele>
        <time>2020-06-27T14:23:30Z</time>
      </trkpt>
      <trkpt lat="49.0595" lon="7.62498">
        <ele>271.7</ele>
        <time>2020-06-27T14:23:31Z</time>
      </trkpt>
      <trkpt lat="49.05949" lon="7.62496">
        <ele>271.7</ele>
        <time>2020-06-27T14:23:32Z</time>
      </trkpt>
      <trkpt lat="49.05948" lon="7.62491">
        <ele>271.6</ele>
        <time>2020-06-27T14:23:33Z</time>
      </trkpt>
      <trkpt lat="49.05945" lon="7.62486">
        <ele>271.4</ele>
        <time>2020-06-27T14:23:34Z</time>
      </trkpt>
      <trkpt lat="49.05942" lon="7.62482">
        <ele>271.3</ele>
        <time>2020-06-27T14:23:35Z</time>
      </trkpt>
      <trkpt lat="49.05939" lon="7.62477">
        <ele>271.1</ele>
        <time>2020-06-27T14:23:36Z</time>
      </trkpt>
      <trkpt lat="49.05935" lon="7.62472">
        <ele>270.9</ele>
        <time>2020-06-27T14:23:37Z</time>
      </trkpt>
      <trkpt lat="49.05931" lon="7.62467">
        <ele>270.8</ele>
        <time>2020-06-27T14:23:38Z</time>
      </trkpt>
      <trkpt lat="49.05926" lon="7.62462">
        <ele>270.6</ele>
        <time>2020-06-27T14:23:39Z</time>
      </trkpt>
      <trkpt lat="49.05923" lon="7.62457">
        <ele>270.5</ele>
        <time>2020-06-27T14:23:40Z</time>
      </trkpt>
      <trkpt lat="49.05919" lon="7.62452">
        <ele>270.3</ele>
        <time>2020-06-27T14:23:41Z</time>
      </trkpt>
      <trkpt lat="49.05915" lon="7.62447">
        <ele>270.2</ele>
        <time>2020-06-27T14:23:42Z</time>
      </trkpt>
      <trkpt lat="49.05911" lon="7.62443">
        <ele>270</ele>
        <time>2020-06-27T14:23:43Z</time>
      </trkpt>
      <trkpt lat="49.05907" lon="7.62439">
        <ele>269.9</ele>
        <time>2020-06-27T14:23:44Z</time>
      </trkpt>
      <trkpt lat="49.05904" lon="7.62435">
        <ele>269.8</ele>
        <time>2020-06-27T14:23:45Z</time>
      </trkpt>
      <trkpt lat="49.05901" lon="7.6243">
        <ele>269.7</ele>
        <time>2020-06-27T14:23:46Z</time>
      </trkpt>
      <trkpt lat="49.05897" lon="7.62426">
        <ele>269.6</ele>
        <time>2020-06-27T14:23:47Z</time>
      </trkpt>
      <trkpt lat="49.05894" lon="7.62421">
        <ele>269.4</ele>
        <time>2020-06-27T14:23:48Z</time>
      </trkpt>
      <trkpt lat="49.05891" lon="7.62416">
        <ele>269.4</ele>
        <time>2020-06-27T14:23:49Z</time>
      </trkpt>
      <trkpt lat="49.05888" lon="7.6241">
        <ele>269.3</ele>
        <time>2020-06-27T14:23:50Z</time>
      </trkpt>
      <trkpt lat="49.05885" lon="7.62405">
        <ele>269.2</ele>
        <time>2020-06-27T14:23:51Z</time>
      </trkpt>
      <trkpt lat="49.05882" lon="7.62401">
        <ele>269.1</ele>
        <time>2020-06-27T14:23:52Z</time>
      </trkpt>
      <trkpt lat="49.05879" lon="7.62395">
        <ele>269</ele>
        <time>2020-06-27T14:23:53Z</time>
      </trkpt>
      <trkpt lat="49.05876" lon="7.62391">
        <ele>268.9</ele>
        <time>2020-06-27T14:23:54Z</time>
      </trkpt>
      <trkpt lat="49.05873" lon="7.62387">
        <ele>268.8</ele>
        <time>2020-06-27T14:23:55Z</time>
      </trkpt>
      <trkpt lat="49.0587" lon="7.62382">
        <ele>268.6</ele>
        <time>2020-06-27T14:23:56Z</time>
      </trkpt>
      <trkpt lat="49.05867" lon="7.62377">
        <ele>268.5</ele>
        <time>2020-06-27T14:23:57Z</time>
      </trkpt>
      <trkpt lat="49.05864" lon="7.62372">
        <ele>268.4</ele>
        <time>2020-06-27T14:23:58Z</time>
      </trkpt>
      <trkpt lat="49.05861" lon="7.62368">
        <ele>268.3</ele>
        <time>2020-06-27T14:23:59Z</time>
      </trkpt>
      <trkpt lat="49.05858" lon="7.62361">
        <ele>268.2</ele>
        <time>2020-06-27T14:24:00Z</time>
      </trkpt>
      <trkpt lat="49.05855" lon="7.62356">
        <ele>268</ele>
        <time>2020-06-27T14:24:01Z</time>
      </trkpt>
      <trkpt lat="49.05851" lon="7.62351">
        <ele>267.9</ele>
        <time>2020-06-27T14:24:02Z</time>
      </trkpt>
      <trkpt lat="49.05847" lon="7.62346">
        <ele>267.8</ele>
        <time>2020-06-27T14:24:03Z</time>
      </trkpt>
      <trkpt lat="49.05844" lon="7.6234">
        <ele>267.8</ele>
        <time>2020-06-27T14:24:04Z</time>
      </trkpt>
      <trkpt lat="49.05841" lon="7.62335">
        <ele>267.7</ele>
        <time>2020-06-27T14:24:05Z</time>
      </trkpt>
      <trkpt lat="49.05838" lon="7.62331">
        <ele>267.6</ele>
        <time>2020-06-27T14:24:06Z</time>
      </trkpt>
      <trkpt lat="49.05835" lon="7.62327">
        <ele>267.6</ele>
        <time>2020-06-27T14:24:07Z</time>
      </trkpt>
      <trkpt lat="49.05832" lon="7.62321">
        <ele>267.5</ele>
        <time>2020-06-27T14:24:08Z</time>
      </trkpt>
      <trkpt lat="49.0583" lon="7.62316">
        <ele>267.5</ele>
        <time>2020-06-27T14:24:09Z</time>
      </trkpt>
      <trkpt lat="49.05828" lon="7.62311">
        <ele>267.4</ele>
        <time>2020-06-27T14:24:10Z</time>
      </trkpt>
      <trkpt lat="49.05825" lon="7.62306">
        <ele>267.4</ele>
        <time>2020-06-27T14:24:11Z</time>
      </trkpt>
      <trkpt lat="49.05821" lon="7.62302">
        <ele>267.3</ele>
        <time>2020-06-27T14:24:12Z</time>
      </trkpt>
      <trkpt lat="49.05818" lon="7.62296">
        <ele>267.3</ele>
        <time>2020-06-27T14:24:13Z</time>
      </trkpt>
      <trkpt lat="49.05814" lon="7.6229">
        <ele>267.2</ele>
        <time>2020-06-27T14:24:14Z</time>
      </trkpt>
      <trkpt lat="49.05811" lon="7.62285">
        <ele>267.2</ele>
        <time>2020-06-27T14:24:15Z</time>
      </trkpt>
      <trkpt lat="49.05808" lon="7.6228">
        <ele>267.1</ele>
        <time>2020-06-27T14:24:16Z</time>
      </trkpt>
      <trkpt lat="49.05806" lon="7.62276">
        <ele>267.1</ele>
        <time>2020-06-27T14:24:17Z</time>
      </trkpt>
      <trkpt lat="49.05804" lon="7.62271">
        <ele>267.1</ele>
        <time>2020-06-27T14:24:18Z</time>
      </trkpt>
      <trkpt lat="49.05802" lon="7.62267">
        <ele>267</ele>
        <time>2020-06-27T14:24:19Z</time>
      </trkpt>
      <trkpt lat="49.05799" lon="7.62264">
        <ele>267</ele>
        <time>2020-06-27T14:24:20Z</time>
      </trkpt>
      <trkpt lat="49.05797" lon="7.6226">
        <ele>267</ele>
        <time>2020-06-27T14:24:21Z</time>
      </trkpt>
      <trkpt lat="49.05795" lon="7.62256">
        <ele>266.9</ele>
        <time>2020-06-27T14:24:22Z</time>
      </trkpt>
      <trkpt lat="49.05793" lon="7.62252">
        <ele>266.9</ele>
        <time>2020-06-27T14:24:23Z</time>
      </trkpt>
      <trkpt lat="49.05791" lon="7.62248">
        <ele>266.9</ele>
        <time>2020-06-27T14:24:24Z</time>
      </trkpt>
      <trkpt lat="49.05788" lon="7.62246">
        <ele>266.8</ele>
        <time>2020-06-27T14:24:25Z</time>
      </trkpt>
      <trkpt lat="49.05786" lon="7.62243">
        <ele>266.8</ele>
        <time>2020-06-27T14:24:26Z</time>
      </trkpt>
      <trkpt lat="49.05784" lon="7.6224">
        <ele>266.7</ele>
        <time>2020-06-27T14:24:27Z</time>
      </trkpt>
      <trkpt lat="49.05781" lon="7.62238">
        <ele>266.7</ele>
        <time>2020-06-27T14:24:28Z</time>
      </trkpt>
      <trkpt lat="49.05779" lon="7.62234">
        <ele>266.7</ele>
        <time>2020-06-27T14:24:29Z</time>
      </trkpt>
      <trkpt lat="49.05778" lon="7.62233">
        <ele>266.6</ele>
        <time>2020-06-27T14:24:30Z</time>
      </trkpt>
      <trkpt lat="49.05777" lon="7.6223">
        <ele>266.6</ele>
        <time>2020-06-27T14:24:31Z</time>
      </trkpt>
      <trkpt lat="49.05774" lon="7.62227">
        <ele>266.5</ele>
        <time>2020-06-27T14:24:32Z</time>
      </trkpt>
      <trkpt lat="49.05772" lon="7.62224">
        <ele>266.5</ele>
        <time>2020-06-27T14:24:33Z</time>
      </trkpt>
      <trkpt lat="49.05769" lon="7.6222">
        <ele>266.4</ele>
        <time>2020-06-27T14:24:34Z</time>
      </trkpt>
      <trkpt lat="49.05768" lon="7.62219">
        <ele>266.4</ele>
        <time>2020-06-27T14:24:35Z</time>
      </trkpt>
      <trkpt lat="49.05766" lon="7.62216">
        <ele>266.3</ele>
        <time>2020-06-27T14:24:36Z</time>
      </trkpt>
      <trkpt lat="49.05764" lon="7.62213">
        <ele>266.3</ele>
        <time>2020-06-27T14:24:37Z</time>
      </trkpt>
      <trkpt lat="49.05761" lon="7.62209">
        <ele>266.2</ele>
        <time>2020-06-27T14:24:38Z</time>
      </trkpt>
      <trkpt lat="49.05759" lon="7.62206">
        <ele>266.2</ele>
        <time>2020-06-27T14:24:39Z</time>
      </trkpt>
      <trkpt lat="49.05756" lon="7.62203">
        <ele>266.1</ele>
        <time>2020-06-27T14:24:40Z</time>
      </trkpt>
      <trkpt lat="49.05755" lon="7.62201">
        <ele>266.1</ele>
        <time>2020-06-27T14:24:41Z</time>
      </trkpt>
      <trkpt lat="49.05753" lon="7.62198">
        <ele>266</ele>
        <time>2020-06-27T14:24:42Z</time>
      </trkpt>
      <trkpt lat="49.05749" lon="7.62195">
        <ele>265.9</ele>
        <time>2020-06-27T14:24:43Z</time>
      </trkpt>
      <trkpt lat="49.05746" lon="7.6219">
        <ele>265.8</ele>
        <time>2020-06-27T14:24:44Z</time>
      </trkpt>
      <trkpt lat="49.05741" lon="7.62182">
        <ele>265.5</ele>
        <time>2020-06-27T14:24:45Z</time>
      </trkpt>
      <trkpt lat="49.05736" lon="7.62173">
        <ele>265.3</ele>
        <time>2020-06-27T14:24:46Z</time>
      </trkpt>
      <trkpt lat="49.05731" lon="7.62165">
        <ele>265</ele>
        <time>2020-06-27T14:24:47Z</time>
      </trkpt>
      <trkpt lat="49.05726" lon="7.62157">
        <ele>264.6</ele>
        <time>2020-06-27T14:24:48Z</time>
      </trkpt>
      <trkpt lat="49.05721" lon="7.62148">
        <ele>264.2</ele>
        <time>2020-06-27T14:24:49Z</time>
      </trkpt>
      <trkpt lat="49.05716" lon="7.62138">
        <ele>263.8</ele>
        <time>2020-06-27T14:24:50Z</time>
      </trkpt>
      <trkpt lat="49.0571" lon="7.62127">
        <ele>263.3</ele>
        <time>2020-06-27T14:24:51Z</time>
      </trkpt>
      <trkpt lat="49.05704" lon="7.62116">
        <ele>262.8</ele>
        <time>2020-06-27T14:24:52Z</time>
      </trkpt>
      <trkpt lat="49.05697" lon="7.62107">
        <ele>262.3</ele>
        <time>2020-06-27T14:24:53Z</time>
      </trkpt>
      <trkpt lat="49.05691" lon="7.62097">
        <ele>261.7</ele>
        <time>2020-06-27T14:24:54Z</time>
      </trkpt>
      <trkpt lat="49.05685" lon="7.62088">
        <ele>261.2</ele>
        <time>2020-06-27T14:24:55Z</time>
      </trkpt>
      <trkpt lat="49.05678" lon="7.62078">
        <ele>260.7</ele>
        <time>2020-06-27T14:24:56Z</time>
      </trkpt>
      <trkpt lat="49.05673" lon="7.62068">
        <ele>260.3</ele>
        <time>2020-06-27T14:24:57Z</time>
      </trkpt>
      <trkpt lat="49.05667" lon="7.62057">
        <ele>259.8</ele>
        <time>2020-06-27T14:24:58Z</time>
      </trkpt>
      <trkpt lat="49.05661" lon="7.62046">
        <ele>259.4</ele>
        <time>2020-06-27T14:24:59Z</time>
      </trkpt>
      <trkpt lat="49.05656" lon="7.62036">
        <ele>259.1</ele>
        <time>2020-06-27T14:25:00Z</time>
      </trkpt>
      <trkpt lat="49.05648" lon="7.62024">
        <ele>258.8</ele>
        <time>2020-06-27T14:25:01Z</time>
      </trkpt>
      <trkpt lat="49.0564" lon="7.62012">
        <ele>258.5</ele>
        <time>2020-06-27T14:25:02Z</time>
      </trkpt>
      <trkpt lat="49.05633" lon="7.62003">
        <ele>258.2</ele>
        <time>2020-06-27T14:25:03Z</time>
      </trkpt>
      <trkpt lat="49.05628" lon="7.61993">
        <ele>258</ele>
        <time>2020-06-27T14:25:04Z</time>
      </trkpt>
      <trkpt lat="49.05621" lon="7.61984">
        <ele>257.7</ele>
        <time>2020-06-27T14:25:05Z</time>
      </trkpt>
      <trkpt lat="49.05618" lon="7.61977">
        <ele>257.5</ele>
        <time>2020-06-27T14:25:06Z</time>
      </trkpt>
      <trkpt lat="49.05614" lon="7.61973">
        <ele>257.4</ele>
        <time>2020-06-27T14:25:07Z</time>
      </trkpt>
      <trkpt lat="49.05605" lon="7.61964">
        <ele>257.2</ele>
        <time>2020-06-27T14:25:08Z</time>
      </trkpt>
      <trkpt lat="49.05598" lon="7.61957">
        <ele>257.1</ele>
        <time>2020-06-27T14:25:09Z</time>
      </trkpt>
      <trkpt lat="49.05592" lon="7.61953">
        <ele>257</ele>
        <time>2020-06-27T14:25:10Z</time>
      </trkpt>
      <trkpt lat="49.05589" lon="7.61951">
        <ele>257</ele>
        <time>2020-06-27T14:25:11Z</time>
      </trkpt>
      <trkpt lat="49.05587" lon="7.61948">
        <ele>256.9</ele>
        <time>2020-06-27T14:25:12Z</time>
      </trkpt>
      <trkpt lat="49.05586" lon="7.61948">
        <ele>256.9</ele>
        <time>2020-06-27T14:25:13Z</time>
      </trkpt>
      <trkpt lat="49.05586" lon="7.61947">
        <ele>256.9</ele>
        <time>2020-06-27T14:25:14Z</time>
      </trkpt>
      <trkpt lat="49.05586" lon="7.61946">
        <ele>256.9</ele>
        <time>2020-06-27T14:25:15Z</time>
      </trkpt>
      <trkpt lat="49.05585" lon="7.61946">
        <ele>256.9</ele>
        <time>2020-06-27T14:25:16Z</time>
      </trkpt>
      <trkpt lat="49.05584" lon="7.61946">
        <ele>256.9</ele>
        <time>2020-06-27T14:25:17Z</time>
      </trkpt>
      <trkpt lat="49.05583" lon="7.61945">
        <ele>256.9</ele>
        <time>2020-06-27T14:25:18Z</time>
      </trkpt>
      <trkpt lat="49.05581" lon="7.61944">
        <ele>256.7</ele>
        <time>2020-06-27T14:25:19Z</time>
      </trkpt>
      <trkpt lat="49.0558" lon="7.61944">
        <ele>256.7</ele>
        <time>2020-06-27T14:25:20Z</time>
      </trkpt>
      <trkpt lat="49.05578" lon="7.61943">
        <ele>256.5</ele>
        <time>2020-06-27T14:25:21Z</time>
      </trkpt>
      <trkpt lat="49.05577" lon="7.61942">
        <ele>256.5</ele>
        <time>2020-06-27T14:25:22Z</time>
      </trkpt>
      <trkpt lat="49.05576" lon="7.61942">
        <ele>256.4</ele>
        <time>2020-06-27T14:25:23Z</time>
      </trkpt>
      <trkpt lat="49.05575" lon="7.61941">
        <ele>256.3</ele>
        <time>2020-06-27T14:25:24Z</time>
      </trkpt>
      <trkpt lat="49.05573" lon="7.61946">
        <ele>256.4</ele>
        <time>2020-06-27T14:25:25Z</time>
      </trkpt>
      <trkpt lat="49.05573" lon="7.61947">
        <ele>256.3</ele>
        <time>2020-06-27T14:25:26Z</time>
      </trkpt>
      <trkpt lat="49.05572" lon="7.61952">
        <ele>256.2</ele>
        <time>2020-06-27T14:25:27Z</time>
      </trkpt>
      <trkpt lat="49.05572" lon="7.61958">
        <ele>256.3</ele>
        <time>2020-06-27T14:25:28Z</time>
      </trkpt>
      <trkpt lat="49.05572" lon="7.61964">
        <ele>256.3</ele>
        <time>2020-06-27T14:25:29Z</time>
      </trkpt>
      <trkpt lat="49.05571" lon="7.61969">
        <ele>256.3</ele>
        <time>2020-06-27T14:25:30Z</time>
      </trkpt>
      <trkpt lat="49.0557" lon="7.61974">
        <ele>256.3</ele>
        <time>2020-06-27T14:25:31Z</time>
      </trkpt>
      <trkpt lat="49.05569" lon="7.61979">
        <ele>256.3</ele>
        <time>2020-06-27T14:25:32Z</time>
      </trkpt>
      <trkpt lat="49.05567" lon="7.61984">
        <ele>256.3</ele>
        <time>2020-06-27T14:25:33Z</time>
      </trkpt>
      <trkpt lat="49.05565" lon="7.61986">
        <ele>256.4</ele>
        <time>2020-06-27T14:25:34Z</time>
      </trkpt>
      <trkpt lat="49.05565" lon="7.61992">
        <ele>256.4</ele>
        <time>2020-06-27T14:25:35Z</time>
      </trkpt>
      <trkpt lat="49.05564" lon="7.61997">
        <ele>256.4</ele>
        <time>2020-06-27T14:25:36Z</time>
      </trkpt>
      <trkpt lat="49.05562" lon="7.62002">
        <ele>256.4</ele>
        <time>2020-06-27T14:25:37Z</time>
      </trkpt>
      <trkpt lat="49.05562" lon="7.62004">
        <ele>256.4</ele>
        <time>2020-06-27T14:25:38Z</time>
      </trkpt>
      <trkpt lat="49.05562" lon="7.62012">
        <ele>256.5</ele>
        <time>2020-06-27T14:25:39Z</time>
      </trkpt>
      <trkpt lat="49.05562" lon="7.62019">
        <ele>256.5</ele>
        <time>2020-06-27T14:25:40Z</time>
      </trkpt>
      <trkpt lat="49.05562" lon="7.62026">
        <ele>256.5</ele>
        <time>2020-06-27T14:25:41Z</time>
      </trkpt>
      <trkpt lat="49.05561" lon="7.62032">
        <ele>256.5</ele>
        <time>2020-06-27T14:25:42Z</time>
      </trkpt>
      <trkpt lat="49.05561" lon="7.62038">
        <ele>256.5</ele>
        <time>2020-06-27T14:25:43Z</time>
      </trkpt>
      <trkpt lat="49.0556" lon="7.62046">
        <ele>256.5</ele>
        <time>2020-06-27T14:25:44Z</time>
      </trkpt>
      <trkpt lat="49.05559" lon="7.62055">
        <ele>256.5</ele>
        <time>2020-06-27T14:25:45Z</time>
      </trkpt>
      <trkpt lat="49.05557" lon="7.62064">
        <ele>256.5</ele>
        <time>2020-06-27T14:25:46Z</time>
      </trkpt>
      <trkpt lat="49.05557" lon="7.62073">
        <ele>256.5</ele>
        <time>2020-06-27T14:25:47Z</time>
      </trkpt>
      <trkpt lat="49.05556" lon="7.62082">
        <ele>256.5</ele>
        <time>2020-06-27T14:25:48Z</time>
      </trkpt>
      <trkpt lat="49.05555" lon="7.62091">
        <ele>256.5</ele>
        <time>2020-06-27T14:25:49Z</time>
      </trkpt>
      <trkpt lat="49.05553" lon="7.621">
        <ele>256.5</ele>
        <time>2020-06-27T14:25:50Z</time>
      </trkpt>
      <trkpt lat="49.05552" lon="7.62107">
        <ele>256.6</ele>
        <time>2020-06-27T14:25:51Z</time>
      </trkpt>
      <trkpt lat="49.05552" lon="7.62115">
        <ele>256.6</ele>
        <time>2020-06-27T14:25:52Z</time>
      </trkpt>
      <trkpt lat="49.05552" lon="7.62119">
        <ele>256.6</ele>
        <time>2020-06-27T14:25:53Z</time>
      </trkpt>
      <trkpt lat="49.05551" lon="7.62126">
        <ele>256.6</ele>
        <time>2020-06-27T14:25:54Z</time>
      </trkpt>
      <trkpt lat="49.05552" lon="7.62134">
        <ele>256.7</ele>
        <time>2020-06-27T14:25:55Z</time>
      </trkpt>
      <trkpt lat="49.05553" lon="7.62142">
        <ele>256.8</ele>
        <time>2020-06-27T14:25:56Z</time>
      </trkpt>
      <trkpt lat="49.05552" lon="7.62151">
        <ele>256.8</ele>
        <time>2020-06-27T14:25:57Z</time>
      </trkpt>
      <trkpt lat="49.05551" lon="7.6216">
        <ele>256.9</ele>
        <time>2020-06-27T14:25:58Z</time>
      </trkpt>
      <trkpt lat="49.0555" lon="7.62169">
        <ele>257</ele>
        <time>2020-06-27T14:25:59Z</time>
      </trkpt>
      <trkpt lat="49.05549" lon="7.62179">
        <ele>257.1</ele>
        <time>2020-06-27T14:26:00Z</time>
      </trkpt>
      <trkpt lat="49.05549" lon="7.62189">
        <ele>257.1</ele>
        <time>2020-06-27T14:26:01Z</time>
      </trkpt>
      <trkpt lat="49.05548" lon="7.62196">
        <ele>257.2</ele>
        <time>2020-06-27T14:26:02Z</time>
      </trkpt>
      <trkpt lat="49.05547" lon="7.62205">
        <ele>257.3</ele>
        <time>2020-06-27T14:26:03Z</time>
      </trkpt>
      <trkpt lat="49.05546" lon="7.62214">
        <ele>257.3</ele>
        <time>2020-06-27T14:26:04Z</time>
      </trkpt>
      <trkpt lat="49.05545" lon="7.62221">
        <ele>257.4</ele>
        <time>2020-06-27T14:26:05Z</time>
      </trkpt>
      <trkpt lat="49.05544" lon="7.62227">
        <ele>257.4</ele>
        <time>2020-06-27T14:26:06Z</time>
      </trkpt>
      <trkpt lat="49.05541" lon="7.62234">
        <ele>257.5</ele>
        <time>2020-06-27T14:26:07Z</time>
      </trkpt>
      <trkpt lat="49.0554" lon="7.62242">
        <ele>257.5</ele>
        <time>2020-06-27T14:26:08Z</time>
      </trkpt>
      <trkpt lat="49.05536" lon="7.6225">
        <ele>257.5</ele>
        <time>2020-06-27T14:26:09Z</time>
      </trkpt>
      <trkpt lat="49.05534" lon="7.62261">
        <ele>257.5</ele>
        <time>2020-06-27T14:26:10Z</time>
      </trkpt>
      <trkpt lat="49.0553" lon="7.6227">
        <ele>257.5</ele>
        <time>2020-06-27T14:26:11Z</time>
      </trkpt>
      <trkpt lat="49.05527" lon="7.6228">
        <ele>257.4</ele>
        <time>2020-06-27T14:26:12Z</time>
      </trkpt>
      <trkpt lat="49.05524" lon="7.62288">
        <ele>257.4</ele>
        <time>2020-06-27T14:26:13Z</time>
      </trkpt>
      <trkpt lat="49.05522" lon="7.62298">
        <ele>257.3</ele>
        <time>2020-06-27T14:26:14Z</time>
      </trkpt>
      <trkpt lat="49.05519" lon="7.62305">
        <ele>257.3</ele>
        <time>2020-06-27T14:26:15Z</time>
      </trkpt>
      <trkpt lat="49.05517" lon="7.62311">
        <ele>257.3</ele>
        <time>2020-06-27T14:26:16Z</time>
      </trkpt>
      <trkpt lat="49.05516" lon="7.62317">
        <ele>257.3</ele>
        <time>2020-06-27T14:26:17Z</time>
      </trkpt>
      <trkpt lat="49.05514" lon="7.62325">
        <ele>257.3</ele>
        <time>2020-06-27T14:26:18Z</time>
      </trkpt>
      <trkpt lat="49.0551" lon="7.62333">
        <ele>257.3</ele>
        <time>2020-06-27T14:26:19Z</time>
      </trkpt>
      <trkpt lat="49.05507" lon="7.6234">
        <ele>257.4</ele>
        <time>2020-06-27T14:26:20Z</time>
      </trkpt>
      <trkpt lat="49.05504" lon="7.62347">
        <ele>257.4</ele>
        <time>2020-06-27T14:26:21Z</time>
      </trkpt>
      <trkpt lat="49.05501" lon="7.62353">
        <ele>257.5</ele>
        <time>2020-06-27T14:26:22Z</time>
      </trkpt>
      <trkpt lat="49.05499" lon="7.62359">
        <ele>257.5</ele>
        <time>2020-06-27T14:26:23Z</time>
      </trkpt>
      <trkpt lat="49.05497" lon="7.62363">
        <ele>257.5</ele>
        <time>2020-06-27T14:26:24Z</time>
      </trkpt>
      <trkpt lat="49.05495" lon="7.62368">
        <ele>257.5</ele>
        <time>2020-06-27T14:26:25Z</time>
      </trkpt>
      <trkpt lat="49.05492" lon="7.62374">
        <ele>257.6</ele>
        <time>2020-06-27T14:26:26Z</time>
      </trkpt>
      <trkpt lat="49.0549" lon="7.62381">
        <ele>257.6</ele>
        <time>2020-06-27T14:26:27Z</time>
      </trkpt>
      <trkpt lat="49.05487" lon="7.62387">
        <ele>257.6</ele>
        <time>2020-06-27T14:26:28Z</time>
      </trkpt>
      <trkpt lat="49.05485" lon="7.62394">
        <ele>257.6</ele>
        <time>2020-06-27T14:26:29Z</time>
      </trkpt>
      <trkpt lat="49.05484" lon="7.624">
        <ele>257.7</ele>
        <time>2020-06-27T14:26:30Z</time>
      </trkpt>
      <trkpt lat="49.05482" lon="7.62407">
        <ele>257.7</ele>
        <time>2020-06-27T14:26:31Z</time>
      </trkpt>
      <trkpt lat="49.0548" lon="7.62415">
        <ele>257.8</ele>
        <time>2020-06-27T14:26:32Z</time>
      </trkpt>
      <trkpt lat="49.05478" lon="7.62421">
        <ele>257.8</ele>
        <time>2020-06-27T14:26:33Z</time>
      </trkpt>
      <trkpt lat="49.05477" lon="7.62428">
        <ele>257.8</ele>
        <time>2020-06-27T14:26:34Z</time>
      </trkpt>
      <trkpt lat="49.05474" lon="7.62433">
        <ele>257.9</ele>
        <time>2020-06-27T14:26:35Z</time>
      </trkpt>
      <trkpt lat="49.05473" lon="7.6244">
        <ele>257.9</ele>
        <time>2020-06-27T14:26:36Z</time>
      </trkpt>
      <trkpt lat="49.0547" lon="7.62446">
        <ele>257.9</ele>
        <time>2020-06-27T14:26:37Z</time>
      </trkpt>
      <trkpt lat="49.05467" lon="7.62451">
        <ele>258</ele>
        <time>2020-06-27T14:26:38Z</time>
      </trkpt>
      <trkpt lat="49.05465" lon="7.62456">
        <ele>258</ele>
        <time>2020-06-27T14:26:39Z</time>
      </trkpt>
      <trkpt lat="49.05463" lon="7.62462">
        <ele>258</ele>
        <time>2020-06-27T14:26:40Z</time>
      </trkpt>
      <trkpt lat="49.05461" lon="7.62469">
        <ele>258</ele>
        <time>2020-06-27T14:26:41Z</time>
      </trkpt>
      <trkpt lat="49.05458" lon="7.62475">
        <ele>258</ele>
        <time>2020-06-27T14:26:42Z</time>
      </trkpt>
      <trkpt lat="49.05457" lon="7.62483">
        <ele>258</ele>
        <time>2020-06-27T14:26:43Z</time>
      </trkpt>
      <trkpt lat="49.05455" lon="7.62489">
        <ele>258</ele>
        <time>2020-06-27T14:26:44Z</time>
      </trkpt>
      <trkpt lat="49.05452" lon="7.62495">
        <ele>258.1</ele>
        <time>2020-06-27T14:26:45Z</time>
      </trkpt>
      <trkpt lat="49.0545" lon="7.62499">
        <ele>258.1</ele>
        <time>2020-06-27T14:26:46Z</time>
      </trkpt>
      <trkpt lat="49.05448" lon="7.62506">
        <ele>258.1</ele>
        <time>2020-06-27T14:26:47Z</time>
      </trkpt>
      <trkpt lat="49.05447" lon="7.62512">
        <ele>258.2</ele>
        <time>2020-06-27T14:26:48Z</time>
      </trkpt>
      <trkpt lat="49.05445" lon="7.62519">
        <ele>258.2</ele>
        <time>2020-06-27T14:26:49Z</time>
      </trkpt>
      <trkpt lat="49.05443" lon="7.62527">
        <ele>258.3</ele>
        <time>2020-06-27T14:26:50Z</time>
      </trkpt>
      <trkpt lat="49.0544" lon="7.62534">
        <ele>258.3</ele>
        <time>2020-06-27T14:26:51Z</time>
      </trkpt>
      <trkpt lat="49.05438" lon="7.62541">
        <ele>258.4</ele>
        <time>2020-06-27T14:26:52Z</time>
      </trkpt>
      <trkpt lat="49.05435" lon="7.62548">
        <ele>258.4</ele>
        <time>2020-06-27T14:26:53Z</time>
      </trkpt>
      <trkpt lat="49.05432" lon="7.62553">
        <ele>258.5</ele>
        <time>2020-06-27T14:26:54Z</time>
      </trkpt>
      <trkpt lat="49.05429" lon="7.62559">
        <ele>258.5</ele>
        <time>2020-06-27T14:26:55Z</time>
      </trkpt>
      <trkpt lat="49.05426" lon="7.62567">
        <ele>258.6</ele>
        <time>2020-06-27T14:26:56Z</time>
      </trkpt>
      <trkpt lat="49.05423" lon="7.62572">
        <ele>258.6</ele>
        <time>2020-06-27T14:26:57Z</time>
      </trkpt>
      <trkpt lat="49.05422" lon="7.62578">
        <ele>258.7</ele>
        <time>2020-06-27T14:26:58Z</time>
      </trkpt>
      <trkpt lat="49.05419" lon="7.62586">
        <ele>258.8</ele>
        <time>2020-06-27T14:26:59Z</time>
      </trkpt>
      <trkpt lat="49.05417" lon="7.62596">
        <ele>258.9</ele>
        <time>2020-06-27T14:27:00Z</time>
      </trkpt>
      <trkpt lat="49.05415" lon="7.62604">
        <ele>259.1</ele>
        <time>2020-06-27T14:27:01Z</time>
      </trkpt>
      <trkpt lat="49.05414" lon="7.62611">
        <ele>259.1</ele>
        <time>2020-06-27T14:27:02Z</time>
      </trkpt>
      <trkpt lat="49.05411" lon="7.62619">
        <ele>259.2</ele>
        <time>2020-06-27T14:27:03Z</time>
      </trkpt>
      <trkpt lat="49.0541" lon="7.62626">
        <ele>259.2</ele>
        <time>2020-06-27T14:27:04Z</time>
      </trkpt>
      <trkpt lat="49.05407" lon="7.62633">
        <ele>259.3</ele>
        <time>2020-06-27T14:27:05Z</time>
      </trkpt>
      <trkpt lat="49.05405" lon="7.6264">
        <ele>259.3</ele>
        <time>2020-06-27T14:27:06Z</time>
      </trkpt>
      <trkpt lat="49.05402" lon="7.62647">
        <ele>259.3</ele>
        <time>2020-06-27T14:27:07Z</time>
      </trkpt>
      <trkpt lat="49.054" lon="7.62653">
        <ele>259.4</ele>
        <time>2020-06-27T14:27:08Z</time>
      </trkpt>
      <trkpt lat="49.05396" lon="7.62659">
        <ele>259.5</ele>
        <time>2020-06-27T14:27:09Z</time>
      </trkpt>
      <trkpt lat="49.05394" lon="7.62666">
        <ele>259.6</ele>
        <time>2020-06-27T14:27:10Z</time>
      </trkpt>
      <trkpt lat="49.05392" lon="7.62673">
        <ele>259.6</ele>
        <time>2020-06-27T14:27:11Z</time>
      </trkpt>
      <trkpt lat="49.05389" lon="7.62679">
        <ele>259.7</ele>
        <time>2020-06-27T14:27:12Z</time>
      </trkpt>
      <trkpt lat="49.05386" lon="7.62686">
        <ele>259.8</ele>
        <time>2020-06-27T14:27:13Z</time>
      </trkpt>
      <trkpt lat="49.05384" lon="7.62694">
        <ele>259.9</ele>
        <time>2020-06-27T14:27:14Z</time>
      </trkpt>
      <trkpt lat="49.05381" lon="7.627">
        <ele>260</ele>
        <time>2020-06-27T14:27:15Z</time>
      </trkpt>
      <trkpt lat="49.05377" lon="7.62707">
        <ele>260.2</ele>
        <time>2020-06-27T14:27:16Z</time>
      </trkpt>
      <trkpt lat="49.05374" lon="7.62712">
        <ele>260.3</ele>
        <time>2020-06-27T14:27:17Z</time>
      </trkpt>
      <trkpt lat="49.05371" lon="7.62719">
        <ele>260.4</ele>
        <time>2020-06-27T14:27:18Z</time>
      </trkpt>
      <trkpt lat="49.05368" lon="7.62725">
        <ele>260.5</ele>
        <time>2020-06-27T14:27:19Z</time>
      </trkpt>
      <trkpt lat="49.05365" lon="7.62732">
        <ele>260.7</ele>
        <time>2020-06-27T14:27:20Z</time>
      </trkpt>
      <trkpt lat="49.05361" lon="7.62738">
        <ele>260.8</ele>
        <time>2020-06-27T14:27:21Z</time>
      </trkpt>
      <trkpt lat="49.05358" lon="7.62743">
        <ele>260.9</ele>
        <time>2020-06-27T14:27:22Z</time>
      </trkpt>
      <trkpt lat="49.05355" lon="7.62749">
        <ele>261.1</ele>
        <time>2020-06-27T14:27:23Z</time>
      </trkpt>
      <trkpt lat="49.05353" lon="7.62753">
        <ele>261.2</ele>
        <time>2020-06-27T14:27:24Z</time>
      </trkpt>
      <trkpt lat="49.0535" lon="7.62758">
        <ele>261.3</ele>
        <time>2020-06-27T14:27:25Z</time>
      </trkpt>
      <trkpt lat="49.05347" lon="7.62762">
        <ele>261.5</ele>
        <time>2020-06-27T14:27:26Z</time>
      </trkpt>
      <trkpt lat="49.05344" lon="7.62767">
        <ele>261.6</ele>
        <time>2020-06-27T14:27:27Z</time>
      </trkpt>
      <trkpt lat="49.05342" lon="7.62772">
        <ele>261.8</ele>
        <time>2020-06-27T14:27:28Z</time>
      </trkpt>
      <trkpt lat="49.0534" lon="7.62777">
        <ele>261.9</ele>
        <time>2020-06-27T14:27:29Z</time>
      </trkpt>
      <trkpt lat="49.05337" lon="7.62782">
        <ele>262.1</ele>
        <time>2020-06-27T14:27:30Z</time>
      </trkpt>
      <trkpt lat="49.05334" lon="7.62788">
        <ele>262.3</ele>
        <time>2020-06-27T14:27:31Z</time>
      </trkpt>
      <trkpt lat="49.05331" lon="7.62793">
        <ele>262.5</ele>
        <time>2020-06-27T14:27:32Z</time>
      </trkpt>
      <trkpt lat="49.05329" lon="7.62798">
        <ele>262.7</ele>
        <time>2020-06-27T14:27:33Z</time>
      </trkpt>
      <trkpt lat="49.05326" lon="7.62803">
        <ele>262.9</ele>
        <time>2020-06-27T14:27:34Z</time>
      </trkpt>
      <trkpt lat="49.05323" lon="7.62808">
        <ele>263.1</ele>
        <time>2020-06-27T14:27:35Z</time>
      </trkpt>
      <trkpt lat="49.05321" lon="7.62812">
        <ele>263.3</ele>
        <time>2020-06-27T14:27:36Z</time>
      </trkpt>
      <trkpt lat="49.05318" lon="7.62818">
        <ele>263.5</ele>
        <time>2020-06-27T14:27:37Z</time>
      </trkpt>
      <trkpt lat="49.05315" lon="7.62822">
        <ele>263.8</ele>
        <time>2020-06-27T14:27:38Z</time>
      </trkpt>
      <trkpt lat="49.05313" lon="7.62827">
        <ele>263.9</ele>
        <time>2020-06-27T14:27:39Z</time>
      </trkpt>
      <trkpt lat="49.05311" lon="7.62832">
        <ele>264.1</ele>
        <time>2020-06-27T14:27:40Z</time>
      </trkpt>
      <trkpt lat="49.05307" lon="7.62837">
        <ele>264.4</ele>
        <time>2020-06-27T14:27:41Z</time>
      </trkpt>
      <trkpt lat="49.05304" lon="7.62841">
        <ele>264.6</ele>
        <time>2020-06-27T14:27:42Z</time>
      </trkpt>
      <trkpt lat="49.05302" lon="7.62845">
        <ele>264.8</ele>
        <time>2020-06-27T14:27:43Z</time>
      </trkpt>
      <trkpt lat="49.053" lon="7.62849">
        <ele>265</ele>
        <time>2020-06-27T14:27:44Z</time>
      </trkpt>
      <trkpt lat="49.05297" lon="7.62853">
        <ele>265.2</ele>
        <time>2020-06-27T14:27:45Z</time>
      </trkpt>
      <trkpt lat="49.05295" lon="7.62856">
        <ele>265.4</ele>
        <time>2020-06-27T14:27:46Z</time>
      </trkpt>
      <trkpt lat="49.05294" lon="7.6286">
        <ele>265.6</ele>
        <time>2020-06-27T14:27:47Z</time>
      </trkpt>
      <trkpt lat="49.05292" lon="7.62863">
        <ele>265.7</ele>
        <time>2020-06-27T14:27:48Z</time>
      </trkpt>
      <trkpt lat="49.05289" lon="7.62866">
        <ele>265.9</ele>
        <time>2020-06-27T14:27:49Z</time>
      </trkpt>
      <trkpt lat="49.05287" lon="7.62871">
        <ele>266.1</ele>
        <time>2020-06-27T14:27:50Z</time>
      </trkpt>
      <trkpt lat="49.05285" lon="7.62875">
        <ele>266.2</ele>
        <time>2020-06-27T14:27:51Z</time>
      </trkpt>
      <trkpt lat="49.05282" lon="7.6288">
        <ele>266.4</ele>
        <time>2020-06-27T14:27:52Z</time>
      </trkpt>
      <trkpt lat="49.05279" lon="7.62881">
        <ele>266.5</ele>
        <time>2020-06-27T14:27:53Z</time>
      </trkpt>
      <trkpt lat="49.05276" lon="7.62885">
        <ele>266.7</ele>
        <time>2020-06-27T14:27:54Z</time>
      </trkpt>
      <trkpt lat="49.05273" lon="7.62889">
        <ele>266.8</ele>
        <time>2020-06-27T14:27:55Z</time>
      </trkpt>
      <trkpt lat="49.0527" lon="7.62893">
        <ele>267</ele>
        <time>2020-06-27T14:27:56Z</time>
      </trkpt>
      <trkpt lat="49.05267" lon="7.62896">
        <ele>267.1</ele>
        <time>2020-06-27T14:27:57Z</time>
      </trkpt>
      <trkpt lat="49.05265" lon="7.62899">
        <ele>267.3</ele>
        <time>2020-06-27T14:27:58Z</time>
      </trkpt>
      <trkpt lat="49.05264" lon="7.62904">
        <ele>267.4</ele>
        <time>2020-06-27T14:27:59Z</time>
      </trkpt>
      <trkpt lat="49.05261" lon="7.62909">
        <ele>267.6</ele>
        <time>2020-06-27T14:28:00Z</time>
      </trkpt>
      <trkpt lat="49.05259" lon="7.62913">
        <ele>267.7</ele>
        <time>2020-06-27T14:28:01Z</time>
      </trkpt>
      <trkpt lat="49.05257" lon="7.62916">
        <ele>267.8</ele>
        <time>2020-06-27T14:28:02Z</time>
      </trkpt>
      <trkpt lat="49.05254" lon="7.62918">
        <ele>267.9</ele>
        <time>2020-06-27T14:28:03Z</time>
      </trkpt>
      <trkpt lat="49.05251" lon="7.6292">
        <ele>268</ele>
        <time>2020-06-27T14:28:04Z</time>
      </trkpt>
      <trkpt lat="49.05248" lon="7.62924">
        <ele>268.1</ele>
        <time>2020-06-27T14:28:05Z</time>
      </trkpt>
      <trkpt lat="49.05245" lon="7.62928">
        <ele>268.2</ele>
        <time>2020-06-27T14:28:06Z</time>
      </trkpt>
      <trkpt lat="49.05242" lon="7.62931">
        <ele>268.3</ele>
        <time>2020-06-27T14:28:07Z</time>
      </trkpt>
      <trkpt lat="49.05239" lon="7.62934">
        <ele>268.3</ele>
        <time>2020-06-27T14:28:08Z</time>
      </trkpt>
      <trkpt lat="49.05236" lon="7.62937">
        <ele>268.4</ele>
        <time>2020-06-27T14:28:09Z</time>
      </trkpt>
      <trkpt lat="49.05233" lon="7.62941">
        <ele>268.6</ele>
        <time>2020-06-27T14:28:10Z</time>
      </trkpt>
      <trkpt lat="49.0523" lon="7.62945">
        <ele>268.7</ele>
        <time>2020-06-27T14:28:11Z</time>
      </trkpt>
      <trkpt lat="49.05226" lon="7.62949">
        <ele>268.8</ele>
        <time>2020-06-27T14:28:12Z</time>
      </trkpt>
      <trkpt lat="49.05223" lon="7.62954">
        <ele>268.9</ele>
        <time>2020-06-27T14:28:13Z</time>
      </trkpt>
      <trkpt lat="49.0522" lon="7.62959">
        <ele>269</ele>
        <time>2020-06-27T14:28:14Z</time>
      </trkpt>
      <trkpt lat="49.05217" lon="7.62963">
        <ele>269.1</ele>
        <time>2020-06-27T14:28:15Z</time>
      </trkpt>
      <trkpt lat="49.05213" lon="7.62969">
        <ele>269.2</ele>
        <time>2020-06-27T14:28:16Z</time>
      </trkpt>
      <trkpt lat="49.05212" lon="7.62976">
        <ele>269.3</ele>
        <time>2020-06-27T14:28:17Z</time>
      </trkpt>
      <trkpt lat="49.05209" lon="7.6298">
        <ele>269.4</ele>
        <time>2020-06-27T14:28:18Z</time>
      </trkpt>
      <trkpt lat="49.05207" lon="7.62986">
        <ele>269.5</ele>
        <time>2020-06-27T14:28:19Z</time>
      </trkpt>
      <trkpt lat="49.05203" lon="7.62989">
        <ele>269.7</ele>
        <time>2020-06-27T14:28:20Z</time>
      </trkpt>
      <trkpt lat="49.052" lon="7.62993">
        <ele>269.8</ele>
        <time>2020-06-27T14:28:21Z</time>
      </trkpt>
      <trkpt lat="49.05196" lon="7.62998">
        <ele>270</ele>
        <time>2020-06-27T14:28:22Z</time>
      </trkpt>
      <trkpt lat="49.05193" lon="7.63001">
        <ele>270.1</ele>
        <time>2020-06-27T14:28:23Z</time>
      </trkpt>
      <trkpt lat="49.05191" lon="7.63006">
        <ele>270.2</ele>
        <time>2020-06-27T14:28:24Z</time>
      </trkpt>
      <trkpt lat="49.05187" lon="7.63011">
        <ele>270.4</ele>
        <time>2020-06-27T14:28:25Z</time>
      </trkpt>
      <trkpt lat="49.05184" lon="7.63014">
        <ele>270.5</ele>
        <time>2020-06-27T14:28:26Z</time>
      </trkpt>
      <trkpt lat="49.05181" lon="7.63019">
        <ele>270.6</ele>
        <time>2020-06-27T14:28:27Z</time>
      </trkpt>
      <trkpt lat="49.05177" lon="7.63024">
        <ele>270.8</ele>
        <time>2020-06-27T14:28:28Z</time>
      </trkpt>
      <trkpt lat="49.05174" lon="7.63029">
        <ele>271</ele>
        <time>2020-06-27T14:28:29Z</time>
      </trkpt>
      <trkpt lat="49.05171" lon="7.63033">
        <ele>271.1</ele>
        <time>2020-06-27T14:28:30Z</time>
      </trkpt>
      <trkpt lat="49.05168" lon="7.63038">
        <ele>271.3</ele>
        <time>2020-06-27T14:28:31Z</time>
      </trkpt>
      <trkpt lat="49.05164" lon="7.63044">
        <ele>271.5</ele>
        <time>2020-06-27T14:28:32Z</time>
      </trkpt>
      <trkpt lat="49.05161" lon="7.63049">
        <ele>271.7</ele>
        <time>2020-06-27T14:28:33Z</time>
      </trkpt>
      <trkpt lat="49.05159" lon="7.63053">
        <ele>271.8</ele>
        <time>2020-06-27T14:28:34Z</time>
      </trkpt>
      <trkpt lat="49.05156" lon="7.63058">
        <ele>272</ele>
        <time>2020-06-27T14:28:35Z</time>
      </trkpt>
      <trkpt lat="49.05154" lon="7.63063">
        <ele>272.1</ele>
        <time>2020-06-27T14:28:36Z</time>
      </trkpt>
      <trkpt lat="49.05151" lon="7.63066">
        <ele>272.2</ele>
        <time>2020-06-27T14:28:37Z</time>
      </trkpt>
      <trkpt lat="49.05148" lon="7.63069">
        <ele>272.4</ele>
        <time>2020-06-27T14:28:38Z</time>
      </trkpt>
      <trkpt lat="49.05145" lon="7.63073">
        <ele>272.5</ele>
        <time>2020-06-27T14:28:39Z</time>
      </trkpt>
      <trkpt lat="49.05142" lon="7.63076">
        <ele>272.7</ele>
        <time>2020-06-27T14:28:40Z</time>
      </trkpt>
      <trkpt lat="49.05139" lon="7.63081">
        <ele>272.9</ele>
        <time>2020-06-27T14:28:41Z</time>
      </trkpt>
      <trkpt lat="49.05136" lon="7.63088">
        <ele>273.1</ele>
        <time>2020-06-27T14:28:42Z</time>
      </trkpt>
      <trkpt lat="49.05133" lon="7.63094">
        <ele>273.3</ele>
        <time>2020-06-27T14:28:43Z</time>
      </trkpt>
      <trkpt lat="49.05129" lon="7.63099">
        <ele>273.5</ele>
        <time>2020-06-27T14:28:44Z</time>
      </trkpt>
      <trkpt lat="49.05127" lon="7.63104">
        <ele>273.7</ele>
        <time>2020-06-27T14:28:45Z</time>
      </trkpt>
      <trkpt lat="49.05127" lon="7.63109">
        <ele>273.8</ele>
        <time>2020-06-27T14:28:46Z</time>
      </trkpt>
      <trkpt lat="49.05125" lon="7.63113">
        <ele>273.9</ele>
        <time>2020-06-27T14:28:47Z</time>
      </trkpt>
      <trkpt lat="49.05123" lon="7.63118">
        <ele>274.1</ele>
        <time>2020-06-27T14:28:48Z</time>
      </trkpt>
      <trkpt lat="49.05121" lon="7.63122">
        <ele>274.2</ele>
        <time>2020-06-27T14:28:49Z</time>
      </trkpt>
      <trkpt lat="49.0512" lon="7.63127">
        <ele>274.4</ele>
        <time>2020-06-27T14:28:50Z</time>
      </trkpt>
      <trkpt lat="49.05118" lon="7.63132">
        <ele>274.6</ele>
        <time>2020-06-27T14:28:51Z</time>
      </trkpt>
      <trkpt lat="49.05117" lon="7.63138">
        <ele>274.7</ele>
        <time>2020-06-27T14:28:52Z</time>
      </trkpt>
      <trkpt lat="49.05116" lon="7.63143">
        <ele>274.8</ele>
        <time>2020-06-27T14:28:53Z</time>
      </trkpt>
      <trkpt lat="49.05114" lon="7.63148">
        <ele>274.9</ele>
        <time>2020-06-27T14:28:54Z</time>
      </trkpt>
      <trkpt lat="49.05113" lon="7.63153">
        <ele>275</ele>
        <time>2020-06-27T14:28:55Z</time>
      </trkpt>
      <trkpt lat="49.05112" lon="7.63158">
        <ele>275.1</ele>
        <time>2020-06-27T14:28:56Z</time>
      </trkpt>
      <trkpt lat="49.0511" lon="7.63164">
        <ele>275.2</ele>
        <time>2020-06-27T14:28:57Z</time>
      </trkpt>
      <trkpt lat="49.0511" lon="7.6317">
        <ele>275.2</ele>
        <time>2020-06-27T14:28:58Z</time>
      </trkpt>
      <trkpt lat="49.05109" lon="7.63175">
        <ele>275.3</ele>
        <time>2020-06-27T14:28:59Z</time>
      </trkpt>
      <trkpt lat="49.05107" lon="7.63179">
        <ele>275.3</ele>
        <time>2020-06-27T14:29:00Z</time>
      </trkpt>
      <trkpt lat="49.05106" lon="7.63186">
        <ele>275.3</ele>
        <time>2020-06-27T14:29:01Z</time>
      </trkpt>
      <trkpt lat="49.05103" lon="7.6319">
        <ele>275.3</ele>
        <time>2020-06-27T14:29:02Z</time>
      </trkpt>
      <trkpt lat="49.05101" lon="7.63196">
        <ele>275.3</ele>
        <time>2020-06-27T14:29:03Z</time>
      </trkpt>
      <trkpt lat="49.051" lon="7.63202">
        <ele>275.3</ele>
        <time>2020-06-27T14:29:04Z</time>
      </trkpt>
      <trkpt lat="49.05099" lon="7.63208">
        <ele>275.2</ele>
        <time>2020-06-27T14:29:05Z</time>
      </trkpt>
      <trkpt lat="49.05098" lon="7.63214">
        <ele>275.1</ele>
        <time>2020-06-27T14:29:06Z</time>
      </trkpt>
      <trkpt lat="49.05097" lon="7.63219">
        <ele>275.1</ele>
        <time>2020-06-27T14:29:07Z</time>
      </trkpt>
      <trkpt lat="49.05097" lon="7.63225">
        <ele>275</ele>
        <time>2020-06-27T14:29:08Z</time>
      </trkpt>
      <trkpt lat="49.05095" lon="7.63231">
        <ele>274.9</ele>
        <time>2020-06-27T14:29:09Z</time>
      </trkpt>
      <trkpt lat="49.05094" lon="7.63236">
        <ele>274.7</ele>
        <time>2020-06-27T14:29:10Z</time>
      </trkpt>
      <trkpt lat="49.05093" lon="7.63241">
        <ele>274.6</ele>
        <time>2020-06-27T14:29:11Z</time>
      </trkpt>
      <trkpt lat="49.05092" lon="7.63248">
        <ele>274.4</ele>
        <time>2020-06-27T14:29:12Z</time>
      </trkpt>
      <trkpt lat="49.05089" lon="7.63254">
        <ele>274.2</ele>
        <time>2020-06-27T14:29:13Z</time>
      </trkpt>
      <trkpt lat="49.05087" lon="7.6326">
        <ele>274</ele>
        <time>2020-06-27T14:29:14Z</time>
      </trkpt>
      <trkpt lat="49.05086" lon="7.63269">
        <ele>273.8</ele>
        <time>2020-06-27T14:29:15Z</time>
      </trkpt>
      <trkpt lat="49.05084" lon="7.63277">
        <ele>273.5</ele>
        <time>2020-06-27T14:29:16Z</time>
      </trkpt>
      <trkpt lat="49.05081" lon="7.63286">
        <ele>273.2</ele>
        <time>2020-06-27T14:29:17Z</time>
      </trkpt>
      <trkpt lat="49.05079" lon="7.63294">
        <ele>272.9</ele>
        <time>2020-06-27T14:29:18Z</time>
      </trkpt>
      <trkpt lat="49.05077" lon="7.63302">
        <ele>272.6</ele>
        <time>2020-06-27T14:29:19Z</time>
      </trkpt>
      <trkpt lat="49.05076" lon="7.63314">
        <ele>272.1</ele>
        <time>2020-06-27T14:29:20Z</time>
      </trkpt>
      <trkpt lat="49.05074" lon="7.63323">
        <ele>271.7</ele>
        <time>2020-06-27T14:29:21Z</time>
      </trkpt>
      <trkpt lat="49.05072" lon="7.63331">
        <ele>271.4</ele>
        <time>2020-06-27T14:29:22Z</time>
      </trkpt>
      <trkpt lat="49.05069" lon="7.6334">
        <ele>271</ele>
        <time>2020-06-27T14:29:23Z</time>
      </trkpt>
      <trkpt lat="49.05068" lon="7.63351">
        <ele>270.6</ele>
        <time>2020-06-27T14:29:24Z</time>
      </trkpt>
      <trkpt lat="49.05065" lon="7.63361">
        <ele>270.1</ele>
        <time>2020-06-27T14:29:25Z</time>
      </trkpt>
      <trkpt lat="49.05061" lon="7.63372">
        <ele>269.7</ele>
        <time>2020-06-27T14:29:26Z</time>
      </trkpt>
      <trkpt lat="49.05058" lon="7.63384">
        <ele>269.3</ele>
        <time>2020-06-27T14:29:27Z</time>
      </trkpt>
      <trkpt lat="49.05056" lon="7.63398">
        <ele>268.9</ele>
        <time>2020-06-27T14:29:28Z</time>
      </trkpt>
      <trkpt lat="49.05054" lon="7.63411">
        <ele>268.6</ele>
        <time>2020-06-27T14:29:29Z</time>
      </trkpt>
      <trkpt lat="49.05052" lon="7.63424">
        <ele>268.3</ele>
        <time>2020-06-27T14:29:30Z</time>
      </trkpt>
      <trkpt lat="49.05049" lon="7.63436">
        <ele>268.2</ele>
        <time>2020-06-27T14:29:31Z</time>
      </trkpt>
      <trkpt lat="49.05046" lon="7.63448">
        <ele>268.1</ele>
        <time>2020-06-27T14:29:32Z</time>
      </trkpt>
      <trkpt lat="49.05043" lon="7.63458">
        <ele>268.1</ele>
        <time>2020-06-27T14:29:33Z</time>
      </trkpt>
      <trkpt lat="49.05041" lon="7.6347">
        <ele>268.2</ele>
        <time>2020-06-27T14:29:34Z</time>
      </trkpt>
      <trkpt lat="49.05037" lon="7.63482">
        <ele>268.3</ele>
        <time>2020-06-27T14:29:35Z</time>
      </trkpt>
      <trkpt lat="49.05036" lon="7.63493">
        <ele>268.5</ele>
        <time>2020-06-27T14:29:36Z</time>
      </trkpt>
      <trkpt lat="49.05033" lon="7.63503">
        <ele>268.6</ele>
        <time>2020-06-27T14:29:37Z</time>
      </trkpt>
      <trkpt lat="49.0503" lon="7.63512">
        <ele>268.7</ele>
        <time>2020-06-27T14:29:38Z</time>
      </trkpt>
      <trkpt lat="49.05028" lon="7.63522">
        <ele>268.9</ele>
        <time>2020-06-27T14:29:39Z</time>
      </trkpt>
      <trkpt lat="49.05026" lon="7.63531">
        <ele>269</ele>
        <time>2020-06-27T14:29:40Z</time>
      </trkpt>
      <trkpt lat="49.05025" lon="7.63541">
        <ele>269.1</ele>
        <time>2020-06-27T14:29:41Z</time>
      </trkpt>
      <trkpt lat="49.05023" lon="7.6355">
        <ele>269.2</ele>
        <time>2020-06-27T14:29:42Z</time>
      </trkpt>
      <trkpt lat="49.05022" lon="7.6356">
        <ele>269.3</ele>
        <time>2020-06-27T14:29:43Z</time>
      </trkpt>
      <trkpt lat="49.0502" lon="7.63569">
        <ele>269.4</ele>
        <time>2020-06-27T14:29:44Z</time>
      </trkpt>
      <trkpt lat="49.05017" lon="7.63576">
        <ele>269.4</ele>
        <time>2020-06-27T14:29:45Z</time>
      </trkpt>
      <trkpt lat="49.05014" lon="7.63584">
        <ele>269.5</ele>
        <time>2020-06-27T14:29:46Z</time>
      </trkpt>
      <trkpt lat="49.05012" lon="7.63591">
        <ele>269.5</ele>
        <time>2020-06-27T14:29:47Z</time>
      </trkpt>
      <trkpt lat="49.0501" lon="7.63598">
        <ele>269.5</ele>
        <time>2020-06-27T14:29:48Z</time>
      </trkpt>
      <trkpt lat="49.05008" lon="7.63606">
        <ele>269.5</ele>
        <time>2020-06-27T14:29:49Z</time>
      </trkpt>
      <trkpt lat="49.05006" lon="7.63614">
        <ele>269.5</ele>
        <time>2020-06-27T14:29:50Z</time>
      </trkpt>
      <trkpt lat="49.05005" lon="7.63622">
        <ele>269.4</ele>
        <time>2020-06-27T14:29:51Z</time>
      </trkpt>
      <trkpt lat="49.05003" lon="7.6363">
        <ele>269.4</ele>
        <time>2020-06-27T14:29:52Z</time>
      </trkpt>
      <trkpt lat="49.05001" lon="7.63637">
        <ele>269.3</ele>
        <time>2020-06-27T14:29:53Z</time>
      </trkpt>
      <trkpt lat="49.05" lon="7.63645">
        <ele>269.2</ele>
        <time>2020-06-27T14:29:54Z</time>
      </trkpt>
      <trkpt lat="49.04998" lon="7.63654">
        <ele>269.2</ele>
        <time>2020-06-27T14:29:55Z</time>
      </trkpt>
      <trkpt lat="49.04997" lon="7.63662">
        <ele>269.1</ele>
        <time>2020-06-27T14:29:56Z</time>
      </trkpt>
      <trkpt lat="49.04995" lon="7.63671">
        <ele>269</ele>
        <time>2020-06-27T14:29:57Z</time>
      </trkpt>
      <trkpt lat="49.04993" lon="7.63679">
        <ele>268.8</ele>
        <time>2020-06-27T14:29:58Z</time>
      </trkpt>
      <trkpt lat="49.04992" lon="7.63687">
        <ele>268.7</ele>
        <time>2020-06-27T14:29:59Z</time>
      </trkpt>
      <trkpt lat="49.0499" lon="7.63695">
        <ele>268.6</ele>
        <time>2020-06-27T14:30:00Z</time>
      </trkpt>
      <trkpt lat="49.04988" lon="7.63703">
        <ele>268.4</ele>
        <time>2020-06-27T14:30:01Z</time>
      </trkpt>
      <trkpt lat="49.04987" lon="7.63711">
        <ele>268.2</ele>
        <time>2020-06-27T14:30:02Z</time>
      </trkpt>
      <trkpt lat="49.04985" lon="7.6372">
        <ele>267.9</ele>
        <time>2020-06-27T14:30:03Z</time>
      </trkpt>
      <trkpt lat="49.04982" lon="7.63728">
        <ele>267.7</ele>
        <time>2020-06-27T14:30:04Z</time>
      </trkpt>
      <trkpt lat="49.0498" lon="7.63736">
        <ele>267.4</ele>
        <time>2020-06-27T14:30:05Z</time>
      </trkpt>
      <trkpt lat="49.04978" lon="7.63745">
        <ele>267.1</ele>
        <time>2020-06-27T14:30:06Z</time>
      </trkpt>
      <trkpt lat="49.04977" lon="7.63755">
        <ele>266.8</ele>
        <time>2020-06-27T14:30:07Z</time>
      </trkpt>
      <trkpt lat="49.04976" lon="7.63765">
        <ele>266.5</ele>
        <time>2020-06-27T14:30:08Z</time>
      </trkpt>
      <trkpt lat="49.04974" lon="7.63775">
        <ele>266.2</ele>
        <time>2020-06-27T14:30:09Z</time>
      </trkpt>
      <trkpt lat="49.04972" lon="7.63784">
        <ele>265.8</ele>
        <time>2020-06-27T14:30:10Z</time>
      </trkpt>
      <trkpt lat="49.04971" lon="7.63794">
        <ele>265.5</ele>
        <time>2020-06-27T14:30:11Z</time>
      </trkpt>
      <trkpt lat="49.04969" lon="7.63804">
        <ele>265</ele>
        <time>2020-06-27T14:30:12Z</time>
      </trkpt>
      <trkpt lat="49.04966" lon="7.63815">
        <ele>264.6</ele>
        <time>2020-06-27T14:30:13Z</time>
      </trkpt>
      <trkpt lat="49.04963" lon="7.63825">
        <ele>264.2</ele>
        <time>2020-06-27T14:30:14Z</time>
      </trkpt>
      <trkpt lat="49.04961" lon="7.63836">
        <ele>263.7</ele>
        <time>2020-06-27T14:30:15Z</time>
      </trkpt>
      <trkpt lat="49.04959" lon="7.63848">
        <ele>263.3</ele>
        <time>2020-06-27T14:30:16Z</time>
      </trkpt>
      <trkpt lat="49.04957" lon="7.63859">
        <ele>262.9</ele>
        <time>2020-06-27T14:30:17Z</time>
      </trkpt>
      <trkpt lat="49.04955" lon="7.63871">
        <ele>262.5</ele>
        <time>2020-06-27T14:30:18Z</time>
      </trkpt>
      <trkpt lat="49.04952" lon="7.63884">
        <ele>261.9</ele>
        <time>2020-06-27T14:30:19Z</time>
      </trkpt>
      <trkpt lat="49.04949" lon="7.63896">
        <ele>261.3</ele>
        <time>2020-06-27T14:30:20Z</time>
      </trkpt>
      <trkpt lat="49.04946" lon="7.63909">
        <ele>260.7</ele>
        <time>2020-06-27T14:30:21Z</time>
      </trkpt>
      <trkpt lat="49.04942" lon="7.6392">
        <ele>260.2</ele>
        <time>2020-06-27T14:30:22Z</time>
      </trkpt>
      <trkpt lat="49.04939" lon="7.63934">
        <ele>259.7</ele>
        <time>2020-06-27T14:30:23Z</time>
      </trkpt>
      <trkpt lat="49.04937" lon="7.63947">
        <ele>259.3</ele>
        <time>2020-06-27T14:30:24Z</time>
      </trkpt>
      <trkpt lat="49.04935" lon="7.6396">
        <ele>258.9</ele>
        <time>2020-06-27T14:30:25Z</time>
      </trkpt>
      <trkpt lat="49.04933" lon="7.63973">
        <ele>258.6</ele>
        <time>2020-06-27T14:30:26Z</time>
      </trkpt>
      <trkpt lat="49.04929" lon="7.63986">
        <ele>258.3</ele>
        <time>2020-06-27T14:30:27Z</time>
      </trkpt>
      <trkpt lat="49.04928" lon="7.63998">
        <ele>258.1</ele>
        <time>2020-06-27T14:30:28Z</time>
      </trkpt>
      <trkpt lat="49.04926" lon="7.64009">
        <ele>257.9</ele>
        <time>2020-06-27T14:30:29Z</time>
      </trkpt>
      <trkpt lat="49.04923" lon="7.64019">
        <ele>257.9</ele>
        <time>2020-06-27T14:30:30Z</time>
      </trkpt>
      <trkpt lat="49.04921" lon="7.6403">
        <ele>257.8</ele>
        <time>2020-06-27T14:30:31Z</time>
      </trkpt>
      <trkpt lat="49.04919" lon="7.64039">
        <ele>257.8</ele>
        <time>2020-06-27T14:30:32Z</time>
      </trkpt>
      <trkpt lat="49.04917" lon="7.64048">
        <ele>257.9</ele>
        <time>2020-06-27T14:30:33Z</time>
      </trkpt>
      <trkpt lat="49.04915" lon="7.64058">
        <ele>257.9</ele>
        <time>2020-06-27T14:30:34Z</time>
      </trkpt>
      <trkpt lat="49.04913" lon="7.64067">
        <ele>257.9</ele>
        <time>2020-06-27T14:30:35Z</time>
      </trkpt>
      <trkpt lat="49.0491" lon="7.64075">
        <ele>258</ele>
        <time>2020-06-27T14:30:36Z</time>
      </trkpt>
      <trkpt lat="49.04909" lon="7.64084">
        <ele>258.1</ele>
        <time>2020-06-27T14:30:37Z</time>
      </trkpt>
      <trkpt lat="49.04906" lon="7.64092">
        <ele>258.2</ele>
        <time>2020-06-27T14:30:38Z</time>
      </trkpt>
      <trkpt lat="49.04904" lon="7.64101">
        <ele>258.3</ele>
        <time>2020-06-27T14:30:39Z</time>
      </trkpt>
      <trkpt lat="49.04903" lon="7.64109">
        <ele>258.3</ele>
        <time>2020-06-27T14:30:40Z</time>
      </trkpt>
      <trkpt lat="49.049" lon="7.64117">
        <ele>258.4</ele>
        <time>2020-06-27T14:30:41Z</time>
      </trkpt>
      <trkpt lat="49.04898" lon="7.64124">
        <ele>258.5</ele>
        <time>2020-06-27T14:30:42Z</time>
      </trkpt>
      <trkpt lat="49.04896" lon="7.64132">
        <ele>258.6</ele>
        <time>2020-06-27T14:30:43Z</time>
      </trkpt>
      <trkpt lat="49.04893" lon="7.64138">
        <ele>258.7</ele>
        <time>2020-06-27T14:30:44Z</time>
      </trkpt>
      <trkpt lat="49.0489" lon="7.64145">
        <ele>258.8</ele>
        <time>2020-06-27T14:30:45Z</time>
      </trkpt>
      <trkpt lat="49.04887" lon="7.64151">
        <ele>258.8</ele>
        <time>2020-06-27T14:30:46Z</time>
      </trkpt>
      <trkpt lat="49.04883" lon="7.64158">
        <ele>258.9</ele>
        <time>2020-06-27T14:30:47Z</time>
      </trkpt>
      <trkpt lat="49.04881" lon="7.64165">
        <ele>259</ele>
        <time>2020-06-27T14:30:48Z</time>
      </trkpt>
      <trkpt lat="49.04878" lon="7.64172">
        <ele>259.1</ele>
        <time>2020-06-27T14:30:49Z</time>
      </trkpt>
      <trkpt lat="49.04875" lon="7.64179">
        <ele>259.2</ele>
        <time>2020-06-27T14:30:50Z</time>
      </trkpt>
      <trkpt lat="49.04873" lon="7.64186">
        <ele>259.2</ele>
        <time>2020-06-27T14:30:51Z</time>
      </trkpt>
      <trkpt lat="49.04871" lon="7.64193">
        <ele>259.3</ele>
        <time>2020-06-27T14:30:52Z</time>
      </trkpt>
      <trkpt lat="49.04869" lon="7.64201">
        <ele>259.3</ele>
        <time>2020-06-27T14:30:53Z</time>
      </trkpt>
      <trkpt lat="49.04868" lon="7.64209">
        <ele>259.3</ele>
        <time>2020-06-27T14:30:54Z</time>
      </trkpt>
      <trkpt lat="49.04865" lon="7.64217">
        <ele>259.3</ele>
        <time>2020-06-27T14:30:55Z</time>
      </trkpt>
      <trkpt lat="49.04864" lon="7.64226">
        <ele>259.3</ele>
        <time>2020-06-27T14:30:56Z</time>
      </trkpt>
      <trkpt lat="49.04863" lon="7.64234">
        <ele>259.2</ele>
        <time>2020-06-27T14:30:57Z</time>
      </trkpt>
      <trkpt lat="49.0486" lon="7.64242">
        <ele>259.2</ele>
        <time>2020-06-27T14:30:58Z</time>
      </trkpt>
      <trkpt lat="49.04858" lon="7.64251">
        <ele>259.1</ele>
        <time>2020-06-27T14:30:59Z</time>
      </trkpt>
      <trkpt lat="49.04856" lon="7.6426">
        <ele>259</ele>
        <time>2020-06-27T14:31:00Z</time>
      </trkpt>
      <trkpt lat="49.04854" lon="7.64269">
        <ele>258.9</ele>
        <time>2020-06-27T14:31:01Z</time>
      </trkpt>
      <trkpt lat="49.04852" lon="7.64277">
        <ele>258.7</ele>
        <time>2020-06-27T14:31:02Z</time>
      </trkpt>
      <trkpt lat="49.04849" lon="7.64285">
        <ele>258.5</ele>
        <time>2020-06-27T14:31:03Z</time>
      </trkpt>
      <trkpt lat="49.04848" lon="7.64294">
        <ele>258.3</ele>
        <time>2020-06-27T14:31:04Z</time>
      </trkpt>
      <trkpt lat="49.04846" lon="7.64303">
        <ele>258.2</ele>
        <time>2020-06-27T14:31:05Z</time>
      </trkpt>
      <trkpt lat="49.04843" lon="7.64311">
        <ele>258</ele>
        <time>2020-06-27T14:31:06Z</time>
      </trkpt>
      <trkpt lat="49.04839" lon="7.6432">
        <ele>257.8</ele>
        <time>2020-06-27T14:31:07Z</time>
      </trkpt>
      <trkpt lat="49.04838" lon="7.6433">
        <ele>257.6</ele>
        <time>2020-06-27T14:31:08Z</time>
      </trkpt>
      <trkpt lat="49.04835" lon="7.64339">
        <ele>257.3</ele>
        <time>2020-06-27T14:31:09Z</time>
      </trkpt>
      <trkpt lat="49.04833" lon="7.64349">
        <ele>257</ele>
        <time>2020-06-27T14:31:10Z</time>
      </trkpt>
      <trkpt lat="49.04832" lon="7.6436">
        <ele>256.7</ele>
        <time>2020-06-27T14:31:11Z</time>
      </trkpt>
      <trkpt lat="49.04831" lon="7.64371">
        <ele>256.4</ele>
        <time>2020-06-27T14:31:12Z</time>
      </trkpt>
      <trkpt lat="49.04828" lon="7.64382">
        <ele>256.1</ele>
        <time>2020-06-27T14:31:13Z</time>
      </trkpt>
      <trkpt lat="49.04828" lon="7.64395">
        <ele>255.8</ele>
        <time>2020-06-27T14:31:14Z</time>
      </trkpt>
      <trkpt lat="49.04826" lon="7.64406">
        <ele>255.5</ele>
        <time>2020-06-27T14:31:15Z</time>
      </trkpt>
      <trkpt lat="49.04824" lon="7.64418">
        <ele>255.2</ele>
        <time>2020-06-27T14:31:16Z</time>
      </trkpt>
      <trkpt lat="49.04822" lon="7.6443">
        <ele>254.9</ele>
        <time>2020-06-27T14:31:17Z</time>
      </trkpt>
      <trkpt lat="49.0482" lon="7.64442">
        <ele>254.7</ele>
        <time>2020-06-27T14:31:18Z</time>
      </trkpt>
      <trkpt lat="49.04818" lon="7.64453">
        <ele>254.6</ele>
        <time>2020-06-27T14:31:19Z</time>
      </trkpt>
      <trkpt lat="49.04816" lon="7.64466">
        <ele>254.4</ele>
        <time>2020-06-27T14:31:20Z</time>
      </trkpt>
      <trkpt lat="49.04813" lon="7.64478">
        <ele>254.4</ele>
        <time>2020-06-27T14:31:21Z</time>
      </trkpt>
      <trkpt lat="49.0481" lon="7.64491">
        <ele>253.8</ele>
        <time>2020-06-27T14:31:22Z</time>
      </trkpt>
      <trkpt lat="49.04807" lon="7.64503">
        <ele>253.5</ele>
        <time>2020-06-27T14:31:23Z</time>
      </trkpt>
      <trkpt lat="49.04805" lon="7.64514">
        <ele>253.3</ele>
        <time>2020-06-27T14:31:24Z</time>
      </trkpt>
      <trkpt lat="49.04803" lon="7.64527">
        <ele>253.1</ele>
        <time>2020-06-27T14:31:25Z</time>
      </trkpt>
      <trkpt lat="49.048" lon="7.64542">
        <ele>253</ele>
        <time>2020-06-27T14:31:26Z</time>
      </trkpt>
      <trkpt lat="49.04797" lon="7.64556">
        <ele>252.9</ele>
        <time>2020-06-27T14:31:27Z</time>
      </trkpt>
      <trkpt lat="49.04794" lon="7.64568">
        <ele>252.8</ele>
        <time>2020-06-27T14:31:28Z</time>
      </trkpt>
      <trkpt lat="49.04792" lon="7.6458">
        <ele>252.8</ele>
        <time>2020-06-27T14:31:29Z</time>
      </trkpt>
      <trkpt lat="49.0479" lon="7.64591">
        <ele>252.8</ele>
        <time>2020-06-27T14:31:30Z</time>
      </trkpt>
      <trkpt lat="49.04788" lon="7.64603">
        <ele>252.9</ele>
        <time>2020-06-27T14:31:31Z</time>
      </trkpt>
      <trkpt lat="49.04785" lon="7.64616">
        <ele>253</ele>
        <time>2020-06-27T14:31:32Z</time>
      </trkpt>
      <trkpt lat="49.04783" lon="7.64627">
        <ele>253.1</ele>
        <time>2020-06-27T14:31:33Z</time>
      </trkpt>
      <trkpt lat="49.04781" lon="7.64638">
        <ele>253.2</ele>
        <time>2020-06-27T14:31:34Z</time>
      </trkpt>
      <trkpt lat="49.04779" lon="7.64649">
        <ele>253.4</ele>
        <time>2020-06-27T14:31:35Z</time>
      </trkpt>
      <trkpt lat="49.04777" lon="7.64661">
        <ele>253.6</ele>
        <time>2020-06-27T14:31:36Z</time>
      </trkpt>
      <trkpt lat="49.04775" lon="7.64669">
        <ele>253.6</ele>
        <time>2020-06-27T14:31:37Z</time>
      </trkpt>
      <trkpt lat="49.04775" lon="7.6468">
        <ele>253.8</ele>
        <time>2020-06-27T14:31:38Z</time>
      </trkpt>
      <trkpt lat="49.04773" lon="7.64692">
        <ele>253.9</ele>
        <time>2020-06-27T14:31:39Z</time>
      </trkpt>
      <trkpt lat="49.04771" lon="7.64704">
        <ele>254.2</ele>
        <time>2020-06-27T14:31:40Z</time>
      </trkpt>
      <trkpt lat="49.0477" lon="7.64714">
        <ele>254.4</ele>
        <time>2020-06-27T14:31:41Z</time>
      </trkpt>
      <trkpt lat="49.04768" lon="7.64724">
        <ele>254.7</ele>
        <time>2020-06-27T14:31:42Z</time>
      </trkpt>
      <trkpt lat="49.04766" lon="7.64733">
        <ele>254.9</ele>
        <time>2020-06-27T14:31:43Z</time>
      </trkpt>
      <trkpt lat="49.04763" lon="7.64745">
        <ele>255.3</ele>
        <time>2020-06-27T14:31:44Z</time>
      </trkpt>
      <trkpt lat="49.04761" lon="7.64752">
        <ele>255.4</ele>
        <time>2020-06-27T14:31:45Z</time>
      </trkpt>
      <trkpt lat="49.0476" lon="7.64759">
        <ele>255.7</ele>
        <time>2020-06-27T14:31:46Z</time>
      </trkpt>
      <trkpt lat="49.04759" lon="7.64767">
        <ele>255.9</ele>
        <time>2020-06-27T14:31:47Z</time>
      </trkpt>
      <trkpt lat="49.04757" lon="7.64774">
        <ele>256.2</ele>
        <time>2020-06-27T14:31:48Z</time>
      </trkpt>
      <trkpt lat="49.04755" lon="7.64781">
        <ele>256.5</ele>
        <time>2020-06-27T14:31:49Z</time>
      </trkpt>
      <trkpt lat="49.04754" lon="7.64787">
        <ele>256.7</ele>
        <time>2020-06-27T14:31:50Z</time>
      </trkpt>
      <trkpt lat="49.04752" lon="7.64793">
        <ele>257</ele>
        <time>2020-06-27T14:31:51Z</time>
      </trkpt>
      <trkpt lat="49.04751" lon="7.64801">
        <ele>257.4</ele>
        <time>2020-06-27T14:31:52Z</time>
      </trkpt>
      <trkpt lat="49.04749" lon="7.64807">
        <ele>257.7</ele>
        <time>2020-06-27T14:31:53Z</time>
      </trkpt>
      <trkpt lat="49.04748" lon="7.64814">
        <ele>258</ele>
        <time>2020-06-27T14:31:54Z</time>
      </trkpt>
      <trkpt lat="49.04746" lon="7.64822">
        <ele>258.4</ele>
        <time>2020-06-27T14:31:55Z</time>
      </trkpt>
      <trkpt lat="49.04744" lon="7.64829">
        <ele>258.8</ele>
        <time>2020-06-27T14:31:56Z</time>
      </trkpt>
      <trkpt lat="49.04742" lon="7.64834">
        <ele>259.1</ele>
        <time>2020-06-27T14:31:57Z</time>
      </trkpt>
      <trkpt lat="49.04741" lon="7.64838">
        <ele>259.3</ele>
        <time>2020-06-27T14:31:58Z</time>
      </trkpt>
      <trkpt lat="49.04739" lon="7.64845">
        <ele>259.7</ele>
        <time>2020-06-27T14:31:59Z</time>
      </trkpt>
      <trkpt lat="49.04738" lon="7.64851">
        <ele>260</ele>
        <time>2020-06-27T14:32:00Z</time>
      </trkpt>
      <trkpt lat="49.04736" lon="7.64857">
        <ele>260.3</ele>
        <time>2020-06-27T14:32:01Z</time>
      </trkpt>
      <trkpt lat="49.04734" lon="7.64863">
        <ele>260.6</ele>
        <time>2020-06-27T14:32:02Z</time>
      </trkpt>
      <trkpt lat="49.04732" lon="7.64869">
        <ele>260.9</ele>
        <time>2020-06-27T14:32:03Z</time>
      </trkpt>
      <trkpt lat="49.04731" lon="7.64874">
        <ele>261.2</ele>
        <time>2020-06-27T14:32:04Z</time>
      </trkpt>
      <trkpt lat="49.0473" lon="7.64879">
        <ele>261.4</ele>
        <time>2020-06-27T14:32:05Z</time>
      </trkpt>
      <trkpt lat="49.04729" lon="7.64884">
        <ele>261.6</ele>
        <time>2020-06-27T14:32:06Z</time>
      </trkpt>
      <trkpt lat="49.04727" lon="7.6489">
        <ele>261.8</ele>
        <time>2020-06-27T14:32:07Z</time>
      </trkpt>
      <trkpt lat="49.04726" lon="7.64895">
        <ele>262.1</ele>
        <time>2020-06-27T14:32:08Z</time>
      </trkpt>
      <trkpt lat="49.04725" lon="7.649">
        <ele>262.3</ele>
        <time>2020-06-27T14:32:09Z</time>
      </trkpt>
      <trkpt lat="49.04723" lon="7.64905">
        <ele>262.5</ele>
        <time>2020-06-27T14:32:10Z</time>
      </trkpt>
      <trkpt lat="49.04722" lon="7.64909">
        <ele>262.7</ele>
        <time>2020-06-27T14:32:11Z</time>
      </trkpt>
      <trkpt lat="49.04722" lon="7.64916">
        <ele>263</ele>
        <time>2020-06-27T14:32:12Z</time>
      </trkpt>
      <trkpt lat="49.04721" lon="7.64921">
        <ele>263.2</ele>
        <time>2020-06-27T14:32:13Z</time>
      </trkpt>
      <trkpt lat="49.04719" lon="7.64928">
        <ele>263.5</ele>
        <time>2020-06-27T14:32:14Z</time>
      </trkpt>
      <trkpt lat="49.04716" lon="7.64935">
        <ele>263.9</ele>
        <time>2020-06-27T14:32:15Z</time>
      </trkpt>
      <trkpt lat="49.04715" lon="7.6494">
        <ele>264.1</ele>
        <time>2020-06-27T14:32:16Z</time>
      </trkpt>
      <trkpt lat="49.04713" lon="7.64946">
        <ele>264.3</ele>
        <time>2020-06-27T14:32:17Z</time>
      </trkpt>
      <trkpt lat="49.04712" lon="7.64951">
        <ele>264.6</ele>
        <time>2020-06-27T14:32:18Z</time>
      </trkpt>
      <trkpt lat="49.04711" lon="7.64957">
        <ele>264.8</ele>
        <time>2020-06-27T14:32:19Z</time>
      </trkpt>
      <trkpt lat="49.0471" lon="7.64962">
        <ele>265</ele>
        <time>2020-06-27T14:32:20Z</time>
      </trkpt>
      <trkpt lat="49.04709" lon="7.64966">
        <ele>265.2</ele>
        <time>2020-06-27T14:32:21Z</time>
      </trkpt>
      <trkpt lat="49.04708" lon="7.64971">
        <ele>265.4</ele>
        <time>2020-06-27T14:32:22Z</time>
      </trkpt>
      <trkpt lat="49.04706" lon="7.64976">
        <ele>265.7</ele>
        <time>2020-06-27T14:32:23Z</time>
      </trkpt>
      <trkpt lat="49.04703" lon="7.6498">
        <ele>266</ele>
        <time>2020-06-27T14:32:24Z</time>
      </trkpt>
      <trkpt lat="49.047" lon="7.64985">
        <ele>266.3</ele>
        <time>2020-06-27T14:32:25Z</time>
      </trkpt>
      <trkpt lat="49.04697" lon="7.6499">
        <ele>266.6</ele>
        <time>2020-06-27T14:32:26Z</time>
      </trkpt>
      <trkpt lat="49.04694" lon="7.64994">
        <ele>266.9</ele>
        <time>2020-06-27T14:32:27Z</time>
      </trkpt>
      <trkpt lat="49.04692" lon="7.64998">
        <ele>267.1</ele>
        <time>2020-06-27T14:32:28Z</time>
      </trkpt>
      <trkpt lat="49.0469" lon="7.65001">
        <ele>267.4</ele>
        <time>2020-06-27T14:32:29Z</time>
      </trkpt>
      <trkpt lat="49.04686" lon="7.65004">
        <ele>267.7</ele>
        <time>2020-06-27T14:32:30Z</time>
      </trkpt>
      <trkpt lat="49.04684" lon="7.65007">
        <ele>267.9</ele>
        <time>2020-06-27T14:32:31Z</time>
      </trkpt>
      <trkpt lat="49.04681" lon="7.65008">
        <ele>268.1</ele>
        <time>2020-06-27T14:32:32Z</time>
      </trkpt>
      <trkpt lat="49.04678" lon="7.65011">
        <ele>268.4</ele>
        <time>2020-06-27T14:32:33Z</time>
      </trkpt>
      <trkpt lat="49.04675" lon="7.65012">
        <ele>268.7</ele>
        <time>2020-06-27T14:32:34Z</time>
      </trkpt>
      <trkpt lat="49.04671" lon="7.65014">
        <ele>268.9</ele>
        <time>2020-06-27T14:32:35Z</time>
      </trkpt>
      <trkpt lat="49.04668" lon="7.65015">
        <ele>269.2</ele>
        <time>2020-06-27T14:32:36Z</time>
      </trkpt>
      <trkpt lat="49.04665" lon="7.65016">
        <ele>269.4</ele>
        <time>2020-06-27T14:32:37Z</time>
      </trkpt>
      <trkpt lat="49.04664" lon="7.65016">
        <ele>269.4</ele>
        <time>2020-06-27T14:32:38Z</time>
      </trkpt>
      <trkpt lat="49.04661" lon="7.65017">
        <ele>269.6</ele>
        <time>2020-06-27T14:32:39Z</time>
      </trkpt>
      <trkpt lat="49.0466" lon="7.65018">
        <ele>269.7</ele>
        <time>2020-06-27T14:32:40Z</time>
      </trkpt>
      <trkpt lat="49.04657" lon="7.65019">
        <ele>269.8</ele>
        <time>2020-06-27T14:32:41Z</time>
      </trkpt>
      <trkpt lat="49.04655" lon="7.65021">
        <ele>270</ele>
        <time>2020-06-27T14:32:42Z</time>
      </trkpt>
      <trkpt lat="49.0465" lon="7.65024">
        <ele>270.2</ele>
        <time>2020-06-27T14:32:43Z</time>
      </trkpt>
      <trkpt lat="49.04647" lon="7.65025">
        <ele>270.4</ele>
        <time>2020-06-27T14:32:44Z</time>
      </trkpt>
      <trkpt lat="49.04643" lon="7.65027">
        <ele>270.6</ele>
        <time>2020-06-27T14:32:45Z</time>
      </trkpt>
      <trkpt lat="49.04638" lon="7.65029">
        <ele>270.9</ele>
        <time>2020-06-27T14:32:46Z</time>
      </trkpt>
      <trkpt lat="49.04633" lon="7.65032">
        <ele>271.2</ele>
        <time>2020-06-27T14:32:47Z</time>
      </trkpt>
      <trkpt lat="49.04629" lon="7.65034">
        <ele>271.5</ele>
        <time>2020-06-27T14:32:48Z</time>
      </trkpt>
      <trkpt lat="49.04626" lon="7.65036">
        <ele>271.7</ele>
        <time>2020-06-27T14:32:49Z</time>
      </trkpt>
      <trkpt lat="49.04622" lon="7.65038">
        <ele>271.9</ele>
        <time>2020-06-27T14:32:50Z</time>
      </trkpt>
      <trkpt lat="49.04618" lon="7.6504">
        <ele>272.1</ele>
        <time>2020-06-27T14:32:51Z</time>
      </trkpt>
      <trkpt lat="49.04614" lon="7.65044">
        <ele>272.3</ele>
        <time>2020-06-27T14:32:52Z</time>
      </trkpt>
      <trkpt lat="49.04611" lon="7.65046">
        <ele>272.5</ele>
        <time>2020-06-27T14:32:53Z</time>
      </trkpt>
      <trkpt lat="49.04609" lon="7.65049">
        <ele>272.6</ele>
        <time>2020-06-27T14:32:54Z</time>
      </trkpt>
      <trkpt lat="49.04605" lon="7.65052">
        <ele>272.8</ele>
        <time>2020-06-27T14:32:55Z</time>
      </trkpt>
      <trkpt lat="49.04602" lon="7.65053">
        <ele>272.9</ele>
        <time>2020-06-27T14:32:56Z</time>
      </trkpt>
      <trkpt lat="49.04598" lon="7.65053">
        <ele>273.1</ele>
        <time>2020-06-27T14:32:57Z</time>
      </trkpt>
      <trkpt lat="49.04596" lon="7.65053">
        <ele>273.2</ele>
        <time>2020-06-27T14:32:58Z</time>
      </trkpt>
      <trkpt lat="49.04593" lon="7.65054">
        <ele>273.3</ele>
        <time>2020-06-27T14:32:59Z</time>
      </trkpt>
      <trkpt lat="49.0459" lon="7.65056">
        <ele>273.4</ele>
        <time>2020-06-27T14:33:00Z</time>
      </trkpt>
      <trkpt lat="49.04585" lon="7.65056">
        <ele>273.6</ele>
        <time>2020-06-27T14:33:01Z</time>
      </trkpt>
      <trkpt lat="49.04582" lon="7.65057">
        <ele>273.8</ele>
        <time>2020-06-27T14:33:02Z</time>
      </trkpt>
      <trkpt lat="49.04577" lon="7.65059">
        <ele>274</ele>
        <time>2020-06-27T14:33:03Z</time>
      </trkpt>
      <trkpt lat="49.04574" lon="7.65061">
        <ele>274.2</ele>
        <time>2020-06-27T14:33:04Z</time>
      </trkpt>
      <trkpt lat="49.04572" lon="7.65063">
        <ele>274.3</ele>
        <time>2020-06-27T14:33:05Z</time>
      </trkpt>
      <trkpt lat="49.04568" lon="7.65065">
        <ele>274.5</ele>
        <time>2020-06-27T14:33:06Z</time>
      </trkpt>
      <trkpt lat="49.04564" lon="7.65066">
        <ele>274.7</ele>
        <time>2020-06-27T14:33:07Z</time>
      </trkpt>
      <trkpt lat="49.04561" lon="7.65067">
        <ele>274.9</ele>
        <time>2020-06-27T14:33:08Z</time>
      </trkpt>
      <trkpt lat="49.04558" lon="7.65068">
        <ele>275</ele>
        <time>2020-06-27T14:33:09Z</time>
      </trkpt>
      <trkpt lat="49.04554" lon="7.65071">
        <ele>275.2</ele>
        <time>2020-06-27T14:33:10Z</time>
      </trkpt>
      <trkpt lat="49.04551" lon="7.65073">
        <ele>275.4</ele>
        <time>2020-06-27T14:33:11Z</time>
      </trkpt>
      <trkpt lat="49.04549" lon="7.65076">
        <ele>275.6</ele>
        <time>2020-06-27T14:33:12Z</time>
      </trkpt>
      <trkpt lat="49.04544" lon="7.65081">
        <ele>275.9</ele>
        <time>2020-06-27T14:33:13Z</time>
      </trkpt>
      <trkpt lat="49.04539" lon="7.65083">
        <ele>276.2</ele>
        <time>2020-06-27T14:33:14Z</time>
      </trkpt>
      <trkpt lat="49.04535" lon="7.65084">
        <ele>276.4</ele>
        <time>2020-06-27T14:33:15Z</time>
      </trkpt>
      <trkpt lat="49.0453" lon="7.65086">
        <ele>276.7</ele>
        <time>2020-06-27T14:33:16Z</time>
      </trkpt>
      <trkpt lat="49.04527" lon="7.65087">
        <ele>276.9</ele>
        <time>2020-06-27T14:33:17Z</time>
      </trkpt>
      <trkpt lat="49.04524" lon="7.65089">
        <ele>277</ele>
        <time>2020-06-27T14:33:18Z</time>
      </trkpt>
      <trkpt lat="49.04521" lon="7.65092">
        <ele>277.2</ele>
        <time>2020-06-27T14:33:19Z</time>
      </trkpt>
      <trkpt lat="49.0452" lon="7.65093">
        <ele>277.2</ele>
        <time>2020-06-27T14:33:20Z</time>
      </trkpt>
      <trkpt lat="49.04517" lon="7.65096">
        <ele>277.4</ele>
        <time>2020-06-27T14:33:21Z</time>
      </trkpt>
      <trkpt lat="49.04515" lon="7.65097">
        <ele>277.5</ele>
        <time>2020-06-27T14:33:22Z</time>
      </trkpt>
      <trkpt lat="49.04513" lon="7.65099">
        <ele>277.6</ele>
        <time>2020-06-27T14:33:23Z</time>
      </trkpt>
      <trkpt lat="49.0451" lon="7.65101">
        <ele>277.8</ele>
        <time>2020-06-27T14:33:24Z</time>
      </trkpt>
      <trkpt lat="49.04507" lon="7.65103">
        <ele>278</ele>
        <time>2020-06-27T14:33:25Z</time>
      </trkpt>
      <trkpt lat="49.04504" lon="7.65104">
        <ele>278.1</ele>
        <time>2020-06-27T14:33:26Z</time>
      </trkpt>
      <trkpt lat="49.04501" lon="7.65107">
        <ele>278.3</ele>
        <time>2020-06-27T14:33:27Z</time>
      </trkpt>
      <trkpt lat="49.045" lon="7.65108">
        <ele>278.3</ele>
        <time>2020-06-27T14:33:28Z</time>
      </trkpt>
      <trkpt lat="49.04497" lon="7.65109">
        <ele>278.5</ele>
        <time>2020-06-27T14:33:29Z</time>
      </trkpt>
      <trkpt lat="49.04493" lon="7.65111">
        <ele>278.6</ele>
        <time>2020-06-27T14:33:30Z</time>
      </trkpt>
      <trkpt lat="49.04487" lon="7.65113">
        <ele>278.8</ele>
        <time>2020-06-27T14:33:31Z</time>
      </trkpt>
      <trkpt lat="49.04483" lon="7.65115">
        <ele>278.9</ele>
        <time>2020-06-27T14:33:32Z</time>
      </trkpt>
      <trkpt lat="49.04479" lon="7.65118">
        <ele>279</ele>
        <time>2020-06-27T14:33:33Z</time>
      </trkpt>
      <trkpt lat="49.04477" lon="7.65119">
        <ele>279</ele>
        <time>2020-06-27T14:33:34Z</time>
      </trkpt>
      <trkpt lat="49.04476" lon="7.6512">
        <ele>278.9</ele>
        <time>2020-06-27T14:33:35Z</time>
      </trkpt>
      <trkpt lat="49.04473" lon="7.65122">
        <ele>278.9</ele>
        <time>2020-06-27T14:33:36Z</time>
      </trkpt>
      <trkpt lat="49.04471" lon="7.65124">
        <ele>278.6</ele>
        <time>2020-06-27T14:33:37Z</time>
      </trkpt>
      <trkpt lat="49.04467" lon="7.65128">
        <ele>278.7</ele>
        <time>2020-06-27T14:33:38Z</time>
      </trkpt>
      <trkpt lat="49.04465" lon="7.65129">
        <ele>278.7</ele>
        <time>2020-06-27T14:33:39Z</time>
      </trkpt>
      <trkpt lat="49.04463" lon="7.65132">
        <ele>278.7</ele>
        <time>2020-06-27T14:33:40Z</time>
      </trkpt>
      <trkpt lat="49.04461" lon="7.65135">
        <ele>278.7</ele>
        <time>2020-06-27T14:33:41Z</time>
      </trkpt>
      <trkpt lat="49.04458" lon="7.65138">
        <ele>278.7</ele>
        <time>2020-06-27T14:33:42Z</time>
      </trkpt>
      <trkpt lat="49.04456" lon="7.65142">
        <ele>278.8</ele>
        <time>2020-06-27T14:33:43Z</time>
      </trkpt>
      <trkpt lat="49.04453" lon="7.65145">
        <ele>278.8</ele>
        <time>2020-06-27T14:33:44Z</time>
      </trkpt>
      <trkpt lat="49.04451" lon="7.65148">
        <ele>278.8</ele>
        <time>2020-06-27T14:33:45Z</time>
      </trkpt>
      <trkpt lat="49.04448" lon="7.65152">
        <ele>278.9</ele>
        <time>2020-06-27T14:33:46Z</time>
      </trkpt>
      <trkpt lat="49.04445" lon="7.65154">
        <ele>278.9</ele>
        <time>2020-06-27T14:33:47Z</time>
      </trkpt>
      <trkpt lat="49.04443" lon="7.65155">
        <ele>278.9</ele>
        <time>2020-06-27T14:33:48Z</time>
      </trkpt>
      <trkpt lat="49.04439" lon="7.65159">
        <ele>279</ele>
        <time>2020-06-27T14:33:49Z</time>
      </trkpt>
      <trkpt lat="49.04436" lon="7.65162">
        <ele>279</ele>
        <time>2020-06-27T14:33:50Z</time>
      </trkpt>
      <trkpt lat="49.04432" lon="7.65164">
        <ele>279</ele>
        <time>2020-06-27T14:33:51Z</time>
      </trkpt>
      <trkpt lat="49.04429" lon="7.65168">
        <ele>279</ele>
        <time>2020-06-27T14:33:52Z</time>
      </trkpt>
      <trkpt lat="49.04427" lon="7.6517">
        <ele>279</ele>
        <time>2020-06-27T14:33:53Z</time>
      </trkpt>
      <trkpt lat="49.04424" lon="7.65174">
        <ele>279</ele>
        <time>2020-06-27T14:33:54Z</time>
      </trkpt>
      <trkpt lat="49.04421" lon="7.65177">
        <ele>279</ele>
        <time>2020-06-27T14:33:55Z</time>
      </trkpt>
      <trkpt lat="49.04418" lon="7.65179">
        <ele>279</ele>
        <time>2020-06-27T14:33:56Z</time>
      </trkpt>
      <trkpt lat="49.04415" lon="7.65181">
        <ele>279</ele>
        <time>2020-06-27T14:33:57Z</time>
      </trkpt>
      <trkpt lat="49.04412" lon="7.65182">
        <ele>279</ele>
        <time>2020-06-27T14:33:58Z</time>
      </trkpt>
      <trkpt lat="49.04408" lon="7.65183">
        <ele>279</ele>
        <time>2020-06-27T14:33:59Z</time>
      </trkpt>
      <trkpt lat="49.04404" lon="7.65184">
        <ele>279.1</ele>
        <time>2020-06-27T14:34:00Z</time>
      </trkpt>
      <trkpt lat="49.044" lon="7.65185">
        <ele>279.1</ele>
        <time>2020-06-27T14:34:01Z</time>
      </trkpt>
      <trkpt lat="49.04398" lon="7.65185">
        <ele>279.1</ele>
        <time>2020-06-27T14:34:02Z</time>
      </trkpt>
      <trkpt lat="49.04395" lon="7.65186">
        <ele>279.2</ele>
        <time>2020-06-27T14:34:03Z</time>
      </trkpt>
      <trkpt lat="49.04394" lon="7.65186">
        <ele>279.2</ele>
        <time>2020-06-27T14:34:04Z</time>
      </trkpt>
      <trkpt lat="49.0439" lon="7.65186">
        <ele>279.2</ele>
        <time>2020-06-27T14:34:05Z</time>
      </trkpt>
      <trkpt lat="49.04387" lon="7.65186">
        <ele>279.2</ele>
        <time>2020-06-27T14:34:06Z</time>
      </trkpt>
      <trkpt lat="49.04383" lon="7.65185">
        <ele>279.2</ele>
        <time>2020-06-27T14:34:07Z</time>
      </trkpt>
      <trkpt lat="49.04383" lon="7.65184">
        <ele>279.2</ele>
        <time>2020-06-27T14:34:08Z</time>
      </trkpt>
      <trkpt lat="49.0438" lon="7.65183">
        <ele>279.2</ele>
        <time>2020-06-27T14:34:09Z</time>
      </trkpt>
      <trkpt lat="49.04379" lon="7.65182">
        <ele>279.2</ele>
        <time>2020-06-27T14:34:10Z</time>
      </trkpt>
      <trkpt lat="49.04377" lon="7.65182">
        <ele>279.2</ele>
        <time>2020-06-27T14:34:11Z</time>
      </trkpt>
      <trkpt lat="49.04377" lon="7.65182">
        <ele>279.2</ele>
        <time>2020-06-27T14:34:12Z</time>
      </trkpt>
      <trkpt lat="49.04376" lon="7.65182">
        <ele>279.2</ele>
        <time>2020-06-27T14:34:13Z</time>
      </trkpt>
      <trkpt lat="49.04374" lon="7.65181">
        <ele>279.2</ele>
        <time>2020-06-27T14:34:14Z</time>
      </trkpt>
      <trkpt lat="49.04373" lon="7.6518">
        <ele>279.2</ele>
        <time>2020-06-27T14:34:15Z</time>
      </trkpt>
      <trkpt lat="49.04372" lon="7.65179">
        <ele>279.2</ele>
        <time>2020-06-27T14:34:16Z</time>
      </trkpt>
      <trkpt lat="49.04369" lon="7.65178">
        <ele>279.2</ele>
        <time>2020-06-27T14:34:17Z</time>
      </trkpt>
      <trkpt lat="49.04368" lon="7.65178">
        <ele>279.2</ele>
        <time>2020-06-27T14:34:18Z</time>
      </trkpt>
      <trkpt lat="49.04365" lon="7.65177">
        <ele>279.2</ele>
        <time>2020-06-27T14:34:19Z</time>
      </trkpt>
      <trkpt lat="49.04364" lon="7.65177">
        <ele>279.1</ele>
        <time>2020-06-27T14:34:20Z</time>
      </trkpt>
      <trkpt lat="49.04364" lon="7.65177">
        <ele>279.1</ele>
        <time>2020-06-27T14:34:21Z</time>
      </trkpt>
      <trkpt lat="49.04363" lon="7.65176">
        <ele>279.1</ele>
        <time>2020-06-27T14:34:22Z</time>
      </trkpt>
      <trkpt lat="49.04361" lon="7.65176">
        <ele>279.1</ele>
        <time>2020-06-27T14:34:23Z</time>
      </trkpt>
      <trkpt lat="49.04358" lon="7.65175">
        <ele>279</ele>
        <time>2020-06-27T14:34:24Z</time>
      </trkpt>
      <trkpt lat="49.04357" lon="7.65175">
        <ele>279</ele>
        <time>2020-06-27T14:34:25Z</time>
      </trkpt>
      <trkpt lat="49.04354" lon="7.65174">
        <ele>279</ele>
        <time>2020-06-27T14:34:26Z</time>
      </trkpt>
      <trkpt lat="49.04353" lon="7.65173">
        <ele>278.9</ele>
        <time>2020-06-27T14:34:27Z</time>
      </trkpt>
      <trkpt lat="49.04349" lon="7.65172">
        <ele>278.8</ele>
        <time>2020-06-27T14:34:28Z</time>
      </trkpt>
      <trkpt lat="49.04346" lon="7.65171">
        <ele>278.8</ele>
        <time>2020-06-27T14:34:29Z</time>
      </trkpt>
      <trkpt lat="49.04343" lon="7.65169">
        <ele>278.7</ele>
        <time>2020-06-27T14:34:30Z</time>
      </trkpt>
      <trkpt lat="49.04342" lon="7.65168">
        <ele>278.6</ele>
        <time>2020-06-27T14:34:31Z</time>
      </trkpt>
      <trkpt lat="49.04338" lon="7.65167">
        <ele>278.5</ele>
        <time>2020-06-27T14:34:32Z</time>
      </trkpt>
      <trkpt lat="49.04334" lon="7.65164">
        <ele>278.3</ele>
        <time>2020-06-27T14:34:33Z</time>
      </trkpt>
      <trkpt lat="49.04329" lon="7.65162">
        <ele>278.2</ele>
        <time>2020-06-27T14:34:34Z</time>
      </trkpt>
      <trkpt lat="49.04326" lon="7.6516">
        <ele>278</ele>
        <time>2020-06-27T14:34:35Z</time>
      </trkpt>
      <trkpt lat="49.04322" lon="7.65158">
        <ele>277.9</ele>
        <time>2020-06-27T14:34:36Z</time>
      </trkpt>
      <trkpt lat="49.04321" lon="7.65158">
        <ele>277.8</ele>
        <time>2020-06-27T14:34:37Z</time>
      </trkpt>
      <trkpt lat="49.04318" lon="7.65157">
        <ele>277.7</ele>
        <time>2020-06-27T14:34:38Z</time>
      </trkpt>
      <trkpt lat="49.04314" lon="7.65155">
        <ele>277.5</ele>
        <time>2020-06-27T14:34:39Z</time>
      </trkpt>
      <trkpt lat="49.04309" lon="7.65153">
        <ele>277.2</ele>
        <time>2020-06-27T14:34:40Z</time>
      </trkpt>
      <trkpt lat="49.04304" lon="7.6515">
        <ele>277</ele>
        <time>2020-06-27T14:34:41Z</time>
      </trkpt>
      <trkpt lat="49.04298" lon="7.65147">
        <ele>276.7</ele>
        <time>2020-06-27T14:34:42Z</time>
      </trkpt>
      <trkpt lat="49.04289" lon="7.65142">
        <ele>276.2</ele>
        <time>2020-06-27T14:34:43Z</time>
      </trkpt>
      <trkpt lat="49.04282" lon="7.65138">
        <ele>275.9</ele>
        <time>2020-06-27T14:34:44Z</time>
      </trkpt>
      <trkpt lat="49.04276" lon="7.65134">
        <ele>275.6</ele>
        <time>2020-06-27T14:34:45Z</time>
      </trkpt>
      <trkpt lat="49.0427" lon="7.6513">
        <ele>275.3</ele>
        <time>2020-06-27T14:34:46Z</time>
      </trkpt>
      <trkpt lat="49.04264" lon="7.65126">
        <ele>274.9</ele>
        <time>2020-06-27T14:34:47Z</time>
      </trkpt>
      <trkpt lat="49.04256" lon="7.65121">
        <ele>274.6</ele>
        <time>2020-06-27T14:34:48Z</time>
      </trkpt>
      <trkpt lat="49.04248" lon="7.65118">
        <ele>274.2</ele>
        <time>2020-06-27T14:34:49Z</time>
      </trkpt>
      <trkpt lat="49.04241" lon="7.65115">
        <ele>273.9</ele>
        <time>2020-06-27T14:34:50Z</time>
      </trkpt>
      <trkpt lat="49.04229" lon="7.65113">
        <ele>273.2</ele>
        <time>2020-06-27T14:34:51Z</time>
      </trkpt>
      <trkpt lat="49.04219" lon="7.65112">
        <ele>272.7</ele>
        <time>2020-06-27T14:34:52Z</time>
      </trkpt>
      <trkpt lat="49.0421" lon="7.65112">
        <ele>272.3</ele>
        <time>2020-06-27T14:34:53Z</time>
      </trkpt>
      <trkpt lat="49.04201" lon="7.65115">
        <ele>271.9</ele>
        <time>2020-06-27T14:34:54Z</time>
      </trkpt>
      <trkpt lat="49.04194" lon="7.6512">
        <ele>271.6</ele>
        <time>2020-06-27T14:34:55Z</time>
      </trkpt>
      <trkpt lat="49.0419" lon="7.65129">
        <ele>271.4</ele>
        <time>2020-06-27T14:34:56Z</time>
      </trkpt>
      <trkpt lat="49.04187" lon="7.65139">
        <ele>271.1</ele>
        <time>2020-06-27T14:34:57Z</time>
      </trkpt>
      <trkpt lat="49.04184" lon="7.65148">
        <ele>270.9</ele>
        <time>2020-06-27T14:34:58Z</time>
      </trkpt>
      <trkpt lat="49.04181" lon="7.65157">
        <ele>270.6</ele>
        <time>2020-06-27T14:34:59Z</time>
      </trkpt>
      <trkpt lat="49.04179" lon="7.65167">
        <ele>270.4</ele>
        <time>2020-06-27T14:35:00Z</time>
      </trkpt>
      <trkpt lat="49.04177" lon="7.65177">
        <ele>270.1</ele>
        <time>2020-06-27T14:35:01Z</time>
      </trkpt>
      <trkpt lat="49.04175" lon="7.65188">
        <ele>269.8</ele>
        <time>2020-06-27T14:35:02Z</time>
      </trkpt>
      <trkpt lat="49.04178" lon="7.65198">
        <ele>269.6</ele>
        <time>2020-06-27T14:35:03Z</time>
      </trkpt>
      <trkpt lat="49.0418" lon="7.6521">
        <ele>269.3</ele>
        <time>2020-06-27T14:35:04Z</time>
      </trkpt>
      <trkpt lat="49.04182" lon="7.65223">
        <ele>269</ele>
        <time>2020-06-27T14:35:05Z</time>
      </trkpt>
      <trkpt lat="49.04183" lon="7.65237">
        <ele>268.6</ele>
        <time>2020-06-27T14:35:06Z</time>
      </trkpt>
      <trkpt lat="49.04184" lon="7.65251">
        <ele>268.3</ele>
        <time>2020-06-27T14:35:07Z</time>
      </trkpt>
      <trkpt lat="49.04185" lon="7.65265">
        <ele>268</ele>
        <time>2020-06-27T14:35:08Z</time>
      </trkpt>
      <trkpt lat="49.04187" lon="7.65279">
        <ele>267.6</ele>
        <time>2020-06-27T14:35:09Z</time>
      </trkpt>
      <trkpt lat="49.04189" lon="7.65293">
        <ele>267.3</ele>
        <time>2020-06-27T14:35:10Z</time>
      </trkpt>
      <trkpt lat="49.04192" lon="7.65306">
        <ele>266.9</ele>
        <time>2020-06-27T14:35:11Z</time>
      </trkpt>
      <trkpt lat="49.04194" lon="7.6532">
        <ele>266.5</ele>
        <time>2020-06-27T14:35:12Z</time>
      </trkpt>
      <trkpt lat="49.04196" lon="7.65335">
        <ele>266.2</ele>
        <time>2020-06-27T14:35:13Z</time>
      </trkpt>
      <trkpt lat="49.04198" lon="7.65349">
        <ele>265.8</ele>
        <time>2020-06-27T14:35:14Z</time>
      </trkpt>
      <trkpt lat="49.042" lon="7.65363">
        <ele>265.5</ele>
        <time>2020-06-27T14:35:15Z</time>
      </trkpt>
      <trkpt lat="49.04201" lon="7.65377">
        <ele>265.2</ele>
        <time>2020-06-27T14:35:16Z</time>
      </trkpt>
      <trkpt lat="49.04202" lon="7.6539">
        <ele>264.9</ele>
        <time>2020-06-27T14:35:17Z</time>
      </trkpt>
      <trkpt lat="49.04205" lon="7.65401">
        <ele>264.7</ele>
        <time>2020-06-27T14:35:18Z</time>
      </trkpt>
      <trkpt lat="49.04205" lon="7.65414">
        <ele>264.5</ele>
        <time>2020-06-27T14:35:19Z</time>
      </trkpt>
      <trkpt lat="49.04206" lon="7.65427">
        <ele>264.2</ele>
        <time>2020-06-27T14:35:20Z</time>
      </trkpt>
      <trkpt lat="49.04208" lon="7.65441">
        <ele>264</ele>
        <time>2020-06-27T14:35:21Z</time>
      </trkpt>
      <trkpt lat="49.0421" lon="7.65453">
        <ele>263.7</ele>
        <time>2020-06-27T14:35:22Z</time>
      </trkpt>
      <trkpt lat="49.04212" lon="7.65466">
        <ele>263.5</ele>
        <time>2020-06-27T14:35:23Z</time>
      </trkpt>
      <trkpt lat="49.04213" lon="7.65479">
        <ele>263.3</ele>
        <time>2020-06-27T14:35:24Z</time>
      </trkpt>
      <trkpt lat="49.04215" lon="7.65492">
        <ele>263.1</ele>
        <time>2020-06-27T14:35:25Z</time>
      </trkpt>
      <trkpt lat="49.04216" lon="7.65503">
        <ele>262.9</ele>
        <time>2020-06-27T14:35:26Z</time>
      </trkpt>
      <trkpt lat="49.04217" lon="7.65511">
        <ele>262.8</ele>
        <time>2020-06-27T14:35:27Z</time>
      </trkpt>
      <trkpt lat="49.04217" lon="7.65517">
        <ele>262.7</ele>
        <time>2020-06-27T14:35:28Z</time>
      </trkpt>
      <trkpt lat="49.04216" lon="7.65519">
        <ele>262.7</ele>
        <time>2020-06-27T14:35:29Z</time>
      </trkpt>
      <trkpt lat="49.04219" lon="7.65519">
        <ele>262.7</ele>
        <time>2020-06-27T14:35:30Z</time>
      </trkpt>
      <trkpt lat="49.04219" lon="7.6552">
        <ele>262.6</ele>
        <time>2020-06-27T14:35:31Z</time>
      </trkpt>
      <trkpt lat="49.04219" lon="7.6552">
        <ele>262.6</ele>
        <time>2020-06-27T14:35:32Z</time>
      </trkpt>
      <trkpt lat="49.04219" lon="7.65521">
        <ele>262.6</ele>
        <time>2020-06-27T14:35:33Z</time>
      </trkpt>
      <trkpt lat="49.04219" lon="7.65521">
        <ele>262.6</ele>
        <time>2020-06-27T14:35:34Z</time>
      </trkpt>
      <trkpt lat="49.04218" lon="7.65521">
        <ele>262.6</ele>
        <time>2020-06-27T14:35:35Z</time>
      </trkpt>
      <trkpt lat="49.04218" lon="7.65522">
        <ele>262.6</ele>
        <time>2020-06-27T14:35:36Z</time>
      </trkpt>
      <trkpt lat="49.04218" lon="7.65522">
        <ele>262.6</ele>
        <time>2020-06-27T14:35:37Z</time>
      </trkpt>
      <trkpt lat="49.04218" lon="7.65522">
        <ele>262.6</ele>
        <time>2020-06-27T14:35:38Z</time>
      </trkpt>
      <trkpt lat="49.04217" lon="7.65523">
        <ele>262.6</ele>
        <time>2020-06-27T14:35:39Z</time>
      </trkpt>
      <trkpt lat="49.04217" lon="7.65523">
        <ele>262.6</ele>
        <time>2020-06-27T14:35:40Z</time>
      </trkpt>
      <trkpt lat="49.04217" lon="7.65523">
        <ele>262.6</ele>
        <time>2020-06-27T14:35:41Z</time>
      </trkpt>
      <trkpt lat="49.04215" lon="7.65524">
        <ele>262.5</ele>
        <time>2020-06-27T14:35:42Z</time>
      </trkpt>
      <trkpt lat="49.04214" lon="7.65524">
        <ele>262.5</ele>
        <time>2020-06-27T14:35:43Z</time>
      </trkpt>
      <trkpt lat="49.04213" lon="7.65524">
        <ele>262.5</ele>
        <time>2020-06-27T14:35:44Z</time>
      </trkpt>
      <trkpt lat="49.04237" lon="7.65557">
        <ele>261.9</ele>
        <time>2020-06-27T14:38:27Z</time>
      </trkpt>
      <trkpt lat="49.04237" lon="7.65556">
        <ele>261.9</ele>
        <time>2020-06-27T14:38:28Z</time>
      </trkpt>
      <trkpt lat="49.04237" lon="7.65555">
        <ele>261.9</ele>
        <time>2020-06-27T14:38:29Z</time>
      </trkpt>
      <trkpt lat="49.04237" lon="7.65556">
        <ele>261.9</ele>
        <time>2020-06-27T14:38:30Z</time>
      </trkpt>
      <trkpt lat="49.04236" lon="7.65556">
        <ele>261.9</ele>
        <time>2020-06-27T14:38:31Z</time>
      </trkpt>
      <trkpt lat="49.04235" lon="7.65559">
        <ele>261.9</ele>
        <time>2020-06-27T14:38:32Z</time>
      </trkpt>
      <trkpt lat="49.04235" lon="7.65559">
        <ele>261.9</ele>
        <time>2020-06-27T14:38:33Z</time>
      </trkpt>
      <trkpt lat="49.04234" lon="7.65559">
        <ele>261.8</ele>
        <time>2020-06-27T14:38:34Z</time>
      </trkpt>
      <trkpt lat="49.04233" lon="7.65559">
        <ele>261.8</ele>
        <time>2020-06-27T14:38:35Z</time>
      </trkpt>
      <trkpt lat="49.04232" lon="7.65559">
        <ele>261.8</ele>
        <time>2020-06-27T14:38:36Z</time>
      </trkpt>
      <trkpt lat="49.04232" lon="7.65559">
        <ele>261.8</ele>
        <time>2020-06-27T14:38:37Z</time>
      </trkpt>
      <trkpt lat="49.04231" lon="7.65559">
        <ele>261.8</ele>
        <time>2020-06-27T14:38:38Z</time>
      </trkpt>
      <trkpt lat="49.04232" lon="7.65559">
        <ele>261.8</ele>
        <time>2020-06-27T14:38:39Z</time>
      </trkpt>
      <trkpt lat="49.04233" lon="7.65559">
        <ele>261.8</ele>
        <time>2020-06-27T14:38:40Z</time>
      </trkpt>
      <trkpt lat="49.04232" lon="7.65558">
        <ele>261.8</ele>
        <time>2020-06-27T14:38:41Z</time>
      </trkpt>
      <trkpt lat="49.04232" lon="7.65557">
        <ele>261.7</ele>
        <time>2020-06-27T14:38:42Z</time>
      </trkpt>
      <trkpt lat="49.04233" lon="7.65556">
        <ele>261.7</ele>
        <time>2020-06-27T14:38:43Z</time>
      </trkpt>
      <trkpt lat="49.04232" lon="7.65554">
        <ele>261.7</ele>
        <time>2020-06-27T14:38:44Z</time>
      </trkpt>
      <trkpt lat="49.04233" lon="7.65553">
        <ele>261.7</ele>
        <time>2020-06-27T14:38:45Z</time>
      </trkpt>
      <trkpt lat="49.04234" lon="7.65552">
        <ele>261.7</ele>
        <time>2020-06-27T14:38:46Z</time>
      </trkpt>
      <trkpt lat="49.04233" lon="7.65552">
        <ele>261.7</ele>
        <time>2020-06-27T14:38:47Z</time>
      </trkpt>
      <trkpt lat="49.04232" lon="7.65552">
        <ele>261.7</ele>
        <time>2020-06-27T14:38:48Z</time>
      </trkpt>
      <trkpt lat="49.04232" lon="7.65553">
        <ele>261.7</ele>
        <time>2020-06-27T14:38:49Z</time>
      </trkpt>
      <trkpt lat="49.04233" lon="7.65555">
        <ele>261.6</ele>
        <time>2020-06-27T14:38:50Z</time>
      </trkpt>
      <trkpt lat="49.04234" lon="7.65555">
        <ele>261.6</ele>
        <time>2020-06-27T14:38:51Z</time>
      </trkpt>
      <trkpt lat="49.04233" lon="7.65554">
        <ele>261.6</ele>
        <time>2020-06-27T14:38:52Z</time>
      </trkpt>
      <trkpt lat="49.04234" lon="7.65554">
        <ele>261.6</ele>
        <time>2020-06-27T14:38:53Z</time>
      </trkpt>
      <trkpt lat="49.04233" lon="7.65554">
        <ele>261.6</ele>
        <time>2020-06-27T14:38:54Z</time>
      </trkpt>
      <trkpt lat="49.04233" lon="7.65555">
        <ele>261.6</ele>
        <time>2020-06-27T14:38:55Z</time>
      </trkpt>
      <trkpt lat="49.04232" lon="7.65556">
        <ele>261.6</ele>
        <time>2020-06-27T14:38:56Z</time>
      </trkpt>
      <trkpt lat="49.04231" lon="7.65558">
        <ele>261.5</ele>
        <time>2020-06-27T14:38:57Z</time>
      </trkpt>
      <trkpt lat="49.04231" lon="7.65565">
        <ele>261.5</ele>
        <time>2020-06-27T14:38:58Z</time>
      </trkpt>
      <trkpt lat="49.04231" lon="7.6557">
        <ele>261.5</ele>
        <time>2020-06-27T14:38:59Z</time>
      </trkpt>
      <trkpt lat="49.0423" lon="7.65575">
        <ele>261.4</ele>
        <time>2020-06-27T14:39:00Z</time>
      </trkpt>
      <trkpt lat="49.04229" lon="7.6558">
        <ele>261.4</ele>
        <time>2020-06-27T14:39:01Z</time>
      </trkpt>
      <trkpt lat="49.04228" lon="7.65584">
        <ele>261.3</ele>
        <time>2020-06-27T14:39:02Z</time>
      </trkpt>
      <trkpt lat="49.04226" lon="7.65588">
        <ele>261.3</ele>
        <time>2020-06-27T14:39:03Z</time>
      </trkpt>
      <trkpt lat="49.04225" lon="7.6559">
        <ele>261.3</ele>
        <time>2020-06-27T14:39:04Z</time>
      </trkpt>
      <trkpt lat="49.04224" lon="7.65592">
        <ele>261.3</ele>
        <time>2020-06-27T14:39:05Z</time>
      </trkpt>
      <trkpt lat="49.04223" lon="7.65592">
        <ele>261.3</ele>
        <time>2020-06-27T14:39:06Z</time>
      </trkpt>
      <trkpt lat="49.04223" lon="7.65591">
        <ele>261.2</ele>
        <time>2020-06-27T14:39:07Z</time>
      </trkpt>
      <trkpt lat="49.04222" lon="7.65591">
        <ele>261.2</ele>
        <time>2020-06-27T14:39:08Z</time>
      </trkpt>
      <trkpt lat="49.04222" lon="7.65592">
        <ele>261.2</ele>
        <time>2020-06-27T14:39:09Z</time>
      </trkpt>
      <trkpt lat="49.04222" lon="7.65594">
        <ele>261.2</ele>
        <time>2020-06-27T14:39:10Z</time>
      </trkpt>
      <trkpt lat="49.04222" lon="7.65595">
        <ele>261.2</ele>
        <time>2020-06-27T14:39:11Z</time>
      </trkpt>
      <trkpt lat="49.04222" lon="7.65595">
        <ele>261.2</ele>
        <time>2020-06-27T14:39:12Z</time>
      </trkpt>
      <trkpt lat="49.04222" lon="7.65596">
        <ele>261.2</ele>
        <time>2020-06-27T14:39:13Z</time>
      </trkpt>
      <trkpt lat="49.04222" lon="7.65596">
        <ele>261.2</ele>
        <time>2020-06-27T14:39:14Z</time>
      </trkpt>
      <trkpt lat="49.04223" lon="7.65596">
        <ele>261.2</ele>
        <time>2020-06-27T14:39:15Z</time>
      </trkpt>
      <trkpt lat="49.04223" lon="7.65595">
        <ele>261.2</ele>
        <time>2020-06-27T14:39:16Z</time>
      </trkpt>
      <trkpt lat="49.04222" lon="7.65594">
        <ele>261.2</ele>
        <time>2020-06-27T14:39:17Z</time>
      </trkpt>
      <trkpt lat="49.04221" lon="7.65594">
        <ele>261.2</ele>
        <time>2020-06-27T14:39:18Z</time>
      </trkpt>
      <trkpt lat="49.0422" lon="7.65594">
        <ele>261.2</ele>
        <time>2020-06-27T14:39:19Z</time>
      </trkpt>
      <trkpt lat="49.04219" lon="7.65595">
        <ele>261.2</ele>
        <time>2020-06-27T14:39:20Z</time>
      </trkpt>
      <trkpt lat="49.04218" lon="7.65595">
        <ele>261.1</ele>
        <time>2020-06-27T14:39:21Z</time>
      </trkpt>
      <trkpt lat="49.04218" lon="7.65594">
        <ele>261.1</ele>
        <time>2020-06-27T14:39:22Z</time>
      </trkpt>
      <trkpt lat="49.04217" lon="7.65594">
        <ele>261.1</ele>
        <time>2020-06-27T14:39:23Z</time>
      </trkpt>
      <trkpt lat="49.04216" lon="7.65594">
        <ele>261.1</ele>
        <time>2020-06-27T14:39:24Z</time>
      </trkpt>
      <trkpt lat="49.04216" lon="7.65594">
        <ele>261.1</ele>
        <time>2020-06-27T14:39:25Z</time>
      </trkpt>
      <trkpt lat="49.04215" lon="7.65594">
        <ele>261.1</ele>
        <time>2020-06-27T14:39:26Z</time>
      </trkpt>
      <trkpt lat="49.04214" lon="7.65594">
        <ele>261.1</ele>
        <time>2020-06-27T14:39:27Z</time>
      </trkpt>
      <trkpt lat="49.04213" lon="7.65594">
        <ele>261.1</ele>
        <time>2020-06-27T14:39:28Z</time>
      </trkpt>
      <trkpt lat="49.04213" lon="7.65594">
        <ele>261.1</ele>
        <time>2020-06-27T14:39:29Z</time>
      </trkpt>
      <trkpt lat="49.04213" lon="7.65594">
        <ele>261.1</ele>
        <time>2020-06-27T14:39:30Z</time>
      </trkpt>
      <trkpt lat="49.04212" lon="7.65594">
        <ele>261.1</ele>
        <time>2020-06-27T14:39:31Z</time>
      </trkpt>
      <trkpt lat="49.04212" lon="7.65595">
        <ele>261.1</ele>
        <time>2020-06-27T14:39:32Z</time>
      </trkpt>
      <trkpt lat="49.04211" lon="7.65596">
        <ele>261.1</ele>
        <time>2020-06-27T14:39:33Z</time>
      </trkpt>
      <trkpt lat="49.0421" lon="7.65597">
        <ele>261</ele>
        <time>2020-06-27T14:39:34Z</time>
      </trkpt>
      <trkpt lat="49.0421" lon="7.65599">
        <ele>261</ele>
        <time>2020-06-27T14:39:35Z</time>
      </trkpt>
      <trkpt lat="49.04209" lon="7.65599">
        <ele>261</ele>
        <time>2020-06-27T14:39:36Z</time>
      </trkpt>
      <trkpt lat="49.04209" lon="7.65599">
        <ele>261</ele>
        <time>2020-06-27T14:39:37Z</time>
      </trkpt>
      <trkpt lat="49.04208" lon="7.65599">
        <ele>261</ele>
        <time>2020-06-27T14:39:38Z</time>
      </trkpt>
      <trkpt lat="49.04208" lon="7.65598">
        <ele>261</ele>
        <time>2020-06-27T14:39:39Z</time>
      </trkpt>
      <trkpt lat="49.04208" lon="7.65598">
        <ele>261</ele>
        <time>2020-06-27T14:39:40Z</time>
      </trkpt>
      <trkpt lat="49.04208" lon="7.65598">
        <ele>261</ele>
        <time>2020-06-27T14:39:41Z</time>
      </trkpt>
      <trkpt lat="49.04208" lon="7.65598">
        <ele>261</ele>
        <time>2020-06-27T14:39:42Z</time>
      </trkpt>
      <trkpt lat="49.04208" lon="7.65598">
        <ele>261</ele>
        <time>2020-06-27T14:39:43Z</time>
      </trkpt>
      <trkpt lat="49.04207" lon="7.65597">
        <ele>261</ele>
        <time>2020-06-27T14:39:44Z</time>
      </trkpt>
      <trkpt lat="49.04207" lon="7.65598">
        <ele>261</ele>
        <time>2020-06-27T14:39:45Z</time>
      </trkpt>
      <trkpt lat="49.04208" lon="7.65597">
        <ele>261</ele>
        <time>2020-06-27T14:39:46Z</time>
      </trkpt>
      <trkpt lat="49.04208" lon="7.65596">
        <ele>261</ele>
        <time>2020-06-27T14:39:47Z</time>
      </trkpt>
      <trkpt lat="49.04209" lon="7.65595">
        <ele>261</ele>
        <time>2020-06-27T14:39:48Z</time>
      </trkpt>
      <trkpt lat="49.04209" lon="7.65595">
        <ele>261</ele>
        <time>2020-06-27T14:39:49Z</time>
      </trkpt>
      <trkpt lat="49.04209" lon="7.65594">
        <ele>261</ele>
        <time>2020-06-27T14:39:50Z</time>
      </trkpt>
      <trkpt lat="49.04211" lon="7.65594">
        <ele>260.9</ele>
        <time>2020-06-27T14:39:51Z</time>
      </trkpt>
      <trkpt lat="49.04212" lon="7.65593">
        <ele>260.9</ele>
        <time>2020-06-27T14:39:52Z</time>
      </trkpt>
      <trkpt lat="49.04212" lon="7.65593">
        <ele>260.9</ele>
        <time>2020-06-27T14:39:53Z</time>
      </trkpt>
      <trkpt lat="49.04213" lon="7.65593">
        <ele>260.9</ele>
        <time>2020-06-27T14:39:54Z</time>
      </trkpt>
      <trkpt lat="49.04214" lon="7.65593">
        <ele>260.9</ele>
        <time>2020-06-27T14:39:55Z</time>
      </trkpt>
      <trkpt lat="49.04215" lon="7.65593">
        <ele>260.9</ele>
        <time>2020-06-27T14:39:56Z</time>
      </trkpt>
      <trkpt lat="49.04216" lon="7.65593">
        <ele>260.9</ele>
        <time>2020-06-27T14:39:57Z</time>
      </trkpt>
      <trkpt lat="49.04216" lon="7.65593">
        <ele>260.9</ele>
        <time>2020-06-27T14:39:58Z</time>
      </trkpt>
      <trkpt lat="49.04218" lon="7.65594">
        <ele>260.9</ele>
        <time>2020-06-27T14:39:59Z</time>
      </trkpt>
      <trkpt lat="49.04218" lon="7.65594">
        <ele>260.9</ele>
        <time>2020-06-27T14:40:00Z</time>
      </trkpt>
      <trkpt lat="49.04218" lon="7.65595">
        <ele>260.9</ele>
        <time>2020-06-27T14:40:01Z</time>
      </trkpt>
      <trkpt lat="49.04218" lon="7.65594">
        <ele>260.9</ele>
        <time>2020-06-27T14:40:02Z</time>
      </trkpt>
      <trkpt lat="49.04217" lon="7.65595">
        <ele>260.9</ele>
        <time>2020-06-27T14:40:03Z</time>
      </trkpt>
      <trkpt lat="49.04216" lon="7.65596">
        <ele>260.8</ele>
        <time>2020-06-27T14:40:04Z</time>
      </trkpt>
      <trkpt lat="49.04216" lon="7.65597">
        <ele>260.8</ele>
        <time>2020-06-27T14:40:05Z</time>
      </trkpt>
      <trkpt lat="49.04216" lon="7.65597">
        <ele>260.8</ele>
        <time>2020-06-27T14:40:06Z</time>
      </trkpt>
      <trkpt lat="49.04216" lon="7.65597">
        <ele>260.8</ele>
        <time>2020-06-27T14:40:07Z</time>
      </trkpt>
      <trkpt lat="49.04216" lon="7.65597">
        <ele>260.8</ele>
        <time>2020-06-27T14:40:08Z</time>
      </trkpt>
      <trkpt lat="49.04216" lon="7.65597">
        <ele>260.8</ele>
        <time>2020-06-27T14:40:09Z</time>
      </trkpt>
      <trkpt lat="49.04216" lon="7.65597">
        <ele>260.8</ele>
        <time>2020-06-27T14:40:10Z</time>
      </trkpt>
      <trkpt lat="49.04216" lon="7.65596">
        <ele>260.8</ele>
        <time>2020-06-27T14:40:11Z</time>
      </trkpt>
      <trkpt lat="49.04216" lon="7.65596">
        <ele>260.8</ele>
        <time>2020-06-27T14:40:12Z</time>
      </trkpt>
      <trkpt lat="49.04216" lon="7.65596">
        <ele>260.8</ele>
        <time>2020-06-27T14:40:13Z</time>
      </trkpt>
      <trkpt lat="49.04215" lon="7.65596">
        <ele>260.8</ele>
        <time>2020-06-27T14:40:14Z</time>
      </trkpt>
      <trkpt lat="49.04214" lon="7.65597">
        <ele>260.8</ele>
        <time>2020-06-27T14:40:15Z</time>
      </trkpt>
      <trkpt lat="49.04214" lon="7.65597">
        <ele>260.8</ele>
        <time>2020-06-27T14:40:16Z</time>
      </trkpt>
      <trkpt lat="49.04214" lon="7.65596">
        <ele>260.8</ele>
        <time>2020-06-27T14:40:17Z</time>
      </trkpt>
      <trkpt lat="49.04214" lon="7.65596">
        <ele>260.8</ele>
        <time>2020-06-27T14:40:18Z</time>
      </trkpt>
      <trkpt lat="49.04214" lon="7.65595">
        <ele>260.7</ele>
        <time>2020-06-27T14:40:19Z</time>
      </trkpt>
      <trkpt lat="49.04213" lon="7.65594">
        <ele>260.7</ele>
        <time>2020-06-27T14:40:20Z</time>
      </trkpt>
      <trkpt lat="49.04212" lon="7.65594">
        <ele>260.7</ele>
        <time>2020-06-27T14:40:21Z</time>
      </trkpt>
      <trkpt lat="49.0421" lon="7.65594">
        <ele>260.7</ele>
        <time>2020-06-27T14:40:22Z</time>
      </trkpt>
      <trkpt lat="49.04207" lon="7.65594">
        <ele>260.7</ele>
        <time>2020-06-27T14:40:23Z</time>
      </trkpt>
      <trkpt lat="49.04206" lon="7.65594">
        <ele>260.6</ele>
        <time>2020-06-27T14:40:24Z</time>
      </trkpt>
      <trkpt lat="49.04206" lon="7.65592">
        <ele>260.6</ele>
        <time>2020-06-27T14:40:25Z</time>
      </trkpt>
      <trkpt lat="49.04205" lon="7.65591">
        <ele>260.6</ele>
        <time>2020-06-27T14:40:26Z</time>
      </trkpt>
      <trkpt lat="49.04204" lon="7.6559">
        <ele>260.6</ele>
        <time>2020-06-27T14:40:27Z</time>
      </trkpt>
      <trkpt lat="49.04205" lon="7.65588">
        <ele>260.6</ele>
        <time>2020-06-27T14:40:28Z</time>
      </trkpt>
      <trkpt lat="49.04206" lon="7.65588">
        <ele>260.6</ele>
        <time>2020-06-27T14:40:29Z</time>
      </trkpt>
      <trkpt lat="49.04209" lon="7.65585">
        <ele>260.5</ele>
        <time>2020-06-27T14:40:30Z</time>
      </trkpt>
      <trkpt lat="49.04209" lon="7.65584">
        <ele>260.5</ele>
        <time>2020-06-27T14:40:31Z</time>
      </trkpt>
      <trkpt lat="49.04209" lon="7.65582">
        <ele>260.5</ele>
        <time>2020-06-27T14:40:32Z</time>
      </trkpt>
      <trkpt lat="49.0421" lon="7.65582">
        <ele>260.5</ele>
        <time>2020-06-27T14:40:33Z</time>
      </trkpt>
      <trkpt lat="49.04211" lon="7.65582">
        <ele>260.5</ele>
        <time>2020-06-27T14:40:34Z</time>
      </trkpt>
      <trkpt lat="49.04209" lon="7.65582">
        <ele>260.5</ele>
        <time>2020-06-27T14:40:35Z</time>
      </trkpt>
      <trkpt lat="49.04209" lon="7.65582">
        <ele>260.5</ele>
        <time>2020-06-27T14:40:36Z</time>
      </trkpt>
      <trkpt lat="49.04208" lon="7.65581">
        <ele>260.5</ele>
        <time>2020-06-27T14:40:37Z</time>
      </trkpt>
      <trkpt lat="49.04207" lon="7.6558">
        <ele>260.5</ele>
        <time>2020-06-27T14:40:38Z</time>
      </trkpt>
      <trkpt lat="49.04205" lon="7.65578">
        <ele>260.5</ele>
        <time>2020-06-27T14:40:39Z</time>
      </trkpt>
      <trkpt lat="49.04204" lon="7.65578">
        <ele>260.5</ele>
        <time>2020-06-27T14:40:40Z</time>
      </trkpt>
      <trkpt lat="49.04203" lon="7.65577">
        <ele>260.5</ele>
        <time>2020-06-27T14:40:41Z</time>
      </trkpt>
      <trkpt lat="49.04202" lon="7.65577">
        <ele>260.5</ele>
        <time>2020-06-27T14:40:42Z</time>
      </trkpt>
      <trkpt lat="49.04201" lon="7.65576">
        <ele>260.5</ele>
        <time>2020-06-27T14:40:43Z</time>
      </trkpt>
      <trkpt lat="49.042" lon="7.65576">
        <ele>260.5</ele>
        <time>2020-06-27T14:40:44Z</time>
      </trkpt>
      <trkpt lat="49.04199" lon="7.65575">
        <ele>260.5</ele>
        <time>2020-06-27T14:40:45Z</time>
      </trkpt>
      <trkpt lat="49.04198" lon="7.65575">
        <ele>260.5</ele>
        <time>2020-06-27T14:40:46Z</time>
      </trkpt>
      <trkpt lat="49.04199" lon="7.65574">
        <ele>260.5</ele>
        <time>2020-06-27T14:40:47Z</time>
      </trkpt>
      <trkpt lat="49.042" lon="7.65574">
        <ele>260.4</ele>
        <time>2020-06-27T14:40:48Z</time>
      </trkpt>
      <trkpt lat="49.04201" lon="7.65574">
        <ele>260.4</ele>
        <time>2020-06-27T14:40:49Z</time>
      </trkpt>
      <trkpt lat="49.04202" lon="7.65574">
        <ele>260.4</ele>
        <time>2020-06-27T14:40:50Z</time>
      </trkpt>
      <trkpt lat="49.04204" lon="7.65574">
        <ele>260.4</ele>
        <time>2020-06-27T14:40:51Z</time>
      </trkpt>
      <trkpt lat="49.04204" lon="7.65575">
        <ele>260.4</ele>
        <time>2020-06-27T14:40:52Z</time>
      </trkpt>
      <trkpt lat="49.04204" lon="7.65577">
        <ele>260.4</ele>
        <time>2020-06-27T14:40:53Z</time>
      </trkpt>
      <trkpt lat="49.04204" lon="7.65578">
        <ele>260.4</ele>
        <time>2020-06-27T14:40:54Z</time>
      </trkpt>
      <trkpt lat="49.04204" lon="7.65581">
        <ele>260.4</ele>
        <time>2020-06-27T14:40:55Z</time>
      </trkpt>
      <trkpt lat="49.04205" lon="7.65586">
        <ele>260.4</ele>
        <time>2020-06-27T14:40:56Z</time>
      </trkpt>
      <trkpt lat="49.04206" lon="7.65588">
        <ele>260.4</ele>
        <time>2020-06-27T14:40:57Z</time>
      </trkpt>
      <trkpt lat="49.04208" lon="7.65591">
        <ele>260.4</ele>
        <time>2020-06-27T14:40:58Z</time>
      </trkpt>
      <trkpt lat="49.0421" lon="7.65596">
        <ele>260.3</ele>
        <time>2020-06-27T14:40:59Z</time>
      </trkpt>
      <trkpt lat="49.04211" lon="7.65597">
        <ele>260.3</ele>
        <time>2020-06-27T14:41:00Z</time>
      </trkpt>
      <trkpt lat="49.04213" lon="7.65603">
        <ele>260.3</ele>
        <time>2020-06-27T14:41:01Z</time>
      </trkpt>
      <trkpt lat="49.04213" lon="7.65606">
        <ele>260.3</ele>
        <time>2020-06-27T14:41:02Z</time>
      </trkpt>
      <trkpt lat="49.04215" lon="7.65611">
        <ele>260.3</ele>
        <time>2020-06-27T14:41:03Z</time>
      </trkpt>
      <trkpt lat="49.04216" lon="7.65613">
        <ele>260.3</ele>
        <time>2020-06-27T14:41:04Z</time>
      </trkpt>
      <trkpt lat="49.04217" lon="7.65617">
        <ele>260.3</ele>
        <time>2020-06-27T14:41:05Z</time>
      </trkpt>
      <trkpt lat="49.04217" lon="7.65622">
        <ele>260.3</ele>
        <time>2020-06-27T14:41:06Z</time>
      </trkpt>
      <trkpt lat="49.04218" lon="7.65625">
        <ele>260.2</ele>
        <time>2020-06-27T14:41:07Z</time>
      </trkpt>
      <trkpt lat="49.04218" lon="7.65629">
        <ele>260.2</ele>
        <time>2020-06-27T14:41:08Z</time>
      </trkpt>
      <trkpt lat="49.04219" lon="7.65634">
        <ele>260.2</ele>
        <time>2020-06-27T14:41:09Z</time>
      </trkpt>
      <trkpt lat="49.04221" lon="7.6564">
        <ele>260.2</ele>
        <time>2020-06-27T14:41:10Z</time>
      </trkpt>
      <trkpt lat="49.04223" lon="7.65645">
        <ele>260.2</ele>
        <time>2020-06-27T14:41:11Z</time>
      </trkpt>
      <trkpt lat="49.04225" lon="7.65651">
        <ele>260.2</ele>
        <time>2020-06-27T14:41:12Z</time>
      </trkpt>
      <trkpt lat="49.04227" lon="7.65655">
        <ele>260.2</ele>
        <time>2020-06-27T14:41:13Z</time>
      </trkpt>
      <trkpt lat="49.04228" lon="7.65659">
        <ele>260.3</ele>
        <time>2020-06-27T14:41:14Z</time>
      </trkpt>
      <trkpt lat="49.0423" lon="7.65664">
        <ele>260.3</ele>
        <time>2020-06-27T14:41:15Z</time>
      </trkpt>
      <trkpt lat="49.0423" lon="7.65669">
        <ele>260.3</ele>
        <time>2020-06-27T14:41:16Z</time>
      </trkpt>
      <trkpt lat="49.0423" lon="7.65671">
        <ele>260.3</ele>
        <time>2020-06-27T14:41:17Z</time>
      </trkpt>
      <trkpt lat="49.04228" lon="7.65676">
        <ele>260.4</ele>
        <time>2020-06-27T14:41:18Z</time>
      </trkpt>
      <trkpt lat="49.04227" lon="7.65679">
        <ele>260.4</ele>
        <time>2020-06-27T14:41:19Z</time>
      </trkpt>
      <trkpt lat="49.04225" lon="7.65685">
        <ele>260.4</ele>
        <time>2020-06-27T14:41:20Z</time>
      </trkpt>
      <trkpt lat="49.04223" lon="7.65691">
        <ele>260.4</ele>
        <time>2020-06-27T14:41:21Z</time>
      </trkpt>
      <trkpt lat="49.04221" lon="7.65696">
        <ele>260.4</ele>
        <time>2020-06-27T14:41:22Z</time>
      </trkpt>
      <trkpt lat="49.04219" lon="7.65702">
        <ele>260.4</ele>
        <time>2020-06-27T14:41:23Z</time>
      </trkpt>
      <trkpt lat="49.04217" lon="7.65708">
        <ele>260.3</ele>
        <time>2020-06-27T14:41:24Z</time>
      </trkpt>
      <trkpt lat="49.04215" lon="7.65714">
        <ele>260.3</ele>
        <time>2020-06-27T14:41:25Z</time>
      </trkpt>
      <trkpt lat="49.04213" lon="7.6572">
        <ele>260.2</ele>
        <time>2020-06-27T14:41:26Z</time>
      </trkpt>
      <trkpt lat="49.04212" lon="7.65726">
        <ele>260.2</ele>
        <time>2020-06-27T14:41:27Z</time>
      </trkpt>
      <trkpt lat="49.04211" lon="7.65731">
        <ele>260.1</ele>
        <time>2020-06-27T14:41:28Z</time>
      </trkpt>
      <trkpt lat="49.04212" lon="7.65735">
        <ele>260.1</ele>
        <time>2020-06-27T14:41:29Z</time>
      </trkpt>
      <trkpt lat="49.04212" lon="7.65739">
        <ele>260.1</ele>
        <time>2020-06-27T14:41:30Z</time>
      </trkpt>
      <trkpt lat="49.04213" lon="7.65745">
        <ele>260</ele>
        <time>2020-06-27T14:41:31Z</time>
      </trkpt>
      <trkpt lat="49.04213" lon="7.65746">
        <ele>260</ele>
        <time>2020-06-27T14:41:32Z</time>
      </trkpt>
      <trkpt lat="49.04213" lon="7.65752">
        <ele>260</ele>
        <time>2020-06-27T14:41:33Z</time>
      </trkpt>
      <trkpt lat="49.04213" lon="7.65753">
        <ele>260</ele>
        <time>2020-06-27T14:41:34Z</time>
      </trkpt>
      <trkpt lat="49.04212" lon="7.65757">
        <ele>260</ele>
        <time>2020-06-27T14:41:35Z</time>
      </trkpt>
      <trkpt lat="49.04211" lon="7.65762">
        <ele>259.9</ele>
        <time>2020-06-27T14:41:36Z</time>
      </trkpt>
      <trkpt lat="49.04209" lon="7.65767">
        <ele>259.9</ele>
        <time>2020-06-27T14:41:37Z</time>
      </trkpt>
      <trkpt lat="49.04209" lon="7.65776">
        <ele>259.8</ele>
        <time>2020-06-27T14:41:38Z</time>
      </trkpt>
      <trkpt lat="49.04209" lon="7.65781">
        <ele>259.8</ele>
        <time>2020-06-27T14:41:39Z</time>
      </trkpt>
      <trkpt lat="49.04209" lon="7.65786">
        <ele>259.8</ele>
        <time>2020-06-27T14:41:40Z</time>
      </trkpt>
      <trkpt lat="49.0421" lon="7.65792">
        <ele>259.8</ele>
        <time>2020-06-27T14:41:41Z</time>
      </trkpt>
      <trkpt lat="49.04211" lon="7.658">
        <ele>259.7</ele>
        <time>2020-06-27T14:41:42Z</time>
      </trkpt>
      <trkpt lat="49.04212" lon="7.65807">
        <ele>259.7</ele>
        <time>2020-06-27T14:41:43Z</time>
      </trkpt>
      <trkpt lat="49.04215" lon="7.65815">
        <ele>259.7</ele>
        <time>2020-06-27T14:41:44Z</time>
      </trkpt>
      <trkpt lat="49.04218" lon="7.65822">
        <ele>259.6</ele>
        <time>2020-06-27T14:41:45Z</time>
      </trkpt>
      <trkpt lat="49.04222" lon="7.65829">
        <ele>259.6</ele>
        <time>2020-06-27T14:41:46Z</time>
      </trkpt>
      <trkpt lat="49.04224" lon="7.65838">
        <ele>259.5</ele>
        <time>2020-06-27T14:41:47Z</time>
      </trkpt>
      <trkpt lat="49.04227" lon="7.65847">
        <ele>259.5</ele>
        <time>2020-06-27T14:41:48Z</time>
      </trkpt>
      <trkpt lat="49.04231" lon="7.65856">
        <ele>259.5</ele>
        <time>2020-06-27T14:41:49Z</time>
      </trkpt>
      <trkpt lat="49.04234" lon="7.65866">
        <ele>259.4</ele>
        <time>2020-06-27T14:41:50Z</time>
      </trkpt>
      <trkpt lat="49.04238" lon="7.65875">
        <ele>259.4</ele>
        <time>2020-06-27T14:41:51Z</time>
      </trkpt>
      <trkpt lat="49.0424" lon="7.65882">
        <ele>259.3</ele>
        <time>2020-06-27T14:41:52Z</time>
      </trkpt>
      <trkpt lat="49.04242" lon="7.6589">
        <ele>259.3</ele>
        <time>2020-06-27T14:41:53Z</time>
      </trkpt>
      <trkpt lat="49.04244" lon="7.65898">
        <ele>259.2</ele>
        <time>2020-06-27T14:41:54Z</time>
      </trkpt>
      <trkpt lat="49.04247" lon="7.65907">
        <ele>259.2</ele>
        <time>2020-06-27T14:41:55Z</time>
      </trkpt>
      <trkpt lat="49.0425" lon="7.65915">
        <ele>259.1</ele>
        <time>2020-06-27T14:41:56Z</time>
      </trkpt>
      <trkpt lat="49.04253" lon="7.65923">
        <ele>259.1</ele>
        <time>2020-06-27T14:41:57Z</time>
      </trkpt>
      <trkpt lat="49.04256" lon="7.65931">
        <ele>259</ele>
        <time>2020-06-27T14:41:58Z</time>
      </trkpt>
      <trkpt lat="49.04259" lon="7.65939">
        <ele>258.9</ele>
        <time>2020-06-27T14:41:59Z</time>
      </trkpt>
      <trkpt lat="49.04262" lon="7.65947">
        <ele>258.9</ele>
        <time>2020-06-27T14:42:00Z</time>
      </trkpt>
      <trkpt lat="49.04265" lon="7.65956">
        <ele>258.8</ele>
        <time>2020-06-27T14:42:01Z</time>
      </trkpt>
      <trkpt lat="49.04267" lon="7.65962">
        <ele>258.8</ele>
        <time>2020-06-27T14:42:02Z</time>
      </trkpt>
      <trkpt lat="49.04269" lon="7.65969">
        <ele>258.7</ele>
        <time>2020-06-27T14:42:03Z</time>
      </trkpt>
      <trkpt lat="49.04271" lon="7.65977">
        <ele>258.7</ele>
        <time>2020-06-27T14:42:04Z</time>
      </trkpt>
      <trkpt lat="49.04274" lon="7.65984">
        <ele>258.7</ele>
        <time>2020-06-27T14:42:05Z</time>
      </trkpt>
      <trkpt lat="49.04277" lon="7.65992">
        <ele>258.7</ele>
        <time>2020-06-27T14:42:06Z</time>
      </trkpt>
      <trkpt lat="49.04281" lon="7.66">
        <ele>258.6</ele>
        <time>2020-06-27T14:42:07Z</time>
      </trkpt>
      <trkpt lat="49.04286" lon="7.66007">
        <ele>258.6</ele>
        <time>2020-06-27T14:42:08Z</time>
      </trkpt>
      <trkpt lat="49.04291" lon="7.66014">
        <ele>258.5</ele>
        <time>2020-06-27T14:42:09Z</time>
      </trkpt>
      <trkpt lat="49.04296" lon="7.66021">
        <ele>258.4</ele>
        <time>2020-06-27T14:42:10Z</time>
      </trkpt>
      <trkpt lat="49.04301" lon="7.6603">
        <ele>258.4</ele>
        <time>2020-06-27T14:42:11Z</time>
      </trkpt>
      <trkpt lat="49.04304" lon="7.66035">
        <ele>258.3</ele>
        <time>2020-06-27T14:42:12Z</time>
      </trkpt>
      <trkpt lat="49.04309" lon="7.66044">
        <ele>258.3</ele>
        <time>2020-06-27T14:42:13Z</time>
      </trkpt>
      <trkpt lat="49.04316" lon="7.66056">
        <ele>258.2</ele>
        <time>2020-06-27T14:42:14Z</time>
      </trkpt>
      <trkpt lat="49.04318" lon="7.66061">
        <ele>258.1</ele>
        <time>2020-06-27T14:42:15Z</time>
      </trkpt>
      <trkpt lat="49.04324" lon="7.66071">
        <ele>258.1</ele>
        <time>2020-06-27T14:42:16Z</time>
      </trkpt>
      <trkpt lat="49.04328" lon="7.66079">
        <ele>258</ele>
        <time>2020-06-27T14:42:17Z</time>
      </trkpt>
      <trkpt lat="49.04331" lon="7.66087">
        <ele>257.9</ele>
        <time>2020-06-27T14:42:18Z</time>
      </trkpt>
      <trkpt lat="49.04334" lon="7.66094">
        <ele>257.9</ele>
        <time>2020-06-27T14:42:19Z</time>
      </trkpt>
      <trkpt lat="49.04337" lon="7.661">
        <ele>257.8</ele>
        <time>2020-06-27T14:42:20Z</time>
      </trkpt>
      <trkpt lat="49.04339" lon="7.66105">
        <ele>257.8</ele>
        <time>2020-06-27T14:42:21Z</time>
      </trkpt>
      <trkpt lat="49.04339" lon="7.66111">
        <ele>257.8</ele>
        <time>2020-06-27T14:42:22Z</time>
      </trkpt>
      <trkpt lat="49.04339" lon="7.66116">
        <ele>257.7</ele>
        <time>2020-06-27T14:42:23Z</time>
      </trkpt>
      <trkpt lat="49.04337" lon="7.66113">
        <ele>257.7</ele>
        <time>2020-06-27T14:42:24Z</time>
      </trkpt>
      <trkpt lat="49.04337" lon="7.6612">
        <ele>257.6</ele>
        <time>2020-06-27T14:42:25Z</time>
      </trkpt>
      <trkpt lat="49.04337" lon="7.66125">
        <ele>257.6</ele>
        <time>2020-06-27T14:42:26Z</time>
      </trkpt>
      <trkpt lat="49.04337" lon="7.66133">
        <ele>257.6</ele>
        <time>2020-06-27T14:42:27Z</time>
      </trkpt>
      <trkpt lat="49.04338" lon="7.6614">
        <ele>257.5</ele>
        <time>2020-06-27T14:42:28Z</time>
      </trkpt>
      <trkpt lat="49.04338" lon="7.66147">
        <ele>257.5</ele>
        <time>2020-06-27T14:42:29Z</time>
      </trkpt>
      <trkpt lat="49.04339" lon="7.66156">
        <ele>257.4</ele>
        <time>2020-06-27T14:42:30Z</time>
      </trkpt>
      <trkpt lat="49.04339" lon="7.66165">
        <ele>257.4</ele>
        <time>2020-06-27T14:42:31Z</time>
      </trkpt>
      <trkpt lat="49.04339" lon="7.66173">
        <ele>257.4</ele>
        <time>2020-06-27T14:42:32Z</time>
      </trkpt>
      <trkpt lat="49.04338" lon="7.6618">
        <ele>257.3</ele>
        <time>2020-06-27T14:42:33Z</time>
      </trkpt>
      <trkpt lat="49.04338" lon="7.66187">
        <ele>257.3</ele>
        <time>2020-06-27T14:42:34Z</time>
      </trkpt>
      <trkpt lat="49.04338" lon="7.66194">
        <ele>257.3</ele>
        <time>2020-06-27T14:42:35Z</time>
      </trkpt>
      <trkpt lat="49.04338" lon="7.66202">
        <ele>257.2</ele>
        <time>2020-06-27T14:42:36Z</time>
      </trkpt>
      <trkpt lat="49.04337" lon="7.6621">
        <ele>257.2</ele>
        <time>2020-06-27T14:42:37Z</time>
      </trkpt>
      <trkpt lat="49.04337" lon="7.66218">
        <ele>257.1</ele>
        <time>2020-06-27T14:42:38Z</time>
      </trkpt>
      <trkpt lat="49.04337" lon="7.66227">
        <ele>257.1</ele>
        <time>2020-06-27T14:42:39Z</time>
      </trkpt>
      <trkpt lat="49.04338" lon="7.66237">
        <ele>257.1</ele>
        <time>2020-06-27T14:42:40Z</time>
      </trkpt>
      <trkpt lat="49.04337" lon="7.66245">
        <ele>257</ele>
        <time>2020-06-27T14:42:41Z</time>
      </trkpt>
      <trkpt lat="49.04335" lon="7.6625">
        <ele>257</ele>
        <time>2020-06-27T14:42:42Z</time>
      </trkpt>
      <trkpt lat="49.04331" lon="7.66258">
        <ele>257</ele>
        <time>2020-06-27T14:42:43Z</time>
      </trkpt>
      <trkpt lat="49.04328" lon="7.66265">
        <ele>256.9</ele>
        <time>2020-06-27T14:42:44Z</time>
      </trkpt>
      <trkpt lat="49.04325" lon="7.6627">
        <ele>256.9</ele>
        <time>2020-06-27T14:42:45Z</time>
      </trkpt>
      <trkpt lat="49.04321" lon="7.66274">
        <ele>256.9</ele>
        <time>2020-06-27T14:42:46Z</time>
      </trkpt>
      <trkpt lat="49.04315" lon="7.66273">
        <ele>256.9</ele>
        <time>2020-06-27T14:42:47Z</time>
      </trkpt>
      <trkpt lat="49.04308" lon="7.66271">
        <ele>256.9</ele>
        <time>2020-06-27T14:42:48Z</time>
      </trkpt>
      <trkpt lat="49.04302" lon="7.6627">
        <ele>256.8</ele>
        <time>2020-06-27T14:42:49Z</time>
      </trkpt>
      <trkpt lat="49.04297" lon="7.66267">
        <ele>256.8</ele>
        <time>2020-06-27T14:42:50Z</time>
      </trkpt>
      <trkpt lat="49.04292" lon="7.66265">
        <ele>256.8</ele>
        <time>2020-06-27T14:42:51Z</time>
      </trkpt>
      <trkpt lat="49.04289" lon="7.66265">
        <ele>256.8</ele>
        <time>2020-06-27T14:42:52Z</time>
      </trkpt>
      <trkpt lat="49.04288" lon="7.66265">
        <ele>256.8</ele>
        <time>2020-06-27T14:42:53Z</time>
      </trkpt>
      <trkpt lat="49.04286" lon="7.66264">
        <ele>256.8</ele>
        <time>2020-06-27T14:42:54Z</time>
      </trkpt>
      <trkpt lat="49.04285" lon="7.66264">
        <ele>256.8</ele>
        <time>2020-06-27T14:42:55Z</time>
      </trkpt>
      <trkpt lat="49.04284" lon="7.66264">
        <ele>256.8</ele>
        <time>2020-06-27T14:42:56Z</time>
      </trkpt>
      <trkpt lat="49.04283" lon="7.66263">
        <ele>256.8</ele>
        <time>2020-06-27T14:42:57Z</time>
      </trkpt>
      <trkpt lat="49.04281" lon="7.66263">
        <ele>256.8</ele>
        <time>2020-06-27T14:42:58Z</time>
      </trkpt>
      <trkpt lat="49.0428" lon="7.66263">
        <ele>256.8</ele>
        <time>2020-06-27T14:42:59Z</time>
      </trkpt>
      <trkpt lat="49.04279" lon="7.66263">
        <ele>256.8</ele>
        <time>2020-06-27T14:43:00Z</time>
      </trkpt>
      <trkpt lat="49.04277" lon="7.66262">
        <ele>256.8</ele>
        <time>2020-06-27T14:43:01Z</time>
      </trkpt>
      <trkpt lat="49.04277" lon="7.66262">
        <ele>256.8</ele>
        <time>2020-06-27T14:43:02Z</time>
      </trkpt>
      <trkpt lat="49.0427" lon="7.66264">
        <ele>256.9</ele>
        <time>2020-06-27T14:43:13Z</time>
      </trkpt>
      <trkpt lat="49.04268" lon="7.66265">
        <ele>256.9</ele>
        <time>2020-06-27T14:43:14Z</time>
      </trkpt>
      <trkpt lat="49.04265" lon="7.66267">
        <ele>256.9</ele>
        <time>2020-06-27T14:43:15Z</time>
      </trkpt>
      <trkpt lat="49.04264" lon="7.66268">
        <ele>256.9</ele>
        <time>2020-06-27T14:43:16Z</time>
      </trkpt>
      <trkpt lat="49.04261" lon="7.6627">
        <ele>256.9</ele>
        <time>2020-06-27T14:43:17Z</time>
      </trkpt>
      <trkpt lat="49.04259" lon="7.66271">
        <ele>256.9</ele>
        <time>2020-06-27T14:43:18Z</time>
      </trkpt>
      <trkpt lat="49.04257" lon="7.66272">
        <ele>256.9</ele>
        <time>2020-06-27T14:43:19Z</time>
      </trkpt>
      <trkpt lat="49.04256" lon="7.66272">
        <ele>256.9</ele>
        <time>2020-06-27T14:43:20Z</time>
      </trkpt>
      <trkpt lat="49.04255" lon="7.66273">
        <ele>256.9</ele>
        <time>2020-06-27T14:43:21Z</time>
      </trkpt>
      <trkpt lat="49.04255" lon="7.66272">
        <ele>256.9</ele>
        <time>2020-06-27T14:43:22Z</time>
      </trkpt>
      <trkpt lat="49.04255" lon="7.66271">
        <ele>256.9</ele>
        <time>2020-06-27T14:43:23Z</time>
      </trkpt>
      <trkpt lat="49.04256" lon="7.66269">
        <ele>256.9</ele>
        <time>2020-06-27T14:43:24Z</time>
      </trkpt>
      <trkpt lat="49.04255" lon="7.66268">
        <ele>256.9</ele>
        <time>2020-06-27T14:43:25Z</time>
      </trkpt>
      <trkpt lat="49.04253" lon="7.66268">
        <ele>256.9</ele>
        <time>2020-06-27T14:43:26Z</time>
      </trkpt>
      <trkpt lat="49.04252" lon="7.66268">
        <ele>256.9</ele>
        <time>2020-06-27T14:43:27Z</time>
      </trkpt>
      <trkpt lat="49.04252" lon="7.66268">
        <ele>256.9</ele>
        <time>2020-06-27T14:43:28Z</time>
      </trkpt>
      <trkpt lat="49.04251" lon="7.66269">
        <ele>256.9</ele>
        <time>2020-06-27T14:43:29Z</time>
      </trkpt>
      <trkpt lat="49.0425" lon="7.66269">
        <ele>256.9</ele>
        <time>2020-06-27T14:43:30Z</time>
      </trkpt>
      <trkpt lat="49.04248" lon="7.6627">
        <ele>256.9</ele>
        <time>2020-06-27T14:43:31Z</time>
      </trkpt>
      <trkpt lat="49.04247" lon="7.66271">
        <ele>257</ele>
        <time>2020-06-27T14:43:32Z</time>
      </trkpt>
      <trkpt lat="49.04244" lon="7.66274">
        <ele>257</ele>
        <time>2020-06-27T14:43:33Z</time>
      </trkpt>
      <trkpt lat="49.04241" lon="7.66276">
        <ele>257</ele>
        <time>2020-06-27T14:43:34Z</time>
      </trkpt>
      <trkpt lat="49.0424" lon="7.66277">
        <ele>257</ele>
        <time>2020-06-27T14:43:35Z</time>
      </trkpt>
      <trkpt lat="49.04239" lon="7.66278">
        <ele>257</ele>
        <time>2020-06-27T14:43:36Z</time>
      </trkpt>
      <trkpt lat="49.04238" lon="7.66279">
        <ele>257</ele>
        <time>2020-06-27T14:43:37Z</time>
      </trkpt>
      <trkpt lat="49.04235" lon="7.66283">
        <ele>257</ele>
        <time>2020-06-27T14:43:38Z</time>
      </trkpt>
      <trkpt lat="49.04234" lon="7.66285">
        <ele>257</ele>
        <time>2020-06-27T14:43:39Z</time>
      </trkpt>
      <trkpt lat="49.04232" lon="7.6629">
        <ele>257</ele>
        <time>2020-06-27T14:43:40Z</time>
      </trkpt>
      <trkpt lat="49.04231" lon="7.66291">
        <ele>257</ele>
        <time>2020-06-27T14:43:41Z</time>
      </trkpt>
      <trkpt lat="49.0423" lon="7.66295">
        <ele>257</ele>
        <time>2020-06-27T14:43:42Z</time>
      </trkpt>
      <trkpt lat="49.04228" lon="7.66299">
        <ele>257</ele>
        <time>2020-06-27T14:43:43Z</time>
      </trkpt>
      <trkpt lat="49.04226" lon="7.66303">
        <ele>257</ele>
        <time>2020-06-27T14:43:44Z</time>
      </trkpt>
      <trkpt lat="49.04225" lon="7.66307">
        <ele>257</ele>
        <time>2020-06-27T14:43:45Z</time>
      </trkpt>
      <trkpt lat="49.04223" lon="7.66311">
        <ele>257</ele>
        <time>2020-06-27T14:43:46Z</time>
      </trkpt>
      <trkpt lat="49.04223" lon="7.66312">
        <ele>257</ele>
        <time>2020-06-27T14:43:47Z</time>
      </trkpt>
      <trkpt lat="49.04222" lon="7.66316">
        <ele>257</ele>
        <time>2020-06-27T14:43:48Z</time>
      </trkpt>
      <trkpt lat="49.0422" lon="7.66322">
        <ele>257</ele>
        <time>2020-06-27T14:43:49Z</time>
      </trkpt>
      <trkpt lat="49.04219" lon="7.66325">
        <ele>257</ele>
        <time>2020-06-27T14:43:50Z</time>
      </trkpt>
      <trkpt lat="49.04218" lon="7.66331">
        <ele>257</ele>
        <time>2020-06-27T14:43:51Z</time>
      </trkpt>
      <trkpt lat="49.04217" lon="7.66337">
        <ele>257</ele>
        <time>2020-06-27T14:43:52Z</time>
      </trkpt>
      <trkpt lat="49.04216" lon="7.66344">
        <ele>257</ele>
        <time>2020-06-27T14:43:53Z</time>
      </trkpt>
      <trkpt lat="49.04215" lon="7.6635">
        <ele>256.9</ele>
        <time>2020-06-27T14:43:54Z</time>
      </trkpt>
      <trkpt lat="49.04217" lon="7.66361">
        <ele>256.9</ele>
        <time>2020-06-27T14:43:55Z</time>
      </trkpt>
      <trkpt lat="49.04217" lon="7.6637">
        <ele>256.9</ele>
        <time>2020-06-27T14:43:56Z</time>
      </trkpt>
      <trkpt lat="49.04218" lon="7.66378">
        <ele>256.9</ele>
        <time>2020-06-27T14:43:57Z</time>
      </trkpt>
      <trkpt lat="49.04217" lon="7.66385">
        <ele>256.9</ele>
        <time>2020-06-27T14:43:58Z</time>
      </trkpt>
      <trkpt lat="49.04217" lon="7.66392">
        <ele>256.9</ele>
        <time>2020-06-27T14:43:59Z</time>
      </trkpt>
      <trkpt lat="49.04216" lon="7.664">
        <ele>256.9</ele>
        <time>2020-06-27T14:44:00Z</time>
      </trkpt>
      <trkpt lat="49.04216" lon="7.66407">
        <ele>256.9</ele>
        <time>2020-06-27T14:44:01Z</time>
      </trkpt>
      <trkpt lat="49.04218" lon="7.66414">
        <ele>256.9</ele>
        <time>2020-06-27T14:44:02Z</time>
      </trkpt>
      <trkpt lat="49.04219" lon="7.66418">
        <ele>256.9</ele>
        <time>2020-06-27T14:44:03Z</time>
      </trkpt>
      <trkpt lat="49.04221" lon="7.6642">
        <ele>256.9</ele>
        <time>2020-06-27T14:44:04Z</time>
      </trkpt>
      <trkpt lat="49.04222" lon="7.66421">
        <ele>256.9</ele>
        <time>2020-06-27T14:44:05Z</time>
      </trkpt>
      <trkpt lat="49.04224" lon="7.66421">
        <ele>256.9</ele>
        <time>2020-06-27T14:44:06Z</time>
      </trkpt>
      <trkpt lat="49.04225" lon="7.66422">
        <ele>256.9</ele>
        <time>2020-06-27T14:44:07Z</time>
      </trkpt>
      <trkpt lat="49.04225" lon="7.66422">
        <ele>256.9</ele>
        <time>2020-06-27T14:44:08Z</time>
      </trkpt>
      <trkpt lat="49.04225" lon="7.66422">
        <ele>256.9</ele>
        <time>2020-06-27T14:44:09Z</time>
      </trkpt>
      <trkpt lat="49.04225" lon="7.66423">
        <ele>256.9</ele>
        <time>2020-06-27T14:44:10Z</time>
      </trkpt>
      <trkpt lat="49.04226" lon="7.66423">
        <ele>256.9</ele>
        <time>2020-06-27T14:44:11Z</time>
      </trkpt>
      <trkpt lat="49.04227" lon="7.66423">
        <ele>256.9</ele>
        <time>2020-06-27T14:44:12Z</time>
      </trkpt>
      <trkpt lat="49.04228" lon="7.66423">
        <ele>256.9</ele>
        <time>2020-06-27T14:44:13Z</time>
      </trkpt>
      <trkpt lat="49.04228" lon="7.66422">
        <ele>256.9</ele>
        <time>2020-06-27T14:44:14Z</time>
      </trkpt>
      <trkpt lat="49.04229" lon="7.66421">
        <ele>256.9</ele>
        <time>2020-06-27T14:44:15Z</time>
      </trkpt>
      <trkpt lat="49.04226" lon="7.66419">
        <ele>256.9</ele>
        <time>2020-06-27T14:44:22Z</time>
      </trkpt>
      <trkpt lat="49.04228" lon="7.66417">
        <ele>256.9</ele>
        <time>2020-06-27T14:44:23Z</time>
      </trkpt>
      <trkpt lat="49.04229" lon="7.66416">
        <ele>256.9</ele>
        <time>2020-06-27T14:44:24Z</time>
      </trkpt>
      <trkpt lat="49.0423" lon="7.66414">
        <ele>256.9</ele>
        <time>2020-06-27T14:44:25Z</time>
      </trkpt>
      <trkpt lat="49.04231" lon="7.66414">
        <ele>256.9</ele>
        <time>2020-06-27T14:44:26Z</time>
      </trkpt>
      <trkpt lat="49.04231" lon="7.66413">
        <ele>256.9</ele>
        <time>2020-06-27T14:44:27Z</time>
      </trkpt>
      <trkpt lat="49.04231" lon="7.66413">
        <ele>256.9</ele>
        <time>2020-06-27T14:44:28Z</time>
      </trkpt>
      <trkpt lat="49.04232" lon="7.66413">
        <ele>256.9</ele>
        <time>2020-06-27T14:44:29Z</time>
      </trkpt>
      <trkpt lat="49.04232" lon="7.66413">
        <ele>256.9</ele>
        <time>2020-06-27T14:44:30Z</time>
      </trkpt>
      <trkpt lat="49.04232" lon="7.66413">
        <ele>256.9</ele>
        <time>2020-06-27T14:44:31Z</time>
      </trkpt>
      <trkpt lat="49.04233" lon="7.66412">
        <ele>256.9</ele>
        <time>2020-06-27T14:44:32Z</time>
      </trkpt>
      <trkpt lat="49.04233" lon="7.66412">
        <ele>256.9</ele>
        <time>2020-06-27T14:44:33Z</time>
      </trkpt>
      <trkpt lat="49.04233" lon="7.66412">
        <ele>256.9</ele>
        <time>2020-06-27T14:44:34Z</time>
      </trkpt>
      <trkpt lat="49.04235" lon="7.66413">
        <ele>256.9</ele>
        <time>2020-06-27T14:44:35Z</time>
      </trkpt>
      <trkpt lat="49.0424" lon="7.66414">
        <ele>256.9</ele>
        <time>2020-06-27T14:44:53Z</time>
      </trkpt>
      <trkpt lat="49.0424" lon="7.66413">
        <ele>256.9</ele>
        <time>2020-06-27T14:44:54Z</time>
      </trkpt>
      <trkpt lat="49.04241" lon="7.66412">
        <ele>256.9</ele>
        <time>2020-06-27T14:44:55Z</time>
      </trkpt>
      <trkpt lat="49.04245" lon="7.66411">
        <ele>256.9</ele>
        <time>2020-06-27T14:44:56Z</time>
      </trkpt>
      <trkpt lat="49.04247" lon="7.66412">
        <ele>256.9</ele>
        <time>2020-06-27T14:44:57Z</time>
      </trkpt>
      <trkpt lat="49.04249" lon="7.66412">
        <ele>256.9</ele>
        <time>2020-06-27T14:44:58Z</time>
      </trkpt>
      <trkpt lat="49.04255" lon="7.66414">
        <ele>256.8</ele>
        <time>2020-06-27T14:44:59Z</time>
      </trkpt>
      <trkpt lat="49.04259" lon="7.66416">
        <ele>256.8</ele>
        <time>2020-06-27T14:45:00Z</time>
      </trkpt>
      <trkpt lat="49.0426" lon="7.66418">
        <ele>256.8</ele>
        <time>2020-06-27T14:45:01Z</time>
      </trkpt>
      <trkpt lat="49.04262" lon="7.66424">
        <ele>256.8</ele>
        <time>2020-06-27T14:45:02Z</time>
      </trkpt>
      <trkpt lat="49.04263" lon="7.66428">
        <ele>256.8</ele>
        <time>2020-06-27T14:45:03Z</time>
      </trkpt>
      <trkpt lat="49.04264" lon="7.66429">
        <ele>256.8</ele>
        <time>2020-06-27T14:45:04Z</time>
      </trkpt>
      <trkpt lat="49.04267" lon="7.66432">
        <ele>256.8</ele>
        <time>2020-06-27T14:45:05Z</time>
      </trkpt>
      <trkpt lat="49.04267" lon="7.66433">
        <ele>256.8</ele>
        <time>2020-06-27T14:45:06Z</time>
      </trkpt>
      <trkpt lat="49.04267" lon="7.66435">
        <ele>256.7</ele>
        <time>2020-06-27T14:45:07Z</time>
      </trkpt>
      <trkpt lat="49.04268" lon="7.66435">
        <ele>256.7</ele>
        <time>2020-06-27T14:45:08Z</time>
      </trkpt>
      <trkpt lat="49.04268" lon="7.66435">
        <ele>256.7</ele>
        <time>2020-06-27T14:45:09Z</time>
      </trkpt>
      <trkpt lat="49.04268" lon="7.66435">
        <ele>256.7</ele>
        <time>2020-06-27T14:45:10Z</time>
      </trkpt>
      <trkpt lat="49.04268" lon="7.66435">
        <ele>256.7</ele>
        <time>2020-06-27T14:45:11Z</time>
      </trkpt>
      <trkpt lat="49.04268" lon="7.66435">
        <ele>256.7</ele>
        <time>2020-06-27T14:45:12Z</time>
      </trkpt>
      <trkpt lat="49.04268" lon="7.66435">
        <ele>256.7</ele>
        <time>2020-06-27T14:45:13Z</time>
      </trkpt>
      <trkpt lat="49.04268" lon="7.66436">
        <ele>256.7</ele>
        <time>2020-06-27T14:45:14Z</time>
      </trkpt>
      <trkpt lat="49.04268" lon="7.66437">
        <ele>256.7</ele>
        <time>2020-06-27T14:45:15Z</time>
      </trkpt>
      <trkpt lat="49.04267" lon="7.66437">
        <ele>256.7</ele>
        <time>2020-06-27T14:45:16Z</time>
      </trkpt>
      <trkpt lat="49.04268" lon="7.66444">
        <ele>256.7</ele>
        <time>2020-06-27T14:45:17Z</time>
      </trkpt>
      <trkpt lat="49.04269" lon="7.6645">
        <ele>256.6</ele>
        <time>2020-06-27T14:48:27Z</time>
      </trkpt>
      <trkpt lat="49.0427" lon="7.66456">
        <ele>256.5</ele>
        <time>2020-06-27T14:48:28Z</time>
      </trkpt>
      <trkpt lat="49.04269" lon="7.66462">
        <ele>256.5</ele>
        <time>2020-06-27T14:48:29Z</time>
      </trkpt>
      <trkpt lat="49.04268" lon="7.66466">
        <ele>256.4</ele>
        <time>2020-06-27T14:48:30Z</time>
      </trkpt>
      <trkpt lat="49.04265" lon="7.66472">
        <ele>256.4</ele>
        <time>2020-06-27T14:48:31Z</time>
      </trkpt>
      <trkpt lat="49.04263" lon="7.66477">
        <ele>256.3</ele>
        <time>2020-06-27T14:48:32Z</time>
      </trkpt>
      <trkpt lat="49.0426" lon="7.66483">
        <ele>256.3</ele>
        <time>2020-06-27T14:48:33Z</time>
      </trkpt>
      <trkpt lat="49.04258" lon="7.66489">
        <ele>256.2</ele>
        <time>2020-06-27T14:48:34Z</time>
      </trkpt>
      <trkpt lat="49.04255" lon="7.66493">
        <ele>256.2</ele>
        <time>2020-06-27T14:48:35Z</time>
      </trkpt>
      <trkpt lat="49.04252" lon="7.66497">
        <ele>256.1</ele>
        <time>2020-06-27T14:48:36Z</time>
      </trkpt>
      <trkpt lat="49.04251" lon="7.66498">
        <ele>256.1</ele>
        <time>2020-06-27T14:48:37Z</time>
      </trkpt>
      <trkpt lat="49.04247" lon="7.66504">
        <ele>256.1</ele>
        <time>2020-06-27T14:48:38Z</time>
      </trkpt>
      <trkpt lat="49.04244" lon="7.66507">
        <ele>256</ele>
        <time>2020-06-27T14:48:39Z</time>
      </trkpt>
      <trkpt lat="49.0424" lon="7.66511">
        <ele>256</ele>
        <time>2020-06-27T14:48:40Z</time>
      </trkpt>
      <trkpt lat="49.04236" lon="7.66514">
        <ele>255.9</ele>
        <time>2020-06-27T14:48:41Z</time>
      </trkpt>
      <trkpt lat="49.04231" lon="7.6652">
        <ele>255.7</ele>
        <time>2020-06-27T14:48:42Z</time>
      </trkpt>
      <trkpt lat="49.04226" lon="7.66523">
        <ele>255.6</ele>
        <time>2020-06-27T14:48:43Z</time>
      </trkpt>
      <trkpt lat="49.0422" lon="7.66527">
        <ele>255.4</ele>
        <time>2020-06-27T14:48:44Z</time>
      </trkpt>
      <trkpt lat="49.04214" lon="7.66531">
        <ele>255.2</ele>
        <time>2020-06-27T14:48:45Z</time>
      </trkpt>
      <trkpt lat="49.04209" lon="7.66534">
        <ele>255.1</ele>
        <time>2020-06-27T14:48:46Z</time>
      </trkpt>
      <trkpt lat="49.04204" lon="7.66539">
        <ele>254.9</ele>
        <time>2020-06-27T14:48:47Z</time>
      </trkpt>
      <trkpt lat="49.04199" lon="7.66544">
        <ele>254.7</ele>
        <time>2020-06-27T14:48:48Z</time>
      </trkpt>
      <trkpt lat="49.04193" lon="7.66549">
        <ele>254.6</ele>
        <time>2020-06-27T14:48:49Z</time>
      </trkpt>
      <trkpt lat="49.04187" lon="7.66554">
        <ele>254.4</ele>
        <time>2020-06-27T14:48:50Z</time>
      </trkpt>
      <trkpt lat="49.04181" lon="7.66559">
        <ele>254.3</ele>
        <time>2020-06-27T14:48:51Z</time>
      </trkpt>
      <trkpt lat="49.04176" lon="7.66563">
        <ele>254.1</ele>
        <time>2020-06-27T14:48:52Z</time>
      </trkpt>
      <trkpt lat="49.04171" lon="7.66567">
        <ele>254</ele>
        <time>2020-06-27T14:48:53Z</time>
      </trkpt>
      <trkpt lat="49.04166" lon="7.66568">
        <ele>253.9</ele>
        <time>2020-06-27T14:48:54Z</time>
      </trkpt>
      <trkpt lat="49.04159" lon="7.6657">
        <ele>253.7</ele>
        <time>2020-06-27T14:48:55Z</time>
      </trkpt>
      <trkpt lat="49.04152" lon="7.66573">
        <ele>253.6</ele>
        <time>2020-06-27T14:48:56Z</time>
      </trkpt>
      <trkpt lat="49.04145" lon="7.66576">
        <ele>253.5</ele>
        <time>2020-06-27T14:48:57Z</time>
      </trkpt>
      <trkpt lat="49.04138" lon="7.6658">
        <ele>253.4</ele>
        <time>2020-06-27T14:48:58Z</time>
      </trkpt>
      <trkpt lat="49.04132" lon="7.66583">
        <ele>253.3</ele>
        <time>2020-06-27T14:48:59Z</time>
      </trkpt>
      <trkpt lat="49.04126" lon="7.66587">
        <ele>253.3</ele>
        <time>2020-06-27T14:49:00Z</time>
      </trkpt>
      <trkpt lat="49.04121" lon="7.6659">
        <ele>253.3</ele>
        <time>2020-06-27T14:49:01Z</time>
      </trkpt>
      <trkpt lat="49.04115" lon="7.66594">
        <ele>253.3</ele>
        <time>2020-06-27T14:49:02Z</time>
      </trkpt>
      <trkpt lat="49.04109" lon="7.66597">
        <ele>253.3</ele>
        <time>2020-06-27T14:49:03Z</time>
      </trkpt>
      <trkpt lat="49.04103" lon="7.66601">
        <ele>253.3</ele>
        <time>2020-06-27T14:49:04Z</time>
      </trkpt>
      <trkpt lat="49.04098" lon="7.66604">
        <ele>253.3</ele>
        <time>2020-06-27T14:49:05Z</time>
      </trkpt>
      <trkpt lat="49.04093" lon="7.66608">
        <ele>253.4</ele>
        <time>2020-06-27T14:49:06Z</time>
      </trkpt>
      <trkpt lat="49.04088" lon="7.66611">
        <ele>253.4</ele>
        <time>2020-06-27T14:49:07Z</time>
      </trkpt>
      <trkpt lat="49.04083" lon="7.66614">
        <ele>253.5</ele>
        <time>2020-06-27T14:49:08Z</time>
      </trkpt>
      <trkpt lat="49.04078" lon="7.66617">
        <ele>253.5</ele>
        <time>2020-06-27T14:49:09Z</time>
      </trkpt>
      <trkpt lat="49.04073" lon="7.66619">
        <ele>253.5</ele>
        <time>2020-06-27T14:49:10Z</time>
      </trkpt>
      <trkpt lat="49.04068" lon="7.66623">
        <ele>253.6</ele>
        <time>2020-06-27T14:49:11Z</time>
      </trkpt>
      <trkpt lat="49.04065" lon="7.66626">
        <ele>253.6</ele>
        <time>2020-06-27T14:49:12Z</time>
      </trkpt>
      <trkpt lat="49.0406" lon="7.66628">
        <ele>253.6</ele>
        <time>2020-06-27T14:49:13Z</time>
      </trkpt>
      <trkpt lat="49.04056" lon="7.6663">
        <ele>253.6</ele>
        <time>2020-06-27T14:49:14Z</time>
      </trkpt>
      <trkpt lat="49.04051" lon="7.66633">
        <ele>253.6</ele>
        <time>2020-06-27T14:49:15Z</time>
      </trkpt>
      <trkpt lat="49.04046" lon="7.66636">
        <ele>253.6</ele>
        <time>2020-06-27T14:49:16Z</time>
      </trkpt>
      <trkpt lat="49.04042" lon="7.66638">
        <ele>253.7</ele>
        <time>2020-06-27T14:49:17Z</time>
      </trkpt>
      <trkpt lat="49.04037" lon="7.6664">
        <ele>253.7</ele>
        <time>2020-06-27T14:49:18Z</time>
      </trkpt>
      <trkpt lat="49.04032" lon="7.66642">
        <ele>253.7</ele>
        <time>2020-06-27T14:49:19Z</time>
      </trkpt>
      <trkpt lat="49.04028" lon="7.66646">
        <ele>253.8</ele>
        <time>2020-06-27T14:49:20Z</time>
      </trkpt>
      <trkpt lat="49.04023" lon="7.66648">
        <ele>253.8</ele>
        <time>2020-06-27T14:49:21Z</time>
      </trkpt>
      <trkpt lat="49.04019" lon="7.66652">
        <ele>253.8</ele>
        <time>2020-06-27T14:49:22Z</time>
      </trkpt>
      <trkpt lat="49.04014" lon="7.66656">
        <ele>253.9</ele>
        <time>2020-06-27T14:49:23Z</time>
      </trkpt>
      <trkpt lat="49.0401" lon="7.66661">
        <ele>253.9</ele>
        <time>2020-06-27T14:49:24Z</time>
      </trkpt>
      <trkpt lat="49.04006" lon="7.66666">
        <ele>254</ele>
        <time>2020-06-27T14:49:25Z</time>
      </trkpt>
      <trkpt lat="49.04002" lon="7.66672">
        <ele>254</ele>
        <time>2020-06-27T14:49:26Z</time>
      </trkpt>
      <trkpt lat="49.03998" lon="7.66678">
        <ele>254.1</ele>
        <time>2020-06-27T14:49:27Z</time>
      </trkpt>
      <trkpt lat="49.03995" lon="7.66683">
        <ele>254.2</ele>
        <time>2020-06-27T14:49:28Z</time>
      </trkpt>
      <trkpt lat="49.03991" lon="7.66689">
        <ele>254.2</ele>
        <time>2020-06-27T14:49:29Z</time>
      </trkpt>
      <trkpt lat="49.03987" lon="7.66693">
        <ele>254.3</ele>
        <time>2020-06-27T14:49:30Z</time>
      </trkpt>
      <trkpt lat="49.03982" lon="7.66698">
        <ele>254.4</ele>
        <time>2020-06-27T14:49:31Z</time>
      </trkpt>
      <trkpt lat="49.03978" lon="7.66704">
        <ele>254.5</ele>
        <time>2020-06-27T14:49:32Z</time>
      </trkpt>
      <trkpt lat="49.03974" lon="7.66708">
        <ele>254.6</ele>
        <time>2020-06-27T14:49:33Z</time>
      </trkpt>
      <trkpt lat="49.0397" lon="7.66712">
        <ele>254.7</ele>
        <time>2020-06-27T14:49:34Z</time>
      </trkpt>
      <trkpt lat="49.03966" lon="7.66718">
        <ele>254.8</ele>
        <time>2020-06-27T14:49:35Z</time>
      </trkpt>
      <trkpt lat="49.03962" lon="7.66723">
        <ele>254.9</ele>
        <time>2020-06-27T14:49:36Z</time>
      </trkpt>
      <trkpt lat="49.03958" lon="7.66729">
        <ele>255</ele>
        <time>2020-06-27T14:49:37Z</time>
      </trkpt>
      <trkpt lat="49.03955" lon="7.66735">
        <ele>255.2</ele>
        <time>2020-06-27T14:49:38Z</time>
      </trkpt>
      <trkpt lat="49.03951" lon="7.66741">
        <ele>255.3</ele>
        <time>2020-06-27T14:49:39Z</time>
      </trkpt>
      <trkpt lat="49.03947" lon="7.66747">
        <ele>255.6</ele>
        <time>2020-06-27T14:49:40Z</time>
      </trkpt>
      <trkpt lat="49.03943" lon="7.66752">
        <ele>255.8</ele>
        <time>2020-06-27T14:49:41Z</time>
      </trkpt>
      <trkpt lat="49.03939" lon="7.66757">
        <ele>256</ele>
        <time>2020-06-27T14:49:42Z</time>
      </trkpt>
      <trkpt lat="49.03936" lon="7.66761">
        <ele>256.1</ele>
        <time>2020-06-27T14:49:43Z</time>
      </trkpt>
      <trkpt lat="49.03933" lon="7.66767">
        <ele>256.3</ele>
        <time>2020-06-27T14:49:44Z</time>
      </trkpt>
      <trkpt lat="49.03929" lon="7.66773">
        <ele>256.4</ele>
        <time>2020-06-27T14:49:45Z</time>
      </trkpt>
      <trkpt lat="49.03924" lon="7.66777">
        <ele>256.5</ele>
        <time>2020-06-27T14:49:46Z</time>
      </trkpt>
      <trkpt lat="49.0392" lon="7.66782">
        <ele>256.6</ele>
        <time>2020-06-27T14:49:47Z</time>
      </trkpt>
      <trkpt lat="49.03916" lon="7.66787">
        <ele>256.7</ele>
        <time>2020-06-27T14:49:48Z</time>
      </trkpt>
      <trkpt lat="49.03912" lon="7.66792">
        <ele>256.8</ele>
        <time>2020-06-27T14:49:49Z</time>
      </trkpt>
      <trkpt lat="49.03908" lon="7.66798">
        <ele>256.9</ele>
        <time>2020-06-27T14:49:50Z</time>
      </trkpt>
      <trkpt lat="49.03904" lon="7.66803">
        <ele>257</ele>
        <time>2020-06-27T14:49:51Z</time>
      </trkpt>
      <trkpt lat="49.039" lon="7.66808">
        <ele>257</ele>
        <time>2020-06-27T14:49:52Z</time>
      </trkpt>
      <trkpt lat="49.03897" lon="7.66813">
        <ele>257</ele>
        <time>2020-06-27T14:49:53Z</time>
      </trkpt>
      <trkpt lat="49.03894" lon="7.66819">
        <ele>257</ele>
        <time>2020-06-27T14:49:54Z</time>
      </trkpt>
      <trkpt lat="49.03891" lon="7.66823">
        <ele>257</ele>
        <time>2020-06-27T14:49:55Z</time>
      </trkpt>
      <trkpt lat="49.03889" lon="7.66828">
        <ele>257</ele>
        <time>2020-06-27T14:49:56Z</time>
      </trkpt>
      <trkpt lat="49.03887" lon="7.66833">
        <ele>256.9</ele>
        <time>2020-06-27T14:49:57Z</time>
      </trkpt>
      <trkpt lat="49.03885" lon="7.66838">
        <ele>256.9</ele>
        <time>2020-06-27T14:49:58Z</time>
      </trkpt>
      <trkpt lat="49.03884" lon="7.66843">
        <ele>256.8</ele>
        <time>2020-06-27T14:49:59Z</time>
      </trkpt>
      <trkpt lat="49.03881" lon="7.66849">
        <ele>256.7</ele>
        <time>2020-06-27T14:50:00Z</time>
      </trkpt>
      <trkpt lat="49.03879" lon="7.66855">
        <ele>256.6</ele>
        <time>2020-06-27T14:50:01Z</time>
      </trkpt>
      <trkpt lat="49.03876" lon="7.66861">
        <ele>256.6</ele>
        <time>2020-06-27T14:50:02Z</time>
      </trkpt>
      <trkpt lat="49.03874" lon="7.66867">
        <ele>256.5</ele>
        <time>2020-06-27T14:50:03Z</time>
      </trkpt>
      <trkpt lat="49.03873" lon="7.66872">
        <ele>256.5</ele>
        <time>2020-06-27T14:50:04Z</time>
      </trkpt>
      <trkpt lat="49.03871" lon="7.66878">
        <ele>256.4</ele>
        <time>2020-06-27T14:50:05Z</time>
      </trkpt>
      <trkpt lat="49.03869" lon="7.66883">
        <ele>256.3</ele>
        <time>2020-06-27T14:50:06Z</time>
      </trkpt>
      <trkpt lat="49.03866" lon="7.66888">
        <ele>256.3</ele>
        <time>2020-06-27T14:50:07Z</time>
      </trkpt>
      <trkpt lat="49.03864" lon="7.66895">
        <ele>256.2</ele>
        <time>2020-06-27T14:50:08Z</time>
      </trkpt>
      <trkpt lat="49.03861" lon="7.66902">
        <ele>256.1</ele>
        <time>2020-06-27T14:50:09Z</time>
      </trkpt>
      <trkpt lat="49.03858" lon="7.66908">
        <ele>256</ele>
        <time>2020-06-27T14:50:10Z</time>
      </trkpt>
      <trkpt lat="49.03855" lon="7.66913">
        <ele>255.9</ele>
        <time>2020-06-27T14:50:11Z</time>
      </trkpt>
      <trkpt lat="49.03851" lon="7.6692">
        <ele>255.7</ele>
        <time>2020-06-27T14:50:12Z</time>
      </trkpt>
      <trkpt lat="49.03847" lon="7.66925">
        <ele>255.5</ele>
        <time>2020-06-27T14:50:13Z</time>
      </trkpt>
      <trkpt lat="49.03843" lon="7.66931">
        <ele>255.3</ele>
        <time>2020-06-27T14:50:14Z</time>
      </trkpt>
      <trkpt lat="49.0384" lon="7.66936">
        <ele>255.2</ele>
        <time>2020-06-27T14:50:15Z</time>
      </trkpt>
      <trkpt lat="49.03836" lon="7.66944">
        <ele>255</ele>
        <time>2020-06-27T14:50:16Z</time>
      </trkpt>
      <trkpt lat="49.03833" lon="7.66952">
        <ele>254.8</ele>
        <time>2020-06-27T14:50:17Z</time>
      </trkpt>
      <trkpt lat="49.03832" lon="7.66959">
        <ele>254.6</ele>
        <time>2020-06-27T14:50:18Z</time>
      </trkpt>
      <trkpt lat="49.03829" lon="7.66968">
        <ele>254.4</ele>
        <time>2020-06-27T14:50:19Z</time>
      </trkpt>
      <trkpt lat="49.03826" lon="7.66977">
        <ele>254.2</ele>
        <time>2020-06-27T14:50:20Z</time>
      </trkpt>
      <trkpt lat="49.03823" lon="7.66987">
        <ele>254.1</ele>
        <time>2020-06-27T14:50:21Z</time>
      </trkpt>
      <trkpt lat="49.03821" lon="7.66997">
        <ele>254</ele>
        <time>2020-06-27T14:50:22Z</time>
      </trkpt>
      <trkpt lat="49.03818" lon="7.67006">
        <ele>253.8</ele>
        <time>2020-06-27T14:50:23Z</time>
      </trkpt>
      <trkpt lat="49.03816" lon="7.67015">
        <ele>253.7</ele>
        <time>2020-06-27T14:50:24Z</time>
      </trkpt>
      <trkpt lat="49.03813" lon="7.67025">
        <ele>253.6</ele>
        <time>2020-06-27T14:50:25Z</time>
      </trkpt>
      <trkpt lat="49.03812" lon="7.67034">
        <ele>253.4</ele>
        <time>2020-06-27T14:50:26Z</time>
      </trkpt>
      <trkpt lat="49.03809" lon="7.67043">
        <ele>253.3</ele>
        <time>2020-06-27T14:50:27Z</time>
      </trkpt>
      <trkpt lat="49.03807" lon="7.67051">
        <ele>253.2</ele>
        <time>2020-06-27T14:50:28Z</time>
      </trkpt>
      <trkpt lat="49.03804" lon="7.6706">
        <ele>253</ele>
        <time>2020-06-27T14:50:29Z</time>
      </trkpt>
      <trkpt lat="49.03802" lon="7.67069">
        <ele>252.9</ele>
        <time>2020-06-27T14:50:30Z</time>
      </trkpt>
      <trkpt lat="49.03799" lon="7.67077">
        <ele>252.8</ele>
        <time>2020-06-27T14:50:31Z</time>
      </trkpt>
      <trkpt lat="49.03796" lon="7.67086">
        <ele>252.7</ele>
        <time>2020-06-27T14:50:32Z</time>
      </trkpt>
      <trkpt lat="49.03791" lon="7.67095">
        <ele>252.7</ele>
        <time>2020-06-27T14:50:33Z</time>
      </trkpt>
      <trkpt lat="49.03788" lon="7.67104">
        <ele>252.6</ele>
        <time>2020-06-27T14:50:34Z</time>
      </trkpt>
      <trkpt lat="49.03785" lon="7.67114">
        <ele>252.6</ele>
        <time>2020-06-27T14:50:35Z</time>
      </trkpt>
      <trkpt lat="49.03783" lon="7.67125">
        <ele>252.5</ele>
        <time>2020-06-27T14:50:36Z</time>
      </trkpt>
      <trkpt lat="49.0378" lon="7.67134">
        <ele>252.5</ele>
        <time>2020-06-27T14:50:37Z</time>
      </trkpt>
      <trkpt lat="49.03777" lon="7.67143">
        <ele>252.4</ele>
        <time>2020-06-27T14:50:38Z</time>
      </trkpt>
      <trkpt lat="49.03774" lon="7.67152">
        <ele>252.3</ele>
        <time>2020-06-27T14:50:39Z</time>
      </trkpt>
      <trkpt lat="49.03771" lon="7.67161">
        <ele>252.2</ele>
        <time>2020-06-27T14:50:40Z</time>
      </trkpt>
      <trkpt lat="49.03769" lon="7.6717">
        <ele>252.1</ele>
        <time>2020-06-27T14:50:41Z</time>
      </trkpt>
      <trkpt lat="49.03766" lon="7.67179">
        <ele>251.9</ele>
        <time>2020-06-27T14:50:42Z</time>
      </trkpt>
      <trkpt lat="49.03763" lon="7.67187">
        <ele>251.8</ele>
        <time>2020-06-27T14:50:43Z</time>
      </trkpt>
      <trkpt lat="49.03759" lon="7.67195">
        <ele>251.7</ele>
        <time>2020-06-27T14:50:44Z</time>
      </trkpt>
      <trkpt lat="49.03757" lon="7.67204">
        <ele>251.6</ele>
        <time>2020-06-27T14:50:45Z</time>
      </trkpt>
      <trkpt lat="49.03752" lon="7.67212">
        <ele>251.4</ele>
        <time>2020-06-27T14:50:46Z</time>
      </trkpt>
      <trkpt lat="49.03748" lon="7.67221">
        <ele>251.3</ele>
        <time>2020-06-27T14:50:47Z</time>
      </trkpt>
      <trkpt lat="49.03744" lon="7.67232">
        <ele>251.1</ele>
        <time>2020-06-27T14:50:48Z</time>
      </trkpt>
      <trkpt lat="49.03741" lon="7.6724">
        <ele>251</ele>
        <time>2020-06-27T14:50:49Z</time>
      </trkpt>
      <trkpt lat="49.03738" lon="7.67248">
        <ele>250.8</ele>
        <time>2020-06-27T14:50:50Z</time>
      </trkpt>
      <trkpt lat="49.03734" lon="7.67256">
        <ele>250.7</ele>
        <time>2020-06-27T14:50:51Z</time>
      </trkpt>
      <trkpt lat="49.03731" lon="7.67264">
        <ele>250.6</ele>
        <time>2020-06-27T14:50:52Z</time>
      </trkpt>
      <trkpt lat="49.03729" lon="7.67273">
        <ele>250.5</ele>
        <time>2020-06-27T14:50:53Z</time>
      </trkpt>
      <trkpt lat="49.03726" lon="7.67283">
        <ele>250.4</ele>
        <time>2020-06-27T14:50:54Z</time>
      </trkpt>
      <trkpt lat="49.03723" lon="7.67292">
        <ele>250.4</ele>
        <time>2020-06-27T14:50:55Z</time>
      </trkpt>
      <trkpt lat="49.03719" lon="7.67302">
        <ele>250.3</ele>
        <time>2020-06-27T14:50:56Z</time>
      </trkpt>
      <trkpt lat="49.03716" lon="7.6731">
        <ele>250.2</ele>
        <time>2020-06-27T14:50:57Z</time>
      </trkpt>
      <trkpt lat="49.03712" lon="7.6732">
        <ele>250.2</ele>
        <time>2020-06-27T14:50:58Z</time>
      </trkpt>
      <trkpt lat="49.03708" lon="7.6733">
        <ele>250.1</ele>
        <time>2020-06-27T14:50:59Z</time>
      </trkpt>
      <trkpt lat="49.03704" lon="7.6734">
        <ele>250</ele>
        <time>2020-06-27T14:51:00Z</time>
      </trkpt>
      <trkpt lat="49.03699" lon="7.67349">
        <ele>249.9</ele>
        <time>2020-06-27T14:51:01Z</time>
      </trkpt>
      <trkpt lat="49.03696" lon="7.67357">
        <ele>249.9</ele>
        <time>2020-06-27T14:51:02Z</time>
      </trkpt>
      <trkpt lat="49.03692" lon="7.67364">
        <ele>249.8</ele>
        <time>2020-06-27T14:51:03Z</time>
      </trkpt>
      <trkpt lat="49.0369" lon="7.67373">
        <ele>249.8</ele>
        <time>2020-06-27T14:51:04Z</time>
      </trkpt>
      <trkpt lat="49.03687" lon="7.67382">
        <ele>249.8</ele>
        <time>2020-06-27T14:51:05Z</time>
      </trkpt>
      <trkpt lat="49.03684" lon="7.67391">
        <ele>249.8</ele>
        <time>2020-06-27T14:51:06Z</time>
      </trkpt>
      <trkpt lat="49.03681" lon="7.67401">
        <ele>249.7</ele>
        <time>2020-06-27T14:51:07Z</time>
      </trkpt>
      <trkpt lat="49.03677" lon="7.67412">
        <ele>249.7</ele>
        <time>2020-06-27T14:51:08Z</time>
      </trkpt>
      <trkpt lat="49.03675" lon="7.67421">
        <ele>249.6</ele>
        <time>2020-06-27T14:51:09Z</time>
      </trkpt>
      <trkpt lat="49.03672" lon="7.6743">
        <ele>249.5</ele>
        <time>2020-06-27T14:51:10Z</time>
      </trkpt>
      <trkpt lat="49.03667" lon="7.67439">
        <ele>249.3</ele>
        <time>2020-06-27T14:51:11Z</time>
      </trkpt>
      <trkpt lat="49.03664" lon="7.67449">
        <ele>249</ele>
        <time>2020-06-27T14:51:12Z</time>
      </trkpt>
      <trkpt lat="49.03661" lon="7.67458">
        <ele>248.7</ele>
        <time>2020-06-27T14:51:13Z</time>
      </trkpt>
      <trkpt lat="49.03659" lon="7.67468">
        <ele>248.4</ele>
        <time>2020-06-27T14:51:14Z</time>
      </trkpt>
      <trkpt lat="49.03657" lon="7.67476">
        <ele>248.2</ele>
        <time>2020-06-27T14:51:15Z</time>
      </trkpt>
      <trkpt lat="49.03656" lon="7.67485">
        <ele>247.9</ele>
        <time>2020-06-27T14:51:16Z</time>
      </trkpt>
      <trkpt lat="49.03656" lon="7.67495">
        <ele>247.7</ele>
        <time>2020-06-27T14:51:17Z</time>
      </trkpt>
      <trkpt lat="49.03656" lon="7.67506">
        <ele>247.4</ele>
        <time>2020-06-27T14:51:18Z</time>
      </trkpt>
      <trkpt lat="49.03657" lon="7.67517">
        <ele>247.1</ele>
        <time>2020-06-27T14:51:19Z</time>
      </trkpt>
      <trkpt lat="49.03658" lon="7.67529">
        <ele>246.8</ele>
        <time>2020-06-27T14:51:20Z</time>
      </trkpt>
      <trkpt lat="49.0366" lon="7.6754">
        <ele>246.5</ele>
        <time>2020-06-27T14:51:21Z</time>
      </trkpt>
      <trkpt lat="49.03662" lon="7.67552">
        <ele>246.2</ele>
        <time>2020-06-27T14:51:22Z</time>
      </trkpt>
      <trkpt lat="49.03665" lon="7.67564">
        <ele>245.9</ele>
        <time>2020-06-27T14:51:23Z</time>
      </trkpt>
      <trkpt lat="49.03668" lon="7.67575">
        <ele>245.7</ele>
        <time>2020-06-27T14:51:24Z</time>
      </trkpt>
      <trkpt lat="49.03671" lon="7.67586">
        <ele>245.5</ele>
        <time>2020-06-27T14:51:25Z</time>
      </trkpt>
      <trkpt lat="49.03674" lon="7.67597">
        <ele>245.5</ele>
        <time>2020-06-27T14:51:26Z</time>
      </trkpt>
      <trkpt lat="49.03676" lon="7.67609">
        <ele>245.7</ele>
        <time>2020-06-27T14:51:27Z</time>
      </trkpt>
      <trkpt lat="49.03679" lon="7.67621">
        <ele>245.6</ele>
        <time>2020-06-27T14:51:28Z</time>
      </trkpt>
      <trkpt lat="49.03682" lon="7.67633">
        <ele>245.6</ele>
        <time>2020-06-27T14:51:29Z</time>
      </trkpt>
      <trkpt lat="49.03685" lon="7.67645">
        <ele>245.7</ele>
        <time>2020-06-27T14:51:30Z</time>
      </trkpt>
      <trkpt lat="49.03688" lon="7.67656">
        <ele>245.8</ele>
        <time>2020-06-27T14:51:31Z</time>
      </trkpt>
      <trkpt lat="49.0369" lon="7.67667">
        <ele>245.9</ele>
        <time>2020-06-27T14:51:32Z</time>
      </trkpt>
      <trkpt lat="49.03692" lon="7.67677">
        <ele>246</ele>
        <time>2020-06-27T14:51:33Z</time>
      </trkpt>
      <trkpt lat="49.03694" lon="7.67687">
        <ele>246.1</ele>
        <time>2020-06-27T14:51:34Z</time>
      </trkpt>
      <trkpt lat="49.03696" lon="7.67697">
        <ele>246.3</ele>
        <time>2020-06-27T14:51:35Z</time>
      </trkpt>
      <trkpt lat="49.03698" lon="7.67706">
        <ele>246.4</ele>
        <time>2020-06-27T14:51:36Z</time>
      </trkpt>
      <trkpt lat="49.037" lon="7.67715">
        <ele>247.1</ele>
        <time>2020-06-27T14:51:37Z</time>
      </trkpt>
      <trkpt lat="49.03702" lon="7.67723">
        <ele>247.3</ele>
        <time>2020-06-27T14:51:38Z</time>
      </trkpt>
      <trkpt lat="49.03704" lon="7.67732">
        <ele>247.6</ele>
        <time>2020-06-27T14:51:39Z</time>
      </trkpt>
      <trkpt lat="49.03706" lon="7.67739">
        <ele>247.6</ele>
        <time>2020-06-27T14:51:40Z</time>
      </trkpt>
      <trkpt lat="49.03708" lon="7.67748">
        <ele>247.6</ele>
        <time>2020-06-27T14:51:41Z</time>
      </trkpt>
      <trkpt lat="49.03709" lon="7.67756">
        <ele>247.6</ele>
        <time>2020-06-27T14:51:42Z</time>
      </trkpt>
      <trkpt lat="49.0371" lon="7.67764">
        <ele>247.6</ele>
        <time>2020-06-27T14:51:43Z</time>
      </trkpt>
      <trkpt lat="49.0371" lon="7.67771">
        <ele>247.6</ele>
        <time>2020-06-27T14:51:44Z</time>
      </trkpt>
      <trkpt lat="49.03711" lon="7.6778">
        <ele>247.7</ele>
        <time>2020-06-27T14:51:45Z</time>
      </trkpt>
      <trkpt lat="49.0371" lon="7.67789">
        <ele>247.8</ele>
        <time>2020-06-27T14:51:46Z</time>
      </trkpt>
      <trkpt lat="49.0371" lon="7.67797">
        <ele>247.9</ele>
        <time>2020-06-27T14:51:47Z</time>
      </trkpt>
      <trkpt lat="49.0371" lon="7.67806">
        <ele>247.9</ele>
        <time>2020-06-27T14:51:48Z</time>
      </trkpt>
      <trkpt lat="49.0371" lon="7.67815">
        <ele>248</ele>
        <time>2020-06-27T14:51:49Z</time>
      </trkpt>
      <trkpt lat="49.0371" lon="7.67823">
        <ele>248</ele>
        <time>2020-06-27T14:51:50Z</time>
      </trkpt>
      <trkpt lat="49.03709" lon="7.67831">
        <ele>248</ele>
        <time>2020-06-27T14:51:51Z</time>
      </trkpt>
      <trkpt lat="49.0371" lon="7.67839">
        <ele>248.1</ele>
        <time>2020-06-27T14:51:52Z</time>
      </trkpt>
      <trkpt lat="49.0371" lon="7.67848">
        <ele>248.1</ele>
        <time>2020-06-27T14:51:53Z</time>
      </trkpt>
      <trkpt lat="49.03709" lon="7.67856">
        <ele>248.1</ele>
        <time>2020-06-27T14:51:54Z</time>
      </trkpt>
      <trkpt lat="49.03708" lon="7.67864">
        <ele>248.1</ele>
        <time>2020-06-27T14:51:55Z</time>
      </trkpt>
      <trkpt lat="49.03707" lon="7.67873">
        <ele>248.1</ele>
        <time>2020-06-27T14:51:56Z</time>
      </trkpt>
      <trkpt lat="49.03706" lon="7.67881">
        <ele>248.1</ele>
        <time>2020-06-27T14:51:57Z</time>
      </trkpt>
      <trkpt lat="49.03705" lon="7.67889">
        <ele>248</ele>
        <time>2020-06-27T14:51:58Z</time>
      </trkpt>
      <trkpt lat="49.03704" lon="7.67898">
        <ele>248</ele>
        <time>2020-06-27T14:51:59Z</time>
      </trkpt>
      <trkpt lat="49.03703" lon="7.67906">
        <ele>248</ele>
        <time>2020-06-27T14:52:00Z</time>
      </trkpt>
      <trkpt lat="49.03703" lon="7.67915">
        <ele>247.9</ele>
        <time>2020-06-27T14:52:01Z</time>
      </trkpt>
      <trkpt lat="49.03702" lon="7.67924">
        <ele>247.9</ele>
        <time>2020-06-27T14:52:02Z</time>
      </trkpt>
      <trkpt lat="49.03701" lon="7.67933">
        <ele>247.9</ele>
        <time>2020-06-27T14:52:03Z</time>
      </trkpt>
      <trkpt lat="49.037" lon="7.67942">
        <ele>247.8</ele>
        <time>2020-06-27T14:52:04Z</time>
      </trkpt>
      <trkpt lat="49.03699" lon="7.67952">
        <ele>247.7</ele>
        <time>2020-06-27T14:52:05Z</time>
      </trkpt>
      <trkpt lat="49.03699" lon="7.67961">
        <ele>247.6</ele>
        <time>2020-06-27T14:52:06Z</time>
      </trkpt>
      <trkpt lat="49.03698" lon="7.67971">
        <ele>247.6</ele>
        <time>2020-06-27T14:52:07Z</time>
      </trkpt>
      <trkpt lat="49.03697" lon="7.6798">
        <ele>247.5</ele>
        <time>2020-06-27T14:52:08Z</time>
      </trkpt>
      <trkpt lat="49.03697" lon="7.67989">
        <ele>247.4</ele>
        <time>2020-06-27T14:52:09Z</time>
      </trkpt>
      <trkpt lat="49.03696" lon="7.67998">
        <ele>247.3</ele>
        <time>2020-06-27T14:52:10Z</time>
      </trkpt>
      <trkpt lat="49.03696" lon="7.68007">
        <ele>247.2</ele>
        <time>2020-06-27T14:52:11Z</time>
      </trkpt>
      <trkpt lat="49.03696" lon="7.68016">
        <ele>247.1</ele>
        <time>2020-06-27T14:52:12Z</time>
      </trkpt>
      <trkpt lat="49.03697" lon="7.68025">
        <ele>247</ele>
        <time>2020-06-27T14:52:13Z</time>
      </trkpt>
      <trkpt lat="49.03698" lon="7.68035">
        <ele>246.8</ele>
        <time>2020-06-27T14:52:14Z</time>
      </trkpt>
      <trkpt lat="49.03699" lon="7.68045">
        <ele>246.6</ele>
        <time>2020-06-27T14:52:15Z</time>
      </trkpt>
      <trkpt lat="49.03701" lon="7.68056">
        <ele>246.4</ele>
        <time>2020-06-27T14:52:16Z</time>
      </trkpt>
      <trkpt lat="49.03702" lon="7.68066">
        <ele>246.2</ele>
        <time>2020-06-27T14:52:17Z</time>
      </trkpt>
      <trkpt lat="49.03703" lon="7.68077">
        <ele>246</ele>
        <time>2020-06-27T14:52:18Z</time>
      </trkpt>
      <trkpt lat="49.03704" lon="7.68088">
        <ele>245.8</ele>
        <time>2020-06-27T14:52:19Z</time>
      </trkpt>
      <trkpt lat="49.03704" lon="7.68099">
        <ele>245.5</ele>
        <time>2020-06-27T14:52:20Z</time>
      </trkpt>
      <trkpt lat="49.03704" lon="7.6811">
        <ele>245.4</ele>
        <time>2020-06-27T14:52:21Z</time>
      </trkpt>
      <trkpt lat="49.03706" lon="7.6812">
        <ele>245.2</ele>
        <time>2020-06-27T14:52:22Z</time>
      </trkpt>
      <trkpt lat="49.03707" lon="7.68131">
        <ele>245</ele>
        <time>2020-06-27T14:52:23Z</time>
      </trkpt>
      <trkpt lat="49.03709" lon="7.68142">
        <ele>244.9</ele>
        <time>2020-06-27T14:52:24Z</time>
      </trkpt>
      <trkpt lat="49.0371" lon="7.68152">
        <ele>244.9</ele>
        <time>2020-06-27T14:52:25Z</time>
      </trkpt>
      <trkpt lat="49.03711" lon="7.68163">
        <ele>244.8</ele>
        <time>2020-06-27T14:52:26Z</time>
      </trkpt>
      <trkpt lat="49.03712" lon="7.68174">
        <ele>244.8</ele>
        <time>2020-06-27T14:52:27Z</time>
      </trkpt>
      <trkpt lat="49.03712" lon="7.68184">
        <ele>244.9</ele>
        <time>2020-06-27T14:52:28Z</time>
      </trkpt>
      <trkpt lat="49.03712" lon="7.68195">
        <ele>244.9</ele>
        <time>2020-06-27T14:52:29Z</time>
      </trkpt>
      <trkpt lat="49.03711" lon="7.68205">
        <ele>244.9</ele>
        <time>2020-06-27T14:52:30Z</time>
      </trkpt>
      <trkpt lat="49.03709" lon="7.68215">
        <ele>245</ele>
        <time>2020-06-27T14:52:31Z</time>
      </trkpt>
      <trkpt lat="49.03708" lon="7.68225">
        <ele>245</ele>
        <time>2020-06-27T14:52:32Z</time>
      </trkpt>
      <trkpt lat="49.03706" lon="7.68234">
        <ele>245.1</ele>
        <time>2020-06-27T14:52:33Z</time>
      </trkpt>
      <trkpt lat="49.03703" lon="7.68242">
        <ele>245.2</ele>
        <time>2020-06-27T14:52:34Z</time>
      </trkpt>
      <trkpt lat="49.037" lon="7.6825">
        <ele>245.2</ele>
        <time>2020-06-27T14:52:35Z</time>
      </trkpt>
      <trkpt lat="49.03698" lon="7.68259">
        <ele>245.3</ele>
        <time>2020-06-27T14:52:36Z</time>
      </trkpt>
      <trkpt lat="49.03696" lon="7.68267">
        <ele>245.4</ele>
        <time>2020-06-27T14:52:37Z</time>
      </trkpt>
      <trkpt lat="49.03694" lon="7.68275">
        <ele>245.5</ele>
        <time>2020-06-27T14:52:38Z</time>
      </trkpt>
      <trkpt lat="49.03691" lon="7.68283">
        <ele>245.6</ele>
        <time>2020-06-27T14:52:39Z</time>
      </trkpt>
      <trkpt lat="49.03689" lon="7.68291">
        <ele>245.6</ele>
        <time>2020-06-27T14:52:40Z</time>
      </trkpt>
      <trkpt lat="49.03686" lon="7.68298">
        <ele>245.7</ele>
        <time>2020-06-27T14:52:41Z</time>
      </trkpt>
      <trkpt lat="49.03685" lon="7.68306">
        <ele>245.7</ele>
        <time>2020-06-27T14:52:42Z</time>
      </trkpt>
      <trkpt lat="49.03682" lon="7.68313">
        <ele>245.7</ele>
        <time>2020-06-27T14:52:43Z</time>
      </trkpt>
      <trkpt lat="49.0368" lon="7.68321">
        <ele>245.7</ele>
        <time>2020-06-27T14:52:44Z</time>
      </trkpt>
      <trkpt lat="49.03678" lon="7.68328">
        <ele>245.7</ele>
        <time>2020-06-27T14:52:45Z</time>
      </trkpt>
      <trkpt lat="49.03676" lon="7.68336">
        <ele>245.7</ele>
        <time>2020-06-27T14:52:46Z</time>
      </trkpt>
      <trkpt lat="49.03673" lon="7.68343">
        <ele>245.7</ele>
        <time>2020-06-27T14:52:47Z</time>
      </trkpt>
      <trkpt lat="49.03671" lon="7.68351">
        <ele>245.6</ele>
        <time>2020-06-27T14:52:48Z</time>
      </trkpt>
      <trkpt lat="49.03669" lon="7.68359">
        <ele>245.5</ele>
        <time>2020-06-27T14:52:49Z</time>
      </trkpt>
      <trkpt lat="49.03667" lon="7.68367">
        <ele>245.4</ele>
        <time>2020-06-27T14:52:50Z</time>
      </trkpt>
      <trkpt lat="49.03666" lon="7.68376">
        <ele>245.3</ele>
        <time>2020-06-27T14:52:51Z</time>
      </trkpt>
      <trkpt lat="49.03664" lon="7.68385">
        <ele>245.2</ele>
        <time>2020-06-27T14:52:52Z</time>
      </trkpt>
      <trkpt lat="49.03662" lon="7.68394">
        <ele>245.1</ele>
        <time>2020-06-27T14:52:53Z</time>
      </trkpt>
      <trkpt lat="49.0366" lon="7.68403">
        <ele>244.9</ele>
        <time>2020-06-27T14:52:54Z</time>
      </trkpt>
      <trkpt lat="49.03658" lon="7.68413">
        <ele>244.6</ele>
        <time>2020-06-27T14:52:55Z</time>
      </trkpt>
      <trkpt lat="49.03656" lon="7.68424">
        <ele>244.4</ele>
        <time>2020-06-27T14:52:56Z</time>
      </trkpt>
      <trkpt lat="49.03655" lon="7.68435">
        <ele>244.1</ele>
        <time>2020-06-27T14:52:57Z</time>
      </trkpt>
      <trkpt lat="49.03654" lon="7.68446">
        <ele>243.9</ele>
        <time>2020-06-27T14:52:58Z</time>
      </trkpt>
      <trkpt lat="49.03652" lon="7.68456">
        <ele>243.6</ele>
        <time>2020-06-27T14:52:59Z</time>
      </trkpt>
      <trkpt lat="49.03651" lon="7.68468">
        <ele>243.4</ele>
        <time>2020-06-27T14:53:00Z</time>
      </trkpt>
      <trkpt lat="49.0365" lon="7.68479">
        <ele>243.1</ele>
        <time>2020-06-27T14:53:01Z</time>
      </trkpt>
      <trkpt lat="49.03648" lon="7.68491">
        <ele>242.9</ele>
        <time>2020-06-27T14:53:02Z</time>
      </trkpt>
      <trkpt lat="49.03646" lon="7.68502">
        <ele>242.7</ele>
        <time>2020-06-27T14:53:03Z</time>
      </trkpt>
      <trkpt lat="49.03644" lon="7.68514">
        <ele>242.5</ele>
        <time>2020-06-27T14:53:04Z</time>
      </trkpt>
      <trkpt lat="49.03642" lon="7.68525">
        <ele>242.3</ele>
        <time>2020-06-27T14:53:05Z</time>
      </trkpt>
      <trkpt lat="49.0364" lon="7.68537">
        <ele>242.1</ele>
        <time>2020-06-27T14:53:06Z</time>
      </trkpt>
      <trkpt lat="49.03638" lon="7.68548">
        <ele>242</ele>
        <time>2020-06-27T14:53:07Z</time>
      </trkpt>
      <trkpt lat="49.03636" lon="7.68559">
        <ele>241.8</ele>
        <time>2020-06-27T14:53:08Z</time>
      </trkpt>
      <trkpt lat="49.03633" lon="7.6857">
        <ele>241.6</ele>
        <time>2020-06-27T14:53:09Z</time>
      </trkpt>
      <trkpt lat="49.0363" lon="7.68581">
        <ele>241.5</ele>
        <time>2020-06-27T14:53:10Z</time>
      </trkpt>
      <trkpt lat="49.03628" lon="7.68591">
        <ele>241.3</ele>
        <time>2020-06-27T14:53:11Z</time>
      </trkpt>
      <trkpt lat="49.03625" lon="7.68601">
        <ele>241.2</ele>
        <time>2020-06-27T14:53:12Z</time>
      </trkpt>
      <trkpt lat="49.03622" lon="7.68611">
        <ele>241.2</ele>
        <time>2020-06-27T14:53:13Z</time>
      </trkpt>
      <trkpt lat="49.03619" lon="7.68621">
        <ele>241.1</ele>
        <time>2020-06-27T14:53:14Z</time>
      </trkpt>
      <trkpt lat="49.03616" lon="7.68632">
        <ele>241</ele>
        <time>2020-06-27T14:53:15Z</time>
      </trkpt>
      <trkpt lat="49.03614" lon="7.68641">
        <ele>241</ele>
        <time>2020-06-27T14:53:16Z</time>
      </trkpt>
      <trkpt lat="49.03612" lon="7.68652">
        <ele>240.9</ele>
        <time>2020-06-27T14:53:17Z</time>
      </trkpt>
      <trkpt lat="49.0361" lon="7.68662">
        <ele>240.8</ele>
        <time>2020-06-27T14:53:18Z</time>
      </trkpt>
      <trkpt lat="49.03608" lon="7.68673">
        <ele>240.7</ele>
        <time>2020-06-27T14:53:19Z</time>
      </trkpt>
      <trkpt lat="49.03606" lon="7.68683">
        <ele>240.6</ele>
        <time>2020-06-27T14:53:20Z</time>
      </trkpt>
      <trkpt lat="49.03605" lon="7.68694">
        <ele>240.6</ele>
        <time>2020-06-27T14:53:21Z</time>
      </trkpt>
      <trkpt lat="49.03604" lon="7.68705">
        <ele>240.5</ele>
        <time>2020-06-27T14:53:22Z</time>
      </trkpt>
      <trkpt lat="49.03603" lon="7.68716">
        <ele>240.5</ele>
        <time>2020-06-27T14:53:23Z</time>
      </trkpt>
      <trkpt lat="49.03602" lon="7.68726">
        <ele>240.4</ele>
        <time>2020-06-27T14:53:24Z</time>
      </trkpt>
      <trkpt lat="49.03602" lon="7.68737">
        <ele>240.3</ele>
        <time>2020-06-27T14:53:25Z</time>
      </trkpt>
      <trkpt lat="49.03601" lon="7.68747">
        <ele>240.3</ele>
        <time>2020-06-27T14:53:26Z</time>
      </trkpt>
      <trkpt lat="49.036" lon="7.68757">
        <ele>240.3</ele>
        <time>2020-06-27T14:53:27Z</time>
      </trkpt>
      <trkpt lat="49.03599" lon="7.68768">
        <ele>240.3</ele>
        <time>2020-06-27T14:53:28Z</time>
      </trkpt>
      <trkpt lat="49.03598" lon="7.68777">
        <ele>240.4</ele>
        <time>2020-06-27T14:53:29Z</time>
      </trkpt>
      <trkpt lat="49.03597" lon="7.68787">
        <ele>240.4</ele>
        <time>2020-06-27T14:53:30Z</time>
      </trkpt>
      <trkpt lat="49.03595" lon="7.68796">
        <ele>240.4</ele>
        <time>2020-06-27T14:53:31Z</time>
      </trkpt>
      <trkpt lat="49.03593" lon="7.68804">
        <ele>240.5</ele>
        <time>2020-06-27T14:53:32Z</time>
      </trkpt>
      <trkpt lat="49.03591" lon="7.68813">
        <ele>240.5</ele>
        <time>2020-06-27T14:53:33Z</time>
      </trkpt>
      <trkpt lat="49.03589" lon="7.68822">
        <ele>240.5</ele>
        <time>2020-06-27T14:53:34Z</time>
      </trkpt>
      <trkpt lat="49.03586" lon="7.6883">
        <ele>240.5</ele>
        <time>2020-06-27T14:53:35Z</time>
      </trkpt>
      <trkpt lat="49.03583" lon="7.68838">
        <ele>240.5</ele>
        <time>2020-06-27T14:53:36Z</time>
      </trkpt>
      <trkpt lat="49.0358" lon="7.68847">
        <ele>240.6</ele>
        <time>2020-06-27T14:53:37Z</time>
      </trkpt>
      <trkpt lat="49.03578" lon="7.68855">
        <ele>240.6</ele>
        <time>2020-06-27T14:53:38Z</time>
      </trkpt>
      <trkpt lat="49.03576" lon="7.68863">
        <ele>240.6</ele>
        <time>2020-06-27T14:53:39Z</time>
      </trkpt>
      <trkpt lat="49.03575" lon="7.68871">
        <ele>240.7</ele>
        <time>2020-06-27T14:53:40Z</time>
      </trkpt>
      <trkpt lat="49.03576" lon="7.68879">
        <ele>240.7</ele>
        <time>2020-06-27T14:53:41Z</time>
      </trkpt>
      <trkpt lat="49.03577" lon="7.68886">
        <ele>240.7</ele>
        <time>2020-06-27T14:53:42Z</time>
      </trkpt>
      <trkpt lat="49.03579" lon="7.68894">
        <ele>240.7</ele>
        <time>2020-06-27T14:53:43Z</time>
      </trkpt>
      <trkpt lat="49.0358" lon="7.68902">
        <ele>240.8</ele>
        <time>2020-06-27T14:53:44Z</time>
      </trkpt>
      <trkpt lat="49.03581" lon="7.6891">
        <ele>240.8</ele>
        <time>2020-06-27T14:53:45Z</time>
      </trkpt>
      <trkpt lat="49.03583" lon="7.68916">
        <ele>240.9</ele>
        <time>2020-06-27T14:53:46Z</time>
      </trkpt>
      <trkpt lat="49.03584" lon="7.68924">
        <ele>240.9</ele>
        <time>2020-06-27T14:53:47Z</time>
      </trkpt>
      <trkpt lat="49.03586" lon="7.6893">
        <ele>241</ele>
        <time>2020-06-27T14:53:48Z</time>
      </trkpt>
      <trkpt lat="49.03587" lon="7.68937">
        <ele>241</ele>
        <time>2020-06-27T14:53:49Z</time>
      </trkpt>
      <trkpt lat="49.03588" lon="7.68945">
        <ele>241</ele>
        <time>2020-06-27T14:53:50Z</time>
      </trkpt>
      <trkpt lat="49.03588" lon="7.68953">
        <ele>241</ele>
        <time>2020-06-27T14:53:51Z</time>
      </trkpt>
      <trkpt lat="49.03587" lon="7.6896">
        <ele>241</ele>
        <time>2020-06-27T14:53:52Z</time>
      </trkpt>
      <trkpt lat="49.03587" lon="7.68968">
        <ele>241.1</ele>
        <time>2020-06-27T14:53:53Z</time>
      </trkpt>
      <trkpt lat="49.03586" lon="7.68976">
        <ele>241.1</ele>
        <time>2020-06-27T14:53:54Z</time>
      </trkpt>
      <trkpt lat="49.03585" lon="7.68984">
        <ele>241.1</ele>
        <time>2020-06-27T14:53:55Z</time>
      </trkpt>
      <trkpt lat="49.03584" lon="7.68992">
        <ele>241.1</ele>
        <time>2020-06-27T14:53:56Z</time>
      </trkpt>
      <trkpt lat="49.03584" lon="7.68999">
        <ele>241.1</ele>
        <time>2020-06-27T14:53:57Z</time>
      </trkpt>
      <trkpt lat="49.03583" lon="7.69007">
        <ele>241.1</ele>
        <time>2020-06-27T14:53:58Z</time>
      </trkpt>
      <trkpt lat="49.03582" lon="7.69015">
        <ele>241.1</ele>
        <time>2020-06-27T14:53:59Z</time>
      </trkpt>
      <trkpt lat="49.03581" lon="7.69023">
        <ele>241.2</ele>
        <time>2020-06-27T14:54:00Z</time>
      </trkpt>
      <trkpt lat="49.0358" lon="7.69031">
        <ele>241.2</ele>
        <time>2020-06-27T14:54:01Z</time>
      </trkpt>
      <trkpt lat="49.03579" lon="7.69038">
        <ele>241.3</ele>
        <time>2020-06-27T14:54:02Z</time>
      </trkpt>
      <trkpt lat="49.03578" lon="7.69045">
        <ele>241.3</ele>
        <time>2020-06-27T14:54:03Z</time>
      </trkpt>
      <trkpt lat="49.03578" lon="7.69053">
        <ele>241.4</ele>
        <time>2020-06-27T14:54:04Z</time>
      </trkpt>
      <trkpt lat="49.03578" lon="7.69061">
        <ele>241.5</ele>
        <time>2020-06-27T14:54:05Z</time>
      </trkpt>
      <trkpt lat="49.03577" lon="7.69069">
        <ele>241.5</ele>
        <time>2020-06-27T14:54:06Z</time>
      </trkpt>
      <trkpt lat="49.03576" lon="7.69077">
        <ele>241.6</ele>
        <time>2020-06-27T14:54:07Z</time>
      </trkpt>
      <trkpt lat="49.03575" lon="7.69085">
        <ele>241.7</ele>
        <time>2020-06-27T14:54:08Z</time>
      </trkpt>
      <trkpt lat="49.03574" lon="7.69093">
        <ele>241.7</ele>
        <time>2020-06-27T14:54:09Z</time>
      </trkpt>
      <trkpt lat="49.03572" lon="7.69102">
        <ele>241.5</ele>
        <time>2020-06-27T14:54:10Z</time>
      </trkpt>
      <trkpt lat="49.03571" lon="7.6911">
        <ele>241.4</ele>
        <time>2020-06-27T14:54:11Z</time>
      </trkpt>
      <trkpt lat="49.0357" lon="7.69118">
        <ele>241.3</ele>
        <time>2020-06-27T14:54:12Z</time>
      </trkpt>
      <trkpt lat="49.0357" lon="7.69127">
        <ele>241.2</ele>
        <time>2020-06-27T14:54:13Z</time>
      </trkpt>
      <trkpt lat="49.03569" lon="7.69136">
        <ele>241.1</ele>
        <time>2020-06-27T14:54:14Z</time>
      </trkpt>
      <trkpt lat="49.03569" lon="7.69145">
        <ele>241</ele>
        <time>2020-06-27T14:54:15Z</time>
      </trkpt>
      <trkpt lat="49.03569" lon="7.69153">
        <ele>241</ele>
        <time>2020-06-27T14:54:16Z</time>
      </trkpt>
      <trkpt lat="49.03569" lon="7.69162">
        <ele>240.9</ele>
        <time>2020-06-27T14:54:17Z</time>
      </trkpt>
      <trkpt lat="49.03569" lon="7.6917">
        <ele>240.8</ele>
        <time>2020-06-27T14:54:18Z</time>
      </trkpt>
      <trkpt lat="49.0357" lon="7.69179">
        <ele>240.8</ele>
        <time>2020-06-27T14:54:19Z</time>
      </trkpt>
      <trkpt lat="49.0357" lon="7.69188">
        <ele>240.7</ele>
        <time>2020-06-27T14:54:20Z</time>
      </trkpt>
      <trkpt lat="49.0357" lon="7.69196">
        <ele>240.7</ele>
        <time>2020-06-27T14:54:21Z</time>
      </trkpt>
      <trkpt lat="49.03569" lon="7.69205">
        <ele>240.6</ele>
        <time>2020-06-27T14:54:22Z</time>
      </trkpt>
      <trkpt lat="49.03569" lon="7.69213">
        <ele>240.6</ele>
        <time>2020-06-27T14:54:23Z</time>
      </trkpt>
      <trkpt lat="49.03568" lon="7.69222">
        <ele>240.5</ele>
        <time>2020-06-27T14:54:24Z</time>
      </trkpt>
      <trkpt lat="49.03567" lon="7.6923">
        <ele>240.5</ele>
        <time>2020-06-27T14:54:25Z</time>
      </trkpt>
      <trkpt lat="49.03566" lon="7.69238">
        <ele>240.4</ele>
        <time>2020-06-27T14:54:26Z</time>
      </trkpt>
      <trkpt lat="49.03566" lon="7.69247">
        <ele>240.3</ele>
        <time>2020-06-27T14:54:27Z</time>
      </trkpt>
      <trkpt lat="49.03565" lon="7.69255">
        <ele>240.3</ele>
        <time>2020-06-27T14:54:28Z</time>
      </trkpt>
      <trkpt lat="49.03564" lon="7.69262">
        <ele>240.2</ele>
        <time>2020-06-27T14:54:29Z</time>
      </trkpt>
      <trkpt lat="49.03564" lon="7.6927">
        <ele>240.1</ele>
        <time>2020-06-27T14:54:30Z</time>
      </trkpt>
      <trkpt lat="49.03563" lon="7.69277">
        <ele>240.1</ele>
        <time>2020-06-27T14:54:31Z</time>
      </trkpt>
      <trkpt lat="49.03563" lon="7.69285">
        <ele>240</ele>
        <time>2020-06-27T14:54:32Z</time>
      </trkpt>
      <trkpt lat="49.03562" lon="7.69293">
        <ele>240</ele>
        <time>2020-06-27T14:54:33Z</time>
      </trkpt>
      <trkpt lat="49.03561" lon="7.693">
        <ele>240</ele>
        <time>2020-06-27T14:54:34Z</time>
      </trkpt>
      <trkpt lat="49.03561" lon="7.69307">
        <ele>239.9</ele>
        <time>2020-06-27T14:54:35Z</time>
      </trkpt>
      <trkpt lat="49.03561" lon="7.69314">
        <ele>239.9</ele>
        <time>2020-06-27T14:54:36Z</time>
      </trkpt>
      <trkpt lat="49.03561" lon="7.69321">
        <ele>239.9</ele>
        <time>2020-06-27T14:54:37Z</time>
      </trkpt>
      <trkpt lat="49.0356" lon="7.69328">
        <ele>239.8</ele>
        <time>2020-06-27T14:54:38Z</time>
      </trkpt>
      <trkpt lat="49.03559" lon="7.69335">
        <ele>239.7</ele>
        <time>2020-06-27T14:54:39Z</time>
      </trkpt>
      <trkpt lat="49.03558" lon="7.69342">
        <ele>239.7</ele>
        <time>2020-06-27T14:54:40Z</time>
      </trkpt>
      <trkpt lat="49.03558" lon="7.69349">
        <ele>239.6</ele>
        <time>2020-06-27T14:54:41Z</time>
      </trkpt>
      <trkpt lat="49.03557" lon="7.69356">
        <ele>239.5</ele>
        <time>2020-06-27T14:54:42Z</time>
      </trkpt>
      <trkpt lat="49.03556" lon="7.69364">
        <ele>239.4</ele>
        <time>2020-06-27T14:54:43Z</time>
      </trkpt>
      <trkpt lat="49.03555" lon="7.69372">
        <ele>239.3</ele>
        <time>2020-06-27T14:54:44Z</time>
      </trkpt>
      <trkpt lat="49.03555" lon="7.69379">
        <ele>239.2</ele>
        <time>2020-06-27T14:54:45Z</time>
      </trkpt>
      <trkpt lat="49.03554" lon="7.69387">
        <ele>239.1</ele>
        <time>2020-06-27T14:54:46Z</time>
      </trkpt>
      <trkpt lat="49.03553" lon="7.69395">
        <ele>239</ele>
        <time>2020-06-27T14:54:47Z</time>
      </trkpt>
      <trkpt lat="49.03552" lon="7.69403">
        <ele>238.9</ele>
        <time>2020-06-27T14:54:48Z</time>
      </trkpt>
      <trkpt lat="49.03552" lon="7.69411">
        <ele>238.8</ele>
        <time>2020-06-27T14:54:49Z</time>
      </trkpt>
      <trkpt lat="49.03551" lon="7.69419">
        <ele>238.7</ele>
        <time>2020-06-27T14:54:50Z</time>
      </trkpt>
      <trkpt lat="49.0355" lon="7.69427">
        <ele>238.6</ele>
        <time>2020-06-27T14:54:51Z</time>
      </trkpt>
      <trkpt lat="49.03549" lon="7.69436">
        <ele>238.5</ele>
        <time>2020-06-27T14:54:52Z</time>
      </trkpt>
      <trkpt lat="49.03547" lon="7.69444">
        <ele>238.4</ele>
        <time>2020-06-27T14:54:53Z</time>
      </trkpt>
      <trkpt lat="49.03545" lon="7.69451">
        <ele>238.3</ele>
        <time>2020-06-27T14:54:54Z</time>
      </trkpt>
      <trkpt lat="49.03543" lon="7.69459">
        <ele>238.2</ele>
        <time>2020-06-27T14:54:55Z</time>
      </trkpt>
      <trkpt lat="49.03539" lon="7.69466">
        <ele>238.1</ele>
        <time>2020-06-27T14:54:56Z</time>
      </trkpt>
      <trkpt lat="49.03536" lon="7.69473">
        <ele>238</ele>
        <time>2020-06-27T14:54:57Z</time>
      </trkpt>
      <trkpt lat="49.03533" lon="7.6948">
        <ele>237.9</ele>
        <time>2020-06-27T14:54:58Z</time>
      </trkpt>
      <trkpt lat="49.0353" lon="7.69487">
        <ele>237.9</ele>
        <time>2020-06-27T14:54:59Z</time>
      </trkpt>
      <trkpt lat="49.03527" lon="7.69495">
        <ele>237.8</ele>
        <time>2020-06-27T14:55:00Z</time>
      </trkpt>
      <trkpt lat="49.03524" lon="7.69501">
        <ele>237.7</ele>
        <time>2020-06-27T14:55:01Z</time>
      </trkpt>
      <trkpt lat="49.03521" lon="7.69508">
        <ele>237.6</ele>
        <time>2020-06-27T14:55:02Z</time>
      </trkpt>
      <trkpt lat="49.03517" lon="7.69514">
        <ele>237.6</ele>
        <time>2020-06-27T14:55:03Z</time>
      </trkpt>
      <trkpt lat="49.03514" lon="7.69519">
        <ele>237.5</ele>
        <time>2020-06-27T14:55:04Z</time>
      </trkpt>
      <trkpt lat="49.03511" lon="7.69526">
        <ele>237.5</ele>
        <time>2020-06-27T14:55:05Z</time>
      </trkpt>
      <trkpt lat="49.03509" lon="7.69533">
        <ele>237.4</ele>
        <time>2020-06-27T14:55:06Z</time>
      </trkpt>
      <trkpt lat="49.03506" lon="7.6954">
        <ele>237.4</ele>
        <time>2020-06-27T14:55:07Z</time>
      </trkpt>
      <trkpt lat="49.03504" lon="7.69547">
        <ele>237.3</ele>
        <time>2020-06-27T14:55:08Z</time>
      </trkpt>
      <trkpt lat="49.03503" lon="7.69555">
        <ele>237.3</ele>
        <time>2020-06-27T14:55:09Z</time>
      </trkpt>
      <trkpt lat="49.03501" lon="7.69563">
        <ele>237.2</ele>
        <time>2020-06-27T14:55:10Z</time>
      </trkpt>
      <trkpt lat="49.035" lon="7.69571">
        <ele>237.2</ele>
        <time>2020-06-27T14:55:11Z</time>
      </trkpt>
      <trkpt lat="49.03498" lon="7.69578">
        <ele>237.1</ele>
        <time>2020-06-27T14:55:12Z</time>
      </trkpt>
      <trkpt lat="49.03497" lon="7.69586">
        <ele>237.1</ele>
        <time>2020-06-27T14:55:13Z</time>
      </trkpt>
      <trkpt lat="49.03496" lon="7.69594">
        <ele>237</ele>
        <time>2020-06-27T14:55:14Z</time>
      </trkpt>
      <trkpt lat="49.03495" lon="7.69601">
        <ele>237</ele>
        <time>2020-06-27T14:55:15Z</time>
      </trkpt>
      <trkpt lat="49.03495" lon="7.69609">
        <ele>237</ele>
        <time>2020-06-27T14:55:16Z</time>
      </trkpt>
      <trkpt lat="49.03495" lon="7.69617">
        <ele>236.9</ele>
        <time>2020-06-27T14:55:17Z</time>
      </trkpt>
      <trkpt lat="49.03494" lon="7.69624">
        <ele>236.9</ele>
        <time>2020-06-27T14:55:18Z</time>
      </trkpt>
      <trkpt lat="49.03494" lon="7.6963">
        <ele>236.9</ele>
        <time>2020-06-27T14:55:19Z</time>
      </trkpt>
      <trkpt lat="49.03493" lon="7.69637">
        <ele>236.8</ele>
        <time>2020-06-27T14:55:20Z</time>
      </trkpt>
      <trkpt lat="49.03493" lon="7.69645">
        <ele>236.8</ele>
        <time>2020-06-27T14:55:21Z</time>
      </trkpt>
      <trkpt lat="49.03488" lon="7.69653">
        <ele>236.7</ele>
        <time>2020-06-27T14:55:22Z</time>
      </trkpt>
      <trkpt lat="49.03488" lon="7.69661">
        <ele>236.7</ele>
        <time>2020-06-27T14:55:23Z</time>
      </trkpt>
      <trkpt lat="49.03488" lon="7.69668">
        <ele>236.7</ele>
        <time>2020-06-27T14:55:24Z</time>
      </trkpt>
      <trkpt lat="49.03488" lon="7.69675">
        <ele>236.7</ele>
        <time>2020-06-27T14:55:25Z</time>
      </trkpt>
      <trkpt lat="49.03487" lon="7.69682">
        <ele>236.6</ele>
        <time>2020-06-27T14:55:26Z</time>
      </trkpt>
      <trkpt lat="49.03487" lon="7.6969">
        <ele>236.6</ele>
        <time>2020-06-27T14:55:27Z</time>
      </trkpt>
      <trkpt lat="49.03487" lon="7.69698">
        <ele>236.5</ele>
        <time>2020-06-27T14:55:28Z</time>
      </trkpt>
      <trkpt lat="49.03488" lon="7.69705">
        <ele>236.5</ele>
        <time>2020-06-27T14:55:29Z</time>
      </trkpt>
      <trkpt lat="49.03488" lon="7.69714">
        <ele>236.5</ele>
        <time>2020-06-27T14:55:30Z</time>
      </trkpt>
      <trkpt lat="49.03488" lon="7.69721">
        <ele>236.5</ele>
        <time>2020-06-27T14:55:31Z</time>
      </trkpt>
      <trkpt lat="49.03488" lon="7.69729">
        <ele>236.5</ele>
        <time>2020-06-27T14:55:32Z</time>
      </trkpt>
      <trkpt lat="49.03487" lon="7.69734">
        <ele>236.6</ele>
        <time>2020-06-27T14:55:33Z</time>
      </trkpt>
      <trkpt lat="49.03487" lon="7.6974">
        <ele>236.6</ele>
        <time>2020-06-27T14:55:34Z</time>
      </trkpt>
      <trkpt lat="49.03486" lon="7.69746">
        <ele>236.6</ele>
        <time>2020-06-27T14:55:35Z</time>
      </trkpt>
      <trkpt lat="49.03487" lon="7.69752">
        <ele>236.6</ele>
        <time>2020-06-27T14:55:36Z</time>
      </trkpt>
      <trkpt lat="49.03487" lon="7.69758">
        <ele>236.6</ele>
        <time>2020-06-27T14:55:37Z</time>
      </trkpt>
      <trkpt lat="49.03486" lon="7.69763">
        <ele>236.6</ele>
        <time>2020-06-27T14:55:38Z</time>
      </trkpt>
      <trkpt lat="49.03485" lon="7.69767">
        <ele>236.7</ele>
        <time>2020-06-27T14:55:39Z</time>
      </trkpt>
      <trkpt lat="49.03484" lon="7.69772">
        <ele>236.7</ele>
        <time>2020-06-27T14:55:40Z</time>
      </trkpt>
      <trkpt lat="49.03483" lon="7.69777">
        <ele>236.7</ele>
        <time>2020-06-27T14:55:41Z</time>
      </trkpt>
      <trkpt lat="49.03482" lon="7.69782">
        <ele>236.7</ele>
        <time>2020-06-27T14:55:42Z</time>
      </trkpt>
      <trkpt lat="49.0348" lon="7.69787">
        <ele>236.7</ele>
        <time>2020-06-27T14:55:43Z</time>
      </trkpt>
      <trkpt lat="49.03479" lon="7.69792">
        <ele>236.8</ele>
        <time>2020-06-27T14:55:44Z</time>
      </trkpt>
      <trkpt lat="49.03477" lon="7.69796">
        <ele>236.8</ele>
        <time>2020-06-27T14:55:45Z</time>
      </trkpt>
      <trkpt lat="49.03476" lon="7.69801">
        <ele>236.8</ele>
        <time>2020-06-27T14:55:46Z</time>
      </trkpt>
      <trkpt lat="49.03473" lon="7.69806">
        <ele>236.8</ele>
        <time>2020-06-27T14:55:47Z</time>
      </trkpt>
      <trkpt lat="49.03472" lon="7.69811">
        <ele>236.9</ele>
        <time>2020-06-27T14:55:48Z</time>
      </trkpt>
      <trkpt lat="49.0347" lon="7.69817">
        <ele>236.9</ele>
        <time>2020-06-27T14:55:49Z</time>
      </trkpt>
      <trkpt lat="49.03468" lon="7.69822">
        <ele>236.9</ele>
        <time>2020-06-27T14:55:50Z</time>
      </trkpt>
      <trkpt lat="49.03466" lon="7.69828">
        <ele>236.9</ele>
        <time>2020-06-27T14:55:51Z</time>
      </trkpt>
      <trkpt lat="49.03465" lon="7.69834">
        <ele>236.9</ele>
        <time>2020-06-27T14:55:52Z</time>
      </trkpt>
      <trkpt lat="49.03463" lon="7.69841">
        <ele>236.9</ele>
        <time>2020-06-27T14:55:53Z</time>
      </trkpt>
      <trkpt lat="49.03462" lon="7.69848">
        <ele>236.8</ele>
        <time>2020-06-27T14:55:54Z</time>
      </trkpt>
      <trkpt lat="49.0346" lon="7.69855">
        <ele>236.7</ele>
        <time>2020-06-27T14:55:55Z</time>
      </trkpt>
      <trkpt lat="49.03458" lon="7.69862">
        <ele>236.7</ele>
        <time>2020-06-27T14:55:56Z</time>
      </trkpt>
      <trkpt lat="49.03455" lon="7.69869">
        <ele>236.6</ele>
        <time>2020-06-27T14:55:57Z</time>
      </trkpt>
      <trkpt lat="49.03452" lon="7.69876">
        <ele>236.5</ele>
        <time>2020-06-27T14:55:58Z</time>
      </trkpt>
      <trkpt lat="49.03449" lon="7.69883">
        <ele>236.5</ele>
        <time>2020-06-27T14:55:59Z</time>
      </trkpt>
      <trkpt lat="49.03446" lon="7.69889">
        <ele>236.4</ele>
        <time>2020-06-27T14:56:00Z</time>
      </trkpt>
      <trkpt lat="49.03444" lon="7.69895">
        <ele>236.4</ele>
        <time>2020-06-27T14:56:01Z</time>
      </trkpt>
      <trkpt lat="49.03441" lon="7.69902">
        <ele>236.3</ele>
        <time>2020-06-27T14:56:02Z</time>
      </trkpt>
      <trkpt lat="49.03439" lon="7.69909">
        <ele>236.3</ele>
        <time>2020-06-27T14:56:03Z</time>
      </trkpt>
      <trkpt lat="49.03436" lon="7.69916">
        <ele>236.2</ele>
        <time>2020-06-27T14:56:04Z</time>
      </trkpt>
      <trkpt lat="49.03433" lon="7.69923">
        <ele>236.1</ele>
        <time>2020-06-27T14:56:05Z</time>
      </trkpt>
      <trkpt lat="49.0343" lon="7.69929">
        <ele>236</ele>
        <time>2020-06-27T14:56:06Z</time>
      </trkpt>
      <trkpt lat="49.03427" lon="7.69936">
        <ele>235.9</ele>
        <time>2020-06-27T14:56:07Z</time>
      </trkpt>
      <trkpt lat="49.03425" lon="7.69943">
        <ele>235.8</ele>
        <time>2020-06-27T14:56:08Z</time>
      </trkpt>
      <trkpt lat="49.03423" lon="7.69949">
        <ele>235.7</ele>
        <time>2020-06-27T14:56:09Z</time>
      </trkpt>
      <trkpt lat="49.0342" lon="7.69956">
        <ele>235.7</ele>
        <time>2020-06-27T14:56:10Z</time>
      </trkpt>
      <trkpt lat="49.03418" lon="7.69962">
        <ele>235.6</ele>
        <time>2020-06-27T14:56:11Z</time>
      </trkpt>
      <trkpt lat="49.03416" lon="7.69969">
        <ele>235.6</ele>
        <time>2020-06-27T14:56:12Z</time>
      </trkpt>
      <trkpt lat="49.03415" lon="7.69975">
        <ele>235.6</ele>
        <time>2020-06-27T14:56:13Z</time>
      </trkpt>
      <trkpt lat="49.03413" lon="7.69982">
        <ele>235.6</ele>
        <time>2020-06-27T14:56:14Z</time>
      </trkpt>
      <trkpt lat="49.03411" lon="7.69987">
        <ele>235.5</ele>
        <time>2020-06-27T14:56:15Z</time>
      </trkpt>
      <trkpt lat="49.03411" lon="7.69994">
        <ele>235.5</ele>
        <time>2020-06-27T14:56:16Z</time>
      </trkpt>
      <trkpt lat="49.0341" lon="7.7">
        <ele>235.5</ele>
        <time>2020-06-27T14:56:17Z</time>
      </trkpt>
      <trkpt lat="49.03408" lon="7.70004">
        <ele>235.5</ele>
        <time>2020-06-27T14:56:18Z</time>
      </trkpt>
      <trkpt lat="49.03407" lon="7.70009">
        <ele>235.5</ele>
        <time>2020-06-27T14:56:19Z</time>
      </trkpt>
      <trkpt lat="49.03404" lon="7.70014">
        <ele>235.4</ele>
        <time>2020-06-27T14:56:20Z</time>
      </trkpt>
      <trkpt lat="49.03403" lon="7.7002">
        <ele>235.4</ele>
        <time>2020-06-27T14:56:21Z</time>
      </trkpt>
      <trkpt lat="49.03402" lon="7.70025">
        <ele>235.4</ele>
        <time>2020-06-27T14:56:22Z</time>
      </trkpt>
      <trkpt lat="49.03401" lon="7.70032">
        <ele>235.4</ele>
        <time>2020-06-27T14:56:23Z</time>
      </trkpt>
      <trkpt lat="49.034" lon="7.70038">
        <ele>235.3</ele>
        <time>2020-06-27T14:56:24Z</time>
      </trkpt>
      <trkpt lat="49.034" lon="7.70043">
        <ele>235.3</ele>
        <time>2020-06-27T14:56:25Z</time>
      </trkpt>
      <trkpt lat="49.03398" lon="7.70049">
        <ele>235.3</ele>
        <time>2020-06-27T14:56:26Z</time>
      </trkpt>
      <trkpt lat="49.03397" lon="7.70054">
        <ele>235.3</ele>
        <time>2020-06-27T14:56:27Z</time>
      </trkpt>
      <trkpt lat="49.03397" lon="7.7006">
        <ele>235.3</ele>
        <time>2020-06-27T14:56:28Z</time>
      </trkpt>
      <trkpt lat="49.03395" lon="7.70066">
        <ele>235.2</ele>
        <time>2020-06-27T14:56:29Z</time>
      </trkpt>
      <trkpt lat="49.03393" lon="7.70073">
        <ele>235.2</ele>
        <time>2020-06-27T14:56:30Z</time>
      </trkpt>
      <trkpt lat="49.03393" lon="7.70079">
        <ele>235.2</ele>
        <time>2020-06-27T14:56:31Z</time>
      </trkpt>
      <trkpt lat="49.03392" lon="7.70085">
        <ele>235.2</ele>
        <time>2020-06-27T14:56:32Z</time>
      </trkpt>
      <trkpt lat="49.03392" lon="7.7009">
        <ele>235.2</ele>
        <time>2020-06-27T14:56:33Z</time>
      </trkpt>
      <trkpt lat="49.03392" lon="7.70097">
        <ele>235.2</ele>
        <time>2020-06-27T14:56:34Z</time>
      </trkpt>
      <trkpt lat="49.03391" lon="7.70104">
        <ele>235.1</ele>
        <time>2020-06-27T14:56:35Z</time>
      </trkpt>
      <trkpt lat="49.03392" lon="7.70111">
        <ele>235.1</ele>
        <time>2020-06-27T14:56:36Z</time>
      </trkpt>
      <trkpt lat="49.03392" lon="7.70119">
        <ele>235.1</ele>
        <time>2020-06-27T14:56:37Z</time>
      </trkpt>
      <trkpt lat="49.03391" lon="7.70127">
        <ele>235.1</ele>
        <time>2020-06-27T14:56:38Z</time>
      </trkpt>
      <trkpt lat="49.03391" lon="7.70135">
        <ele>235</ele>
        <time>2020-06-27T14:56:39Z</time>
      </trkpt>
      <trkpt lat="49.03391" lon="7.70143">
        <ele>235</ele>
        <time>2020-06-27T14:56:40Z</time>
      </trkpt>
      <trkpt lat="49.0339" lon="7.70151">
        <ele>235</ele>
        <time>2020-06-27T14:56:41Z</time>
      </trkpt>
      <trkpt lat="49.03389" lon="7.70159">
        <ele>235</ele>
        <time>2020-06-27T14:56:42Z</time>
      </trkpt>
      <trkpt lat="49.03389" lon="7.70166">
        <ele>235</ele>
        <time>2020-06-27T14:56:43Z</time>
      </trkpt>
      <trkpt lat="49.0339" lon="7.70174">
        <ele>235</ele>
        <time>2020-06-27T14:56:44Z</time>
      </trkpt>
      <trkpt lat="49.0339" lon="7.70182">
        <ele>235</ele>
        <time>2020-06-27T14:56:45Z</time>
      </trkpt>
      <trkpt lat="49.03389" lon="7.70191">
        <ele>235</ele>
        <time>2020-06-27T14:56:46Z</time>
      </trkpt>
      <trkpt lat="49.0339" lon="7.70199">
        <ele>235</ele>
        <time>2020-06-27T14:56:47Z</time>
      </trkpt>
      <trkpt lat="49.03391" lon="7.70207">
        <ele>235</ele>
        <time>2020-06-27T14:56:48Z</time>
      </trkpt>
      <trkpt lat="49.03391" lon="7.70215">
        <ele>235</ele>
        <time>2020-06-27T14:56:49Z</time>
      </trkpt>
      <trkpt lat="49.03391" lon="7.70223">
        <ele>235</ele>
        <time>2020-06-27T14:56:50Z</time>
      </trkpt>
      <trkpt lat="49.03392" lon="7.70231">
        <ele>235</ele>
        <time>2020-06-27T14:56:51Z</time>
      </trkpt>
      <trkpt lat="49.03391" lon="7.7024">
        <ele>234.9</ele>
        <time>2020-06-27T14:56:52Z</time>
      </trkpt>
      <trkpt lat="49.03391" lon="7.70248">
        <ele>234.9</ele>
        <time>2020-06-27T14:56:53Z</time>
      </trkpt>
      <trkpt lat="49.03391" lon="7.70256">
        <ele>234.9</ele>
        <time>2020-06-27T14:56:54Z</time>
      </trkpt>
      <trkpt lat="49.03391" lon="7.70264">
        <ele>234.9</ele>
        <time>2020-06-27T14:56:55Z</time>
      </trkpt>
      <trkpt lat="49.03391" lon="7.70273">
        <ele>234.9</ele>
        <time>2020-06-27T14:56:56Z</time>
      </trkpt>
      <trkpt lat="49.03392" lon="7.70281">
        <ele>234.8</ele>
        <time>2020-06-27T14:56:57Z</time>
      </trkpt>
      <trkpt lat="49.03391" lon="7.70289">
        <ele>234.8</ele>
        <time>2020-06-27T14:56:58Z</time>
      </trkpt>
      <trkpt lat="49.03392" lon="7.70299">
        <ele>234.8</ele>
        <time>2020-06-27T14:56:59Z</time>
      </trkpt>
      <trkpt lat="49.03392" lon="7.70308">
        <ele>234.7</ele>
        <time>2020-06-27T14:57:00Z</time>
      </trkpt>
      <trkpt lat="49.03392" lon="7.70318">
        <ele>234.7</ele>
        <time>2020-06-27T14:57:01Z</time>
      </trkpt>
      <trkpt lat="49.03391" lon="7.70329">
        <ele>234.6</ele>
        <time>2020-06-27T14:57:02Z</time>
      </trkpt>
      <trkpt lat="49.0339" lon="7.70341">
        <ele>234.6</ele>
        <time>2020-06-27T14:57:03Z</time>
      </trkpt>
      <trkpt lat="49.03389" lon="7.70352">
        <ele>234.6</ele>
        <time>2020-06-27T14:57:04Z</time>
      </trkpt>
      <trkpt lat="49.03389" lon="7.70363">
        <ele>234.5</ele>
        <time>2020-06-27T14:57:05Z</time>
      </trkpt>
      <trkpt lat="49.03388" lon="7.70375">
        <ele>234.5</ele>
        <time>2020-06-27T14:57:06Z</time>
      </trkpt>
      <trkpt lat="49.03388" lon="7.70386">
        <ele>234.6</ele>
        <time>2020-06-27T14:57:07Z</time>
      </trkpt>
      <trkpt lat="49.03387" lon="7.70398">
        <ele>234.7</ele>
        <time>2020-06-27T14:57:08Z</time>
      </trkpt>
      <trkpt lat="49.03386" lon="7.7041">
        <ele>234.8</ele>
        <time>2020-06-27T14:57:09Z</time>
      </trkpt>
      <trkpt lat="49.03384" lon="7.70422">
        <ele>234.9</ele>
        <time>2020-06-27T14:57:10Z</time>
      </trkpt>
      <trkpt lat="49.03382" lon="7.70433">
        <ele>235</ele>
        <time>2020-06-27T14:57:11Z</time>
      </trkpt>
      <trkpt lat="49.0338" lon="7.70444">
        <ele>234.9</ele>
        <time>2020-06-27T14:57:12Z</time>
      </trkpt>
      <trkpt lat="49.0338" lon="7.70454">
        <ele>234.9</ele>
        <time>2020-06-27T14:57:13Z</time>
      </trkpt>
      <trkpt lat="49.03379" lon="7.70463">
        <ele>234.8</ele>
        <time>2020-06-27T14:57:14Z</time>
      </trkpt>
      <trkpt lat="49.03377" lon="7.70471">
        <ele>234.7</ele>
        <time>2020-06-27T14:57:15Z</time>
      </trkpt>
      <trkpt lat="49.03374" lon="7.70479">
        <ele>234.7</ele>
        <time>2020-06-27T14:57:16Z</time>
      </trkpt>
      <trkpt lat="49.03371" lon="7.70488">
        <ele>234.7</ele>
        <time>2020-06-27T14:57:17Z</time>
      </trkpt>
      <trkpt lat="49.03368" lon="7.70496">
        <ele>234.7</ele>
        <time>2020-06-27T14:57:18Z</time>
      </trkpt>
      <trkpt lat="49.03365" lon="7.70506">
        <ele>234.7</ele>
        <time>2020-06-27T14:57:19Z</time>
      </trkpt>
      <trkpt lat="49.03362" lon="7.70515">
        <ele>234.7</ele>
        <time>2020-06-27T14:57:20Z</time>
      </trkpt>
      <trkpt lat="49.03359" lon="7.70523">
        <ele>234.8</ele>
        <time>2020-06-27T14:57:21Z</time>
      </trkpt>
      <trkpt lat="49.03356" lon="7.7053">
        <ele>234.8</ele>
        <time>2020-06-27T14:57:22Z</time>
      </trkpt>
      <trkpt lat="49.03353" lon="7.70537">
        <ele>234.8</ele>
        <time>2020-06-27T14:57:23Z</time>
      </trkpt>
      <trkpt lat="49.03351" lon="7.70545">
        <ele>234.9</ele>
        <time>2020-06-27T14:57:24Z</time>
      </trkpt>
      <trkpt lat="49.03348" lon="7.70551">
        <ele>234.9</ele>
        <time>2020-06-27T14:57:25Z</time>
      </trkpt>
      <trkpt lat="49.03345" lon="7.70558">
        <ele>235</ele>
        <time>2020-06-27T14:57:26Z</time>
      </trkpt>
      <trkpt lat="49.03342" lon="7.70565">
        <ele>235.1</ele>
        <time>2020-06-27T14:57:27Z</time>
      </trkpt>
      <trkpt lat="49.03338" lon="7.70573">
        <ele>235.2</ele>
        <time>2020-06-27T14:57:28Z</time>
      </trkpt>
      <trkpt lat="49.03335" lon="7.70579">
        <ele>235.3</ele>
        <time>2020-06-27T14:57:29Z</time>
      </trkpt>
      <trkpt lat="49.03332" lon="7.70585">
        <ele>235.4</ele>
        <time>2020-06-27T14:57:30Z</time>
      </trkpt>
      <trkpt lat="49.0333" lon="7.7059">
        <ele>235.4</ele>
        <time>2020-06-27T14:57:31Z</time>
      </trkpt>
      <trkpt lat="49.03328" lon="7.70597">
        <ele>235.5</ele>
        <time>2020-06-27T14:57:32Z</time>
      </trkpt>
      <trkpt lat="49.03324" lon="7.70602">
        <ele>235.4</ele>
        <time>2020-06-27T14:57:34Z</time>
      </trkpt>
      <trkpt lat="49.0332" lon="7.70607">
        <ele>235.4</ele>
        <time>2020-06-27T14:57:35Z</time>
      </trkpt>
      <trkpt lat="49.03317" lon="7.70614">
        <ele>235.3</ele>
        <time>2020-06-27T14:57:36Z</time>
      </trkpt>
      <trkpt lat="49.03314" lon="7.70621">
        <ele>235.3</ele>
        <time>2020-06-27T14:57:37Z</time>
      </trkpt>
      <trkpt lat="49.0331" lon="7.70629">
        <ele>235.2</ele>
        <time>2020-06-27T14:57:38Z</time>
      </trkpt>
      <trkpt lat="49.03308" lon="7.70634">
        <ele>235.1</ele>
        <time>2020-06-27T14:57:39Z</time>
      </trkpt>
      <trkpt lat="49.03305" lon="7.7064">
        <ele>235.1</ele>
        <time>2020-06-27T14:57:40Z</time>
      </trkpt>
      <trkpt lat="49.03302" lon="7.70647">
        <ele>235</ele>
        <time>2020-06-27T14:57:41Z</time>
      </trkpt>
      <trkpt lat="49.03299" lon="7.70656">
        <ele>235</ele>
        <time>2020-06-27T14:57:42Z</time>
      </trkpt>
      <trkpt lat="49.03294" lon="7.70662">
        <ele>234.9</ele>
        <time>2020-06-27T14:57:43Z</time>
      </trkpt>
      <trkpt lat="49.03293" lon="7.70666">
        <ele>234.9</ele>
        <time>2020-06-27T14:57:44Z</time>
      </trkpt>
      <trkpt lat="49.03291" lon="7.70671">
        <ele>234.9</ele>
        <time>2020-06-27T14:57:45Z</time>
      </trkpt>
      <trkpt lat="49.03289" lon="7.70677">
        <ele>234.8</ele>
        <time>2020-06-27T14:57:46Z</time>
      </trkpt>
      <trkpt lat="49.03287" lon="7.70684">
        <ele>234.7</ele>
        <time>2020-06-27T14:57:47Z</time>
      </trkpt>
      <trkpt lat="49.03284" lon="7.70692">
        <ele>234.6</ele>
        <time>2020-06-27T14:57:48Z</time>
      </trkpt>
      <trkpt lat="49.03284" lon="7.70698">
        <ele>234.5</ele>
        <time>2020-06-27T14:57:49Z</time>
      </trkpt>
      <trkpt lat="49.03283" lon="7.70706">
        <ele>234.4</ele>
        <time>2020-06-27T14:57:50Z</time>
      </trkpt>
      <trkpt lat="49.03282" lon="7.70715">
        <ele>234.3</ele>
        <time>2020-06-27T14:57:51Z</time>
      </trkpt>
      <trkpt lat="49.03281" lon="7.70723">
        <ele>234.2</ele>
        <time>2020-06-27T14:57:52Z</time>
      </trkpt>
      <trkpt lat="49.0328" lon="7.7073">
        <ele>234.1</ele>
        <time>2020-06-27T14:57:53Z</time>
      </trkpt>
      <trkpt lat="49.0328" lon="7.70735">
        <ele>234</ele>
        <time>2020-06-27T14:57:54Z</time>
      </trkpt>
      <trkpt lat="49.03279" lon="7.70742">
        <ele>233.9</ele>
        <time>2020-06-27T14:57:55Z</time>
      </trkpt>
      <trkpt lat="49.03279" lon="7.70751">
        <ele>233.8</ele>
        <time>2020-06-27T14:57:56Z</time>
      </trkpt>
      <trkpt lat="49.03277" lon="7.70762">
        <ele>233.7</ele>
        <time>2020-06-27T14:57:57Z</time>
      </trkpt>
      <trkpt lat="49.03275" lon="7.70772">
        <ele>233.5</ele>
        <time>2020-06-27T14:57:58Z</time>
      </trkpt>
      <trkpt lat="49.03273" lon="7.7078">
        <ele>233.4</ele>
        <time>2020-06-27T14:57:59Z</time>
      </trkpt>
      <trkpt lat="49.03272" lon="7.70791">
        <ele>233.3</ele>
        <time>2020-06-27T14:58:00Z</time>
      </trkpt>
      <trkpt lat="49.03271" lon="7.70804">
        <ele>233.1</ele>
        <time>2020-06-27T14:58:01Z</time>
      </trkpt>
      <trkpt lat="49.0327" lon="7.70814">
        <ele>232.9</ele>
        <time>2020-06-27T14:58:02Z</time>
      </trkpt>
      <trkpt lat="49.03267" lon="7.70834">
        <ele>232.6</ele>
        <time>2020-06-27T14:58:03Z</time>
      </trkpt>
      <trkpt lat="49.03265" lon="7.70841">
        <ele>232.5</ele>
        <time>2020-06-27T14:58:04Z</time>
      </trkpt>
      <trkpt lat="49.03264" lon="7.70848">
        <ele>232.4</ele>
        <time>2020-06-27T14:58:05Z</time>
      </trkpt>
      <trkpt lat="49.03261" lon="7.70859">
        <ele>232.3</ele>
        <time>2020-06-27T14:58:06Z</time>
      </trkpt>
      <trkpt lat="49.03259" lon="7.70868">
        <ele>232.3</ele>
        <time>2020-06-27T14:58:07Z</time>
      </trkpt>
      <trkpt lat="49.03257" lon="7.70876">
        <ele>232.2</ele>
        <time>2020-06-27T14:58:08Z</time>
      </trkpt>
      <trkpt lat="49.03255" lon="7.70883">
        <ele>232.1</ele>
        <time>2020-06-27T14:58:09Z</time>
      </trkpt>
      <trkpt lat="49.03253" lon="7.70891">
        <ele>232.1</ele>
        <time>2020-06-27T14:58:10Z</time>
      </trkpt>
      <trkpt lat="49.03251" lon="7.709">
        <ele>232</ele>
        <time>2020-06-27T14:58:11Z</time>
      </trkpt>
      <trkpt lat="49.03248" lon="7.70908">
        <ele>231.9</ele>
        <time>2020-06-27T14:58:12Z</time>
      </trkpt>
      <trkpt lat="49.03245" lon="7.70917">
        <ele>231.8</ele>
        <time>2020-06-27T14:58:13Z</time>
      </trkpt>
      <trkpt lat="49.0324" lon="7.70925">
        <ele>231.8</ele>
        <time>2020-06-27T14:58:14Z</time>
      </trkpt>
      <trkpt lat="49.03236" lon="7.70934">
        <ele>231.7</ele>
        <time>2020-06-27T14:58:15Z</time>
      </trkpt>
      <trkpt lat="49.03232" lon="7.70943">
        <ele>231.6</ele>
        <time>2020-06-27T14:58:16Z</time>
      </trkpt>
      <trkpt lat="49.03229" lon="7.70952">
        <ele>231.6</ele>
        <time>2020-06-27T14:58:17Z</time>
      </trkpt>
      <trkpt lat="49.03225" lon="7.70961">
        <ele>231.5</ele>
        <time>2020-06-27T14:58:18Z</time>
      </trkpt>
      <trkpt lat="49.03222" lon="7.70972">
        <ele>231.5</ele>
        <time>2020-06-27T14:58:19Z</time>
      </trkpt>
      <trkpt lat="49.03218" lon="7.7098">
        <ele>231.4</ele>
        <time>2020-06-27T14:58:20Z</time>
      </trkpt>
      <trkpt lat="49.03213" lon="7.70988">
        <ele>231.3</ele>
        <time>2020-06-27T14:58:21Z</time>
      </trkpt>
      <trkpt lat="49.03209" lon="7.70996">
        <ele>231.3</ele>
        <time>2020-06-27T14:58:22Z</time>
      </trkpt>
      <trkpt lat="49.03205" lon="7.71004">
        <ele>231.2</ele>
        <time>2020-06-27T14:58:23Z</time>
      </trkpt>
      <trkpt lat="49.032" lon="7.71012">
        <ele>231.1</ele>
        <time>2020-06-27T14:58:24Z</time>
      </trkpt>
      <trkpt lat="49.03195" lon="7.71019">
        <ele>231</ele>
        <time>2020-06-27T14:58:25Z</time>
      </trkpt>
      <trkpt lat="49.0319" lon="7.71026">
        <ele>230.9</ele>
        <time>2020-06-27T14:58:26Z</time>
      </trkpt>
      <trkpt lat="49.03185" lon="7.71034">
        <ele>230.9</ele>
        <time>2020-06-27T14:58:27Z</time>
      </trkpt>
      <trkpt lat="49.03179" lon="7.71041">
        <ele>230.9</ele>
        <time>2020-06-27T14:58:28Z</time>
      </trkpt>
      <trkpt lat="49.03173" lon="7.71047">
        <ele>230.9</ele>
        <time>2020-06-27T14:58:29Z</time>
      </trkpt>
      <trkpt lat="49.03165" lon="7.7105">
        <ele>230.8</ele>
        <time>2020-06-27T14:58:30Z</time>
      </trkpt>
      <trkpt lat="49.03158" lon="7.71053">
        <ele>230.7</ele>
        <time>2020-06-27T14:58:31Z</time>
      </trkpt>
      <trkpt lat="49.03151" lon="7.71056">
        <ele>230.6</ele>
        <time>2020-06-27T14:58:32Z</time>
      </trkpt>
      <trkpt lat="49.03144" lon="7.7106">
        <ele>230.5</ele>
        <time>2020-06-27T14:58:33Z</time>
      </trkpt>
      <trkpt lat="49.03137" lon="7.71063">
        <ele>230.3</ele>
        <time>2020-06-27T14:58:34Z</time>
      </trkpt>
      <trkpt lat="49.0313" lon="7.71065">
        <ele>230.2</ele>
        <time>2020-06-27T14:58:35Z</time>
      </trkpt>
      <trkpt lat="49.03122" lon="7.71066">
        <ele>230.1</ele>
        <time>2020-06-27T14:58:36Z</time>
      </trkpt>
      <trkpt lat="49.03115" lon="7.71068">
        <ele>229.9</ele>
        <time>2020-06-27T14:58:37Z</time>
      </trkpt>
      <trkpt lat="49.03108" lon="7.71071">
        <ele>229.7</ele>
        <time>2020-06-27T14:58:38Z</time>
      </trkpt>
      <trkpt lat="49.031" lon="7.71073">
        <ele>229.5</ele>
        <time>2020-06-27T14:58:39Z</time>
      </trkpt>
      <trkpt lat="49.03093" lon="7.71077">
        <ele>229.4</ele>
        <time>2020-06-27T14:58:40Z</time>
      </trkpt>
      <trkpt lat="49.03086" lon="7.71081">
        <ele>229.3</ele>
        <time>2020-06-27T14:58:41Z</time>
      </trkpt>
      <trkpt lat="49.03079" lon="7.71085">
        <ele>229.1</ele>
        <time>2020-06-27T14:58:42Z</time>
      </trkpt>
      <trkpt lat="49.03073" lon="7.71091">
        <ele>229</ele>
        <time>2020-06-27T14:58:43Z</time>
      </trkpt>
      <trkpt lat="49.03066" lon="7.71096">
        <ele>228.8</ele>
        <time>2020-06-27T14:58:44Z</time>
      </trkpt>
      <trkpt lat="49.0306" lon="7.71101">
        <ele>228.6</ele>
        <time>2020-06-27T14:58:45Z</time>
      </trkpt>
      <trkpt lat="49.03054" lon="7.71108">
        <ele>228.5</ele>
        <time>2020-06-27T14:58:46Z</time>
      </trkpt>
      <trkpt lat="49.03048" lon="7.71115">
        <ele>228.4</ele>
        <time>2020-06-27T14:58:47Z</time>
      </trkpt>
      <trkpt lat="49.03043" lon="7.71122">
        <ele>228.3</ele>
        <time>2020-06-27T14:58:48Z</time>
      </trkpt>
      <trkpt lat="49.03037" lon="7.7113">
        <ele>228.2</ele>
        <time>2020-06-27T14:58:49Z</time>
      </trkpt>
      <trkpt lat="49.03032" lon="7.71137">
        <ele>228.1</ele>
        <time>2020-06-27T14:58:50Z</time>
      </trkpt>
      <trkpt lat="49.03027" lon="7.71144">
        <ele>227.9</ele>
        <time>2020-06-27T14:58:51Z</time>
      </trkpt>
      <trkpt lat="49.03024" lon="7.71153">
        <ele>227.8</ele>
        <time>2020-06-27T14:58:52Z</time>
      </trkpt>
      <trkpt lat="49.03021" lon="7.71162">
        <ele>227.8</ele>
        <time>2020-06-27T14:58:53Z</time>
      </trkpt>
      <trkpt lat="49.03019" lon="7.71172">
        <ele>227.8</ele>
        <time>2020-06-27T14:58:54Z</time>
      </trkpt>
      <trkpt lat="49.03017" lon="7.71182">
        <ele>227.8</ele>
        <time>2020-06-27T14:58:55Z</time>
      </trkpt>
      <trkpt lat="49.03014" lon="7.7119">
        <ele>227.8</ele>
        <time>2020-06-27T14:58:56Z</time>
      </trkpt>
      <trkpt lat="49.03013" lon="7.71201">
        <ele>227.8</ele>
        <time>2020-06-27T14:58:57Z</time>
      </trkpt>
      <trkpt lat="49.03012" lon="7.7121">
        <ele>227.8</ele>
        <time>2020-06-27T14:58:58Z</time>
      </trkpt>
      <trkpt lat="49.0301" lon="7.7122">
        <ele>227.8</ele>
        <time>2020-06-27T14:58:59Z</time>
      </trkpt>
      <trkpt lat="49.03009" lon="7.7123">
        <ele>227.8</ele>
        <time>2020-06-27T14:59:00Z</time>
      </trkpt>
      <trkpt lat="49.03006" lon="7.71239">
        <ele>227.8</ele>
        <time>2020-06-27T14:59:01Z</time>
      </trkpt>
      <trkpt lat="49.03002" lon="7.71247">
        <ele>227.8</ele>
        <time>2020-06-27T14:59:02Z</time>
      </trkpt>
      <trkpt lat="49.02998" lon="7.71255">
        <ele>227.8</ele>
        <time>2020-06-27T14:59:03Z</time>
      </trkpt>
      <trkpt lat="49.02995" lon="7.71263">
        <ele>227.8</ele>
        <time>2020-06-27T14:59:04Z</time>
      </trkpt>
      <trkpt lat="49.02992" lon="7.71272">
        <ele>227.8</ele>
        <time>2020-06-27T14:59:05Z</time>
      </trkpt>
      <trkpt lat="49.02989" lon="7.71281">
        <ele>227.8</ele>
        <time>2020-06-27T14:59:06Z</time>
      </trkpt>
      <trkpt lat="49.02986" lon="7.7129">
        <ele>227.8</ele>
        <time>2020-06-27T14:59:07Z</time>
      </trkpt>
      <trkpt lat="49.02982" lon="7.71298">
        <ele>227.8</ele>
        <time>2020-06-27T14:59:08Z</time>
      </trkpt>
      <trkpt lat="49.02979" lon="7.71307">
        <ele>227.8</ele>
        <time>2020-06-27T14:59:09Z</time>
      </trkpt>
      <trkpt lat="49.02976" lon="7.71316">
        <ele>227.7</ele>
        <time>2020-06-27T14:59:10Z</time>
      </trkpt>
      <trkpt lat="49.02974" lon="7.71326">
        <ele>227.8</ele>
        <time>2020-06-27T14:59:11Z</time>
      </trkpt>
      <trkpt lat="49.02972" lon="7.71336">
        <ele>227.8</ele>
        <time>2020-06-27T14:59:12Z</time>
      </trkpt>
      <trkpt lat="49.0297" lon="7.71346">
        <ele>227.8</ele>
        <time>2020-06-27T14:59:13Z</time>
      </trkpt>
      <trkpt lat="49.02968" lon="7.71356">
        <ele>227.9</ele>
        <time>2020-06-27T14:59:14Z</time>
      </trkpt>
      <trkpt lat="49.02966" lon="7.71366">
        <ele>228</ele>
        <time>2020-06-27T14:59:15Z</time>
      </trkpt>
      <trkpt lat="49.02964" lon="7.71375">
        <ele>228.1</ele>
        <time>2020-06-27T14:59:16Z</time>
      </trkpt>
      <trkpt lat="49.02962" lon="7.71384">
        <ele>228.1</ele>
        <time>2020-06-27T14:59:17Z</time>
      </trkpt>
      <trkpt lat="49.02959" lon="7.71393">
        <ele>228.2</ele>
        <time>2020-06-27T14:59:18Z</time>
      </trkpt>
      <trkpt lat="49.02957" lon="7.71401">
        <ele>228.2</ele>
        <time>2020-06-27T14:59:19Z</time>
      </trkpt>
      <trkpt lat="49.02955" lon="7.71409">
        <ele>228.3</ele>
        <time>2020-06-27T14:59:20Z</time>
      </trkpt>
      <trkpt lat="49.02954" lon="7.71418">
        <ele>228.3</ele>
        <time>2020-06-27T14:59:21Z</time>
      </trkpt>
      <trkpt lat="49.02952" lon="7.71425">
        <ele>228.4</ele>
        <time>2020-06-27T14:59:22Z</time>
      </trkpt>
      <trkpt lat="49.02951" lon="7.71434">
        <ele>228.4</ele>
        <time>2020-06-27T14:59:23Z</time>
      </trkpt>
      <trkpt lat="49.0295" lon="7.71442">
        <ele>228.5</ele>
        <time>2020-06-27T14:59:24Z</time>
      </trkpt>
      <trkpt lat="49.0295" lon="7.71449">
        <ele>228.6</ele>
        <time>2020-06-27T14:59:25Z</time>
      </trkpt>
      <trkpt lat="49.0295" lon="7.71457">
        <ele>228.6</ele>
        <time>2020-06-27T14:59:26Z</time>
      </trkpt>
      <trkpt lat="49.02949" lon="7.71466">
        <ele>228.7</ele>
        <time>2020-06-27T14:59:27Z</time>
      </trkpt>
      <trkpt lat="49.0295" lon="7.71474">
        <ele>228.7</ele>
        <time>2020-06-27T14:59:28Z</time>
      </trkpt>
      <trkpt lat="49.0295" lon="7.71482">
        <ele>228.7</ele>
        <time>2020-06-27T14:59:29Z</time>
      </trkpt>
      <trkpt lat="49.0295" lon="7.71491">
        <ele>228.7</ele>
        <time>2020-06-27T14:59:30Z</time>
      </trkpt>
      <trkpt lat="49.02949" lon="7.71499">
        <ele>228.7</ele>
        <time>2020-06-27T14:59:31Z</time>
      </trkpt>
      <trkpt lat="49.02951" lon="7.71507">
        <ele>228.7</ele>
        <time>2020-06-27T14:59:32Z</time>
      </trkpt>
      <trkpt lat="49.02951" lon="7.71515">
        <ele>228.7</ele>
        <time>2020-06-27T14:59:33Z</time>
      </trkpt>
      <trkpt lat="49.02951" lon="7.71524">
        <ele>228.7</ele>
        <time>2020-06-27T14:59:34Z</time>
      </trkpt>
      <trkpt lat="49.02951" lon="7.71534">
        <ele>228.6</ele>
        <time>2020-06-27T14:59:35Z</time>
      </trkpt>
      <trkpt lat="49.02952" lon="7.71543">
        <ele>228.6</ele>
        <time>2020-06-27T14:59:36Z</time>
      </trkpt>
      <trkpt lat="49.02953" lon="7.71551">
        <ele>228.5</ele>
        <time>2020-06-27T14:59:37Z</time>
      </trkpt>
      <trkpt lat="49.02954" lon="7.7156">
        <ele>228.5</ele>
        <time>2020-06-27T14:59:38Z</time>
      </trkpt>
      <trkpt lat="49.02955" lon="7.71569">
        <ele>228.4</ele>
        <time>2020-06-27T14:59:39Z</time>
      </trkpt>
      <trkpt lat="49.02956" lon="7.71578">
        <ele>228.4</ele>
        <time>2020-06-27T14:59:40Z</time>
      </trkpt>
      <trkpt lat="49.02958" lon="7.71588">
        <ele>228.3</ele>
        <time>2020-06-27T14:59:41Z</time>
      </trkpt>
      <trkpt lat="49.02957" lon="7.71598">
        <ele>228.2</ele>
        <time>2020-06-27T14:59:42Z</time>
      </trkpt>
      <trkpt lat="49.02957" lon="7.71607">
        <ele>228.2</ele>
        <time>2020-06-27T14:59:43Z</time>
      </trkpt>
      <trkpt lat="49.02958" lon="7.71616">
        <ele>228.1</ele>
        <time>2020-06-27T14:59:44Z</time>
      </trkpt>
      <trkpt lat="49.02959" lon="7.71626">
        <ele>228.1</ele>
        <time>2020-06-27T14:59:45Z</time>
      </trkpt>
      <trkpt lat="49.02961" lon="7.71635">
        <ele>228</ele>
        <time>2020-06-27T14:59:46Z</time>
      </trkpt>
      <trkpt lat="49.02963" lon="7.71643">
        <ele>227.9</ele>
        <time>2020-06-27T14:59:47Z</time>
      </trkpt>
      <trkpt lat="49.02964" lon="7.71652">
        <ele>227.9</ele>
        <time>2020-06-27T14:59:48Z</time>
      </trkpt>
      <trkpt lat="49.02966" lon="7.71661">
        <ele>227.8</ele>
        <time>2020-06-27T14:59:49Z</time>
      </trkpt>
      <trkpt lat="49.02967" lon="7.71669">
        <ele>227.8</ele>
        <time>2020-06-27T14:59:50Z</time>
      </trkpt>
      <trkpt lat="49.02968" lon="7.71679">
        <ele>227.7</ele>
        <time>2020-06-27T14:59:51Z</time>
      </trkpt>
      <trkpt lat="49.0297" lon="7.71688">
        <ele>227.7</ele>
        <time>2020-06-27T14:59:52Z</time>
      </trkpt>
      <trkpt lat="49.02971" lon="7.71697">
        <ele>227.7</ele>
        <time>2020-06-27T14:59:53Z</time>
      </trkpt>
      <trkpt lat="49.02972" lon="7.71707">
        <ele>227.7</ele>
        <time>2020-06-27T14:59:54Z</time>
      </trkpt>
      <trkpt lat="49.02973" lon="7.71716">
        <ele>227.8</ele>
        <time>2020-06-27T14:59:55Z</time>
      </trkpt>
      <trkpt lat="49.02974" lon="7.71725">
        <ele>227.9</ele>
        <time>2020-06-27T14:59:56Z</time>
      </trkpt>
      <trkpt lat="49.02974" lon="7.71734">
        <ele>228</ele>
        <time>2020-06-27T14:59:57Z</time>
      </trkpt>
      <trkpt lat="49.02974" lon="7.71743">
        <ele>228.2</ele>
        <time>2020-06-27T14:59:58Z</time>
      </trkpt>
      <trkpt lat="49.02975" lon="7.71751">
        <ele>228.3</ele>
        <time>2020-06-27T14:59:59Z</time>
      </trkpt>
      <trkpt lat="49.02975" lon="7.71759">
        <ele>228.2</ele>
        <time>2020-06-27T15:00:00Z</time>
      </trkpt>
      <trkpt lat="49.02975" lon="7.71767">
        <ele>228.2</ele>
        <time>2020-06-27T15:00:01Z</time>
      </trkpt>
      <trkpt lat="49.02976" lon="7.71775">
        <ele>228.2</ele>
        <time>2020-06-27T15:00:02Z</time>
      </trkpt>
      <trkpt lat="49.02976" lon="7.71783">
        <ele>228.1</ele>
        <time>2020-06-27T15:00:03Z</time>
      </trkpt>
      <trkpt lat="49.02975" lon="7.71792">
        <ele>228.1</ele>
        <time>2020-06-27T15:00:04Z</time>
      </trkpt>
      <trkpt lat="49.02975" lon="7.71801">
        <ele>228</ele>
        <time>2020-06-27T15:00:05Z</time>
      </trkpt>
      <trkpt lat="49.02974" lon="7.7181">
        <ele>227.9</ele>
        <time>2020-06-27T15:00:06Z</time>
      </trkpt>
      <trkpt lat="49.02973" lon="7.71819">
        <ele>227.7</ele>
        <time>2020-06-27T15:00:07Z</time>
      </trkpt>
      <trkpt lat="49.02973" lon="7.71828">
        <ele>227.5</ele>
        <time>2020-06-27T15:00:08Z</time>
      </trkpt>
      <trkpt lat="49.02972" lon="7.71837">
        <ele>227.4</ele>
        <time>2020-06-27T15:00:09Z</time>
      </trkpt>
      <trkpt lat="49.02972" lon="7.71846">
        <ele>227.2</ele>
        <time>2020-06-27T15:00:10Z</time>
      </trkpt>
      <trkpt lat="49.02971" lon="7.71855">
        <ele>227</ele>
        <time>2020-06-27T15:00:11Z</time>
      </trkpt>
      <trkpt lat="49.0297" lon="7.71864">
        <ele>226.9</ele>
        <time>2020-06-27T15:00:12Z</time>
      </trkpt>
      <trkpt lat="49.02969" lon="7.71874">
        <ele>226.7</ele>
        <time>2020-06-27T15:00:13Z</time>
      </trkpt>
      <trkpt lat="49.0297" lon="7.71884">
        <ele>226.6</ele>
        <time>2020-06-27T15:00:14Z</time>
      </trkpt>
      <trkpt lat="49.0297" lon="7.71893">
        <ele>226.4</ele>
        <time>2020-06-27T15:00:15Z</time>
      </trkpt>
      <trkpt lat="49.0297" lon="7.71903">
        <ele>226.2</ele>
        <time>2020-06-27T15:00:16Z</time>
      </trkpt>
      <trkpt lat="49.0297" lon="7.71913">
        <ele>226.1</ele>
        <time>2020-06-27T15:00:17Z</time>
      </trkpt>
      <trkpt lat="49.0297" lon="7.71924">
        <ele>225.9</ele>
        <time>2020-06-27T15:00:18Z</time>
      </trkpt>
      <trkpt lat="49.0297" lon="7.71934">
        <ele>225.7</ele>
        <time>2020-06-27T15:00:19Z</time>
      </trkpt>
      <trkpt lat="49.0297" lon="7.71945">
        <ele>225.5</ele>
        <time>2020-06-27T15:00:20Z</time>
      </trkpt>
      <trkpt lat="49.0297" lon="7.71956">
        <ele>225.3</ele>
        <time>2020-06-27T15:00:21Z</time>
      </trkpt>
      <trkpt lat="49.0297" lon="7.71968">
        <ele>225.1</ele>
        <time>2020-06-27T15:00:22Z</time>
      </trkpt>
      <trkpt lat="49.0297" lon="7.7198">
        <ele>225</ele>
        <time>2020-06-27T15:00:23Z</time>
      </trkpt>
      <trkpt lat="49.0297" lon="7.71991">
        <ele>224.8</ele>
        <time>2020-06-27T15:00:24Z</time>
      </trkpt>
      <trkpt lat="49.0297" lon="7.72003">
        <ele>224.7</ele>
        <time>2020-06-27T15:00:25Z</time>
      </trkpt>
      <trkpt lat="49.0297" lon="7.72015">
        <ele>224.6</ele>
        <time>2020-06-27T15:00:26Z</time>
      </trkpt>
      <trkpt lat="49.02968" lon="7.72026">
        <ele>224.6</ele>
        <time>2020-06-27T15:00:27Z</time>
      </trkpt>
      <trkpt lat="49.02966" lon="7.72037">
        <ele>224.6</ele>
        <time>2020-06-27T15:00:28Z</time>
      </trkpt>
      <trkpt lat="49.02964" lon="7.72047">
        <ele>224.6</ele>
        <time>2020-06-27T15:00:29Z</time>
      </trkpt>
      <trkpt lat="49.02961" lon="7.72056">
        <ele>224.6</ele>
        <time>2020-06-27T15:00:30Z</time>
      </trkpt>
      <trkpt lat="49.02958" lon="7.72065">
        <ele>224.7</ele>
        <time>2020-06-27T15:00:31Z</time>
      </trkpt>
      <trkpt lat="49.02954" lon="7.72073">
        <ele>224.7</ele>
        <time>2020-06-27T15:00:32Z</time>
      </trkpt>
      <trkpt lat="49.0295" lon="7.7208">
        <ele>224.7</ele>
        <time>2020-06-27T15:00:33Z</time>
      </trkpt>
      <trkpt lat="49.02946" lon="7.72087">
        <ele>224.7</ele>
        <time>2020-06-27T15:00:34Z</time>
      </trkpt>
      <trkpt lat="49.02943" lon="7.72094">
        <ele>224.6</ele>
        <time>2020-06-27T15:00:35Z</time>
      </trkpt>
      <trkpt lat="49.02938" lon="7.72101">
        <ele>224.6</ele>
        <time>2020-06-27T15:00:36Z</time>
      </trkpt>
      <trkpt lat="49.02935" lon="7.72108">
        <ele>224.5</ele>
        <time>2020-06-27T15:00:37Z</time>
      </trkpt>
      <trkpt lat="49.0293" lon="7.72115">
        <ele>224.4</ele>
        <time>2020-06-27T15:00:38Z</time>
      </trkpt>
      <trkpt lat="49.02926" lon="7.72122">
        <ele>224.3</ele>
        <time>2020-06-27T15:00:39Z</time>
      </trkpt>
      <trkpt lat="49.02921" lon="7.7213">
        <ele>224.2</ele>
        <time>2020-06-27T15:00:40Z</time>
      </trkpt>
      <trkpt lat="49.02917" lon="7.72137">
        <ele>224.1</ele>
        <time>2020-06-27T15:00:41Z</time>
      </trkpt>
      <trkpt lat="49.02913" lon="7.72145">
        <ele>224</ele>
        <time>2020-06-27T15:00:42Z</time>
      </trkpt>
      <trkpt lat="49.02909" lon="7.72153">
        <ele>223.8</ele>
        <time>2020-06-27T15:00:43Z</time>
      </trkpt>
      <trkpt lat="49.02905" lon="7.7216">
        <ele>223.7</ele>
        <time>2020-06-27T15:00:44Z</time>
      </trkpt>
      <trkpt lat="49.02901" lon="7.72167">
        <ele>223.5</ele>
        <time>2020-06-27T15:00:45Z</time>
      </trkpt>
      <trkpt lat="49.02898" lon="7.72176">
        <ele>223.3</ele>
        <time>2020-06-27T15:00:46Z</time>
      </trkpt>
      <trkpt lat="49.02894" lon="7.72185">
        <ele>223.1</ele>
        <time>2020-06-27T15:00:47Z</time>
      </trkpt>
      <trkpt lat="49.0289" lon="7.72193">
        <ele>223</ele>
        <time>2020-06-27T15:00:48Z</time>
      </trkpt>
      <trkpt lat="49.02886" lon="7.72203">
        <ele>222.8</ele>
        <time>2020-06-27T15:00:49Z</time>
      </trkpt>
      <trkpt lat="49.02882" lon="7.72212">
        <ele>222.6</ele>
        <time>2020-06-27T15:00:50Z</time>
      </trkpt>
      <trkpt lat="49.02877" lon="7.72221">
        <ele>222.3</ele>
        <time>2020-06-27T15:00:51Z</time>
      </trkpt>
      <trkpt lat="49.02872" lon="7.72231">
        <ele>222.1</ele>
        <time>2020-06-27T15:00:52Z</time>
      </trkpt>
      <trkpt lat="49.02868" lon="7.7224">
        <ele>222</ele>
        <time>2020-06-27T15:00:53Z</time>
      </trkpt>
      <trkpt lat="49.02864" lon="7.72249">
        <ele>221.9</ele>
        <time>2020-06-27T15:00:54Z</time>
      </trkpt>
      <trkpt lat="49.02859" lon="7.72258">
        <ele>221.7</ele>
        <time>2020-06-27T15:00:55Z</time>
      </trkpt>
      <trkpt lat="49.02855" lon="7.72267">
        <ele>221.6</ele>
        <time>2020-06-27T15:00:56Z</time>
      </trkpt>
      <trkpt lat="49.02851" lon="7.72276">
        <ele>221.5</ele>
        <time>2020-06-27T15:00:57Z</time>
      </trkpt>
      <trkpt lat="49.02847" lon="7.72284">
        <ele>221.4</ele>
        <time>2020-06-27T15:00:58Z</time>
      </trkpt>
      <trkpt lat="49.02842" lon="7.72293">
        <ele>221.3</ele>
        <time>2020-06-27T15:00:59Z</time>
      </trkpt>
      <trkpt lat="49.02838" lon="7.72301">
        <ele>221.2</ele>
        <time>2020-06-27T15:01:00Z</time>
      </trkpt>
      <trkpt lat="49.02834" lon="7.7231">
        <ele>221.1</ele>
        <time>2020-06-27T15:01:01Z</time>
      </trkpt>
      <trkpt lat="49.0283" lon="7.72319">
        <ele>221</ele>
        <time>2020-06-27T15:01:02Z</time>
      </trkpt>
      <trkpt lat="49.02827" lon="7.72328">
        <ele>220.9</ele>
        <time>2020-06-27T15:01:03Z</time>
      </trkpt>
      <trkpt lat="49.02823" lon="7.72337">
        <ele>220.8</ele>
        <time>2020-06-27T15:01:04Z</time>
      </trkpt>
      <trkpt lat="49.0282" lon="7.72345">
        <ele>220.7</ele>
        <time>2020-06-27T15:01:05Z</time>
      </trkpt>
      <trkpt lat="49.02816" lon="7.72354">
        <ele>220.6</ele>
        <time>2020-06-27T15:01:06Z</time>
      </trkpt>
      <trkpt lat="49.02812" lon="7.72363">
        <ele>220.5</ele>
        <time>2020-06-27T15:01:07Z</time>
      </trkpt>
      <trkpt lat="49.02809" lon="7.72373">
        <ele>220.4</ele>
        <time>2020-06-27T15:01:08Z</time>
      </trkpt>
      <trkpt lat="49.02806" lon="7.72383">
        <ele>220.3</ele>
        <time>2020-06-27T15:01:09Z</time>
      </trkpt>
      <trkpt lat="49.02802" lon="7.72392">
        <ele>220.2</ele>
        <time>2020-06-27T15:01:10Z</time>
      </trkpt>
      <trkpt lat="49.028" lon="7.72402">
        <ele>220.1</ele>
        <time>2020-06-27T15:01:11Z</time>
      </trkpt>
      <trkpt lat="49.02797" lon="7.72412">
        <ele>220.1</ele>
        <time>2020-06-27T15:01:12Z</time>
      </trkpt>
      <trkpt lat="49.02795" lon="7.72423">
        <ele>220.1</ele>
        <time>2020-06-27T15:01:13Z</time>
      </trkpt>
      <trkpt lat="49.02793" lon="7.72432">
        <ele>220.1</ele>
        <time>2020-06-27T15:01:14Z</time>
      </trkpt>
      <trkpt lat="49.02791" lon="7.72442">
        <ele>220.1</ele>
        <time>2020-06-27T15:01:15Z</time>
      </trkpt>
      <trkpt lat="49.02789" lon="7.72451">
        <ele>220.1</ele>
        <time>2020-06-27T15:01:16Z</time>
      </trkpt>
      <trkpt lat="49.02787" lon="7.7246">
        <ele>220.1</ele>
        <time>2020-06-27T15:01:17Z</time>
      </trkpt>
      <trkpt lat="49.02785" lon="7.7247">
        <ele>220.1</ele>
        <time>2020-06-27T15:01:18Z</time>
      </trkpt>
      <trkpt lat="49.02783" lon="7.72479">
        <ele>220.1</ele>
        <time>2020-06-27T15:01:19Z</time>
      </trkpt>
      <trkpt lat="49.02782" lon="7.72488">
        <ele>220.2</ele>
        <time>2020-06-27T15:01:20Z</time>
      </trkpt>
      <trkpt lat="49.02781" lon="7.72496">
        <ele>220.2</ele>
        <time>2020-06-27T15:01:21Z</time>
      </trkpt>
      <trkpt lat="49.0278" lon="7.72505">
        <ele>220.3</ele>
        <time>2020-06-27T15:01:22Z</time>
      </trkpt>
      <trkpt lat="49.02778" lon="7.72513">
        <ele>220.3</ele>
        <time>2020-06-27T15:01:23Z</time>
      </trkpt>
      <trkpt lat="49.02777" lon="7.72522">
        <ele>220.4</ele>
        <time>2020-06-27T15:01:24Z</time>
      </trkpt>
      <trkpt lat="49.02776" lon="7.7253">
        <ele>220.5</ele>
        <time>2020-06-27T15:01:25Z</time>
      </trkpt>
      <trkpt lat="49.02774" lon="7.72537">
        <ele>220.6</ele>
        <time>2020-06-27T15:01:26Z</time>
      </trkpt>
      <trkpt lat="49.02773" lon="7.72544">
        <ele>220.7</ele>
        <time>2020-06-27T15:01:27Z</time>
      </trkpt>
      <trkpt lat="49.02771" lon="7.72551">
        <ele>220.8</ele>
        <time>2020-06-27T15:01:28Z</time>
      </trkpt>
      <trkpt lat="49.0277" lon="7.72559">
        <ele>220.8</ele>
        <time>2020-06-27T15:01:29Z</time>
      </trkpt>
      <trkpt lat="49.02769" lon="7.72566">
        <ele>220.9</ele>
        <time>2020-06-27T15:01:30Z</time>
      </trkpt>
      <trkpt lat="49.02768" lon="7.72573">
        <ele>221</ele>
        <time>2020-06-27T15:01:31Z</time>
      </trkpt>
      <trkpt lat="49.02767" lon="7.7258">
        <ele>221</ele>
        <time>2020-06-27T15:01:32Z</time>
      </trkpt>
      <trkpt lat="49.02767" lon="7.72587">
        <ele>221.1</ele>
        <time>2020-06-27T15:01:33Z</time>
      </trkpt>
      <trkpt lat="49.02766" lon="7.72595">
        <ele>221.2</ele>
        <time>2020-06-27T15:01:34Z</time>
      </trkpt>
      <trkpt lat="49.02763" lon="7.72602">
        <ele>221.2</ele>
        <time>2020-06-27T15:01:35Z</time>
      </trkpt>
      <trkpt lat="49.02762" lon="7.72611">
        <ele>221.2</ele>
        <time>2020-06-27T15:01:36Z</time>
      </trkpt>
      <trkpt lat="49.02759" lon="7.72619">
        <ele>221.2</ele>
        <time>2020-06-27T15:01:37Z</time>
      </trkpt>
      <trkpt lat="49.02758" lon="7.72629">
        <ele>221.2</ele>
        <time>2020-06-27T15:01:38Z</time>
      </trkpt>
      <trkpt lat="49.02757" lon="7.72638">
        <ele>221.1</ele>
        <time>2020-06-27T15:01:39Z</time>
      </trkpt>
      <trkpt lat="49.02756" lon="7.72648">
        <ele>221</ele>
        <time>2020-06-27T15:01:40Z</time>
      </trkpt>
      <trkpt lat="49.02755" lon="7.72658">
        <ele>220.9</ele>
        <time>2020-06-27T15:01:41Z</time>
      </trkpt>
      <trkpt lat="49.02753" lon="7.72668">
        <ele>220.8</ele>
        <time>2020-06-27T15:01:42Z</time>
      </trkpt>
      <trkpt lat="49.02753" lon="7.72678">
        <ele>220.7</ele>
        <time>2020-06-27T15:01:43Z</time>
      </trkpt>
      <trkpt lat="49.02754" lon="7.72688">
        <ele>220.6</ele>
        <time>2020-06-27T15:01:44Z</time>
      </trkpt>
      <trkpt lat="49.02755" lon="7.72697">
        <ele>220.5</ele>
        <time>2020-06-27T15:01:45Z</time>
      </trkpt>
      <trkpt lat="49.02754" lon="7.72708">
        <ele>220.4</ele>
        <time>2020-06-27T15:01:46Z</time>
      </trkpt>
      <trkpt lat="49.02755" lon="7.72718">
        <ele>220.3</ele>
        <time>2020-06-27T15:01:47Z</time>
      </trkpt>
      <trkpt lat="49.02756" lon="7.72727">
        <ele>220.2</ele>
        <time>2020-06-27T15:01:48Z</time>
      </trkpt>
      <trkpt lat="49.02756" lon="7.72738">
        <ele>220.2</ele>
        <time>2020-06-27T15:01:49Z</time>
      </trkpt>
      <trkpt lat="49.02757" lon="7.72747">
        <ele>220.1</ele>
        <time>2020-06-27T15:01:50Z</time>
      </trkpt>
      <trkpt lat="49.02757" lon="7.72757">
        <ele>220</ele>
        <time>2020-06-27T15:01:51Z</time>
      </trkpt>
      <trkpt lat="49.02758" lon="7.72766">
        <ele>219.9</ele>
        <time>2020-06-27T15:01:52Z</time>
      </trkpt>
      <trkpt lat="49.02759" lon="7.72775">
        <ele>219.8</ele>
        <time>2020-06-27T15:01:53Z</time>
      </trkpt>
      <trkpt lat="49.02761" lon="7.72785">
        <ele>219.7</ele>
        <time>2020-06-27T15:01:54Z</time>
      </trkpt>
      <trkpt lat="49.02762" lon="7.72794">
        <ele>219.7</ele>
        <time>2020-06-27T15:01:55Z</time>
      </trkpt>
      <trkpt lat="49.02763" lon="7.72802">
        <ele>219.6</ele>
        <time>2020-06-27T15:01:56Z</time>
      </trkpt>
      <trkpt lat="49.02764" lon="7.72811">
        <ele>219.6</ele>
        <time>2020-06-27T15:01:57Z</time>
      </trkpt>
      <trkpt lat="49.02765" lon="7.72819">
        <ele>219.6</ele>
        <time>2020-06-27T15:01:58Z</time>
      </trkpt>
      <trkpt lat="49.02766" lon="7.72827">
        <ele>219.5</ele>
        <time>2020-06-27T15:01:59Z</time>
      </trkpt>
      <trkpt lat="49.02767" lon="7.72836">
        <ele>219.5</ele>
        <time>2020-06-27T15:02:00Z</time>
      </trkpt>
      <trkpt lat="49.02768" lon="7.72845">
        <ele>219.5</ele>
        <time>2020-06-27T15:02:01Z</time>
      </trkpt>
      <trkpt lat="49.02769" lon="7.72853">
        <ele>219.4</ele>
        <time>2020-06-27T15:02:02Z</time>
      </trkpt>
      <trkpt lat="49.0277" lon="7.72862">
        <ele>219.4</ele>
        <time>2020-06-27T15:02:03Z</time>
      </trkpt>
      <trkpt lat="49.02771" lon="7.72871">
        <ele>219.4</ele>
        <time>2020-06-27T15:02:04Z</time>
      </trkpt>
      <trkpt lat="49.02772" lon="7.7288">
        <ele>219.3</ele>
        <time>2020-06-27T15:02:05Z</time>
      </trkpt>
      <trkpt lat="49.02773" lon="7.72889">
        <ele>219.3</ele>
        <time>2020-06-27T15:02:06Z</time>
      </trkpt>
      <trkpt lat="49.02775" lon="7.72899">
        <ele>219.3</ele>
        <time>2020-06-27T15:02:07Z</time>
      </trkpt>
      <trkpt lat="49.02776" lon="7.72909">
        <ele>219.2</ele>
        <time>2020-06-27T15:02:08Z</time>
      </trkpt>
      <trkpt lat="49.02777" lon="7.72919">
        <ele>219.2</ele>
        <time>2020-06-27T15:02:09Z</time>
      </trkpt>
      <trkpt lat="49.02778" lon="7.72929">
        <ele>219.1</ele>
        <time>2020-06-27T15:02:10Z</time>
      </trkpt>
      <trkpt lat="49.02779" lon="7.7294">
        <ele>219</ele>
        <time>2020-06-27T15:02:11Z</time>
      </trkpt>
      <trkpt lat="49.0278" lon="7.7295">
        <ele>218.9</ele>
        <time>2020-06-27T15:02:12Z</time>
      </trkpt>
      <trkpt lat="49.02781" lon="7.7296">
        <ele>218.8</ele>
        <time>2020-06-27T15:02:13Z</time>
      </trkpt>
      <trkpt lat="49.02782" lon="7.7297">
        <ele>218.7</ele>
        <time>2020-06-27T15:02:14Z</time>
      </trkpt>
      <trkpt lat="49.02783" lon="7.72979">
        <ele>218.7</ele>
        <time>2020-06-27T15:02:15Z</time>
      </trkpt>
      <trkpt lat="49.02784" lon="7.72989">
        <ele>218.6</ele>
        <time>2020-06-27T15:02:16Z</time>
      </trkpt>
      <trkpt lat="49.02786" lon="7.72999">
        <ele>218.5</ele>
        <time>2020-06-27T15:02:17Z</time>
      </trkpt>
      <trkpt lat="49.02786" lon="7.73009">
        <ele>218.5</ele>
        <time>2020-06-27T15:02:18Z</time>
      </trkpt>
      <trkpt lat="49.02787" lon="7.73019">
        <ele>218.4</ele>
        <time>2020-06-27T15:02:19Z</time>
      </trkpt>
      <trkpt lat="49.02788" lon="7.7303">
        <ele>218.4</ele>
        <time>2020-06-27T15:02:20Z</time>
      </trkpt>
      <trkpt lat="49.02787" lon="7.73041">
        <ele>218.3</ele>
        <time>2020-06-27T15:02:21Z</time>
      </trkpt>
      <trkpt lat="49.02786" lon="7.73051">
        <ele>218.3</ele>
        <time>2020-06-27T15:02:22Z</time>
      </trkpt>
      <trkpt lat="49.02785" lon="7.73062">
        <ele>218.3</ele>
        <time>2020-06-27T15:02:23Z</time>
      </trkpt>
      <trkpt lat="49.02783" lon="7.73072">
        <ele>218.3</ele>
        <time>2020-06-27T15:02:24Z</time>
      </trkpt>
      <trkpt lat="49.02781" lon="7.73082">
        <ele>218.3</ele>
        <time>2020-06-27T15:02:25Z</time>
      </trkpt>
      <trkpt lat="49.02778" lon="7.73092">
        <ele>218.3</ele>
        <time>2020-06-27T15:02:26Z</time>
      </trkpt>
      <trkpt lat="49.02775" lon="7.73101">
        <ele>218.3</ele>
        <time>2020-06-27T15:02:27Z</time>
      </trkpt>
      <trkpt lat="49.02771" lon="7.7311">
        <ele>218.3</ele>
        <time>2020-06-27T15:02:28Z</time>
      </trkpt>
      <trkpt lat="49.02768" lon="7.73119">
        <ele>218.3</ele>
        <time>2020-06-27T15:02:29Z</time>
      </trkpt>
      <trkpt lat="49.02765" lon="7.73128">
        <ele>218.3</ele>
        <time>2020-06-27T15:02:30Z</time>
      </trkpt>
      <trkpt lat="49.02761" lon="7.73136">
        <ele>218.3</ele>
        <time>2020-06-27T15:02:31Z</time>
      </trkpt>
      <trkpt lat="49.02757" lon="7.73144">
        <ele>218.3</ele>
        <time>2020-06-27T15:02:32Z</time>
      </trkpt>
      <trkpt lat="49.02753" lon="7.73152">
        <ele>218.3</ele>
        <time>2020-06-27T15:02:33Z</time>
      </trkpt>
      <trkpt lat="49.0275" lon="7.7316">
        <ele>218.4</ele>
        <time>2020-06-27T15:02:34Z</time>
      </trkpt>
      <trkpt lat="49.02747" lon="7.73167">
        <ele>218.4</ele>
        <time>2020-06-27T15:02:35Z</time>
      </trkpt>
      <trkpt lat="49.02744" lon="7.73175">
        <ele>218.5</ele>
        <time>2020-06-27T15:02:36Z</time>
      </trkpt>
      <trkpt lat="49.02737" lon="7.73183">
        <ele>218.6</ele>
        <time>2020-06-27T15:02:37Z</time>
      </trkpt>
      <trkpt lat="49.02735" lon="7.73191">
        <ele>218.5</ele>
        <time>2020-06-27T15:02:38Z</time>
      </trkpt>
      <trkpt lat="49.02733" lon="7.73199">
        <ele>218.4</ele>
        <time>2020-06-27T15:02:39Z</time>
      </trkpt>
      <trkpt lat="49.0273" lon="7.73207">
        <ele>218.3</ele>
        <time>2020-06-27T15:02:40Z</time>
      </trkpt>
      <trkpt lat="49.02729" lon="7.73215">
        <ele>218.3</ele>
        <time>2020-06-27T15:02:41Z</time>
      </trkpt>
      <trkpt lat="49.02725" lon="7.73224">
        <ele>218.2</ele>
        <time>2020-06-27T15:02:42Z</time>
      </trkpt>
      <trkpt lat="49.02724" lon="7.73232">
        <ele>218.1</ele>
        <time>2020-06-27T15:02:43Z</time>
      </trkpt>
      <trkpt lat="49.02723" lon="7.73241">
        <ele>218.1</ele>
        <time>2020-06-27T15:02:44Z</time>
      </trkpt>
      <trkpt lat="49.02723" lon="7.73249">
        <ele>218</ele>
        <time>2020-06-27T15:02:45Z</time>
      </trkpt>
      <trkpt lat="49.02725" lon="7.73257">
        <ele>218</ele>
        <time>2020-06-27T15:02:46Z</time>
      </trkpt>
      <trkpt lat="49.02727" lon="7.73264">
        <ele>218</ele>
        <time>2020-06-27T15:02:47Z</time>
      </trkpt>
      <trkpt lat="49.02729" lon="7.73272">
        <ele>218</ele>
        <time>2020-06-27T15:02:48Z</time>
      </trkpt>
      <trkpt lat="49.02731" lon="7.73281">
        <ele>218</ele>
        <time>2020-06-27T15:02:49Z</time>
      </trkpt>
      <trkpt lat="49.02733" lon="7.7329">
        <ele>218</ele>
        <time>2020-06-27T15:02:50Z</time>
      </trkpt>
      <trkpt lat="49.02736" lon="7.73299">
        <ele>218</ele>
        <time>2020-06-27T15:02:51Z</time>
      </trkpt>
      <trkpt lat="49.0274" lon="7.73308">
        <ele>218</ele>
        <time>2020-06-27T15:02:52Z</time>
      </trkpt>
      <trkpt lat="49.02743" lon="7.73318">
        <ele>218</ele>
        <time>2020-06-27T15:02:53Z</time>
      </trkpt>
      <trkpt lat="49.02745" lon="7.73328">
        <ele>218</ele>
        <time>2020-06-27T15:02:54Z</time>
      </trkpt>
      <trkpt lat="49.02749" lon="7.73338">
        <ele>218</ele>
        <time>2020-06-27T15:02:55Z</time>
      </trkpt>
      <trkpt lat="49.02752" lon="7.7335">
        <ele>218</ele>
        <time>2020-06-27T15:02:56Z</time>
      </trkpt>
      <trkpt lat="49.02756" lon="7.7336">
        <ele>218</ele>
        <time>2020-06-27T15:02:57Z</time>
      </trkpt>
      <trkpt lat="49.0276" lon="7.73373">
        <ele>217.9</ele>
        <time>2020-06-27T15:02:58Z</time>
      </trkpt>
      <trkpt lat="49.02764" lon="7.73387">
        <ele>217.9</ele>
        <time>2020-06-27T15:02:59Z</time>
      </trkpt>
      <trkpt lat="49.02768" lon="7.73401">
        <ele>217.8</ele>
        <time>2020-06-27T15:03:00Z</time>
      </trkpt>
      <trkpt lat="49.02772" lon="7.73414">
        <ele>217.7</ele>
        <time>2020-06-27T15:03:01Z</time>
      </trkpt>
      <trkpt lat="49.02777" lon="7.73427">
        <ele>217.7</ele>
        <time>2020-06-27T15:03:02Z</time>
      </trkpt>
      <trkpt lat="49.02781" lon="7.73437">
        <ele>217.6</ele>
        <time>2020-06-27T15:03:03Z</time>
      </trkpt>
      <trkpt lat="49.02784" lon="7.73449">
        <ele>217.6</ele>
        <time>2020-06-27T15:03:04Z</time>
      </trkpt>
      <trkpt lat="49.02787" lon="7.73463">
        <ele>217.5</ele>
        <time>2020-06-27T15:03:05Z</time>
      </trkpt>
      <trkpt lat="49.0279" lon="7.73477">
        <ele>217.4</ele>
        <time>2020-06-27T15:03:06Z</time>
      </trkpt>
      <trkpt lat="49.02793" lon="7.73488">
        <ele>217.4</ele>
        <time>2020-06-27T15:03:07Z</time>
      </trkpt>
      <trkpt lat="49.02795" lon="7.73499">
        <ele>217.3</ele>
        <time>2020-06-27T15:03:08Z</time>
      </trkpt>
      <trkpt lat="49.02798" lon="7.7351">
        <ele>217.3</ele>
        <time>2020-06-27T15:03:09Z</time>
      </trkpt>
      <trkpt lat="49.02801" lon="7.7352">
        <ele>217.2</ele>
        <time>2020-06-27T15:03:10Z</time>
      </trkpt>
      <trkpt lat="49.02804" lon="7.73529">
        <ele>217.1</ele>
        <time>2020-06-27T15:03:11Z</time>
      </trkpt>
      <trkpt lat="49.02807" lon="7.73541">
        <ele>216.9</ele>
        <time>2020-06-27T15:03:12Z</time>
      </trkpt>
      <trkpt lat="49.02811" lon="7.73552">
        <ele>216.8</ele>
        <time>2020-06-27T15:03:13Z</time>
      </trkpt>
      <trkpt lat="49.02815" lon="7.73563">
        <ele>216.7</ele>
        <time>2020-06-27T15:03:14Z</time>
      </trkpt>
      <trkpt lat="49.0282" lon="7.73575">
        <ele>216.6</ele>
        <time>2020-06-27T15:03:15Z</time>
      </trkpt>
      <trkpt lat="49.02824" lon="7.73585">
        <ele>216.5</ele>
        <time>2020-06-27T15:03:16Z</time>
      </trkpt>
      <trkpt lat="49.02828" lon="7.73596">
        <ele>216.4</ele>
        <time>2020-06-27T15:03:17Z</time>
      </trkpt>
      <trkpt lat="49.02832" lon="7.73607">
        <ele>216.4</ele>
        <time>2020-06-27T15:03:18Z</time>
      </trkpt>
      <trkpt lat="49.02835" lon="7.73616">
        <ele>216.3</ele>
        <time>2020-06-27T15:03:19Z</time>
      </trkpt>
      <trkpt lat="49.02838" lon="7.73625">
        <ele>216.2</ele>
        <time>2020-06-27T15:03:20Z</time>
      </trkpt>
      <trkpt lat="49.02843" lon="7.73635">
        <ele>216.2</ele>
        <time>2020-06-27T15:03:21Z</time>
      </trkpt>
      <trkpt lat="49.02847" lon="7.73644">
        <ele>216.2</ele>
        <time>2020-06-27T15:03:22Z</time>
      </trkpt>
      <trkpt lat="49.02851" lon="7.73654">
        <ele>216.2</ele>
        <time>2020-06-27T15:03:23Z</time>
      </trkpt>
      <trkpt lat="49.02855" lon="7.73664">
        <ele>216.3</ele>
        <time>2020-06-27T15:03:24Z</time>
      </trkpt>
      <trkpt lat="49.02859" lon="7.73674">
        <ele>216.3</ele>
        <time>2020-06-27T15:03:25Z</time>
      </trkpt>
      <trkpt lat="49.02863" lon="7.73683">
        <ele>216.4</ele>
        <time>2020-06-27T15:03:26Z</time>
      </trkpt>
      <trkpt lat="49.02866" lon="7.73692">
        <ele>216.4</ele>
        <time>2020-06-27T15:03:27Z</time>
      </trkpt>
      <trkpt lat="49.0287" lon="7.737">
        <ele>216.4</ele>
        <time>2020-06-27T15:03:28Z</time>
      </trkpt>
      <trkpt lat="49.02874" lon="7.73709">
        <ele>216.4</ele>
        <time>2020-06-27T15:03:29Z</time>
      </trkpt>
      <trkpt lat="49.02878" lon="7.73718">
        <ele>216.5</ele>
        <time>2020-06-27T15:03:30Z</time>
      </trkpt>
      <trkpt lat="49.02882" lon="7.73726">
        <ele>216.6</ele>
        <time>2020-06-27T15:03:31Z</time>
      </trkpt>
      <trkpt lat="49.02886" lon="7.73734">
        <ele>216.7</ele>
        <time>2020-06-27T15:03:32Z</time>
      </trkpt>
      <trkpt lat="49.0289" lon="7.73742">
        <ele>216.8</ele>
        <time>2020-06-27T15:03:33Z</time>
      </trkpt>
      <trkpt lat="49.02893" lon="7.7375">
        <ele>217</ele>
        <time>2020-06-27T15:03:34Z</time>
      </trkpt>
      <trkpt lat="49.02897" lon="7.73758">
        <ele>217.1</ele>
        <time>2020-06-27T15:03:35Z</time>
      </trkpt>
      <trkpt lat="49.02901" lon="7.73765">
        <ele>217.3</ele>
        <time>2020-06-27T15:03:36Z</time>
      </trkpt>
      <trkpt lat="49.02905" lon="7.73773">
        <ele>217.5</ele>
        <time>2020-06-27T15:03:37Z</time>
      </trkpt>
      <trkpt lat="49.02909" lon="7.73781">
        <ele>217.5</ele>
        <time>2020-06-27T15:03:38Z</time>
      </trkpt>
      <trkpt lat="49.02911" lon="7.7379">
        <ele>217.5</ele>
        <time>2020-06-27T15:03:39Z</time>
      </trkpt>
      <trkpt lat="49.02915" lon="7.73798">
        <ele>217.5</ele>
        <time>2020-06-27T15:03:40Z</time>
      </trkpt>
      <trkpt lat="49.02918" lon="7.73805">
        <ele>217.5</ele>
        <time>2020-06-27T15:03:41Z</time>
      </trkpt>
      <trkpt lat="49.02922" lon="7.73811">
        <ele>217.6</ele>
        <time>2020-06-27T15:03:42Z</time>
      </trkpt>
      <trkpt lat="49.02926" lon="7.73819">
        <ele>217.6</ele>
        <time>2020-06-27T15:03:43Z</time>
      </trkpt>
      <trkpt lat="49.02929" lon="7.73826">
        <ele>217.7</ele>
        <time>2020-06-27T15:03:44Z</time>
      </trkpt>
      <trkpt lat="49.02932" lon="7.73833">
        <ele>217.8</ele>
        <time>2020-06-27T15:03:45Z</time>
      </trkpt>
      <trkpt lat="49.02935" lon="7.7384">
        <ele>217.8</ele>
        <time>2020-06-27T15:03:46Z</time>
      </trkpt>
      <trkpt lat="49.02938" lon="7.73846">
        <ele>217.9</ele>
        <time>2020-06-27T15:03:47Z</time>
      </trkpt>
      <trkpt lat="49.02942" lon="7.73852">
        <ele>218</ele>
        <time>2020-06-27T15:03:48Z</time>
      </trkpt>
      <trkpt lat="49.02945" lon="7.73859">
        <ele>218</ele>
        <time>2020-06-27T15:03:49Z</time>
      </trkpt>
      <trkpt lat="49.02949" lon="7.73866">
        <ele>218.1</ele>
        <time>2020-06-27T15:03:50Z</time>
      </trkpt>
      <trkpt lat="49.02952" lon="7.73874">
        <ele>218.1</ele>
        <time>2020-06-27T15:03:51Z</time>
      </trkpt>
      <trkpt lat="49.02956" lon="7.73881">
        <ele>218.2</ele>
        <time>2020-06-27T15:03:52Z</time>
      </trkpt>
      <trkpt lat="49.02959" lon="7.73888">
        <ele>218.2</ele>
        <time>2020-06-27T15:03:53Z</time>
      </trkpt>
      <trkpt lat="49.02963" lon="7.73894">
        <ele>218.3</ele>
        <time>2020-06-27T15:03:54Z</time>
      </trkpt>
      <trkpt lat="49.02967" lon="7.73901">
        <ele>218.3</ele>
        <time>2020-06-27T15:03:55Z</time>
      </trkpt>
      <trkpt lat="49.02969" lon="7.7391">
        <ele>218.3</ele>
        <time>2020-06-27T15:03:56Z</time>
      </trkpt>
      <trkpt lat="49.02973" lon="7.73916">
        <ele>218.2</ele>
        <time>2020-06-27T15:03:57Z</time>
      </trkpt>
      <trkpt lat="49.02977" lon="7.73922">
        <ele>218.2</ele>
        <time>2020-06-27T15:03:58Z</time>
      </trkpt>
      <trkpt lat="49.0298" lon="7.7393">
        <ele>218.1</ele>
        <time>2020-06-27T15:03:59Z</time>
      </trkpt>
      <trkpt lat="49.02984" lon="7.73938">
        <ele>218</ele>
        <time>2020-06-27T15:04:00Z</time>
      </trkpt>
      <trkpt lat="49.02987" lon="7.73945">
        <ele>217.9</ele>
        <time>2020-06-27T15:04:01Z</time>
      </trkpt>
      <trkpt lat="49.02991" lon="7.73952">
        <ele>217.8</ele>
        <time>2020-06-27T15:04:02Z</time>
      </trkpt>
      <trkpt lat="49.02994" lon="7.73959">
        <ele>217.7</ele>
        <time>2020-06-27T15:04:03Z</time>
      </trkpt>
      <trkpt lat="49.02998" lon="7.73967">
        <ele>217.6</ele>
        <time>2020-06-27T15:04:04Z</time>
      </trkpt>
      <trkpt lat="49.03002" lon="7.73974">
        <ele>217.5</ele>
        <time>2020-06-27T15:04:05Z</time>
      </trkpt>
      <trkpt lat="49.03005" lon="7.73982">
        <ele>217.4</ele>
        <time>2020-06-27T15:04:06Z</time>
      </trkpt>
      <trkpt lat="49.03009" lon="7.73991">
        <ele>217.3</ele>
        <time>2020-06-27T15:04:07Z</time>
      </trkpt>
      <trkpt lat="49.03012" lon="7.73999">
        <ele>217.1</ele>
        <time>2020-06-27T15:04:08Z</time>
      </trkpt>
      <trkpt lat="49.03015" lon="7.74009">
        <ele>217</ele>
        <time>2020-06-27T15:04:09Z</time>
      </trkpt>
      <trkpt lat="49.03018" lon="7.74018">
        <ele>216.9</ele>
        <time>2020-06-27T15:04:10Z</time>
      </trkpt>
      <trkpt lat="49.03019" lon="7.74028">
        <ele>216.8</ele>
        <time>2020-06-27T15:04:11Z</time>
      </trkpt>
      <trkpt lat="49.0302" lon="7.74039">
        <ele>216.8</ele>
        <time>2020-06-27T15:04:12Z</time>
      </trkpt>
      <trkpt lat="49.0302" lon="7.7405">
        <ele>216.7</ele>
        <time>2020-06-27T15:04:13Z</time>
      </trkpt>
      <trkpt lat="49.03019" lon="7.74062">
        <ele>216.7</ele>
        <time>2020-06-27T15:04:14Z</time>
      </trkpt>
      <trkpt lat="49.03018" lon="7.74073">
        <ele>216.6</ele>
        <time>2020-06-27T15:04:15Z</time>
      </trkpt>
      <trkpt lat="49.03017" lon="7.74084">
        <ele>216.6</ele>
        <time>2020-06-27T15:04:16Z</time>
      </trkpt>
      <trkpt lat="49.03016" lon="7.74096">
        <ele>216.6</ele>
        <time>2020-06-27T15:04:17Z</time>
      </trkpt>
      <trkpt lat="49.03013" lon="7.74107">
        <ele>216.6</ele>
        <time>2020-06-27T15:04:18Z</time>
      </trkpt>
      <trkpt lat="49.03011" lon="7.74117">
        <ele>216.6</ele>
        <time>2020-06-27T15:04:19Z</time>
      </trkpt>
      <trkpt lat="49.0301" lon="7.74127">
        <ele>216.6</ele>
        <time>2020-06-27T15:04:20Z</time>
      </trkpt>
      <trkpt lat="49.03008" lon="7.74138">
        <ele>216.7</ele>
        <time>2020-06-27T15:04:21Z</time>
      </trkpt>
      <trkpt lat="49.03007" lon="7.74148">
        <ele>216.8</ele>
        <time>2020-06-27T15:04:22Z</time>
      </trkpt>
      <trkpt lat="49.03005" lon="7.74158">
        <ele>216.9</ele>
        <time>2020-06-27T15:04:23Z</time>
      </trkpt>
      <trkpt lat="49.03003" lon="7.74167">
        <ele>217</ele>
        <time>2020-06-27T15:04:24Z</time>
      </trkpt>
      <trkpt lat="49.03003" lon="7.74176">
        <ele>217</ele>
        <time>2020-06-27T15:04:25Z</time>
      </trkpt>
      <trkpt lat="49.03001" lon="7.74186">
        <ele>217.1</ele>
        <time>2020-06-27T15:04:26Z</time>
      </trkpt>
      <trkpt lat="49.02999" lon="7.74195">
        <ele>217.2</ele>
        <time>2020-06-27T15:04:27Z</time>
      </trkpt>
      <trkpt lat="49.02998" lon="7.74203">
        <ele>217.2</ele>
        <time>2020-06-27T15:04:28Z</time>
      </trkpt>
      <trkpt lat="49.02996" lon="7.74211">
        <ele>217.3</ele>
        <time>2020-06-27T15:04:29Z</time>
      </trkpt>
      <trkpt lat="49.02992" lon="7.7422">
        <ele>217.4</ele>
        <time>2020-06-27T15:04:30Z</time>
      </trkpt>
      <trkpt lat="49.02991" lon="7.74229">
        <ele>217.5</ele>
        <time>2020-06-27T15:04:31Z</time>
      </trkpt>
      <trkpt lat="49.0299" lon="7.74238">
        <ele>217.5</ele>
        <time>2020-06-27T15:04:32Z</time>
      </trkpt>
      <trkpt lat="49.02989" lon="7.74246">
        <ele>217.6</ele>
        <time>2020-06-27T15:04:33Z</time>
      </trkpt>
      <trkpt lat="49.02988" lon="7.74254">
        <ele>217.6</ele>
        <time>2020-06-27T15:04:34Z</time>
      </trkpt>
      <trkpt lat="49.02987" lon="7.74263">
        <ele>217.7</ele>
        <time>2020-06-27T15:04:35Z</time>
      </trkpt>
      <trkpt lat="49.02986" lon="7.7427">
        <ele>217.8</ele>
        <time>2020-06-27T15:04:36Z</time>
      </trkpt>
      <trkpt lat="49.02985" lon="7.74278">
        <ele>217.8</ele>
        <time>2020-06-27T15:04:37Z</time>
      </trkpt>
      <trkpt lat="49.02984" lon="7.74286">
        <ele>217.9</ele>
        <time>2020-06-27T15:04:38Z</time>
      </trkpt>
      <trkpt lat="49.02982" lon="7.74294">
        <ele>217.9</ele>
        <time>2020-06-27T15:04:39Z</time>
      </trkpt>
      <trkpt lat="49.02982" lon="7.74302">
        <ele>218</ele>
        <time>2020-06-27T15:04:40Z</time>
      </trkpt>
      <trkpt lat="49.02981" lon="7.7431">
        <ele>218.1</ele>
        <time>2020-06-27T15:04:41Z</time>
      </trkpt>
      <trkpt lat="49.0298" lon="7.74318">
        <ele>218.1</ele>
        <time>2020-06-27T15:04:42Z</time>
      </trkpt>
      <trkpt lat="49.02979" lon="7.74325">
        <ele>218.2</ele>
        <time>2020-06-27T15:04:43Z</time>
      </trkpt>
      <trkpt lat="49.02979" lon="7.74332">
        <ele>218.3</ele>
        <time>2020-06-27T15:04:44Z</time>
      </trkpt>
      <trkpt lat="49.02978" lon="7.74339">
        <ele>218.3</ele>
        <time>2020-06-27T15:04:45Z</time>
      </trkpt>
      <trkpt lat="49.02977" lon="7.74349">
        <ele>218.4</ele>
        <time>2020-06-27T15:04:46Z</time>
      </trkpt>
      <trkpt lat="49.02975" lon="7.7436">
        <ele>218.5</ele>
        <time>2020-06-27T15:04:47Z</time>
      </trkpt>
      <trkpt lat="49.02975" lon="7.7437">
        <ele>218.6</ele>
        <time>2020-06-27T15:04:48Z</time>
      </trkpt>
      <trkpt lat="49.02974" lon="7.7438">
        <ele>218.7</ele>
        <time>2020-06-27T15:04:49Z</time>
      </trkpt>
      <trkpt lat="49.02975" lon="7.74391">
        <ele>218.7</ele>
        <time>2020-06-27T15:04:50Z</time>
      </trkpt>
      <trkpt lat="49.02975" lon="7.744">
        <ele>218.8</ele>
        <time>2020-06-27T15:04:51Z</time>
      </trkpt>
      <trkpt lat="49.02976" lon="7.7442">
        <ele>219</ele>
        <time>2020-06-27T15:04:52Z</time>
      </trkpt>
      <trkpt lat="49.02977" lon="7.74426">
        <ele>219</ele>
        <time>2020-06-27T15:04:53Z</time>
      </trkpt>
      <trkpt lat="49.02979" lon="7.74437">
        <ele>219.2</ele>
        <time>2020-06-27T15:04:54Z</time>
      </trkpt>
      <trkpt lat="49.02981" lon="7.74452">
        <ele>219.4</ele>
        <time>2020-06-27T15:04:55Z</time>
      </trkpt>
      <trkpt lat="49.02983" lon="7.74459">
        <ele>219.5</ele>
        <time>2020-06-27T15:04:56Z</time>
      </trkpt>
      <trkpt lat="49.02986" lon="7.74468">
        <ele>219.7</ele>
        <time>2020-06-27T15:04:57Z</time>
      </trkpt>
      <trkpt lat="49.02987" lon="7.74477">
        <ele>219.8</ele>
        <time>2020-06-27T15:04:58Z</time>
      </trkpt>
      <trkpt lat="49.02988" lon="7.74484">
        <ele>219.9</ele>
        <time>2020-06-27T15:04:59Z</time>
      </trkpt>
      <trkpt lat="49.0299" lon="7.74493">
        <ele>220</ele>
        <time>2020-06-27T15:05:00Z</time>
      </trkpt>
      <trkpt lat="49.02993" lon="7.74501">
        <ele>220.1</ele>
        <time>2020-06-27T15:05:01Z</time>
      </trkpt>
      <trkpt lat="49.02995" lon="7.74508">
        <ele>220.2</ele>
        <time>2020-06-27T15:05:02Z</time>
      </trkpt>
      <trkpt lat="49.02997" lon="7.74516">
        <ele>220.4</ele>
        <time>2020-06-27T15:05:03Z</time>
      </trkpt>
      <trkpt lat="49.02999" lon="7.74522">
        <ele>220.5</ele>
        <time>2020-06-27T15:05:04Z</time>
      </trkpt>
      <trkpt lat="49.03001" lon="7.7453">
        <ele>220.7</ele>
        <time>2020-06-27T15:05:05Z</time>
      </trkpt>
      <trkpt lat="49.03002" lon="7.74537">
        <ele>220.8</ele>
        <time>2020-06-27T15:05:06Z</time>
      </trkpt>
      <trkpt lat="49.03005" lon="7.74544">
        <ele>220.9</ele>
        <time>2020-06-27T15:05:07Z</time>
      </trkpt>
      <trkpt lat="49.03007" lon="7.74549">
        <ele>221</ele>
        <time>2020-06-27T15:05:08Z</time>
      </trkpt>
      <trkpt lat="49.0301" lon="7.74557">
        <ele>221.1</ele>
        <time>2020-06-27T15:05:09Z</time>
      </trkpt>
      <trkpt lat="49.03013" lon="7.74565">
        <ele>221.2</ele>
        <time>2020-06-27T15:05:10Z</time>
      </trkpt>
      <trkpt lat="49.03015" lon="7.74571">
        <ele>221.3</ele>
        <time>2020-06-27T15:05:11Z</time>
      </trkpt>
      <trkpt lat="49.03019" lon="7.74581">
        <ele>221.5</ele>
        <time>2020-06-27T15:05:12Z</time>
      </trkpt>
      <trkpt lat="49.0302" lon="7.74586">
        <ele>221.6</ele>
        <time>2020-06-27T15:05:13Z</time>
      </trkpt>
      <trkpt lat="49.03023" lon="7.74593">
        <ele>221.7</ele>
        <time>2020-06-27T15:05:14Z</time>
      </trkpt>
      <trkpt lat="49.03027" lon="7.74601">
        <ele>221.8</ele>
        <time>2020-06-27T15:05:15Z</time>
      </trkpt>
      <trkpt lat="49.03029" lon="7.74607">
        <ele>221.8</ele>
        <time>2020-06-27T15:05:16Z</time>
      </trkpt>
      <trkpt lat="49.03031" lon="7.74613">
        <ele>221.9</ele>
        <time>2020-06-27T15:05:17Z</time>
      </trkpt>
      <trkpt lat="49.03034" lon="7.74618">
        <ele>221.9</ele>
        <time>2020-06-27T15:05:18Z</time>
      </trkpt>
      <trkpt lat="49.03036" lon="7.74625">
        <ele>222</ele>
        <time>2020-06-27T15:05:19Z</time>
      </trkpt>
      <trkpt lat="49.03038" lon="7.7463">
        <ele>222</ele>
        <time>2020-06-27T15:05:20Z</time>
      </trkpt>
      <trkpt lat="49.0304" lon="7.74636">
        <ele>222</ele>
        <time>2020-06-27T15:05:21Z</time>
      </trkpt>
      <trkpt lat="49.03043" lon="7.74642">
        <ele>222.1</ele>
        <time>2020-06-27T15:05:22Z</time>
      </trkpt>
      <trkpt lat="49.03046" lon="7.74648">
        <ele>222.1</ele>
        <time>2020-06-27T15:05:23Z</time>
      </trkpt>
      <trkpt lat="49.03049" lon="7.74658">
        <ele>222.2</ele>
        <time>2020-06-27T15:05:24Z</time>
      </trkpt>
      <trkpt lat="49.03051" lon="7.74664">
        <ele>222.2</ele>
        <time>2020-06-27T15:05:25Z</time>
      </trkpt>
      <trkpt lat="49.03055" lon="7.74673">
        <ele>222.3</ele>
        <time>2020-06-27T15:05:26Z</time>
      </trkpt>
      <trkpt lat="49.03059" lon="7.7468">
        <ele>222.3</ele>
        <time>2020-06-27T15:05:27Z</time>
      </trkpt>
      <trkpt lat="49.03062" lon="7.74687">
        <ele>222.3</ele>
        <time>2020-06-27T15:05:28Z</time>
      </trkpt>
      <trkpt lat="49.03068" lon="7.74697">
        <ele>222.3</ele>
        <time>2020-06-27T15:05:29Z</time>
      </trkpt>
      <trkpt lat="49.03072" lon="7.74704">
        <ele>222.2</ele>
        <time>2020-06-27T15:05:30Z</time>
      </trkpt>
      <trkpt lat="49.03077" lon="7.74712">
        <ele>222.2</ele>
        <time>2020-06-27T15:05:31Z</time>
      </trkpt>
      <trkpt lat="49.03081" lon="7.74718">
        <ele>222.1</ele>
        <time>2020-06-27T15:05:32Z</time>
      </trkpt>
      <trkpt lat="49.03085" lon="7.74723">
        <ele>222.1</ele>
        <time>2020-06-27T15:05:33Z</time>
      </trkpt>
      <trkpt lat="49.0309" lon="7.7473">
        <ele>222</ele>
        <time>2020-06-27T15:05:34Z</time>
      </trkpt>
      <trkpt lat="49.03094" lon="7.74742">
        <ele>221.9</ele>
        <time>2020-06-27T15:05:35Z</time>
      </trkpt>
      <trkpt lat="49.03097" lon="7.74749">
        <ele>221.8</ele>
        <time>2020-06-27T15:05:36Z</time>
      </trkpt>
      <trkpt lat="49.03102" lon="7.7476">
        <ele>221.7</ele>
        <time>2020-06-27T15:05:37Z</time>
      </trkpt>
      <trkpt lat="49.03106" lon="7.74768">
        <ele>221.6</ele>
        <time>2020-06-27T15:05:38Z</time>
      </trkpt>
      <trkpt lat="49.03109" lon="7.74774">
        <ele>221.5</ele>
        <time>2020-06-27T15:05:39Z</time>
      </trkpt>
      <trkpt lat="49.03113" lon="7.74784">
        <ele>221.4</ele>
        <time>2020-06-27T15:05:40Z</time>
      </trkpt>
      <trkpt lat="49.03116" lon="7.74791">
        <ele>221.3</ele>
        <time>2020-06-27T15:05:41Z</time>
      </trkpt>
      <trkpt lat="49.0312" lon="7.74801">
        <ele>221.2</ele>
        <time>2020-06-27T15:05:42Z</time>
      </trkpt>
      <trkpt lat="49.03123" lon="7.74804">
        <ele>221.1</ele>
        <time>2020-06-27T15:05:43Z</time>
      </trkpt>
      <trkpt lat="49.03127" lon="7.74811">
        <ele>221</ele>
        <time>2020-06-27T15:05:44Z</time>
      </trkpt>
      <trkpt lat="49.03133" lon="7.74822">
        <ele>220.9</ele>
        <time>2020-06-27T15:05:45Z</time>
      </trkpt>
      <trkpt lat="49.03138" lon="7.74832">
        <ele>220.8</ele>
        <time>2020-06-27T15:05:46Z</time>
      </trkpt>
      <trkpt lat="49.03142" lon="7.74842">
        <ele>220.6</ele>
        <time>2020-06-27T15:05:47Z</time>
      </trkpt>
      <trkpt lat="49.03146" lon="7.74851">
        <ele>220.6</ele>
        <time>2020-06-27T15:05:48Z</time>
      </trkpt>
      <trkpt lat="49.03151" lon="7.74859">
        <ele>220.5</ele>
        <time>2020-06-27T15:05:49Z</time>
      </trkpt>
      <trkpt lat="49.03156" lon="7.74868">
        <ele>220.4</ele>
        <time>2020-06-27T15:05:50Z</time>
      </trkpt>
      <trkpt lat="49.03161" lon="7.74875">
        <ele>220.3</ele>
        <time>2020-06-27T15:05:51Z</time>
      </trkpt>
      <trkpt lat="49.03166" lon="7.74882">
        <ele>220.2</ele>
        <time>2020-06-27T15:05:52Z</time>
      </trkpt>
      <trkpt lat="49.03171" lon="7.74889">
        <ele>220.1</ele>
        <time>2020-06-27T15:05:53Z</time>
      </trkpt>
      <trkpt lat="49.03177" lon="7.74897">
        <ele>219.9</ele>
        <time>2020-06-27T15:05:54Z</time>
      </trkpt>
      <trkpt lat="49.0318" lon="7.74901">
        <ele>219.9</ele>
        <time>2020-06-27T15:05:55Z</time>
      </trkpt>
      <trkpt lat="49.03187" lon="7.74909">
        <ele>219.7</ele>
        <time>2020-06-27T15:05:56Z</time>
      </trkpt>
      <trkpt lat="49.03191" lon="7.74917">
        <ele>219.6</ele>
        <time>2020-06-27T15:05:57Z</time>
      </trkpt>
      <trkpt lat="49.03195" lon="7.74924">
        <ele>219.5</ele>
        <time>2020-06-27T15:05:58Z</time>
      </trkpt>
      <trkpt lat="49.03198" lon="7.74933">
        <ele>219.2</ele>
        <time>2020-06-27T15:05:59Z</time>
      </trkpt>
      <trkpt lat="49.03202" lon="7.74943">
        <ele>218.9</ele>
        <time>2020-06-27T15:06:00Z</time>
      </trkpt>
      <trkpt lat="49.03205" lon="7.74952">
        <ele>218.7</ele>
        <time>2020-06-27T15:06:01Z</time>
      </trkpt>
      <trkpt lat="49.03207" lon="7.74963">
        <ele>218.5</ele>
        <time>2020-06-27T15:06:02Z</time>
      </trkpt>
      <trkpt lat="49.03209" lon="7.74973">
        <ele>218.3</ele>
        <time>2020-06-27T15:06:03Z</time>
      </trkpt>
      <trkpt lat="49.03208" lon="7.74983">
        <ele>218.2</ele>
        <time>2020-06-27T15:06:04Z</time>
      </trkpt>
      <trkpt lat="49.03209" lon="7.74995">
        <ele>217.9</ele>
        <time>2020-06-27T15:06:05Z</time>
      </trkpt>
      <trkpt lat="49.0321" lon="7.75007">
        <ele>217.7</ele>
        <time>2020-06-27T15:06:06Z</time>
      </trkpt>
      <trkpt lat="49.03211" lon="7.75019">
        <ele>217.4</ele>
        <time>2020-06-27T15:06:07Z</time>
      </trkpt>
      <trkpt lat="49.03211" lon="7.75027">
        <ele>217.2</ele>
        <time>2020-06-27T15:06:08Z</time>
      </trkpt>
      <trkpt lat="49.03211" lon="7.75037">
        <ele>217</ele>
        <time>2020-06-27T15:06:09Z</time>
      </trkpt>
      <trkpt lat="49.03212" lon="7.75047">
        <ele>216.8</ele>
        <time>2020-06-27T15:06:10Z</time>
      </trkpt>
      <trkpt lat="49.03213" lon="7.75055">
        <ele>216.6</ele>
        <time>2020-06-27T15:06:11Z</time>
      </trkpt>
      <trkpt lat="49.03216" lon="7.75064">
        <ele>216.4</ele>
        <time>2020-06-27T15:06:12Z</time>
      </trkpt>
      <trkpt lat="49.03217" lon="7.75075">
        <ele>216.2</ele>
        <time>2020-06-27T15:06:13Z</time>
      </trkpt>
      <trkpt lat="49.03218" lon="7.75086">
        <ele>215.9</ele>
        <time>2020-06-27T15:06:14Z</time>
      </trkpt>
      <trkpt lat="49.03219" lon="7.75096">
        <ele>215.6</ele>
        <time>2020-06-27T15:06:15Z</time>
      </trkpt>
      <trkpt lat="49.03218" lon="7.75107">
        <ele>215.4</ele>
        <time>2020-06-27T15:06:16Z</time>
      </trkpt>
      <trkpt lat="49.03219" lon="7.75119">
        <ele>215.1</ele>
        <time>2020-06-27T15:06:17Z</time>
      </trkpt>
      <trkpt lat="49.0322" lon="7.75132">
        <ele>214.8</ele>
        <time>2020-06-27T15:06:18Z</time>
      </trkpt>
      <trkpt lat="49.03222" lon="7.75142">
        <ele>214.6</ele>
        <time>2020-06-27T15:06:19Z</time>
      </trkpt>
      <trkpt lat="49.03225" lon="7.75152">
        <ele>214.4</ele>
        <time>2020-06-27T15:06:20Z</time>
      </trkpt>
      <trkpt lat="49.03227" lon="7.75162">
        <ele>214.2</ele>
        <time>2020-06-27T15:06:21Z</time>
      </trkpt>
      <trkpt lat="49.03229" lon="7.75175">
        <ele>213.9</ele>
        <time>2020-06-27T15:06:22Z</time>
      </trkpt>
      <trkpt lat="49.0323" lon="7.75185">
        <ele>213.7</ele>
        <time>2020-06-27T15:06:23Z</time>
      </trkpt>
      <trkpt lat="49.0323" lon="7.75197">
        <ele>213.4</ele>
        <time>2020-06-27T15:06:24Z</time>
      </trkpt>
      <trkpt lat="49.03231" lon="7.75212">
        <ele>213.1</ele>
        <time>2020-06-27T15:06:25Z</time>
      </trkpt>
      <trkpt lat="49.03232" lon="7.75223">
        <ele>212.9</ele>
        <time>2020-06-27T15:06:26Z</time>
      </trkpt>
      <trkpt lat="49.03233" lon="7.75235">
        <ele>212.6</ele>
        <time>2020-06-27T15:06:27Z</time>
      </trkpt>
      <trkpt lat="49.03234" lon="7.75247">
        <ele>212.3</ele>
        <time>2020-06-27T15:06:28Z</time>
      </trkpt>
      <trkpt lat="49.03235" lon="7.75257">
        <ele>212.1</ele>
        <time>2020-06-27T15:06:29Z</time>
      </trkpt>
      <trkpt lat="49.03235" lon="7.75268">
        <ele>211.9</ele>
        <time>2020-06-27T15:06:30Z</time>
      </trkpt>
      <trkpt lat="49.03235" lon="7.75279">
        <ele>211.7</ele>
        <time>2020-06-27T15:06:31Z</time>
      </trkpt>
      <trkpt lat="49.03235" lon="7.75291">
        <ele>211.5</ele>
        <time>2020-06-27T15:06:32Z</time>
      </trkpt>
      <trkpt lat="49.03235" lon="7.75302">
        <ele>211.2</ele>
        <time>2020-06-27T15:06:33Z</time>
      </trkpt>
      <trkpt lat="49.03234" lon="7.75315">
        <ele>211</ele>
        <time>2020-06-27T15:06:34Z</time>
      </trkpt>
      <trkpt lat="49.03232" lon="7.75327">
        <ele>210.8</ele>
        <time>2020-06-27T15:06:35Z</time>
      </trkpt>
      <trkpt lat="49.03229" lon="7.75338">
        <ele>210.6</ele>
        <time>2020-06-27T15:06:36Z</time>
      </trkpt>
      <trkpt lat="49.03226" lon="7.7535">
        <ele>210.4</ele>
        <time>2020-06-27T15:06:37Z</time>
      </trkpt>
      <trkpt lat="49.03223" lon="7.75362">
        <ele>210.2</ele>
        <time>2020-06-27T15:06:38Z</time>
      </trkpt>
      <trkpt lat="49.0322" lon="7.75374">
        <ele>210.1</ele>
        <time>2020-06-27T15:06:39Z</time>
      </trkpt>
      <trkpt lat="49.03217" lon="7.75386">
        <ele>210</ele>
        <time>2020-06-27T15:06:40Z</time>
      </trkpt>
      <trkpt lat="49.03215" lon="7.75398">
        <ele>209.9</ele>
        <time>2020-06-27T15:06:41Z</time>
      </trkpt>
      <trkpt lat="49.03212" lon="7.7541">
        <ele>209.8</ele>
        <time>2020-06-27T15:06:42Z</time>
      </trkpt>
      <trkpt lat="49.03209" lon="7.75422">
        <ele>209.7</ele>
        <time>2020-06-27T15:06:43Z</time>
      </trkpt>
      <trkpt lat="49.03207" lon="7.75433">
        <ele>209.6</ele>
        <time>2020-06-27T15:06:44Z</time>
      </trkpt>
      <trkpt lat="49.03204" lon="7.75444">
        <ele>209.4</ele>
        <time>2020-06-27T15:06:45Z</time>
      </trkpt>
      <trkpt lat="49.032" lon="7.75454">
        <ele>209.3</ele>
        <time>2020-06-27T15:06:46Z</time>
      </trkpt>
      <trkpt lat="49.03198" lon="7.75466">
        <ele>209.2</ele>
        <time>2020-06-27T15:06:47Z</time>
      </trkpt>
      <trkpt lat="49.03196" lon="7.75477">
        <ele>209.1</ele>
        <time>2020-06-27T15:06:48Z</time>
      </trkpt>
      <trkpt lat="49.03193" lon="7.75488">
        <ele>209</ele>
        <time>2020-06-27T15:06:49Z</time>
      </trkpt>
      <trkpt lat="49.03191" lon="7.75498">
        <ele>209</ele>
        <time>2020-06-27T15:06:50Z</time>
      </trkpt>
      <trkpt lat="49.03189" lon="7.75509">
        <ele>208.9</ele>
        <time>2020-06-27T15:06:51Z</time>
      </trkpt>
      <trkpt lat="49.03187" lon="7.75519">
        <ele>208.9</ele>
        <time>2020-06-27T15:06:52Z</time>
      </trkpt>
      <trkpt lat="49.03185" lon="7.75529">
        <ele>208.8</ele>
        <time>2020-06-27T15:06:53Z</time>
      </trkpt>
      <trkpt lat="49.03182" lon="7.75541">
        <ele>208.8</ele>
        <time>2020-06-27T15:06:54Z</time>
      </trkpt>
      <trkpt lat="49.03182" lon="7.75552">
        <ele>208.7</ele>
        <time>2020-06-27T15:06:55Z</time>
      </trkpt>
      <trkpt lat="49.03181" lon="7.75562">
        <ele>208.7</ele>
        <time>2020-06-27T15:06:56Z</time>
      </trkpt>
      <trkpt lat="49.03179" lon="7.75573">
        <ele>208.6</ele>
        <time>2020-06-27T15:06:57Z</time>
      </trkpt>
      <trkpt lat="49.03178" lon="7.75583">
        <ele>208.6</ele>
        <time>2020-06-27T15:06:58Z</time>
      </trkpt>
      <trkpt lat="49.03177" lon="7.75593">
        <ele>208.6</ele>
        <time>2020-06-27T15:06:59Z</time>
      </trkpt>
      <trkpt lat="49.03175" lon="7.75603">
        <ele>208.5</ele>
        <time>2020-06-27T15:07:00Z</time>
      </trkpt>
      <trkpt lat="49.03173" lon="7.75613">
        <ele>208.5</ele>
        <time>2020-06-27T15:07:01Z</time>
      </trkpt>
      <trkpt lat="49.03171" lon="7.75622">
        <ele>208.4</ele>
        <time>2020-06-27T15:07:02Z</time>
      </trkpt>
      <trkpt lat="49.03169" lon="7.75632">
        <ele>208.3</ele>
        <time>2020-06-27T15:07:03Z</time>
      </trkpt>
      <trkpt lat="49.03166" lon="7.75641">
        <ele>208.1</ele>
        <time>2020-06-27T15:07:04Z</time>
      </trkpt>
      <trkpt lat="49.03164" lon="7.75652">
        <ele>207.9</ele>
        <time>2020-06-27T15:07:05Z</time>
      </trkpt>
      <trkpt lat="49.03163" lon="7.75663">
        <ele>207.8</ele>
        <time>2020-06-27T15:07:06Z</time>
      </trkpt>
      <trkpt lat="49.03162" lon="7.75674">
        <ele>207.6</ele>
        <time>2020-06-27T15:07:07Z</time>
      </trkpt>
      <trkpt lat="49.0316" lon="7.75685">
        <ele>207.5</ele>
        <time>2020-06-27T15:07:08Z</time>
      </trkpt>
      <trkpt lat="49.03158" lon="7.75697">
        <ele>207.4</ele>
        <time>2020-06-27T15:07:09Z</time>
      </trkpt>
      <trkpt lat="49.03156" lon="7.75709">
        <ele>207.3</ele>
        <time>2020-06-27T15:07:10Z</time>
      </trkpt>
      <trkpt lat="49.03154" lon="7.7572">
        <ele>207.2</ele>
        <time>2020-06-27T15:07:11Z</time>
      </trkpt>
      <trkpt lat="49.03153" lon="7.75731">
        <ele>207.2</ele>
        <time>2020-06-27T15:07:12Z</time>
      </trkpt>
      <trkpt lat="49.03151" lon="7.75742">
        <ele>207.1</ele>
        <time>2020-06-27T15:07:13Z</time>
      </trkpt>
      <trkpt lat="49.0315" lon="7.75753">
        <ele>207</ele>
        <time>2020-06-27T15:07:14Z</time>
      </trkpt>
      <trkpt lat="49.0315" lon="7.75764">
        <ele>206.8</ele>
        <time>2020-06-27T15:07:15Z</time>
      </trkpt>
      <trkpt lat="49.03149" lon="7.75776">
        <ele>206.6</ele>
        <time>2020-06-27T15:07:16Z</time>
      </trkpt>
      <trkpt lat="49.0315" lon="7.75788">
        <ele>206.4</ele>
        <time>2020-06-27T15:07:17Z</time>
      </trkpt>
      <trkpt lat="49.03149" lon="7.75801">
        <ele>206.1</ele>
        <time>2020-06-27T15:07:18Z</time>
      </trkpt>
      <trkpt lat="49.03149" lon="7.75815">
        <ele>206</ele>
        <time>2020-06-27T15:07:19Z</time>
      </trkpt>
      <trkpt lat="49.03148" lon="7.75828">
        <ele>205.8</ele>
        <time>2020-06-27T15:07:20Z</time>
      </trkpt>
      <trkpt lat="49.03148" lon="7.75842">
        <ele>205.7</ele>
        <time>2020-06-27T15:07:21Z</time>
      </trkpt>
      <trkpt lat="49.03148" lon="7.75855">
        <ele>205.6</ele>
        <time>2020-06-27T15:07:22Z</time>
      </trkpt>
      <trkpt lat="49.03147" lon="7.75868">
        <ele>205.5</ele>
        <time>2020-06-27T15:07:23Z</time>
      </trkpt>
      <trkpt lat="49.03147" lon="7.75881">
        <ele>205.5</ele>
        <time>2020-06-27T15:07:24Z</time>
      </trkpt>
      <trkpt lat="49.03147" lon="7.75894">
        <ele>205.4</ele>
        <time>2020-06-27T15:07:25Z</time>
      </trkpt>
      <trkpt lat="49.03148" lon="7.75906">
        <ele>205.3</ele>
        <time>2020-06-27T15:07:26Z</time>
      </trkpt>
      <trkpt lat="49.03148" lon="7.75917">
        <ele>205.3</ele>
        <time>2020-06-27T15:07:27Z</time>
      </trkpt>
      <trkpt lat="49.03148" lon="7.75928">
        <ele>205.4</ele>
        <time>2020-06-27T15:07:28Z</time>
      </trkpt>
      <trkpt lat="49.03146" lon="7.75939">
        <ele>205.4</ele>
        <time>2020-06-27T15:07:29Z</time>
      </trkpt>
      <trkpt lat="49.03147" lon="7.7595">
        <ele>205.4</ele>
        <time>2020-06-27T15:07:30Z</time>
      </trkpt>
      <trkpt lat="49.03148" lon="7.7596">
        <ele>205.5</ele>
        <time>2020-06-27T15:07:31Z</time>
      </trkpt>
      <trkpt lat="49.03148" lon="7.75971">
        <ele>205.6</ele>
        <time>2020-06-27T15:07:32Z</time>
      </trkpt>
      <trkpt lat="49.03147" lon="7.75981">
        <ele>205.7</ele>
        <time>2020-06-27T15:07:33Z</time>
      </trkpt>
      <trkpt lat="49.03147" lon="7.75992">
        <ele>205.8</ele>
        <time>2020-06-27T15:07:34Z</time>
      </trkpt>
      <trkpt lat="49.03147" lon="7.76002">
        <ele>205.9</ele>
        <time>2020-06-27T15:07:35Z</time>
      </trkpt>
      <trkpt lat="49.03147" lon="7.76012">
        <ele>206</ele>
        <time>2020-06-27T15:07:36Z</time>
      </trkpt>
      <trkpt lat="49.03147" lon="7.76021">
        <ele>206.1</ele>
        <time>2020-06-27T15:07:37Z</time>
      </trkpt>
      <trkpt lat="49.03147" lon="7.7603">
        <ele>206.2</ele>
        <time>2020-06-27T15:07:38Z</time>
      </trkpt>
      <trkpt lat="49.03147" lon="7.7604">
        <ele>206.3</ele>
        <time>2020-06-27T15:07:39Z</time>
      </trkpt>
      <trkpt lat="49.03147" lon="7.7605">
        <ele>206.4</ele>
        <time>2020-06-27T15:07:40Z</time>
      </trkpt>
      <trkpt lat="49.03148" lon="7.7606">
        <ele>206.5</ele>
        <time>2020-06-27T15:07:41Z</time>
      </trkpt>
      <trkpt lat="49.03147" lon="7.76069">
        <ele>206.6</ele>
        <time>2020-06-27T15:07:42Z</time>
      </trkpt>
      <trkpt lat="49.03146" lon="7.76079">
        <ele>206.8</ele>
        <time>2020-06-27T15:07:43Z</time>
      </trkpt>
      <trkpt lat="49.03144" lon="7.7609">
        <ele>206.9</ele>
        <time>2020-06-27T15:07:44Z</time>
      </trkpt>
      <trkpt lat="49.03143" lon="7.76099">
        <ele>207</ele>
        <time>2020-06-27T15:07:45Z</time>
      </trkpt>
      <trkpt lat="49.03142" lon="7.76108">
        <ele>207.1</ele>
        <time>2020-06-27T15:07:46Z</time>
      </trkpt>
      <trkpt lat="49.03141" lon="7.76116">
        <ele>207.1</ele>
        <time>2020-06-27T15:07:47Z</time>
      </trkpt>
      <trkpt lat="49.0314" lon="7.76124">
        <ele>207.1</ele>
        <time>2020-06-27T15:07:48Z</time>
      </trkpt>
      <trkpt lat="49.03138" lon="7.76133">
        <ele>207.1</ele>
        <time>2020-06-27T15:07:49Z</time>
      </trkpt>
      <trkpt lat="49.03137" lon="7.76142">
        <ele>207</ele>
        <time>2020-06-27T15:07:50Z</time>
      </trkpt>
      <trkpt lat="49.03134" lon="7.76152">
        <ele>207</ele>
        <time>2020-06-27T15:07:51Z</time>
      </trkpt>
      <trkpt lat="49.03136" lon="7.76162">
        <ele>207</ele>
        <time>2020-06-27T15:07:52Z</time>
      </trkpt>
      <trkpt lat="49.03135" lon="7.76172">
        <ele>207</ele>
        <time>2020-06-27T15:07:53Z</time>
      </trkpt>
      <trkpt lat="49.03133" lon="7.76181">
        <ele>207</ele>
        <time>2020-06-27T15:07:54Z</time>
      </trkpt>
      <trkpt lat="49.03131" lon="7.76189">
        <ele>207</ele>
        <time>2020-06-27T15:07:55Z</time>
      </trkpt>
      <trkpt lat="49.0313" lon="7.76198">
        <ele>207.1</ele>
        <time>2020-06-27T15:07:56Z</time>
      </trkpt>
      <trkpt lat="49.03128" lon="7.76206">
        <ele>207.1</ele>
        <time>2020-06-27T15:07:57Z</time>
      </trkpt>
      <trkpt lat="49.03126" lon="7.76215">
        <ele>207.1</ele>
        <time>2020-06-27T15:07:58Z</time>
      </trkpt>
      <trkpt lat="49.03123" lon="7.76223">
        <ele>207.2</ele>
        <time>2020-06-27T15:07:59Z</time>
      </trkpt>
      <trkpt lat="49.03121" lon="7.76232">
        <ele>207.2</ele>
        <time>2020-06-27T15:08:00Z</time>
      </trkpt>
      <trkpt lat="49.03117" lon="7.76239">
        <ele>207.3</ele>
        <time>2020-06-27T15:08:01Z</time>
      </trkpt>
      <trkpt lat="49.03113" lon="7.76246">
        <ele>207.3</ele>
        <time>2020-06-27T15:08:02Z</time>
      </trkpt>
      <trkpt lat="49.03112" lon="7.76255">
        <ele>207.4</ele>
        <time>2020-06-27T15:08:03Z</time>
      </trkpt>
      <trkpt lat="49.0311" lon="7.76264">
        <ele>207.4</ele>
        <time>2020-06-27T15:08:04Z</time>
      </trkpt>
      <trkpt lat="49.03108" lon="7.76272">
        <ele>207.5</ele>
        <time>2020-06-27T15:08:05Z</time>
      </trkpt>
      <trkpt lat="49.03105" lon="7.7628">
        <ele>207.5</ele>
        <time>2020-06-27T15:08:06Z</time>
      </trkpt>
      <trkpt lat="49.03102" lon="7.76289">
        <ele>207.4</ele>
        <time>2020-06-27T15:08:07Z</time>
      </trkpt>
      <trkpt lat="49.03099" lon="7.76297">
        <ele>207.3</ele>
        <time>2020-06-27T15:08:08Z</time>
      </trkpt>
      <trkpt lat="49.03095" lon="7.76304">
        <ele>207.2</ele>
        <time>2020-06-27T15:08:09Z</time>
      </trkpt>
      <trkpt lat="49.03091" lon="7.76312">
        <ele>207.2</ele>
        <time>2020-06-27T15:08:10Z</time>
      </trkpt>
      <trkpt lat="49.03088" lon="7.76319">
        <ele>207.2</ele>
        <time>2020-06-27T15:08:11Z</time>
      </trkpt>
      <trkpt lat="49.03085" lon="7.76327">
        <ele>207.2</ele>
        <time>2020-06-27T15:08:12Z</time>
      </trkpt>
      <trkpt lat="49.03081" lon="7.76335">
        <ele>207.2</ele>
        <time>2020-06-27T15:08:13Z</time>
      </trkpt>
      <trkpt lat="49.03078" lon="7.76343">
        <ele>207.1</ele>
        <time>2020-06-27T15:08:14Z</time>
      </trkpt>
      <trkpt lat="49.03076" lon="7.76353">
        <ele>207.1</ele>
        <time>2020-06-27T15:08:15Z</time>
      </trkpt>
      <trkpt lat="49.03072" lon="7.76361">
        <ele>207</ele>
        <time>2020-06-27T15:08:16Z</time>
      </trkpt>
      <trkpt lat="49.03069" lon="7.7637">
        <ele>206.9</ele>
        <time>2020-06-27T15:08:17Z</time>
      </trkpt>
      <trkpt lat="49.03065" lon="7.76378">
        <ele>206.8</ele>
        <time>2020-06-27T15:08:18Z</time>
      </trkpt>
      <trkpt lat="49.03062" lon="7.76386">
        <ele>206.7</ele>
        <time>2020-06-27T15:08:19Z</time>
      </trkpt>
      <trkpt lat="49.03059" lon="7.76395">
        <ele>206.7</ele>
        <time>2020-06-27T15:08:20Z</time>
      </trkpt>
      <trkpt lat="49.03055" lon="7.76403">
        <ele>206.7</ele>
        <time>2020-06-27T15:08:21Z</time>
      </trkpt>
      <trkpt lat="49.03052" lon="7.76411">
        <ele>206.6</ele>
        <time>2020-06-27T15:08:22Z</time>
      </trkpt>
      <trkpt lat="49.03047" lon="7.76418">
        <ele>206.6</ele>
        <time>2020-06-27T15:08:23Z</time>
      </trkpt>
      <trkpt lat="49.03044" lon="7.76425">
        <ele>206.6</ele>
        <time>2020-06-27T15:08:24Z</time>
      </trkpt>
      <trkpt lat="49.03039" lon="7.76432">
        <ele>206.6</ele>
        <time>2020-06-27T15:08:25Z</time>
      </trkpt>
      <trkpt lat="49.03035" lon="7.7644">
        <ele>206.5</ele>
        <time>2020-06-27T15:08:26Z</time>
      </trkpt>
      <trkpt lat="49.03032" lon="7.76448">
        <ele>206.4</ele>
        <time>2020-06-27T15:08:27Z</time>
      </trkpt>
      <trkpt lat="49.03027" lon="7.76456">
        <ele>206.3</ele>
        <time>2020-06-27T15:08:28Z</time>
      </trkpt>
      <trkpt lat="49.03023" lon="7.76464">
        <ele>206.2</ele>
        <time>2020-06-27T15:08:29Z</time>
      </trkpt>
      <trkpt lat="49.03019" lon="7.76473">
        <ele>206.1</ele>
        <time>2020-06-27T15:08:30Z</time>
      </trkpt>
      <trkpt lat="49.03015" lon="7.76481">
        <ele>206</ele>
        <time>2020-06-27T15:08:31Z</time>
      </trkpt>
      <trkpt lat="49.03011" lon="7.7649">
        <ele>205.9</ele>
        <time>2020-06-27T15:08:32Z</time>
      </trkpt>
      <trkpt lat="49.03007" lon="7.76498">
        <ele>205.8</ele>
        <time>2020-06-27T15:08:33Z</time>
      </trkpt>
      <trkpt lat="49.03003" lon="7.76506">
        <ele>205.7</ele>
        <time>2020-06-27T15:08:34Z</time>
      </trkpt>
      <trkpt lat="49.03" lon="7.76515">
        <ele>205.7</ele>
        <time>2020-06-27T15:08:35Z</time>
      </trkpt>
      <trkpt lat="49.02996" lon="7.76524">
        <ele>205.6</ele>
        <time>2020-06-27T15:08:36Z</time>
      </trkpt>
      <trkpt lat="49.02993" lon="7.76532">
        <ele>205.5</ele>
        <time>2020-06-27T15:08:37Z</time>
      </trkpt>
      <trkpt lat="49.0299" lon="7.76539">
        <ele>205.4</ele>
        <time>2020-06-27T15:08:38Z</time>
      </trkpt>
      <trkpt lat="49.02986" lon="7.76547">
        <ele>205.3</ele>
        <time>2020-06-27T15:08:39Z</time>
      </trkpt>
      <trkpt lat="49.02983" lon="7.76556">
        <ele>205.2</ele>
        <time>2020-06-27T15:08:40Z</time>
      </trkpt>
      <trkpt lat="49.0298" lon="7.76564">
        <ele>205.1</ele>
        <time>2020-06-27T15:08:41Z</time>
      </trkpt>
      <trkpt lat="49.02977" lon="7.76573">
        <ele>205.1</ele>
        <time>2020-06-27T15:08:42Z</time>
      </trkpt>
      <trkpt lat="49.02973" lon="7.76579">
        <ele>205</ele>
        <time>2020-06-27T15:08:43Z</time>
      </trkpt>
      <trkpt lat="49.02969" lon="7.76587">
        <ele>205</ele>
        <time>2020-06-27T15:08:44Z</time>
      </trkpt>
      <trkpt lat="49.02965" lon="7.76594">
        <ele>204.9</ele>
        <time>2020-06-27T15:08:45Z</time>
      </trkpt>
      <trkpt lat="49.02961" lon="7.76602">
        <ele>204.8</ele>
        <time>2020-06-27T15:08:46Z</time>
      </trkpt>
      <trkpt lat="49.02957" lon="7.76611">
        <ele>204.7</ele>
        <time>2020-06-27T15:08:47Z</time>
      </trkpt>
      <trkpt lat="49.02952" lon="7.76619">
        <ele>204.6</ele>
        <time>2020-06-27T15:08:48Z</time>
      </trkpt>
      <trkpt lat="49.02947" lon="7.76627">
        <ele>204.5</ele>
        <time>2020-06-27T15:08:49Z</time>
      </trkpt>
      <trkpt lat="49.0294" lon="7.76633">
        <ele>204.3</ele>
        <time>2020-06-27T15:08:50Z</time>
      </trkpt>
      <trkpt lat="49.02933" lon="7.76636">
        <ele>204.2</ele>
        <time>2020-06-27T15:08:51Z</time>
      </trkpt>
      <trkpt lat="49.02926" lon="7.76639">
        <ele>204.1</ele>
        <time>2020-06-27T15:08:52Z</time>
      </trkpt>
      <trkpt lat="49.02918" lon="7.76641">
        <ele>203.9</ele>
        <time>2020-06-27T15:08:53Z</time>
      </trkpt>
      <trkpt lat="49.02912" lon="7.76644">
        <ele>203.9</ele>
        <time>2020-06-27T15:08:54Z</time>
      </trkpt>
      <trkpt lat="49.02905" lon="7.76649">
        <ele>203.8</ele>
        <time>2020-06-27T15:08:55Z</time>
      </trkpt>
      <trkpt lat="49.02899" lon="7.76652">
        <ele>203.7</ele>
        <time>2020-06-27T15:08:56Z</time>
      </trkpt>
      <trkpt lat="49.02892" lon="7.76654">
        <ele>203.6</ele>
        <time>2020-06-27T15:08:57Z</time>
      </trkpt>
      <trkpt lat="49.02885" lon="7.76658">
        <ele>203.5</ele>
        <time>2020-06-27T15:08:58Z</time>
      </trkpt>
      <trkpt lat="49.0288" lon="7.76664">
        <ele>203.4</ele>
        <time>2020-06-27T15:08:59Z</time>
      </trkpt>
      <trkpt lat="49.02873" lon="7.76669">
        <ele>203.3</ele>
        <time>2020-06-27T15:09:00Z</time>
      </trkpt>
      <trkpt lat="49.02866" lon="7.76673">
        <ele>203.2</ele>
        <time>2020-06-27T15:09:01Z</time>
      </trkpt>
      <trkpt lat="49.0286" lon="7.76679">
        <ele>203</ele>
        <time>2020-06-27T15:09:02Z</time>
      </trkpt>
      <trkpt lat="49.02854" lon="7.76685">
        <ele>203</ele>
        <time>2020-06-27T15:09:03Z</time>
      </trkpt>
      <trkpt lat="49.02848" lon="7.76691">
        <ele>202.9</ele>
        <time>2020-06-27T15:09:04Z</time>
      </trkpt>
      <trkpt lat="49.02842" lon="7.76697">
        <ele>202.9</ele>
        <time>2020-06-27T15:09:05Z</time>
      </trkpt>
      <trkpt lat="49.02837" lon="7.76702">
        <ele>202.9</ele>
        <time>2020-06-27T15:09:06Z</time>
      </trkpt>
      <trkpt lat="49.02831" lon="7.76708">
        <ele>202.8</ele>
        <time>2020-06-27T15:09:07Z</time>
      </trkpt>
      <trkpt lat="49.02826" lon="7.76713">
        <ele>202.8</ele>
        <time>2020-06-27T15:09:08Z</time>
      </trkpt>
      <trkpt lat="49.02821" lon="7.76719">
        <ele>202.8</ele>
        <time>2020-06-27T15:09:09Z</time>
      </trkpt>
      <trkpt lat="49.02816" lon="7.76725">
        <ele>202.8</ele>
        <time>2020-06-27T15:09:10Z</time>
      </trkpt>
      <trkpt lat="49.02811" lon="7.76732">
        <ele>202.7</ele>
        <time>2020-06-27T15:09:11Z</time>
      </trkpt>
      <trkpt lat="49.02806" lon="7.76738">
        <ele>202.7</ele>
        <time>2020-06-27T15:09:12Z</time>
      </trkpt>
      <trkpt lat="49.02801" lon="7.76744">
        <ele>202.6</ele>
        <time>2020-06-27T15:09:13Z</time>
      </trkpt>
      <trkpt lat="49.02796" lon="7.7675">
        <ele>202.5</ele>
        <time>2020-06-27T15:09:14Z</time>
      </trkpt>
      <trkpt lat="49.02791" lon="7.76756">
        <ele>202.4</ele>
        <time>2020-06-27T15:09:15Z</time>
      </trkpt>
      <trkpt lat="49.02786" lon="7.76762">
        <ele>202.4</ele>
        <time>2020-06-27T15:09:16Z</time>
      </trkpt>
      <trkpt lat="49.02781" lon="7.76768">
        <ele>202.3</ele>
        <time>2020-06-27T15:09:17Z</time>
      </trkpt>
      <trkpt lat="49.02777" lon="7.76776">
        <ele>202.3</ele>
        <time>2020-06-27T15:09:18Z</time>
      </trkpt>
      <trkpt lat="49.02773" lon="7.76784">
        <ele>202.2</ele>
        <time>2020-06-27T15:09:19Z</time>
      </trkpt>
      <trkpt lat="49.02769" lon="7.76791">
        <ele>202.2</ele>
        <time>2020-06-27T15:09:20Z</time>
      </trkpt>
      <trkpt lat="49.02765" lon="7.76796">
        <ele>202.2</ele>
        <time>2020-06-27T15:09:21Z</time>
      </trkpt>
      <trkpt lat="49.0276" lon="7.76802">
        <ele>202.1</ele>
        <time>2020-06-27T15:09:22Z</time>
      </trkpt>
      <trkpt lat="49.02757" lon="7.76809">
        <ele>202.1</ele>
        <time>2020-06-27T15:09:23Z</time>
      </trkpt>
      <trkpt lat="49.02753" lon="7.76816">
        <ele>202</ele>
        <time>2020-06-27T15:09:24Z</time>
      </trkpt>
      <trkpt lat="49.02749" lon="7.76823">
        <ele>201.9</ele>
        <time>2020-06-27T15:09:25Z</time>
      </trkpt>
      <trkpt lat="49.02745" lon="7.76828">
        <ele>201.8</ele>
        <time>2020-06-27T15:09:26Z</time>
      </trkpt>
      <trkpt lat="49.02741" lon="7.76832">
        <ele>201.8</ele>
        <time>2020-06-27T15:09:27Z</time>
      </trkpt>
      <trkpt lat="49.02736" lon="7.76839">
        <ele>201.8</ele>
        <time>2020-06-27T15:09:28Z</time>
      </trkpt>
      <trkpt lat="49.02731" lon="7.76845">
        <ele>201.7</ele>
        <time>2020-06-27T15:09:29Z</time>
      </trkpt>
      <trkpt lat="49.02727" lon="7.76853">
        <ele>201.7</ele>
        <time>2020-06-27T15:09:30Z</time>
      </trkpt>
      <trkpt lat="49.02723" lon="7.7686">
        <ele>201.7</ele>
        <time>2020-06-27T15:09:31Z</time>
      </trkpt>
      <trkpt lat="49.02718" lon="7.76868">
        <ele>201.7</ele>
        <time>2020-06-27T15:09:32Z</time>
      </trkpt>
      <trkpt lat="49.02713" lon="7.76876">
        <ele>201.7</ele>
        <time>2020-06-27T15:09:33Z</time>
      </trkpt>
      <trkpt lat="49.0271" lon="7.76884">
        <ele>201.6</ele>
        <time>2020-06-27T15:09:34Z</time>
      </trkpt>
      <trkpt lat="49.02705" lon="7.76891">
        <ele>201.6</ele>
        <time>2020-06-27T15:09:35Z</time>
      </trkpt>
      <trkpt lat="49.02701" lon="7.76899">
        <ele>201.6</ele>
        <time>2020-06-27T15:09:36Z</time>
      </trkpt>
      <trkpt lat="49.02697" lon="7.76908">
        <ele>201.5</ele>
        <time>2020-06-27T15:09:37Z</time>
      </trkpt>
      <trkpt lat="49.02693" lon="7.76915">
        <ele>201.5</ele>
        <time>2020-06-27T15:09:38Z</time>
      </trkpt>
      <trkpt lat="49.02689" lon="7.76923">
        <ele>201.5</ele>
        <time>2020-06-27T15:09:39Z</time>
      </trkpt>
      <trkpt lat="49.02684" lon="7.7693">
        <ele>201.5</ele>
        <time>2020-06-27T15:09:40Z</time>
      </trkpt>
      <trkpt lat="49.02678" lon="7.76936">
        <ele>201.5</ele>
        <time>2020-06-27T15:09:41Z</time>
      </trkpt>
      <trkpt lat="49.02673" lon="7.76942">
        <ele>201.5</ele>
        <time>2020-06-27T15:09:42Z</time>
      </trkpt>
      <trkpt lat="49.02667" lon="7.76947">
        <ele>201.6</ele>
        <time>2020-06-27T15:09:43Z</time>
      </trkpt>
      <trkpt lat="49.02662" lon="7.76953">
        <ele>201.6</ele>
        <time>2020-06-27T15:09:44Z</time>
      </trkpt>
      <trkpt lat="49.02656" lon="7.7696">
        <ele>201.6</ele>
        <time>2020-06-27T15:09:45Z</time>
      </trkpt>
      <trkpt lat="49.02651" lon="7.76965">
        <ele>201.7</ele>
        <time>2020-06-27T15:09:46Z</time>
      </trkpt>
      <trkpt lat="49.02646" lon="7.76971">
        <ele>201.7</ele>
        <time>2020-06-27T15:09:47Z</time>
      </trkpt>
      <trkpt lat="49.02641" lon="7.76975">
        <ele>201.8</ele>
        <time>2020-06-27T15:09:48Z</time>
      </trkpt>
      <trkpt lat="49.02637" lon="7.7698">
        <ele>201.9</ele>
        <time>2020-06-27T15:09:49Z</time>
      </trkpt>
      <trkpt lat="49.02633" lon="7.76986">
        <ele>202</ele>
        <time>2020-06-27T15:09:50Z</time>
      </trkpt>
      <trkpt lat="49.02628" lon="7.76991">
        <ele>202</ele>
        <time>2020-06-27T15:09:51Z</time>
      </trkpt>
      <trkpt lat="49.02624" lon="7.76998">
        <ele>202.1</ele>
        <time>2020-06-27T15:09:52Z</time>
      </trkpt>
      <trkpt lat="49.0262" lon="7.77005">
        <ele>202.1</ele>
        <time>2020-06-27T15:09:53Z</time>
      </trkpt>
      <trkpt lat="49.02615" lon="7.77011">
        <ele>202.2</ele>
        <time>2020-06-27T15:09:54Z</time>
      </trkpt>
      <trkpt lat="49.02611" lon="7.77017">
        <ele>202.2</ele>
        <time>2020-06-27T15:09:55Z</time>
      </trkpt>
      <trkpt lat="49.02606" lon="7.77024">
        <ele>202.2</ele>
        <time>2020-06-27T15:09:56Z</time>
      </trkpt>
      <trkpt lat="49.02602" lon="7.7703">
        <ele>202.3</ele>
        <time>2020-06-27T15:09:57Z</time>
      </trkpt>
      <trkpt lat="49.02597" lon="7.77037">
        <ele>202.2</ele>
        <time>2020-06-27T15:09:58Z</time>
      </trkpt>
      <trkpt lat="49.02592" lon="7.77042">
        <ele>202.2</ele>
        <time>2020-06-27T15:09:59Z</time>
      </trkpt>
      <trkpt lat="49.02587" lon="7.77047">
        <ele>202.2</ele>
        <time>2020-06-27T15:10:00Z</time>
      </trkpt>
      <trkpt lat="49.02582" lon="7.77054">
        <ele>202.3</ele>
        <time>2020-06-27T15:10:01Z</time>
      </trkpt>
      <trkpt lat="49.02576" lon="7.77055">
        <ele>202.3</ele>
        <time>2020-06-27T15:10:02Z</time>
      </trkpt>
      <trkpt lat="49.0257" lon="7.77053">
        <ele>202.2</ele>
        <time>2020-06-27T15:10:03Z</time>
      </trkpt>
      <trkpt lat="49.02564" lon="7.77053">
        <ele>202.1</ele>
        <time>2020-06-27T15:10:04Z</time>
      </trkpt>
      <trkpt lat="49.02558" lon="7.77052">
        <ele>201.9</ele>
        <time>2020-06-27T15:10:05Z</time>
      </trkpt>
      <trkpt lat="49.02551" lon="7.77051">
        <ele>201.7</ele>
        <time>2020-06-27T15:10:06Z</time>
      </trkpt>
      <trkpt lat="49.02546" lon="7.77048">
        <ele>201.6</ele>
        <time>2020-06-27T15:10:07Z</time>
      </trkpt>
      <trkpt lat="49.0254" lon="7.77047">
        <ele>201.4</ele>
        <time>2020-06-27T15:10:08Z</time>
      </trkpt>
      <trkpt lat="49.02533" lon="7.77047">
        <ele>201.3</ele>
        <time>2020-06-27T15:10:09Z</time>
      </trkpt>
      <trkpt lat="49.02527" lon="7.77046">
        <ele>201.2</ele>
        <time>2020-06-27T15:10:10Z</time>
      </trkpt>
      <trkpt lat="49.02521" lon="7.77045">
        <ele>201</ele>
        <time>2020-06-27T15:10:11Z</time>
      </trkpt>
      <trkpt lat="49.02515" lon="7.77044">
        <ele>200.9</ele>
        <time>2020-06-27T15:10:12Z</time>
      </trkpt>
      <trkpt lat="49.02509" lon="7.77045">
        <ele>200.8</ele>
        <time>2020-06-27T15:10:13Z</time>
      </trkpt>
      <trkpt lat="49.02503" lon="7.77043">
        <ele>200.8</ele>
        <time>2020-06-27T15:10:14Z</time>
      </trkpt>
      <trkpt lat="49.02498" lon="7.77041">
        <ele>200.7</ele>
        <time>2020-06-27T15:10:15Z</time>
      </trkpt>
      <trkpt lat="49.02492" lon="7.77039">
        <ele>200.6</ele>
        <time>2020-06-27T15:10:16Z</time>
      </trkpt>
      <trkpt lat="49.02487" lon="7.77037">
        <ele>200.6</ele>
        <time>2020-06-27T15:10:17Z</time>
      </trkpt>
      <trkpt lat="49.02481" lon="7.77034">
        <ele>200.5</ele>
        <time>2020-06-27T15:10:18Z</time>
      </trkpt>
      <trkpt lat="49.02476" lon="7.77033">
        <ele>200.5</ele>
        <time>2020-06-27T15:10:19Z</time>
      </trkpt>
      <trkpt lat="49.02471" lon="7.77029">
        <ele>200.5</ele>
        <time>2020-06-27T15:10:20Z</time>
      </trkpt>
      <trkpt lat="49.02465" lon="7.77026">
        <ele>200.5</ele>
        <time>2020-06-27T15:10:21Z</time>
      </trkpt>
      <trkpt lat="49.02459" lon="7.77023">
        <ele>200.4</ele>
        <time>2020-06-27T15:10:22Z</time>
      </trkpt>
      <trkpt lat="49.02454" lon="7.7702">
        <ele>200.4</ele>
        <time>2020-06-27T15:10:23Z</time>
      </trkpt>
      <trkpt lat="49.02448" lon="7.77017">
        <ele>200.4</ele>
        <time>2020-06-27T15:10:24Z</time>
      </trkpt>
      <trkpt lat="49.02443" lon="7.77014">
        <ele>200.4</ele>
        <time>2020-06-27T15:10:25Z</time>
      </trkpt>
      <trkpt lat="49.02437" lon="7.7701">
        <ele>200.3</ele>
        <time>2020-06-27T15:10:26Z</time>
      </trkpt>
      <trkpt lat="49.02431" lon="7.77007">
        <ele>200.3</ele>
        <time>2020-06-27T15:10:27Z</time>
      </trkpt>
      <trkpt lat="49.02425" lon="7.77004">
        <ele>200.3</ele>
        <time>2020-06-27T15:10:28Z</time>
      </trkpt>
      <trkpt lat="49.02419" lon="7.77002">
        <ele>200.2</ele>
        <time>2020-06-27T15:10:29Z</time>
      </trkpt>
      <trkpt lat="49.02413" lon="7.76999">
        <ele>200.2</ele>
        <time>2020-06-27T15:10:30Z</time>
      </trkpt>
      <trkpt lat="49.02407" lon="7.76996">
        <ele>200.2</ele>
        <time>2020-06-27T15:10:31Z</time>
      </trkpt>
      <trkpt lat="49.02401" lon="7.76994">
        <ele>200.2</ele>
        <time>2020-06-27T15:10:32Z</time>
      </trkpt>
      <trkpt lat="49.02395" lon="7.76991">
        <ele>200.2</ele>
        <time>2020-06-27T15:10:33Z</time>
      </trkpt>
      <trkpt lat="49.0239" lon="7.76989">
        <ele>200.2</ele>
        <time>2020-06-27T15:10:34Z</time>
      </trkpt>
      <trkpt lat="49.02384" lon="7.76987">
        <ele>200.2</ele>
        <time>2020-06-27T15:10:35Z</time>
      </trkpt>
      <trkpt lat="49.02377" lon="7.76986">
        <ele>200.2</ele>
        <time>2020-06-27T15:10:36Z</time>
      </trkpt>
      <trkpt lat="49.0237" lon="7.76988">
        <ele>200.2</ele>
        <time>2020-06-27T15:10:37Z</time>
      </trkpt>
      <trkpt lat="49.02364" lon="7.76991">
        <ele>200.2</ele>
        <time>2020-06-27T15:10:38Z</time>
      </trkpt>
      <trkpt lat="49.02358" lon="7.76994">
        <ele>200.2</ele>
        <time>2020-06-27T15:10:39Z</time>
      </trkpt>
      <trkpt lat="49.02353" lon="7.76999">
        <ele>200.2</ele>
        <time>2020-06-27T15:10:40Z</time>
      </trkpt>
      <trkpt lat="49.02347" lon="7.77003">
        <ele>200.3</ele>
        <time>2020-06-27T15:10:41Z</time>
      </trkpt>
      <trkpt lat="49.0234" lon="7.77003">
        <ele>200.3</ele>
        <time>2020-06-27T15:10:42Z</time>
      </trkpt>
      <trkpt lat="49.02336" lon="7.77009">
        <ele>200.3</ele>
        <time>2020-06-27T15:10:43Z</time>
      </trkpt>
      <trkpt lat="49.0233" lon="7.77012">
        <ele>200.3</ele>
        <time>2020-06-27T15:10:44Z</time>
      </trkpt>
      <trkpt lat="49.02324" lon="7.77015">
        <ele>200.3</ele>
        <time>2020-06-27T15:10:45Z</time>
      </trkpt>
      <trkpt lat="49.02317" lon="7.77019">
        <ele>200.3</ele>
        <time>2020-06-27T15:10:46Z</time>
      </trkpt>
      <trkpt lat="49.02311" lon="7.77022">
        <ele>200.3</ele>
        <time>2020-06-27T15:10:47Z</time>
      </trkpt>
      <trkpt lat="49.02306" lon="7.77029">
        <ele>200.2</ele>
        <time>2020-06-27T15:10:48Z</time>
      </trkpt>
      <trkpt lat="49.02302" lon="7.77035">
        <ele>200.2</ele>
        <time>2020-06-27T15:10:49Z</time>
      </trkpt>
      <trkpt lat="49.02297" lon="7.77041">
        <ele>200.2</ele>
        <time>2020-06-27T15:10:50Z</time>
      </trkpt>
      <trkpt lat="49.02291" lon="7.77046">
        <ele>200.3</ele>
        <time>2020-06-27T15:10:51Z</time>
      </trkpt>
      <trkpt lat="49.02286" lon="7.77052">
        <ele>200.3</ele>
        <time>2020-06-27T15:10:52Z</time>
      </trkpt>
      <trkpt lat="49.02281" lon="7.77058">
        <ele>200.4</ele>
        <time>2020-06-27T15:10:53Z</time>
      </trkpt>
      <trkpt lat="49.02277" lon="7.77066">
        <ele>200.4</ele>
        <time>2020-06-27T15:10:54Z</time>
      </trkpt>
      <trkpt lat="49.02274" lon="7.77073">
        <ele>200.4</ele>
        <time>2020-06-27T15:10:55Z</time>
      </trkpt>
      <trkpt lat="49.0227" lon="7.7708">
        <ele>200.5</ele>
        <time>2020-06-27T15:10:56Z</time>
      </trkpt>
      <trkpt lat="49.02266" lon="7.77086">
        <ele>200.4</ele>
        <time>2020-06-27T15:10:57Z</time>
      </trkpt>
      <trkpt lat="49.02261" lon="7.77093">
        <ele>200.4</ele>
        <time>2020-06-27T15:10:58Z</time>
      </trkpt>
      <trkpt lat="49.02257" lon="7.77101">
        <ele>200.3</ele>
        <time>2020-06-27T15:10:59Z</time>
      </trkpt>
      <trkpt lat="49.02254" lon="7.77108">
        <ele>200.1</ele>
        <time>2020-06-27T15:11:00Z</time>
      </trkpt>
      <trkpt lat="49.02252" lon="7.77117">
        <ele>200.1</ele>
        <time>2020-06-27T15:11:01Z</time>
      </trkpt>
      <trkpt lat="49.02249" lon="7.77125">
        <ele>200</ele>
        <time>2020-06-27T15:11:02Z</time>
      </trkpt>
      <trkpt lat="49.02245" lon="7.77132">
        <ele>199.9</ele>
        <time>2020-06-27T15:11:03Z</time>
      </trkpt>
      <trkpt lat="49.02241" lon="7.7714">
        <ele>199.9</ele>
        <time>2020-06-27T15:11:04Z</time>
      </trkpt>
      <trkpt lat="49.02238" lon="7.77148">
        <ele>199.8</ele>
        <time>2020-06-27T15:11:05Z</time>
      </trkpt>
      <trkpt lat="49.02235" lon="7.77155">
        <ele>199.8</ele>
        <time>2020-06-27T15:11:06Z</time>
      </trkpt>
      <trkpt lat="49.02229" lon="7.77159">
        <ele>199.7</ele>
        <time>2020-06-27T15:11:07Z</time>
      </trkpt>
      <trkpt lat="49.02226" lon="7.77168">
        <ele>199.7</ele>
        <time>2020-06-27T15:11:08Z</time>
      </trkpt>
      <trkpt lat="49.02222" lon="7.77176">
        <ele>199.7</ele>
        <time>2020-06-27T15:11:09Z</time>
      </trkpt>
      <trkpt lat="49.02218" lon="7.77184">
        <ele>199.6</ele>
        <time>2020-06-27T15:11:10Z</time>
      </trkpt>
      <trkpt lat="49.02214" lon="7.77192">
        <ele>199.6</ele>
        <time>2020-06-27T15:11:11Z</time>
      </trkpt>
      <trkpt lat="49.0221" lon="7.77198">
        <ele>199.6</ele>
        <time>2020-06-27T15:11:12Z</time>
      </trkpt>
      <trkpt lat="49.02204" lon="7.77203">
        <ele>199.5</ele>
        <time>2020-06-27T15:11:13Z</time>
      </trkpt>
      <trkpt lat="49.02198" lon="7.77208">
        <ele>199.5</ele>
        <time>2020-06-27T15:11:14Z</time>
      </trkpt>
      <trkpt lat="49.02193" lon="7.77217">
        <ele>199.5</ele>
        <time>2020-06-27T15:11:15Z</time>
      </trkpt>
      <trkpt lat="49.02188" lon="7.77225">
        <ele>199.4</ele>
        <time>2020-06-27T15:11:16Z</time>
      </trkpt>
      <trkpt lat="49.02182" lon="7.77233">
        <ele>199.3</ele>
        <time>2020-06-27T15:11:17Z</time>
      </trkpt>
      <trkpt lat="49.02176" lon="7.77239">
        <ele>199.2</ele>
        <time>2020-06-27T15:11:18Z</time>
      </trkpt>
      <trkpt lat="49.0217" lon="7.77244">
        <ele>199.1</ele>
        <time>2020-06-27T15:11:19Z</time>
      </trkpt>
      <trkpt lat="49.02163" lon="7.77249">
        <ele>199.1</ele>
        <time>2020-06-27T15:11:20Z</time>
      </trkpt>
      <trkpt lat="49.02157" lon="7.77255">
        <ele>199</ele>
        <time>2020-06-27T15:11:21Z</time>
      </trkpt>
      <trkpt lat="49.02151" lon="7.77261">
        <ele>198.9</ele>
        <time>2020-06-27T15:11:22Z</time>
      </trkpt>
      <trkpt lat="49.02144" lon="7.77266">
        <ele>198.8</ele>
        <time>2020-06-27T15:11:23Z</time>
      </trkpt>
      <trkpt lat="49.02138" lon="7.77272">
        <ele>198.8</ele>
        <time>2020-06-27T15:11:24Z</time>
      </trkpt>
      <trkpt lat="49.02132" lon="7.77277">
        <ele>198.8</ele>
        <time>2020-06-27T15:11:25Z</time>
      </trkpt>
      <trkpt lat="49.02126" lon="7.77282">
        <ele>198.8</ele>
        <time>2020-06-27T15:11:26Z</time>
      </trkpt>
      <trkpt lat="49.0212" lon="7.77287">
        <ele>198.8</ele>
        <time>2020-06-27T15:11:27Z</time>
      </trkpt>
      <trkpt lat="49.02115" lon="7.77293">
        <ele>198.8</ele>
        <time>2020-06-27T15:11:28Z</time>
      </trkpt>
      <trkpt lat="49.02109" lon="7.77298">
        <ele>198.7</ele>
        <time>2020-06-27T15:11:29Z</time>
      </trkpt>
      <trkpt lat="49.02104" lon="7.77309">
        <ele>198.7</ele>
        <time>2020-06-27T15:11:30Z</time>
      </trkpt>
      <trkpt lat="49.02098" lon="7.77314">
        <ele>198.7</ele>
        <time>2020-06-27T15:11:31Z</time>
      </trkpt>
      <trkpt lat="49.02093" lon="7.7732">
        <ele>198.7</ele>
        <time>2020-06-27T15:11:32Z</time>
      </trkpt>
      <trkpt lat="49.02088" lon="7.77327">
        <ele>198.7</ele>
        <time>2020-06-27T15:11:33Z</time>
      </trkpt>
      <trkpt lat="49.02084" lon="7.77334">
        <ele>198.7</ele>
        <time>2020-06-27T15:11:34Z</time>
      </trkpt>
      <trkpt lat="49.0208" lon="7.77342">
        <ele>198.7</ele>
        <time>2020-06-27T15:11:35Z</time>
      </trkpt>
      <trkpt lat="49.02075" lon="7.77348">
        <ele>198.8</ele>
        <time>2020-06-27T15:11:36Z</time>
      </trkpt>
      <trkpt lat="49.02071" lon="7.77355">
        <ele>198.8</ele>
        <time>2020-06-27T15:11:37Z</time>
      </trkpt>
      <trkpt lat="49.02068" lon="7.77362">
        <ele>198.8</ele>
        <time>2020-06-27T15:11:38Z</time>
      </trkpt>
      <trkpt lat="49.02065" lon="7.7737">
        <ele>198.8</ele>
        <time>2020-06-27T15:11:39Z</time>
      </trkpt>
      <trkpt lat="49.02062" lon="7.7738">
        <ele>198.8</ele>
        <time>2020-06-27T15:11:40Z</time>
      </trkpt>
      <trkpt lat="49.0206" lon="7.77389">
        <ele>198.8</ele>
        <time>2020-06-27T15:11:41Z</time>
      </trkpt>
      <trkpt lat="49.02057" lon="7.77396">
        <ele>198.9</ele>
        <time>2020-06-27T15:11:42Z</time>
      </trkpt>
      <trkpt lat="49.02054" lon="7.77404">
        <ele>198.9</ele>
        <time>2020-06-27T15:11:43Z</time>
      </trkpt>
      <trkpt lat="49.02051" lon="7.77413">
        <ele>198.9</ele>
        <time>2020-06-27T15:11:44Z</time>
      </trkpt>
      <trkpt lat="49.02048" lon="7.77422">
        <ele>198.9</ele>
        <time>2020-06-27T15:11:45Z</time>
      </trkpt>
      <trkpt lat="49.02045" lon="7.7743">
        <ele>198.9</ele>
        <time>2020-06-27T15:11:46Z</time>
      </trkpt>
      <trkpt lat="49.02043" lon="7.77439">
        <ele>198.9</ele>
        <time>2020-06-27T15:11:47Z</time>
      </trkpt>
      <trkpt lat="49.02041" lon="7.77447">
        <ele>198.9</ele>
        <time>2020-06-27T15:11:48Z</time>
      </trkpt>
      <trkpt lat="49.0204" lon="7.77456">
        <ele>198.9</ele>
        <time>2020-06-27T15:11:49Z</time>
      </trkpt>
      <trkpt lat="49.02038" lon="7.77465">
        <ele>198.9</ele>
        <time>2020-06-27T15:11:50Z</time>
      </trkpt>
      <trkpt lat="49.02037" lon="7.77472">
        <ele>198.9</ele>
        <time>2020-06-27T15:11:51Z</time>
      </trkpt>
      <trkpt lat="49.02037" lon="7.7748">
        <ele>198.9</ele>
        <time>2020-06-27T15:11:52Z</time>
      </trkpt>
      <trkpt lat="49.02037" lon="7.77487">
        <ele>198.8</ele>
        <time>2020-06-27T15:11:53Z</time>
      </trkpt>
      <trkpt lat="49.02035" lon="7.77494">
        <ele>198.8</ele>
        <time>2020-06-27T15:11:54Z</time>
      </trkpt>
      <trkpt lat="49.02034" lon="7.77501">
        <ele>198.8</ele>
        <time>2020-06-27T15:11:55Z</time>
      </trkpt>
      <trkpt lat="49.02034" lon="7.77509">
        <ele>198.7</ele>
        <time>2020-06-27T15:11:56Z</time>
      </trkpt>
      <trkpt lat="49.02032" lon="7.77517">
        <ele>198.7</ele>
        <time>2020-06-27T15:11:57Z</time>
      </trkpt>
      <trkpt lat="49.0203" lon="7.77526">
        <ele>198.7</ele>
        <time>2020-06-27T15:11:58Z</time>
      </trkpt>
      <trkpt lat="49.02029" lon="7.77534">
        <ele>198.6</ele>
        <time>2020-06-27T15:11:59Z</time>
      </trkpt>
      <trkpt lat="49.02027" lon="7.77542">
        <ele>198.6</ele>
        <time>2020-06-27T15:12:00Z</time>
      </trkpt>
      <trkpt lat="49.02023" lon="7.7755">
        <ele>198.6</ele>
        <time>2020-06-27T15:12:01Z</time>
      </trkpt>
      <trkpt lat="49.02021" lon="7.77558">
        <ele>198.5</ele>
        <time>2020-06-27T15:12:02Z</time>
      </trkpt>
      <trkpt lat="49.02018" lon="7.77565">
        <ele>198.5</ele>
        <time>2020-06-27T15:12:03Z</time>
      </trkpt>
      <trkpt lat="49.02016" lon="7.77573">
        <ele>198.6</ele>
        <time>2020-06-27T15:12:04Z</time>
      </trkpt>
      <trkpt lat="49.02015" lon="7.77582">
        <ele>198.6</ele>
        <time>2020-06-27T15:12:05Z</time>
      </trkpt>
      <trkpt lat="49.02014" lon="7.77591">
        <ele>198.6</ele>
        <time>2020-06-27T15:12:06Z</time>
      </trkpt>
      <trkpt lat="49.02012" lon="7.776">
        <ele>198.6</ele>
        <time>2020-06-27T15:12:07Z</time>
      </trkpt>
      <trkpt lat="49.02009" lon="7.77611">
        <ele>198.6</ele>
        <time>2020-06-27T15:12:08Z</time>
      </trkpt>
      <trkpt lat="49.02007" lon="7.77622">
        <ele>198.5</ele>
        <time>2020-06-27T15:12:09Z</time>
      </trkpt>
      <trkpt lat="49.02004" lon="7.7763">
        <ele>198.5</ele>
        <time>2020-06-27T15:12:10Z</time>
      </trkpt>
      <trkpt lat="49.02" lon="7.77637">
        <ele>198.5</ele>
        <time>2020-06-27T15:12:11Z</time>
      </trkpt>
      <trkpt lat="49.01998" lon="7.77645">
        <ele>198.4</ele>
        <time>2020-06-27T15:12:12Z</time>
      </trkpt>
      <trkpt lat="49.01995" lon="7.77653">
        <ele>198.4</ele>
        <time>2020-06-27T15:12:13Z</time>
      </trkpt>
      <trkpt lat="49.01992" lon="7.7766">
        <ele>198.4</ele>
        <time>2020-06-27T15:12:14Z</time>
      </trkpt>
      <trkpt lat="49.01989" lon="7.77667">
        <ele>198.4</ele>
        <time>2020-06-27T15:12:15Z</time>
      </trkpt>
      <trkpt lat="49.01986" lon="7.77674">
        <ele>198.4</ele>
        <time>2020-06-27T15:12:16Z</time>
      </trkpt>
      <trkpt lat="49.01983" lon="7.77681">
        <ele>198.4</ele>
        <time>2020-06-27T15:12:17Z</time>
      </trkpt>
      <trkpt lat="49.01983" lon="7.77695">
        <ele>198.4</ele>
        <time>2020-06-27T15:12:18Z</time>
      </trkpt>
      <trkpt lat="49.0198" lon="7.77702">
        <ele>198.4</ele>
        <time>2020-06-27T15:12:19Z</time>
      </trkpt>
      <trkpt lat="49.01977" lon="7.77711">
        <ele>198.4</ele>
        <time>2020-06-27T15:12:20Z</time>
      </trkpt>
      <trkpt lat="49.01976" lon="7.77721">
        <ele>198.4</ele>
        <time>2020-06-27T15:12:21Z</time>
      </trkpt>
      <trkpt lat="49.01972" lon="7.77728">
        <ele>198.4</ele>
        <time>2020-06-27T15:12:22Z</time>
      </trkpt>
      <trkpt lat="49.01968" lon="7.77734">
        <ele>198.4</ele>
        <time>2020-06-27T15:12:23Z</time>
      </trkpt>
      <trkpt lat="49.01966" lon="7.77745">
        <ele>198.4</ele>
        <time>2020-06-27T15:12:24Z</time>
      </trkpt>
      <trkpt lat="49.01963" lon="7.77755">
        <ele>198.4</ele>
        <time>2020-06-27T15:12:25Z</time>
      </trkpt>
      <trkpt lat="49.0196" lon="7.77764">
        <ele>198.4</ele>
        <time>2020-06-27T15:12:26Z</time>
      </trkpt>
      <trkpt lat="49.01957" lon="7.77772">
        <ele>198.4</ele>
        <time>2020-06-27T15:12:27Z</time>
      </trkpt>
      <trkpt lat="49.01954" lon="7.77782">
        <ele>198.4</ele>
        <time>2020-06-27T15:12:28Z</time>
      </trkpt>
      <trkpt lat="49.01948" lon="7.77789">
        <ele>198.5</ele>
        <time>2020-06-27T15:12:29Z</time>
      </trkpt>
      <trkpt lat="49.01943" lon="7.77797">
        <ele>198.5</ele>
        <time>2020-06-27T15:12:30Z</time>
      </trkpt>
      <trkpt lat="49.01938" lon="7.77804">
        <ele>198.4</ele>
        <time>2020-06-27T15:12:31Z</time>
      </trkpt>
      <trkpt lat="49.01931" lon="7.77811">
        <ele>198.4</ele>
        <time>2020-06-27T15:12:32Z</time>
      </trkpt>
      <trkpt lat="49.01923" lon="7.77818">
        <ele>198.4</ele>
        <time>2020-06-27T15:12:33Z</time>
      </trkpt>
      <trkpt lat="49.01914" lon="7.77826">
        <ele>198.4</ele>
        <time>2020-06-27T15:12:34Z</time>
      </trkpt>
      <trkpt lat="49.01905" lon="7.77834">
        <ele>198.4</ele>
        <time>2020-06-27T15:12:35Z</time>
      </trkpt>
      <trkpt lat="49.01894" lon="7.7784">
        <ele>198.3</ele>
        <time>2020-06-27T15:12:36Z</time>
      </trkpt>
      <trkpt lat="49.01886" lon="7.77844">
        <ele>198.2</ele>
        <time>2020-06-27T15:12:37Z</time>
      </trkpt>
      <trkpt lat="49.01878" lon="7.7785">
        <ele>198.1</ele>
        <time>2020-06-27T15:12:38Z</time>
      </trkpt>
      <trkpt lat="49.0187" lon="7.77856">
        <ele>198</ele>
        <time>2020-06-27T15:12:39Z</time>
      </trkpt>
      <trkpt lat="49.01863" lon="7.77862">
        <ele>197.8</ele>
        <time>2020-06-27T15:12:40Z</time>
      </trkpt>
      <trkpt lat="49.01856" lon="7.77865">
        <ele>197.7</ele>
        <time>2020-06-27T15:12:41Z</time>
      </trkpt>
      <trkpt lat="49.0185" lon="7.77867">
        <ele>197.7</ele>
        <time>2020-06-27T15:12:42Z</time>
      </trkpt>
      <trkpt lat="49.01843" lon="7.77867">
        <ele>197.6</ele>
        <time>2020-06-27T15:12:43Z</time>
      </trkpt>
      <trkpt lat="49.01834" lon="7.77869">
        <ele>197.6</ele>
        <time>2020-06-27T15:12:44Z</time>
      </trkpt>
      <trkpt lat="49.01825" lon="7.7787">
        <ele>197.6</ele>
        <time>2020-06-27T15:12:45Z</time>
      </trkpt>
      <trkpt lat="49.01818" lon="7.7787">
        <ele>197.6</ele>
        <time>2020-06-27T15:12:46Z</time>
      </trkpt>
      <trkpt lat="49.01812" lon="7.7787">
        <ele>197.6</ele>
        <time>2020-06-27T15:12:47Z</time>
      </trkpt>
      <trkpt lat="49.01804" lon="7.7787">
        <ele>197.6</ele>
        <time>2020-06-27T15:12:48Z</time>
      </trkpt>
      <trkpt lat="49.01795" lon="7.77871">
        <ele>197.6</ele>
        <time>2020-06-27T15:12:49Z</time>
      </trkpt>
      <trkpt lat="49.01787" lon="7.77871">
        <ele>197.7</ele>
        <time>2020-06-27T15:12:50Z</time>
      </trkpt>
      <trkpt lat="49.0178" lon="7.77871">
        <ele>197.7</ele>
        <time>2020-06-27T15:12:51Z</time>
      </trkpt>
      <trkpt lat="49.01772" lon="7.7787">
        <ele>197.7</ele>
        <time>2020-06-27T15:12:52Z</time>
      </trkpt>
      <trkpt lat="49.01766" lon="7.77869">
        <ele>197.7</ele>
        <time>2020-06-27T15:12:53Z</time>
      </trkpt>
      <trkpt lat="49.01758" lon="7.7787">
        <ele>197.8</ele>
        <time>2020-06-27T15:12:54Z</time>
      </trkpt>
      <trkpt lat="49.01751" lon="7.77872">
        <ele>197.9</ele>
        <time>2020-06-27T15:12:55Z</time>
      </trkpt>
      <trkpt lat="49.01743" lon="7.77874">
        <ele>197.9</ele>
        <time>2020-06-27T15:12:56Z</time>
      </trkpt>
      <trkpt lat="49.01734" lon="7.77876">
        <ele>198</ele>
        <time>2020-06-27T15:12:57Z</time>
      </trkpt>
      <trkpt lat="49.01728" lon="7.77879">
        <ele>198</ele>
        <time>2020-06-27T15:12:58Z</time>
      </trkpt>
      <trkpt lat="49.01722" lon="7.77882">
        <ele>198</ele>
        <time>2020-06-27T15:12:59Z</time>
      </trkpt>
      <trkpt lat="49.01716" lon="7.77886">
        <ele>198</ele>
        <time>2020-06-27T15:13:00Z</time>
      </trkpt>
      <trkpt lat="49.01709" lon="7.77891">
        <ele>198</ele>
        <time>2020-06-27T15:13:01Z</time>
      </trkpt>
      <trkpt lat="49.01705" lon="7.77897">
        <ele>198</ele>
        <time>2020-06-27T15:13:02Z</time>
      </trkpt>
      <trkpt lat="49.01701" lon="7.77905">
        <ele>198</ele>
        <time>2020-06-27T15:13:03Z</time>
      </trkpt>
      <trkpt lat="49.01698" lon="7.77913">
        <ele>198</ele>
        <time>2020-06-27T15:13:04Z</time>
      </trkpt>
      <trkpt lat="49.01695" lon="7.77921">
        <ele>198</ele>
        <time>2020-06-27T15:13:05Z</time>
      </trkpt>
      <trkpt lat="49.01693" lon="7.77928">
        <ele>198</ele>
        <time>2020-06-27T15:13:06Z</time>
      </trkpt>
      <trkpt lat="49.01691" lon="7.77938">
        <ele>198</ele>
        <time>2020-06-27T15:13:07Z</time>
      </trkpt>
      <trkpt lat="49.0169" lon="7.77948">
        <ele>198</ele>
        <time>2020-06-27T15:13:08Z</time>
      </trkpt>
      <trkpt lat="49.01689" lon="7.77959">
        <ele>198</ele>
        <time>2020-06-27T15:13:09Z</time>
      </trkpt>
      <trkpt lat="49.01687" lon="7.7797">
        <ele>198</ele>
        <time>2020-06-27T15:13:10Z</time>
      </trkpt>
      <trkpt lat="49.01684" lon="7.77982">
        <ele>197.7</ele>
        <time>2020-06-27T15:13:11Z</time>
      </trkpt>
      <trkpt lat="49.01682" lon="7.77994">
        <ele>197.5</ele>
        <time>2020-06-27T15:13:12Z</time>
      </trkpt>
      <trkpt lat="49.0168" lon="7.78005">
        <ele>197.4</ele>
        <time>2020-06-27T15:13:13Z</time>
      </trkpt>
      <trkpt lat="49.01677" lon="7.78017">
        <ele>197.4</ele>
        <time>2020-06-27T15:13:14Z</time>
      </trkpt>
      <trkpt lat="49.01674" lon="7.78027">
        <ele>197.4</ele>
        <time>2020-06-27T15:13:15Z</time>
      </trkpt>
      <trkpt lat="49.01671" lon="7.78036">
        <ele>197.4</ele>
        <time>2020-06-27T15:13:16Z</time>
      </trkpt>
      <trkpt lat="49.01668" lon="7.78047">
        <ele>197.4</ele>
        <time>2020-06-27T15:13:17Z</time>
      </trkpt>
      <trkpt lat="49.01665" lon="7.78054">
        <ele>197.4</ele>
        <time>2020-06-27T15:13:18Z</time>
      </trkpt>
      <trkpt lat="49.01663" lon="7.78064">
        <ele>197.4</ele>
        <time>2020-06-27T15:13:19Z</time>
      </trkpt>
      <trkpt lat="49.0166" lon="7.78075">
        <ele>197.4</ele>
        <time>2020-06-27T15:13:20Z</time>
      </trkpt>
      <trkpt lat="49.01656" lon="7.78084">
        <ele>197.5</ele>
        <time>2020-06-27T15:13:21Z</time>
      </trkpt>
      <trkpt lat="49.01652" lon="7.78096">
        <ele>197.5</ele>
        <time>2020-06-27T15:13:22Z</time>
      </trkpt>
      <trkpt lat="49.01648" lon="7.78106">
        <ele>197.6</ele>
        <time>2020-06-27T15:13:23Z</time>
      </trkpt>
      <trkpt lat="49.01644" lon="7.78115">
        <ele>197.6</ele>
        <time>2020-06-27T15:13:24Z</time>
      </trkpt>
      <trkpt lat="49.01639" lon="7.78124">
        <ele>197.5</ele>
        <time>2020-06-27T15:13:25Z</time>
      </trkpt>
      <trkpt lat="49.01635" lon="7.78132">
        <ele>197.4</ele>
        <time>2020-06-27T15:13:26Z</time>
      </trkpt>
      <trkpt lat="49.0163" lon="7.7814">
        <ele>197.3</ele>
        <time>2020-06-27T15:13:27Z</time>
      </trkpt>
      <trkpt lat="49.01625" lon="7.78147">
        <ele>197.2</ele>
        <time>2020-06-27T15:13:28Z</time>
      </trkpt>
      <trkpt lat="49.01619" lon="7.78154">
        <ele>197.1</ele>
        <time>2020-06-27T15:13:29Z</time>
      </trkpt>
      <trkpt lat="49.01614" lon="7.7816">
        <ele>197.1</ele>
        <time>2020-06-27T15:13:30Z</time>
      </trkpt>
      <trkpt lat="49.01608" lon="7.78166">
        <ele>197.1</ele>
        <time>2020-06-27T15:13:31Z</time>
      </trkpt>
      <trkpt lat="49.01602" lon="7.78171">
        <ele>197.1</ele>
        <time>2020-06-27T15:13:32Z</time>
      </trkpt>
      <trkpt lat="49.01596" lon="7.78176">
        <ele>197</ele>
        <time>2020-06-27T15:13:33Z</time>
      </trkpt>
      <trkpt lat="49.01589" lon="7.78179">
        <ele>197</ele>
        <time>2020-06-27T15:13:34Z</time>
      </trkpt>
      <trkpt lat="49.01583" lon="7.78183">
        <ele>197</ele>
        <time>2020-06-27T15:13:35Z</time>
      </trkpt>
      <trkpt lat="49.01576" lon="7.78185">
        <ele>197</ele>
        <time>2020-06-27T15:13:36Z</time>
      </trkpt>
      <trkpt lat="49.0157" lon="7.78187">
        <ele>196.9</ele>
        <time>2020-06-27T15:13:37Z</time>
      </trkpt>
      <trkpt lat="49.01563" lon="7.78187">
        <ele>196.9</ele>
        <time>2020-06-27T15:13:38Z</time>
      </trkpt>
      <trkpt lat="49.01556" lon="7.78186">
        <ele>196.8</ele>
        <time>2020-06-27T15:13:39Z</time>
      </trkpt>
      <trkpt lat="49.0155" lon="7.78184">
        <ele>196.7</ele>
        <time>2020-06-27T15:13:40Z</time>
      </trkpt>
      <trkpt lat="49.01543" lon="7.7818">
        <ele>196.6</ele>
        <time>2020-06-27T15:13:41Z</time>
      </trkpt>
      <trkpt lat="49.01537" lon="7.78176">
        <ele>196.5</ele>
        <time>2020-06-27T15:13:42Z</time>
      </trkpt>
      <trkpt lat="49.01531" lon="7.78172">
        <ele>196.5</ele>
        <time>2020-06-27T15:13:43Z</time>
      </trkpt>
      <trkpt lat="49.01525" lon="7.78167">
        <ele>196.4</ele>
        <time>2020-06-27T15:13:44Z</time>
      </trkpt>
      <trkpt lat="49.01519" lon="7.78162">
        <ele>196.3</ele>
        <time>2020-06-27T15:13:45Z</time>
      </trkpt>
      <trkpt lat="49.01514" lon="7.78154">
        <ele>196.3</ele>
        <time>2020-06-27T15:13:46Z</time>
      </trkpt>
      <trkpt lat="49.01508" lon="7.78149">
        <ele>196.3</ele>
        <time>2020-06-27T15:13:47Z</time>
      </trkpt>
      <trkpt lat="49.01503" lon="7.7814">
        <ele>196.3</ele>
        <time>2020-06-27T15:13:48Z</time>
      </trkpt>
      <trkpt lat="49.01498" lon="7.78132">
        <ele>196.3</ele>
        <time>2020-06-27T15:13:49Z</time>
      </trkpt>
      <trkpt lat="49.01493" lon="7.78123">
        <ele>196.3</ele>
        <time>2020-06-27T15:13:50Z</time>
      </trkpt>
      <trkpt lat="49.01489" lon="7.78114">
        <ele>196.2</ele>
        <time>2020-06-27T15:13:51Z</time>
      </trkpt>
      <trkpt lat="49.01486" lon="7.78105">
        <ele>196</ele>
        <time>2020-06-27T15:13:52Z</time>
      </trkpt>
      <trkpt lat="49.01483" lon="7.78095">
        <ele>195.9</ele>
        <time>2020-06-27T15:13:53Z</time>
      </trkpt>
      <trkpt lat="49.0148" lon="7.78086">
        <ele>195.9</ele>
        <time>2020-06-27T15:13:54Z</time>
      </trkpt>
      <trkpt lat="49.01478" lon="7.78076">
        <ele>195.8</ele>
        <time>2020-06-27T15:13:55Z</time>
      </trkpt>
      <trkpt lat="49.01475" lon="7.78067">
        <ele>195.8</ele>
        <time>2020-06-27T15:13:56Z</time>
      </trkpt>
      <trkpt lat="49.01473" lon="7.78058">
        <ele>195.8</ele>
        <time>2020-06-27T15:13:57Z</time>
      </trkpt>
      <trkpt lat="49.0147" lon="7.78049">
        <ele>195.8</ele>
        <time>2020-06-27T15:13:58Z</time>
      </trkpt>
      <trkpt lat="49.01468" lon="7.7804">
        <ele>195.8</ele>
        <time>2020-06-27T15:13:59Z</time>
      </trkpt>
      <trkpt lat="49.01466" lon="7.78032">
        <ele>195.9</ele>
        <time>2020-06-27T15:14:00Z</time>
      </trkpt>
      <trkpt lat="49.01465" lon="7.78024">
        <ele>195.9</ele>
        <time>2020-06-27T15:14:01Z</time>
      </trkpt>
      <trkpt lat="49.01464" lon="7.78016">
        <ele>196</ele>
        <time>2020-06-27T15:14:02Z</time>
      </trkpt>
      <trkpt lat="49.01464" lon="7.78006">
        <ele>196</ele>
        <time>2020-06-27T15:14:03Z</time>
      </trkpt>
      <trkpt lat="49.01463" lon="7.77997">
        <ele>196.1</ele>
        <time>2020-06-27T15:14:04Z</time>
      </trkpt>
      <trkpt lat="49.0146" lon="7.77989">
        <ele>196.2</ele>
        <time>2020-06-27T15:14:05Z</time>
      </trkpt>
      <trkpt lat="49.01459" lon="7.7798">
        <ele>196.3</ele>
        <time>2020-06-27T15:14:06Z</time>
      </trkpt>
      <trkpt lat="49.01456" lon="7.77974">
        <ele>196.4</ele>
        <time>2020-06-27T15:14:07Z</time>
      </trkpt>
      <trkpt lat="49.01454" lon="7.77967">
        <ele>196.4</ele>
        <time>2020-06-27T15:14:08Z</time>
      </trkpt>
      <trkpt lat="49.0145" lon="7.77962">
        <ele>196.4</ele>
        <time>2020-06-27T15:14:09Z</time>
      </trkpt>
      <trkpt lat="49.01447" lon="7.77956">
        <ele>196.5</ele>
        <time>2020-06-27T15:14:10Z</time>
      </trkpt>
      <trkpt lat="49.01443" lon="7.7795">
        <ele>196.5</ele>
        <time>2020-06-27T15:14:11Z</time>
      </trkpt>
      <trkpt lat="49.01438" lon="7.77946">
        <ele>196.5</ele>
        <time>2020-06-27T15:14:12Z</time>
      </trkpt>
      <trkpt lat="49.01432" lon="7.77944">
        <ele>196.5</ele>
        <time>2020-06-27T15:14:13Z</time>
      </trkpt>
      <trkpt lat="49.01425" lon="7.77941">
        <ele>196.5</ele>
        <time>2020-06-27T15:14:14Z</time>
      </trkpt>
      <trkpt lat="49.01419" lon="7.77942">
        <ele>196.6</ele>
        <time>2020-06-27T15:14:15Z</time>
      </trkpt>
      <trkpt lat="49.01412" lon="7.77945">
        <ele>196.6</ele>
        <time>2020-06-27T15:14:16Z</time>
      </trkpt>
      <trkpt lat="49.01406" lon="7.77948">
        <ele>196.6</ele>
        <time>2020-06-27T15:14:17Z</time>
      </trkpt>
      <trkpt lat="49.01399" lon="7.77953">
        <ele>196.5</ele>
        <time>2020-06-27T15:14:18Z</time>
      </trkpt>
      <trkpt lat="49.01395" lon="7.77959">
        <ele>196.5</ele>
        <time>2020-06-27T15:14:19Z</time>
      </trkpt>
      <trkpt lat="49.0139" lon="7.77968">
        <ele>196.4</ele>
        <time>2020-06-27T15:14:20Z</time>
      </trkpt>
      <trkpt lat="49.01386" lon="7.77977">
        <ele>196.4</ele>
        <time>2020-06-27T15:14:21Z</time>
      </trkpt>
      <trkpt lat="49.01384" lon="7.77987">
        <ele>196.4</ele>
        <time>2020-06-27T15:14:22Z</time>
      </trkpt>
      <trkpt lat="49.01382" lon="7.77997">
        <ele>196.4</ele>
        <time>2020-06-27T15:14:23Z</time>
      </trkpt>
      <trkpt lat="49.01381" lon="7.78007">
        <ele>196.4</ele>
        <time>2020-06-27T15:14:24Z</time>
      </trkpt>
      <trkpt lat="49.01379" lon="7.78017">
        <ele>196.2</ele>
        <time>2020-06-27T15:14:25Z</time>
      </trkpt>
      <trkpt lat="49.01377" lon="7.78028">
        <ele>196</ele>
        <time>2020-06-27T15:14:26Z</time>
      </trkpt>
      <trkpt lat="49.01376" lon="7.78039">
        <ele>195.9</ele>
        <time>2020-06-27T15:14:27Z</time>
      </trkpt>
      <trkpt lat="49.01374" lon="7.78049">
        <ele>195.8</ele>
        <time>2020-06-27T15:14:28Z</time>
      </trkpt>
      <trkpt lat="49.01372" lon="7.7806">
        <ele>195.8</ele>
        <time>2020-06-27T15:14:29Z</time>
      </trkpt>
      <trkpt lat="49.0137" lon="7.78069">
        <ele>195.8</ele>
        <time>2020-06-27T15:14:30Z</time>
      </trkpt>
      <trkpt lat="49.01369" lon="7.78079">
        <ele>195.7</ele>
        <time>2020-06-27T15:14:31Z</time>
      </trkpt>
      <trkpt lat="49.01368" lon="7.78089">
        <ele>195.7</ele>
        <time>2020-06-27T15:14:32Z</time>
      </trkpt>
      <trkpt lat="49.01366" lon="7.781">
        <ele>195.7</ele>
        <time>2020-06-27T15:14:33Z</time>
      </trkpt>
      <trkpt lat="49.01366" lon="7.78111">
        <ele>195.6</ele>
        <time>2020-06-27T15:14:34Z</time>
      </trkpt>
      <trkpt lat="49.01365" lon="7.78121">
        <ele>195.6</ele>
        <time>2020-06-27T15:14:35Z</time>
      </trkpt>
      <trkpt lat="49.01364" lon="7.7813">
        <ele>195.6</ele>
        <time>2020-06-27T15:14:36Z</time>
      </trkpt>
      <trkpt lat="49.01364" lon="7.78141">
        <ele>195.5</ele>
        <time>2020-06-27T15:14:37Z</time>
      </trkpt>
      <trkpt lat="49.01364" lon="7.78151">
        <ele>195.5</ele>
        <time>2020-06-27T15:14:38Z</time>
      </trkpt>
      <trkpt lat="49.01364" lon="7.78161">
        <ele>195.5</ele>
        <time>2020-06-27T15:14:39Z</time>
      </trkpt>
      <trkpt lat="49.01364" lon="7.78171">
        <ele>195.4</ele>
        <time>2020-06-27T15:14:40Z</time>
      </trkpt>
      <trkpt lat="49.01363" lon="7.7818">
        <ele>195.3</ele>
        <time>2020-06-27T15:14:41Z</time>
      </trkpt>
      <trkpt lat="49.01364" lon="7.7819">
        <ele>195.3</ele>
        <time>2020-06-27T15:14:42Z</time>
      </trkpt>
      <trkpt lat="49.01365" lon="7.782">
        <ele>195.2</ele>
        <time>2020-06-27T15:14:43Z</time>
      </trkpt>
      <trkpt lat="49.01365" lon="7.78211">
        <ele>195.2</ele>
        <time>2020-06-27T15:14:44Z</time>
      </trkpt>
      <trkpt lat="49.01366" lon="7.78221">
        <ele>195.1</ele>
        <time>2020-06-27T15:14:45Z</time>
      </trkpt>
      <trkpt lat="49.01367" lon="7.78231">
        <ele>195.1</ele>
        <time>2020-06-27T15:14:46Z</time>
      </trkpt>
      <trkpt lat="49.01368" lon="7.78242">
        <ele>195.2</ele>
        <time>2020-06-27T15:14:47Z</time>
      </trkpt>
      <trkpt lat="49.01368" lon="7.78251">
        <ele>195.2</ele>
        <time>2020-06-27T15:14:48Z</time>
      </trkpt>
      <trkpt lat="49.01368" lon="7.7826">
        <ele>195.2</ele>
        <time>2020-06-27T15:14:49Z</time>
      </trkpt>
      <trkpt lat="49.01369" lon="7.7827">
        <ele>195.1</ele>
        <time>2020-06-27T15:14:50Z</time>
      </trkpt>
      <trkpt lat="49.01368" lon="7.78279">
        <ele>195.1</ele>
        <time>2020-06-27T15:14:51Z</time>
      </trkpt>
      <trkpt lat="49.01368" lon="7.78289">
        <ele>195.2</ele>
        <time>2020-06-27T15:14:52Z</time>
      </trkpt>
      <trkpt lat="49.01366" lon="7.78299">
        <ele>195.2</ele>
        <time>2020-06-27T15:14:53Z</time>
      </trkpt>
      <trkpt lat="49.01364" lon="7.7831">
        <ele>195.2</ele>
        <time>2020-06-27T15:14:54Z</time>
      </trkpt>
      <trkpt lat="49.01361" lon="7.78321">
        <ele>195.3</ele>
        <time>2020-06-27T15:14:55Z</time>
      </trkpt>
      <trkpt lat="49.01357" lon="7.78331">
        <ele>195.3</ele>
        <time>2020-06-27T15:14:56Z</time>
      </trkpt>
      <trkpt lat="49.01353" lon="7.7834">
        <ele>195.4</ele>
        <time>2020-06-27T15:14:57Z</time>
      </trkpt>
      <trkpt lat="49.01348" lon="7.7835">
        <ele>195.5</ele>
        <time>2020-06-27T15:14:58Z</time>
      </trkpt>
      <trkpt lat="49.01344" lon="7.7836">
        <ele>195.5</ele>
        <time>2020-06-27T15:14:59Z</time>
      </trkpt>
      <trkpt lat="49.01339" lon="7.78368">
        <ele>195.6</ele>
        <time>2020-06-27T15:15:00Z</time>
      </trkpt>
      <trkpt lat="49.01333" lon="7.78375">
        <ele>195.7</ele>
        <time>2020-06-27T15:15:01Z</time>
      </trkpt>
      <trkpt lat="49.01328" lon="7.78383">
        <ele>195.8</ele>
        <time>2020-06-27T15:15:02Z</time>
      </trkpt>
      <trkpt lat="49.01323" lon="7.78391">
        <ele>195.8</ele>
        <time>2020-06-27T15:15:03Z</time>
      </trkpt>
      <trkpt lat="49.01317" lon="7.78398">
        <ele>195.9</ele>
        <time>2020-06-27T15:15:04Z</time>
      </trkpt>
      <trkpt lat="49.01312" lon="7.78405">
        <ele>195.9</ele>
        <time>2020-06-27T15:15:05Z</time>
      </trkpt>
      <trkpt lat="49.01307" lon="7.78411">
        <ele>196</ele>
        <time>2020-06-27T15:15:06Z</time>
      </trkpt>
      <trkpt lat="49.01302" lon="7.78416">
        <ele>196.1</ele>
        <time>2020-06-27T15:15:07Z</time>
      </trkpt>
      <trkpt lat="49.01296" lon="7.78423">
        <ele>196.1</ele>
        <time>2020-06-27T15:15:08Z</time>
      </trkpt>
      <trkpt lat="49.01291" lon="7.7843">
        <ele>196.2</ele>
        <time>2020-06-27T15:15:09Z</time>
      </trkpt>
      <trkpt lat="49.01287" lon="7.78437">
        <ele>196.3</ele>
        <time>2020-06-27T15:15:10Z</time>
      </trkpt>
      <trkpt lat="49.01282" lon="7.78445">
        <ele>196.4</ele>
        <time>2020-06-27T15:15:11Z</time>
      </trkpt>
      <trkpt lat="49.01276" lon="7.78452">
        <ele>196.7</ele>
        <time>2020-06-27T15:15:12Z</time>
      </trkpt>
      <trkpt lat="49.01272" lon="7.78457">
        <ele>196.7</ele>
        <time>2020-06-27T15:15:13Z</time>
      </trkpt>
      <trkpt lat="49.01267" lon="7.78463">
        <ele>196.7</ele>
        <time>2020-06-27T15:15:14Z</time>
      </trkpt>
      <trkpt lat="49.01262" lon="7.78469">
        <ele>196.7</ele>
        <time>2020-06-27T15:15:15Z</time>
      </trkpt>
      <trkpt lat="49.01257" lon="7.78476">
        <ele>196.7</ele>
        <time>2020-06-27T15:15:16Z</time>
      </trkpt>
      <trkpt lat="49.0125" lon="7.78481">
        <ele>196.8</ele>
        <time>2020-06-27T15:15:17Z</time>
      </trkpt>
      <trkpt lat="49.01246" lon="7.78486">
        <ele>196.9</ele>
        <time>2020-06-27T15:15:18Z</time>
      </trkpt>
      <trkpt lat="49.01242" lon="7.78493">
        <ele>197</ele>
        <time>2020-06-27T15:15:19Z</time>
      </trkpt>
      <trkpt lat="49.01237" lon="7.78498">
        <ele>197.1</ele>
        <time>2020-06-27T15:15:20Z</time>
      </trkpt>
      <trkpt lat="49.01231" lon="7.78506">
        <ele>197.2</ele>
        <time>2020-06-27T15:15:21Z</time>
      </trkpt>
      <trkpt lat="49.01227" lon="7.78513">
        <ele>197.3</ele>
        <time>2020-06-27T15:15:22Z</time>
      </trkpt>
      <trkpt lat="49.01223" lon="7.7852">
        <ele>197.4</ele>
        <time>2020-06-27T15:15:23Z</time>
      </trkpt>
      <trkpt lat="49.01217" lon="7.78525">
        <ele>197.5</ele>
        <time>2020-06-27T15:15:24Z</time>
      </trkpt>
      <trkpt lat="49.01212" lon="7.7853">
        <ele>197.6</ele>
        <time>2020-06-27T15:15:25Z</time>
      </trkpt>
      <trkpt lat="49.01209" lon="7.78536">
        <ele>197.6</ele>
        <time>2020-06-27T15:15:26Z</time>
      </trkpt>
      <trkpt lat="49.01205" lon="7.78541">
        <ele>197.7</ele>
        <time>2020-06-27T15:15:27Z</time>
      </trkpt>
      <trkpt lat="49.01201" lon="7.78548">
        <ele>197.7</ele>
        <time>2020-06-27T15:15:28Z</time>
      </trkpt>
      <trkpt lat="49.01196" lon="7.78554">
        <ele>197.8</ele>
        <time>2020-06-27T15:15:29Z</time>
      </trkpt>
      <trkpt lat="49.01191" lon="7.78561">
        <ele>197.8</ele>
        <time>2020-06-27T15:15:30Z</time>
      </trkpt>
      <trkpt lat="49.01187" lon="7.78569">
        <ele>197.9</ele>
        <time>2020-06-27T15:15:31Z</time>
      </trkpt>
      <trkpt lat="49.01182" lon="7.78575">
        <ele>198</ele>
        <time>2020-06-27T15:15:32Z</time>
      </trkpt>
      <trkpt lat="49.01178" lon="7.78583">
        <ele>198.1</ele>
        <time>2020-06-27T15:15:33Z</time>
      </trkpt>
      <trkpt lat="49.01173" lon="7.7859">
        <ele>198.2</ele>
        <time>2020-06-27T15:15:34Z</time>
      </trkpt>
      <trkpt lat="49.01168" lon="7.78598">
        <ele>198.3</ele>
        <time>2020-06-27T15:15:35Z</time>
      </trkpt>
      <trkpt lat="49.01163" lon="7.78604">
        <ele>198.4</ele>
        <time>2020-06-27T15:15:36Z</time>
      </trkpt>
      <trkpt lat="49.01159" lon="7.7861">
        <ele>198.5</ele>
        <time>2020-06-27T15:15:37Z</time>
      </trkpt>
      <trkpt lat="49.01155" lon="7.78616">
        <ele>198.6</ele>
        <time>2020-06-27T15:15:38Z</time>
      </trkpt>
      <trkpt lat="49.01151" lon="7.78623">
        <ele>198.8</ele>
        <time>2020-06-27T15:15:39Z</time>
      </trkpt>
      <trkpt lat="49.01146" lon="7.7863">
        <ele>199.1</ele>
        <time>2020-06-27T15:15:40Z</time>
      </trkpt>
      <trkpt lat="49.01141" lon="7.78635">
        <ele>199.2</ele>
        <time>2020-06-27T15:15:41Z</time>
      </trkpt>
      <trkpt lat="49.01137" lon="7.7864">
        <ele>199.3</ele>
        <time>2020-06-27T15:15:42Z</time>
      </trkpt>
      <trkpt lat="49.01132" lon="7.78646">
        <ele>199.4</ele>
        <time>2020-06-27T15:15:43Z</time>
      </trkpt>
      <trkpt lat="49.01128" lon="7.78651">
        <ele>199.5</ele>
        <time>2020-06-27T15:15:44Z</time>
      </trkpt>
      <trkpt lat="49.01123" lon="7.78655">
        <ele>199.6</ele>
        <time>2020-06-27T15:15:45Z</time>
      </trkpt>
      <trkpt lat="49.01118" lon="7.7866">
        <ele>199.7</ele>
        <time>2020-06-27T15:15:46Z</time>
      </trkpt>
      <trkpt lat="49.01113" lon="7.78666">
        <ele>199.7</ele>
        <time>2020-06-27T15:15:47Z</time>
      </trkpt>
      <trkpt lat="49.01109" lon="7.78671">
        <ele>199.8</ele>
        <time>2020-06-27T15:15:48Z</time>
      </trkpt>
      <trkpt lat="49.01103" lon="7.78677">
        <ele>199.9</ele>
        <time>2020-06-27T15:15:49Z</time>
      </trkpt>
      <trkpt lat="49.011" lon="7.78682">
        <ele>200</ele>
        <time>2020-06-27T15:15:50Z</time>
      </trkpt>
      <trkpt lat="49.01096" lon="7.78687">
        <ele>200.1</ele>
        <time>2020-06-27T15:15:51Z</time>
      </trkpt>
      <trkpt lat="49.01092" lon="7.78691">
        <ele>200.2</ele>
        <time>2020-06-27T15:15:52Z</time>
      </trkpt>
      <trkpt lat="49.01088" lon="7.78695">
        <ele>200.3</ele>
        <time>2020-06-27T15:15:53Z</time>
      </trkpt>
      <trkpt lat="49.01084" lon="7.78699">
        <ele>200.4</ele>
        <time>2020-06-27T15:15:54Z</time>
      </trkpt>
      <trkpt lat="49.0108" lon="7.78703">
        <ele>200.5</ele>
        <time>2020-06-27T15:15:55Z</time>
      </trkpt>
      <trkpt lat="49.01076" lon="7.78708">
        <ele>200.7</ele>
        <time>2020-06-27T15:15:56Z</time>
      </trkpt>
      <trkpt lat="49.01073" lon="7.78712">
        <ele>200.8</ele>
        <time>2020-06-27T15:15:57Z</time>
      </trkpt>
      <trkpt lat="49.01068" lon="7.78716">
        <ele>200.9</ele>
        <time>2020-06-27T15:15:58Z</time>
      </trkpt>
      <trkpt lat="49.01064" lon="7.7872">
        <ele>201.1</ele>
        <time>2020-06-27T15:15:59Z</time>
      </trkpt>
      <trkpt lat="49.01061" lon="7.78725">
        <ele>201.2</ele>
        <time>2020-06-27T15:16:00Z</time>
      </trkpt>
      <trkpt lat="49.01058" lon="7.78728">
        <ele>201.3</ele>
        <time>2020-06-27T15:16:01Z</time>
      </trkpt>
      <trkpt lat="49.01055" lon="7.78733">
        <ele>201.4</ele>
        <time>2020-06-27T15:16:02Z</time>
      </trkpt>
      <trkpt lat="49.01053" lon="7.78737">
        <ele>201.5</ele>
        <time>2020-06-27T15:16:03Z</time>
      </trkpt>
      <trkpt lat="49.0105" lon="7.7874">
        <ele>201.5</ele>
        <time>2020-06-27T15:16:04Z</time>
      </trkpt>
      <trkpt lat="49.01047" lon="7.78746">
        <ele>201.7</ele>
        <time>2020-06-27T15:16:05Z</time>
      </trkpt>
      <trkpt lat="49.01045" lon="7.78752">
        <ele>201.8</ele>
        <time>2020-06-27T15:16:06Z</time>
      </trkpt>
      <trkpt lat="49.01043" lon="7.78757">
        <ele>201.8</ele>
        <time>2020-06-27T15:16:07Z</time>
      </trkpt>
      <trkpt lat="49.01041" lon="7.78762">
        <ele>201.9</ele>
        <time>2020-06-27T15:16:08Z</time>
      </trkpt>
      <trkpt lat="49.01038" lon="7.78764">
        <ele>202</ele>
        <time>2020-06-27T15:16:09Z</time>
      </trkpt>
      <trkpt lat="49.01035" lon="7.78769">
        <ele>202.1</ele>
        <time>2020-06-27T15:16:10Z</time>
      </trkpt>
      <trkpt lat="49.01033" lon="7.78775">
        <ele>202.1</ele>
        <time>2020-06-27T15:16:11Z</time>
      </trkpt>
      <trkpt lat="49.0103" lon="7.78779">
        <ele>202.2</ele>
        <time>2020-06-27T15:16:12Z</time>
      </trkpt>
      <trkpt lat="49.01028" lon="7.78784">
        <ele>202.2</ele>
        <time>2020-06-27T15:16:13Z</time>
      </trkpt>
      <trkpt lat="49.01026" lon="7.78788">
        <ele>202.2</ele>
        <time>2020-06-27T15:16:14Z</time>
      </trkpt>
      <trkpt lat="49.01024" lon="7.78793">
        <ele>202.2</ele>
        <time>2020-06-27T15:16:15Z</time>
      </trkpt>
      <trkpt lat="49.01022" lon="7.78798">
        <ele>202.2</ele>
        <time>2020-06-27T15:16:16Z</time>
      </trkpt>
      <trkpt lat="49.01019" lon="7.78804">
        <ele>202.2</ele>
        <time>2020-06-27T15:16:17Z</time>
      </trkpt>
      <trkpt lat="49.01017" lon="7.78812">
        <ele>202.2</ele>
        <time>2020-06-27T15:16:18Z</time>
      </trkpt>
      <trkpt lat="49.01015" lon="7.78819">
        <ele>202.2</ele>
        <time>2020-06-27T15:16:19Z</time>
      </trkpt>
      <trkpt lat="49.01011" lon="7.78826">
        <ele>202.1</ele>
        <time>2020-06-27T15:16:20Z</time>
      </trkpt>
      <trkpt lat="49.01008" lon="7.78834">
        <ele>202.1</ele>
        <time>2020-06-27T15:16:21Z</time>
      </trkpt>
      <trkpt lat="49.01003" lon="7.7884">
        <ele>202</ele>
        <time>2020-06-27T15:16:22Z</time>
      </trkpt>
      <trkpt lat="49.00996" lon="7.78844">
        <ele>201.8</ele>
        <time>2020-06-27T15:16:23Z</time>
      </trkpt>
      <trkpt lat="49.0099" lon="7.78847">
        <ele>201.5</ele>
        <time>2020-06-27T15:16:24Z</time>
      </trkpt>
      <trkpt lat="49.00983" lon="7.7885">
        <ele>201.3</ele>
        <time>2020-06-27T15:16:25Z</time>
      </trkpt>
      <trkpt lat="49.00976" lon="7.78853">
        <ele>201</ele>
        <time>2020-06-27T15:16:26Z</time>
      </trkpt>
      <trkpt lat="49.0097" lon="7.78857">
        <ele>200.8</ele>
        <time>2020-06-27T15:16:27Z</time>
      </trkpt>
      <trkpt lat="49.00963" lon="7.78859">
        <ele>200.6</ele>
        <time>2020-06-27T15:16:28Z</time>
      </trkpt>
      <trkpt lat="49.00956" lon="7.78862">
        <ele>200.3</ele>
        <time>2020-06-27T15:16:29Z</time>
      </trkpt>
      <trkpt lat="49.00949" lon="7.78865">
        <ele>200</ele>
        <time>2020-06-27T15:16:30Z</time>
      </trkpt>
      <trkpt lat="49.00939" lon="7.78867">
        <ele>199.7</ele>
        <time>2020-06-27T15:16:31Z</time>
      </trkpt>
      <trkpt lat="49.0093" lon="7.78869">
        <ele>199.4</ele>
        <time>2020-06-27T15:16:32Z</time>
      </trkpt>
      <trkpt lat="49.00924" lon="7.78871">
        <ele>199.1</ele>
        <time>2020-06-27T15:16:33Z</time>
      </trkpt>
      <trkpt lat="49.00916" lon="7.78873">
        <ele>198.8</ele>
        <time>2020-06-27T15:16:34Z</time>
      </trkpt>
      <trkpt lat="49.00908" lon="7.78876">
        <ele>198.5</ele>
        <time>2020-06-27T15:16:35Z</time>
      </trkpt>
      <trkpt lat="49.009" lon="7.78878">
        <ele>198.2</ele>
        <time>2020-06-27T15:16:36Z</time>
      </trkpt>
      <trkpt lat="49.00892" lon="7.78881">
        <ele>197.9</ele>
        <time>2020-06-27T15:16:37Z</time>
      </trkpt>
      <trkpt lat="49.00884" lon="7.78883">
        <ele>197.7</ele>
        <time>2020-06-27T15:16:38Z</time>
      </trkpt>
      <trkpt lat="49.00876" lon="7.78886">
        <ele>197.4</ele>
        <time>2020-06-27T15:16:39Z</time>
      </trkpt>
      <trkpt lat="49.00868" lon="7.7889">
        <ele>197.1</ele>
        <time>2020-06-27T15:16:40Z</time>
      </trkpt>
      <trkpt lat="49.0086" lon="7.78893">
        <ele>196.9</ele>
        <time>2020-06-27T15:16:41Z</time>
      </trkpt>
      <trkpt lat="49.00852" lon="7.78896">
        <ele>196.6</ele>
        <time>2020-06-27T15:16:42Z</time>
      </trkpt>
      <trkpt lat="49.00845" lon="7.789">
        <ele>196.5</ele>
        <time>2020-06-27T15:16:43Z</time>
      </trkpt>
      <trkpt lat="49.00837" lon="7.78903">
        <ele>196.3</ele>
        <time>2020-06-27T15:16:44Z</time>
      </trkpt>
      <trkpt lat="49.00829" lon="7.78905">
        <ele>196.1</ele>
        <time>2020-06-27T15:16:45Z</time>
      </trkpt>
      <trkpt lat="49.00822" lon="7.78909">
        <ele>196</ele>
        <time>2020-06-27T15:16:46Z</time>
      </trkpt>
      <trkpt lat="49.00815" lon="7.78911">
        <ele>196</ele>
        <time>2020-06-27T15:16:47Z</time>
      </trkpt>
      <trkpt lat="49.00808" lon="7.78913">
        <ele>195.9</ele>
        <time>2020-06-27T15:16:48Z</time>
      </trkpt>
      <trkpt lat="49.00803" lon="7.78915">
        <ele>195.9</ele>
        <time>2020-06-27T15:16:49Z</time>
      </trkpt>
      <trkpt lat="49.00798" lon="7.78917">
        <ele>195.9</ele>
        <time>2020-06-27T15:16:50Z</time>
      </trkpt>
      <trkpt lat="49.00792" lon="7.78917">
        <ele>196</ele>
        <time>2020-06-27T15:16:51Z</time>
      </trkpt>
      <trkpt lat="49.00788" lon="7.7892">
        <ele>196</ele>
        <time>2020-06-27T15:16:52Z</time>
      </trkpt>
      <trkpt lat="49.00783" lon="7.78921">
        <ele>196.1</ele>
        <time>2020-06-27T15:16:53Z</time>
      </trkpt>
      <trkpt lat="49.0078" lon="7.7892">
        <ele>196.2</ele>
        <time>2020-06-27T15:16:54Z</time>
      </trkpt>
      <trkpt lat="49.00776" lon="7.78918">
        <ele>196.2</ele>
        <time>2020-06-27T15:16:55Z</time>
      </trkpt>
      <trkpt lat="49.00774" lon="7.78919">
        <ele>196.2</ele>
        <time>2020-06-27T15:16:56Z</time>
      </trkpt>
      <trkpt lat="49.00773" lon="7.7892">
        <ele>196.2</ele>
        <time>2020-06-27T15:16:57Z</time>
      </trkpt>
      <trkpt lat="49.00773" lon="7.78919">
        <ele>196.2</ele>
        <time>2020-06-27T15:16:58Z</time>
      </trkpt>
      <trkpt lat="49.00773" lon="7.78919">
        <ele>196.2</ele>
        <time>2020-06-27T15:16:59Z</time>
      </trkpt>
      <trkpt lat="49.00773" lon="7.78919">
        <ele>196.2</ele>
        <time>2020-06-27T15:17:00Z</time>
      </trkpt>
      <trkpt lat="49.00773" lon="7.78919">
        <ele>196.2</ele>
        <time>2020-06-27T15:17:01Z</time>
      </trkpt>
      <trkpt lat="49.00773" lon="7.78918">
        <ele>196.2</ele>
        <time>2020-06-27T15:17:02Z</time>
      </trkpt>
      <trkpt lat="49.00773" lon="7.78917">
        <ele>196.2</ele>
        <time>2020-06-27T15:17:03Z</time>
      </trkpt>
      <trkpt lat="49.00772" lon="7.78915">
        <ele>196.1</ele>
        <time>2020-06-27T15:17:04Z</time>
      </trkpt>
      <trkpt lat="49.00772" lon="7.78916">
        <ele>196.1</ele>
        <time>2020-06-27T15:17:05Z</time>
      </trkpt>
      <trkpt lat="49.00772" lon="7.78917">
        <ele>196.1</ele>
        <time>2020-06-27T15:17:06Z</time>
      </trkpt>
      <trkpt lat="49.00771" lon="7.78918">
        <ele>196.1</ele>
        <time>2020-06-27T15:17:07Z</time>
      </trkpt>
      <trkpt lat="49.00771" lon="7.78919">
        <ele>196.1</ele>
        <time>2020-06-27T15:17:08Z</time>
      </trkpt>
      <trkpt lat="49.00771" lon="7.78921">
        <ele>196.1</ele>
        <time>2020-06-27T15:17:09Z</time>
      </trkpt>
      <trkpt lat="49.00771" lon="7.7892">
        <ele>196.1</ele>
        <time>2020-06-27T15:17:10Z</time>
      </trkpt>
      <trkpt lat="49.00772" lon="7.7892">
        <ele>196.1</ele>
        <time>2020-06-27T15:17:11Z</time>
      </trkpt>
      <trkpt lat="49.00773" lon="7.78919">
        <ele>196</ele>
        <time>2020-06-27T15:17:12Z</time>
      </trkpt>
      <trkpt lat="49.00773" lon="7.78919">
        <ele>196</ele>
        <time>2020-06-27T15:17:13Z</time>
      </trkpt>
      <trkpt lat="49.00774" lon="7.78918">
        <ele>196</ele>
        <time>2020-06-27T15:17:14Z</time>
      </trkpt>
      <trkpt lat="49.00775" lon="7.78918">
        <ele>196</ele>
        <time>2020-06-27T15:17:15Z</time>
      </trkpt>
      <trkpt lat="49.00776" lon="7.78917">
        <ele>196</ele>
        <time>2020-06-27T15:17:16Z</time>
      </trkpt>
      <trkpt lat="49.00776" lon="7.78916">
        <ele>196</ele>
        <time>2020-06-27T15:17:17Z</time>
      </trkpt>
      <trkpt lat="49.00777" lon="7.78916">
        <ele>196</ele>
        <time>2020-06-27T15:17:18Z</time>
      </trkpt>
      <trkpt lat="49.00778" lon="7.78915">
        <ele>196</ele>
        <time>2020-06-27T15:17:19Z</time>
      </trkpt>
      <trkpt lat="49.00778" lon="7.78915">
        <ele>196</ele>
        <time>2020-06-27T15:17:20Z</time>
      </trkpt>
      <trkpt lat="49.00779" lon="7.78914">
        <ele>196</ele>
        <time>2020-06-27T15:17:21Z</time>
      </trkpt>
      <trkpt lat="49.0078" lon="7.78914">
        <ele>195.9</ele>
        <time>2020-06-27T15:17:31Z</time>
      </trkpt>
      <trkpt lat="49.0078" lon="7.78913">
        <ele>195.9</ele>
        <time>2020-06-27T15:17:32Z</time>
      </trkpt>
      <trkpt lat="49.00781" lon="7.78913">
        <ele>195.9</ele>
        <time>2020-06-27T15:17:33Z</time>
      </trkpt>
      <trkpt lat="49.00784" lon="7.78917">
        <ele>195.9</ele>
        <time>2020-06-27T15:17:34Z</time>
      </trkpt>
      <trkpt lat="49.00787" lon="7.78916">
        <ele>195.9</ele>
        <time>2020-06-27T15:17:35Z</time>
      </trkpt>
      <trkpt lat="49.0079" lon="7.78915">
        <ele>195.9</ele>
        <time>2020-06-27T15:17:36Z</time>
      </trkpt>
      <trkpt lat="49.00793" lon="7.78912">
        <ele>195.9</ele>
        <time>2020-06-27T15:17:37Z</time>
      </trkpt>
      <trkpt lat="49.00796" lon="7.7891">
        <ele>195.9</ele>
        <time>2020-06-27T15:17:38Z</time>
      </trkpt>
      <trkpt lat="49.00799" lon="7.78909">
        <ele>195.9</ele>
        <time>2020-06-27T15:17:39Z</time>
      </trkpt>
      <trkpt lat="49.00804" lon="7.78913">
        <ele>196</ele>
        <time>2020-06-27T15:17:40Z</time>
      </trkpt>
      <trkpt lat="49.00808" lon="7.78911">
        <ele>196</ele>
        <time>2020-06-27T15:17:41Z</time>
      </trkpt>
      <trkpt lat="49.00812" lon="7.7891">
        <ele>196.1</ele>
        <time>2020-06-27T15:17:42Z</time>
      </trkpt>
      <trkpt lat="49.00816" lon="7.78908">
        <ele>196.1</ele>
        <time>2020-06-27T15:17:43Z</time>
      </trkpt>
      <trkpt lat="49.0082" lon="7.78907">
        <ele>196.2</ele>
        <time>2020-06-27T15:17:44Z</time>
      </trkpt>
      <trkpt lat="49.00825" lon="7.78907">
        <ele>196.3</ele>
        <time>2020-06-27T15:17:45Z</time>
      </trkpt>
      <trkpt lat="49.0083" lon="7.78906">
        <ele>196.3</ele>
        <time>2020-06-27T15:17:46Z</time>
      </trkpt>
      <trkpt lat="49.00834" lon="7.78904">
        <ele>196.4</ele>
        <time>2020-06-27T15:17:47Z</time>
      </trkpt>
      <trkpt lat="49.00838" lon="7.78902">
        <ele>196.5</ele>
        <time>2020-06-27T15:17:48Z</time>
      </trkpt>
      <trkpt lat="49.00842" lon="7.78901">
        <ele>196.6</ele>
        <time>2020-06-27T15:17:49Z</time>
      </trkpt>
      <trkpt lat="49.00846" lon="7.789">
        <ele>196.7</ele>
        <time>2020-06-27T15:17:50Z</time>
      </trkpt>
      <trkpt lat="49.00851" lon="7.78898">
        <ele>196.8</ele>
        <time>2020-06-27T15:17:51Z</time>
      </trkpt>
      <trkpt lat="49.00855" lon="7.78897">
        <ele>196.9</ele>
        <time>2020-06-27T15:17:52Z</time>
      </trkpt>
      <trkpt lat="49.00859" lon="7.78895">
        <ele>197.1</ele>
        <time>2020-06-27T15:17:53Z</time>
      </trkpt>
      <trkpt lat="49.00864" lon="7.78894">
        <ele>197.2</ele>
        <time>2020-06-27T15:17:54Z</time>
      </trkpt>
      <trkpt lat="49.00868" lon="7.78892">
        <ele>197.3</ele>
        <time>2020-06-27T15:17:55Z</time>
      </trkpt>
      <trkpt lat="49.00873" lon="7.78891">
        <ele>197.4</ele>
        <time>2020-06-27T15:17:56Z</time>
      </trkpt>
      <trkpt lat="49.00876" lon="7.7889">
        <ele>197.5</ele>
        <time>2020-06-27T15:17:57Z</time>
      </trkpt>
      <trkpt lat="49.0088" lon="7.78889">
        <ele>197.7</ele>
        <time>2020-06-27T15:17:58Z</time>
      </trkpt>
      <trkpt lat="49.00884" lon="7.78887">
        <ele>197.8</ele>
        <time>2020-06-27T15:17:59Z</time>
      </trkpt>
      <trkpt lat="49.00888" lon="7.78886">
        <ele>197.9</ele>
        <time>2020-06-27T15:18:00Z</time>
      </trkpt>
      <trkpt lat="49.00893" lon="7.78885">
        <ele>198</ele>
        <time>2020-06-27T15:18:01Z</time>
      </trkpt>
      <trkpt lat="49.00897" lon="7.78883">
        <ele>198.2</ele>
        <time>2020-06-27T15:18:02Z</time>
      </trkpt>
      <trkpt lat="49.00902" lon="7.78882">
        <ele>198.3</ele>
        <time>2020-06-27T15:18:03Z</time>
      </trkpt>
      <trkpt lat="49.00907" lon="7.78881">
        <ele>198.5</ele>
        <time>2020-06-27T15:18:04Z</time>
      </trkpt>
      <trkpt lat="49.00911" lon="7.7888">
        <ele>198.6</ele>
        <time>2020-06-27T15:18:05Z</time>
      </trkpt>
      <trkpt lat="49.00915" lon="7.78879">
        <ele>198.8</ele>
        <time>2020-06-27T15:18:06Z</time>
      </trkpt>
      <trkpt lat="49.00918" lon="7.78878">
        <ele>198.9</ele>
        <time>2020-06-27T15:18:07Z</time>
      </trkpt>
      <trkpt lat="49.00921" lon="7.78877">
        <ele>199</ele>
        <time>2020-06-27T15:18:08Z</time>
      </trkpt>
      <trkpt lat="49.00925" lon="7.78876">
        <ele>199.1</ele>
        <time>2020-06-27T15:18:09Z</time>
      </trkpt>
      <trkpt lat="49.00929" lon="7.78874">
        <ele>199.2</ele>
        <time>2020-06-27T15:18:10Z</time>
      </trkpt>
      <trkpt lat="49.00932" lon="7.78873">
        <ele>199.4</ele>
        <time>2020-06-27T15:18:11Z</time>
      </trkpt>
      <trkpt lat="49.00935" lon="7.78874">
        <ele>199.5</ele>
        <time>2020-06-27T15:18:12Z</time>
      </trkpt>
      <trkpt lat="49.00936" lon="7.78875">
        <ele>199.5</ele>
        <time>2020-06-27T15:18:13Z</time>
      </trkpt>
      <trkpt lat="49.00938" lon="7.78879">
        <ele>199.6</ele>
        <time>2020-06-27T15:18:14Z</time>
      </trkpt>
      <trkpt lat="49.00941" lon="7.78883">
        <ele>200.2</ele>
        <time>2020-06-27T15:18:15Z</time>
      </trkpt>
      <trkpt lat="49.00944" lon="7.78889">
        <ele>200.4</ele>
        <time>2020-06-27T15:18:16Z</time>
      </trkpt>
      <trkpt lat="49.00947" lon="7.78895">
        <ele>200.5</ele>
        <time>2020-06-27T15:18:17Z</time>
      </trkpt>
      <trkpt lat="49.00949" lon="7.78902">
        <ele>200.6</ele>
        <time>2020-06-27T15:18:18Z</time>
      </trkpt>
      <trkpt lat="49.00951" lon="7.78908">
        <ele>200.7</ele>
        <time>2020-06-27T15:18:19Z</time>
      </trkpt>
      <trkpt lat="49.00953" lon="7.78914">
        <ele>200.9</ele>
        <time>2020-06-27T15:18:20Z</time>
      </trkpt>
      <trkpt lat="49.00954" lon="7.78919">
        <ele>201</ele>
        <time>2020-06-27T15:18:21Z</time>
      </trkpt>
      <trkpt lat="49.00956" lon="7.78924">
        <ele>201.2</ele>
        <time>2020-06-27T15:18:22Z</time>
      </trkpt>
      <trkpt lat="49.00972" lon="7.78927">
        <ele>201.9</ele>
        <time>2020-06-27T15:18:23Z</time>
      </trkpt>
      <trkpt lat="49.00973" lon="7.7893">
        <ele>202</ele>
        <time>2020-06-27T15:18:24Z</time>
      </trkpt>
      <trkpt lat="49.00976" lon="7.78935">
        <ele>202.2</ele>
        <time>2020-06-27T15:18:25Z</time>
      </trkpt>
      <trkpt lat="49.00977" lon="7.78941">
        <ele>202.4</ele>
        <time>2020-06-27T15:18:26Z</time>
      </trkpt>
      <trkpt lat="49.00979" lon="7.78946">
        <ele>202.6</ele>
        <time>2020-06-27T15:18:27Z</time>
      </trkpt>
      <trkpt lat="49.0098" lon="7.7895">
        <ele>202.8</ele>
        <time>2020-06-27T15:18:28Z</time>
      </trkpt>
      <trkpt lat="49.0098" lon="7.78954">
        <ele>203</ele>
        <time>2020-06-27T15:18:29Z</time>
      </trkpt>
      <trkpt lat="49.0098" lon="7.78959">
        <ele>203.2</ele>
        <time>2020-06-27T15:18:30Z</time>
      </trkpt>
      <trkpt lat="49.00981" lon="7.78964">
        <ele>203.4</ele>
        <time>2020-06-27T15:18:31Z</time>
      </trkpt>
      <trkpt lat="49.00981" lon="7.7897">
        <ele>203.6</ele>
        <time>2020-06-27T15:18:32Z</time>
      </trkpt>
      <trkpt lat="49.0098" lon="7.78975">
        <ele>203.8</ele>
        <time>2020-06-27T15:18:33Z</time>
      </trkpt>
      <trkpt lat="49.00978" lon="7.7898">
        <ele>204</ele>
        <time>2020-06-27T15:18:34Z</time>
      </trkpt>
      <trkpt lat="49.00977" lon="7.78985">
        <ele>204.2</ele>
        <time>2020-06-27T15:18:35Z</time>
      </trkpt>
      <trkpt lat="49.00976" lon="7.78991">
        <ele>204.4</ele>
        <time>2020-06-27T15:18:36Z</time>
      </trkpt>
      <trkpt lat="49.00974" lon="7.78997">
        <ele>204.5</ele>
        <time>2020-06-27T15:18:37Z</time>
      </trkpt>
      <trkpt lat="49.00971" lon="7.79">
        <ele>204.7</ele>
        <time>2020-06-27T15:18:38Z</time>
      </trkpt>
      <trkpt lat="49.00968" lon="7.79003">
        <ele>204.8</ele>
        <time>2020-06-27T15:18:39Z</time>
      </trkpt>
      <trkpt lat="49.00963" lon="7.79005">
        <ele>205</ele>
        <time>2020-06-27T15:18:40Z</time>
      </trkpt>
      <trkpt lat="49.00959" lon="7.79007">
        <ele>205.1</ele>
        <time>2020-06-27T15:18:41Z</time>
      </trkpt>
      <trkpt lat="49.00955" lon="7.7901">
        <ele>205.2</ele>
        <time>2020-06-27T15:18:42Z</time>
      </trkpt>
      <trkpt lat="49.00951" lon="7.79013">
        <ele>205.4</ele>
        <time>2020-06-27T15:18:43Z</time>
      </trkpt>
      <trkpt lat="49.00948" lon="7.79018">
        <ele>205.5</ele>
        <time>2020-06-27T15:18:44Z</time>
      </trkpt>
      <trkpt lat="49.00945" lon="7.79023">
        <ele>205.6</ele>
        <time>2020-06-27T15:18:45Z</time>
      </trkpt>
      <trkpt lat="49.00942" lon="7.79027">
        <ele>205.9</ele>
        <time>2020-06-27T15:18:46Z</time>
      </trkpt>
      <trkpt lat="49.00939" lon="7.7903">
        <ele>206</ele>
        <time>2020-06-27T15:18:47Z</time>
      </trkpt>
      <trkpt lat="49.00936" lon="7.79034">
        <ele>206</ele>
        <time>2020-06-27T15:18:48Z</time>
      </trkpt>
      <trkpt lat="49.00934" lon="7.79038">
        <ele>206.1</ele>
        <time>2020-06-27T15:18:49Z</time>
      </trkpt>
      <trkpt lat="49.00932" lon="7.79043">
        <ele>206.1</ele>
        <time>2020-06-27T15:18:50Z</time>
      </trkpt>
      <trkpt lat="49.00931" lon="7.79048">
        <ele>206.2</ele>
        <time>2020-06-27T15:18:51Z</time>
      </trkpt>
      <trkpt lat="49.00931" lon="7.79052">
        <ele>206.3</ele>
        <time>2020-06-27T15:18:52Z</time>
      </trkpt>
      <trkpt lat="49.00931" lon="7.79058">
        <ele>206.3</ele>
        <time>2020-06-27T15:18:53Z</time>
      </trkpt>
      <trkpt lat="49.00931" lon="7.79063">
        <ele>206.4</ele>
        <time>2020-06-27T15:18:54Z</time>
      </trkpt>
      <trkpt lat="49.00932" lon="7.79067">
        <ele>206.6</ele>
        <time>2020-06-27T15:18:55Z</time>
      </trkpt>
      <trkpt lat="49.00935" lon="7.79071">
        <ele>206.8</ele>
        <time>2020-06-27T15:18:56Z</time>
      </trkpt>
      <trkpt lat="49.00937" lon="7.79076">
        <ele>206.9</ele>
        <time>2020-06-27T15:18:57Z</time>
      </trkpt>
      <trkpt lat="49.0094" lon="7.79081">
        <ele>207.1</ele>
        <time>2020-06-27T15:18:58Z</time>
      </trkpt>
      <trkpt lat="49.00943" lon="7.79085">
        <ele>207.2</ele>
        <time>2020-06-27T15:18:59Z</time>
      </trkpt>
      <trkpt lat="49.00946" lon="7.79089">
        <ele>207.4</ele>
        <time>2020-06-27T15:19:00Z</time>
      </trkpt>
      <trkpt lat="49.00949" lon="7.79093">
        <ele>207.5</ele>
        <time>2020-06-27T15:19:01Z</time>
      </trkpt>
      <trkpt lat="49.00953" lon="7.79096">
        <ele>207.7</ele>
        <time>2020-06-27T15:19:02Z</time>
      </trkpt>
      <trkpt lat="49.00956" lon="7.79099">
        <ele>207.9</ele>
        <time>2020-06-27T15:19:03Z</time>
      </trkpt>
      <trkpt lat="49.0096" lon="7.79102">
        <ele>208.1</ele>
        <time>2020-06-27T15:19:04Z</time>
      </trkpt>
      <trkpt lat="49.00963" lon="7.79104">
        <ele>208.3</ele>
        <time>2020-06-27T15:19:05Z</time>
      </trkpt>
      <trkpt lat="49.00967" lon="7.79107">
        <ele>208.5</ele>
        <time>2020-06-27T15:19:06Z</time>
      </trkpt>
      <trkpt lat="49.0097" lon="7.7911">
        <ele>208.6</ele>
        <time>2020-06-27T15:19:07Z</time>
      </trkpt>
      <trkpt lat="49.00973" lon="7.79113">
        <ele>208.8</ele>
        <time>2020-06-27T15:19:08Z</time>
      </trkpt>
      <trkpt lat="49.00976" lon="7.79116">
        <ele>209</ele>
        <time>2020-06-27T15:19:09Z</time>
      </trkpt>
      <trkpt lat="49.00979" lon="7.79119">
        <ele>209.2</ele>
        <time>2020-06-27T15:19:10Z</time>
      </trkpt>
      <trkpt lat="49.00982" lon="7.79122">
        <ele>209.3</ele>
        <time>2020-06-27T15:19:11Z</time>
      </trkpt>
      <trkpt lat="49.00984" lon="7.79125">
        <ele>209.5</ele>
        <time>2020-06-27T15:19:12Z</time>
      </trkpt>
      <trkpt lat="49.00987" lon="7.79129">
        <ele>209.7</ele>
        <time>2020-06-27T15:19:13Z</time>
      </trkpt>
      <trkpt lat="49.0099" lon="7.79132">
        <ele>209.9</ele>
        <time>2020-06-27T15:19:14Z</time>
      </trkpt>
      <trkpt lat="49.00993" lon="7.79134">
        <ele>210.1</ele>
        <time>2020-06-27T15:19:15Z</time>
      </trkpt>
      <trkpt lat="49.00996" lon="7.79137">
        <ele>210.3</ele>
        <time>2020-06-27T15:19:16Z</time>
      </trkpt>
      <trkpt lat="49.00999" lon="7.79141">
        <ele>210.5</ele>
        <time>2020-06-27T15:19:17Z</time>
      </trkpt>
      <trkpt lat="49.01002" lon="7.79144">
        <ele>210.7</ele>
        <time>2020-06-27T15:19:18Z</time>
      </trkpt>
      <trkpt lat="49.01004" lon="7.79147">
        <ele>210.9</ele>
        <time>2020-06-27T15:19:19Z</time>
      </trkpt>
      <trkpt lat="49.01007" lon="7.7915">
        <ele>211.1</ele>
        <time>2020-06-27T15:19:20Z</time>
      </trkpt>
      <trkpt lat="49.0101" lon="7.79153">
        <ele>211.3</ele>
        <time>2020-06-27T15:19:21Z</time>
      </trkpt>
      <trkpt lat="49.01013" lon="7.79157">
        <ele>211.5</ele>
        <time>2020-06-27T15:19:22Z</time>
      </trkpt>
      <trkpt lat="49.01017" lon="7.79161">
        <ele>211.7</ele>
        <time>2020-06-27T15:19:23Z</time>
      </trkpt>
      <trkpt lat="49.0102" lon="7.79165">
        <ele>211.9</ele>
        <time>2020-06-27T15:19:24Z</time>
      </trkpt>
      <trkpt lat="49.01023" lon="7.79168">
        <ele>212.1</ele>
        <time>2020-06-27T15:19:25Z</time>
      </trkpt>
      <trkpt lat="49.01026" lon="7.79172">
        <ele>212.3</ele>
        <time>2020-06-27T15:19:26Z</time>
      </trkpt>
      <trkpt lat="49.01029" lon="7.79176">
        <ele>212.6</ele>
        <time>2020-06-27T15:19:27Z</time>
      </trkpt>
      <trkpt lat="49.01032" lon="7.7918">
        <ele>212.8</ele>
        <time>2020-06-27T15:19:28Z</time>
      </trkpt>
      <trkpt lat="49.01035" lon="7.79184">
        <ele>213</ele>
        <time>2020-06-27T15:19:29Z</time>
      </trkpt>
      <trkpt lat="49.01038" lon="7.79187">
        <ele>213.2</ele>
        <time>2020-06-27T15:19:30Z</time>
      </trkpt>
      <trkpt lat="49.0104" lon="7.7919">
        <ele>213.4</ele>
        <time>2020-06-27T15:19:31Z</time>
      </trkpt>
      <trkpt lat="49.01043" lon="7.79193">
        <ele>213.6</ele>
        <time>2020-06-27T15:19:32Z</time>
      </trkpt>
      <trkpt lat="49.01045" lon="7.79197">
        <ele>213.7</ele>
        <time>2020-06-27T15:19:33Z</time>
      </trkpt>
      <trkpt lat="49.01047" lon="7.792">
        <ele>213.9</ele>
        <time>2020-06-27T15:19:34Z</time>
      </trkpt>
      <trkpt lat="49.0105" lon="7.79202">
        <ele>214.1</ele>
        <time>2020-06-27T15:19:35Z</time>
      </trkpt>
      <trkpt lat="49.01052" lon="7.79205">
        <ele>214.3</ele>
        <time>2020-06-27T15:19:36Z</time>
      </trkpt>
      <trkpt lat="49.01055" lon="7.79208">
        <ele>214.5</ele>
        <time>2020-06-27T15:19:37Z</time>
      </trkpt>
      <trkpt lat="49.01057" lon="7.7921">
        <ele>214.7</ele>
        <time>2020-06-27T15:19:38Z</time>
      </trkpt>
      <trkpt lat="49.0106" lon="7.79213">
        <ele>215</ele>
        <time>2020-06-27T15:19:39Z</time>
      </trkpt>
      <trkpt lat="49.01063" lon="7.79215">
        <ele>215.2</ele>
        <time>2020-06-27T15:19:40Z</time>
      </trkpt>
      <trkpt lat="49.01065" lon="7.79218">
        <ele>215.4</ele>
        <time>2020-06-27T15:19:41Z</time>
      </trkpt>
      <trkpt lat="49.01068" lon="7.79221">
        <ele>215.7</ele>
        <time>2020-06-27T15:19:42Z</time>
      </trkpt>
      <trkpt lat="49.0107" lon="7.79223">
        <ele>215.9</ele>
        <time>2020-06-27T15:19:43Z</time>
      </trkpt>
      <trkpt lat="49.01072" lon="7.79226">
        <ele>216.1</ele>
        <time>2020-06-27T15:19:44Z</time>
      </trkpt>
      <trkpt lat="49.01074" lon="7.79229">
        <ele>216.4</ele>
        <time>2020-06-27T15:19:45Z</time>
      </trkpt>
      <trkpt lat="49.01076" lon="7.79232">
        <ele>216.6</ele>
        <time>2020-06-27T15:19:46Z</time>
      </trkpt>
      <trkpt lat="49.01078" lon="7.79235">
        <ele>216.9</ele>
        <time>2020-06-27T15:19:47Z</time>
      </trkpt>
      <trkpt lat="49.0108" lon="7.79239">
        <ele>217.1</ele>
        <time>2020-06-27T15:19:48Z</time>
      </trkpt>
      <trkpt lat="49.01083" lon="7.79241">
        <ele>217.4</ele>
        <time>2020-06-27T15:19:49Z</time>
      </trkpt>
      <trkpt lat="49.01085" lon="7.79244">
        <ele>217.7</ele>
        <time>2020-06-27T15:19:50Z</time>
      </trkpt>
      <trkpt lat="49.01087" lon="7.79247">
        <ele>217.9</ele>
        <time>2020-06-27T15:19:51Z</time>
      </trkpt>
      <trkpt lat="49.01089" lon="7.7925">
        <ele>218.2</ele>
        <time>2020-06-27T15:19:52Z</time>
      </trkpt>
      <trkpt lat="49.01092" lon="7.79252">
        <ele>218.4</ele>
        <time>2020-06-27T15:19:53Z</time>
      </trkpt>
      <trkpt lat="49.01094" lon="7.79255">
        <ele>218.7</ele>
        <time>2020-06-27T15:19:54Z</time>
      </trkpt>
      <trkpt lat="49.01096" lon="7.79259">
        <ele>218.9</ele>
        <time>2020-06-27T15:19:55Z</time>
      </trkpt>
      <trkpt lat="49.01098" lon="7.79262">
        <ele>219.2</ele>
        <time>2020-06-27T15:19:56Z</time>
      </trkpt>
      <trkpt lat="49.011" lon="7.79265">
        <ele>219.4</ele>
        <time>2020-06-27T15:19:57Z</time>
      </trkpt>
      <trkpt lat="49.01102" lon="7.79269">
        <ele>219.7</ele>
        <time>2020-06-27T15:19:58Z</time>
      </trkpt>
      <trkpt lat="49.01104" lon="7.79273">
        <ele>220.1</ele>
        <time>2020-06-27T15:19:59Z</time>
      </trkpt>
      <trkpt lat="49.01105" lon="7.79274">
        <ele>220.2</ele>
        <time>2020-06-27T15:20:00Z</time>
      </trkpt>
      <trkpt lat="49.01108" lon="7.79278">
        <ele>220.6</ele>
        <time>2020-06-27T15:20:01Z</time>
      </trkpt>
      <trkpt lat="49.01109" lon="7.7928">
        <ele>220.7</ele>
        <time>2020-06-27T15:20:02Z</time>
      </trkpt>
      <trkpt lat="49.01111" lon="7.79282">
        <ele>221</ele>
        <time>2020-06-27T15:20:03Z</time>
      </trkpt>
      <trkpt lat="49.01113" lon="7.79286">
        <ele>221.3</ele>
        <time>2020-06-27T15:20:04Z</time>
      </trkpt>
      <trkpt lat="49.01114" lon="7.7929">
        <ele>221.6</ele>
        <time>2020-06-27T15:20:05Z</time>
      </trkpt>
      <trkpt lat="49.01116" lon="7.79294">
        <ele>221.9</ele>
        <time>2020-06-27T15:20:06Z</time>
      </trkpt>
      <trkpt lat="49.01118" lon="7.79298">
        <ele>222.3</ele>
        <time>2020-06-27T15:20:07Z</time>
      </trkpt>
      <trkpt lat="49.01119" lon="7.793">
        <ele>222.4</ele>
        <time>2020-06-27T15:20:08Z</time>
      </trkpt>
      <trkpt lat="49.01123" lon="7.79303">
        <ele>222.8</ele>
        <time>2020-06-27T15:20:09Z</time>
      </trkpt>
      <trkpt lat="49.01124" lon="7.79304">
        <ele>222.9</ele>
        <time>2020-06-27T15:20:10Z</time>
      </trkpt>
      <trkpt lat="49.01126" lon="7.79306">
        <ele>223.2</ele>
        <time>2020-06-27T15:20:11Z</time>
      </trkpt>
      <trkpt lat="49.01129" lon="7.7931">
        <ele>223.6</ele>
        <time>2020-06-27T15:20:12Z</time>
      </trkpt>
      <trkpt lat="49.0113" lon="7.79312">
        <ele>223.8</ele>
        <time>2020-06-27T15:20:13Z</time>
      </trkpt>
      <trkpt lat="49.01132" lon="7.79317">
        <ele>224.2</ele>
        <time>2020-06-27T15:20:14Z</time>
      </trkpt>
      <trkpt lat="49.01133" lon="7.79318">
        <ele>224.3</ele>
        <time>2020-06-27T15:20:15Z</time>
      </trkpt>
      <trkpt lat="49.01136" lon="7.79322">
        <ele>224.7</ele>
        <time>2020-06-27T15:20:16Z</time>
      </trkpt>
      <trkpt lat="49.01137" lon="7.79324">
        <ele>224.8</ele>
        <time>2020-06-27T15:20:17Z</time>
      </trkpt>
      <trkpt lat="49.01139" lon="7.79326">
        <ele>225.1</ele>
        <time>2020-06-27T15:20:18Z</time>
      </trkpt>
      <trkpt lat="49.01142" lon="7.7933">
        <ele>225.5</ele>
        <time>2020-06-27T15:20:19Z</time>
      </trkpt>
      <trkpt lat="49.01143" lon="7.79331">
        <ele>225.6</ele>
        <time>2020-06-27T15:20:20Z</time>
      </trkpt>
      <trkpt lat="49.01146" lon="7.79335">
        <ele>226</ele>
        <time>2020-06-27T15:20:21Z</time>
      </trkpt>
      <trkpt lat="49.01146" lon="7.79336">
        <ele>226.1</ele>
        <time>2020-06-27T15:20:22Z</time>
      </trkpt>
      <trkpt lat="49.01149" lon="7.7934">
        <ele>226.1</ele>
        <time>2020-06-27T15:20:23Z</time>
      </trkpt>
      <trkpt lat="49.0115" lon="7.79342">
        <ele>226.1</ele>
        <time>2020-06-27T15:20:24Z</time>
      </trkpt>
      <trkpt lat="49.01152" lon="7.79345">
        <ele>226</ele>
        <time>2020-06-27T15:20:25Z</time>
      </trkpt>
      <trkpt lat="49.01155" lon="7.79349">
        <ele>226.3</ele>
        <time>2020-06-27T15:20:26Z</time>
      </trkpt>
      <trkpt lat="49.01157" lon="7.79353">
        <ele>226.6</ele>
        <time>2020-06-27T15:20:27Z</time>
      </trkpt>
      <trkpt lat="49.01159" lon="7.79356">
        <ele>226.8</ele>
        <time>2020-06-27T15:20:28Z</time>
      </trkpt>
      <trkpt lat="49.01161" lon="7.7936">
        <ele>227.1</ele>
        <time>2020-06-27T15:20:29Z</time>
      </trkpt>
      <trkpt lat="49.01163" lon="7.79364">
        <ele>227.4</ele>
        <time>2020-06-27T15:20:30Z</time>
      </trkpt>
      <trkpt lat="49.01166" lon="7.79366">
        <ele>227.6</ele>
        <time>2020-06-27T15:20:31Z</time>
      </trkpt>
      <trkpt lat="49.01166" lon="7.79367">
        <ele>227.7</ele>
        <time>2020-06-27T15:20:32Z</time>
      </trkpt>
      <trkpt lat="49.01167" lon="7.79372">
        <ele>227.9</ele>
        <time>2020-06-27T15:20:33Z</time>
      </trkpt>
      <trkpt lat="49.01168" lon="7.79374">
        <ele>228</ele>
        <time>2020-06-27T15:20:34Z</time>
      </trkpt>
      <trkpt lat="49.01169" lon="7.79375">
        <ele>228.2</ele>
        <time>2020-06-27T15:20:35Z</time>
      </trkpt>
      <trkpt lat="49.01169" lon="7.79377">
        <ele>228.3</ele>
        <time>2020-06-27T15:20:36Z</time>
      </trkpt>
      <trkpt lat="49.01171" lon="7.7938">
        <ele>228.5</ele>
        <time>2020-06-27T15:20:37Z</time>
      </trkpt>
      <trkpt lat="49.01172" lon="7.79382">
        <ele>228.6</ele>
        <time>2020-06-27T15:20:38Z</time>
      </trkpt>
      <trkpt lat="49.01174" lon="7.79386">
        <ele>228.8</ele>
        <time>2020-06-27T15:20:39Z</time>
      </trkpt>
      <trkpt lat="49.01175" lon="7.79389">
        <ele>229.1</ele>
        <time>2020-06-27T15:20:40Z</time>
      </trkpt>
      <trkpt lat="49.01178" lon="7.79393">
        <ele>229.3</ele>
        <time>2020-06-27T15:20:41Z</time>
      </trkpt>
      <trkpt lat="49.01179" lon="7.79394">
        <ele>229.4</ele>
        <time>2020-06-27T15:20:42Z</time>
      </trkpt>
      <trkpt lat="49.01181" lon="7.79397">
        <ele>229.7</ele>
        <time>2020-06-27T15:20:43Z</time>
      </trkpt>
      <trkpt lat="49.01184" lon="7.794">
        <ele>229.9</ele>
        <time>2020-06-27T15:20:44Z</time>
      </trkpt>
      <trkpt lat="49.01186" lon="7.79403">
        <ele>230.1</ele>
        <time>2020-06-27T15:20:45Z</time>
      </trkpt>
      <trkpt lat="49.01189" lon="7.79407">
        <ele>230.5</ele>
        <time>2020-06-27T15:20:46Z</time>
      </trkpt>
      <trkpt lat="49.01191" lon="7.79409">
        <ele>230.7</ele>
        <time>2020-06-27T15:20:47Z</time>
      </trkpt>
      <trkpt lat="49.01193" lon="7.79412">
        <ele>231</ele>
        <time>2020-06-27T15:20:48Z</time>
      </trkpt>
      <trkpt lat="49.01194" lon="7.79413">
        <ele>231</ele>
        <time>2020-06-27T15:20:49Z</time>
      </trkpt>
      <trkpt lat="49.01196" lon="7.79418">
        <ele>231.3</ele>
        <time>2020-06-27T15:20:50Z</time>
      </trkpt>
      <trkpt lat="49.01197" lon="7.79419">
        <ele>231.3</ele>
        <time>2020-06-27T15:20:51Z</time>
      </trkpt>
      <trkpt lat="49.01199" lon="7.79422">
        <ele>231.6</ele>
        <time>2020-06-27T15:20:52Z</time>
      </trkpt>
      <trkpt lat="49.012" lon="7.79423">
        <ele>231.7</ele>
        <time>2020-06-27T15:20:53Z</time>
      </trkpt>
      <trkpt lat="49.01203" lon="7.79428">
        <ele>232</ele>
        <time>2020-06-27T15:20:54Z</time>
      </trkpt>
      <trkpt lat="49.01205" lon="7.7943">
        <ele>232.1</ele>
        <time>2020-06-27T15:20:55Z</time>
      </trkpt>
      <trkpt lat="49.01207" lon="7.79433">
        <ele>232.4</ele>
        <time>2020-06-27T15:20:56Z</time>
      </trkpt>
      <trkpt lat="49.0121" lon="7.79437">
        <ele>232.6</ele>
        <time>2020-06-27T15:20:57Z</time>
      </trkpt>
      <trkpt lat="49.01211" lon="7.79438">
        <ele>232.7</ele>
        <time>2020-06-27T15:20:58Z</time>
      </trkpt>
      <trkpt lat="49.01213" lon="7.79442">
        <ele>233</ele>
        <time>2020-06-27T15:20:59Z</time>
      </trkpt>
      <trkpt lat="49.01214" lon="7.79444">
        <ele>233.1</ele>
        <time>2020-06-27T15:21:00Z</time>
      </trkpt>
      <trkpt lat="49.01217" lon="7.79447">
        <ele>233.4</ele>
        <time>2020-06-27T15:21:01Z</time>
      </trkpt>
      <trkpt lat="49.01219" lon="7.7945">
        <ele>233.6</ele>
        <time>2020-06-27T15:21:02Z</time>
      </trkpt>
      <trkpt lat="49.01219" lon="7.79451">
        <ele>233.7</ele>
        <time>2020-06-27T15:21:03Z</time>
      </trkpt>
      <trkpt lat="49.01221" lon="7.79453">
        <ele>233.8</ele>
        <time>2020-06-27T15:21:04Z</time>
      </trkpt>
      <trkpt lat="49.01222" lon="7.79455">
        <ele>233.9</ele>
        <time>2020-06-27T15:21:05Z</time>
      </trkpt>
      <trkpt lat="49.01224" lon="7.79458">
        <ele>234.2</ele>
        <time>2020-06-27T15:21:06Z</time>
      </trkpt>
      <trkpt lat="49.01225" lon="7.79459">
        <ele>234.3</ele>
        <time>2020-06-27T15:21:07Z</time>
      </trkpt>
      <trkpt lat="49.01227" lon="7.79463">
        <ele>234.5</ele>
        <time>2020-06-27T15:21:08Z</time>
      </trkpt>
      <trkpt lat="49.01229" lon="7.79466">
        <ele>234.7</ele>
        <time>2020-06-27T15:21:09Z</time>
      </trkpt>
      <trkpt lat="49.01231" lon="7.7947">
        <ele>234.9</ele>
        <time>2020-06-27T15:21:10Z</time>
      </trkpt>
      <trkpt lat="49.01234" lon="7.79475">
        <ele>235.2</ele>
        <time>2020-06-27T15:21:11Z</time>
      </trkpt>
      <trkpt lat="49.01235" lon="7.79477">
        <ele>235.3</ele>
        <time>2020-06-27T15:21:12Z</time>
      </trkpt>
      <trkpt lat="49.01238" lon="7.79481">
        <ele>235.6</ele>
        <time>2020-06-27T15:21:13Z</time>
      </trkpt>
      <trkpt lat="49.01239" lon="7.79482">
        <ele>235.7</ele>
        <time>2020-06-27T15:21:14Z</time>
      </trkpt>
      <trkpt lat="49.01242" lon="7.79485">
        <ele>235.9</ele>
        <time>2020-06-27T15:21:15Z</time>
      </trkpt>
      <trkpt lat="49.01243" lon="7.79486">
        <ele>236</ele>
        <time>2020-06-27T15:21:16Z</time>
      </trkpt>
      <trkpt lat="49.01246" lon="7.79489">
        <ele>236.2</ele>
        <time>2020-06-27T15:21:17Z</time>
      </trkpt>
      <trkpt lat="49.01248" lon="7.79494">
        <ele>236.4</ele>
        <time>2020-06-27T15:21:18Z</time>
      </trkpt>
      <trkpt lat="49.01249" lon="7.79495">
        <ele>236.5</ele>
        <time>2020-06-27T15:21:19Z</time>
      </trkpt>
      <trkpt lat="49.01252" lon="7.79497">
        <ele>236.7</ele>
        <time>2020-06-27T15:21:20Z</time>
      </trkpt>
      <trkpt lat="49.01254" lon="7.795">
        <ele>236.9</ele>
        <time>2020-06-27T15:21:21Z</time>
      </trkpt>
      <trkpt lat="49.01257" lon="7.79504">
        <ele>237.1</ele>
        <time>2020-06-27T15:21:22Z</time>
      </trkpt>
      <trkpt lat="49.0126" lon="7.79507">
        <ele>237.3</ele>
        <time>2020-06-27T15:21:23Z</time>
      </trkpt>
      <trkpt lat="49.01264" lon="7.79511">
        <ele>237.6</ele>
        <time>2020-06-27T15:21:24Z</time>
      </trkpt>
      <trkpt lat="49.01267" lon="7.79514">
        <ele>237.7</ele>
        <time>2020-06-27T15:21:25Z</time>
      </trkpt>
      <trkpt lat="49.01269" lon="7.79517">
        <ele>237.9</ele>
        <time>2020-06-27T15:21:26Z</time>
      </trkpt>
      <trkpt lat="49.01272" lon="7.7952">
        <ele>238.1</ele>
        <time>2020-06-27T15:21:27Z</time>
      </trkpt>
      <trkpt lat="49.01273" lon="7.79521">
        <ele>238.1</ele>
        <time>2020-06-27T15:21:28Z</time>
      </trkpt>
      <trkpt lat="49.01275" lon="7.79525">
        <ele>238.3</ele>
        <time>2020-06-27T15:21:29Z</time>
      </trkpt>
      <trkpt lat="49.01277" lon="7.79527">
        <ele>238.4</ele>
        <time>2020-06-27T15:21:30Z</time>
      </trkpt>
      <trkpt lat="49.0128" lon="7.79531">
        <ele>238.6</ele>
        <time>2020-06-27T15:21:31Z</time>
      </trkpt>
      <trkpt lat="49.01281" lon="7.79532">
        <ele>238.7</ele>
        <time>2020-06-27T15:21:32Z</time>
      </trkpt>
      <trkpt lat="49.01284" lon="7.79536">
        <ele>238.9</ele>
        <time>2020-06-27T15:21:33Z</time>
      </trkpt>
      <trkpt lat="49.01287" lon="7.7954">
        <ele>239</ele>
        <time>2020-06-27T15:21:34Z</time>
      </trkpt>
      <trkpt lat="49.0129" lon="7.79543">
        <ele>239.2</ele>
        <time>2020-06-27T15:21:35Z</time>
      </trkpt>
      <trkpt lat="49.01294" lon="7.79547">
        <ele>239.5</ele>
        <time>2020-06-27T15:21:36Z</time>
      </trkpt>
      <trkpt lat="49.01297" lon="7.79551">
        <ele>239.7</ele>
        <time>2020-06-27T15:21:37Z</time>
      </trkpt>
      <trkpt lat="49.01301" lon="7.79555">
        <ele>239.9</ele>
        <time>2020-06-27T15:21:38Z</time>
      </trkpt>
      <trkpt lat="49.01303" lon="7.79559">
        <ele>240</ele>
        <time>2020-06-27T15:21:39Z</time>
      </trkpt>
      <trkpt lat="49.01305" lon="7.79563">
        <ele>240.2</ele>
        <time>2020-06-27T15:21:40Z</time>
      </trkpt>
      <trkpt lat="49.01306" lon="7.79564">
        <ele>240.2</ele>
        <time>2020-06-27T15:21:41Z</time>
      </trkpt>
      <trkpt lat="49.01308" lon="7.79569">
        <ele>240.4</ele>
        <time>2020-06-27T15:21:42Z</time>
      </trkpt>
      <trkpt lat="49.01308" lon="7.7957">
        <ele>240.4</ele>
        <time>2020-06-27T15:21:43Z</time>
      </trkpt>
      <trkpt lat="49.0131" lon="7.79574">
        <ele>240.6</ele>
        <time>2020-06-27T15:21:44Z</time>
      </trkpt>
      <trkpt lat="49.01313" lon="7.79577">
        <ele>240.8</ele>
        <time>2020-06-27T15:21:45Z</time>
      </trkpt>
      <trkpt lat="49.01314" lon="7.79579">
        <ele>240.8</ele>
        <time>2020-06-27T15:21:46Z</time>
      </trkpt>
      <trkpt lat="49.01316" lon="7.79582">
        <ele>241</ele>
        <time>2020-06-27T15:21:47Z</time>
      </trkpt>
      <trkpt lat="49.01317" lon="7.79584">
        <ele>241</ele>
        <time>2020-06-27T15:21:48Z</time>
      </trkpt>
      <trkpt lat="49.01319" lon="7.79587">
        <ele>241.2</ele>
        <time>2020-06-27T15:21:49Z</time>
      </trkpt>
      <trkpt lat="49.01322" lon="7.7959">
        <ele>241.4</ele>
        <time>2020-06-27T15:21:50Z</time>
      </trkpt>
      <trkpt lat="49.01325" lon="7.79594">
        <ele>241.6</ele>
        <time>2020-06-27T15:21:51Z</time>
      </trkpt>
      <trkpt lat="49.01327" lon="7.79598">
        <ele>241.8</ele>
        <time>2020-06-27T15:21:52Z</time>
      </trkpt>
      <trkpt lat="49.01329" lon="7.79601">
        <ele>242</ele>
        <time>2020-06-27T15:21:53Z</time>
      </trkpt>
      <trkpt lat="49.01331" lon="7.79605">
        <ele>242.2</ele>
        <time>2020-06-27T15:21:54Z</time>
      </trkpt>
      <trkpt lat="49.01333" lon="7.79608">
        <ele>242.4</ele>
        <time>2020-06-27T15:21:55Z</time>
      </trkpt>
      <trkpt lat="49.01336" lon="7.79612">
        <ele>242.6</ele>
        <time>2020-06-27T15:21:56Z</time>
      </trkpt>
      <trkpt lat="49.01337" lon="7.79613">
        <ele>242.7</ele>
        <time>2020-06-27T15:21:57Z</time>
      </trkpt>
      <trkpt lat="49.0134" lon="7.79618">
        <ele>243</ele>
        <time>2020-06-27T15:21:58Z</time>
      </trkpt>
      <trkpt lat="49.01341" lon="7.79619">
        <ele>243.1</ele>
        <time>2020-06-27T15:21:59Z</time>
      </trkpt>
      <trkpt lat="49.01343" lon="7.79622">
        <ele>243.3</ele>
        <time>2020-06-27T15:22:00Z</time>
      </trkpt>
      <trkpt lat="49.01345" lon="7.79625">
        <ele>243.5</ele>
        <time>2020-06-27T15:22:01Z</time>
      </trkpt>
      <trkpt lat="49.01348" lon="7.79629">
        <ele>243.8</ele>
        <time>2020-06-27T15:22:02Z</time>
      </trkpt>
      <trkpt lat="49.01349" lon="7.79631">
        <ele>243.9</ele>
        <time>2020-06-27T15:22:03Z</time>
      </trkpt>
      <trkpt lat="49.01352" lon="7.79634">
        <ele>244.1</ele>
        <time>2020-06-27T15:22:04Z</time>
      </trkpt>
      <trkpt lat="49.01355" lon="7.79637">
        <ele>244.3</ele>
        <time>2020-06-27T15:22:05Z</time>
      </trkpt>
      <trkpt lat="49.01356" lon="7.79638">
        <ele>244.4</ele>
        <time>2020-06-27T15:22:06Z</time>
      </trkpt>
      <trkpt lat="49.01357" lon="7.7964">
        <ele>244.5</ele>
        <time>2020-06-27T15:22:07Z</time>
      </trkpt>
      <trkpt lat="49.01358" lon="7.79641">
        <ele>244.6</ele>
        <time>2020-06-27T15:22:08Z</time>
      </trkpt>
      <trkpt lat="49.01361" lon="7.79645">
        <ele>244.8</ele>
        <time>2020-06-27T15:22:09Z</time>
      </trkpt>
      <trkpt lat="49.01362" lon="7.79646">
        <ele>244.9</ele>
        <time>2020-06-27T15:22:10Z</time>
      </trkpt>
      <trkpt lat="49.01364" lon="7.79649">
        <ele>245.2</ele>
        <time>2020-06-27T15:22:11Z</time>
      </trkpt>
      <trkpt lat="49.01365" lon="7.7965">
        <ele>245.2</ele>
        <time>2020-06-27T15:22:12Z</time>
      </trkpt>
      <trkpt lat="49.01367" lon="7.79653">
        <ele>245.4</ele>
        <time>2020-06-27T15:22:13Z</time>
      </trkpt>
      <trkpt lat="49.0137" lon="7.79655">
        <ele>245.6</ele>
        <time>2020-06-27T15:22:14Z</time>
      </trkpt>
      <trkpt lat="49.01373" lon="7.79659">
        <ele>245.9</ele>
        <time>2020-06-27T15:22:15Z</time>
      </trkpt>
      <trkpt lat="49.01374" lon="7.79661">
        <ele>245.9</ele>
        <time>2020-06-27T15:22:16Z</time>
      </trkpt>
      <trkpt lat="49.01376" lon="7.79664">
        <ele>246.2</ele>
        <time>2020-06-27T15:22:17Z</time>
      </trkpt>
      <trkpt lat="49.01377" lon="7.79666">
        <ele>246.2</ele>
        <time>2020-06-27T15:22:18Z</time>
      </trkpt>
      <trkpt lat="49.0138" lon="7.79668">
        <ele>246.2</ele>
        <time>2020-06-27T15:22:19Z</time>
      </trkpt>
      <trkpt lat="49.01382" lon="7.79672">
        <ele>246.3</ele>
        <time>2020-06-27T15:22:20Z</time>
      </trkpt>
      <trkpt lat="49.01385" lon="7.79676">
        <ele>246.4</ele>
        <time>2020-06-27T15:22:21Z</time>
      </trkpt>
      <trkpt lat="49.01386" lon="7.79678">
        <ele>246.5</ele>
        <time>2020-06-27T15:22:22Z</time>
      </trkpt>
      <trkpt lat="49.01389" lon="7.79682">
        <ele>246.8</ele>
        <time>2020-06-27T15:22:23Z</time>
      </trkpt>
      <trkpt lat="49.0139" lon="7.79683">
        <ele>246.9</ele>
        <time>2020-06-27T15:22:24Z</time>
      </trkpt>
      <trkpt lat="49.01392" lon="7.79686">
        <ele>247.1</ele>
        <time>2020-06-27T15:22:25Z</time>
      </trkpt>
      <trkpt lat="49.01394" lon="7.79688">
        <ele>247.3</ele>
        <time>2020-06-27T15:22:26Z</time>
      </trkpt>
      <trkpt lat="49.01396" lon="7.79691">
        <ele>247.5</ele>
        <time>2020-06-27T15:22:27Z</time>
      </trkpt>
      <trkpt lat="49.01399" lon="7.79694">
        <ele>247.7</ele>
        <time>2020-06-27T15:22:28Z</time>
      </trkpt>
      <trkpt lat="49.01402" lon="7.79698">
        <ele>248</ele>
        <time>2020-06-27T15:22:29Z</time>
      </trkpt>
      <trkpt lat="49.01403" lon="7.797">
        <ele>248.1</ele>
        <time>2020-06-27T15:22:30Z</time>
      </trkpt>
      <trkpt lat="49.01406" lon="7.79703">
        <ele>248.4</ele>
        <time>2020-06-27T15:22:31Z</time>
      </trkpt>
      <trkpt lat="49.01409" lon="7.79707">
        <ele>248.6</ele>
        <time>2020-06-27T15:22:32Z</time>
      </trkpt>
      <trkpt lat="49.01414" lon="7.79711">
        <ele>248.9</ele>
        <time>2020-06-27T15:22:33Z</time>
      </trkpt>
      <trkpt lat="49.01418" lon="7.79715">
        <ele>249.2</ele>
        <time>2020-06-27T15:22:34Z</time>
      </trkpt>
      <trkpt lat="49.01421" lon="7.79719">
        <ele>249.5</ele>
        <time>2020-06-27T15:22:35Z</time>
      </trkpt>
      <trkpt lat="49.01424" lon="7.79721">
        <ele>249.7</ele>
        <time>2020-06-27T15:22:36Z</time>
      </trkpt>
      <trkpt lat="49.01427" lon="7.79724">
        <ele>249.9</ele>
        <time>2020-06-27T15:22:37Z</time>
      </trkpt>
      <trkpt lat="49.0143" lon="7.79727">
        <ele>250.1</ele>
        <time>2020-06-27T15:22:38Z</time>
      </trkpt>
      <trkpt lat="49.01433" lon="7.7973">
        <ele>250.4</ele>
        <time>2020-06-27T15:22:39Z</time>
      </trkpt>
      <trkpt lat="49.01435" lon="7.79733">
        <ele>250.6</ele>
        <time>2020-06-27T15:22:40Z</time>
      </trkpt>
      <trkpt lat="49.01438" lon="7.79736">
        <ele>250.8</ele>
        <time>2020-06-27T15:22:41Z</time>
      </trkpt>
      <trkpt lat="49.01441" lon="7.79738">
        <ele>251</ele>
        <time>2020-06-27T15:22:42Z</time>
      </trkpt>
      <trkpt lat="49.01442" lon="7.79739">
        <ele>251.1</ele>
        <time>2020-06-27T15:22:43Z</time>
      </trkpt>
      <trkpt lat="49.01445" lon="7.79741">
        <ele>251.4</ele>
        <time>2020-06-27T15:22:44Z</time>
      </trkpt>
      <trkpt lat="49.01447" lon="7.79743">
        <ele>251.6</ele>
        <time>2020-06-27T15:22:45Z</time>
      </trkpt>
      <trkpt lat="49.01451" lon="7.79746">
        <ele>251.9</ele>
        <time>2020-06-27T15:22:46Z</time>
      </trkpt>
      <trkpt lat="49.01452" lon="7.79747">
        <ele>252</ele>
        <time>2020-06-27T15:22:47Z</time>
      </trkpt>
      <trkpt lat="49.01455" lon="7.7975">
        <ele>252.2</ele>
        <time>2020-06-27T15:22:48Z</time>
      </trkpt>
      <trkpt lat="49.01458" lon="7.79752">
        <ele>252.4</ele>
        <time>2020-06-27T15:22:49Z</time>
      </trkpt>
      <trkpt lat="49.0146" lon="7.79754">
        <ele>252.7</ele>
        <time>2020-06-27T15:22:50Z</time>
      </trkpt>
      <trkpt lat="49.01463" lon="7.79755">
        <ele>252.9</ele>
        <time>2020-06-27T15:22:51Z</time>
      </trkpt>
      <trkpt lat="49.01464" lon="7.79756">
        <ele>253</ele>
        <time>2020-06-27T15:22:52Z</time>
      </trkpt>
      <trkpt lat="49.01467" lon="7.79757">
        <ele>253.3</ele>
        <time>2020-06-27T15:22:53Z</time>
      </trkpt>
      <trkpt lat="49.01471" lon="7.79757">
        <ele>253.6</ele>
        <time>2020-06-27T15:22:54Z</time>
      </trkpt>
      <trkpt lat="49.01472" lon="7.79758">
        <ele>253.7</ele>
        <time>2020-06-27T15:22:55Z</time>
      </trkpt>
      <trkpt lat="49.01475" lon="7.79759">
        <ele>254</ele>
        <time>2020-06-27T15:22:56Z</time>
      </trkpt>
      <trkpt lat="49.01478" lon="7.7976">
        <ele>254.5</ele>
        <time>2020-06-27T15:22:57Z</time>
      </trkpt>
      <trkpt lat="49.01481" lon="7.79761">
        <ele>254.7</ele>
        <time>2020-06-27T15:22:58Z</time>
      </trkpt>
      <trkpt lat="49.01484" lon="7.79762">
        <ele>254.9</ele>
        <time>2020-06-27T15:22:59Z</time>
      </trkpt>
      <trkpt lat="49.01488" lon="7.79763">
        <ele>255.2</ele>
        <time>2020-06-27T15:23:00Z</time>
      </trkpt>
      <trkpt lat="49.01489" lon="7.79763">
        <ele>255.3</ele>
        <time>2020-06-27T15:23:01Z</time>
      </trkpt>
      <trkpt lat="49.01493" lon="7.79765">
        <ele>255.5</ele>
        <time>2020-06-27T15:23:02Z</time>
      </trkpt>
      <trkpt lat="49.01494" lon="7.79766">
        <ele>255.6</ele>
        <time>2020-06-27T15:23:03Z</time>
      </trkpt>
      <trkpt lat="49.01497" lon="7.79768">
        <ele>255.9</ele>
        <time>2020-06-27T15:23:04Z</time>
      </trkpt>
      <trkpt lat="49.01499" lon="7.7977">
        <ele>256.1</ele>
        <time>2020-06-27T15:23:05Z</time>
      </trkpt>
      <trkpt lat="49.01502" lon="7.79773">
        <ele>256.3</ele>
        <time>2020-06-27T15:23:06Z</time>
      </trkpt>
      <trkpt lat="49.01505" lon="7.79776">
        <ele>256.6</ele>
        <time>2020-06-27T15:23:07Z</time>
      </trkpt>
      <trkpt lat="49.01506" lon="7.79777">
        <ele>256.7</ele>
        <time>2020-06-27T15:23:08Z</time>
      </trkpt>
      <trkpt lat="49.01509" lon="7.7978">
        <ele>257</ele>
        <time>2020-06-27T15:23:09Z</time>
      </trkpt>
      <trkpt lat="49.0151" lon="7.79782">
        <ele>257.1</ele>
        <time>2020-06-27T15:23:10Z</time>
      </trkpt>
      <trkpt lat="49.01512" lon="7.79785">
        <ele>257.4</ele>
        <time>2020-06-27T15:23:11Z</time>
      </trkpt>
      <trkpt lat="49.01513" lon="7.79786">
        <ele>257.5</ele>
        <time>2020-06-27T15:23:12Z</time>
      </trkpt>
      <trkpt lat="49.01516" lon="7.79789">
        <ele>257.8</ele>
        <time>2020-06-27T15:23:13Z</time>
      </trkpt>
      <trkpt lat="49.01517" lon="7.79791">
        <ele>257.9</ele>
        <time>2020-06-27T15:23:14Z</time>
      </trkpt>
      <trkpt lat="49.01519" lon="7.79794">
        <ele>258.2</ele>
        <time>2020-06-27T15:23:15Z</time>
      </trkpt>
      <trkpt lat="49.0152" lon="7.79795">
        <ele>258.3</ele>
        <time>2020-06-27T15:23:16Z</time>
      </trkpt>
      <trkpt lat="49.01523" lon="7.798">
        <ele>258.7</ele>
        <time>2020-06-27T15:23:17Z</time>
      </trkpt>
      <trkpt lat="49.01524" lon="7.79802">
        <ele>258.8</ele>
        <time>2020-06-27T15:23:18Z</time>
      </trkpt>
      <trkpt lat="49.01526" lon="7.79806">
        <ele>259.1</ele>
        <time>2020-06-27T15:23:19Z</time>
      </trkpt>
      <trkpt lat="49.01529" lon="7.79809">
        <ele>259.4</ele>
        <time>2020-06-27T15:23:20Z</time>
      </trkpt>
      <trkpt lat="49.0153" lon="7.7981">
        <ele>259.5</ele>
        <time>2020-06-27T15:23:21Z</time>
      </trkpt>
      <trkpt lat="49.01533" lon="7.79815">
        <ele>259.9</ele>
        <time>2020-06-27T15:23:22Z</time>
      </trkpt>
      <trkpt lat="49.01534" lon="7.79817">
        <ele>260</ele>
        <time>2020-06-27T15:23:23Z</time>
      </trkpt>
      <trkpt lat="49.01537" lon="7.7982">
        <ele>260.3</ele>
        <time>2020-06-27T15:23:24Z</time>
      </trkpt>
      <trkpt lat="49.01538" lon="7.79821">
        <ele>260.4</ele>
        <time>2020-06-27T15:23:25Z</time>
      </trkpt>
      <trkpt lat="49.0154" lon="7.79823">
        <ele>260.7</ele>
        <time>2020-06-27T15:23:26Z</time>
      </trkpt>
      <trkpt lat="49.01541" lon="7.79824">
        <ele>260.8</ele>
        <time>2020-06-27T15:23:27Z</time>
      </trkpt>
      <trkpt lat="49.01544" lon="7.79827">
        <ele>261.1</ele>
        <time>2020-06-27T15:23:28Z</time>
      </trkpt>
      <trkpt lat="49.01545" lon="7.79828">
        <ele>261.2</ele>
        <time>2020-06-27T15:23:29Z</time>
      </trkpt>
      <trkpt lat="49.01549" lon="7.79831">
        <ele>261.6</ele>
        <time>2020-06-27T15:23:30Z</time>
      </trkpt>
      <trkpt lat="49.0155" lon="7.79832">
        <ele>261.7</ele>
        <time>2020-06-27T15:23:31Z</time>
      </trkpt>
      <trkpt lat="49.01553" lon="7.79834">
        <ele>262</ele>
        <time>2020-06-27T15:23:32Z</time>
      </trkpt>
      <trkpt lat="49.01556" lon="7.79836">
        <ele>262.4</ele>
        <time>2020-06-27T15:23:33Z</time>
      </trkpt>
      <trkpt lat="49.01557" lon="7.79837">
        <ele>262.5</ele>
        <time>2020-06-27T15:23:34Z</time>
      </trkpt>
      <trkpt lat="49.01561" lon="7.7984">
        <ele>262.9</ele>
        <time>2020-06-27T15:23:35Z</time>
      </trkpt>
      <trkpt lat="49.01562" lon="7.79841">
        <ele>263</ele>
        <time>2020-06-27T15:23:36Z</time>
      </trkpt>
      <trkpt lat="49.01565" lon="7.79843">
        <ele>263.3</ele>
        <time>2020-06-27T15:23:37Z</time>
      </trkpt>
      <trkpt lat="49.01566" lon="7.79844">
        <ele>263.4</ele>
        <time>2020-06-27T15:23:38Z</time>
      </trkpt>
      <trkpt lat="49.01568" lon="7.79846">
        <ele>263.6</ele>
        <time>2020-06-27T15:23:39Z</time>
      </trkpt>
      <trkpt lat="49.0157" lon="7.79848">
        <ele>263.8</ele>
        <time>2020-06-27T15:23:40Z</time>
      </trkpt>
      <trkpt lat="49.01573" lon="7.7985">
        <ele>264.1</ele>
        <time>2020-06-27T15:23:41Z</time>
      </trkpt>
      <trkpt lat="49.01576" lon="7.79853">
        <ele>264.4</ele>
        <time>2020-06-27T15:23:42Z</time>
      </trkpt>
      <trkpt lat="49.01577" lon="7.79854">
        <ele>264.5</ele>
        <time>2020-06-27T15:23:43Z</time>
      </trkpt>
      <trkpt lat="49.01581" lon="7.79856">
        <ele>264.8</ele>
        <time>2020-06-27T15:23:44Z</time>
      </trkpt>
      <trkpt lat="49.01582" lon="7.79857">
        <ele>264.9</ele>
        <time>2020-06-27T15:23:45Z</time>
      </trkpt>
      <trkpt lat="49.01585" lon="7.79859">
        <ele>265.2</ele>
        <time>2020-06-27T15:23:46Z</time>
      </trkpt>
      <trkpt lat="49.01586" lon="7.7986">
        <ele>265.3</ele>
        <time>2020-06-27T15:23:47Z</time>
      </trkpt>
      <trkpt lat="49.01589" lon="7.79864">
        <ele>265.6</ele>
        <time>2020-06-27T15:23:48Z</time>
      </trkpt>
      <trkpt lat="49.01589" lon="7.79865">
        <ele>265.6</ele>
        <time>2020-06-27T15:23:49Z</time>
      </trkpt>
      <trkpt lat="49.01592" lon="7.79869">
        <ele>266</ele>
        <time>2020-06-27T15:23:50Z</time>
      </trkpt>
      <trkpt lat="49.01593" lon="7.7987">
        <ele>266</ele>
        <time>2020-06-27T15:23:51Z</time>
      </trkpt>
      <trkpt lat="49.01595" lon="7.79873">
        <ele>266.3</ele>
        <time>2020-06-27T15:23:52Z</time>
      </trkpt>
      <trkpt lat="49.01598" lon="7.79877">
        <ele>266.6</ele>
        <time>2020-06-27T15:23:53Z</time>
      </trkpt>
      <trkpt lat="49.01601" lon="7.7988">
        <ele>266.9</ele>
        <time>2020-06-27T15:23:54Z</time>
      </trkpt>
      <trkpt lat="49.01602" lon="7.79882">
        <ele>267.1</ele>
        <time>2020-06-27T15:23:55Z</time>
      </trkpt>
      <trkpt lat="49.01604" lon="7.79886">
        <ele>267.3</ele>
        <time>2020-06-27T15:23:56Z</time>
      </trkpt>
      <trkpt lat="49.01607" lon="7.79889">
        <ele>267.6</ele>
        <time>2020-06-27T15:23:57Z</time>
      </trkpt>
      <trkpt lat="49.01609" lon="7.79892">
        <ele>267.8</ele>
        <time>2020-06-27T15:23:58Z</time>
      </trkpt>
      <trkpt lat="49.01612" lon="7.79896">
        <ele>268.1</ele>
        <time>2020-06-27T15:23:59Z</time>
      </trkpt>
      <trkpt lat="49.01613" lon="7.79898">
        <ele>268.2</ele>
        <time>2020-06-27T15:24:00Z</time>
      </trkpt>
      <trkpt lat="49.01615" lon="7.79902">
        <ele>268.5</ele>
        <time>2020-06-27T15:24:01Z</time>
      </trkpt>
      <trkpt lat="49.01617" lon="7.79905">
        <ele>268.7</ele>
        <time>2020-06-27T15:24:02Z</time>
      </trkpt>
      <trkpt lat="49.01619" lon="7.79909">
        <ele>269</ele>
        <time>2020-06-27T15:24:03Z</time>
      </trkpt>
      <trkpt lat="49.01621" lon="7.79913">
        <ele>269.2</ele>
        <time>2020-06-27T15:24:04Z</time>
      </trkpt>
      <trkpt lat="49.01624" lon="7.79917">
        <ele>269.5</ele>
        <time>2020-06-27T15:24:05Z</time>
      </trkpt>
      <trkpt lat="49.01625" lon="7.79919">
        <ele>269.7</ele>
        <time>2020-06-27T15:24:06Z</time>
      </trkpt>
      <trkpt lat="49.01627" lon="7.79922">
        <ele>269.9</ele>
        <time>2020-06-27T15:24:07Z</time>
      </trkpt>
      <trkpt lat="49.0163" lon="7.79927">
        <ele>270.2</ele>
        <time>2020-06-27T15:24:08Z</time>
      </trkpt>
      <trkpt lat="49.01632" lon="7.79928">
        <ele>270.3</ele>
        <time>2020-06-27T15:24:09Z</time>
      </trkpt>
      <trkpt lat="49.01634" lon="7.79932">
        <ele>270.5</ele>
        <time>2020-06-27T15:24:10Z</time>
      </trkpt>
      <trkpt lat="49.01636" lon="7.79936">
        <ele>270.8</ele>
        <time>2020-06-27T15:24:11Z</time>
      </trkpt>
      <trkpt lat="49.01639" lon="7.79939">
        <ele>271</ele>
        <time>2020-06-27T15:24:12Z</time>
      </trkpt>
      <trkpt lat="49.0164" lon="7.79942">
        <ele>271.1</ele>
        <time>2020-06-27T15:24:13Z</time>
      </trkpt>
      <trkpt lat="49.01643" lon="7.79945">
        <ele>271.3</ele>
        <time>2020-06-27T15:24:14Z</time>
      </trkpt>
      <trkpt lat="49.01645" lon="7.79948">
        <ele>271.5</ele>
        <time>2020-06-27T15:24:15Z</time>
      </trkpt>
      <trkpt lat="49.01646" lon="7.7995">
        <ele>271.6</ele>
        <time>2020-06-27T15:24:16Z</time>
      </trkpt>
      <trkpt lat="49.01649" lon="7.79953">
        <ele>271.8</ele>
        <time>2020-06-27T15:24:17Z</time>
      </trkpt>
      <trkpt lat="49.0165" lon="7.79954">
        <ele>271.9</ele>
        <time>2020-06-27T15:24:18Z</time>
      </trkpt>
      <trkpt lat="49.01652" lon="7.79957">
        <ele>272.1</ele>
        <time>2020-06-27T15:24:19Z</time>
      </trkpt>
      <trkpt lat="49.01652" lon="7.79959">
        <ele>272.1</ele>
        <time>2020-06-27T15:24:20Z</time>
      </trkpt>
      <trkpt lat="49.01656" lon="7.79962">
        <ele>272.4</ele>
        <time>2020-06-27T15:24:21Z</time>
      </trkpt>
      <trkpt lat="49.01657" lon="7.79964">
        <ele>272.5</ele>
        <time>2020-06-27T15:24:22Z</time>
      </trkpt>
      <trkpt lat="49.0166" lon="7.79967">
        <ele>272.6</ele>
        <time>2020-06-27T15:24:23Z</time>
      </trkpt>
      <trkpt lat="49.01662" lon="7.79969">
        <ele>272.9</ele>
        <time>2020-06-27T15:24:24Z</time>
      </trkpt>
      <trkpt lat="49.01665" lon="7.79971">
        <ele>273</ele>
        <time>2020-06-27T15:24:25Z</time>
      </trkpt>
      <trkpt lat="49.01667" lon="7.79973">
        <ele>273.1</ele>
        <time>2020-06-27T15:24:26Z</time>
      </trkpt>
      <trkpt lat="49.0167" lon="7.79974">
        <ele>273.3</ele>
        <time>2020-06-27T15:24:27Z</time>
      </trkpt>
      <trkpt lat="49.01673" lon="7.79977">
        <ele>273.4</ele>
        <time>2020-06-27T15:24:28Z</time>
      </trkpt>
      <trkpt lat="49.01676" lon="7.79979">
        <ele>273.5</ele>
        <time>2020-06-27T15:24:29Z</time>
      </trkpt>
      <trkpt lat="49.01679" lon="7.79981">
        <ele>273.7</ele>
        <time>2020-06-27T15:24:30Z</time>
      </trkpt>
      <trkpt lat="49.01682" lon="7.79983">
        <ele>273.8</ele>
        <time>2020-06-27T15:24:31Z</time>
      </trkpt>
      <trkpt lat="49.01685" lon="7.79985">
        <ele>273.9</ele>
        <time>2020-06-27T15:24:32Z</time>
      </trkpt>
      <trkpt lat="49.01689" lon="7.79986">
        <ele>274</ele>
        <time>2020-06-27T15:24:33Z</time>
      </trkpt>
      <trkpt lat="49.01692" lon="7.79987">
        <ele>274.3</ele>
        <time>2020-06-27T15:24:34Z</time>
      </trkpt>
      <trkpt lat="49.01695" lon="7.79988">
        <ele>274.3</ele>
        <time>2020-06-27T15:24:35Z</time>
      </trkpt>
      <trkpt lat="49.01698" lon="7.79989">
        <ele>274.4</ele>
        <time>2020-06-27T15:24:36Z</time>
      </trkpt>
      <trkpt lat="49.01701" lon="7.79991">
        <ele>274.5</ele>
        <time>2020-06-27T15:24:37Z</time>
      </trkpt>
      <trkpt lat="49.01704" lon="7.79992">
        <ele>274.6</ele>
        <time>2020-06-27T15:24:38Z</time>
      </trkpt>
      <trkpt lat="49.01708" lon="7.79992">
        <ele>274.7</ele>
        <time>2020-06-27T15:24:39Z</time>
      </trkpt>
      <trkpt lat="49.01709" lon="7.79992">
        <ele>274.7</ele>
        <time>2020-06-27T15:24:40Z</time>
      </trkpt>
      <trkpt lat="49.01713" lon="7.79993">
        <ele>274.8</ele>
        <time>2020-06-27T15:24:41Z</time>
      </trkpt>
      <trkpt lat="49.01718" lon="7.79994">
        <ele>274.9</ele>
        <time>2020-06-27T15:24:42Z</time>
      </trkpt>
      <trkpt lat="49.01722" lon="7.79994">
        <ele>275</ele>
        <time>2020-06-27T15:24:43Z</time>
      </trkpt>
      <trkpt lat="49.01726" lon="7.79994">
        <ele>275.1</ele>
        <time>2020-06-27T15:24:44Z</time>
      </trkpt>
      <trkpt lat="49.0173" lon="7.79995">
        <ele>275.1</ele>
        <time>2020-06-27T15:24:45Z</time>
      </trkpt>
      <trkpt lat="49.01733" lon="7.79995">
        <ele>275.1</ele>
        <time>2020-06-27T15:24:46Z</time>
      </trkpt>
      <trkpt lat="49.01737" lon="7.79995">
        <ele>275.2</ele>
        <time>2020-06-27T15:24:47Z</time>
      </trkpt>
      <trkpt lat="49.01742" lon="7.79996">
        <ele>275.2</ele>
        <time>2020-06-27T15:24:48Z</time>
      </trkpt>
      <trkpt lat="49.01747" lon="7.79997">
        <ele>275.3</ele>
        <time>2020-06-27T15:24:49Z</time>
      </trkpt>
      <trkpt lat="49.01753" lon="7.79998">
        <ele>275.3</ele>
        <time>2020-06-27T15:24:50Z</time>
      </trkpt>
      <trkpt lat="49.01759" lon="7.80001">
        <ele>275.4</ele>
        <time>2020-06-27T15:24:51Z</time>
      </trkpt>
      <trkpt lat="49.01764" lon="7.80004">
        <ele>275.5</ele>
        <time>2020-06-27T15:24:52Z</time>
      </trkpt>
      <trkpt lat="49.0177" lon="7.80009">
        <ele>275.5</ele>
        <time>2020-06-27T15:24:53Z</time>
      </trkpt>
      <trkpt lat="49.01774" lon="7.80013">
        <ele>275.6</ele>
        <time>2020-06-27T15:24:54Z</time>
      </trkpt>
      <trkpt lat="49.01778" lon="7.80018">
        <ele>275.6</ele>
        <time>2020-06-27T15:24:55Z</time>
      </trkpt>
      <trkpt lat="49.01782" lon="7.80023">
        <ele>275.7</ele>
        <time>2020-06-27T15:24:56Z</time>
      </trkpt>
      <trkpt lat="49.01785" lon="7.80027">
        <ele>275.7</ele>
        <time>2020-06-27T15:24:57Z</time>
      </trkpt>
      <trkpt lat="49.01788" lon="7.80031">
        <ele>275.7</ele>
        <time>2020-06-27T15:24:58Z</time>
      </trkpt>
      <trkpt lat="49.01791" lon="7.80036">
        <ele>275.8</ele>
        <time>2020-06-27T15:24:59Z</time>
      </trkpt>
      <trkpt lat="49.01793" lon="7.8004">
        <ele>275.8</ele>
        <time>2020-06-27T15:25:00Z</time>
      </trkpt>
      <trkpt lat="49.01795" lon="7.80046">
        <ele>275.8</ele>
        <time>2020-06-27T15:25:01Z</time>
      </trkpt>
      <trkpt lat="49.01798" lon="7.80052">
        <ele>275.8</ele>
        <time>2020-06-27T15:25:02Z</time>
      </trkpt>
      <trkpt lat="49.018" lon="7.80057">
        <ele>275.7</ele>
        <time>2020-06-27T15:25:03Z</time>
      </trkpt>
      <trkpt lat="49.01803" lon="7.80064">
        <ele>275.7</ele>
        <time>2020-06-27T15:25:04Z</time>
      </trkpt>
      <trkpt lat="49.01805" lon="7.8007">
        <ele>275.7</ele>
        <time>2020-06-27T15:25:05Z</time>
      </trkpt>
      <trkpt lat="49.01808" lon="7.80076">
        <ele>275.7</ele>
        <time>2020-06-27T15:25:06Z</time>
      </trkpt>
      <trkpt lat="49.01811" lon="7.80083">
        <ele>275.5</ele>
        <time>2020-06-27T15:25:07Z</time>
      </trkpt>
      <trkpt lat="49.01813" lon="7.80089">
        <ele>275.3</ele>
        <time>2020-06-27T15:25:08Z</time>
      </trkpt>
      <trkpt lat="49.01816" lon="7.80096">
        <ele>275.2</ele>
        <time>2020-06-27T15:25:09Z</time>
      </trkpt>
      <trkpt lat="49.01821" lon="7.80105">
        <ele>274.9</ele>
        <time>2020-06-27T15:25:10Z</time>
      </trkpt>
      <trkpt lat="49.01825" lon="7.80114">
        <ele>274.7</ele>
        <time>2020-06-27T15:25:11Z</time>
      </trkpt>
      <trkpt lat="49.01829" lon="7.80124">
        <ele>274.5</ele>
        <time>2020-06-27T15:25:12Z</time>
      </trkpt>
      <trkpt lat="49.01833" lon="7.80134">
        <ele>274.3</ele>
        <time>2020-06-27T15:25:13Z</time>
      </trkpt>
      <trkpt lat="49.01837" lon="7.80142">
        <ele>274.1</ele>
        <time>2020-06-27T15:25:14Z</time>
      </trkpt>
      <trkpt lat="49.01842" lon="7.80152">
        <ele>273.9</ele>
        <time>2020-06-27T15:25:15Z</time>
      </trkpt>
      <trkpt lat="49.01847" lon="7.80163">
        <ele>273.7</ele>
        <time>2020-06-27T15:25:16Z</time>
      </trkpt>
      <trkpt lat="49.01852" lon="7.80173">
        <ele>273.5</ele>
        <time>2020-06-27T15:25:17Z</time>
      </trkpt>
      <trkpt lat="49.01857" lon="7.80183">
        <ele>273.3</ele>
        <time>2020-06-27T15:25:18Z</time>
      </trkpt>
      <trkpt lat="49.01861" lon="7.80193">
        <ele>273.2</ele>
        <time>2020-06-27T15:25:19Z</time>
      </trkpt>
      <trkpt lat="49.01865" lon="7.80203">
        <ele>273.1</ele>
        <time>2020-06-27T15:25:20Z</time>
      </trkpt>
      <trkpt lat="49.0187" lon="7.80213">
        <ele>273</ele>
        <time>2020-06-27T15:25:21Z</time>
      </trkpt>
      <trkpt lat="49.01873" lon="7.80223">
        <ele>272.9</ele>
        <time>2020-06-27T15:25:22Z</time>
      </trkpt>
      <trkpt lat="49.01877" lon="7.80233">
        <ele>272.9</ele>
        <time>2020-06-27T15:25:23Z</time>
      </trkpt>
      <trkpt lat="49.0188" lon="7.80243">
        <ele>272.9</ele>
        <time>2020-06-27T15:25:24Z</time>
      </trkpt>
      <trkpt lat="49.01884" lon="7.80255">
        <ele>272.8</ele>
        <time>2020-06-27T15:25:25Z</time>
      </trkpt>
      <trkpt lat="49.01888" lon="7.80267">
        <ele>272.8</ele>
        <time>2020-06-27T15:25:26Z</time>
      </trkpt>
      <trkpt lat="49.0189" lon="7.80277">
        <ele>272.8</ele>
        <time>2020-06-27T15:25:27Z</time>
      </trkpt>
      <trkpt lat="49.01893" lon="7.80287">
        <ele>272.7</ele>
        <time>2020-06-27T15:25:28Z</time>
      </trkpt>
      <trkpt lat="49.01895" lon="7.80298">
        <ele>272.7</ele>
        <time>2020-06-27T15:25:29Z</time>
      </trkpt>
      <trkpt lat="49.01898" lon="7.80308">
        <ele>272.6</ele>
        <time>2020-06-27T15:25:30Z</time>
      </trkpt>
      <trkpt lat="49.019" lon="7.80318">
        <ele>272.5</ele>
        <time>2020-06-27T15:25:31Z</time>
      </trkpt>
      <trkpt lat="49.01902" lon="7.80328">
        <ele>272.5</ele>
        <time>2020-06-27T15:25:32Z</time>
      </trkpt>
      <trkpt lat="49.01903" lon="7.80338">
        <ele>272.3</ele>
        <time>2020-06-27T15:25:33Z</time>
      </trkpt>
      <trkpt lat="49.01904" lon="7.80348">
        <ele>272.1</ele>
        <time>2020-06-27T15:25:34Z</time>
      </trkpt>
      <trkpt lat="49.01905" lon="7.80357">
        <ele>272</ele>
        <time>2020-06-27T15:25:35Z</time>
      </trkpt>
      <trkpt lat="49.01906" lon="7.80367">
        <ele>271.8</ele>
        <time>2020-06-27T15:25:36Z</time>
      </trkpt>
      <trkpt lat="49.01907" lon="7.80377">
        <ele>271.5</ele>
        <time>2020-06-27T15:25:37Z</time>
      </trkpt>
      <trkpt lat="49.01908" lon="7.80387">
        <ele>271.3</ele>
        <time>2020-06-27T15:25:38Z</time>
      </trkpt>
      <trkpt lat="49.01909" lon="7.80397">
        <ele>271.1</ele>
        <time>2020-06-27T15:25:39Z</time>
      </trkpt>
      <trkpt lat="49.0191" lon="7.80407">
        <ele>270.8</ele>
        <time>2020-06-27T15:25:40Z</time>
      </trkpt>
      <trkpt lat="49.0191" lon="7.80417">
        <ele>270.6</ele>
        <time>2020-06-27T15:25:41Z</time>
      </trkpt>
      <trkpt lat="49.01911" lon="7.80427">
        <ele>270.4</ele>
        <time>2020-06-27T15:25:42Z</time>
      </trkpt>
      <trkpt lat="49.01911" lon="7.80437">
        <ele>270.1</ele>
        <time>2020-06-27T15:25:43Z</time>
      </trkpt>
      <trkpt lat="49.01912" lon="7.80447">
        <ele>269.9</ele>
        <time>2020-06-27T15:25:44Z</time>
      </trkpt>
      <trkpt lat="49.01913" lon="7.80458">
        <ele>269.6</ele>
        <time>2020-06-27T15:25:45Z</time>
      </trkpt>
      <trkpt lat="49.01915" lon="7.80468">
        <ele>269.4</ele>
        <time>2020-06-27T15:25:46Z</time>
      </trkpt>
      <trkpt lat="49.01916" lon="7.80479">
        <ele>269.2</ele>
        <time>2020-06-27T15:25:47Z</time>
      </trkpt>
      <trkpt lat="49.01917" lon="7.8049">
        <ele>269.1</ele>
        <time>2020-06-27T15:25:48Z</time>
      </trkpt>
      <trkpt lat="49.0192" lon="7.80502">
        <ele>269</ele>
        <time>2020-06-27T15:25:49Z</time>
      </trkpt>
      <trkpt lat="49.01923" lon="7.80515">
        <ele>269</ele>
        <time>2020-06-27T15:25:50Z</time>
      </trkpt>
      <trkpt lat="49.01926" lon="7.80527">
        <ele>269</ele>
        <time>2020-06-27T15:25:51Z</time>
      </trkpt>
      <trkpt lat="49.01929" lon="7.8054">
        <ele>269</ele>
        <time>2020-06-27T15:25:52Z</time>
      </trkpt>
      <trkpt lat="49.01932" lon="7.80553">
        <ele>269.1</ele>
        <time>2020-06-27T15:25:53Z</time>
      </trkpt>
      <trkpt lat="49.01935" lon="7.80566">
        <ele>269.3</ele>
        <time>2020-06-27T15:25:54Z</time>
      </trkpt>
      <trkpt lat="49.01938" lon="7.80579">
        <ele>269.6</ele>
        <time>2020-06-27T15:25:55Z</time>
      </trkpt>
      <trkpt lat="49.01941" lon="7.80592">
        <ele>270</ele>
        <time>2020-06-27T15:25:56Z</time>
      </trkpt>
      <trkpt lat="49.01944" lon="7.80605">
        <ele>270.4</ele>
        <time>2020-06-27T15:25:57Z</time>
      </trkpt>
      <trkpt lat="49.01947" lon="7.80616">
        <ele>270.7</ele>
        <time>2020-06-27T15:25:58Z</time>
      </trkpt>
      <trkpt lat="49.0195" lon="7.80627">
        <ele>271.2</ele>
        <time>2020-06-27T15:25:59Z</time>
      </trkpt>
      <trkpt lat="49.01954" lon="7.80637">
        <ele>271.6</ele>
        <time>2020-06-27T15:26:00Z</time>
      </trkpt>
      <trkpt lat="49.01956" lon="7.80646">
        <ele>272</ele>
        <time>2020-06-27T15:26:01Z</time>
      </trkpt>
      <trkpt lat="49.01959" lon="7.80653">
        <ele>272.4</ele>
        <time>2020-06-27T15:26:02Z</time>
      </trkpt>
      <trkpt lat="49.01962" lon="7.80661">
        <ele>272.8</ele>
        <time>2020-06-27T15:26:03Z</time>
      </trkpt>
      <trkpt lat="49.01964" lon="7.80668">
        <ele>273.3</ele>
        <time>2020-06-27T15:26:04Z</time>
      </trkpt>
      <trkpt lat="49.01967" lon="7.80675">
        <ele>273.8</ele>
        <time>2020-06-27T15:26:05Z</time>
      </trkpt>
      <trkpt lat="49.0197" lon="7.80681">
        <ele>274.3</ele>
        <time>2020-06-27T15:26:06Z</time>
      </trkpt>
      <trkpt lat="49.01972" lon="7.80687">
        <ele>274.7</ele>
        <time>2020-06-27T15:26:07Z</time>
      </trkpt>
      <trkpt lat="49.01975" lon="7.80692">
        <ele>275.2</ele>
        <time>2020-06-27T15:26:08Z</time>
      </trkpt>
      <trkpt lat="49.01978" lon="7.80696">
        <ele>275.6</ele>
        <time>2020-06-27T15:26:09Z</time>
      </trkpt>
      <trkpt lat="49.01981" lon="7.80699">
        <ele>276</ele>
        <time>2020-06-27T15:26:10Z</time>
      </trkpt>
      <trkpt lat="49.01984" lon="7.80702">
        <ele>276.3</ele>
        <time>2020-06-27T15:26:11Z</time>
      </trkpt>
      <trkpt lat="49.01987" lon="7.80705">
        <ele>276.6</ele>
        <time>2020-06-27T15:26:12Z</time>
      </trkpt>
      <trkpt lat="49.01989" lon="7.80708">
        <ele>276.8</ele>
        <time>2020-06-27T15:26:13Z</time>
      </trkpt>
      <trkpt lat="49.01991" lon="7.80711">
        <ele>277.1</ele>
        <time>2020-06-27T15:26:14Z</time>
      </trkpt>
      <trkpt lat="49.01994" lon="7.80715">
        <ele>277.3</ele>
        <time>2020-06-27T15:26:15Z</time>
      </trkpt>
      <trkpt lat="49.01997" lon="7.80717">
        <ele>277.5</ele>
        <time>2020-06-27T15:26:16Z</time>
      </trkpt>
      <trkpt lat="49.01999" lon="7.80719">
        <ele>277.7</ele>
        <time>2020-06-27T15:26:17Z</time>
      </trkpt>
      <trkpt lat="49.02002" lon="7.80721">
        <ele>277.9</ele>
        <time>2020-06-27T15:26:18Z</time>
      </trkpt>
      <trkpt lat="49.02004" lon="7.80724">
        <ele>278</ele>
        <time>2020-06-27T15:26:19Z</time>
      </trkpt>
      <trkpt lat="49.02007" lon="7.80727">
        <ele>278.2</ele>
        <time>2020-06-27T15:26:20Z</time>
      </trkpt>
      <trkpt lat="49.02009" lon="7.8073">
        <ele>278.3</ele>
        <time>2020-06-27T15:26:21Z</time>
      </trkpt>
      <trkpt lat="49.02012" lon="7.80733">
        <ele>278.5</ele>
        <time>2020-06-27T15:26:22Z</time>
      </trkpt>
      <trkpt lat="49.02014" lon="7.80737">
        <ele>278.6</ele>
        <time>2020-06-27T15:26:23Z</time>
      </trkpt>
      <trkpt lat="49.02017" lon="7.80739">
        <ele>278.7</ele>
        <time>2020-06-27T15:26:24Z</time>
      </trkpt>
      <trkpt lat="49.0202" lon="7.80741">
        <ele>278.8</ele>
        <time>2020-06-27T15:26:25Z</time>
      </trkpt>
      <trkpt lat="49.02023" lon="7.80744">
        <ele>279</ele>
        <time>2020-06-27T15:26:26Z</time>
      </trkpt>
      <trkpt lat="49.02024" lon="7.80746">
        <ele>279</ele>
        <time>2020-06-27T15:26:27Z</time>
      </trkpt>
      <trkpt lat="49.02027" lon="7.80749">
        <ele>279.1</ele>
        <time>2020-06-27T15:26:28Z</time>
      </trkpt>
      <trkpt lat="49.02028" lon="7.8075">
        <ele>279.1</ele>
        <time>2020-06-27T15:26:29Z</time>
      </trkpt>
      <trkpt lat="49.0203" lon="7.80753">
        <ele>279.2</ele>
        <time>2020-06-27T15:26:30Z</time>
      </trkpt>
      <trkpt lat="49.02033" lon="7.80757">
        <ele>279.3</ele>
        <time>2020-06-27T15:26:31Z</time>
      </trkpt>
      <trkpt lat="49.02034" lon="7.80759">
        <ele>279.3</ele>
        <time>2020-06-27T15:26:32Z</time>
      </trkpt>
      <trkpt lat="49.02036" lon="7.80762">
        <ele>279.3</ele>
        <time>2020-06-27T15:26:33Z</time>
      </trkpt>
      <trkpt lat="49.02039" lon="7.80765">
        <ele>279.4</ele>
        <time>2020-06-27T15:26:34Z</time>
      </trkpt>
      <trkpt lat="49.02042" lon="7.80769">
        <ele>279.4</ele>
        <time>2020-06-27T15:26:35Z</time>
      </trkpt>
      <trkpt lat="49.02044" lon="7.80772">
        <ele>279.4</ele>
        <time>2020-06-27T15:26:36Z</time>
      </trkpt>
      <trkpt lat="49.02047" lon="7.80776">
        <ele>279.4</ele>
        <time>2020-06-27T15:26:37Z</time>
      </trkpt>
      <trkpt lat="49.02049" lon="7.80779">
        <ele>279.4</ele>
        <time>2020-06-27T15:26:38Z</time>
      </trkpt>
      <trkpt lat="49.02052" lon="7.80784">
        <ele>279.4</ele>
        <time>2020-06-27T15:26:39Z</time>
      </trkpt>
      <trkpt lat="49.02053" lon="7.80787">
        <ele>279.4</ele>
        <time>2020-06-27T15:26:40Z</time>
      </trkpt>
      <trkpt lat="49.02055" lon="7.80792">
        <ele>279.4</ele>
        <time>2020-06-27T15:26:41Z</time>
      </trkpt>
      <trkpt lat="49.02057" lon="7.80799">
        <ele>279.4</ele>
        <time>2020-06-27T15:26:42Z</time>
      </trkpt>
      <trkpt lat="49.02059" lon="7.80804">
        <ele>279.3</ele>
        <time>2020-06-27T15:26:43Z</time>
      </trkpt>
      <trkpt lat="49.02062" lon="7.8081">
        <ele>279.2</ele>
        <time>2020-06-27T15:26:44Z</time>
      </trkpt>
      <trkpt lat="49.02064" lon="7.80816">
        <ele>279.1</ele>
        <time>2020-06-27T15:26:45Z</time>
      </trkpt>
      <trkpt lat="49.02067" lon="7.80821">
        <ele>279</ele>
        <time>2020-06-27T15:26:46Z</time>
      </trkpt>
      <trkpt lat="49.0207" lon="7.80828">
        <ele>278.8</ele>
        <time>2020-06-27T15:26:47Z</time>
      </trkpt>
      <trkpt lat="49.02072" lon="7.80835">
        <ele>278.6</ele>
        <time>2020-06-27T15:26:48Z</time>
      </trkpt>
      <trkpt lat="49.02075" lon="7.80842">
        <ele>278.4</ele>
        <time>2020-06-27T15:26:49Z</time>
      </trkpt>
      <trkpt lat="49.02077" lon="7.80849">
        <ele>278.2</ele>
        <time>2020-06-27T15:26:50Z</time>
      </trkpt>
      <trkpt lat="49.02079" lon="7.80856">
        <ele>278</ele>
        <time>2020-06-27T15:26:51Z</time>
      </trkpt>
      <trkpt lat="49.02081" lon="7.80863">
        <ele>277.7</ele>
        <time>2020-06-27T15:26:52Z</time>
      </trkpt>
      <trkpt lat="49.02084" lon="7.80871">
        <ele>277.4</ele>
        <time>2020-06-27T15:26:53Z</time>
      </trkpt>
      <trkpt lat="49.02088" lon="7.80881">
        <ele>277</ele>
        <time>2020-06-27T15:26:54Z</time>
      </trkpt>
      <trkpt lat="49.02091" lon="7.80891">
        <ele>276.6</ele>
        <time>2020-06-27T15:26:55Z</time>
      </trkpt>
      <trkpt lat="49.02095" lon="7.809">
        <ele>276.2</ele>
        <time>2020-06-27T15:26:56Z</time>
      </trkpt>
      <trkpt lat="49.02098" lon="7.80908">
        <ele>275.8</ele>
        <time>2020-06-27T15:26:57Z</time>
      </trkpt>
      <trkpt lat="49.02102" lon="7.80918">
        <ele>275.4</ele>
        <time>2020-06-27T15:26:58Z</time>
      </trkpt>
      <trkpt lat="49.02106" lon="7.80929">
        <ele>274.9</ele>
        <time>2020-06-27T15:26:59Z</time>
      </trkpt>
      <trkpt lat="49.02111" lon="7.8094">
        <ele>274.5</ele>
        <time>2020-06-27T15:27:00Z</time>
      </trkpt>
      <trkpt lat="49.02116" lon="7.80951">
        <ele>274.1</ele>
        <time>2020-06-27T15:27:01Z</time>
      </trkpt>
      <trkpt lat="49.02122" lon="7.80961">
        <ele>273.7</ele>
        <time>2020-06-27T15:27:02Z</time>
      </trkpt>
      <trkpt lat="49.02128" lon="7.80971">
        <ele>273.3</ele>
        <time>2020-06-27T15:27:03Z</time>
      </trkpt>
      <trkpt lat="49.02135" lon="7.80981">
        <ele>272.9</ele>
        <time>2020-06-27T15:27:04Z</time>
      </trkpt>
      <trkpt lat="49.02143" lon="7.80989">
        <ele>272.5</ele>
        <time>2020-06-27T15:27:05Z</time>
      </trkpt>
      <trkpt lat="49.02151" lon="7.80997">
        <ele>272.1</ele>
        <time>2020-06-27T15:27:06Z</time>
      </trkpt>
      <trkpt lat="49.02158" lon="7.81004">
        <ele>271.7</ele>
        <time>2020-06-27T15:27:07Z</time>
      </trkpt>
      <trkpt lat="49.02166" lon="7.81012">
        <ele>271.3</ele>
        <time>2020-06-27T15:27:08Z</time>
      </trkpt>
      <trkpt lat="49.02174" lon="7.81019">
        <ele>271.1</ele>
        <time>2020-06-27T15:27:09Z</time>
      </trkpt>
      <trkpt lat="49.02182" lon="7.81026">
        <ele>270.8</ele>
        <time>2020-06-27T15:27:10Z</time>
      </trkpt>
      <trkpt lat="49.0219" lon="7.81033">
        <ele>270.5</ele>
        <time>2020-06-27T15:27:11Z</time>
      </trkpt>
      <trkpt lat="49.02197" lon="7.8104">
        <ele>270.3</ele>
        <time>2020-06-27T15:27:12Z</time>
      </trkpt>
      <trkpt lat="49.02205" lon="7.81047">
        <ele>270.1</ele>
        <time>2020-06-27T15:27:13Z</time>
      </trkpt>
      <trkpt lat="49.02213" lon="7.81054">
        <ele>269.9</ele>
        <time>2020-06-27T15:27:14Z</time>
      </trkpt>
      <trkpt lat="49.02221" lon="7.81062">
        <ele>269.7</ele>
        <time>2020-06-27T15:27:15Z</time>
      </trkpt>
      <trkpt lat="49.02228" lon="7.81069">
        <ele>269.6</ele>
        <time>2020-06-27T15:27:16Z</time>
      </trkpt>
      <trkpt lat="49.02235" lon="7.81078">
        <ele>269.4</ele>
        <time>2020-06-27T15:27:17Z</time>
      </trkpt>
      <trkpt lat="49.02242" lon="7.81085">
        <ele>269.2</ele>
        <time>2020-06-27T15:27:18Z</time>
      </trkpt>
      <trkpt lat="49.02249" lon="7.81093">
        <ele>269.1</ele>
        <time>2020-06-27T15:27:19Z</time>
      </trkpt>
      <trkpt lat="49.02255" lon="7.81102">
        <ele>268.9</ele>
        <time>2020-06-27T15:27:20Z</time>
      </trkpt>
      <trkpt lat="49.0226" lon="7.81109">
        <ele>268.7</ele>
        <time>2020-06-27T15:27:21Z</time>
      </trkpt>
      <trkpt lat="49.02266" lon="7.81117">
        <ele>268.5</ele>
        <time>2020-06-27T15:27:22Z</time>
      </trkpt>
      <trkpt lat="49.02272" lon="7.81125">
        <ele>268.2</ele>
        <time>2020-06-27T15:27:23Z</time>
      </trkpt>
      <trkpt lat="49.02277" lon="7.81135">
        <ele>267.9</ele>
        <time>2020-06-27T15:27:24Z</time>
      </trkpt>
      <trkpt lat="49.02283" lon="7.81144">
        <ele>267.5</ele>
        <time>2020-06-27T15:27:25Z</time>
      </trkpt>
      <trkpt lat="49.02289" lon="7.81154">
        <ele>267.2</ele>
        <time>2020-06-27T15:27:26Z</time>
      </trkpt>
      <trkpt lat="49.02295" lon="7.81164">
        <ele>266.9</ele>
        <time>2020-06-27T15:27:27Z</time>
      </trkpt>
      <trkpt lat="49.023" lon="7.81175">
        <ele>266.6</ele>
        <time>2020-06-27T15:27:28Z</time>
      </trkpt>
      <trkpt lat="49.02306" lon="7.81186">
        <ele>266.4</ele>
        <time>2020-06-27T15:27:29Z</time>
      </trkpt>
      <trkpt lat="49.02312" lon="7.81197">
        <ele>266.2</ele>
        <time>2020-06-27T15:27:30Z</time>
      </trkpt>
      <trkpt lat="49.02317" lon="7.81208">
        <ele>266.1</ele>
        <time>2020-06-27T15:27:31Z</time>
      </trkpt>
      <trkpt lat="49.02323" lon="7.81219">
        <ele>266.2</ele>
        <time>2020-06-27T15:27:32Z</time>
      </trkpt>
      <trkpt lat="49.02329" lon="7.8123">
        <ele>266.2</ele>
        <time>2020-06-27T15:27:33Z</time>
      </trkpt>
      <trkpt lat="49.02334" lon="7.8124">
        <ele>266.4</ele>
        <time>2020-06-27T15:27:34Z</time>
      </trkpt>
      <trkpt lat="49.0234" lon="7.8125">
        <ele>266.5</ele>
        <time>2020-06-27T15:27:35Z</time>
      </trkpt>
      <trkpt lat="49.02346" lon="7.81259">
        <ele>266.7</ele>
        <time>2020-06-27T15:27:36Z</time>
      </trkpt>
      <trkpt lat="49.02351" lon="7.81267">
        <ele>266.9</ele>
        <time>2020-06-27T15:27:37Z</time>
      </trkpt>
      <trkpt lat="49.02357" lon="7.81275">
        <ele>267</ele>
        <time>2020-06-27T15:27:38Z</time>
      </trkpt>
      <trkpt lat="49.02362" lon="7.81282">
        <ele>267</ele>
        <time>2020-06-27T15:27:39Z</time>
      </trkpt>
      <trkpt lat="49.02368" lon="7.81288">
        <ele>267.1</ele>
        <time>2020-06-27T15:27:40Z</time>
      </trkpt>
      <trkpt lat="49.02373" lon="7.81293">
        <ele>267.1</ele>
        <time>2020-06-27T15:27:41Z</time>
      </trkpt>
      <trkpt lat="49.02378" lon="7.81297">
        <ele>267.2</ele>
        <time>2020-06-27T15:27:42Z</time>
      </trkpt>
      <trkpt lat="49.02383" lon="7.81301">
        <ele>267.3</ele>
        <time>2020-06-27T15:27:43Z</time>
      </trkpt>
      <trkpt lat="49.02388" lon="7.81307">
        <ele>267.3</ele>
        <time>2020-06-27T15:27:44Z</time>
      </trkpt>
      <trkpt lat="49.02393" lon="7.81312">
        <ele>267.2</ele>
        <time>2020-06-27T15:27:45Z</time>
      </trkpt>
      <trkpt lat="49.02397" lon="7.81318">
        <ele>267.1</ele>
        <time>2020-06-27T15:27:46Z</time>
      </trkpt>
      <trkpt lat="49.02401" lon="7.81326">
        <ele>267.1</ele>
        <time>2020-06-27T15:27:47Z</time>
      </trkpt>
      <trkpt lat="49.02405" lon="7.81334">
        <ele>267</ele>
        <time>2020-06-27T15:27:48Z</time>
      </trkpt>
      <trkpt lat="49.0241" lon="7.81341">
        <ele>266.9</ele>
        <time>2020-06-27T15:27:49Z</time>
      </trkpt>
      <trkpt lat="49.02414" lon="7.81347">
        <ele>266.9</ele>
        <time>2020-06-27T15:27:50Z</time>
      </trkpt>
      <trkpt lat="49.02418" lon="7.81354">
        <ele>266.8</ele>
        <time>2020-06-27T15:27:51Z</time>
      </trkpt>
      <trkpt lat="49.02423" lon="7.8136">
        <ele>266.7</ele>
        <time>2020-06-27T15:27:52Z</time>
      </trkpt>
      <trkpt lat="49.02429" lon="7.81365">
        <ele>266.7</ele>
        <time>2020-06-27T15:27:53Z</time>
      </trkpt>
      <trkpt lat="49.02433" lon="7.8137">
        <ele>266.7</ele>
        <time>2020-06-27T15:27:54Z</time>
      </trkpt>
      <trkpt lat="49.02439" lon="7.81374">
        <ele>266.6</ele>
        <time>2020-06-27T15:27:55Z</time>
      </trkpt>
      <trkpt lat="49.02444" lon="7.81377">
        <ele>266.6</ele>
        <time>2020-06-27T15:27:56Z</time>
      </trkpt>
      <trkpt lat="49.0245" lon="7.81378">
        <ele>266.6</ele>
        <time>2020-06-27T15:27:57Z</time>
      </trkpt>
      <trkpt lat="49.02456" lon="7.8138">
        <ele>266.6</ele>
        <time>2020-06-27T15:27:58Z</time>
      </trkpt>
      <trkpt lat="49.02461" lon="7.81382">
        <ele>266.6</ele>
        <time>2020-06-27T15:27:59Z</time>
      </trkpt>
      <trkpt lat="49.02467" lon="7.81382">
        <ele>266.6</ele>
        <time>2020-06-27T15:28:00Z</time>
      </trkpt>
      <trkpt lat="49.02473" lon="7.81383">
        <ele>266.6</ele>
        <time>2020-06-27T15:28:01Z</time>
      </trkpt>
      <trkpt lat="49.02479" lon="7.81385">
        <ele>266.6</ele>
        <time>2020-06-27T15:28:02Z</time>
      </trkpt>
      <trkpt lat="49.02485" lon="7.81388">
        <ele>266.7</ele>
        <time>2020-06-27T15:28:03Z</time>
      </trkpt>
      <trkpt lat="49.02491" lon="7.81391">
        <ele>266.8</ele>
        <time>2020-06-27T15:28:04Z</time>
      </trkpt>
      <trkpt lat="49.02497" lon="7.81393">
        <ele>267</ele>
        <time>2020-06-27T15:28:05Z</time>
      </trkpt>
      <trkpt lat="49.02502" lon="7.81396">
        <ele>267.3</ele>
        <time>2020-06-27T15:28:06Z</time>
      </trkpt>
      <trkpt lat="49.02506" lon="7.81399">
        <ele>267.6</ele>
        <time>2020-06-27T15:28:07Z</time>
      </trkpt>
      <trkpt lat="49.02509" lon="7.81403">
        <ele>267.8</ele>
        <time>2020-06-27T15:28:08Z</time>
      </trkpt>
      <trkpt lat="49.02513" lon="7.81408">
        <ele>268.1</ele>
        <time>2020-06-27T15:28:09Z</time>
      </trkpt>
      <trkpt lat="49.02516" lon="7.81413">
        <ele>268.3</ele>
        <time>2020-06-27T15:28:10Z</time>
      </trkpt>
      <trkpt lat="49.0252" lon="7.81417">
        <ele>268.6</ele>
        <time>2020-06-27T15:28:11Z</time>
      </trkpt>
      <trkpt lat="49.02523" lon="7.81422">
        <ele>268.9</ele>
        <time>2020-06-27T15:28:12Z</time>
      </trkpt>
      <trkpt lat="49.02525" lon="7.81428">
        <ele>269.1</ele>
        <time>2020-06-27T15:28:13Z</time>
      </trkpt>
      <trkpt lat="49.02528" lon="7.81433">
        <ele>269.4</ele>
        <time>2020-06-27T15:28:14Z</time>
      </trkpt>
      <trkpt lat="49.0253" lon="7.81439">
        <ele>269.7</ele>
        <time>2020-06-27T15:28:15Z</time>
      </trkpt>
      <trkpt lat="49.02532" lon="7.81444">
        <ele>269.9</ele>
        <time>2020-06-27T15:28:16Z</time>
      </trkpt>
      <trkpt lat="49.02534" lon="7.81449">
        <ele>270.2</ele>
        <time>2020-06-27T15:28:17Z</time>
      </trkpt>
      <trkpt lat="49.02537" lon="7.81453">
        <ele>270.4</ele>
        <time>2020-06-27T15:28:18Z</time>
      </trkpt>
      <trkpt lat="49.02539" lon="7.81458">
        <ele>270.7</ele>
        <time>2020-06-27T15:28:19Z</time>
      </trkpt>
      <trkpt lat="49.02541" lon="7.8146">
        <ele>270.9</ele>
        <time>2020-06-27T15:28:20Z</time>
      </trkpt>
      <trkpt lat="49.02544" lon="7.81463">
        <ele>271.1</ele>
        <time>2020-06-27T15:28:21Z</time>
      </trkpt>
      <trkpt lat="49.02547" lon="7.81467">
        <ele>271.3</ele>
        <time>2020-06-27T15:28:22Z</time>
      </trkpt>
      <trkpt lat="49.02549" lon="7.8147">
        <ele>271.5</ele>
        <time>2020-06-27T15:28:23Z</time>
      </trkpt>
      <trkpt lat="49.0255" lon="7.81474">
        <ele>271.6</ele>
        <time>2020-06-27T15:28:24Z</time>
      </trkpt>
      <trkpt lat="49.0255" lon="7.81476">
        <ele>271.7</ele>
        <time>2020-06-27T15:28:25Z</time>
      </trkpt>
      <trkpt lat="49.02553" lon="7.8148">
        <ele>271.8</ele>
        <time>2020-06-27T15:28:26Z</time>
      </trkpt>
      <trkpt lat="49.02554" lon="7.81481">
        <ele>272</ele>
        <time>2020-06-27T15:28:27Z</time>
      </trkpt>
      <trkpt lat="49.02558" lon="7.81485">
        <ele>272.2</ele>
        <time>2020-06-27T15:28:28Z</time>
      </trkpt>
      <trkpt lat="49.02561" lon="7.81488">
        <ele>272.4</ele>
        <time>2020-06-27T15:28:29Z</time>
      </trkpt>
      <trkpt lat="49.02564" lon="7.81492">
        <ele>272.5</ele>
        <time>2020-06-27T15:28:30Z</time>
      </trkpt>
      <trkpt lat="49.02565" lon="7.81493">
        <ele>272.5</ele>
        <time>2020-06-27T15:28:31Z</time>
      </trkpt>
      <trkpt lat="49.02567" lon="7.81496">
        <ele>272.5</ele>
        <time>2020-06-27T15:28:32Z</time>
      </trkpt>
      <trkpt lat="49.02567" lon="7.81498">
        <ele>272.5</ele>
        <time>2020-06-27T15:28:33Z</time>
      </trkpt>
      <trkpt lat="49.02568" lon="7.815">
        <ele>272.5</ele>
        <time>2020-06-27T15:28:34Z</time>
      </trkpt>
      <trkpt lat="49.02568" lon="7.81499">
        <ele>272.5</ele>
        <time>2020-06-27T15:28:35Z</time>
      </trkpt>
      <trkpt lat="49.02568" lon="7.81499">
        <ele>272.5</ele>
        <time>2020-06-27T15:28:36Z</time>
      </trkpt>
      <trkpt lat="49.02568" lon="7.81497">
        <ele>272.5</ele>
        <time>2020-06-27T15:28:37Z</time>
      </trkpt>
      <trkpt lat="49.02568" lon="7.81497">
        <ele>272.5</ele>
        <time>2020-06-27T15:28:38Z</time>
      </trkpt>
      <trkpt lat="49.02567" lon="7.81498">
        <ele>272.5</ele>
        <time>2020-06-27T15:28:39Z</time>
      </trkpt>
      <trkpt lat="49.02567" lon="7.81499">
        <ele>272.5</ele>
        <time>2020-06-27T15:28:40Z</time>
      </trkpt>
      <trkpt lat="49.02566" lon="7.81498">
        <ele>272.5</ele>
        <time>2020-06-27T15:28:41Z</time>
      </trkpt>
      <trkpt lat="49.02565" lon="7.81497">
        <ele>272.5</ele>
        <time>2020-06-27T15:28:42Z</time>
      </trkpt>
      <trkpt lat="49.02565" lon="7.81496">
        <ele>272.5</ele>
        <time>2020-06-27T15:28:43Z</time>
      </trkpt>
      <trkpt lat="49.02565" lon="7.81497">
        <ele>272.5</ele>
        <time>2020-06-27T15:28:44Z</time>
      </trkpt>
      <trkpt lat="49.02565" lon="7.81496">
        <ele>272.5</ele>
        <time>2020-06-27T15:28:45Z</time>
      </trkpt>
      <trkpt lat="49.02568" lon="7.81506">
        <ele>272.6</ele>
        <time>2020-06-27T15:29:03Z</time>
      </trkpt>
      <trkpt lat="49.02569" lon="7.8151">
        <ele>272.6</ele>
        <time>2020-06-27T15:29:04Z</time>
      </trkpt>
      <trkpt lat="49.0257" lon="7.81516">
        <ele>272.6</ele>
        <time>2020-06-27T15:29:05Z</time>
      </trkpt>
      <trkpt lat="49.02571" lon="7.81519">
        <ele>272.5</ele>
        <time>2020-06-27T15:29:06Z</time>
      </trkpt>
      <trkpt lat="49.02572" lon="7.81524">
        <ele>272.5</ele>
        <time>2020-06-27T15:29:07Z</time>
      </trkpt>
      <trkpt lat="49.02573" lon="7.8153">
        <ele>272.4</ele>
        <time>2020-06-27T15:29:08Z</time>
      </trkpt>
      <trkpt lat="49.02574" lon="7.81537">
        <ele>272.3</ele>
        <time>2020-06-27T15:29:09Z</time>
      </trkpt>
      <trkpt lat="49.02575" lon="7.81541">
        <ele>272.2</ele>
        <time>2020-06-27T15:29:10Z</time>
      </trkpt>
      <trkpt lat="49.02576" lon="7.81545">
        <ele>272.1</ele>
        <time>2020-06-27T15:29:11Z</time>
      </trkpt>
      <trkpt lat="49.02577" lon="7.8155">
        <ele>272</ele>
        <time>2020-06-27T15:29:12Z</time>
      </trkpt>
      <trkpt lat="49.02579" lon="7.81553">
        <ele>271.9</ele>
        <time>2020-06-27T15:29:13Z</time>
      </trkpt>
      <trkpt lat="49.02582" lon="7.81563">
        <ele>271.6</ele>
        <time>2020-06-27T15:29:14Z</time>
      </trkpt>
      <trkpt lat="49.02584" lon="7.8157">
        <ele>271.4</ele>
        <time>2020-06-27T15:29:15Z</time>
      </trkpt>
      <trkpt lat="49.02587" lon="7.81577">
        <ele>271.2</ele>
        <time>2020-06-27T15:29:16Z</time>
      </trkpt>
      <trkpt lat="49.02589" lon="7.81586">
        <ele>271</ele>
        <time>2020-06-27T15:29:17Z</time>
      </trkpt>
      <trkpt lat="49.02591" lon="7.81595">
        <ele>270.9</ele>
        <time>2020-06-27T15:29:18Z</time>
      </trkpt>
      <trkpt lat="49.02593" lon="7.81604">
        <ele>270.8</ele>
        <time>2020-06-27T15:29:19Z</time>
      </trkpt>
      <trkpt lat="49.02595" lon="7.81615">
        <ele>270.8</ele>
        <time>2020-06-27T15:29:20Z</time>
      </trkpt>
      <trkpt lat="49.02595" lon="7.81625">
        <ele>270.7</ele>
        <time>2020-06-27T15:29:21Z</time>
      </trkpt>
      <trkpt lat="49.02596" lon="7.81635">
        <ele>270.8</ele>
        <time>2020-06-27T15:29:22Z</time>
      </trkpt>
      <trkpt lat="49.02599" lon="7.81643">
        <ele>270.8</ele>
        <time>2020-06-27T15:29:23Z</time>
      </trkpt>
      <trkpt lat="49.02602" lon="7.81652">
        <ele>270.8</ele>
        <time>2020-06-27T15:29:24Z</time>
      </trkpt>
      <trkpt lat="49.02605" lon="7.81664">
        <ele>270.9</ele>
        <time>2020-06-27T15:29:25Z</time>
      </trkpt>
      <trkpt lat="49.02607" lon="7.81673">
        <ele>270.9</ele>
        <time>2020-06-27T15:29:26Z</time>
      </trkpt>
      <trkpt lat="49.02609" lon="7.81681">
        <ele>271.2</ele>
        <time>2020-06-27T15:29:27Z</time>
      </trkpt>
      <trkpt lat="49.02609" lon="7.8169">
        <ele>271.6</ele>
        <time>2020-06-27T15:29:28Z</time>
      </trkpt>
      <trkpt lat="49.02609" lon="7.81699">
        <ele>272</ele>
        <time>2020-06-27T15:29:29Z</time>
      </trkpt>
      <trkpt lat="49.02608" lon="7.81707">
        <ele>272.3</ele>
        <time>2020-06-27T15:29:30Z</time>
      </trkpt>
      <trkpt lat="49.02607" lon="7.81713">
        <ele>272.6</ele>
        <time>2020-06-27T15:29:31Z</time>
      </trkpt>
      <trkpt lat="49.02607" lon="7.81719">
        <ele>272.9</ele>
        <time>2020-06-27T15:29:32Z</time>
      </trkpt>
      <trkpt lat="49.02605" lon="7.81724">
        <ele>273.2</ele>
        <time>2020-06-27T15:29:33Z</time>
      </trkpt>
      <trkpt lat="49.02604" lon="7.81729">
        <ele>273.4</ele>
        <time>2020-06-27T15:29:34Z</time>
      </trkpt>
      <trkpt lat="49.02603" lon="7.81734">
        <ele>273.6</ele>
        <time>2020-06-27T15:29:35Z</time>
      </trkpt>
      <trkpt lat="49.02603" lon="7.81738">
        <ele>273.8</ele>
        <time>2020-06-27T15:29:36Z</time>
      </trkpt>
      <trkpt lat="49.02602" lon="7.8174">
        <ele>273.9</ele>
        <time>2020-06-27T15:29:37Z</time>
      </trkpt>
      <trkpt lat="49.02602" lon="7.81745">
        <ele>274.2</ele>
        <time>2020-06-27T15:29:38Z</time>
      </trkpt>
      <trkpt lat="49.02602" lon="7.81748">
        <ele>274.3</ele>
        <time>2020-06-27T15:29:39Z</time>
      </trkpt>
      <trkpt lat="49.02601" lon="7.81753">
        <ele>274.5</ele>
        <time>2020-06-27T15:29:40Z</time>
      </trkpt>
      <trkpt lat="49.026" lon="7.81755">
        <ele>274.6</ele>
        <time>2020-06-27T15:29:41Z</time>
      </trkpt>
      <trkpt lat="49.026" lon="7.81761">
        <ele>274.9</ele>
        <time>2020-06-27T15:29:42Z</time>
      </trkpt>
      <trkpt lat="49.02599" lon="7.81764">
        <ele>275</ele>
        <time>2020-06-27T15:29:43Z</time>
      </trkpt>
      <trkpt lat="49.02599" lon="7.81765">
        <ele>275.1</ele>
        <time>2020-06-27T15:29:44Z</time>
      </trkpt>
      <trkpt lat="49.02599" lon="7.81768">
        <ele>275.2</ele>
        <time>2020-06-27T15:29:45Z</time>
      </trkpt>
      <trkpt lat="49.026" lon="7.81772">
        <ele>275.4</ele>
        <time>2020-06-27T15:29:46Z</time>
      </trkpt>
      <trkpt lat="49.026" lon="7.81774">
        <ele>275.5</ele>
        <time>2020-06-27T15:29:47Z</time>
      </trkpt>
      <trkpt lat="49.02599" lon="7.81778">
        <ele>275.7</ele>
        <time>2020-06-27T15:29:48Z</time>
      </trkpt>
      <trkpt lat="49.02598" lon="7.81783">
        <ele>275.9</ele>
        <time>2020-06-27T15:29:49Z</time>
      </trkpt>
      <trkpt lat="49.02598" lon="7.81787">
        <ele>276.1</ele>
        <time>2020-06-27T15:29:50Z</time>
      </trkpt>
      <trkpt lat="49.02597" lon="7.81793">
        <ele>276.4</ele>
        <time>2020-06-27T15:29:51Z</time>
      </trkpt>
      <trkpt lat="49.02596" lon="7.81799">
        <ele>276.7</ele>
        <time>2020-06-27T15:29:52Z</time>
      </trkpt>
      <trkpt lat="49.02595" lon="7.81802">
        <ele>276.8</ele>
        <time>2020-06-27T15:29:53Z</time>
      </trkpt>
      <trkpt lat="49.02594" lon="7.81808">
        <ele>277.1</ele>
        <time>2020-06-27T15:29:54Z</time>
      </trkpt>
      <trkpt lat="49.02594" lon="7.81814">
        <ele>277.4</ele>
        <time>2020-06-27T15:29:55Z</time>
      </trkpt>
      <trkpt lat="49.02594" lon="7.81816">
        <ele>277.6</ele>
        <time>2020-06-27T15:29:56Z</time>
      </trkpt>
      <trkpt lat="49.02593" lon="7.8182">
        <ele>277.8</ele>
        <time>2020-06-27T15:29:57Z</time>
      </trkpt>
      <trkpt lat="49.02592" lon="7.81825">
        <ele>278</ele>
        <time>2020-06-27T15:29:58Z</time>
      </trkpt>
      <trkpt lat="49.02592" lon="7.81827">
        <ele>278.1</ele>
        <time>2020-06-27T15:29:59Z</time>
      </trkpt>
      <trkpt lat="49.0259" lon="7.81834">
        <ele>278.5</ele>
        <time>2020-06-27T15:30:00Z</time>
      </trkpt>
      <trkpt lat="49.02589" lon="7.81838">
        <ele>278.7</ele>
        <time>2020-06-27T15:30:01Z</time>
      </trkpt>
      <trkpt lat="49.02588" lon="7.8184">
        <ele>278.9</ele>
        <time>2020-06-27T15:30:02Z</time>
      </trkpt>
      <trkpt lat="49.02587" lon="7.81842">
        <ele>279</ele>
        <time>2020-06-27T15:30:03Z</time>
      </trkpt>
      <trkpt lat="49.02586" lon="7.81847">
        <ele>279.3</ele>
        <time>2020-06-27T15:30:04Z</time>
      </trkpt>
      <trkpt lat="49.02586" lon="7.81848">
        <ele>279.4</ele>
        <time>2020-06-27T15:30:05Z</time>
      </trkpt>
      <trkpt lat="49.02584" lon="7.81852">
        <ele>279.7</ele>
        <time>2020-06-27T15:30:06Z</time>
      </trkpt>
      <trkpt lat="49.02583" lon="7.81856">
        <ele>280</ele>
        <time>2020-06-27T15:30:07Z</time>
      </trkpt>
      <trkpt lat="49.02582" lon="7.8186">
        <ele>280.3</ele>
        <time>2020-06-27T15:30:08Z</time>
      </trkpt>
      <trkpt lat="49.02581" lon="7.81862">
        <ele>280.4</ele>
        <time>2020-06-27T15:30:09Z</time>
      </trkpt>
      <trkpt lat="49.0258" lon="7.81867">
        <ele>280.8</ele>
        <time>2020-06-27T15:30:10Z</time>
      </trkpt>
      <trkpt lat="49.0258" lon="7.81872">
        <ele>281.1</ele>
        <time>2020-06-27T15:30:11Z</time>
      </trkpt>
      <trkpt lat="49.02579" lon="7.81876">
        <ele>281.4</ele>
        <time>2020-06-27T15:30:12Z</time>
      </trkpt>
      <trkpt lat="49.02578" lon="7.81881">
        <ele>281.7</ele>
        <time>2020-06-27T15:30:13Z</time>
      </trkpt>
      <trkpt lat="49.02577" lon="7.81881">
        <ele>281.8</ele>
        <time>2020-06-27T15:30:14Z</time>
      </trkpt>
      <trkpt lat="49.02575" lon="7.81887">
        <ele>282.3</ele>
        <time>2020-06-27T15:30:15Z</time>
      </trkpt>
      <trkpt lat="49.02574" lon="7.8189">
        <ele>282.4</ele>
        <time>2020-06-27T15:30:16Z</time>
      </trkpt>
      <trkpt lat="49.02572" lon="7.81895">
        <ele>282.8</ele>
        <time>2020-06-27T15:30:17Z</time>
      </trkpt>
      <trkpt lat="49.02572" lon="7.81897">
        <ele>283</ele>
        <time>2020-06-27T15:30:18Z</time>
      </trkpt>
      <trkpt lat="49.02571" lon="7.81901">
        <ele>283.3</ele>
        <time>2020-06-27T15:30:19Z</time>
      </trkpt>
      <trkpt lat="49.02571" lon="7.81907">
        <ele>283.6</ele>
        <time>2020-06-27T15:30:20Z</time>
      </trkpt>
      <trkpt lat="49.02571" lon="7.81909">
        <ele>283.7</ele>
        <time>2020-06-27T15:30:21Z</time>
      </trkpt>
      <trkpt lat="49.0257" lon="7.81914">
        <ele>284.1</ele>
        <time>2020-06-27T15:30:22Z</time>
      </trkpt>
      <trkpt lat="49.02569" lon="7.81919">
        <ele>284.3</ele>
        <time>2020-06-27T15:30:23Z</time>
      </trkpt>
      <trkpt lat="49.02568" lon="7.81924">
        <ele>284.6</ele>
        <time>2020-06-27T15:30:24Z</time>
      </trkpt>
      <trkpt lat="49.02568" lon="7.81928">
        <ele>285</ele>
        <time>2020-06-27T15:30:25Z</time>
      </trkpt>
      <trkpt lat="49.02568" lon="7.81933">
        <ele>285.1</ele>
        <time>2020-06-27T15:30:26Z</time>
      </trkpt>
      <trkpt lat="49.02567" lon="7.81938">
        <ele>285.3</ele>
        <time>2020-06-27T15:30:27Z</time>
      </trkpt>
      <trkpt lat="49.02567" lon="7.81943">
        <ele>285.4</ele>
        <time>2020-06-27T15:30:28Z</time>
      </trkpt>
      <trkpt lat="49.02567" lon="7.81944">
        <ele>285.4</ele>
        <time>2020-06-27T15:30:29Z</time>
      </trkpt>
      <trkpt lat="49.02566" lon="7.81949">
        <ele>285.6</ele>
        <time>2020-06-27T15:30:30Z</time>
      </trkpt>
      <trkpt lat="49.02566" lon="7.8195">
        <ele>285.6</ele>
        <time>2020-06-27T15:30:31Z</time>
      </trkpt>
      <trkpt lat="49.02566" lon="7.81955">
        <ele>285.7</ele>
        <time>2020-06-27T15:30:32Z</time>
      </trkpt>
      <trkpt lat="49.02566" lon="7.81959">
        <ele>285.9</ele>
        <time>2020-06-27T15:30:33Z</time>
      </trkpt>
      <trkpt lat="49.02566" lon="7.81961">
        <ele>285.9</ele>
        <time>2020-06-27T15:30:34Z</time>
      </trkpt>
      <trkpt lat="49.02566" lon="7.81963">
        <ele>285.9</ele>
        <time>2020-06-27T15:30:35Z</time>
      </trkpt>
      <trkpt lat="49.02566" lon="7.81966">
        <ele>286</ele>
        <time>2020-06-27T15:30:36Z</time>
      </trkpt>
      <trkpt lat="49.02566" lon="7.81968">
        <ele>286</ele>
        <time>2020-06-27T15:30:37Z</time>
      </trkpt>
      <trkpt lat="49.02567" lon="7.8197">
        <ele>286.1</ele>
        <time>2020-06-27T15:30:38Z</time>
      </trkpt>
      <trkpt lat="49.02567" lon="7.81976">
        <ele>286.2</ele>
        <time>2020-06-27T15:30:39Z</time>
      </trkpt>
      <trkpt lat="49.02567" lon="7.81978">
        <ele>286.2</ele>
        <time>2020-06-27T15:30:40Z</time>
      </trkpt>
      <trkpt lat="49.02567" lon="7.81983">
        <ele>286.2</ele>
        <time>2020-06-27T15:30:41Z</time>
      </trkpt>
      <trkpt lat="49.02567" lon="7.81984">
        <ele>286.2</ele>
        <time>2020-06-27T15:30:42Z</time>
      </trkpt>
      <trkpt lat="49.02568" lon="7.8199">
        <ele>286.2</ele>
        <time>2020-06-27T15:30:43Z</time>
      </trkpt>
      <trkpt lat="49.02568" lon="7.81992">
        <ele>286.2</ele>
        <time>2020-06-27T15:30:44Z</time>
      </trkpt>
      <trkpt lat="49.02567" lon="7.81994">
        <ele>286.2</ele>
        <time>2020-06-27T15:30:45Z</time>
      </trkpt>
      <trkpt lat="49.02568" lon="7.81997">
        <ele>286.2</ele>
        <time>2020-06-27T15:30:46Z</time>
      </trkpt>
      <trkpt lat="49.02567" lon="7.81999">
        <ele>286.2</ele>
        <time>2020-06-27T15:30:47Z</time>
      </trkpt>
      <trkpt lat="49.02567" lon="7.82002">
        <ele>286.2</ele>
        <time>2020-06-27T15:30:48Z</time>
      </trkpt>
      <trkpt lat="49.02567" lon="7.82004">
        <ele>286.1</ele>
        <time>2020-06-27T15:30:49Z</time>
      </trkpt>
      <trkpt lat="49.02568" lon="7.82007">
        <ele>286.1</ele>
        <time>2020-06-27T15:30:50Z</time>
      </trkpt>
      <trkpt lat="49.02568" lon="7.82012">
        <ele>286</ele>
        <time>2020-06-27T15:30:51Z</time>
      </trkpt>
      <trkpt lat="49.02568" lon="7.82014">
        <ele>285.9</ele>
        <time>2020-06-27T15:30:52Z</time>
      </trkpt>
      <trkpt lat="49.02569" lon="7.82018">
        <ele>285.8</ele>
        <time>2020-06-27T15:30:53Z</time>
      </trkpt>
      <trkpt lat="49.02569" lon="7.82023">
        <ele>285.6</ele>
        <time>2020-06-27T15:30:54Z</time>
      </trkpt>
      <trkpt lat="49.02569" lon="7.82029">
        <ele>285.4</ele>
        <time>2020-06-27T15:30:55Z</time>
      </trkpt>
      <trkpt lat="49.02571" lon="7.82033">
        <ele>285.2</ele>
        <time>2020-06-27T15:30:56Z</time>
      </trkpt>
      <trkpt lat="49.02573" lon="7.82038">
        <ele>285</ele>
        <time>2020-06-27T15:30:57Z</time>
      </trkpt>
      <trkpt lat="49.02573" lon="7.82044">
        <ele>284.7</ele>
        <time>2020-06-27T15:30:58Z</time>
      </trkpt>
      <trkpt lat="49.02574" lon="7.82049">
        <ele>284.4</ele>
        <time>2020-06-27T15:30:59Z</time>
      </trkpt>
      <trkpt lat="49.02576" lon="7.82055">
        <ele>284.1</ele>
        <time>2020-06-27T15:31:00Z</time>
      </trkpt>
      <trkpt lat="49.02578" lon="7.82062">
        <ele>283.6</ele>
        <time>2020-06-27T15:31:01Z</time>
      </trkpt>
      <trkpt lat="49.02581" lon="7.82069">
        <ele>283.1</ele>
        <time>2020-06-27T15:31:02Z</time>
      </trkpt>
      <trkpt lat="49.02585" lon="7.82077">
        <ele>282.5</ele>
        <time>2020-06-27T15:31:03Z</time>
      </trkpt>
      <trkpt lat="49.02589" lon="7.82084">
        <ele>281.8</ele>
        <time>2020-06-27T15:31:04Z</time>
      </trkpt>
      <trkpt lat="49.02595" lon="7.8209">
        <ele>281.2</ele>
        <time>2020-06-27T15:31:05Z</time>
      </trkpt>
      <trkpt lat="49.02601" lon="7.82094">
        <ele>280.5</ele>
        <time>2020-06-27T15:31:06Z</time>
      </trkpt>
      <trkpt lat="49.02607" lon="7.82099">
        <ele>279.8</ele>
        <time>2020-06-27T15:31:07Z</time>
      </trkpt>
      <trkpt lat="49.02614" lon="7.82104">
        <ele>279.1</ele>
        <time>2020-06-27T15:31:08Z</time>
      </trkpt>
      <trkpt lat="49.02621" lon="7.82107">
        <ele>278.3</ele>
        <time>2020-06-27T15:31:09Z</time>
      </trkpt>
      <trkpt lat="49.02627" lon="7.82113">
        <ele>277.5</ele>
        <time>2020-06-27T15:31:10Z</time>
      </trkpt>
      <trkpt lat="49.02636" lon="7.8212">
        <ele>276.5</ele>
        <time>2020-06-27T15:31:11Z</time>
      </trkpt>
      <trkpt lat="49.02644" lon="7.82127">
        <ele>275.6</ele>
        <time>2020-06-27T15:31:12Z</time>
      </trkpt>
      <trkpt lat="49.02651" lon="7.82132">
        <ele>274.8</ele>
        <time>2020-06-27T15:31:13Z</time>
      </trkpt>
      <trkpt lat="49.02658" lon="7.82138">
        <ele>274</ele>
        <time>2020-06-27T15:31:14Z</time>
      </trkpt>
      <trkpt lat="49.02664" lon="7.82146">
        <ele>273.2</ele>
        <time>2020-06-27T15:31:15Z</time>
      </trkpt>
      <trkpt lat="49.02669" lon="7.82156">
        <ele>272.3</ele>
        <time>2020-06-27T15:31:16Z</time>
      </trkpt>
      <trkpt lat="49.02675" lon="7.82167">
        <ele>271.4</ele>
        <time>2020-06-27T15:31:17Z</time>
      </trkpt>
      <trkpt lat="49.02681" lon="7.82178">
        <ele>270.3</ele>
        <time>2020-06-27T15:31:18Z</time>
      </trkpt>
      <trkpt lat="49.02687" lon="7.8219">
        <ele>269.3</ele>
        <time>2020-06-27T15:31:19Z</time>
      </trkpt>
      <trkpt lat="49.02693" lon="7.82202">
        <ele>268.3</ele>
        <time>2020-06-27T15:31:20Z</time>
      </trkpt>
      <trkpt lat="49.02699" lon="7.82214">
        <ele>267.2</ele>
        <time>2020-06-27T15:31:21Z</time>
      </trkpt>
      <trkpt lat="49.02706" lon="7.82227">
        <ele>266.1</ele>
        <time>2020-06-27T15:31:22Z</time>
      </trkpt>
      <trkpt lat="49.02712" lon="7.82241">
        <ele>265</ele>
        <time>2020-06-27T15:31:23Z</time>
      </trkpt>
      <trkpt lat="49.02718" lon="7.82255">
        <ele>263.8</ele>
        <time>2020-06-27T15:31:24Z</time>
      </trkpt>
      <trkpt lat="49.02724" lon="7.82269">
        <ele>262.8</ele>
        <time>2020-06-27T15:31:25Z</time>
      </trkpt>
      <trkpt lat="49.0273" lon="7.82282">
        <ele>261.7</ele>
        <time>2020-06-27T15:31:26Z</time>
      </trkpt>
      <trkpt lat="49.02735" lon="7.82295">
        <ele>260.8</ele>
        <time>2020-06-27T15:31:27Z</time>
      </trkpt>
      <trkpt lat="49.0274" lon="7.82307">
        <ele>259.9</ele>
        <time>2020-06-27T15:31:28Z</time>
      </trkpt>
      <trkpt lat="49.02744" lon="7.82317">
        <ele>259.2</ele>
        <time>2020-06-27T15:31:29Z</time>
      </trkpt>
      <trkpt lat="49.02747" lon="7.82328">
        <ele>258.5</ele>
        <time>2020-06-27T15:31:30Z</time>
      </trkpt>
      <trkpt lat="49.0275" lon="7.8234">
        <ele>257.7</ele>
        <time>2020-06-27T15:31:31Z</time>
      </trkpt>
      <trkpt lat="49.02753" lon="7.82352">
        <ele>257</ele>
        <time>2020-06-27T15:31:32Z</time>
      </trkpt>
      <trkpt lat="49.02756" lon="7.82365">
        <ele>256.4</ele>
        <time>2020-06-27T15:31:33Z</time>
      </trkpt>
      <trkpt lat="49.0276" lon="7.82377">
        <ele>256</ele>
        <time>2020-06-27T15:31:34Z</time>
      </trkpt>
      <trkpt lat="49.02763" lon="7.8239">
        <ele>255.6</ele>
        <time>2020-06-27T15:31:35Z</time>
      </trkpt>
      <trkpt lat="49.02766" lon="7.82404">
        <ele>255.3</ele>
        <time>2020-06-27T15:31:36Z</time>
      </trkpt>
      <trkpt lat="49.02769" lon="7.82418">
        <ele>255.1</ele>
        <time>2020-06-27T15:31:37Z</time>
      </trkpt>
      <trkpt lat="49.02772" lon="7.82433">
        <ele>254.9</ele>
        <time>2020-06-27T15:31:38Z</time>
      </trkpt>
      <trkpt lat="49.02774" lon="7.82448">
        <ele>254.8</ele>
        <time>2020-06-27T15:31:39Z</time>
      </trkpt>
      <trkpt lat="49.02777" lon="7.82463">
        <ele>254.7</ele>
        <time>2020-06-27T15:31:40Z</time>
      </trkpt>
      <trkpt lat="49.02779" lon="7.82477">
        <ele>254.6</ele>
        <time>2020-06-27T15:31:41Z</time>
      </trkpt>
      <trkpt lat="49.02782" lon="7.8249">
        <ele>254.6</ele>
        <time>2020-06-27T15:31:42Z</time>
      </trkpt>
      <trkpt lat="49.02785" lon="7.82504">
        <ele>254.7</ele>
        <time>2020-06-27T15:31:43Z</time>
      </trkpt>
      <trkpt lat="49.02789" lon="7.82516">
        <ele>254.9</ele>
        <time>2020-06-27T15:31:44Z</time>
      </trkpt>
      <trkpt lat="49.02793" lon="7.82528">
        <ele>255.1</ele>
        <time>2020-06-27T15:31:45Z</time>
      </trkpt>
      <trkpt lat="49.02796" lon="7.8254">
        <ele>255.4</ele>
        <time>2020-06-27T15:31:46Z</time>
      </trkpt>
      <trkpt lat="49.02798" lon="7.82552">
        <ele>255.4</ele>
        <time>2020-06-27T15:31:47Z</time>
      </trkpt>
      <trkpt lat="49.02799" lon="7.82564">
        <ele>255.4</ele>
        <time>2020-06-27T15:31:48Z</time>
      </trkpt>
      <trkpt lat="49.02796" lon="7.82574">
        <ele>255.4</ele>
        <time>2020-06-27T15:31:49Z</time>
      </trkpt>
      <trkpt lat="49.0279" lon="7.82581">
        <ele>255.4</ele>
        <time>2020-06-27T15:31:50Z</time>
      </trkpt>
      <trkpt lat="49.02784" lon="7.82587">
        <ele>255.1</ele>
        <time>2020-06-27T15:31:51Z</time>
      </trkpt>
      <trkpt lat="49.02778" lon="7.82591">
        <ele>254.9</ele>
        <time>2020-06-27T15:31:52Z</time>
      </trkpt>
      <trkpt lat="49.02771" lon="7.82594">
        <ele>254.7</ele>
        <time>2020-06-27T15:31:53Z</time>
      </trkpt>
      <trkpt lat="49.02765" lon="7.82596">
        <ele>254.5</ele>
        <time>2020-06-27T15:31:54Z</time>
      </trkpt>
      <trkpt lat="49.02759" lon="7.82599">
        <ele>254.4</ele>
        <time>2020-06-27T15:31:55Z</time>
      </trkpt>
      <trkpt lat="49.02752" lon="7.82602">
        <ele>254.4</ele>
        <time>2020-06-27T15:31:56Z</time>
      </trkpt>
      <trkpt lat="49.02747" lon="7.82605">
        <ele>254.3</ele>
        <time>2020-06-27T15:31:57Z</time>
      </trkpt>
      <trkpt lat="49.02741" lon="7.82608">
        <ele>254.3</ele>
        <time>2020-06-27T15:31:58Z</time>
      </trkpt>
      <trkpt lat="49.02736" lon="7.82611">
        <ele>254.2</ele>
        <time>2020-06-27T15:31:59Z</time>
      </trkpt>
      <trkpt lat="49.02731" lon="7.82615">
        <ele>254.2</ele>
        <time>2020-06-27T15:32:00Z</time>
      </trkpt>
      <trkpt lat="49.02726" lon="7.82617">
        <ele>254.2</ele>
        <time>2020-06-27T15:32:01Z</time>
      </trkpt>
      <trkpt lat="49.02722" lon="7.82619">
        <ele>254.2</ele>
        <time>2020-06-27T15:32:02Z</time>
      </trkpt>
      <trkpt lat="49.02717" lon="7.82622">
        <ele>254.2</ele>
        <time>2020-06-27T15:32:03Z</time>
      </trkpt>
      <trkpt lat="49.02713" lon="7.82625">
        <ele>254.3</ele>
        <time>2020-06-27T15:32:04Z</time>
      </trkpt>
      <trkpt lat="49.02708" lon="7.82628">
        <ele>254.3</ele>
        <time>2020-06-27T15:32:05Z</time>
      </trkpt>
      <trkpt lat="49.02704" lon="7.8263">
        <ele>254.3</ele>
        <time>2020-06-27T15:32:06Z</time>
      </trkpt>
      <trkpt lat="49.02699" lon="7.82633">
        <ele>254.3</ele>
        <time>2020-06-27T15:32:07Z</time>
      </trkpt>
      <trkpt lat="49.02694" lon="7.82634">
        <ele>254.4</ele>
        <time>2020-06-27T15:32:08Z</time>
      </trkpt>
      <trkpt lat="49.02689" lon="7.82636">
        <ele>254.4</ele>
        <time>2020-06-27T15:32:09Z</time>
      </trkpt>
      <trkpt lat="49.02684" lon="7.82636">
        <ele>254.5</ele>
        <time>2020-06-27T15:32:10Z</time>
      </trkpt>
      <trkpt lat="49.02678" lon="7.82635">
        <ele>254.6</ele>
        <time>2020-06-27T15:32:11Z</time>
      </trkpt>
      <trkpt lat="49.02672" lon="7.82632">
        <ele>254.6</ele>
        <time>2020-06-27T15:32:12Z</time>
      </trkpt>
      <trkpt lat="49.02667" lon="7.8263">
        <ele>254.8</ele>
        <time>2020-06-27T15:32:13Z</time>
      </trkpt>
      <trkpt lat="49.02661" lon="7.82627">
        <ele>254.9</ele>
        <time>2020-06-27T15:32:14Z</time>
      </trkpt>
      <trkpt lat="49.02655" lon="7.82626">
        <ele>255.1</ele>
        <time>2020-06-27T15:32:15Z</time>
      </trkpt>
      <trkpt lat="49.02649" lon="7.82623">
        <ele>255.3</ele>
        <time>2020-06-27T15:32:16Z</time>
      </trkpt>
      <trkpt lat="49.02644" lon="7.8262">
        <ele>255.6</ele>
        <time>2020-06-27T15:32:17Z</time>
      </trkpt>
      <trkpt lat="49.02638" lon="7.82618">
        <ele>255.9</ele>
        <time>2020-06-27T15:32:18Z</time>
      </trkpt>
      <trkpt lat="49.02633" lon="7.82615">
        <ele>256.2</ele>
        <time>2020-06-27T15:32:19Z</time>
      </trkpt>
      <trkpt lat="49.02627" lon="7.82612">
        <ele>256.5</ele>
        <time>2020-06-27T15:32:20Z</time>
      </trkpt>
      <trkpt lat="49.02622" lon="7.82608">
        <ele>256.8</ele>
        <time>2020-06-27T15:32:21Z</time>
      </trkpt>
      <trkpt lat="49.02617" lon="7.82606">
        <ele>257.1</ele>
        <time>2020-06-27T15:32:22Z</time>
      </trkpt>
      <trkpt lat="49.02612" lon="7.82603">
        <ele>257.5</ele>
        <time>2020-06-27T15:32:23Z</time>
      </trkpt>
      <trkpt lat="49.02607" lon="7.82602">
        <ele>257.9</ele>
        <time>2020-06-27T15:32:24Z</time>
      </trkpt>
      <trkpt lat="49.02603" lon="7.82601">
        <ele>258.3</ele>
        <time>2020-06-27T15:32:25Z</time>
      </trkpt>
      <trkpt lat="49.02598" lon="7.82601">
        <ele>258.7</ele>
        <time>2020-06-27T15:32:26Z</time>
      </trkpt>
      <trkpt lat="49.02593" lon="7.82601">
        <ele>259.2</ele>
        <time>2020-06-27T15:32:27Z</time>
      </trkpt>
      <trkpt lat="49.02588" lon="7.82602">
        <ele>259.6</ele>
        <time>2020-06-27T15:32:28Z</time>
      </trkpt>
      <trkpt lat="49.02584" lon="7.82602">
        <ele>260</ele>
        <time>2020-06-27T15:32:29Z</time>
      </trkpt>
      <trkpt lat="49.0258" lon="7.82604">
        <ele>260.4</ele>
        <time>2020-06-27T15:32:30Z</time>
      </trkpt>
      <trkpt lat="49.02576" lon="7.82605">
        <ele>260.8</ele>
        <time>2020-06-27T15:32:31Z</time>
      </trkpt>
      <trkpt lat="49.02572" lon="7.82606">
        <ele>261.1</ele>
        <time>2020-06-27T15:32:32Z</time>
      </trkpt>
      <trkpt lat="49.02569" lon="7.8261">
        <ele>261.6</ele>
        <time>2020-06-27T15:32:33Z</time>
      </trkpt>
      <trkpt lat="49.02565" lon="7.82613">
        <ele>262</ele>
        <time>2020-06-27T15:32:34Z</time>
      </trkpt>
      <trkpt lat="49.02562" lon="7.82615">
        <ele>262.3</ele>
        <time>2020-06-27T15:32:35Z</time>
      </trkpt>
      <trkpt lat="49.02559" lon="7.82617">
        <ele>262.6</ele>
        <time>2020-06-27T15:32:36Z</time>
      </trkpt>
      <trkpt lat="49.02556" lon="7.8262">
        <ele>263</ele>
        <time>2020-06-27T15:32:37Z</time>
      </trkpt>
      <trkpt lat="49.02553" lon="7.82623">
        <ele>263.4</ele>
        <time>2020-06-27T15:32:38Z</time>
      </trkpt>
      <trkpt lat="49.0255" lon="7.82625">
        <ele>263.7</ele>
        <time>2020-06-27T15:32:39Z</time>
      </trkpt>
      <trkpt lat="49.02546" lon="7.82628">
        <ele>264.2</ele>
        <time>2020-06-27T15:32:40Z</time>
      </trkpt>
      <trkpt lat="49.02543" lon="7.82631">
        <ele>264.6</ele>
        <time>2020-06-27T15:32:41Z</time>
      </trkpt>
      <trkpt lat="49.0254" lon="7.82633">
        <ele>265</ele>
        <time>2020-06-27T15:32:42Z</time>
      </trkpt>
      <trkpt lat="49.02539" lon="7.82633">
        <ele>265.1</ele>
        <time>2020-06-27T15:32:43Z</time>
      </trkpt>
      <trkpt lat="49.02536" lon="7.82635">
        <ele>265.5</ele>
        <time>2020-06-27T15:32:44Z</time>
      </trkpt>
      <trkpt lat="49.02532" lon="7.82638">
        <ele>265.9</ele>
        <time>2020-06-27T15:32:45Z</time>
      </trkpt>
      <trkpt lat="49.02531" lon="7.82639">
        <ele>266.1</ele>
        <time>2020-06-27T15:32:46Z</time>
      </trkpt>
      <trkpt lat="49.02528" lon="7.82641">
        <ele>266.5</ele>
        <time>2020-06-27T15:32:47Z</time>
      </trkpt>
      <trkpt lat="49.02527" lon="7.82642">
        <ele>266.6</ele>
        <time>2020-06-27T15:32:48Z</time>
      </trkpt>
      <trkpt lat="49.02525" lon="7.82644">
        <ele>266.9</ele>
        <time>2020-06-27T15:32:49Z</time>
      </trkpt>
      <trkpt lat="49.02521" lon="7.82646">
        <ele>267.3</ele>
        <time>2020-06-27T15:32:50Z</time>
      </trkpt>
      <trkpt lat="49.0252" lon="7.82646">
        <ele>267.5</ele>
        <time>2020-06-27T15:32:51Z</time>
      </trkpt>
      <trkpt lat="49.02517" lon="7.82648">
        <ele>267.8</ele>
        <time>2020-06-27T15:32:52Z</time>
      </trkpt>
      <trkpt lat="49.02514" lon="7.8265">
        <ele>268.2</ele>
        <time>2020-06-27T15:32:53Z</time>
      </trkpt>
      <trkpt lat="49.0251" lon="7.82651">
        <ele>268.7</ele>
        <time>2020-06-27T15:32:54Z</time>
      </trkpt>
      <trkpt lat="49.02508" lon="7.82652">
        <ele>268.9</ele>
        <time>2020-06-27T15:32:55Z</time>
      </trkpt>
      <trkpt lat="49.02505" lon="7.82652">
        <ele>269.3</ele>
        <time>2020-06-27T15:32:56Z</time>
      </trkpt>
      <trkpt lat="49.02504" lon="7.82653">
        <ele>269.4</ele>
        <time>2020-06-27T15:32:57Z</time>
      </trkpt>
      <trkpt lat="49.02501" lon="7.82654">
        <ele>269.7</ele>
        <time>2020-06-27T15:32:58Z</time>
      </trkpt>
      <trkpt lat="49.02501" lon="7.82655">
        <ele>269.8</ele>
        <time>2020-06-27T15:32:59Z</time>
      </trkpt>
      <trkpt lat="49.02498" lon="7.82655">
        <ele>270.2</ele>
        <time>2020-06-27T15:33:00Z</time>
      </trkpt>
      <trkpt lat="49.02494" lon="7.82655">
        <ele>270.6</ele>
        <time>2020-06-27T15:33:01Z</time>
      </trkpt>
      <trkpt lat="49.02493" lon="7.82656">
        <ele>270.8</ele>
        <time>2020-06-27T15:33:02Z</time>
      </trkpt>
      <trkpt lat="49.02491" lon="7.82656">
        <ele>271</ele>
        <time>2020-06-27T15:33:03Z</time>
      </trkpt>
      <trkpt lat="49.02489" lon="7.82657">
        <ele>271.2</ele>
        <time>2020-06-27T15:33:04Z</time>
      </trkpt>
      <trkpt lat="49.02486" lon="7.82658">
        <ele>271.5</ele>
        <time>2020-06-27T15:33:05Z</time>
      </trkpt>
      <trkpt lat="49.02486" lon="7.82657">
        <ele>271.9</ele>
        <time>2020-06-27T15:33:06Z</time>
      </trkpt>
      <trkpt lat="49.02485" lon="7.82657">
        <ele>272</ele>
        <time>2020-06-27T15:33:07Z</time>
      </trkpt>
      <trkpt lat="49.02481" lon="7.82656">
        <ele>272.3</ele>
        <time>2020-06-27T15:33:08Z</time>
      </trkpt>
      <trkpt lat="49.02479" lon="7.82656">
        <ele>272.5</ele>
        <time>2020-06-27T15:33:09Z</time>
      </trkpt>
      <trkpt lat="49.02477" lon="7.82655">
        <ele>272.7</ele>
        <time>2020-06-27T15:33:10Z</time>
      </trkpt>
      <trkpt lat="49.02474" lon="7.82654">
        <ele>273</ele>
        <time>2020-06-27T15:33:11Z</time>
      </trkpt>
      <trkpt lat="49.02473" lon="7.82654">
        <ele>273.1</ele>
        <time>2020-06-27T15:33:12Z</time>
      </trkpt>
      <trkpt lat="49.02469" lon="7.82653">
        <ele>273.4</ele>
        <time>2020-06-27T15:33:13Z</time>
      </trkpt>
      <trkpt lat="49.02468" lon="7.82653">
        <ele>273.5</ele>
        <time>2020-06-27T15:33:14Z</time>
      </trkpt>
      <trkpt lat="49.02465" lon="7.82653">
        <ele>273.7</ele>
        <time>2020-06-27T15:33:15Z</time>
      </trkpt>
      <trkpt lat="49.02461" lon="7.82652">
        <ele>274</ele>
        <time>2020-06-27T15:33:16Z</time>
      </trkpt>
      <trkpt lat="49.02459" lon="7.82652">
        <ele>274.1</ele>
        <time>2020-06-27T15:33:17Z</time>
      </trkpt>
      <trkpt lat="49.02457" lon="7.82651">
        <ele>274.3</ele>
        <time>2020-06-27T15:33:18Z</time>
      </trkpt>
      <trkpt lat="49.02453" lon="7.82651">
        <ele>274.6</ele>
        <time>2020-06-27T15:33:19Z</time>
      </trkpt>
      <trkpt lat="49.02452" lon="7.82651">
        <ele>274.6</ele>
        <time>2020-06-27T15:33:20Z</time>
      </trkpt>
      <trkpt lat="49.02449" lon="7.8265">
        <ele>274.8</ele>
        <time>2020-06-27T15:33:21Z</time>
      </trkpt>
      <trkpt lat="49.02448" lon="7.8265">
        <ele>274.9</ele>
        <time>2020-06-27T15:33:22Z</time>
      </trkpt>
      <trkpt lat="49.02445" lon="7.82649">
        <ele>275.2</ele>
        <time>2020-06-27T15:33:23Z</time>
      </trkpt>
      <trkpt lat="49.02443" lon="7.82649">
        <ele>275.2</ele>
        <time>2020-06-27T15:33:24Z</time>
      </trkpt>
      <trkpt lat="49.0244" lon="7.82648">
        <ele>275.5</ele>
        <time>2020-06-27T15:33:25Z</time>
      </trkpt>
      <trkpt lat="49.02439" lon="7.82647">
        <ele>275.6</ele>
        <time>2020-06-27T15:33:26Z</time>
      </trkpt>
      <trkpt lat="49.02436" lon="7.82646">
        <ele>275.8</ele>
        <time>2020-06-27T15:33:27Z</time>
      </trkpt>
      <trkpt lat="49.02435" lon="7.82646">
        <ele>275.8</ele>
        <time>2020-06-27T15:33:28Z</time>
      </trkpt>
      <trkpt lat="49.02431" lon="7.82645">
        <ele>276.1</ele>
        <time>2020-06-27T15:33:29Z</time>
      </trkpt>
      <trkpt lat="49.02428" lon="7.82644">
        <ele>276.2</ele>
        <time>2020-06-27T15:33:30Z</time>
      </trkpt>
      <trkpt lat="49.02425" lon="7.82644">
        <ele>276.5</ele>
        <time>2020-06-27T15:33:31Z</time>
      </trkpt>
      <trkpt lat="49.02424" lon="7.82644">
        <ele>276.5</ele>
        <time>2020-06-27T15:33:32Z</time>
      </trkpt>
      <trkpt lat="49.02421" lon="7.82643">
        <ele>276.7</ele>
        <time>2020-06-27T15:33:33Z</time>
      </trkpt>
      <trkpt lat="49.02418" lon="7.82642">
        <ele>276.9</ele>
        <time>2020-06-27T15:33:34Z</time>
      </trkpt>
      <trkpt lat="49.02415" lon="7.8264">
        <ele>277.1</ele>
        <time>2020-06-27T15:33:35Z</time>
      </trkpt>
      <trkpt lat="49.02413" lon="7.8264">
        <ele>277.1</ele>
        <time>2020-06-27T15:33:36Z</time>
      </trkpt>
      <trkpt lat="49.0241" lon="7.8264">
        <ele>277.3</ele>
        <time>2020-06-27T15:33:37Z</time>
      </trkpt>
      <trkpt lat="49.02409" lon="7.8264">
        <ele>277.4</ele>
        <time>2020-06-27T15:33:38Z</time>
      </trkpt>
      <trkpt lat="49.02406" lon="7.82638">
        <ele>277.6</ele>
        <time>2020-06-27T15:33:39Z</time>
      </trkpt>
      <trkpt lat="49.02405" lon="7.82637">
        <ele>277.6</ele>
        <time>2020-06-27T15:33:40Z</time>
      </trkpt>
      <trkpt lat="49.02402" lon="7.82637">
        <ele>277.8</ele>
        <time>2020-06-27T15:33:41Z</time>
      </trkpt>
      <trkpt lat="49.02401" lon="7.82637">
        <ele>277.9</ele>
        <time>2020-06-27T15:33:42Z</time>
      </trkpt>
      <trkpt lat="49.02397" lon="7.82634">
        <ele>278.2</ele>
        <time>2020-06-27T15:33:43Z</time>
      </trkpt>
      <trkpt lat="49.02393" lon="7.82632">
        <ele>278.4</ele>
        <time>2020-06-27T15:33:44Z</time>
      </trkpt>
      <trkpt lat="49.02392" lon="7.82632">
        <ele>278.5</ele>
        <time>2020-06-27T15:33:45Z</time>
      </trkpt>
      <trkpt lat="49.02388" lon="7.8263">
        <ele>278.8</ele>
        <time>2020-06-27T15:33:46Z</time>
      </trkpt>
      <trkpt lat="49.02385" lon="7.82628">
        <ele>279</ele>
        <time>2020-06-27T15:33:47Z</time>
      </trkpt>
      <trkpt lat="49.02382" lon="7.82626">
        <ele>279.3</ele>
        <time>2020-06-27T15:33:48Z</time>
      </trkpt>
      <trkpt lat="49.02381" lon="7.82626">
        <ele>279.4</ele>
        <time>2020-06-27T15:33:49Z</time>
      </trkpt>
      <trkpt lat="49.02377" lon="7.82624">
        <ele>279.6</ele>
        <time>2020-06-27T15:33:50Z</time>
      </trkpt>
      <trkpt lat="49.02376" lon="7.82623">
        <ele>279.7</ele>
        <time>2020-06-27T15:33:51Z</time>
      </trkpt>
      <trkpt lat="49.02374" lon="7.82622">
        <ele>279.9</ele>
        <time>2020-06-27T15:33:52Z</time>
      </trkpt>
      <trkpt lat="49.02373" lon="7.82622">
        <ele>279.9</ele>
        <time>2020-06-27T15:33:53Z</time>
      </trkpt>
      <trkpt lat="49.02369" lon="7.82619">
        <ele>280.3</ele>
        <time>2020-06-27T15:33:54Z</time>
      </trkpt>
      <trkpt lat="49.02367" lon="7.82617">
        <ele>280.4</ele>
        <time>2020-06-27T15:33:55Z</time>
      </trkpt>
      <trkpt lat="49.02363" lon="7.82614">
        <ele>280.7</ele>
        <time>2020-06-27T15:33:56Z</time>
      </trkpt>
      <trkpt lat="49.02361" lon="7.82613">
        <ele>280.8</ele>
        <time>2020-06-27T15:33:57Z</time>
      </trkpt>
      <trkpt lat="49.02358" lon="7.82611">
        <ele>281.1</ele>
        <time>2020-06-27T15:33:58Z</time>
      </trkpt>
      <trkpt lat="49.02355" lon="7.82609">
        <ele>281.3</ele>
        <time>2020-06-27T15:33:59Z</time>
      </trkpt>
      <trkpt lat="49.02353" lon="7.82607">
        <ele>281.5</ele>
        <time>2020-06-27T15:34:00Z</time>
      </trkpt>
      <trkpt lat="49.02351" lon="7.82605">
        <ele>281.6</ele>
        <time>2020-06-27T15:34:01Z</time>
      </trkpt>
      <trkpt lat="49.0235" lon="7.82604">
        <ele>281.7</ele>
        <time>2020-06-27T15:34:02Z</time>
      </trkpt>
      <trkpt lat="49.02347" lon="7.82601">
        <ele>282</ele>
        <time>2020-06-27T15:34:03Z</time>
      </trkpt>
      <trkpt lat="49.02345" lon="7.826">
        <ele>282.1</ele>
        <time>2020-06-27T15:34:04Z</time>
      </trkpt>
      <trkpt lat="49.02342" lon="7.82598">
        <ele>282.4</ele>
        <time>2020-06-27T15:34:05Z</time>
      </trkpt>
      <trkpt lat="49.02339" lon="7.82595">
        <ele>282.6</ele>
        <time>2020-06-27T15:34:06Z</time>
      </trkpt>
      <trkpt lat="49.02338" lon="7.82594">
        <ele>282.7</ele>
        <time>2020-06-27T15:34:07Z</time>
      </trkpt>
      <trkpt lat="49.02336" lon="7.82592">
        <ele>282.9</ele>
        <time>2020-06-27T15:34:08Z</time>
      </trkpt>
      <trkpt lat="49.02335" lon="7.82591">
        <ele>283</ele>
        <time>2020-06-27T15:34:09Z</time>
      </trkpt>
      <trkpt lat="49.02333" lon="7.82588">
        <ele>283.2</ele>
        <time>2020-06-27T15:34:10Z</time>
      </trkpt>
      <trkpt lat="49.02331" lon="7.82587">
        <ele>283.3</ele>
        <time>2020-06-27T15:34:11Z</time>
      </trkpt>
      <trkpt lat="49.02329" lon="7.82585">
        <ele>283.5</ele>
        <time>2020-06-27T15:34:12Z</time>
      </trkpt>
      <trkpt lat="49.02326" lon="7.82583">
        <ele>283.7</ele>
        <time>2020-06-27T15:34:13Z</time>
      </trkpt>
      <trkpt lat="49.02322" lon="7.8258">
        <ele>284</ele>
        <time>2020-06-27T15:34:14Z</time>
      </trkpt>
      <trkpt lat="49.0232" lon="7.82577">
        <ele>284.2</ele>
        <time>2020-06-27T15:34:15Z</time>
      </trkpt>
      <trkpt lat="49.02317" lon="7.82575">
        <ele>284.4</ele>
        <time>2020-06-27T15:34:16Z</time>
      </trkpt>
      <trkpt lat="49.02314" lon="7.82572">
        <ele>284.7</ele>
        <time>2020-06-27T15:34:17Z</time>
      </trkpt>
      <trkpt lat="49.02312" lon="7.82571">
        <ele>284.8</ele>
        <time>2020-06-27T15:34:18Z</time>
      </trkpt>
      <trkpt lat="49.02309" lon="7.82569">
        <ele>285.1</ele>
        <time>2020-06-27T15:34:19Z</time>
      </trkpt>
      <trkpt lat="49.02306" lon="7.82567">
        <ele>285.3</ele>
        <time>2020-06-27T15:34:20Z</time>
      </trkpt>
      <trkpt lat="49.02303" lon="7.82564">
        <ele>285.6</ele>
        <time>2020-06-27T15:34:21Z</time>
      </trkpt>
      <trkpt lat="49.02302" lon="7.82563">
        <ele>285.7</ele>
        <time>2020-06-27T15:34:22Z</time>
      </trkpt>
      <trkpt lat="49.023" lon="7.82561">
        <ele>285.9</ele>
        <time>2020-06-27T15:34:23Z</time>
      </trkpt>
      <trkpt lat="49.02299" lon="7.82561">
        <ele>285.9</ele>
        <time>2020-06-27T15:34:24Z</time>
      </trkpt>
      <trkpt lat="49.02297" lon="7.8256">
        <ele>286.1</ele>
        <time>2020-06-27T15:34:25Z</time>
      </trkpt>
      <trkpt lat="49.02293" lon="7.82557">
        <ele>286.4</ele>
        <time>2020-06-27T15:34:26Z</time>
      </trkpt>
      <trkpt lat="49.0229" lon="7.82555">
        <ele>286.7</ele>
        <time>2020-06-27T15:34:27Z</time>
      </trkpt>
      <trkpt lat="49.02288" lon="7.82554">
        <ele>286.8</ele>
        <time>2020-06-27T15:34:28Z</time>
      </trkpt>
      <trkpt lat="49.02285" lon="7.82553">
        <ele>287.1</ele>
        <time>2020-06-27T15:34:29Z</time>
      </trkpt>
      <trkpt lat="49.02282" lon="7.82552">
        <ele>287.3</ele>
        <time>2020-06-27T15:34:30Z</time>
      </trkpt>
      <trkpt lat="49.02281" lon="7.82551">
        <ele>287.4</ele>
        <time>2020-06-27T15:34:31Z</time>
      </trkpt>
      <trkpt lat="49.02278" lon="7.82553">
        <ele>287.7</ele>
        <time>2020-06-27T15:34:32Z</time>
      </trkpt>
      <trkpt lat="49.02274" lon="7.82555">
        <ele>288</ele>
        <time>2020-06-27T15:34:33Z</time>
      </trkpt>
      <trkpt lat="49.02273" lon="7.82556">
        <ele>288.2</ele>
        <time>2020-06-27T15:34:34Z</time>
      </trkpt>
      <trkpt lat="49.02272" lon="7.82559">
        <ele>288.3</ele>
        <time>2020-06-27T15:34:35Z</time>
      </trkpt>
      <trkpt lat="49.02271" lon="7.8256">
        <ele>288.4</ele>
        <time>2020-06-27T15:34:36Z</time>
      </trkpt>
      <trkpt lat="49.02271" lon="7.82564">
        <ele>288.8</ele>
        <time>2020-06-27T15:34:37Z</time>
      </trkpt>
      <trkpt lat="49.02271" lon="7.82565">
        <ele>288.8</ele>
        <time>2020-06-27T15:34:38Z</time>
      </trkpt>
      <trkpt lat="49.02271" lon="7.82566">
        <ele>288.9</ele>
        <time>2020-06-27T15:34:39Z</time>
      </trkpt>
      <trkpt lat="49.02273" lon="7.8257">
        <ele>289</ele>
        <time>2020-06-27T15:34:40Z</time>
      </trkpt>
      <trkpt lat="49.02273" lon="7.82571">
        <ele>289.1</ele>
        <time>2020-06-27T15:34:41Z</time>
      </trkpt>
      <trkpt lat="49.02275" lon="7.82573">
        <ele>289.2</ele>
        <time>2020-06-27T15:34:42Z</time>
      </trkpt>
      <trkpt lat="49.02276" lon="7.82574">
        <ele>289.3</ele>
        <time>2020-06-27T15:34:43Z</time>
      </trkpt>
      <trkpt lat="49.02278" lon="7.82575">
        <ele>289.4</ele>
        <time>2020-06-27T15:34:44Z</time>
      </trkpt>
      <trkpt lat="49.02279" lon="7.82576">
        <ele>289.4</ele>
        <time>2020-06-27T15:34:45Z</time>
      </trkpt>
      <trkpt lat="49.0228" lon="7.82576">
        <ele>289.5</ele>
        <time>2020-06-27T15:34:46Z</time>
      </trkpt>
      <trkpt lat="49.02281" lon="7.82577">
        <ele>289.6</ele>
        <time>2020-06-27T15:34:47Z</time>
      </trkpt>
      <trkpt lat="49.02285" lon="7.8258">
        <ele>289.8</ele>
        <time>2020-06-27T15:34:48Z</time>
      </trkpt>
      <trkpt lat="49.02287" lon="7.82581">
        <ele>289.9</ele>
        <time>2020-06-27T15:34:49Z</time>
      </trkpt>
      <trkpt lat="49.0229" lon="7.82584">
        <ele>290.1</ele>
        <time>2020-06-27T15:34:50Z</time>
      </trkpt>
      <trkpt lat="49.02294" lon="7.82588">
        <ele>290.3</ele>
        <time>2020-06-27T15:34:51Z</time>
      </trkpt>
      <trkpt lat="49.02298" lon="7.82592">
        <ele>290.6</ele>
        <time>2020-06-27T15:34:52Z</time>
      </trkpt>
      <trkpt lat="49.02301" lon="7.82597">
        <ele>290.8</ele>
        <time>2020-06-27T15:34:53Z</time>
      </trkpt>
      <trkpt lat="49.02304" lon="7.82601">
        <ele>291</ele>
        <time>2020-06-27T15:34:54Z</time>
      </trkpt>
      <trkpt lat="49.02304" lon="7.82603">
        <ele>291.1</ele>
        <time>2020-06-27T15:34:55Z</time>
      </trkpt>
      <trkpt lat="49.02308" lon="7.82607">
        <ele>291.3</ele>
        <time>2020-06-27T15:34:56Z</time>
      </trkpt>
      <trkpt lat="49.02309" lon="7.82608">
        <ele>291.4</ele>
        <time>2020-06-27T15:34:57Z</time>
      </trkpt>
      <trkpt lat="49.02311" lon="7.82611">
        <ele>291.5</ele>
        <time>2020-06-27T15:34:58Z</time>
      </trkpt>
      <trkpt lat="49.02312" lon="7.82612">
        <ele>291.5</ele>
        <time>2020-06-27T15:34:59Z</time>
      </trkpt>
      <trkpt lat="49.02314" lon="7.82615">
        <ele>291.7</ele>
        <time>2020-06-27T15:35:00Z</time>
      </trkpt>
      <trkpt lat="49.02315" lon="7.82617">
        <ele>291.8</ele>
        <time>2020-06-27T15:35:01Z</time>
      </trkpt>
      <trkpt lat="49.02316" lon="7.82621">
        <ele>291.9</ele>
        <time>2020-06-27T15:35:02Z</time>
      </trkpt>
      <trkpt lat="49.02318" lon="7.82626">
        <ele>292.1</ele>
        <time>2020-06-27T15:35:03Z</time>
      </trkpt>
      <trkpt lat="49.0232" lon="7.8263">
        <ele>292.2</ele>
        <time>2020-06-27T15:35:04Z</time>
      </trkpt>
      <trkpt lat="49.02321" lon="7.82635">
        <ele>292.4</ele>
        <time>2020-06-27T15:35:05Z</time>
      </trkpt>
      <trkpt lat="49.02322" lon="7.82637">
        <ele>292.5</ele>
        <time>2020-06-27T15:35:06Z</time>
      </trkpt>
      <trkpt lat="49.02324" lon="7.82641">
        <ele>292.6</ele>
        <time>2020-06-27T15:35:07Z</time>
      </trkpt>
      <trkpt lat="49.02325" lon="7.82645">
        <ele>292.8</ele>
        <time>2020-06-27T15:35:08Z</time>
      </trkpt>
      <trkpt lat="49.02326" lon="7.82646">
        <ele>292.9</ele>
        <time>2020-06-27T15:35:09Z</time>
      </trkpt>
      <trkpt lat="49.02328" lon="7.82652">
        <ele>293.1</ele>
        <time>2020-06-27T15:35:10Z</time>
      </trkpt>
      <trkpt lat="49.02328" lon="7.82654">
        <ele>293.2</ele>
        <time>2020-06-27T15:35:11Z</time>
      </trkpt>
      <trkpt lat="49.0233" lon="7.82659">
        <ele>293.3</ele>
        <time>2020-06-27T15:35:12Z</time>
      </trkpt>
      <trkpt lat="49.0233" lon="7.82661">
        <ele>293.4</ele>
        <time>2020-06-27T15:35:13Z</time>
      </trkpt>
      <trkpt lat="49.02332" lon="7.82666">
        <ele>293.6</ele>
        <time>2020-06-27T15:35:14Z</time>
      </trkpt>
      <trkpt lat="49.02334" lon="7.82669">
        <ele>293.8</ele>
        <time>2020-06-27T15:35:15Z</time>
      </trkpt>
      <trkpt lat="49.02335" lon="7.82673">
        <ele>293.9</ele>
        <time>2020-06-27T15:35:16Z</time>
      </trkpt>
      <trkpt lat="49.02337" lon="7.82679">
        <ele>294.1</ele>
        <time>2020-06-27T15:35:17Z</time>
      </trkpt>
      <trkpt lat="49.02338" lon="7.8268">
        <ele>294.2</ele>
        <time>2020-06-27T15:35:18Z</time>
      </trkpt>
      <trkpt lat="49.0234" lon="7.82685">
        <ele>294.4</ele>
        <time>2020-06-27T15:35:19Z</time>
      </trkpt>
      <trkpt lat="49.02341" lon="7.82689">
        <ele>294.5</ele>
        <time>2020-06-27T15:35:20Z</time>
      </trkpt>
      <trkpt lat="49.02343" lon="7.82694">
        <ele>294.8</ele>
        <time>2020-06-27T15:35:21Z</time>
      </trkpt>
      <trkpt lat="49.02344" lon="7.82695">
        <ele>294.8</ele>
        <time>2020-06-27T15:35:22Z</time>
      </trkpt>
      <trkpt lat="49.02346" lon="7.827">
        <ele>295</ele>
        <time>2020-06-27T15:35:23Z</time>
      </trkpt>
      <trkpt lat="49.02347" lon="7.82703">
        <ele>295.1</ele>
        <time>2020-06-27T15:35:24Z</time>
      </trkpt>
      <trkpt lat="49.02349" lon="7.82707">
        <ele>295.3</ele>
        <time>2020-06-27T15:35:25Z</time>
      </trkpt>
      <trkpt lat="49.0235" lon="7.82711">
        <ele>295.5</ele>
        <time>2020-06-27T15:35:26Z</time>
      </trkpt>
      <trkpt lat="49.02352" lon="7.82715">
        <ele>295.7</ele>
        <time>2020-06-27T15:35:27Z</time>
      </trkpt>
      <trkpt lat="49.02353" lon="7.8272">
        <ele>295.9</ele>
        <time>2020-06-27T15:35:28Z</time>
      </trkpt>
      <trkpt lat="49.02356" lon="7.82726">
        <ele>296.1</ele>
        <time>2020-06-27T15:35:29Z</time>
      </trkpt>
      <trkpt lat="49.02357" lon="7.82728">
        <ele>296.2</ele>
        <time>2020-06-27T15:35:30Z</time>
      </trkpt>
      <trkpt lat="49.02359" lon="7.82734">
        <ele>296.5</ele>
        <time>2020-06-27T15:35:31Z</time>
      </trkpt>
      <trkpt lat="49.02361" lon="7.82739">
        <ele>296.7</ele>
        <time>2020-06-27T15:35:32Z</time>
      </trkpt>
      <trkpt lat="49.02363" lon="7.82743">
        <ele>296.9</ele>
        <time>2020-06-27T15:35:33Z</time>
      </trkpt>
      <trkpt lat="49.02363" lon="7.82745">
        <ele>297</ele>
        <time>2020-06-27T15:35:34Z</time>
      </trkpt>
      <trkpt lat="49.02364" lon="7.82747">
        <ele>297.1</ele>
        <time>2020-06-27T15:35:35Z</time>
      </trkpt>
      <trkpt lat="49.02365" lon="7.82748">
        <ele>297.2</ele>
        <time>2020-06-27T15:35:36Z</time>
      </trkpt>
      <trkpt lat="49.02365" lon="7.8275">
        <ele>297.2</ele>
        <time>2020-06-27T15:35:37Z</time>
      </trkpt>
      <trkpt lat="49.02367" lon="7.82754">
        <ele>297.5</ele>
        <time>2020-06-27T15:35:38Z</time>
      </trkpt>
      <trkpt lat="49.02368" lon="7.82757">
        <ele>297.6</ele>
        <time>2020-06-27T15:35:39Z</time>
      </trkpt>
      <trkpt lat="49.0237" lon="7.82763">
        <ele>297.9</ele>
        <time>2020-06-27T15:35:40Z</time>
      </trkpt>
      <trkpt lat="49.02372" lon="7.82769">
        <ele>298.1</ele>
        <time>2020-06-27T15:35:41Z</time>
      </trkpt>
      <trkpt lat="49.02374" lon="7.82773">
        <ele>298.3</ele>
        <time>2020-06-27T15:35:42Z</time>
      </trkpt>
      <trkpt lat="49.02376" lon="7.82777">
        <ele>298.6</ele>
        <time>2020-06-27T15:35:43Z</time>
      </trkpt>
      <trkpt lat="49.02376" lon="7.82779">
        <ele>298.6</ele>
        <time>2020-06-27T15:35:44Z</time>
      </trkpt>
      <trkpt lat="49.02377" lon="7.82783">
        <ele>298.8</ele>
        <time>2020-06-27T15:35:45Z</time>
      </trkpt>
      <trkpt lat="49.02378" lon="7.82785">
        <ele>298.9</ele>
        <time>2020-06-27T15:35:46Z</time>
      </trkpt>
      <trkpt lat="49.02379" lon="7.8279">
        <ele>299.1</ele>
        <time>2020-06-27T15:35:47Z</time>
      </trkpt>
      <trkpt lat="49.0238" lon="7.82793">
        <ele>299.2</ele>
        <time>2020-06-27T15:35:48Z</time>
      </trkpt>
      <trkpt lat="49.02381" lon="7.82797">
        <ele>299.4</ele>
        <time>2020-06-27T15:35:49Z</time>
      </trkpt>
      <trkpt lat="49.02382" lon="7.82801">
        <ele>299.6</ele>
        <time>2020-06-27T15:35:50Z</time>
      </trkpt>
      <trkpt lat="49.02384" lon="7.82806">
        <ele>299.8</ele>
        <time>2020-06-27T15:35:51Z</time>
      </trkpt>
      <trkpt lat="49.02384" lon="7.82809">
        <ele>299.9</ele>
        <time>2020-06-27T15:35:52Z</time>
      </trkpt>
      <trkpt lat="49.02386" lon="7.82813">
        <ele>300.1</ele>
        <time>2020-06-27T15:35:53Z</time>
      </trkpt>
      <trkpt lat="49.02387" lon="7.82819">
        <ele>300.3</ele>
        <time>2020-06-27T15:35:54Z</time>
      </trkpt>
      <trkpt lat="49.02388" lon="7.82822">
        <ele>300.4</ele>
        <time>2020-06-27T15:35:55Z</time>
      </trkpt>
      <trkpt lat="49.02389" lon="7.82825">
        <ele>300.6</ele>
        <time>2020-06-27T15:35:56Z</time>
      </trkpt>
      <trkpt lat="49.0239" lon="7.8283">
        <ele>300.8</ele>
        <time>2020-06-27T15:35:57Z</time>
      </trkpt>
      <trkpt lat="49.02392" lon="7.82835">
        <ele>301</ele>
        <time>2020-06-27T15:35:58Z</time>
      </trkpt>
      <trkpt lat="49.02392" lon="7.82838">
        <ele>301.1</ele>
        <time>2020-06-27T15:35:59Z</time>
      </trkpt>
      <trkpt lat="49.02394" lon="7.82845">
        <ele>301.3</ele>
        <time>2020-06-27T15:36:00Z</time>
      </trkpt>
      <trkpt lat="49.02396" lon="7.82849">
        <ele>301.5</ele>
        <time>2020-06-27T15:36:01Z</time>
      </trkpt>
      <trkpt lat="49.02397" lon="7.82852">
        <ele>301.7</ele>
        <time>2020-06-27T15:36:02Z</time>
      </trkpt>
      <trkpt lat="49.02399" lon="7.82856">
        <ele>301.8</ele>
        <time>2020-06-27T15:36:03Z</time>
      </trkpt>
      <trkpt lat="49.02401" lon="7.82862">
        <ele>302.1</ele>
        <time>2020-06-27T15:36:04Z</time>
      </trkpt>
      <trkpt lat="49.02402" lon="7.82865">
        <ele>302.2</ele>
        <time>2020-06-27T15:36:05Z</time>
      </trkpt>
      <trkpt lat="49.02403" lon="7.8287">
        <ele>302.4</ele>
        <time>2020-06-27T15:36:06Z</time>
      </trkpt>
      <trkpt lat="49.02404" lon="7.82875">
        <ele>302.6</ele>
        <time>2020-06-27T15:36:07Z</time>
      </trkpt>
      <trkpt lat="49.02405" lon="7.8288">
        <ele>302.7</ele>
        <time>2020-06-27T15:36:08Z</time>
      </trkpt>
      <trkpt lat="49.02406" lon="7.82886">
        <ele>302.9</ele>
        <time>2020-06-27T15:36:09Z</time>
      </trkpt>
      <trkpt lat="49.02408" lon="7.82894">
        <ele>303.2</ele>
        <time>2020-06-27T15:36:10Z</time>
      </trkpt>
      <trkpt lat="49.02409" lon="7.829">
        <ele>303.3</ele>
        <time>2020-06-27T15:36:11Z</time>
      </trkpt>
      <trkpt lat="49.0241" lon="7.82906">
        <ele>303.5</ele>
        <time>2020-06-27T15:36:12Z</time>
      </trkpt>
      <trkpt lat="49.02412" lon="7.82911">
        <ele>303.7</ele>
        <time>2020-06-27T15:36:13Z</time>
      </trkpt>
      <trkpt lat="49.02414" lon="7.82917">
        <ele>303.9</ele>
        <time>2020-06-27T15:36:14Z</time>
      </trkpt>
      <trkpt lat="49.02415" lon="7.82922">
        <ele>304.1</ele>
        <time>2020-06-27T15:36:15Z</time>
      </trkpt>
      <trkpt lat="49.02417" lon="7.8293">
        <ele>304.4</ele>
        <time>2020-06-27T15:36:16Z</time>
      </trkpt>
      <trkpt lat="49.02419" lon="7.8294">
        <ele>304.7</ele>
        <time>2020-06-27T15:36:17Z</time>
      </trkpt>
      <trkpt lat="49.0242" lon="7.82947">
        <ele>305</ele>
        <time>2020-06-27T15:36:18Z</time>
      </trkpt>
      <trkpt lat="49.02422" lon="7.82954">
        <ele>305.2</ele>
        <time>2020-06-27T15:36:19Z</time>
      </trkpt>
      <trkpt lat="49.02423" lon="7.82959">
        <ele>305.4</ele>
        <time>2020-06-27T15:36:20Z</time>
      </trkpt>
      <trkpt lat="49.02425" lon="7.82963">
        <ele>305.6</ele>
        <time>2020-06-27T15:36:21Z</time>
      </trkpt>
      <trkpt lat="49.02428" lon="7.8297">
        <ele>305.9</ele>
        <time>2020-06-27T15:36:22Z</time>
      </trkpt>
      <trkpt lat="49.02429" lon="7.82977">
        <ele>306.1</ele>
        <time>2020-06-27T15:36:23Z</time>
      </trkpt>
      <trkpt lat="49.0243" lon="7.82983">
        <ele>306.3</ele>
        <time>2020-06-27T15:36:24Z</time>
      </trkpt>
      <trkpt lat="49.02431" lon="7.82989">
        <ele>306.5</ele>
        <time>2020-06-27T15:36:25Z</time>
      </trkpt>
      <trkpt lat="49.02433" lon="7.82993">
        <ele>306.7</ele>
        <time>2020-06-27T15:36:26Z</time>
      </trkpt>
      <trkpt lat="49.02434" lon="7.83">
        <ele>306.9</ele>
        <time>2020-06-27T15:36:27Z</time>
      </trkpt>
      <trkpt lat="49.02435" lon="7.83007">
        <ele>307.1</ele>
        <time>2020-06-27T15:36:28Z</time>
      </trkpt>
      <trkpt lat="49.02436" lon="7.83012">
        <ele>307.3</ele>
        <time>2020-06-27T15:36:29Z</time>
      </trkpt>
      <trkpt lat="49.02437" lon="7.83017">
        <ele>307.5</ele>
        <time>2020-06-27T15:36:30Z</time>
      </trkpt>
      <trkpt lat="49.02438" lon="7.83023">
        <ele>307.7</ele>
        <time>2020-06-27T15:36:31Z</time>
      </trkpt>
      <trkpt lat="49.02439" lon="7.83028">
        <ele>307.8</ele>
        <time>2020-06-27T15:36:32Z</time>
      </trkpt>
      <trkpt lat="49.02441" lon="7.83034">
        <ele>308.1</ele>
        <time>2020-06-27T15:36:33Z</time>
      </trkpt>
      <trkpt lat="49.02442" lon="7.83039">
        <ele>308.2</ele>
        <time>2020-06-27T15:36:34Z</time>
      </trkpt>
      <trkpt lat="49.02442" lon="7.83045">
        <ele>308.4</ele>
        <time>2020-06-27T15:36:35Z</time>
      </trkpt>
      <trkpt lat="49.02443" lon="7.83051">
        <ele>308.7</ele>
        <time>2020-06-27T15:36:36Z</time>
      </trkpt>
      <trkpt lat="49.02444" lon="7.83056">
        <ele>308.9</ele>
        <time>2020-06-27T15:36:37Z</time>
      </trkpt>
      <trkpt lat="49.02445" lon="7.83063">
        <ele>309.1</ele>
        <time>2020-06-27T15:36:38Z</time>
      </trkpt>
      <trkpt lat="49.02447" lon="7.83069">
        <ele>309.3</ele>
        <time>2020-06-27T15:36:39Z</time>
      </trkpt>
      <trkpt lat="49.02447" lon="7.83071">
        <ele>309.5</ele>
        <time>2020-06-27T15:36:40Z</time>
      </trkpt>
      <trkpt lat="49.02448" lon="7.83076">
        <ele>309.6</ele>
        <time>2020-06-27T15:36:41Z</time>
      </trkpt>
      <trkpt lat="49.02449" lon="7.8308">
        <ele>309.8</ele>
        <time>2020-06-27T15:36:42Z</time>
      </trkpt>
      <trkpt lat="49.02449" lon="7.83083">
        <ele>309.9</ele>
        <time>2020-06-27T15:36:43Z</time>
      </trkpt>
      <trkpt lat="49.0245" lon="7.83089">
        <ele>310.1</ele>
        <time>2020-06-27T15:36:44Z</time>
      </trkpt>
      <trkpt lat="49.02451" lon="7.83095">
        <ele>310.3</ele>
        <time>2020-06-27T15:36:45Z</time>
      </trkpt>
      <trkpt lat="49.02452" lon="7.83099">
        <ele>310.5</ele>
        <time>2020-06-27T15:36:46Z</time>
      </trkpt>
      <trkpt lat="49.02452" lon="7.83104">
        <ele>310.7</ele>
        <time>2020-06-27T15:36:47Z</time>
      </trkpt>
      <trkpt lat="49.02453" lon="7.83107">
        <ele>310.7</ele>
        <time>2020-06-27T15:36:48Z</time>
      </trkpt>
      <trkpt lat="49.02454" lon="7.83113">
        <ele>311.1</ele>
        <time>2020-06-27T15:36:49Z</time>
      </trkpt>
      <trkpt lat="49.02455" lon="7.8312">
        <ele>311.5</ele>
        <time>2020-06-27T15:36:50Z</time>
      </trkpt>
      <trkpt lat="49.02457" lon="7.83127">
        <ele>311.8</ele>
        <time>2020-06-27T15:36:51Z</time>
      </trkpt>
      <trkpt lat="49.02457" lon="7.8313">
        <ele>311.9</ele>
        <time>2020-06-27T15:36:52Z</time>
      </trkpt>
      <trkpt lat="49.02458" lon="7.83135">
        <ele>312.2</ele>
        <time>2020-06-27T15:36:53Z</time>
      </trkpt>
      <trkpt lat="49.02459" lon="7.83141">
        <ele>312.5</ele>
        <time>2020-06-27T15:36:54Z</time>
      </trkpt>
      <trkpt lat="49.0246" lon="7.83147">
        <ele>312.8</ele>
        <time>2020-06-27T15:36:55Z</time>
      </trkpt>
      <trkpt lat="49.02461" lon="7.83151">
        <ele>313</ele>
        <time>2020-06-27T15:36:56Z</time>
      </trkpt>
      <trkpt lat="49.02462" lon="7.83158">
        <ele>313.3</ele>
        <time>2020-06-27T15:36:57Z</time>
      </trkpt>
      <trkpt lat="49.02462" lon="7.83161">
        <ele>313.4</ele>
        <time>2020-06-27T15:36:58Z</time>
      </trkpt>
      <trkpt lat="49.02463" lon="7.83166">
        <ele>313.7</ele>
        <time>2020-06-27T15:36:59Z</time>
      </trkpt>
      <trkpt lat="49.02464" lon="7.83171">
        <ele>313.9</ele>
        <time>2020-06-27T15:37:00Z</time>
      </trkpt>
      <trkpt lat="49.02465" lon="7.83176">
        <ele>314.1</ele>
        <time>2020-06-27T15:37:01Z</time>
      </trkpt>
      <trkpt lat="49.02465" lon="7.83178">
        <ele>314.2</ele>
        <time>2020-06-27T15:37:02Z</time>
      </trkpt>
      <trkpt lat="49.02466" lon="7.83183">
        <ele>314.5</ele>
        <time>2020-06-27T15:37:03Z</time>
      </trkpt>
      <trkpt lat="49.02467" lon="7.83189">
        <ele>314.8</ele>
        <time>2020-06-27T15:37:04Z</time>
      </trkpt>
      <trkpt lat="49.02467" lon="7.83192">
        <ele>314.9</ele>
        <time>2020-06-27T15:37:05Z</time>
      </trkpt>
      <trkpt lat="49.02467" lon="7.83196">
        <ele>315.1</ele>
        <time>2020-06-27T15:37:06Z</time>
      </trkpt>
      <trkpt lat="49.02468" lon="7.832">
        <ele>315.3</ele>
        <time>2020-06-27T15:37:07Z</time>
      </trkpt>
      <trkpt lat="49.02469" lon="7.83204">
        <ele>315.6</ele>
        <time>2020-06-27T15:37:08Z</time>
      </trkpt>
      <trkpt lat="49.0247" lon="7.8321">
        <ele>315.9</ele>
        <time>2020-06-27T15:37:09Z</time>
      </trkpt>
      <trkpt lat="49.02471" lon="7.83213">
        <ele>316</ele>
        <time>2020-06-27T15:37:10Z</time>
      </trkpt>
      <trkpt lat="49.02473" lon="7.83217">
        <ele>316.2</ele>
        <time>2020-06-27T15:37:11Z</time>
      </trkpt>
      <trkpt lat="49.02473" lon="7.8322">
        <ele>316.4</ele>
        <time>2020-06-27T15:37:12Z</time>
      </trkpt>
      <trkpt lat="49.02475" lon="7.83225">
        <ele>316.6</ele>
        <time>2020-06-27T15:37:13Z</time>
      </trkpt>
      <trkpt lat="49.02476" lon="7.8323">
        <ele>316.9</ele>
        <time>2020-06-27T15:37:14Z</time>
      </trkpt>
      <trkpt lat="49.02477" lon="7.83232">
        <ele>316.9</ele>
        <time>2020-06-27T15:37:15Z</time>
      </trkpt>
      <trkpt lat="49.02478" lon="7.83235">
        <ele>317.1</ele>
        <time>2020-06-27T15:37:16Z</time>
      </trkpt>
      <trkpt lat="49.02479" lon="7.83239">
        <ele>317.3</ele>
        <time>2020-06-27T15:37:17Z</time>
      </trkpt>
      <trkpt lat="49.0248" lon="7.83245">
        <ele>317.5</ele>
        <time>2020-06-27T15:37:18Z</time>
      </trkpt>
      <trkpt lat="49.02481" lon="7.83251">
        <ele>317.9</ele>
        <time>2020-06-27T15:37:19Z</time>
      </trkpt>
      <trkpt lat="49.02482" lon="7.83256">
        <ele>318</ele>
        <time>2020-06-27T15:37:20Z</time>
      </trkpt>
      <trkpt lat="49.02482" lon="7.8326">
        <ele>318.2</ele>
        <time>2020-06-27T15:37:21Z</time>
      </trkpt>
      <trkpt lat="49.02483" lon="7.83264">
        <ele>318.4</ele>
        <time>2020-06-27T15:37:22Z</time>
      </trkpt>
      <trkpt lat="49.02484" lon="7.83269">
        <ele>318.6</ele>
        <time>2020-06-27T15:37:23Z</time>
      </trkpt>
      <trkpt lat="49.02484" lon="7.8327">
        <ele>318.7</ele>
        <time>2020-06-27T15:37:24Z</time>
      </trkpt>
      <trkpt lat="49.02486" lon="7.83277">
        <ele>319</ele>
        <time>2020-06-27T15:37:25Z</time>
      </trkpt>
      <trkpt lat="49.02487" lon="7.83283">
        <ele>319.3</ele>
        <time>2020-06-27T15:37:26Z</time>
      </trkpt>
      <trkpt lat="49.02488" lon="7.83287">
        <ele>319.5</ele>
        <time>2020-06-27T15:37:27Z</time>
      </trkpt>
      <trkpt lat="49.02488" lon="7.83289">
        <ele>319.6</ele>
        <time>2020-06-27T15:37:28Z</time>
      </trkpt>
      <trkpt lat="49.0249" lon="7.83293">
        <ele>319.8</ele>
        <time>2020-06-27T15:37:29Z</time>
      </trkpt>
      <trkpt lat="49.0249" lon="7.83295">
        <ele>319.9</ele>
        <time>2020-06-27T15:37:30Z</time>
      </trkpt>
      <trkpt lat="49.0249" lon="7.833">
        <ele>320.1</ele>
        <time>2020-06-27T15:37:31Z</time>
      </trkpt>
      <trkpt lat="49.02491" lon="7.83304">
        <ele>320.3</ele>
        <time>2020-06-27T15:37:32Z</time>
      </trkpt>
      <trkpt lat="49.02492" lon="7.83306">
        <ele>320.4</ele>
        <time>2020-06-27T15:37:33Z</time>
      </trkpt>
      <trkpt lat="49.02492" lon="7.83308">
        <ele>320.5</ele>
        <time>2020-06-27T15:37:34Z</time>
      </trkpt>
      <trkpt lat="49.02493" lon="7.83311">
        <ele>320.6</ele>
        <time>2020-06-27T15:37:35Z</time>
      </trkpt>
      <trkpt lat="49.02494" lon="7.83315">
        <ele>320.8</ele>
        <time>2020-06-27T15:37:36Z</time>
      </trkpt>
      <trkpt lat="49.02495" lon="7.8332">
        <ele>321</ele>
        <time>2020-06-27T15:37:37Z</time>
      </trkpt>
      <trkpt lat="49.02495" lon="7.83322">
        <ele>321.1</ele>
        <time>2020-06-27T15:37:38Z</time>
      </trkpt>
      <trkpt lat="49.02496" lon="7.83327">
        <ele>321.3</ele>
        <time>2020-06-27T15:37:39Z</time>
      </trkpt>
      <trkpt lat="49.02497" lon="7.83329">
        <ele>321.3</ele>
        <time>2020-06-27T15:37:40Z</time>
      </trkpt>
      <trkpt lat="49.02497" lon="7.83331">
        <ele>321.4</ele>
        <time>2020-06-27T15:37:41Z</time>
      </trkpt>
      <trkpt lat="49.02497" lon="7.83334">
        <ele>321.5</ele>
        <time>2020-06-27T15:37:42Z</time>
      </trkpt>
      <trkpt lat="49.02499" lon="7.83339">
        <ele>321.8</ele>
        <time>2020-06-27T15:37:43Z</time>
      </trkpt>
      <trkpt lat="49.025" lon="7.83342">
        <ele>321.9</ele>
        <time>2020-06-27T15:37:44Z</time>
      </trkpt>
      <trkpt lat="49.02502" lon="7.83347">
        <ele>322.1</ele>
        <time>2020-06-27T15:37:45Z</time>
      </trkpt>
      <trkpt lat="49.02503" lon="7.83352">
        <ele>322.3</ele>
        <time>2020-06-27T15:37:46Z</time>
      </trkpt>
      <trkpt lat="49.02505" lon="7.83357">
        <ele>322.5</ele>
        <time>2020-06-27T15:37:47Z</time>
      </trkpt>
      <trkpt lat="49.02507" lon="7.83363">
        <ele>322.7</ele>
        <time>2020-06-27T15:37:48Z</time>
      </trkpt>
      <trkpt lat="49.02508" lon="7.83368">
        <ele>322.8</ele>
        <time>2020-06-27T15:37:49Z</time>
      </trkpt>
      <trkpt lat="49.02509" lon="7.83373">
        <ele>322.9</ele>
        <time>2020-06-27T15:37:50Z</time>
      </trkpt>
      <trkpt lat="49.0251" lon="7.83378">
        <ele>323.1</ele>
        <time>2020-06-27T15:37:51Z</time>
      </trkpt>
      <trkpt lat="49.02512" lon="7.83383">
        <ele>323.2</ele>
        <time>2020-06-27T15:37:52Z</time>
      </trkpt>
      <trkpt lat="49.02512" lon="7.83385">
        <ele>323.3</ele>
        <time>2020-06-27T15:37:53Z</time>
      </trkpt>
      <trkpt lat="49.02514" lon="7.83389">
        <ele>323.4</ele>
        <time>2020-06-27T15:37:54Z</time>
      </trkpt>
      <trkpt lat="49.02516" lon="7.83396">
        <ele>323.6</ele>
        <time>2020-06-27T15:37:55Z</time>
      </trkpt>
      <trkpt lat="49.02516" lon="7.83399">
        <ele>323.7</ele>
        <time>2020-06-27T15:37:56Z</time>
      </trkpt>
      <trkpt lat="49.02518" lon="7.8341">
        <ele>323.9</ele>
        <time>2020-06-27T15:37:57Z</time>
      </trkpt>
      <trkpt lat="49.02519" lon="7.83418">
        <ele>324.1</ele>
        <time>2020-06-27T15:37:58Z</time>
      </trkpt>
      <trkpt lat="49.0252" lon="7.83425">
        <ele>324.3</ele>
        <time>2020-06-27T15:37:59Z</time>
      </trkpt>
      <trkpt lat="49.02522" lon="7.83432">
        <ele>324.4</ele>
        <time>2020-06-27T15:38:00Z</time>
      </trkpt>
      <trkpt lat="49.02524" lon="7.8344">
        <ele>324.6</ele>
        <time>2020-06-27T15:38:01Z</time>
      </trkpt>
      <trkpt lat="49.02525" lon="7.83447">
        <ele>324.8</ele>
        <time>2020-06-27T15:38:02Z</time>
      </trkpt>
      <trkpt lat="49.02527" lon="7.83454">
        <ele>324.9</ele>
        <time>2020-06-27T15:38:03Z</time>
      </trkpt>
      <trkpt lat="49.02528" lon="7.83461">
        <ele>325.1</ele>
        <time>2020-06-27T15:38:04Z</time>
      </trkpt>
      <trkpt lat="49.02529" lon="7.83466">
        <ele>325.3</ele>
        <time>2020-06-27T15:38:05Z</time>
      </trkpt>
      <trkpt lat="49.0253" lon="7.83471">
        <ele>325.5</ele>
        <time>2020-06-27T15:38:06Z</time>
      </trkpt>
      <trkpt lat="49.02532" lon="7.83477">
        <ele>325.7</ele>
        <time>2020-06-27T15:38:07Z</time>
      </trkpt>
      <trkpt lat="49.02534" lon="7.83483">
        <ele>325.9</ele>
        <time>2020-06-27T15:38:08Z</time>
      </trkpt>
      <trkpt lat="49.02535" lon="7.83487">
        <ele>326.1</ele>
        <time>2020-06-27T15:38:09Z</time>
      </trkpt>
      <trkpt lat="49.02537" lon="7.83493">
        <ele>326.4</ele>
        <time>2020-06-27T15:38:10Z</time>
      </trkpt>
      <trkpt lat="49.02538" lon="7.83499">
        <ele>326.7</ele>
        <time>2020-06-27T15:38:11Z</time>
      </trkpt>
      <trkpt lat="49.0254" lon="7.83505">
        <ele>326.9</ele>
        <time>2020-06-27T15:38:12Z</time>
      </trkpt>
      <trkpt lat="49.02541" lon="7.83512">
        <ele>327.2</ele>
        <time>2020-06-27T15:38:13Z</time>
      </trkpt>
      <trkpt lat="49.02543" lon="7.83517">
        <ele>327.4</ele>
        <time>2020-06-27T15:38:14Z</time>
      </trkpt>
      <trkpt lat="49.02544" lon="7.83525">
        <ele>327.7</ele>
        <time>2020-06-27T15:38:15Z</time>
      </trkpt>
      <trkpt lat="49.02545" lon="7.83529">
        <ele>327.9</ele>
        <time>2020-06-27T15:38:16Z</time>
      </trkpt>
      <trkpt lat="49.02546" lon="7.83537">
        <ele>328.1</ele>
        <time>2020-06-27T15:38:17Z</time>
      </trkpt>
      <trkpt lat="49.02547" lon="7.83543">
        <ele>328.3</ele>
        <time>2020-06-27T15:38:18Z</time>
      </trkpt>
      <trkpt lat="49.02548" lon="7.83551">
        <ele>328.6</ele>
        <time>2020-06-27T15:38:19Z</time>
      </trkpt>
      <trkpt lat="49.02548" lon="7.83555">
        <ele>328.8</ele>
        <time>2020-06-27T15:38:20Z</time>
      </trkpt>
      <trkpt lat="49.0255" lon="7.83561">
        <ele>329</ele>
        <time>2020-06-27T15:38:21Z</time>
      </trkpt>
      <trkpt lat="49.02551" lon="7.83567">
        <ele>329.2</ele>
        <time>2020-06-27T15:38:22Z</time>
      </trkpt>
      <trkpt lat="49.02552" lon="7.83574">
        <ele>329.4</ele>
        <time>2020-06-27T15:38:23Z</time>
      </trkpt>
      <trkpt lat="49.02553" lon="7.83579">
        <ele>329.7</ele>
        <time>2020-06-27T15:38:24Z</time>
      </trkpt>
      <trkpt lat="49.02553" lon="7.83584">
        <ele>329.8</ele>
        <time>2020-06-27T15:38:25Z</time>
      </trkpt>
      <trkpt lat="49.02554" lon="7.83588">
        <ele>330</ele>
        <time>2020-06-27T15:38:26Z</time>
      </trkpt>
      <trkpt lat="49.02555" lon="7.83593">
        <ele>330.1</ele>
        <time>2020-06-27T15:38:27Z</time>
      </trkpt>
      <trkpt lat="49.02556" lon="7.836">
        <ele>330.4</ele>
        <time>2020-06-27T15:38:28Z</time>
      </trkpt>
      <trkpt lat="49.02557" lon="7.83607">
        <ele>330.6</ele>
        <time>2020-06-27T15:38:29Z</time>
      </trkpt>
      <trkpt lat="49.02557" lon="7.8361">
        <ele>330.7</ele>
        <time>2020-06-27T15:38:30Z</time>
      </trkpt>
      <trkpt lat="49.02557" lon="7.83616">
        <ele>330.9</ele>
        <time>2020-06-27T15:38:31Z</time>
      </trkpt>
      <trkpt lat="49.02558" lon="7.8362">
        <ele>331.1</ele>
        <time>2020-06-27T15:38:32Z</time>
      </trkpt>
      <trkpt lat="49.02559" lon="7.83626">
        <ele>331.3</ele>
        <time>2020-06-27T15:38:33Z</time>
      </trkpt>
      <trkpt lat="49.0256" lon="7.83632">
        <ele>331.6</ele>
        <time>2020-06-27T15:38:34Z</time>
      </trkpt>
      <trkpt lat="49.0256" lon="7.83637">
        <ele>331.7</ele>
        <time>2020-06-27T15:38:35Z</time>
      </trkpt>
      <trkpt lat="49.02561" lon="7.83643">
        <ele>332</ele>
        <time>2020-06-27T15:38:36Z</time>
      </trkpt>
      <trkpt lat="49.02562" lon="7.83649">
        <ele>332.2</ele>
        <time>2020-06-27T15:38:37Z</time>
      </trkpt>
      <trkpt lat="49.02563" lon="7.83655">
        <ele>332.5</ele>
        <time>2020-06-27T15:38:38Z</time>
      </trkpt>
      <trkpt lat="49.02564" lon="7.83658">
        <ele>332.6</ele>
        <time>2020-06-27T15:38:39Z</time>
      </trkpt>
      <trkpt lat="49.02565" lon="7.83662">
        <ele>332.8</ele>
        <time>2020-06-27T15:38:40Z</time>
      </trkpt>
      <trkpt lat="49.02565" lon="7.83669">
        <ele>333</ele>
        <time>2020-06-27T15:38:41Z</time>
      </trkpt>
      <trkpt lat="49.02566" lon="7.83672">
        <ele>333.1</ele>
        <time>2020-06-27T15:38:42Z</time>
      </trkpt>
      <trkpt lat="49.02567" lon="7.83677">
        <ele>333.3</ele>
        <time>2020-06-27T15:38:43Z</time>
      </trkpt>
      <trkpt lat="49.02566" lon="7.83683">
        <ele>333.4</ele>
        <time>2020-06-27T15:38:44Z</time>
      </trkpt>
      <trkpt lat="49.02566" lon="7.83684">
        <ele>333.4</ele>
        <time>2020-06-27T15:38:45Z</time>
      </trkpt>
      <trkpt lat="49.02567" lon="7.83693">
        <ele>333.6</ele>
        <time>2020-06-27T15:38:46Z</time>
      </trkpt>
      <trkpt lat="49.02568" lon="7.83698">
        <ele>333.8</ele>
        <time>2020-06-27T15:38:47Z</time>
      </trkpt>
      <trkpt lat="49.02568" lon="7.83704">
        <ele>334.1</ele>
        <time>2020-06-27T15:38:48Z</time>
      </trkpt>
      <trkpt lat="49.02569" lon="7.8371">
        <ele>334.3</ele>
        <time>2020-06-27T15:38:49Z</time>
      </trkpt>
      <trkpt lat="49.0257" lon="7.83715">
        <ele>334.4</ele>
        <time>2020-06-27T15:38:50Z</time>
      </trkpt>
      <trkpt lat="49.0257" lon="7.83721">
        <ele>334.6</ele>
        <time>2020-06-27T15:38:51Z</time>
      </trkpt>
      <trkpt lat="49.02571" lon="7.83726">
        <ele>334.7</ele>
        <time>2020-06-27T15:38:52Z</time>
      </trkpt>
      <trkpt lat="49.02571" lon="7.8373">
        <ele>334.9</ele>
        <time>2020-06-27T15:38:53Z</time>
      </trkpt>
      <trkpt lat="49.02572" lon="7.83736">
        <ele>335</ele>
        <time>2020-06-27T15:38:54Z</time>
      </trkpt>
      <trkpt lat="49.02572" lon="7.83741">
        <ele>335.2</ele>
        <time>2020-06-27T15:38:55Z</time>
      </trkpt>
      <trkpt lat="49.02572" lon="7.83747">
        <ele>335.4</ele>
        <time>2020-06-27T15:38:56Z</time>
      </trkpt>
      <trkpt lat="49.02573" lon="7.83753">
        <ele>335.5</ele>
        <time>2020-06-27T15:38:57Z</time>
      </trkpt>
      <trkpt lat="49.02573" lon="7.83761">
        <ele>335.8</ele>
        <time>2020-06-27T15:38:58Z</time>
      </trkpt>
      <trkpt lat="49.02573" lon="7.83768">
        <ele>336</ele>
        <time>2020-06-27T15:38:59Z</time>
      </trkpt>
      <trkpt lat="49.02573" lon="7.83771">
        <ele>336.1</ele>
        <time>2020-06-27T15:39:00Z</time>
      </trkpt>
      <trkpt lat="49.02572" lon="7.83775">
        <ele>336.3</ele>
        <time>2020-06-27T15:39:01Z</time>
      </trkpt>
      <trkpt lat="49.02572" lon="7.83781">
        <ele>336.4</ele>
        <time>2020-06-27T15:39:02Z</time>
      </trkpt>
      <trkpt lat="49.02571" lon="7.83786">
        <ele>336.6</ele>
        <time>2020-06-27T15:39:03Z</time>
      </trkpt>
      <trkpt lat="49.02571" lon="7.83793">
        <ele>336.9</ele>
        <time>2020-06-27T15:39:04Z</time>
      </trkpt>
      <trkpt lat="49.0257" lon="7.83798">
        <ele>337</ele>
        <time>2020-06-27T15:39:05Z</time>
      </trkpt>
      <trkpt lat="49.02569" lon="7.83803">
        <ele>337.2</ele>
        <time>2020-06-27T15:39:06Z</time>
      </trkpt>
      <trkpt lat="49.02568" lon="7.83808">
        <ele>337.4</ele>
        <time>2020-06-27T15:39:07Z</time>
      </trkpt>
      <trkpt lat="49.02567" lon="7.83814">
        <ele>337.6</ele>
        <time>2020-06-27T15:39:08Z</time>
      </trkpt>
      <trkpt lat="49.02567" lon="7.83819">
        <ele>337.8</ele>
        <time>2020-06-27T15:39:09Z</time>
      </trkpt>
      <trkpt lat="49.02567" lon="7.83823">
        <ele>337.9</ele>
        <time>2020-06-27T15:39:10Z</time>
      </trkpt>
      <trkpt lat="49.02566" lon="7.83825">
        <ele>338</ele>
        <time>2020-06-27T15:39:11Z</time>
      </trkpt>
      <trkpt lat="49.02566" lon="7.8383">
        <ele>338.1</ele>
        <time>2020-06-27T15:39:12Z</time>
      </trkpt>
      <trkpt lat="49.02564" lon="7.83836">
        <ele>338.4</ele>
        <time>2020-06-27T15:39:13Z</time>
      </trkpt>
      <trkpt lat="49.02561" lon="7.8384">
        <ele>338.6</ele>
        <time>2020-06-27T15:39:14Z</time>
      </trkpt>
      <trkpt lat="49.02559" lon="7.83846">
        <ele>338.8</ele>
        <time>2020-06-27T15:39:15Z</time>
      </trkpt>
      <trkpt lat="49.02557" lon="7.83851">
        <ele>339</ele>
        <time>2020-06-27T15:39:16Z</time>
      </trkpt>
      <trkpt lat="49.02555" lon="7.83857">
        <ele>339.2</ele>
        <time>2020-06-27T15:39:17Z</time>
      </trkpt>
      <trkpt lat="49.02553" lon="7.83862">
        <ele>339.4</ele>
        <time>2020-06-27T15:39:18Z</time>
      </trkpt>
      <trkpt lat="49.02551" lon="7.83868">
        <ele>339.6</ele>
        <time>2020-06-27T15:39:19Z</time>
      </trkpt>
      <trkpt lat="49.0255" lon="7.83873">
        <ele>339.8</ele>
        <time>2020-06-27T15:39:20Z</time>
      </trkpt>
      <trkpt lat="49.0255" lon="7.83877">
        <ele>339.9</ele>
        <time>2020-06-27T15:39:21Z</time>
      </trkpt>
      <trkpt lat="49.02549" lon="7.83881">
        <ele>340.1</ele>
        <time>2020-06-27T15:39:22Z</time>
      </trkpt>
      <trkpt lat="49.02549" lon="7.83886">
        <ele>340.2</ele>
        <time>2020-06-27T15:39:23Z</time>
      </trkpt>
      <trkpt lat="49.02547" lon="7.83892">
        <ele>340.4</ele>
        <time>2020-06-27T15:39:24Z</time>
      </trkpt>
      <trkpt lat="49.02546" lon="7.83897">
        <ele>340.6</ele>
        <time>2020-06-27T15:39:25Z</time>
      </trkpt>
      <trkpt lat="49.02545" lon="7.83901">
        <ele>340.7</ele>
        <time>2020-06-27T15:39:26Z</time>
      </trkpt>
      <trkpt lat="49.02544" lon="7.83907">
        <ele>341</ele>
        <time>2020-06-27T15:39:27Z</time>
      </trkpt>
      <trkpt lat="49.02542" lon="7.83915">
        <ele>341.3</ele>
        <time>2020-06-27T15:39:28Z</time>
      </trkpt>
      <trkpt lat="49.0254" lon="7.83918">
        <ele>341.4</ele>
        <time>2020-06-27T15:39:29Z</time>
      </trkpt>
      <trkpt lat="49.02537" lon="7.83923">
        <ele>341.6</ele>
        <time>2020-06-27T15:39:30Z</time>
      </trkpt>
      <trkpt lat="49.02536" lon="7.83925">
        <ele>341.7</ele>
        <time>2020-06-27T15:39:31Z</time>
      </trkpt>
      <trkpt lat="49.02534" lon="7.83932">
        <ele>342</ele>
        <time>2020-06-27T15:39:32Z</time>
      </trkpt>
      <trkpt lat="49.02533" lon="7.83935">
        <ele>342.2</ele>
        <time>2020-06-27T15:39:33Z</time>
      </trkpt>
      <trkpt lat="49.02531" lon="7.83941">
        <ele>342.4</ele>
        <time>2020-06-27T15:39:34Z</time>
      </trkpt>
      <trkpt lat="49.02529" lon="7.83945">
        <ele>342.6</ele>
        <time>2020-06-27T15:39:35Z</time>
      </trkpt>
      <trkpt lat="49.02529" lon="7.83947">
        <ele>342.6</ele>
        <time>2020-06-27T15:39:36Z</time>
      </trkpt>
      <trkpt lat="49.02527" lon="7.83952">
        <ele>342.8</ele>
        <time>2020-06-27T15:39:37Z</time>
      </trkpt>
      <trkpt lat="49.02526" lon="7.83957">
        <ele>342.9</ele>
        <time>2020-06-27T15:39:38Z</time>
      </trkpt>
      <trkpt lat="49.02523" lon="7.83964">
        <ele>343.2</ele>
        <time>2020-06-27T15:39:39Z</time>
      </trkpt>
      <trkpt lat="49.02521" lon="7.83969">
        <ele>343.4</ele>
        <time>2020-06-27T15:39:40Z</time>
      </trkpt>
      <trkpt lat="49.02519" lon="7.83974">
        <ele>343.5</ele>
        <time>2020-06-27T15:39:41Z</time>
      </trkpt>
      <trkpt lat="49.02517" lon="7.83977">
        <ele>343.7</ele>
        <time>2020-06-27T15:39:42Z</time>
      </trkpt>
      <trkpt lat="49.02515" lon="7.83983">
        <ele>343.9</ele>
        <time>2020-06-27T15:39:43Z</time>
      </trkpt>
      <trkpt lat="49.02512" lon="7.83988">
        <ele>344</ele>
        <time>2020-06-27T15:39:44Z</time>
      </trkpt>
      <trkpt lat="49.0251" lon="7.83993">
        <ele>344.2</ele>
        <time>2020-06-27T15:39:45Z</time>
      </trkpt>
      <trkpt lat="49.02508" lon="7.83998">
        <ele>344.4</ele>
        <time>2020-06-27T15:39:46Z</time>
      </trkpt>
      <trkpt lat="49.02505" lon="7.84003">
        <ele>344.6</ele>
        <time>2020-06-27T15:39:47Z</time>
      </trkpt>
      <trkpt lat="49.02502" lon="7.84008">
        <ele>344.7</ele>
        <time>2020-06-27T15:39:48Z</time>
      </trkpt>
      <trkpt lat="49.02499" lon="7.84014">
        <ele>344.9</ele>
        <time>2020-06-27T15:39:49Z</time>
      </trkpt>
      <trkpt lat="49.02497" lon="7.84019">
        <ele>345.1</ele>
        <time>2020-06-27T15:39:50Z</time>
      </trkpt>
      <trkpt lat="49.02493" lon="7.84024">
        <ele>345.3</ele>
        <time>2020-06-27T15:39:51Z</time>
      </trkpt>
      <trkpt lat="49.0249" lon="7.84028">
        <ele>345.4</ele>
        <time>2020-06-27T15:39:52Z</time>
      </trkpt>
      <trkpt lat="49.02487" lon="7.84032">
        <ele>345.6</ele>
        <time>2020-06-27T15:39:53Z</time>
      </trkpt>
      <trkpt lat="49.02485" lon="7.84037">
        <ele>345.7</ele>
        <time>2020-06-27T15:39:54Z</time>
      </trkpt>
      <trkpt lat="49.02483" lon="7.84042">
        <ele>345.9</ele>
        <time>2020-06-27T15:39:55Z</time>
      </trkpt>
      <trkpt lat="49.0248" lon="7.84045">
        <ele>346</ele>
        <time>2020-06-27T15:39:56Z</time>
      </trkpt>
      <trkpt lat="49.02478" lon="7.8405">
        <ele>346.1</ele>
        <time>2020-06-27T15:39:57Z</time>
      </trkpt>
      <trkpt lat="49.02476" lon="7.84054">
        <ele>346.2</ele>
        <time>2020-06-27T15:39:58Z</time>
      </trkpt>
      <trkpt lat="49.02474" lon="7.8406">
        <ele>346.3</ele>
        <time>2020-06-27T15:39:59Z</time>
      </trkpt>
      <trkpt lat="49.02473" lon="7.84066">
        <ele>346.5</ele>
        <time>2020-06-27T15:40:00Z</time>
      </trkpt>
      <trkpt lat="49.02471" lon="7.8407">
        <ele>346.6</ele>
        <time>2020-06-27T15:40:01Z</time>
      </trkpt>
      <trkpt lat="49.0247" lon="7.84074">
        <ele>346.6</ele>
        <time>2020-06-27T15:40:02Z</time>
      </trkpt>
      <trkpt lat="49.02467" lon="7.8408">
        <ele>346.8</ele>
        <time>2020-06-27T15:40:03Z</time>
      </trkpt>
      <trkpt lat="49.02465" lon="7.84086">
        <ele>346.9</ele>
        <time>2020-06-27T15:40:04Z</time>
      </trkpt>
      <trkpt lat="49.02463" lon="7.84091">
        <ele>347</ele>
        <time>2020-06-27T15:40:05Z</time>
      </trkpt>
      <trkpt lat="49.02462" lon="7.84098">
        <ele>347.2</ele>
        <time>2020-06-27T15:40:06Z</time>
      </trkpt>
      <trkpt lat="49.0246" lon="7.84104">
        <ele>347.3</ele>
        <time>2020-06-27T15:40:07Z</time>
      </trkpt>
      <trkpt lat="49.0246" lon="7.84108">
        <ele>347.4</ele>
        <time>2020-06-27T15:40:08Z</time>
      </trkpt>
      <trkpt lat="49.02459" lon="7.84114">
        <ele>347.5</ele>
        <time>2020-06-27T15:40:09Z</time>
      </trkpt>
      <trkpt lat="49.02457" lon="7.8412">
        <ele>347.6</ele>
        <time>2020-06-27T15:40:10Z</time>
      </trkpt>
      <trkpt lat="49.02454" lon="7.84125">
        <ele>347.7</ele>
        <time>2020-06-27T15:40:11Z</time>
      </trkpt>
      <trkpt lat="49.02452" lon="7.84131">
        <ele>347.9</ele>
        <time>2020-06-27T15:40:12Z</time>
      </trkpt>
      <trkpt lat="49.02452" lon="7.84136">
        <ele>348</ele>
        <time>2020-06-27T15:40:13Z</time>
      </trkpt>
      <trkpt lat="49.02451" lon="7.84141">
        <ele>348.1</ele>
        <time>2020-06-27T15:40:14Z</time>
      </trkpt>
      <trkpt lat="49.02449" lon="7.84148">
        <ele>348.3</ele>
        <time>2020-06-27T15:40:15Z</time>
      </trkpt>
      <trkpt lat="49.02446" lon="7.84154">
        <ele>348.5</ele>
        <time>2020-06-27T15:40:16Z</time>
      </trkpt>
      <trkpt lat="49.02444" lon="7.8416">
        <ele>348.7</ele>
        <time>2020-06-27T15:40:17Z</time>
      </trkpt>
      <trkpt lat="49.02442" lon="7.84166">
        <ele>348.9</ele>
        <time>2020-06-27T15:40:18Z</time>
      </trkpt>
      <trkpt lat="49.0244" lon="7.84171">
        <ele>349.1</ele>
        <time>2020-06-27T15:40:19Z</time>
      </trkpt>
      <trkpt lat="49.02438" lon="7.84177">
        <ele>349.4</ele>
        <time>2020-06-27T15:40:20Z</time>
      </trkpt>
      <trkpt lat="49.02437" lon="7.84183">
        <ele>349.6</ele>
        <time>2020-06-27T15:40:21Z</time>
      </trkpt>
      <trkpt lat="49.02435" lon="7.84188">
        <ele>349.8</ele>
        <time>2020-06-27T15:40:22Z</time>
      </trkpt>
      <trkpt lat="49.02434" lon="7.84196">
        <ele>350.1</ele>
        <time>2020-06-27T15:40:23Z</time>
      </trkpt>
      <trkpt lat="49.02433" lon="7.84201">
        <ele>350.4</ele>
        <time>2020-06-27T15:40:24Z</time>
      </trkpt>
      <trkpt lat="49.02431" lon="7.84206">
        <ele>350.6</ele>
        <time>2020-06-27T15:40:25Z</time>
      </trkpt>
      <trkpt lat="49.02429" lon="7.8421">
        <ele>350.8</ele>
        <time>2020-06-27T15:40:26Z</time>
      </trkpt>
      <trkpt lat="49.02427" lon="7.84215">
        <ele>351</ele>
        <time>2020-06-27T15:40:27Z</time>
      </trkpt>
      <trkpt lat="49.02425" lon="7.84219">
        <ele>351.2</ele>
        <time>2020-06-27T15:40:28Z</time>
      </trkpt>
      <trkpt lat="49.02424" lon="7.84224">
        <ele>351.4</ele>
        <time>2020-06-27T15:40:29Z</time>
      </trkpt>
      <trkpt lat="49.02422" lon="7.84228">
        <ele>351.6</ele>
        <time>2020-06-27T15:40:30Z</time>
      </trkpt>
      <trkpt lat="49.0242" lon="7.84234">
        <ele>351.8</ele>
        <time>2020-06-27T15:40:31Z</time>
      </trkpt>
      <trkpt lat="49.02418" lon="7.84239">
        <ele>352</ele>
        <time>2020-06-27T15:40:32Z</time>
      </trkpt>
      <trkpt lat="49.02417" lon="7.84245">
        <ele>352.2</ele>
        <time>2020-06-27T15:40:33Z</time>
      </trkpt>
      <trkpt lat="49.02416" lon="7.84249">
        <ele>352.4</ele>
        <time>2020-06-27T15:40:34Z</time>
      </trkpt>
      <trkpt lat="49.02415" lon="7.84255">
        <ele>352.6</ele>
        <time>2020-06-27T15:40:35Z</time>
      </trkpt>
      <trkpt lat="49.02414" lon="7.84261">
        <ele>352.9</ele>
        <time>2020-06-27T15:40:36Z</time>
      </trkpt>
      <trkpt lat="49.02412" lon="7.84267">
        <ele>353.2</ele>
        <time>2020-06-27T15:40:37Z</time>
      </trkpt>
      <trkpt lat="49.02411" lon="7.84272">
        <ele>353.4</ele>
        <time>2020-06-27T15:40:38Z</time>
      </trkpt>
      <trkpt lat="49.02411" lon="7.84279">
        <ele>353.7</ele>
        <time>2020-06-27T15:40:39Z</time>
      </trkpt>
      <trkpt lat="49.0241" lon="7.84284">
        <ele>353.9</ele>
        <time>2020-06-27T15:40:40Z</time>
      </trkpt>
      <trkpt lat="49.02409" lon="7.8429">
        <ele>354.2</ele>
        <time>2020-06-27T15:40:41Z</time>
      </trkpt>
      <trkpt lat="49.02408" lon="7.84294">
        <ele>354.4</ele>
        <time>2020-06-27T15:40:42Z</time>
      </trkpt>
      <trkpt lat="49.02406" lon="7.84299">
        <ele>354.7</ele>
        <time>2020-06-27T15:40:43Z</time>
      </trkpt>
      <trkpt lat="49.02406" lon="7.84304">
        <ele>354.9</ele>
        <time>2020-06-27T15:40:44Z</time>
      </trkpt>
      <trkpt lat="49.02406" lon="7.84309">
        <ele>355.2</ele>
        <time>2020-06-27T15:40:45Z</time>
      </trkpt>
      <trkpt lat="49.02404" lon="7.84314">
        <ele>355.4</ele>
        <time>2020-06-27T15:40:46Z</time>
      </trkpt>
      <trkpt lat="49.02403" lon="7.84318">
        <ele>355.7</ele>
        <time>2020-06-27T15:40:47Z</time>
      </trkpt>
      <trkpt lat="49.02402" lon="7.84323">
        <ele>355.9</ele>
        <time>2020-06-27T15:40:48Z</time>
      </trkpt>
      <trkpt lat="49.02401" lon="7.84328">
        <ele>356.2</ele>
        <time>2020-06-27T15:40:49Z</time>
      </trkpt>
      <trkpt lat="49.024" lon="7.84333">
        <ele>356.5</ele>
        <time>2020-06-27T15:40:50Z</time>
      </trkpt>
      <trkpt lat="49.02399" lon="7.84335">
        <ele>356.6</ele>
        <time>2020-06-27T15:40:51Z</time>
      </trkpt>
      <trkpt lat="49.02399" lon="7.8434">
        <ele>356.8</ele>
        <time>2020-06-27T15:40:52Z</time>
      </trkpt>
      <trkpt lat="49.02398" lon="7.84345">
        <ele>357.1</ele>
        <time>2020-06-27T15:40:53Z</time>
      </trkpt>
      <trkpt lat="49.02399" lon="7.84349">
        <ele>357.3</ele>
        <time>2020-06-27T15:40:54Z</time>
      </trkpt>
      <trkpt lat="49.02399" lon="7.84351">
        <ele>357.4</ele>
        <time>2020-06-27T15:40:55Z</time>
      </trkpt>
      <trkpt lat="49.02399" lon="7.84359">
        <ele>357.8</ele>
        <time>2020-06-27T15:40:56Z</time>
      </trkpt>
      <trkpt lat="49.02398" lon="7.84363">
        <ele>358.1</ele>
        <time>2020-06-27T15:40:57Z</time>
      </trkpt>
      <trkpt lat="49.02397" lon="7.84368">
        <ele>358.4</ele>
        <time>2020-06-27T15:40:58Z</time>
      </trkpt>
      <trkpt lat="49.02397" lon="7.84373">
        <ele>358.6</ele>
        <time>2020-06-27T15:40:59Z</time>
      </trkpt>
      <trkpt lat="49.02395" lon="7.84378">
        <ele>358.9</ele>
        <time>2020-06-27T15:41:00Z</time>
      </trkpt>
      <trkpt lat="49.02393" lon="7.84382">
        <ele>359.2</ele>
        <time>2020-06-27T15:41:01Z</time>
      </trkpt>
      <trkpt lat="49.02392" lon="7.84383">
        <ele>359.3</ele>
        <time>2020-06-27T15:41:02Z</time>
      </trkpt>
      <trkpt lat="49.02389" lon="7.84388">
        <ele>359.6</ele>
        <time>2020-06-27T15:41:03Z</time>
      </trkpt>
      <trkpt lat="49.02389" lon="7.84391">
        <ele>359.8</ele>
        <time>2020-06-27T15:41:04Z</time>
      </trkpt>
      <trkpt lat="49.02388" lon="7.84395">
        <ele>360</ele>
        <time>2020-06-27T15:41:05Z</time>
      </trkpt>
      <trkpt lat="49.02388" lon="7.844">
        <ele>360.3</ele>
        <time>2020-06-27T15:41:06Z</time>
      </trkpt>
      <trkpt lat="49.02387" lon="7.84405">
        <ele>360.6</ele>
        <time>2020-06-27T15:41:07Z</time>
      </trkpt>
      <trkpt lat="49.02387" lon="7.84407">
        <ele>360.7</ele>
        <time>2020-06-27T15:41:08Z</time>
      </trkpt>
      <trkpt lat="49.02386" lon="7.84412">
        <ele>361</ele>
        <time>2020-06-27T15:41:09Z</time>
      </trkpt>
      <trkpt lat="49.02386" lon="7.84414">
        <ele>361.1</ele>
        <time>2020-06-27T15:41:10Z</time>
      </trkpt>
      <trkpt lat="49.02386" lon="7.84418">
        <ele>361.4</ele>
        <time>2020-06-27T15:41:11Z</time>
      </trkpt>
      <trkpt lat="49.02385" lon="7.84424">
        <ele>361.7</ele>
        <time>2020-06-27T15:41:12Z</time>
      </trkpt>
      <trkpt lat="49.02385" lon="7.84427">
        <ele>361.9</ele>
        <time>2020-06-27T15:41:13Z</time>
      </trkpt>
      <trkpt lat="49.02384" lon="7.84431">
        <ele>362.1</ele>
        <time>2020-06-27T15:41:14Z</time>
      </trkpt>
      <trkpt lat="49.02383" lon="7.84436">
        <ele>362.4</ele>
        <time>2020-06-27T15:41:15Z</time>
      </trkpt>
      <trkpt lat="49.02382" lon="7.84442">
        <ele>362.7</ele>
        <time>2020-06-27T15:41:16Z</time>
      </trkpt>
      <trkpt lat="49.02382" lon="7.84445">
        <ele>362.9</ele>
        <time>2020-06-27T15:41:17Z</time>
      </trkpt>
      <trkpt lat="49.0238" lon="7.8445">
        <ele>363.2</ele>
        <time>2020-06-27T15:41:18Z</time>
      </trkpt>
      <trkpt lat="49.0238" lon="7.84452">
        <ele>363.3</ele>
        <time>2020-06-27T15:41:19Z</time>
      </trkpt>
      <trkpt lat="49.02379" lon="7.84458">
        <ele>363.6</ele>
        <time>2020-06-27T15:41:20Z</time>
      </trkpt>
      <trkpt lat="49.02378" lon="7.84461">
        <ele>363.7</ele>
        <time>2020-06-27T15:41:21Z</time>
      </trkpt>
      <trkpt lat="49.02377" lon="7.84465">
        <ele>364</ele>
        <time>2020-06-27T15:41:22Z</time>
      </trkpt>
      <trkpt lat="49.02376" lon="7.84471">
        <ele>364.3</ele>
        <time>2020-06-27T15:41:23Z</time>
      </trkpt>
      <trkpt lat="49.02376" lon="7.84475">
        <ele>364.5</ele>
        <time>2020-06-27T15:41:24Z</time>
      </trkpt>
      <trkpt lat="49.02375" lon="7.84482">
        <ele>364.8</ele>
        <time>2020-06-27T15:41:25Z</time>
      </trkpt>
      <trkpt lat="49.02374" lon="7.84484">
        <ele>365</ele>
        <time>2020-06-27T15:41:26Z</time>
      </trkpt>
      <trkpt lat="49.02373" lon="7.84488">
        <ele>365.2</ele>
        <time>2020-06-27T15:41:27Z</time>
      </trkpt>
      <trkpt lat="49.02373" lon="7.84493">
        <ele>365.4</ele>
        <time>2020-06-27T15:41:28Z</time>
      </trkpt>
      <trkpt lat="49.02372" lon="7.84497">
        <ele>365.6</ele>
        <time>2020-06-27T15:41:29Z</time>
      </trkpt>
      <trkpt lat="49.02371" lon="7.84503">
        <ele>365.9</ele>
        <time>2020-06-27T15:41:30Z</time>
      </trkpt>
      <trkpt lat="49.02371" lon="7.84505">
        <ele>366</ele>
        <time>2020-06-27T15:41:31Z</time>
      </trkpt>
      <trkpt lat="49.02371" lon="7.84511">
        <ele>366.3</ele>
        <time>2020-06-27T15:41:32Z</time>
      </trkpt>
      <trkpt lat="49.0237" lon="7.84513">
        <ele>366.3</ele>
        <time>2020-06-27T15:41:33Z</time>
      </trkpt>
      <trkpt lat="49.02369" lon="7.84517">
        <ele>366.5</ele>
        <time>2020-06-27T15:41:34Z</time>
      </trkpt>
      <trkpt lat="49.02368" lon="7.84523">
        <ele>366.7</ele>
        <time>2020-06-27T15:41:35Z</time>
      </trkpt>
      <trkpt lat="49.02367" lon="7.84525">
        <ele>366.8</ele>
        <time>2020-06-27T15:41:36Z</time>
      </trkpt>
      <trkpt lat="49.02366" lon="7.84529">
        <ele>367</ele>
        <time>2020-06-27T15:41:37Z</time>
      </trkpt>
      <trkpt lat="49.02367" lon="7.84534">
        <ele>367.1</ele>
        <time>2020-06-27T15:41:38Z</time>
      </trkpt>
      <trkpt lat="49.02366" lon="7.84539">
        <ele>367.3</ele>
        <time>2020-06-27T15:41:39Z</time>
      </trkpt>
      <trkpt lat="49.02366" lon="7.8454">
        <ele>367.3</ele>
        <time>2020-06-27T15:41:40Z</time>
      </trkpt>
      <trkpt lat="49.02365" lon="7.84545">
        <ele>367.5</ele>
        <time>2020-06-27T15:41:41Z</time>
      </trkpt>
      <trkpt lat="49.02364" lon="7.84547">
        <ele>367.6</ele>
        <time>2020-06-27T15:41:42Z</time>
      </trkpt>
      <trkpt lat="49.02364" lon="7.84551">
        <ele>367.7</ele>
        <time>2020-06-27T15:41:43Z</time>
      </trkpt>
      <trkpt lat="49.02362" lon="7.84555">
        <ele>367.8</ele>
        <time>2020-06-27T15:41:44Z</time>
      </trkpt>
      <trkpt lat="49.02361" lon="7.84557">
        <ele>367.9</ele>
        <time>2020-06-27T15:41:45Z</time>
      </trkpt>
      <trkpt lat="49.0236" lon="7.84561">
        <ele>368</ele>
        <time>2020-06-27T15:41:46Z</time>
      </trkpt>
      <trkpt lat="49.02359" lon="7.84563">
        <ele>368.1</ele>
        <time>2020-06-27T15:41:47Z</time>
      </trkpt>
      <trkpt lat="49.02358" lon="7.84567">
        <ele>368.2</ele>
        <time>2020-06-27T15:41:48Z</time>
      </trkpt>
      <trkpt lat="49.02357" lon="7.84568">
        <ele>368.2</ele>
        <time>2020-06-27T15:41:49Z</time>
      </trkpt>
      <trkpt lat="49.02355" lon="7.84572">
        <ele>368.3</ele>
        <time>2020-06-27T15:41:50Z</time>
      </trkpt>
      <trkpt lat="49.02354" lon="7.84573">
        <ele>368.3</ele>
        <time>2020-06-27T15:41:51Z</time>
      </trkpt>
      <trkpt lat="49.02352" lon="7.84576">
        <ele>368.4</ele>
        <time>2020-06-27T15:41:52Z</time>
      </trkpt>
      <trkpt lat="49.02351" lon="7.84577">
        <ele>368.4</ele>
        <time>2020-06-27T15:41:53Z</time>
      </trkpt>
      <trkpt lat="49.0235" lon="7.84579">
        <ele>368.4</ele>
        <time>2020-06-27T15:41:54Z</time>
      </trkpt>
      <trkpt lat="49.02349" lon="7.84582">
        <ele>368.5</ele>
        <time>2020-06-27T15:41:55Z</time>
      </trkpt>
      <trkpt lat="49.02348" lon="7.84585">
        <ele>368.5</ele>
        <time>2020-06-27T15:41:56Z</time>
      </trkpt>
      <trkpt lat="49.02347" lon="7.84587">
        <ele>368.5</ele>
        <time>2020-06-27T15:41:57Z</time>
      </trkpt>
      <trkpt lat="49.02347" lon="7.84589">
        <ele>368.5</ele>
        <time>2020-06-27T15:41:58Z</time>
      </trkpt>
      <trkpt lat="49.02345" lon="7.84591">
        <ele>368.6</ele>
        <time>2020-06-27T15:41:59Z</time>
      </trkpt>
      <trkpt lat="49.02344" lon="7.84593">
        <ele>368.6</ele>
        <time>2020-06-27T15:42:00Z</time>
      </trkpt>
      <trkpt lat="49.02345" lon="7.84592">
        <ele>368.6</ele>
        <time>2020-06-27T15:42:01Z</time>
      </trkpt>
      <trkpt lat="49.02345" lon="7.84593">
        <ele>368.6</ele>
        <time>2020-06-27T15:42:02Z</time>
      </trkpt>
      <trkpt lat="49.02344" lon="7.84594">
        <ele>368.6</ele>
        <time>2020-06-27T15:42:03Z</time>
      </trkpt>
      <trkpt lat="49.02344" lon="7.84594">
        <ele>368.6</ele>
        <time>2020-06-27T15:42:04Z</time>
      </trkpt>
      <trkpt lat="49.02344" lon="7.84594">
        <ele>368.6</ele>
        <time>2020-06-27T15:42:05Z</time>
      </trkpt>
      <trkpt lat="49.02342" lon="7.84596">
        <ele>368.6</ele>
        <time>2020-06-27T15:42:06Z</time>
      </trkpt>
      <trkpt lat="49.02341" lon="7.84598">
        <ele>368.7</ele>
        <time>2020-06-27T15:42:07Z</time>
      </trkpt>
      <trkpt lat="49.02341" lon="7.84598">
        <ele>368.7</ele>
        <time>2020-06-27T15:42:08Z</time>
      </trkpt>
      <trkpt lat="49.02341" lon="7.84598">
        <ele>368.7</ele>
        <time>2020-06-27T15:42:09Z</time>
      </trkpt>
      <trkpt lat="49.02341" lon="7.84599">
        <ele>368.7</ele>
        <time>2020-06-27T15:42:10Z</time>
      </trkpt>
      <trkpt lat="49.02341" lon="7.84599">
        <ele>368.7</ele>
        <time>2020-06-27T15:42:11Z</time>
      </trkpt>
      <trkpt lat="49.02341" lon="7.84599">
        <ele>368.7</ele>
        <time>2020-06-27T15:42:12Z</time>
      </trkpt>
      <trkpt lat="49.02341" lon="7.846">
        <ele>368.7</ele>
        <time>2020-06-27T15:42:13Z</time>
      </trkpt>
      <trkpt lat="49.02342" lon="7.84602">
        <ele>368.7</ele>
        <time>2020-06-27T15:42:14Z</time>
      </trkpt>
      <trkpt lat="49.02342" lon="7.84603">
        <ele>368.7</ele>
        <time>2020-06-27T15:42:15Z</time>
      </trkpt>
      <trkpt lat="49.02343" lon="7.84604">
        <ele>368.7</ele>
        <time>2020-06-27T15:42:16Z</time>
      </trkpt>
      <trkpt lat="49.02343" lon="7.84605">
        <ele>368.7</ele>
        <time>2020-06-27T15:42:17Z</time>
      </trkpt>
      <trkpt lat="49.02344" lon="7.84606">
        <ele>368.7</ele>
        <time>2020-06-27T15:43:20Z</time>
      </trkpt>
      <trkpt lat="49.02344" lon="7.84607">
        <ele>368.7</ele>
        <time>2020-06-27T15:43:21Z</time>
      </trkpt>
      <trkpt lat="49.02345" lon="7.8461">
        <ele>368.7</ele>
        <time>2020-06-27T15:43:22Z</time>
      </trkpt>
      <trkpt lat="49.02344" lon="7.84612">
        <ele>368.6</ele>
        <time>2020-06-27T15:43:23Z</time>
      </trkpt>
      <trkpt lat="49.02343" lon="7.84615">
        <ele>368.6</ele>
        <time>2020-06-27T15:43:24Z</time>
      </trkpt>
      <trkpt lat="49.02342" lon="7.84616">
        <ele>368.6</ele>
        <time>2020-06-27T15:43:25Z</time>
      </trkpt>
      <trkpt lat="49.02341" lon="7.84618">
        <ele>368.6</ele>
        <time>2020-06-27T15:43:26Z</time>
      </trkpt>
      <trkpt lat="49.02341" lon="7.84622">
        <ele>368.6</ele>
        <time>2020-06-27T15:43:27Z</time>
      </trkpt>
      <trkpt lat="49.02341" lon="7.84624">
        <ele>368.6</ele>
        <time>2020-06-27T15:43:28Z</time>
      </trkpt>
      <trkpt lat="49.02342" lon="7.84627">
        <ele>368.6</ele>
        <time>2020-06-27T15:43:29Z</time>
      </trkpt>
      <trkpt lat="49.02342" lon="7.84629">
        <ele>368.6</ele>
        <time>2020-06-27T15:43:30Z</time>
      </trkpt>
      <trkpt lat="49.02341" lon="7.84631">
        <ele>368.6</ele>
        <time>2020-06-27T15:43:31Z</time>
      </trkpt>
      <trkpt lat="49.02339" lon="7.84636">
        <ele>368.6</ele>
        <time>2020-06-27T15:43:32Z</time>
      </trkpt>
      <trkpt lat="49.02338" lon="7.84638">
        <ele>368.7</ele>
        <time>2020-06-27T15:43:33Z</time>
      </trkpt>
      <trkpt lat="49.02336" lon="7.84641">
        <ele>368.7</ele>
        <time>2020-06-27T15:43:34Z</time>
      </trkpt>
      <trkpt lat="49.02335" lon="7.84646">
        <ele>368.6</ele>
        <time>2020-06-27T15:43:35Z</time>
      </trkpt>
      <trkpt lat="49.02335" lon="7.84648">
        <ele>368.6</ele>
        <time>2020-06-27T15:43:36Z</time>
      </trkpt>
      <trkpt lat="49.02335" lon="7.84653">
        <ele>368.6</ele>
        <time>2020-06-27T15:43:37Z</time>
      </trkpt>
      <trkpt lat="49.02333" lon="7.84659">
        <ele>368.5</ele>
        <time>2020-06-27T15:43:38Z</time>
      </trkpt>
      <trkpt lat="49.02331" lon="7.84662">
        <ele>368.4</ele>
        <time>2020-06-27T15:43:39Z</time>
      </trkpt>
      <trkpt lat="49.0233" lon="7.84667">
        <ele>368.3</ele>
        <time>2020-06-27T15:43:40Z</time>
      </trkpt>
      <trkpt lat="49.02329" lon="7.84669">
        <ele>368.3</ele>
        <time>2020-06-27T15:43:41Z</time>
      </trkpt>
      <trkpt lat="49.02328" lon="7.84675">
        <ele>368.2</ele>
        <time>2020-06-27T15:43:42Z</time>
      </trkpt>
      <trkpt lat="49.02325" lon="7.84682">
        <ele>368</ele>
        <time>2020-06-27T15:43:43Z</time>
      </trkpt>
      <trkpt lat="49.02323" lon="7.84686">
        <ele>368</ele>
        <time>2020-06-27T15:43:44Z</time>
      </trkpt>
      <trkpt lat="49.02321" lon="7.84693">
        <ele>367.8</ele>
        <time>2020-06-27T15:43:45Z</time>
      </trkpt>
      <trkpt lat="49.02319" lon="7.84699">
        <ele>367.7</ele>
        <time>2020-06-27T15:43:46Z</time>
      </trkpt>
      <trkpt lat="49.02317" lon="7.84706">
        <ele>367.6</ele>
        <time>2020-06-27T15:43:47Z</time>
      </trkpt>
      <trkpt lat="49.02315" lon="7.84713">
        <ele>367.4</ele>
        <time>2020-06-27T15:43:48Z</time>
      </trkpt>
      <trkpt lat="49.02313" lon="7.8472">
        <ele>367.3</ele>
        <time>2020-06-27T15:43:49Z</time>
      </trkpt>
      <trkpt lat="49.02311" lon="7.84727">
        <ele>367.1</ele>
        <time>2020-06-27T15:43:50Z</time>
      </trkpt>
      <trkpt lat="49.0231" lon="7.84734">
        <ele>366.9</ele>
        <time>2020-06-27T15:43:51Z</time>
      </trkpt>
      <trkpt lat="49.02308" lon="7.84741">
        <ele>366.8</ele>
        <time>2020-06-27T15:43:52Z</time>
      </trkpt>
      <trkpt lat="49.02307" lon="7.84748">
        <ele>366.6</ele>
        <time>2020-06-27T15:43:53Z</time>
      </trkpt>
      <trkpt lat="49.02306" lon="7.84756">
        <ele>366.5</ele>
        <time>2020-06-27T15:43:54Z</time>
      </trkpt>
      <trkpt lat="49.02305" lon="7.84764">
        <ele>366.4</ele>
        <time>2020-06-27T15:43:55Z</time>
      </trkpt>
      <trkpt lat="49.02303" lon="7.84774">
        <ele>366.2</ele>
        <time>2020-06-27T15:43:56Z</time>
      </trkpt>
      <trkpt lat="49.02301" lon="7.84783">
        <ele>366.1</ele>
        <time>2020-06-27T15:43:57Z</time>
      </trkpt>
      <trkpt lat="49.02299" lon="7.84792">
        <ele>366</ele>
        <time>2020-06-27T15:43:58Z</time>
      </trkpt>
      <trkpt lat="49.02295" lon="7.84799">
        <ele>365.9</ele>
        <time>2020-06-27T15:43:59Z</time>
      </trkpt>
      <trkpt lat="49.02293" lon="7.84808">
        <ele>365.8</ele>
        <time>2020-06-27T15:44:00Z</time>
      </trkpt>
      <trkpt lat="49.02291" lon="7.84817">
        <ele>365.7</ele>
        <time>2020-06-27T15:44:01Z</time>
      </trkpt>
      <trkpt lat="49.02289" lon="7.84825">
        <ele>365.7</ele>
        <time>2020-06-27T15:44:02Z</time>
      </trkpt>
      <trkpt lat="49.02287" lon="7.84834">
        <ele>365.7</ele>
        <time>2020-06-27T15:44:03Z</time>
      </trkpt>
      <trkpt lat="49.02286" lon="7.84843">
        <ele>365.6</ele>
        <time>2020-06-27T15:44:04Z</time>
      </trkpt>
      <trkpt lat="49.02284" lon="7.84853">
        <ele>365.6</ele>
        <time>2020-06-27T15:44:05Z</time>
      </trkpt>
      <trkpt lat="49.02282" lon="7.84861">
        <ele>365.6</ele>
        <time>2020-06-27T15:44:06Z</time>
      </trkpt>
      <trkpt lat="49.0228" lon="7.84868">
        <ele>365.7</ele>
        <time>2020-06-27T15:44:07Z</time>
      </trkpt>
      <trkpt lat="49.02279" lon="7.84877">
        <ele>365.7</ele>
        <time>2020-06-27T15:44:08Z</time>
      </trkpt>
      <trkpt lat="49.02277" lon="7.84885">
        <ele>365.7</ele>
        <time>2020-06-27T15:44:09Z</time>
      </trkpt>
      <trkpt lat="49.02275" lon="7.84895">
        <ele>365.7</ele>
        <time>2020-06-27T15:44:10Z</time>
      </trkpt>
      <trkpt lat="49.02275" lon="7.84903">
        <ele>365.7</ele>
        <time>2020-06-27T15:44:11Z</time>
      </trkpt>
      <trkpt lat="49.02273" lon="7.8491">
        <ele>365.7</ele>
        <time>2020-06-27T15:44:12Z</time>
      </trkpt>
      <trkpt lat="49.0227" lon="7.8492">
        <ele>365.6</ele>
        <time>2020-06-27T15:44:13Z</time>
      </trkpt>
      <trkpt lat="49.02268" lon="7.84926">
        <ele>365.6</ele>
        <time>2020-06-27T15:44:14Z</time>
      </trkpt>
      <trkpt lat="49.02266" lon="7.84932">
        <ele>365.6</ele>
        <time>2020-06-27T15:44:15Z</time>
      </trkpt>
      <trkpt lat="49.02264" lon="7.8494">
        <ele>365.5</ele>
        <time>2020-06-27T15:44:16Z</time>
      </trkpt>
      <trkpt lat="49.0226" lon="7.84946">
        <ele>365.5</ele>
        <time>2020-06-27T15:44:17Z</time>
      </trkpt>
      <trkpt lat="49.02256" lon="7.84952">
        <ele>365.5</ele>
        <time>2020-06-27T15:44:18Z</time>
      </trkpt>
      <trkpt lat="49.02251" lon="7.84958">
        <ele>365.6</ele>
        <time>2020-06-27T15:44:19Z</time>
      </trkpt>
      <trkpt lat="49.02246" lon="7.84965">
        <ele>365.6</ele>
        <time>2020-06-27T15:44:20Z</time>
      </trkpt>
      <trkpt lat="49.0224" lon="7.84971">
        <ele>365.7</ele>
        <time>2020-06-27T15:44:21Z</time>
      </trkpt>
      <trkpt lat="49.02234" lon="7.84977">
        <ele>365.8</ele>
        <time>2020-06-27T15:44:22Z</time>
      </trkpt>
      <trkpt lat="49.0223" lon="7.84981">
        <ele>365.8</ele>
        <time>2020-06-27T15:44:23Z</time>
      </trkpt>
      <trkpt lat="49.02226" lon="7.84983">
        <ele>365.9</ele>
        <time>2020-06-27T15:44:24Z</time>
      </trkpt>
      <trkpt lat="49.02221" lon="7.84988">
        <ele>365.9</ele>
        <time>2020-06-27T15:44:25Z</time>
      </trkpt>
      <trkpt lat="49.02217" lon="7.84992">
        <ele>366</ele>
        <time>2020-06-27T15:44:26Z</time>
      </trkpt>
      <trkpt lat="49.02212" lon="7.84997">
        <ele>366.1</ele>
        <time>2020-06-27T15:44:27Z</time>
      </trkpt>
      <trkpt lat="49.02206" lon="7.85003">
        <ele>366.1</ele>
        <time>2020-06-27T15:44:28Z</time>
      </trkpt>
      <trkpt lat="49.02201" lon="7.85007">
        <ele>366.2</ele>
        <time>2020-06-27T15:44:29Z</time>
      </trkpt>
      <trkpt lat="49.02197" lon="7.85011">
        <ele>366.3</ele>
        <time>2020-06-27T15:44:30Z</time>
      </trkpt>
      <trkpt lat="49.02193" lon="7.85015">
        <ele>366.4</ele>
        <time>2020-06-27T15:44:31Z</time>
      </trkpt>
      <trkpt lat="49.0219" lon="7.85018">
        <ele>366.5</ele>
        <time>2020-06-27T15:44:32Z</time>
      </trkpt>
      <trkpt lat="49.02186" lon="7.85024">
        <ele>366.6</ele>
        <time>2020-06-27T15:44:33Z</time>
      </trkpt>
      <trkpt lat="49.02181" lon="7.85027">
        <ele>366.7</ele>
        <time>2020-06-27T15:44:34Z</time>
      </trkpt>
      <trkpt lat="49.02177" lon="7.85032">
        <ele>366.9</ele>
        <time>2020-06-27T15:44:35Z</time>
      </trkpt>
      <trkpt lat="49.02174" lon="7.85035">
        <ele>367</ele>
        <time>2020-06-27T15:44:36Z</time>
      </trkpt>
      <trkpt lat="49.0217" lon="7.85038">
        <ele>367.1</ele>
        <time>2020-06-27T15:44:37Z</time>
      </trkpt>
      <trkpt lat="49.02166" lon="7.85044">
        <ele>367.3</ele>
        <time>2020-06-27T15:44:38Z</time>
      </trkpt>
      <trkpt lat="49.02163" lon="7.85048">
        <ele>367.4</ele>
        <time>2020-06-27T15:44:39Z</time>
      </trkpt>
      <trkpt lat="49.02159" lon="7.85052">
        <ele>367.5</ele>
        <time>2020-06-27T15:44:40Z</time>
      </trkpt>
      <trkpt lat="49.02155" lon="7.85056">
        <ele>367.6</ele>
        <time>2020-06-27T15:44:41Z</time>
      </trkpt>
      <trkpt lat="49.02152" lon="7.85057">
        <ele>367.7</ele>
        <time>2020-06-27T15:44:42Z</time>
      </trkpt>
      <trkpt lat="49.02151" lon="7.85058">
        <ele>367.8</ele>
        <time>2020-06-27T15:44:43Z</time>
      </trkpt>
      <trkpt lat="49.02148" lon="7.85062">
        <ele>367.9</ele>
        <time>2020-06-27T15:44:44Z</time>
      </trkpt>
      <trkpt lat="49.02144" lon="7.85066">
        <ele>368</ele>
        <time>2020-06-27T15:44:45Z</time>
      </trkpt>
      <trkpt lat="49.02141" lon="7.8507">
        <ele>368.1</ele>
        <time>2020-06-27T15:44:46Z</time>
      </trkpt>
      <trkpt lat="49.02138" lon="7.85074">
        <ele>368.2</ele>
        <time>2020-06-27T15:44:47Z</time>
      </trkpt>
      <trkpt lat="49.02135" lon="7.85075">
        <ele>368.2</ele>
        <time>2020-06-27T15:44:48Z</time>
      </trkpt>
      <trkpt lat="49.02132" lon="7.85077">
        <ele>368.2</ele>
        <time>2020-06-27T15:44:49Z</time>
      </trkpt>
      <trkpt lat="49.02129" lon="7.85079">
        <ele>368.2</ele>
        <time>2020-06-27T15:44:50Z</time>
      </trkpt>
      <trkpt lat="49.02127" lon="7.85081">
        <ele>368.2</ele>
        <time>2020-06-27T15:44:51Z</time>
      </trkpt>
      <trkpt lat="49.02125" lon="7.85082">
        <ele>368.2</ele>
        <time>2020-06-27T15:44:52Z</time>
      </trkpt>
      <trkpt lat="49.02122" lon="7.85087">
        <ele>368.1</ele>
        <time>2020-06-27T15:44:53Z</time>
      </trkpt>
      <trkpt lat="49.02118" lon="7.8509">
        <ele>368</ele>
        <time>2020-06-27T15:44:54Z</time>
      </trkpt>
      <trkpt lat="49.02115" lon="7.85094">
        <ele>367.9</ele>
        <time>2020-06-27T15:44:55Z</time>
      </trkpt>
      <trkpt lat="49.02113" lon="7.85096">
        <ele>367.8</ele>
        <time>2020-06-27T15:44:56Z</time>
      </trkpt>
      <trkpt lat="49.02109" lon="7.85099">
        <ele>367.6</ele>
        <time>2020-06-27T15:44:57Z</time>
      </trkpt>
      <trkpt lat="49.02106" lon="7.85102">
        <ele>367.5</ele>
        <time>2020-06-27T15:44:58Z</time>
      </trkpt>
      <trkpt lat="49.02101" lon="7.85105">
        <ele>367.3</ele>
        <time>2020-06-27T15:44:59Z</time>
      </trkpt>
      <trkpt lat="49.02096" lon="7.85106">
        <ele>367.1</ele>
        <time>2020-06-27T15:45:00Z</time>
      </trkpt>
      <trkpt lat="49.0209" lon="7.85108">
        <ele>366.8</ele>
        <time>2020-06-27T15:45:01Z</time>
      </trkpt>
      <trkpt lat="49.02084" lon="7.85111">
        <ele>366.4</ele>
        <time>2020-06-27T15:45:02Z</time>
      </trkpt>
      <trkpt lat="49.02077" lon="7.85115">
        <ele>366</ele>
        <time>2020-06-27T15:45:03Z</time>
      </trkpt>
      <trkpt lat="49.0207" lon="7.85117">
        <ele>365.7</ele>
        <time>2020-06-27T15:45:04Z</time>
      </trkpt>
      <trkpt lat="49.02066" lon="7.8512">
        <ele>365.4</ele>
        <time>2020-06-27T15:45:05Z</time>
      </trkpt>
      <trkpt lat="49.02059" lon="7.85122">
        <ele>365</ele>
        <time>2020-06-27T15:45:06Z</time>
      </trkpt>
      <trkpt lat="49.02052" lon="7.85124">
        <ele>364.6</ele>
        <time>2020-06-27T15:45:07Z</time>
      </trkpt>
      <trkpt lat="49.02046" lon="7.85124">
        <ele>364.3</ele>
        <time>2020-06-27T15:45:08Z</time>
      </trkpt>
      <trkpt lat="49.02038" lon="7.85129">
        <ele>363.8</ele>
        <time>2020-06-27T15:45:09Z</time>
      </trkpt>
      <trkpt lat="49.0203" lon="7.85131">
        <ele>363.4</ele>
        <time>2020-06-27T15:45:10Z</time>
      </trkpt>
      <trkpt lat="49.02022" lon="7.85134">
        <ele>363</ele>
        <time>2020-06-27T15:45:11Z</time>
      </trkpt>
      <trkpt lat="49.02015" lon="7.85137">
        <ele>362.6</ele>
        <time>2020-06-27T15:45:12Z</time>
      </trkpt>
      <trkpt lat="49.02008" lon="7.8514">
        <ele>362.3</ele>
        <time>2020-06-27T15:45:13Z</time>
      </trkpt>
      <trkpt lat="49.02001" lon="7.85141">
        <ele>361.9</ele>
        <time>2020-06-27T15:45:14Z</time>
      </trkpt>
      <trkpt lat="49.01994" lon="7.85143">
        <ele>361.6</ele>
        <time>2020-06-27T15:45:15Z</time>
      </trkpt>
      <trkpt lat="49.01987" lon="7.85142">
        <ele>361.2</ele>
        <time>2020-06-27T15:45:16Z</time>
      </trkpt>
      <trkpt lat="49.01981" lon="7.85141">
        <ele>360.9</ele>
        <time>2020-06-27T15:45:17Z</time>
      </trkpt>
      <trkpt lat="49.01975" lon="7.8514">
        <ele>360.6</ele>
        <time>2020-06-27T15:45:18Z</time>
      </trkpt>
      <trkpt lat="49.01969" lon="7.85139">
        <ele>360.3</ele>
        <time>2020-06-27T15:45:19Z</time>
      </trkpt>
      <trkpt lat="49.01963" lon="7.85141">
        <ele>359.9</ele>
        <time>2020-06-27T15:45:20Z</time>
      </trkpt>
      <trkpt lat="49.01957" lon="7.85141">
        <ele>359.6</ele>
        <time>2020-06-27T15:45:21Z</time>
      </trkpt>
      <trkpt lat="49.01951" lon="7.8514">
        <ele>359.3</ele>
        <time>2020-06-27T15:45:22Z</time>
      </trkpt>
      <trkpt lat="49.01945" lon="7.85139">
        <ele>359</ele>
        <time>2020-06-27T15:45:23Z</time>
      </trkpt>
      <trkpt lat="49.0194" lon="7.85136">
        <ele>358.7</ele>
        <time>2020-06-27T15:45:24Z</time>
      </trkpt>
      <trkpt lat="49.01934" lon="7.85135">
        <ele>358.4</ele>
        <time>2020-06-27T15:45:25Z</time>
      </trkpt>
      <trkpt lat="49.01927" lon="7.85135">
        <ele>358.1</ele>
        <time>2020-06-27T15:45:26Z</time>
      </trkpt>
      <trkpt lat="49.0192" lon="7.85134">
        <ele>357.9</ele>
        <time>2020-06-27T15:45:27Z</time>
      </trkpt>
      <trkpt lat="49.01914" lon="7.85132">
        <ele>357.6</ele>
        <time>2020-06-27T15:45:28Z</time>
      </trkpt>
      <trkpt lat="49.01908" lon="7.85129">
        <ele>357.3</ele>
        <time>2020-06-27T15:45:29Z</time>
      </trkpt>
      <trkpt lat="49.01901" lon="7.85128">
        <ele>357.1</ele>
        <time>2020-06-27T15:45:30Z</time>
      </trkpt>
      <trkpt lat="49.01894" lon="7.85124">
        <ele>356.9</ele>
        <time>2020-06-27T15:45:31Z</time>
      </trkpt>
      <trkpt lat="49.01887" lon="7.85121">
        <ele>356.7</ele>
        <time>2020-06-27T15:45:32Z</time>
      </trkpt>
      <trkpt lat="49.01881" lon="7.85119">
        <ele>356.6</ele>
        <time>2020-06-27T15:45:33Z</time>
      </trkpt>
      <trkpt lat="49.01875" lon="7.85117">
        <ele>356.5</ele>
        <time>2020-06-27T15:45:34Z</time>
      </trkpt>
      <trkpt lat="49.0187" lon="7.85116">
        <ele>356.4</ele>
        <time>2020-06-27T15:45:35Z</time>
      </trkpt>
      <trkpt lat="49.01865" lon="7.85116">
        <ele>356.4</ele>
        <time>2020-06-27T15:45:36Z</time>
      </trkpt>
      <trkpt lat="49.01861" lon="7.85116">
        <ele>356.4</ele>
        <time>2020-06-27T15:45:37Z</time>
      </trkpt>
      <trkpt lat="49.01857" lon="7.85117">
        <ele>356.4</ele>
        <time>2020-06-27T15:45:38Z</time>
      </trkpt>
      <trkpt lat="49.01854" lon="7.85118">
        <ele>356.4</ele>
        <time>2020-06-27T15:45:39Z</time>
      </trkpt>
      <trkpt lat="49.0185" lon="7.85118">
        <ele>356.4</ele>
        <time>2020-06-27T15:45:40Z</time>
      </trkpt>
      <trkpt lat="49.01846" lon="7.85119">
        <ele>356.4</ele>
        <time>2020-06-27T15:45:41Z</time>
      </trkpt>
      <trkpt lat="49.01844" lon="7.85121">
        <ele>356.4</ele>
        <time>2020-06-27T15:45:42Z</time>
      </trkpt>
      <trkpt lat="49.01844" lon="7.85126">
        <ele>356.4</ele>
        <time>2020-06-27T15:45:43Z</time>
      </trkpt>
      <trkpt lat="49.01844" lon="7.85131">
        <ele>356.5</ele>
        <time>2020-06-27T15:45:44Z</time>
      </trkpt>
      <trkpt lat="49.01845" lon="7.85137">
        <ele>356.5</ele>
        <time>2020-06-27T15:45:45Z</time>
      </trkpt>
      <trkpt lat="49.01846" lon="7.85143">
        <ele>356.6</ele>
        <time>2020-06-27T15:45:46Z</time>
      </trkpt>
      <trkpt lat="49.01847" lon="7.85148">
        <ele>356.6</ele>
        <time>2020-06-27T15:45:47Z</time>
      </trkpt>
      <trkpt lat="49.01848" lon="7.85153">
        <ele>356.7</ele>
        <time>2020-06-27T15:45:48Z</time>
      </trkpt>
      <trkpt lat="49.01848" lon="7.85158">
        <ele>356.7</ele>
        <time>2020-06-27T15:45:49Z</time>
      </trkpt>
      <trkpt lat="49.01849" lon="7.85163">
        <ele>356.8</ele>
        <time>2020-06-27T15:45:50Z</time>
      </trkpt>
      <trkpt lat="49.01851" lon="7.85168">
        <ele>356.8</ele>
        <time>2020-06-27T15:45:51Z</time>
      </trkpt>
      <trkpt lat="49.01852" lon="7.85173">
        <ele>356.9</ele>
        <time>2020-06-27T15:45:52Z</time>
      </trkpt>
      <trkpt lat="49.01853" lon="7.85179">
        <ele>356.9</ele>
        <time>2020-06-27T15:45:53Z</time>
      </trkpt>
      <trkpt lat="49.01855" lon="7.85184">
        <ele>357</ele>
        <time>2020-06-27T15:45:54Z</time>
      </trkpt>
      <trkpt lat="49.01856" lon="7.85189">
        <ele>357</ele>
        <time>2020-06-27T15:45:55Z</time>
      </trkpt>
      <trkpt lat="49.01858" lon="7.85194">
        <ele>357.1</ele>
        <time>2020-06-27T15:45:56Z</time>
      </trkpt>
      <trkpt lat="49.01859" lon="7.85199">
        <ele>357.1</ele>
        <time>2020-06-27T15:45:57Z</time>
      </trkpt>
      <trkpt lat="49.01862" lon="7.85206">
        <ele>357.2</ele>
        <time>2020-06-27T15:45:58Z</time>
      </trkpt>
      <trkpt lat="49.01866" lon="7.85214">
        <ele>357.3</ele>
        <time>2020-06-27T15:45:59Z</time>
      </trkpt>
      <trkpt lat="49.01868" lon="7.85222">
        <ele>357.4</ele>
        <time>2020-06-27T15:46:00Z</time>
      </trkpt>
      <trkpt lat="49.01869" lon="7.85227">
        <ele>357.5</ele>
        <time>2020-06-27T15:46:01Z</time>
      </trkpt>
      <trkpt lat="49.01871" lon="7.85232">
        <ele>357.5</ele>
        <time>2020-06-27T15:46:02Z</time>
      </trkpt>
      <trkpt lat="49.01873" lon="7.85237">
        <ele>357.5</ele>
        <time>2020-06-27T15:46:03Z</time>
      </trkpt>
      <trkpt lat="49.01875" lon="7.85242">
        <ele>357.6</ele>
        <time>2020-06-27T15:46:04Z</time>
      </trkpt>
      <trkpt lat="49.01877" lon="7.85249">
        <ele>357.6</ele>
        <time>2020-06-27T15:46:05Z</time>
      </trkpt>
      <trkpt lat="49.01878" lon="7.85255">
        <ele>357.6</ele>
        <time>2020-06-27T15:46:06Z</time>
      </trkpt>
      <trkpt lat="49.0188" lon="7.85259">
        <ele>357.6</ele>
        <time>2020-06-27T15:46:07Z</time>
      </trkpt>
      <trkpt lat="49.01881" lon="7.85264">
        <ele>357.6</ele>
        <time>2020-06-27T15:46:08Z</time>
      </trkpt>
      <trkpt lat="49.01883" lon="7.85269">
        <ele>357.5</ele>
        <time>2020-06-27T15:46:09Z</time>
      </trkpt>
      <trkpt lat="49.01885" lon="7.85275">
        <ele>357.5</ele>
        <time>2020-06-27T15:46:10Z</time>
      </trkpt>
      <trkpt lat="49.01887" lon="7.8528">
        <ele>357.5</ele>
        <time>2020-06-27T15:46:11Z</time>
      </trkpt>
      <trkpt lat="49.01889" lon="7.85289">
        <ele>357.5</ele>
        <time>2020-06-27T15:46:12Z</time>
      </trkpt>
      <trkpt lat="49.01891" lon="7.85296">
        <ele>357.4</ele>
        <time>2020-06-27T15:46:13Z</time>
      </trkpt>
      <trkpt lat="49.01894" lon="7.85304">
        <ele>357.3</ele>
        <time>2020-06-27T15:46:14Z</time>
      </trkpt>
      <trkpt lat="49.01895" lon="7.8531">
        <ele>357.3</ele>
        <time>2020-06-27T15:46:15Z</time>
      </trkpt>
      <trkpt lat="49.01897" lon="7.85317">
        <ele>357.3</ele>
        <time>2020-06-27T15:46:16Z</time>
      </trkpt>
      <trkpt lat="49.019" lon="7.85324">
        <ele>357.2</ele>
        <time>2020-06-27T15:46:17Z</time>
      </trkpt>
      <trkpt lat="49.01904" lon="7.85333">
        <ele>357.1</ele>
        <time>2020-06-27T15:46:18Z</time>
      </trkpt>
      <trkpt lat="49.01906" lon="7.85339">
        <ele>357.1</ele>
        <time>2020-06-27T15:46:19Z</time>
      </trkpt>
      <trkpt lat="49.01909" lon="7.85347">
        <ele>357</ele>
        <time>2020-06-27T15:46:20Z</time>
      </trkpt>
      <trkpt lat="49.01912" lon="7.85355">
        <ele>356.9</ele>
        <time>2020-06-27T15:46:21Z</time>
      </trkpt>
      <trkpt lat="49.01915" lon="7.85365">
        <ele>356.5</ele>
        <time>2020-06-27T15:46:22Z</time>
      </trkpt>
      <trkpt lat="49.01918" lon="7.85374">
        <ele>356.3</ele>
        <time>2020-06-27T15:46:23Z</time>
      </trkpt>
      <trkpt lat="49.0192" lon="7.85383">
        <ele>356.2</ele>
        <time>2020-06-27T15:46:24Z</time>
      </trkpt>
      <trkpt lat="49.01922" lon="7.85391">
        <ele>356</ele>
        <time>2020-06-27T15:46:25Z</time>
      </trkpt>
      <trkpt lat="49.01925" lon="7.854">
        <ele>355.9</ele>
        <time>2020-06-27T15:46:26Z</time>
      </trkpt>
      <trkpt lat="49.01928" lon="7.85409">
        <ele>355.7</ele>
        <time>2020-06-27T15:46:27Z</time>
      </trkpt>
      <trkpt lat="49.0193" lon="7.85418">
        <ele>355.6</ele>
        <time>2020-06-27T15:46:28Z</time>
      </trkpt>
      <trkpt lat="49.01933" lon="7.85429">
        <ele>355.4</ele>
        <time>2020-06-27T15:46:29Z</time>
      </trkpt>
      <trkpt lat="49.01937" lon="7.85439">
        <ele>355.2</ele>
        <time>2020-06-27T15:46:30Z</time>
      </trkpt>
      <trkpt lat="49.0194" lon="7.85449">
        <ele>355</ele>
        <time>2020-06-27T15:46:31Z</time>
      </trkpt>
      <trkpt lat="49.01943" lon="7.85458">
        <ele>354.8</ele>
        <time>2020-06-27T15:46:32Z</time>
      </trkpt>
      <trkpt lat="49.01948" lon="7.85467">
        <ele>354.5</ele>
        <time>2020-06-27T15:46:33Z</time>
      </trkpt>
      <trkpt lat="49.0195" lon="7.85476">
        <ele>354.4</ele>
        <time>2020-06-27T15:46:34Z</time>
      </trkpt>
      <trkpt lat="49.01953" lon="7.85485">
        <ele>354.2</ele>
        <time>2020-06-27T15:46:35Z</time>
      </trkpt>
      <trkpt lat="49.01956" lon="7.85493">
        <ele>354</ele>
        <time>2020-06-27T15:46:36Z</time>
      </trkpt>
      <trkpt lat="49.01959" lon="7.85502">
        <ele>353.8</ele>
        <time>2020-06-27T15:46:37Z</time>
      </trkpt>
      <trkpt lat="49.01961" lon="7.85511">
        <ele>353.7</ele>
        <time>2020-06-27T15:46:38Z</time>
      </trkpt>
      <trkpt lat="49.01963" lon="7.85519">
        <ele>353.6</ele>
        <time>2020-06-27T15:46:39Z</time>
      </trkpt>
      <trkpt lat="49.01965" lon="7.85526">
        <ele>353.5</ele>
        <time>2020-06-27T15:46:40Z</time>
      </trkpt>
      <trkpt lat="49.01968" lon="7.85538">
        <ele>353.3</ele>
        <time>2020-06-27T15:46:41Z</time>
      </trkpt>
      <trkpt lat="49.01972" lon="7.85548">
        <ele>353</ele>
        <time>2020-06-27T15:46:42Z</time>
      </trkpt>
      <trkpt lat="49.01975" lon="7.85556">
        <ele>352.8</ele>
        <time>2020-06-27T15:46:43Z</time>
      </trkpt>
      <trkpt lat="49.01978" lon="7.85565">
        <ele>352.6</ele>
        <time>2020-06-27T15:46:44Z</time>
      </trkpt>
      <trkpt lat="49.01982" lon="7.85575">
        <ele>352.3</ele>
        <time>2020-06-27T15:46:45Z</time>
      </trkpt>
      <trkpt lat="49.01985" lon="7.85583">
        <ele>352</ele>
        <time>2020-06-27T15:46:46Z</time>
      </trkpt>
      <trkpt lat="49.01989" lon="7.85592">
        <ele>351.7</ele>
        <time>2020-06-27T15:46:47Z</time>
      </trkpt>
      <trkpt lat="49.01991" lon="7.85602">
        <ele>351.5</ele>
        <time>2020-06-27T15:46:48Z</time>
      </trkpt>
      <trkpt lat="49.01993" lon="7.85613">
        <ele>351.2</ele>
        <time>2020-06-27T15:46:49Z</time>
      </trkpt>
      <trkpt lat="49.01994" lon="7.85625">
        <ele>350.9</ele>
        <time>2020-06-27T15:46:50Z</time>
      </trkpt>
      <trkpt lat="49.01995" lon="7.85636">
        <ele>350.5</ele>
        <time>2020-06-27T15:46:51Z</time>
      </trkpt>
      <trkpt lat="49.01994" lon="7.85648">
        <ele>350.1</ele>
        <time>2020-06-27T15:46:52Z</time>
      </trkpt>
      <trkpt lat="49.01991" lon="7.8566">
        <ele>349.6</ele>
        <time>2020-06-27T15:46:53Z</time>
      </trkpt>
      <trkpt lat="49.01987" lon="7.85671">
        <ele>348.7</ele>
        <time>2020-06-27T15:46:54Z</time>
      </trkpt>
      <trkpt lat="49.01981" lon="7.85682">
        <ele>348</ele>
        <time>2020-06-27T15:46:55Z</time>
      </trkpt>
      <trkpt lat="49.01975" lon="7.85692">
        <ele>347.4</ele>
        <time>2020-06-27T15:46:56Z</time>
      </trkpt>
      <trkpt lat="49.01969" lon="7.85702">
        <ele>346.8</ele>
        <time>2020-06-27T15:46:57Z</time>
      </trkpt>
      <trkpt lat="49.01962" lon="7.85712">
        <ele>346.2</ele>
        <time>2020-06-27T15:46:58Z</time>
      </trkpt>
      <trkpt lat="49.01956" lon="7.85723">
        <ele>345.6</ele>
        <time>2020-06-27T15:46:59Z</time>
      </trkpt>
      <trkpt lat="49.0195" lon="7.85734">
        <ele>345</ele>
        <time>2020-06-27T15:47:00Z</time>
      </trkpt>
      <trkpt lat="49.01943" lon="7.85745">
        <ele>344.4</ele>
        <time>2020-06-27T15:47:01Z</time>
      </trkpt>
      <trkpt lat="49.01936" lon="7.85754">
        <ele>343.7</ele>
        <time>2020-06-27T15:47:02Z</time>
      </trkpt>
      <trkpt lat="49.01929" lon="7.85764">
        <ele>343</ele>
        <time>2020-06-27T15:47:03Z</time>
      </trkpt>
      <trkpt lat="49.01921" lon="7.85772">
        <ele>342.3</ele>
        <time>2020-06-27T15:47:04Z</time>
      </trkpt>
      <trkpt lat="49.01913" lon="7.85778">
        <ele>341.7</ele>
        <time>2020-06-27T15:47:05Z</time>
      </trkpt>
      <trkpt lat="49.01904" lon="7.85785">
        <ele>341</ele>
        <time>2020-06-27T15:47:06Z</time>
      </trkpt>
      <trkpt lat="49.01896" lon="7.85793">
        <ele>340.4</ele>
        <time>2020-06-27T15:47:07Z</time>
      </trkpt>
      <trkpt lat="49.01887" lon="7.85802">
        <ele>339.7</ele>
        <time>2020-06-27T15:47:08Z</time>
      </trkpt>
      <trkpt lat="49.01881" lon="7.85813">
        <ele>339.1</ele>
        <time>2020-06-27T15:47:09Z</time>
      </trkpt>
      <trkpt lat="49.01876" lon="7.85828">
        <ele>338.6</ele>
        <time>2020-06-27T15:47:10Z</time>
      </trkpt>
      <trkpt lat="49.01874" lon="7.85843">
        <ele>338.3</ele>
        <time>2020-06-27T15:47:11Z</time>
      </trkpt>
      <trkpt lat="49.01873" lon="7.85859">
        <ele>338</ele>
        <time>2020-06-27T15:47:12Z</time>
      </trkpt>
      <trkpt lat="49.01875" lon="7.85873">
        <ele>337.9</ele>
        <time>2020-06-27T15:47:13Z</time>
      </trkpt>
      <trkpt lat="49.01877" lon="7.85886">
        <ele>337.8</ele>
        <time>2020-06-27T15:47:14Z</time>
      </trkpt>
      <trkpt lat="49.01882" lon="7.85897">
        <ele>337.7</ele>
        <time>2020-06-27T15:47:15Z</time>
      </trkpt>
      <trkpt lat="49.01887" lon="7.85906">
        <ele>337.7</ele>
        <time>2020-06-27T15:47:16Z</time>
      </trkpt>
      <trkpt lat="49.01892" lon="7.85915">
        <ele>337.8</ele>
        <time>2020-06-27T15:47:17Z</time>
      </trkpt>
      <trkpt lat="49.01898" lon="7.85924">
        <ele>337.8</ele>
        <time>2020-06-27T15:47:18Z</time>
      </trkpt>
      <trkpt lat="49.01905" lon="7.85933">
        <ele>337.8</ele>
        <time>2020-06-27T15:47:19Z</time>
      </trkpt>
      <trkpt lat="49.01911" lon="7.85942">
        <ele>337.7</ele>
        <time>2020-06-27T15:47:20Z</time>
      </trkpt>
      <trkpt lat="49.01918" lon="7.8595">
        <ele>337.7</ele>
        <time>2020-06-27T15:47:21Z</time>
      </trkpt>
      <trkpt lat="49.01925" lon="7.85957">
        <ele>337.8</ele>
        <time>2020-06-27T15:47:22Z</time>
      </trkpt>
      <trkpt lat="49.01932" lon="7.85964">
        <ele>337.9</ele>
        <time>2020-06-27T15:47:23Z</time>
      </trkpt>
      <trkpt lat="49.01939" lon="7.85973">
        <ele>338.1</ele>
        <time>2020-06-27T15:47:24Z</time>
      </trkpt>
      <trkpt lat="49.01945" lon="7.85982">
        <ele>338.3</ele>
        <time>2020-06-27T15:47:25Z</time>
      </trkpt>
      <trkpt lat="49.01953" lon="7.85989">
        <ele>338.6</ele>
        <time>2020-06-27T15:47:26Z</time>
      </trkpt>
      <trkpt lat="49.0196" lon="7.85996">
        <ele>338.9</ele>
        <time>2020-06-27T15:47:27Z</time>
      </trkpt>
      <trkpt lat="49.01966" lon="7.86003">
        <ele>339.2</ele>
        <time>2020-06-27T15:47:28Z</time>
      </trkpt>
      <trkpt lat="49.01972" lon="7.86011">
        <ele>339.5</ele>
        <time>2020-06-27T15:47:29Z</time>
      </trkpt>
      <trkpt lat="49.01977" lon="7.86019">
        <ele>339.8</ele>
        <time>2020-06-27T15:47:30Z</time>
      </trkpt>
      <trkpt lat="49.01983" lon="7.86028">
        <ele>340.1</ele>
        <time>2020-06-27T15:47:31Z</time>
      </trkpt>
      <trkpt lat="49.01989" lon="7.86035">
        <ele>340.4</ele>
        <time>2020-06-27T15:47:32Z</time>
      </trkpt>
      <trkpt lat="49.01994" lon="7.86042">
        <ele>340.7</ele>
        <time>2020-06-27T15:47:33Z</time>
      </trkpt>
      <trkpt lat="49.02" lon="7.86049">
        <ele>341.1</ele>
        <time>2020-06-27T15:47:34Z</time>
      </trkpt>
      <trkpt lat="49.02005" lon="7.86057">
        <ele>341.4</ele>
        <time>2020-06-27T15:47:35Z</time>
      </trkpt>
      <trkpt lat="49.02009" lon="7.86065">
        <ele>341.8</ele>
        <time>2020-06-27T15:47:36Z</time>
      </trkpt>
      <trkpt lat="49.02013" lon="7.86073">
        <ele>342.2</ele>
        <time>2020-06-27T15:47:37Z</time>
      </trkpt>
      <trkpt lat="49.02018" lon="7.8608">
        <ele>342.6</ele>
        <time>2020-06-27T15:47:38Z</time>
      </trkpt>
      <trkpt lat="49.02022" lon="7.86087">
        <ele>343</ele>
        <time>2020-06-27T15:47:39Z</time>
      </trkpt>
      <trkpt lat="49.02026" lon="7.86095">
        <ele>343.3</ele>
        <time>2020-06-27T15:47:40Z</time>
      </trkpt>
      <trkpt lat="49.0203" lon="7.86103">
        <ele>343.6</ele>
        <time>2020-06-27T15:47:41Z</time>
      </trkpt>
      <trkpt lat="49.02034" lon="7.8611">
        <ele>344</ele>
        <time>2020-06-27T15:47:42Z</time>
      </trkpt>
      <trkpt lat="49.02039" lon="7.86117">
        <ele>344.3</ele>
        <time>2020-06-27T15:47:43Z</time>
      </trkpt>
      <trkpt lat="49.02043" lon="7.86124">
        <ele>344.6</ele>
        <time>2020-06-27T15:47:44Z</time>
      </trkpt>
      <trkpt lat="49.02047" lon="7.86131">
        <ele>345</ele>
        <time>2020-06-27T15:47:45Z</time>
      </trkpt>
      <trkpt lat="49.02051" lon="7.86137">
        <ele>345.3</ele>
        <time>2020-06-27T15:47:46Z</time>
      </trkpt>
      <trkpt lat="49.02055" lon="7.86144">
        <ele>345.6</ele>
        <time>2020-06-27T15:47:47Z</time>
      </trkpt>
      <trkpt lat="49.0206" lon="7.8615">
        <ele>345.9</ele>
        <time>2020-06-27T15:47:48Z</time>
      </trkpt>
      <trkpt lat="49.02064" lon="7.86157">
        <ele>346.1</ele>
        <time>2020-06-27T15:47:49Z</time>
      </trkpt>
      <trkpt lat="49.02067" lon="7.86163">
        <ele>346.4</ele>
        <time>2020-06-27T15:47:50Z</time>
      </trkpt>
      <trkpt lat="49.02071" lon="7.8617">
        <ele>346.7</ele>
        <time>2020-06-27T15:47:51Z</time>
      </trkpt>
      <trkpt lat="49.02075" lon="7.86175">
        <ele>347</ele>
        <time>2020-06-27T15:47:52Z</time>
      </trkpt>
      <trkpt lat="49.02078" lon="7.86182">
        <ele>347.3</ele>
        <time>2020-06-27T15:47:53Z</time>
      </trkpt>
      <trkpt lat="49.02081" lon="7.86189">
        <ele>347.5</ele>
        <time>2020-06-27T15:47:54Z</time>
      </trkpt>
      <trkpt lat="49.02084" lon="7.86195">
        <ele>347.8</ele>
        <time>2020-06-27T15:47:55Z</time>
      </trkpt>
      <trkpt lat="49.02088" lon="7.86202">
        <ele>348</ele>
        <time>2020-06-27T15:47:56Z</time>
      </trkpt>
      <trkpt lat="49.02091" lon="7.86208">
        <ele>348.3</ele>
        <time>2020-06-27T15:47:57Z</time>
      </trkpt>
      <trkpt lat="49.02093" lon="7.86214">
        <ele>348.5</ele>
        <time>2020-06-27T15:47:58Z</time>
      </trkpt>
      <trkpt lat="49.02095" lon="7.8622">
        <ele>348.7</ele>
        <time>2020-06-27T15:47:59Z</time>
      </trkpt>
      <trkpt lat="49.02097" lon="7.86226">
        <ele>348.9</ele>
        <time>2020-06-27T15:48:00Z</time>
      </trkpt>
      <trkpt lat="49.021" lon="7.86233">
        <ele>349.2</ele>
        <time>2020-06-27T15:48:01Z</time>
      </trkpt>
      <trkpt lat="49.02103" lon="7.86242">
        <ele>349.5</ele>
        <time>2020-06-27T15:48:02Z</time>
      </trkpt>
      <trkpt lat="49.02107" lon="7.86251">
        <ele>349.9</ele>
        <time>2020-06-27T15:48:03Z</time>
      </trkpt>
      <trkpt lat="49.0211" lon="7.86259">
        <ele>350.1</ele>
        <time>2020-06-27T15:48:04Z</time>
      </trkpt>
      <trkpt lat="49.02113" lon="7.86265">
        <ele>350.4</ele>
        <time>2020-06-27T15:48:05Z</time>
      </trkpt>
      <trkpt lat="49.02116" lon="7.86271">
        <ele>350.6</ele>
        <time>2020-06-27T15:48:06Z</time>
      </trkpt>
      <trkpt lat="49.0212" lon="7.86276">
        <ele>350.9</ele>
        <time>2020-06-27T15:48:07Z</time>
      </trkpt>
      <trkpt lat="49.02123" lon="7.86282">
        <ele>351.1</ele>
        <time>2020-06-27T15:48:08Z</time>
      </trkpt>
      <trkpt lat="49.02127" lon="7.86287">
        <ele>351.3</ele>
        <time>2020-06-27T15:48:09Z</time>
      </trkpt>
      <trkpt lat="49.02129" lon="7.86295">
        <ele>351.5</ele>
        <time>2020-06-27T15:48:10Z</time>
      </trkpt>
      <trkpt lat="49.02132" lon="7.86302">
        <ele>351.7</ele>
        <time>2020-06-27T15:48:11Z</time>
      </trkpt>
      <trkpt lat="49.02135" lon="7.86309">
        <ele>352</ele>
        <time>2020-06-27T15:48:12Z</time>
      </trkpt>
      <trkpt lat="49.02137" lon="7.86316">
        <ele>352.2</ele>
        <time>2020-06-27T15:48:13Z</time>
      </trkpt>
      <trkpt lat="49.02138" lon="7.86319">
        <ele>352.3</ele>
        <time>2020-06-27T15:48:14Z</time>
      </trkpt>
      <trkpt lat="49.0214" lon="7.86327">
        <ele>352.5</ele>
        <time>2020-06-27T15:48:15Z</time>
      </trkpt>
      <trkpt lat="49.02142" lon="7.86333">
        <ele>352.6</ele>
        <time>2020-06-27T15:48:16Z</time>
      </trkpt>
      <trkpt lat="49.02144" lon="7.8634">
        <ele>352.8</ele>
        <time>2020-06-27T15:48:17Z</time>
      </trkpt>
      <trkpt lat="49.02146" lon="7.86346">
        <ele>353</ele>
        <time>2020-06-27T15:48:18Z</time>
      </trkpt>
      <trkpt lat="49.02147" lon="7.86351">
        <ele>353.1</ele>
        <time>2020-06-27T15:48:19Z</time>
      </trkpt>
      <trkpt lat="49.02149" lon="7.86356">
        <ele>353.2</ele>
        <time>2020-06-27T15:48:20Z</time>
      </trkpt>
      <trkpt lat="49.02151" lon="7.86364">
        <ele>353.4</ele>
        <time>2020-06-27T15:48:21Z</time>
      </trkpt>
      <trkpt lat="49.02153" lon="7.8637">
        <ele>353.6</ele>
        <time>2020-06-27T15:48:22Z</time>
      </trkpt>
      <trkpt lat="49.02153" lon="7.86375">
        <ele>353.7</ele>
        <time>2020-06-27T15:48:23Z</time>
      </trkpt>
      <trkpt lat="49.02155" lon="7.86383">
        <ele>353.9</ele>
        <time>2020-06-27T15:48:24Z</time>
      </trkpt>
      <trkpt lat="49.02156" lon="7.86392">
        <ele>354.1</ele>
        <time>2020-06-27T15:48:25Z</time>
      </trkpt>
      <trkpt lat="49.02156" lon="7.86399">
        <ele>354.3</ele>
        <time>2020-06-27T15:48:26Z</time>
      </trkpt>
      <trkpt lat="49.02156" lon="7.86405">
        <ele>354.4</ele>
        <time>2020-06-27T15:48:27Z</time>
      </trkpt>
      <trkpt lat="49.02156" lon="7.86414">
        <ele>354.6</ele>
        <time>2020-06-27T15:48:28Z</time>
      </trkpt>
      <trkpt lat="49.02156" lon="7.86423">
        <ele>354.8</ele>
        <time>2020-06-27T15:48:29Z</time>
      </trkpt>
      <trkpt lat="49.02156" lon="7.8643">
        <ele>354.9</ele>
        <time>2020-06-27T15:48:30Z</time>
      </trkpt>
      <trkpt lat="49.02156" lon="7.86435">
        <ele>355</ele>
        <time>2020-06-27T15:48:31Z</time>
      </trkpt>
      <trkpt lat="49.02156" lon="7.86445">
        <ele>355.2</ele>
        <time>2020-06-27T15:48:32Z</time>
      </trkpt>
      <trkpt lat="49.02156" lon="7.86451">
        <ele>355.4</ele>
        <time>2020-06-27T15:48:33Z</time>
      </trkpt>
      <trkpt lat="49.02155" lon="7.8646">
        <ele>355.6</ele>
        <time>2020-06-27T15:48:34Z</time>
      </trkpt>
      <trkpt lat="49.02153" lon="7.86466">
        <ele>355.7</ele>
        <time>2020-06-27T15:48:35Z</time>
      </trkpt>
      <trkpt lat="49.02149" lon="7.86471">
        <ele>355.8</ele>
        <time>2020-06-27T15:48:36Z</time>
      </trkpt>
      <trkpt lat="49.02146" lon="7.86478">
        <ele>356</ele>
        <time>2020-06-27T15:48:37Z</time>
      </trkpt>
      <trkpt lat="49.02144" lon="7.86486">
        <ele>356.2</ele>
        <time>2020-06-27T15:48:38Z</time>
      </trkpt>
      <trkpt lat="49.02142" lon="7.86492">
        <ele>356.4</ele>
        <time>2020-06-27T15:48:39Z</time>
      </trkpt>
      <trkpt lat="49.0214" lon="7.86495">
        <ele>356.5</ele>
        <time>2020-06-27T15:48:40Z</time>
      </trkpt>
      <trkpt lat="49.02137" lon="7.86503">
        <ele>356.7</ele>
        <time>2020-06-27T15:48:41Z</time>
      </trkpt>
      <trkpt lat="49.02134" lon="7.86507">
        <ele>356.8</ele>
        <time>2020-06-27T15:48:42Z</time>
      </trkpt>
      <trkpt lat="49.02132" lon="7.86513">
        <ele>357</ele>
        <time>2020-06-27T15:48:43Z</time>
      </trkpt>
      <trkpt lat="49.0213" lon="7.86519">
        <ele>357.1</ele>
        <time>2020-06-27T15:48:44Z</time>
      </trkpt>
      <trkpt lat="49.02127" lon="7.86522">
        <ele>357.3</ele>
        <time>2020-06-27T15:48:45Z</time>
      </trkpt>
      <trkpt lat="49.02125" lon="7.86528">
        <ele>357.5</ele>
        <time>2020-06-27T15:48:46Z</time>
      </trkpt>
      <trkpt lat="49.02122" lon="7.86533">
        <ele>357.6</ele>
        <time>2020-06-27T15:48:47Z</time>
      </trkpt>
      <trkpt lat="49.02119" lon="7.8654">
        <ele>357.8</ele>
        <time>2020-06-27T15:48:48Z</time>
      </trkpt>
      <trkpt lat="49.02117" lon="7.86544">
        <ele>357.9</ele>
        <time>2020-06-27T15:48:49Z</time>
      </trkpt>
      <trkpt lat="49.02114" lon="7.86548">
        <ele>358.1</ele>
        <time>2020-06-27T15:48:50Z</time>
      </trkpt>
      <trkpt lat="49.02112" lon="7.86553">
        <ele>358.2</ele>
        <time>2020-06-27T15:48:51Z</time>
      </trkpt>
      <trkpt lat="49.02109" lon="7.86557">
        <ele>358.4</ele>
        <time>2020-06-27T15:48:52Z</time>
      </trkpt>
      <trkpt lat="49.02106" lon="7.86567">
        <ele>358.6</ele>
        <time>2020-06-27T15:48:53Z</time>
      </trkpt>
      <trkpt lat="49.02104" lon="7.86573">
        <ele>358.8</ele>
        <time>2020-06-27T15:48:54Z</time>
      </trkpt>
      <trkpt lat="49.02102" lon="7.86579">
        <ele>358.9</ele>
        <time>2020-06-27T15:48:55Z</time>
      </trkpt>
      <trkpt lat="49.02101" lon="7.86582">
        <ele>359</ele>
        <time>2020-06-27T15:48:56Z</time>
      </trkpt>
      <trkpt lat="49.02099" lon="7.86586">
        <ele>359.2</ele>
        <time>2020-06-27T15:48:57Z</time>
      </trkpt>
      <trkpt lat="49.02097" lon="7.86591">
        <ele>359.3</ele>
        <time>2020-06-27T15:48:58Z</time>
      </trkpt>
      <trkpt lat="49.02095" lon="7.86598">
        <ele>359.5</ele>
        <time>2020-06-27T15:48:59Z</time>
      </trkpt>
      <trkpt lat="49.02093" lon="7.86602">
        <ele>359.6</ele>
        <time>2020-06-27T15:49:00Z</time>
      </trkpt>
      <trkpt lat="49.02091" lon="7.86609">
        <ele>359.8</ele>
        <time>2020-06-27T15:49:01Z</time>
      </trkpt>
      <trkpt lat="49.02089" lon="7.86613">
        <ele>360</ele>
        <time>2020-06-27T15:49:02Z</time>
      </trkpt>
      <trkpt lat="49.02087" lon="7.86618">
        <ele>360.1</ele>
        <time>2020-06-27T15:49:03Z</time>
      </trkpt>
      <trkpt lat="49.02085" lon="7.86621">
        <ele>360.3</ele>
        <time>2020-06-27T15:49:04Z</time>
      </trkpt>
      <trkpt lat="49.02084" lon="7.86624">
        <ele>360.4</ele>
        <time>2020-06-27T15:49:05Z</time>
      </trkpt>
      <trkpt lat="49.02082" lon="7.86628">
        <ele>360.6</ele>
        <time>2020-06-27T15:49:06Z</time>
      </trkpt>
      <trkpt lat="49.02079" lon="7.86635">
        <ele>360.8</ele>
        <time>2020-06-27T15:49:07Z</time>
      </trkpt>
      <trkpt lat="49.02077" lon="7.8664">
        <ele>361.1</ele>
        <time>2020-06-27T15:49:08Z</time>
      </trkpt>
      <trkpt lat="49.02075" lon="7.86645">
        <ele>361.3</ele>
        <time>2020-06-27T15:49:09Z</time>
      </trkpt>
      <trkpt lat="49.02072" lon="7.86648">
        <ele>361.5</ele>
        <time>2020-06-27T15:49:10Z</time>
      </trkpt>
      <trkpt lat="49.02068" lon="7.86657">
        <ele>361.8</ele>
        <time>2020-06-27T15:49:11Z</time>
      </trkpt>
      <trkpt lat="49.02066" lon="7.86661">
        <ele>362</ele>
        <time>2020-06-27T15:49:12Z</time>
      </trkpt>
      <trkpt lat="49.02064" lon="7.86667">
        <ele>362.3</ele>
        <time>2020-06-27T15:49:13Z</time>
      </trkpt>
      <trkpt lat="49.02061" lon="7.86673">
        <ele>362.5</ele>
        <time>2020-06-27T15:49:14Z</time>
      </trkpt>
      <trkpt lat="49.02059" lon="7.86677">
        <ele>362.8</ele>
        <time>2020-06-27T15:49:15Z</time>
      </trkpt>
      <trkpt lat="49.02057" lon="7.86679">
        <ele>362.9</ele>
        <time>2020-06-27T15:49:16Z</time>
      </trkpt>
      <trkpt lat="49.02054" lon="7.86684">
        <ele>363.1</ele>
        <time>2020-06-27T15:49:17Z</time>
      </trkpt>
      <trkpt lat="49.02051" lon="7.86689">
        <ele>363.3</ele>
        <time>2020-06-27T15:49:18Z</time>
      </trkpt>
      <trkpt lat="49.0205" lon="7.86691">
        <ele>363.4</ele>
        <time>2020-06-27T15:49:19Z</time>
      </trkpt>
      <trkpt lat="49.02048" lon="7.86697">
        <ele>363.7</ele>
        <time>2020-06-27T15:49:20Z</time>
      </trkpt>
      <trkpt lat="49.02046" lon="7.867">
        <ele>363.8</ele>
        <time>2020-06-27T15:49:21Z</time>
      </trkpt>
      <trkpt lat="49.02043" lon="7.86703">
        <ele>364</ele>
        <time>2020-06-27T15:49:22Z</time>
      </trkpt>
      <trkpt lat="49.0204" lon="7.86707">
        <ele>364.2</ele>
        <time>2020-06-27T15:49:23Z</time>
      </trkpt>
      <trkpt lat="49.02036" lon="7.86712">
        <ele>364.5</ele>
        <time>2020-06-27T15:49:24Z</time>
      </trkpt>
      <trkpt lat="49.02032" lon="7.86718">
        <ele>364.8</ele>
        <time>2020-06-27T15:49:25Z</time>
      </trkpt>
      <trkpt lat="49.0203" lon="7.86723">
        <ele>365</ele>
        <time>2020-06-27T15:49:26Z</time>
      </trkpt>
      <trkpt lat="49.02027" lon="7.86728">
        <ele>365.3</ele>
        <time>2020-06-27T15:49:27Z</time>
      </trkpt>
      <trkpt lat="49.02025" lon="7.86734">
        <ele>365.5</ele>
        <time>2020-06-27T15:49:28Z</time>
      </trkpt>
      <trkpt lat="49.02024" lon="7.86738">
        <ele>365.7</ele>
        <time>2020-06-27T15:49:29Z</time>
      </trkpt>
      <trkpt lat="49.02022" lon="7.86743">
        <ele>365.9</ele>
        <time>2020-06-27T15:49:30Z</time>
      </trkpt>
      <trkpt lat="49.0202" lon="7.86748">
        <ele>366.1</ele>
        <time>2020-06-27T15:49:31Z</time>
      </trkpt>
      <trkpt lat="49.0202" lon="7.86752">
        <ele>366.2</ele>
        <time>2020-06-27T15:49:32Z</time>
      </trkpt>
      <trkpt lat="49.02018" lon="7.86757">
        <ele>366.4</ele>
        <time>2020-06-27T15:49:33Z</time>
      </trkpt>
      <trkpt lat="49.02017" lon="7.86764">
        <ele>366.6</ele>
        <time>2020-06-27T15:49:34Z</time>
      </trkpt>
      <trkpt lat="49.02017" lon="7.86768">
        <ele>366.8</ele>
        <time>2020-06-27T15:49:35Z</time>
      </trkpt>
      <trkpt lat="49.02016" lon="7.86777">
        <ele>367.1</ele>
        <time>2020-06-27T15:49:36Z</time>
      </trkpt>
      <trkpt lat="49.02016" lon="7.86784">
        <ele>367.3</ele>
        <time>2020-06-27T15:49:37Z</time>
      </trkpt>
      <trkpt lat="49.02017" lon="7.8679">
        <ele>367.5</ele>
        <time>2020-06-27T15:49:38Z</time>
      </trkpt>
      <trkpt lat="49.02017" lon="7.86793">
        <ele>367.6</ele>
        <time>2020-06-27T15:49:39Z</time>
      </trkpt>
      <trkpt lat="49.02017" lon="7.86797">
        <ele>367.7</ele>
        <time>2020-06-27T15:49:40Z</time>
      </trkpt>
      <trkpt lat="49.02018" lon="7.86804">
        <ele>367.9</ele>
        <time>2020-06-27T15:49:41Z</time>
      </trkpt>
      <trkpt lat="49.02019" lon="7.86809">
        <ele>368.1</ele>
        <time>2020-06-27T15:49:42Z</time>
      </trkpt>
      <trkpt lat="49.0202" lon="7.86813">
        <ele>368.2</ele>
        <time>2020-06-27T15:49:43Z</time>
      </trkpt>
      <trkpt lat="49.02021" lon="7.86818">
        <ele>368.4</ele>
        <time>2020-06-27T15:49:44Z</time>
      </trkpt>
      <trkpt lat="49.02024" lon="7.86822">
        <ele>368.5</ele>
        <time>2020-06-27T15:49:45Z</time>
      </trkpt>
      <trkpt lat="49.02025" lon="7.86823">
        <ele>368.6</ele>
        <time>2020-06-27T15:49:46Z</time>
      </trkpt>
      <trkpt lat="49.02027" lon="7.86826">
        <ele>368.7</ele>
        <time>2020-06-27T15:49:47Z</time>
      </trkpt>
      <trkpt lat="49.02032" lon="7.8683">
        <ele>368.9</ele>
        <time>2020-06-27T15:49:48Z</time>
      </trkpt>
      <trkpt lat="49.02035" lon="7.86834">
        <ele>369</ele>
        <time>2020-06-27T15:49:49Z</time>
      </trkpt>
      <trkpt lat="49.02038" lon="7.86839">
        <ele>369.2</ele>
        <time>2020-06-27T15:49:50Z</time>
      </trkpt>
      <trkpt lat="49.02043" lon="7.86843">
        <ele>369.4</ele>
        <time>2020-06-27T15:49:51Z</time>
      </trkpt>
      <trkpt lat="49.02047" lon="7.86845">
        <ele>369.6</ele>
        <time>2020-06-27T15:49:52Z</time>
      </trkpt>
      <trkpt lat="49.0205" lon="7.86847">
        <ele>369.7</ele>
        <time>2020-06-27T15:49:53Z</time>
      </trkpt>
      <trkpt lat="49.02054" lon="7.8685">
        <ele>369.9</ele>
        <time>2020-06-27T15:49:54Z</time>
      </trkpt>
      <trkpt lat="49.02059" lon="7.86855">
        <ele>370.1</ele>
        <time>2020-06-27T15:49:55Z</time>
      </trkpt>
      <trkpt lat="49.02063" lon="7.86858">
        <ele>370.2</ele>
        <time>2020-06-27T15:49:56Z</time>
      </trkpt>
      <trkpt lat="49.02067" lon="7.8686">
        <ele>370.3</ele>
        <time>2020-06-27T15:49:57Z</time>
      </trkpt>
      <trkpt lat="49.0207" lon="7.86862">
        <ele>370.4</ele>
        <time>2020-06-27T15:49:58Z</time>
      </trkpt>
      <trkpt lat="49.02073" lon="7.86862">
        <ele>370.5</ele>
        <time>2020-06-27T15:49:59Z</time>
      </trkpt>
      <trkpt lat="49.02077" lon="7.86862">
        <ele>370.7</ele>
        <time>2020-06-27T15:50:00Z</time>
      </trkpt>
      <trkpt lat="49.02081" lon="7.86864">
        <ele>370.8</ele>
        <time>2020-06-27T15:50:01Z</time>
      </trkpt>
      <trkpt lat="49.02085" lon="7.86866">
        <ele>370.9</ele>
        <time>2020-06-27T15:50:02Z</time>
      </trkpt>
      <trkpt lat="49.0209" lon="7.86869">
        <ele>371.1</ele>
        <time>2020-06-27T15:50:03Z</time>
      </trkpt>
      <trkpt lat="49.02094" lon="7.86873">
        <ele>371.3</ele>
        <time>2020-06-27T15:50:04Z</time>
      </trkpt>
      <trkpt lat="49.02099" lon="7.86875">
        <ele>371.4</ele>
        <time>2020-06-27T15:50:05Z</time>
      </trkpt>
      <trkpt lat="49.02103" lon="7.86876">
        <ele>371.6</ele>
        <time>2020-06-27T15:50:06Z</time>
      </trkpt>
      <trkpt lat="49.02107" lon="7.86879">
        <ele>371.8</ele>
        <time>2020-06-27T15:50:07Z</time>
      </trkpt>
      <trkpt lat="49.0211" lon="7.8688">
        <ele>371.9</ele>
        <time>2020-06-27T15:50:08Z</time>
      </trkpt>
      <trkpt lat="49.02114" lon="7.86881">
        <ele>372</ele>
        <time>2020-06-27T15:50:09Z</time>
      </trkpt>
      <trkpt lat="49.02118" lon="7.86885">
        <ele>372.2</ele>
        <time>2020-06-27T15:50:10Z</time>
      </trkpt>
      <trkpt lat="49.02122" lon="7.86889">
        <ele>372.4</ele>
        <time>2020-06-27T15:50:11Z</time>
      </trkpt>
      <trkpt lat="49.02126" lon="7.86894">
        <ele>372.6</ele>
        <time>2020-06-27T15:50:12Z</time>
      </trkpt>
      <trkpt lat="49.0213" lon="7.86897">
        <ele>372.7</ele>
        <time>2020-06-27T15:50:13Z</time>
      </trkpt>
      <trkpt lat="49.02134" lon="7.86899">
        <ele>372.9</ele>
        <time>2020-06-27T15:50:14Z</time>
      </trkpt>
      <trkpt lat="49.02137" lon="7.86901">
        <ele>373</ele>
        <time>2020-06-27T15:50:15Z</time>
      </trkpt>
      <trkpt lat="49.02139" lon="7.86904">
        <ele>373.1</ele>
        <time>2020-06-27T15:50:16Z</time>
      </trkpt>
      <trkpt lat="49.02143" lon="7.86906">
        <ele>373.3</ele>
        <time>2020-06-27T15:50:17Z</time>
      </trkpt>
      <trkpt lat="49.02147" lon="7.8691">
        <ele>373.4</ele>
        <time>2020-06-27T15:50:18Z</time>
      </trkpt>
      <trkpt lat="49.0215" lon="7.86913">
        <ele>373.6</ele>
        <time>2020-06-27T15:50:19Z</time>
      </trkpt>
      <trkpt lat="49.02154" lon="7.86917">
        <ele>373.8</ele>
        <time>2020-06-27T15:50:20Z</time>
      </trkpt>
      <trkpt lat="49.02156" lon="7.86918">
        <ele>373.8</ele>
        <time>2020-06-27T15:50:21Z</time>
      </trkpt>
      <trkpt lat="49.0216" lon="7.86921">
        <ele>374</ele>
        <time>2020-06-27T15:50:22Z</time>
      </trkpt>
      <trkpt lat="49.02164" lon="7.86925">
        <ele>374.2</ele>
        <time>2020-06-27T15:50:23Z</time>
      </trkpt>
      <trkpt lat="49.02167" lon="7.86927">
        <ele>374.4</ele>
        <time>2020-06-27T15:50:24Z</time>
      </trkpt>
      <trkpt lat="49.0217" lon="7.8693">
        <ele>374.5</ele>
        <time>2020-06-27T15:50:25Z</time>
      </trkpt>
      <trkpt lat="49.02173" lon="7.86934">
        <ele>374.7</ele>
        <time>2020-06-27T15:50:26Z</time>
      </trkpt>
      <trkpt lat="49.02176" lon="7.86936">
        <ele>374.8</ele>
        <time>2020-06-27T15:50:27Z</time>
      </trkpt>
      <trkpt lat="49.0218" lon="7.86943">
        <ele>375</ele>
        <time>2020-06-27T15:50:28Z</time>
      </trkpt>
      <trkpt lat="49.02183" lon="7.86946">
        <ele>375.2</ele>
        <time>2020-06-27T15:50:29Z</time>
      </trkpt>
      <trkpt lat="49.02188" lon="7.8695">
        <ele>375.4</ele>
        <time>2020-06-27T15:50:30Z</time>
      </trkpt>
      <trkpt lat="49.02191" lon="7.86956">
        <ele>375.6</ele>
        <time>2020-06-27T15:50:31Z</time>
      </trkpt>
      <trkpt lat="49.02195" lon="7.86962">
        <ele>375.8</ele>
        <time>2020-06-27T15:50:32Z</time>
      </trkpt>
      <trkpt lat="49.02198" lon="7.86967">
        <ele>376</ele>
        <time>2020-06-27T15:50:33Z</time>
      </trkpt>
      <trkpt lat="49.022" lon="7.86972">
        <ele>376.1</ele>
        <time>2020-06-27T15:50:34Z</time>
      </trkpt>
      <trkpt lat="49.02203" lon="7.86977">
        <ele>376.4</ele>
        <time>2020-06-27T15:50:35Z</time>
      </trkpt>
      <trkpt lat="49.02205" lon="7.86984">
        <ele>376.6</ele>
        <time>2020-06-27T15:50:36Z</time>
      </trkpt>
      <trkpt lat="49.02208" lon="7.8699">
        <ele>376.8</ele>
        <time>2020-06-27T15:50:37Z</time>
      </trkpt>
      <trkpt lat="49.02212" lon="7.86997">
        <ele>377.1</ele>
        <time>2020-06-27T15:50:38Z</time>
      </trkpt>
      <trkpt lat="49.02214" lon="7.87005">
        <ele>377.3</ele>
        <time>2020-06-27T15:50:39Z</time>
      </trkpt>
      <trkpt lat="49.02217" lon="7.87011">
        <ele>377.5</ele>
        <time>2020-06-27T15:50:40Z</time>
      </trkpt>
      <trkpt lat="49.02218" lon="7.87017">
        <ele>377.7</ele>
        <time>2020-06-27T15:50:41Z</time>
      </trkpt>
      <trkpt lat="49.0222" lon="7.87023">
        <ele>377.9</ele>
        <time>2020-06-27T15:50:42Z</time>
      </trkpt>
      <trkpt lat="49.02222" lon="7.87029">
        <ele>378.1</ele>
        <time>2020-06-27T15:50:43Z</time>
      </trkpt>
      <trkpt lat="49.02224" lon="7.87034">
        <ele>378.3</ele>
        <time>2020-06-27T15:50:44Z</time>
      </trkpt>
      <trkpt lat="49.02226" lon="7.87038">
        <ele>378.4</ele>
        <time>2020-06-27T15:50:45Z</time>
      </trkpt>
      <trkpt lat="49.02228" lon="7.87044">
        <ele>378.7</ele>
        <time>2020-06-27T15:50:46Z</time>
      </trkpt>
      <trkpt lat="49.02231" lon="7.8705">
        <ele>378.8</ele>
        <time>2020-06-27T15:50:47Z</time>
      </trkpt>
      <trkpt lat="49.02233" lon="7.87056">
        <ele>379.1</ele>
        <time>2020-06-27T15:50:48Z</time>
      </trkpt>
      <trkpt lat="49.02235" lon="7.87063">
        <ele>379.3</ele>
        <time>2020-06-27T15:50:49Z</time>
      </trkpt>
      <trkpt lat="49.02237" lon="7.87069">
        <ele>379.5</ele>
        <time>2020-06-27T15:50:50Z</time>
      </trkpt>
      <trkpt lat="49.02239" lon="7.87075">
        <ele>379.6</ele>
        <time>2020-06-27T15:50:51Z</time>
      </trkpt>
      <trkpt lat="49.0224" lon="7.87082">
        <ele>379.7</ele>
        <time>2020-06-27T15:50:52Z</time>
      </trkpt>
      <trkpt lat="49.02241" lon="7.87087">
        <ele>379.9</ele>
        <time>2020-06-27T15:50:53Z</time>
      </trkpt>
      <trkpt lat="49.02243" lon="7.87096">
        <ele>380.1</ele>
        <time>2020-06-27T15:50:54Z</time>
      </trkpt>
      <trkpt lat="49.02244" lon="7.87102">
        <ele>380.2</ele>
        <time>2020-06-27T15:50:55Z</time>
      </trkpt>
      <trkpt lat="49.02244" lon="7.87108">
        <ele>380.4</ele>
        <time>2020-06-27T15:50:56Z</time>
      </trkpt>
      <trkpt lat="49.02244" lon="7.87115">
        <ele>380.6</ele>
        <time>2020-06-27T15:50:57Z</time>
      </trkpt>
      <trkpt lat="49.02243" lon="7.87122">
        <ele>380.8</ele>
        <time>2020-06-27T15:50:58Z</time>
      </trkpt>
      <trkpt lat="49.02243" lon="7.87131">
        <ele>381.1</ele>
        <time>2020-06-27T15:50:59Z</time>
      </trkpt>
      <trkpt lat="49.02242" lon="7.87137">
        <ele>381.3</ele>
        <time>2020-06-27T15:51:00Z</time>
      </trkpt>
      <trkpt lat="49.02241" lon="7.87144">
        <ele>381.5</ele>
        <time>2020-06-27T15:51:01Z</time>
      </trkpt>
      <trkpt lat="49.02241" lon="7.8715">
        <ele>381.7</ele>
        <time>2020-06-27T15:51:02Z</time>
      </trkpt>
      <trkpt lat="49.0224" lon="7.87155">
        <ele>381.8</ele>
        <time>2020-06-27T15:51:03Z</time>
      </trkpt>
      <trkpt lat="49.02239" lon="7.8716">
        <ele>382</ele>
        <time>2020-06-27T15:51:04Z</time>
      </trkpt>
      <trkpt lat="49.02238" lon="7.87165">
        <ele>382.2</ele>
        <time>2020-06-27T15:51:05Z</time>
      </trkpt>
      <trkpt lat="49.02236" lon="7.8717">
        <ele>382.3</ele>
        <time>2020-06-27T15:51:06Z</time>
      </trkpt>
      <trkpt lat="49.02234" lon="7.87176">
        <ele>382.5</ele>
        <time>2020-06-27T15:51:07Z</time>
      </trkpt>
      <trkpt lat="49.02232" lon="7.87181">
        <ele>382.7</ele>
        <time>2020-06-27T15:51:08Z</time>
      </trkpt>
      <trkpt lat="49.0223" lon="7.87187">
        <ele>382.9</ele>
        <time>2020-06-27T15:51:09Z</time>
      </trkpt>
      <trkpt lat="49.02228" lon="7.87193">
        <ele>383.1</ele>
        <time>2020-06-27T15:51:10Z</time>
      </trkpt>
      <trkpt lat="49.02227" lon="7.87198">
        <ele>383.3</ele>
        <time>2020-06-27T15:51:11Z</time>
      </trkpt>
      <trkpt lat="49.02226" lon="7.87204">
        <ele>383.5</ele>
        <time>2020-06-27T15:51:12Z</time>
      </trkpt>
      <trkpt lat="49.02224" lon="7.8721">
        <ele>383.7</ele>
        <time>2020-06-27T15:51:13Z</time>
      </trkpt>
      <trkpt lat="49.02222" lon="7.87215">
        <ele>383.8</ele>
        <time>2020-06-27T15:51:14Z</time>
      </trkpt>
      <trkpt lat="49.0222" lon="7.87219">
        <ele>384</ele>
        <time>2020-06-27T15:51:15Z</time>
      </trkpt>
      <trkpt lat="49.02217" lon="7.87225">
        <ele>384.2</ele>
        <time>2020-06-27T15:51:16Z</time>
      </trkpt>
      <trkpt lat="49.02214" lon="7.8723">
        <ele>384.4</ele>
        <time>2020-06-27T15:51:17Z</time>
      </trkpt>
      <trkpt lat="49.02211" lon="7.87236">
        <ele>384.6</ele>
        <time>2020-06-27T15:51:18Z</time>
      </trkpt>
      <trkpt lat="49.02209" lon="7.87242">
        <ele>384.9</ele>
        <time>2020-06-27T15:51:19Z</time>
      </trkpt>
      <trkpt lat="49.02205" lon="7.87247">
        <ele>385.1</ele>
        <time>2020-06-27T15:51:20Z</time>
      </trkpt>
      <trkpt lat="49.02201" lon="7.8725">
        <ele>385.3</ele>
        <time>2020-06-27T15:51:21Z</time>
      </trkpt>
      <trkpt lat="49.02198" lon="7.87254">
        <ele>385.5</ele>
        <time>2020-06-27T15:51:22Z</time>
      </trkpt>
      <trkpt lat="49.02196" lon="7.87261">
        <ele>385.8</ele>
        <time>2020-06-27T15:51:23Z</time>
      </trkpt>
      <trkpt lat="49.02193" lon="7.87265">
        <ele>386</ele>
        <time>2020-06-27T15:51:24Z</time>
      </trkpt>
      <trkpt lat="49.02191" lon="7.87269">
        <ele>386.2</ele>
        <time>2020-06-27T15:51:25Z</time>
      </trkpt>
      <trkpt lat="49.02188" lon="7.87274">
        <ele>386.4</ele>
        <time>2020-06-27T15:51:26Z</time>
      </trkpt>
      <trkpt lat="49.02184" lon="7.87277">
        <ele>386.6</ele>
        <time>2020-06-27T15:51:27Z</time>
      </trkpt>
      <trkpt lat="49.02181" lon="7.87281">
        <ele>386.9</ele>
        <time>2020-06-27T15:51:28Z</time>
      </trkpt>
      <trkpt lat="49.02178" lon="7.87285">
        <ele>387.1</ele>
        <time>2020-06-27T15:51:29Z</time>
      </trkpt>
      <trkpt lat="49.02176" lon="7.8729">
        <ele>387.3</ele>
        <time>2020-06-27T15:51:30Z</time>
      </trkpt>
      <trkpt lat="49.02173" lon="7.87294">
        <ele>387.5</ele>
        <time>2020-06-27T15:51:31Z</time>
      </trkpt>
      <trkpt lat="49.0217" lon="7.87297">
        <ele>387.7</ele>
        <time>2020-06-27T15:51:32Z</time>
      </trkpt>
      <trkpt lat="49.02167" lon="7.873">
        <ele>387.9</ele>
        <time>2020-06-27T15:51:33Z</time>
      </trkpt>
      <trkpt lat="49.02164" lon="7.87304">
        <ele>388.1</ele>
        <time>2020-06-27T15:51:34Z</time>
      </trkpt>
      <trkpt lat="49.02162" lon="7.87308">
        <ele>388.3</ele>
        <time>2020-06-27T15:51:35Z</time>
      </trkpt>
      <trkpt lat="49.02159" lon="7.87313">
        <ele>388.5</ele>
        <time>2020-06-27T15:51:36Z</time>
      </trkpt>
      <trkpt lat="49.02158" lon="7.8732">
        <ele>388.7</ele>
        <time>2020-06-27T15:51:37Z</time>
      </trkpt>
      <trkpt lat="49.02155" lon="7.87325">
        <ele>389</ele>
        <time>2020-06-27T15:51:38Z</time>
      </trkpt>
      <trkpt lat="49.02153" lon="7.87331">
        <ele>389.2</ele>
        <time>2020-06-27T15:51:39Z</time>
      </trkpt>
      <trkpt lat="49.02152" lon="7.87334">
        <ele>389.3</ele>
        <time>2020-06-27T15:51:40Z</time>
      </trkpt>
      <trkpt lat="49.0215" lon="7.87337">
        <ele>389.5</ele>
        <time>2020-06-27T15:51:41Z</time>
      </trkpt>
      <trkpt lat="49.02148" lon="7.87342">
        <ele>389.6</ele>
        <time>2020-06-27T15:51:42Z</time>
      </trkpt>
      <trkpt lat="49.02146" lon="7.87348">
        <ele>389.9</ele>
        <time>2020-06-27T15:51:43Z</time>
      </trkpt>
      <trkpt lat="49.02144" lon="7.87354">
        <ele>390.1</ele>
        <time>2020-06-27T15:51:44Z</time>
      </trkpt>
      <trkpt lat="49.02143" lon="7.87361">
        <ele>390.3</ele>
        <time>2020-06-27T15:51:45Z</time>
      </trkpt>
      <trkpt lat="49.02142" lon="7.87364">
        <ele>390.4</ele>
        <time>2020-06-27T15:51:46Z</time>
      </trkpt>
      <trkpt lat="49.0214" lon="7.87369">
        <ele>390.6</ele>
        <time>2020-06-27T15:51:47Z</time>
      </trkpt>
      <trkpt lat="49.02139" lon="7.87374">
        <ele>390.7</ele>
        <time>2020-06-27T15:51:48Z</time>
      </trkpt>
      <trkpt lat="49.02139" lon="7.87379">
        <ele>390.9</ele>
        <time>2020-06-27T15:51:49Z</time>
      </trkpt>
      <trkpt lat="49.02138" lon="7.87385">
        <ele>391</ele>
        <time>2020-06-27T15:51:50Z</time>
      </trkpt>
      <trkpt lat="49.02138" lon="7.87389">
        <ele>391.1</ele>
        <time>2020-06-27T15:51:51Z</time>
      </trkpt>
      <trkpt lat="49.02138" lon="7.87395">
        <ele>391.3</ele>
        <time>2020-06-27T15:51:52Z</time>
      </trkpt>
      <trkpt lat="49.02138" lon="7.874">
        <ele>391.5</ele>
        <time>2020-06-27T15:51:53Z</time>
      </trkpt>
      <trkpt lat="49.02139" lon="7.87406">
        <ele>391.6</ele>
        <time>2020-06-27T15:51:54Z</time>
      </trkpt>
      <trkpt lat="49.0214" lon="7.87411">
        <ele>391.8</ele>
        <time>2020-06-27T15:51:55Z</time>
      </trkpt>
      <trkpt lat="49.02142" lon="7.87415">
        <ele>391.9</ele>
        <time>2020-06-27T15:51:56Z</time>
      </trkpt>
      <trkpt lat="49.02144" lon="7.87418">
        <ele>392</ele>
        <time>2020-06-27T15:51:57Z</time>
      </trkpt>
      <trkpt lat="49.02147" lon="7.87423">
        <ele>392.2</ele>
        <time>2020-06-27T15:51:58Z</time>
      </trkpt>
      <trkpt lat="49.02149" lon="7.87429">
        <ele>392.3</ele>
        <time>2020-06-27T15:51:59Z</time>
      </trkpt>
      <trkpt lat="49.02151" lon="7.87434">
        <ele>392.5</ele>
        <time>2020-06-27T15:52:00Z</time>
      </trkpt>
      <trkpt lat="49.02153" lon="7.87439">
        <ele>392.6</ele>
        <time>2020-06-27T15:52:01Z</time>
      </trkpt>
      <trkpt lat="49.02156" lon="7.87443">
        <ele>392.8</ele>
        <time>2020-06-27T15:52:02Z</time>
      </trkpt>
      <trkpt lat="49.02158" lon="7.87447">
        <ele>392.9</ele>
        <time>2020-06-27T15:52:03Z</time>
      </trkpt>
      <trkpt lat="49.02162" lon="7.87452">
        <ele>393.1</ele>
        <time>2020-06-27T15:52:04Z</time>
      </trkpt>
      <trkpt lat="49.02164" lon="7.87457">
        <ele>393.2</ele>
        <time>2020-06-27T15:52:05Z</time>
      </trkpt>
      <trkpt lat="49.02167" lon="7.87463">
        <ele>393.4</ele>
        <time>2020-06-27T15:52:06Z</time>
      </trkpt>
      <trkpt lat="49.0217" lon="7.87468">
        <ele>393.6</ele>
        <time>2020-06-27T15:52:07Z</time>
      </trkpt>
      <trkpt lat="49.02172" lon="7.87475">
        <ele>393.8</ele>
        <time>2020-06-27T15:52:08Z</time>
      </trkpt>
      <trkpt lat="49.02174" lon="7.87481">
        <ele>394</ele>
        <time>2020-06-27T15:52:09Z</time>
      </trkpt>
      <trkpt lat="49.02177" lon="7.87489">
        <ele>394.2</ele>
        <time>2020-06-27T15:52:10Z</time>
      </trkpt>
      <trkpt lat="49.02178" lon="7.87494">
        <ele>394.3</ele>
        <time>2020-06-27T15:52:11Z</time>
      </trkpt>
      <trkpt lat="49.0218" lon="7.875">
        <ele>394.5</ele>
        <time>2020-06-27T15:52:12Z</time>
      </trkpt>
      <trkpt lat="49.02183" lon="7.87506">
        <ele>394.8</ele>
        <time>2020-06-27T15:52:13Z</time>
      </trkpt>
      <trkpt lat="49.02186" lon="7.87512">
        <ele>395</ele>
        <time>2020-06-27T15:52:14Z</time>
      </trkpt>
      <trkpt lat="49.02187" lon="7.87518">
        <ele>395.1</ele>
        <time>2020-06-27T15:52:15Z</time>
      </trkpt>
      <trkpt lat="49.02188" lon="7.87524">
        <ele>395.3</ele>
        <time>2020-06-27T15:52:16Z</time>
      </trkpt>
      <trkpt lat="49.02188" lon="7.87532">
        <ele>395.6</ele>
        <time>2020-06-27T15:52:17Z</time>
      </trkpt>
      <trkpt lat="49.02188" lon="7.87538">
        <ele>395.8</ele>
        <time>2020-06-27T15:52:18Z</time>
      </trkpt>
      <trkpt lat="49.02189" lon="7.87545">
        <ele>396</ele>
        <time>2020-06-27T15:52:19Z</time>
      </trkpt>
      <trkpt lat="49.02189" lon="7.87551">
        <ele>396.2</ele>
        <time>2020-06-27T15:52:20Z</time>
      </trkpt>
      <trkpt lat="49.02189" lon="7.87556">
        <ele>396.3</ele>
        <time>2020-06-27T15:52:21Z</time>
      </trkpt>
      <trkpt lat="49.02188" lon="7.87561">
        <ele>396.5</ele>
        <time>2020-06-27T15:52:22Z</time>
      </trkpt>
      <trkpt lat="49.02188" lon="7.87566">
        <ele>396.7</ele>
        <time>2020-06-27T15:52:23Z</time>
      </trkpt>
      <trkpt lat="49.02188" lon="7.87572">
        <ele>396.9</ele>
        <time>2020-06-27T15:52:24Z</time>
      </trkpt>
      <trkpt lat="49.02188" lon="7.87579">
        <ele>397.1</ele>
        <time>2020-06-27T15:52:25Z</time>
      </trkpt>
      <trkpt lat="49.02187" lon="7.87584">
        <ele>397.2</ele>
        <time>2020-06-27T15:52:26Z</time>
      </trkpt>
      <trkpt lat="49.02187" lon="7.87589">
        <ele>397.4</ele>
        <time>2020-06-27T15:52:27Z</time>
      </trkpt>
      <trkpt lat="49.02187" lon="7.87595">
        <ele>397.6</ele>
        <time>2020-06-27T15:52:28Z</time>
      </trkpt>
      <trkpt lat="49.02187" lon="7.87601">
        <ele>397.8</ele>
        <time>2020-06-27T15:52:29Z</time>
      </trkpt>
      <trkpt lat="49.02186" lon="7.87608">
        <ele>398</ele>
        <time>2020-06-27T15:52:30Z</time>
      </trkpt>
      <trkpt lat="49.02186" lon="7.87613">
        <ele>398.2</ele>
        <time>2020-06-27T15:52:31Z</time>
      </trkpt>
      <trkpt lat="49.02186" lon="7.87619">
        <ele>398.4</ele>
        <time>2020-06-27T15:52:32Z</time>
      </trkpt>
      <trkpt lat="49.02186" lon="7.87625">
        <ele>398.6</ele>
        <time>2020-06-27T15:52:33Z</time>
      </trkpt>
      <trkpt lat="49.02187" lon="7.8763">
        <ele>398.8</ele>
        <time>2020-06-27T15:52:34Z</time>
      </trkpt>
      <trkpt lat="49.02187" lon="7.87636">
        <ele>399</ele>
        <time>2020-06-27T15:52:35Z</time>
      </trkpt>
      <trkpt lat="49.02187" lon="7.87642">
        <ele>399.2</ele>
        <time>2020-06-27T15:52:36Z</time>
      </trkpt>
      <trkpt lat="49.02187" lon="7.87647">
        <ele>399.4</ele>
        <time>2020-06-27T15:52:37Z</time>
      </trkpt>
      <trkpt lat="49.02188" lon="7.87653">
        <ele>399.5</ele>
        <time>2020-06-27T15:52:38Z</time>
      </trkpt>
      <trkpt lat="49.02188" lon="7.87659">
        <ele>399.7</ele>
        <time>2020-06-27T15:52:39Z</time>
      </trkpt>
      <trkpt lat="49.02189" lon="7.87664">
        <ele>399.8</ele>
        <time>2020-06-27T15:52:40Z</time>
      </trkpt>
      <trkpt lat="49.0219" lon="7.87669">
        <ele>400</ele>
        <time>2020-06-27T15:52:41Z</time>
      </trkpt>
      <trkpt lat="49.02193" lon="7.87672">
        <ele>400.1</ele>
        <time>2020-06-27T15:52:42Z</time>
      </trkpt>
      <trkpt lat="49.02195" lon="7.87676">
        <ele>400.3</ele>
        <time>2020-06-27T15:52:43Z</time>
      </trkpt>
      <trkpt lat="49.02198" lon="7.8768">
        <ele>400.5</ele>
        <time>2020-06-27T15:52:44Z</time>
      </trkpt>
      <trkpt lat="49.02201" lon="7.87684">
        <ele>400.7</ele>
        <time>2020-06-27T15:52:45Z</time>
      </trkpt>
      <trkpt lat="49.02205" lon="7.87688">
        <ele>400.9</ele>
        <time>2020-06-27T15:52:46Z</time>
      </trkpt>
      <trkpt lat="49.02208" lon="7.87692">
        <ele>401.1</ele>
        <time>2020-06-27T15:52:47Z</time>
      </trkpt>
      <trkpt lat="49.02212" lon="7.87696">
        <ele>401.3</ele>
        <time>2020-06-27T15:52:48Z</time>
      </trkpt>
      <trkpt lat="49.02216" lon="7.87699">
        <ele>401.5</ele>
        <time>2020-06-27T15:52:49Z</time>
      </trkpt>
      <trkpt lat="49.0222" lon="7.87703">
        <ele>401.7</ele>
        <time>2020-06-27T15:52:50Z</time>
      </trkpt>
      <trkpt lat="49.02224" lon="7.87705">
        <ele>401.9</ele>
        <time>2020-06-27T15:52:51Z</time>
      </trkpt>
      <trkpt lat="49.02227" lon="7.87708">
        <ele>402</ele>
        <time>2020-06-27T15:52:52Z</time>
      </trkpt>
      <trkpt lat="49.02232" lon="7.87709">
        <ele>402.3</ele>
        <time>2020-06-27T15:52:53Z</time>
      </trkpt>
      <trkpt lat="49.02235" lon="7.8771">
        <ele>402.4</ele>
        <time>2020-06-27T15:52:54Z</time>
      </trkpt>
      <trkpt lat="49.02239" lon="7.87712">
        <ele>402.6</ele>
        <time>2020-06-27T15:52:55Z</time>
      </trkpt>
      <trkpt lat="49.02244" lon="7.87715">
        <ele>402.8</ele>
        <time>2020-06-27T15:52:56Z</time>
      </trkpt>
      <trkpt lat="49.02248" lon="7.87718">
        <ele>403</ele>
        <time>2020-06-27T15:52:57Z</time>
      </trkpt>
      <trkpt lat="49.02252" lon="7.87721">
        <ele>403.2</ele>
        <time>2020-06-27T15:52:58Z</time>
      </trkpt>
      <trkpt lat="49.02256" lon="7.87723">
        <ele>403.4</ele>
        <time>2020-06-27T15:52:59Z</time>
      </trkpt>
      <trkpt lat="49.0226" lon="7.87727">
        <ele>403.5</ele>
        <time>2020-06-27T15:53:00Z</time>
      </trkpt>
      <trkpt lat="49.02264" lon="7.87729">
        <ele>403.7</ele>
        <time>2020-06-27T15:53:01Z</time>
      </trkpt>
      <trkpt lat="49.02268" lon="7.87732">
        <ele>403.9</ele>
        <time>2020-06-27T15:53:02Z</time>
      </trkpt>
      <trkpt lat="49.02272" lon="7.87736">
        <ele>404</ele>
        <time>2020-06-27T15:53:03Z</time>
      </trkpt>
      <trkpt lat="49.02275" lon="7.8774">
        <ele>404.2</ele>
        <time>2020-06-27T15:53:04Z</time>
      </trkpt>
      <trkpt lat="49.02278" lon="7.87743">
        <ele>404.3</ele>
        <time>2020-06-27T15:53:05Z</time>
      </trkpt>
      <trkpt lat="49.02282" lon="7.87747">
        <ele>404.5</ele>
        <time>2020-06-27T15:53:06Z</time>
      </trkpt>
      <trkpt lat="49.02285" lon="7.87752">
        <ele>404.7</ele>
        <time>2020-06-27T15:53:07Z</time>
      </trkpt>
      <trkpt lat="49.02288" lon="7.87757">
        <ele>404.9</ele>
        <time>2020-06-27T15:53:08Z</time>
      </trkpt>
      <trkpt lat="49.02292" lon="7.87765">
        <ele>405.2</ele>
        <time>2020-06-27T15:53:09Z</time>
      </trkpt>
      <trkpt lat="49.02296" lon="7.87772">
        <ele>405.4</ele>
        <time>2020-06-27T15:53:10Z</time>
      </trkpt>
      <trkpt lat="49.02299" lon="7.87778">
        <ele>405.6</ele>
        <time>2020-06-27T15:53:11Z</time>
      </trkpt>
      <trkpt lat="49.02303" lon="7.87785">
        <ele>405.9</ele>
        <time>2020-06-27T15:53:12Z</time>
      </trkpt>
      <trkpt lat="49.02306" lon="7.87792">
        <ele>406.1</ele>
        <time>2020-06-27T15:53:13Z</time>
      </trkpt>
      <trkpt lat="49.02309" lon="7.87798">
        <ele>406.3</ele>
        <time>2020-06-27T15:53:14Z</time>
      </trkpt>
      <trkpt lat="49.02312" lon="7.87805">
        <ele>406.6</ele>
        <time>2020-06-27T15:53:15Z</time>
      </trkpt>
      <trkpt lat="49.02314" lon="7.87811">
        <ele>406.8</ele>
        <time>2020-06-27T15:53:16Z</time>
      </trkpt>
      <trkpt lat="49.02316" lon="7.87818">
        <ele>407.1</ele>
        <time>2020-06-27T15:53:17Z</time>
      </trkpt>
      <trkpt lat="49.02319" lon="7.87823">
        <ele>407.3</ele>
        <time>2020-06-27T15:53:18Z</time>
      </trkpt>
      <trkpt lat="49.0232" lon="7.87831">
        <ele>407.6</ele>
        <time>2020-06-27T15:53:19Z</time>
      </trkpt>
      <trkpt lat="49.02322" lon="7.87839">
        <ele>407.8</ele>
        <time>2020-06-27T15:53:20Z</time>
      </trkpt>
      <trkpt lat="49.02323" lon="7.87846">
        <ele>408</ele>
        <time>2020-06-27T15:53:21Z</time>
      </trkpt>
      <trkpt lat="49.02324" lon="7.87852">
        <ele>408.2</ele>
        <time>2020-06-27T15:53:22Z</time>
      </trkpt>
      <trkpt lat="49.02325" lon="7.87857">
        <ele>408.4</ele>
        <time>2020-06-27T15:53:23Z</time>
      </trkpt>
      <trkpt lat="49.02326" lon="7.87864">
        <ele>408.6</ele>
        <time>2020-06-27T15:53:24Z</time>
      </trkpt>
      <trkpt lat="49.02328" lon="7.87871">
        <ele>408.9</ele>
        <time>2020-06-27T15:53:25Z</time>
      </trkpt>
      <trkpt lat="49.02329" lon="7.87876">
        <ele>409.1</ele>
        <time>2020-06-27T15:53:26Z</time>
      </trkpt>
      <trkpt lat="49.02329" lon="7.87881">
        <ele>409.2</ele>
        <time>2020-06-27T15:53:27Z</time>
      </trkpt>
      <trkpt lat="49.02329" lon="7.87889">
        <ele>409.6</ele>
        <time>2020-06-27T15:53:28Z</time>
      </trkpt>
      <trkpt lat="49.02329" lon="7.87896">
        <ele>409.8</ele>
        <time>2020-06-27T15:53:29Z</time>
      </trkpt>
      <trkpt lat="49.02329" lon="7.87903">
        <ele>410</ele>
        <time>2020-06-27T15:53:30Z</time>
      </trkpt>
      <trkpt lat="49.02328" lon="7.8791">
        <ele>410.3</ele>
        <time>2020-06-27T15:53:31Z</time>
      </trkpt>
      <trkpt lat="49.02328" lon="7.87916">
        <ele>410.5</ele>
        <time>2020-06-27T15:53:32Z</time>
      </trkpt>
      <trkpt lat="49.02328" lon="7.87922">
        <ele>410.7</ele>
        <time>2020-06-27T15:53:33Z</time>
      </trkpt>
      <trkpt lat="49.02328" lon="7.87927">
        <ele>410.9</ele>
        <time>2020-06-27T15:53:34Z</time>
      </trkpt>
      <trkpt lat="49.02327" lon="7.87932">
        <ele>411</ele>
        <time>2020-06-27T15:53:35Z</time>
      </trkpt>
      <trkpt lat="49.02327" lon="7.87938">
        <ele>411.2</ele>
        <time>2020-06-27T15:53:36Z</time>
      </trkpt>
      <trkpt lat="49.02326" lon="7.87945">
        <ele>411.4</ele>
        <time>2020-06-27T15:53:37Z</time>
      </trkpt>
      <trkpt lat="49.02326" lon="7.87951">
        <ele>411.6</ele>
        <time>2020-06-27T15:53:38Z</time>
      </trkpt>
      <trkpt lat="49.02325" lon="7.87957">
        <ele>411.7</ele>
        <time>2020-06-27T15:53:39Z</time>
      </trkpt>
      <trkpt lat="49.02325" lon="7.87965">
        <ele>412</ele>
        <time>2020-06-27T15:53:40Z</time>
      </trkpt>
      <trkpt lat="49.02324" lon="7.87972">
        <ele>412.2</ele>
        <time>2020-06-27T15:53:41Z</time>
      </trkpt>
      <trkpt lat="49.02324" lon="7.87978">
        <ele>412.3</ele>
        <time>2020-06-27T15:53:42Z</time>
      </trkpt>
      <trkpt lat="49.02324" lon="7.87983">
        <ele>412.5</ele>
        <time>2020-06-27T15:53:43Z</time>
      </trkpt>
      <trkpt lat="49.02324" lon="7.87989">
        <ele>412.6</ele>
        <time>2020-06-27T15:53:44Z</time>
      </trkpt>
      <trkpt lat="49.02323" lon="7.87995">
        <ele>412.8</ele>
        <time>2020-06-27T15:53:45Z</time>
      </trkpt>
      <trkpt lat="49.02323" lon="7.88002">
        <ele>412.9</ele>
        <time>2020-06-27T15:53:46Z</time>
      </trkpt>
      <trkpt lat="49.02323" lon="7.88008">
        <ele>413.1</ele>
        <time>2020-06-27T15:53:47Z</time>
      </trkpt>
      <trkpt lat="49.02323" lon="7.88015">
        <ele>413.2</ele>
        <time>2020-06-27T15:53:48Z</time>
      </trkpt>
      <trkpt lat="49.02324" lon="7.88022">
        <ele>413.4</ele>
        <time>2020-06-27T15:53:49Z</time>
      </trkpt>
      <trkpt lat="49.02323" lon="7.88028">
        <ele>413.6</ele>
        <time>2020-06-27T15:53:50Z</time>
      </trkpt>
      <trkpt lat="49.02323" lon="7.88035">
        <ele>413.8</ele>
        <time>2020-06-27T15:53:51Z</time>
      </trkpt>
      <trkpt lat="49.02323" lon="7.88041">
        <ele>414</ele>
        <time>2020-06-27T15:53:52Z</time>
      </trkpt>
      <trkpt lat="49.02324" lon="7.88048">
        <ele>414.2</ele>
        <time>2020-06-27T15:53:53Z</time>
      </trkpt>
      <trkpt lat="49.02324" lon="7.88056">
        <ele>414.4</ele>
        <time>2020-06-27T15:53:54Z</time>
      </trkpt>
      <trkpt lat="49.02324" lon="7.88063">
        <ele>414.7</ele>
        <time>2020-06-27T15:53:55Z</time>
      </trkpt>
      <trkpt lat="49.02324" lon="7.88067">
        <ele>414.8</ele>
        <time>2020-06-27T15:53:56Z</time>
      </trkpt>
      <trkpt lat="49.02324" lon="7.88074">
        <ele>415</ele>
        <time>2020-06-27T15:53:57Z</time>
      </trkpt>
      <trkpt lat="49.02324" lon="7.88081">
        <ele>415.3</ele>
        <time>2020-06-27T15:53:58Z</time>
      </trkpt>
      <trkpt lat="49.02323" lon="7.88089">
        <ele>415.6</ele>
        <time>2020-06-27T15:53:59Z</time>
      </trkpt>
      <trkpt lat="49.02323" lon="7.88095">
        <ele>415.8</ele>
        <time>2020-06-27T15:54:00Z</time>
      </trkpt>
      <trkpt lat="49.02324" lon="7.881">
        <ele>415.9</ele>
        <time>2020-06-27T15:54:01Z</time>
      </trkpt>
      <trkpt lat="49.02324" lon="7.88105">
        <ele>416.1</ele>
        <time>2020-06-27T15:54:02Z</time>
      </trkpt>
      <trkpt lat="49.02324" lon="7.88112">
        <ele>416.4</ele>
        <time>2020-06-27T15:54:03Z</time>
      </trkpt>
      <trkpt lat="49.02325" lon="7.88117">
        <ele>416.5</ele>
        <time>2020-06-27T15:54:04Z</time>
      </trkpt>
      <trkpt lat="49.02325" lon="7.88123">
        <ele>416.7</ele>
        <time>2020-06-27T15:54:05Z</time>
      </trkpt>
      <trkpt lat="49.02326" lon="7.88129">
        <ele>416.9</ele>
        <time>2020-06-27T15:54:06Z</time>
      </trkpt>
      <trkpt lat="49.02327" lon="7.88135">
        <ele>417.1</ele>
        <time>2020-06-27T15:54:07Z</time>
      </trkpt>
      <trkpt lat="49.02328" lon="7.88141">
        <ele>417.3</ele>
        <time>2020-06-27T15:54:08Z</time>
      </trkpt>
      <trkpt lat="49.02329" lon="7.88146">
        <ele>417.5</ele>
        <time>2020-06-27T15:54:09Z</time>
      </trkpt>
      <trkpt lat="49.0233" lon="7.88151">
        <ele>417.7</ele>
        <time>2020-06-27T15:54:10Z</time>
      </trkpt>
      <trkpt lat="49.02331" lon="7.88157">
        <ele>417.8</ele>
        <time>2020-06-27T15:54:11Z</time>
      </trkpt>
      <trkpt lat="49.02333" lon="7.88164">
        <ele>418.1</ele>
        <time>2020-06-27T15:54:12Z</time>
      </trkpt>
      <trkpt lat="49.02334" lon="7.88171">
        <ele>418.3</ele>
        <time>2020-06-27T15:54:13Z</time>
      </trkpt>
      <trkpt lat="49.02335" lon="7.88177">
        <ele>418.5</ele>
        <time>2020-06-27T15:54:14Z</time>
      </trkpt>
      <trkpt lat="49.02336" lon="7.88183">
        <ele>418.7</ele>
        <time>2020-06-27T15:54:15Z</time>
      </trkpt>
      <trkpt lat="49.02337" lon="7.88189">
        <ele>418.9</ele>
        <time>2020-06-27T15:54:16Z</time>
      </trkpt>
      <trkpt lat="49.02338" lon="7.88195">
        <ele>419.1</ele>
        <time>2020-06-27T15:54:17Z</time>
      </trkpt>
      <trkpt lat="49.0234" lon="7.88201">
        <ele>419.3</ele>
        <time>2020-06-27T15:54:18Z</time>
      </trkpt>
      <trkpt lat="49.02342" lon="7.88206">
        <ele>419.5</ele>
        <time>2020-06-27T15:54:19Z</time>
      </trkpt>
      <trkpt lat="49.02344" lon="7.88212">
        <ele>419.7</ele>
        <time>2020-06-27T15:54:20Z</time>
      </trkpt>
      <trkpt lat="49.02345" lon="7.88218">
        <ele>419.8</ele>
        <time>2020-06-27T15:54:21Z</time>
      </trkpt>
      <trkpt lat="49.02347" lon="7.88223">
        <ele>420</ele>
        <time>2020-06-27T15:54:22Z</time>
      </trkpt>
      <trkpt lat="49.02349" lon="7.8823">
        <ele>420.2</ele>
        <time>2020-06-27T15:54:23Z</time>
      </trkpt>
      <trkpt lat="49.02351" lon="7.88236">
        <ele>420.4</ele>
        <time>2020-06-27T15:54:24Z</time>
      </trkpt>
      <trkpt lat="49.02353" lon="7.88242">
        <ele>420.5</ele>
        <time>2020-06-27T15:54:25Z</time>
      </trkpt>
      <trkpt lat="49.02353" lon="7.88248">
        <ele>420.6</ele>
        <time>2020-06-27T15:54:26Z</time>
      </trkpt>
      <trkpt lat="49.02354" lon="7.88253">
        <ele>420.8</ele>
        <time>2020-06-27T15:54:27Z</time>
      </trkpt>
      <trkpt lat="49.02355" lon="7.88258">
        <ele>420.9</ele>
        <time>2020-06-27T15:54:28Z</time>
      </trkpt>
      <trkpt lat="49.02356" lon="7.88264">
        <ele>421</ele>
        <time>2020-06-27T15:54:29Z</time>
      </trkpt>
      <trkpt lat="49.02358" lon="7.8827">
        <ele>421.2</ele>
        <time>2020-06-27T15:54:30Z</time>
      </trkpt>
      <trkpt lat="49.02359" lon="7.88277">
        <ele>421.4</ele>
        <time>2020-06-27T15:54:31Z</time>
      </trkpt>
      <trkpt lat="49.0236" lon="7.88282">
        <ele>421.5</ele>
        <time>2020-06-27T15:54:32Z</time>
      </trkpt>
      <trkpt lat="49.02361" lon="7.88289">
        <ele>421.6</ele>
        <time>2020-06-27T15:54:33Z</time>
      </trkpt>
      <trkpt lat="49.02362" lon="7.88294">
        <ele>421.8</ele>
        <time>2020-06-27T15:54:34Z</time>
      </trkpt>
      <trkpt lat="49.02363" lon="7.88301">
        <ele>422</ele>
        <time>2020-06-27T15:54:35Z</time>
      </trkpt>
      <trkpt lat="49.02366" lon="7.88308">
        <ele>422.3</ele>
        <time>2020-06-27T15:54:36Z</time>
      </trkpt>
      <trkpt lat="49.02367" lon="7.88312">
        <ele>422.4</ele>
        <time>2020-06-27T15:54:37Z</time>
      </trkpt>
      <trkpt lat="49.02369" lon="7.88318">
        <ele>422.6</ele>
        <time>2020-06-27T15:54:38Z</time>
      </trkpt>
      <trkpt lat="49.0237" lon="7.88324">
        <ele>422.8</ele>
        <time>2020-06-27T15:54:39Z</time>
      </trkpt>
      <trkpt lat="49.02372" lon="7.8833">
        <ele>423.1</ele>
        <time>2020-06-27T15:54:40Z</time>
      </trkpt>
      <trkpt lat="49.02372" lon="7.88336">
        <ele>423.3</ele>
        <time>2020-06-27T15:54:41Z</time>
      </trkpt>
      <trkpt lat="49.02374" lon="7.88341">
        <ele>423.5</ele>
        <time>2020-06-27T15:54:42Z</time>
      </trkpt>
      <trkpt lat="49.02375" lon="7.88346">
        <ele>423.6</ele>
        <time>2020-06-27T15:54:43Z</time>
      </trkpt>
      <trkpt lat="49.02377" lon="7.88352">
        <ele>423.8</ele>
        <time>2020-06-27T15:54:44Z</time>
      </trkpt>
      <trkpt lat="49.02378" lon="7.88357">
        <ele>424</ele>
        <time>2020-06-27T15:54:45Z</time>
      </trkpt>
      <trkpt lat="49.0238" lon="7.88362">
        <ele>424.2</ele>
        <time>2020-06-27T15:54:46Z</time>
      </trkpt>
      <trkpt lat="49.02383" lon="7.88368">
        <ele>424.5</ele>
        <time>2020-06-27T15:54:47Z</time>
      </trkpt>
      <trkpt lat="49.02384" lon="7.88375">
        <ele>424.7</ele>
        <time>2020-06-27T15:54:48Z</time>
      </trkpt>
      <trkpt lat="49.02386" lon="7.8838">
        <ele>424.9</ele>
        <time>2020-06-27T15:54:49Z</time>
      </trkpt>
      <trkpt lat="49.02388" lon="7.88386">
        <ele>425.1</ele>
        <time>2020-06-27T15:54:50Z</time>
      </trkpt>
      <trkpt lat="49.02391" lon="7.88392">
        <ele>425.4</ele>
        <time>2020-06-27T15:54:51Z</time>
      </trkpt>
      <trkpt lat="49.02392" lon="7.88398">
        <ele>425.6</ele>
        <time>2020-06-27T15:54:52Z</time>
      </trkpt>
      <trkpt lat="49.02394" lon="7.88404">
        <ele>425.9</ele>
        <time>2020-06-27T15:54:53Z</time>
      </trkpt>
      <trkpt lat="49.02396" lon="7.88409">
        <ele>426.1</ele>
        <time>2020-06-27T15:54:54Z</time>
      </trkpt>
      <trkpt lat="49.02399" lon="7.88417">
        <ele>426.4</ele>
        <time>2020-06-27T15:54:55Z</time>
      </trkpt>
      <trkpt lat="49.02401" lon="7.88423">
        <ele>426.6</ele>
        <time>2020-06-27T15:54:56Z</time>
      </trkpt>
      <trkpt lat="49.02403" lon="7.8843">
        <ele>426.8</ele>
        <time>2020-06-27T15:54:57Z</time>
      </trkpt>
      <trkpt lat="49.02406" lon="7.88436">
        <ele>427.1</ele>
        <time>2020-06-27T15:54:58Z</time>
      </trkpt>
      <trkpt lat="49.02409" lon="7.88442">
        <ele>427.3</ele>
        <time>2020-06-27T15:54:59Z</time>
      </trkpt>
      <trkpt lat="49.02412" lon="7.88446">
        <ele>427.5</ele>
        <time>2020-06-27T15:55:00Z</time>
      </trkpt>
      <trkpt lat="49.02414" lon="7.88452">
        <ele>427.7</ele>
        <time>2020-06-27T15:55:01Z</time>
      </trkpt>
      <trkpt lat="49.02416" lon="7.88455">
        <ele>427.9</ele>
        <time>2020-06-27T15:55:02Z</time>
      </trkpt>
      <trkpt lat="49.02419" lon="7.8846">
        <ele>428.1</ele>
        <time>2020-06-27T15:55:03Z</time>
      </trkpt>
      <trkpt lat="49.02422" lon="7.88464">
        <ele>428.3</ele>
        <time>2020-06-27T15:55:04Z</time>
      </trkpt>
      <trkpt lat="49.02424" lon="7.8847">
        <ele>428.6</ele>
        <time>2020-06-27T15:55:05Z</time>
      </trkpt>
      <trkpt lat="49.02429" lon="7.88475">
        <ele>428.9</ele>
        <time>2020-06-27T15:55:06Z</time>
      </trkpt>
      <trkpt lat="49.02432" lon="7.8848">
        <ele>429.1</ele>
        <time>2020-06-27T15:55:07Z</time>
      </trkpt>
      <trkpt lat="49.02435" lon="7.88485">
        <ele>429.4</ele>
        <time>2020-06-27T15:55:08Z</time>
      </trkpt>
      <trkpt lat="49.02438" lon="7.88489">
        <ele>429.6</ele>
        <time>2020-06-27T15:55:09Z</time>
      </trkpt>
      <trkpt lat="49.0244" lon="7.88494">
        <ele>429.8</ele>
        <time>2020-06-27T15:55:10Z</time>
      </trkpt>
      <trkpt lat="49.02443" lon="7.885">
        <ele>430.1</ele>
        <time>2020-06-27T15:55:11Z</time>
      </trkpt>
      <trkpt lat="49.02445" lon="7.88505">
        <ele>430.3</ele>
        <time>2020-06-27T15:55:12Z</time>
      </trkpt>
      <trkpt lat="49.02449" lon="7.88509">
        <ele>430.6</ele>
        <time>2020-06-27T15:55:13Z</time>
      </trkpt>
      <trkpt lat="49.02451" lon="7.88515">
        <ele>430.8</ele>
        <time>2020-06-27T15:55:14Z</time>
      </trkpt>
      <trkpt lat="49.02454" lon="7.88518">
        <ele>431</ele>
        <time>2020-06-27T15:55:15Z</time>
      </trkpt>
      <trkpt lat="49.02457" lon="7.88523">
        <ele>431.2</ele>
        <time>2020-06-27T15:55:16Z</time>
      </trkpt>
      <trkpt lat="49.02459" lon="7.88529">
        <ele>431.6</ele>
        <time>2020-06-27T15:55:17Z</time>
      </trkpt>
      <trkpt lat="49.02462" lon="7.88535">
        <ele>431.6</ele>
        <time>2020-06-27T15:55:18Z</time>
      </trkpt>
      <trkpt lat="49.02464" lon="7.88539">
        <ele>431.6</ele>
        <time>2020-06-27T15:55:19Z</time>
      </trkpt>
      <trkpt lat="49.02467" lon="7.88544">
        <ele>431.7</ele>
        <time>2020-06-27T15:55:20Z</time>
      </trkpt>
      <trkpt lat="49.02468" lon="7.88547">
        <ele>431.7</ele>
        <time>2020-06-27T15:55:21Z</time>
      </trkpt>
      <trkpt lat="49.0247" lon="7.8855">
        <ele>431.7</ele>
        <time>2020-06-27T15:55:22Z</time>
      </trkpt>
      <trkpt lat="49.02471" lon="7.88549">
        <ele>431.7</ele>
        <time>2020-06-27T15:55:23Z</time>
      </trkpt>
      <trkpt lat="49.02473" lon="7.88549">
        <ele>431.7</ele>
        <time>2020-06-27T15:55:24Z</time>
      </trkpt>
      <trkpt lat="49.02474" lon="7.8855">
        <ele>431.8</ele>
        <time>2020-06-27T15:55:25Z</time>
      </trkpt>
      <trkpt lat="49.02475" lon="7.88551">
        <ele>431.8</ele>
        <time>2020-06-27T15:55:26Z</time>
      </trkpt>
      <trkpt lat="49.02477" lon="7.88552">
        <ele>431.8</ele>
        <time>2020-06-27T15:55:27Z</time>
      </trkpt>
      <trkpt lat="49.02479" lon="7.88552">
        <ele>431.8</ele>
        <time>2020-06-27T15:55:28Z</time>
      </trkpt>
      <trkpt lat="49.02479" lon="7.88553">
        <ele>431.8</ele>
        <time>2020-06-27T15:55:29Z</time>
      </trkpt>
      <trkpt lat="49.0248" lon="7.88553">
        <ele>431.8</ele>
        <time>2020-06-27T15:55:30Z</time>
      </trkpt>
      <trkpt lat="49.0248" lon="7.88554">
        <ele>431.8</ele>
        <time>2020-06-27T15:55:31Z</time>
      </trkpt>
      <trkpt lat="49.02479" lon="7.88553">
        <ele>431.8</ele>
        <time>2020-06-27T15:55:32Z</time>
      </trkpt>
      <trkpt lat="49.02479" lon="7.88552">
        <ele>431.8</ele>
        <time>2020-06-27T15:55:33Z</time>
      </trkpt>
      <trkpt lat="49.02478" lon="7.88551">
        <ele>431.8</ele>
        <time>2020-06-27T15:55:34Z</time>
      </trkpt>
      <trkpt lat="49.02478" lon="7.8855">
        <ele>431.9</ele>
        <time>2020-06-27T15:55:35Z</time>
      </trkpt>
      <trkpt lat="49.02478" lon="7.8855">
        <ele>431.9</ele>
        <time>2020-06-27T15:55:36Z</time>
      </trkpt>
      <trkpt lat="49.02479" lon="7.8855">
        <ele>431.9</ele>
        <time>2020-06-27T15:55:37Z</time>
      </trkpt>
      <trkpt lat="49.02481" lon="7.8855">
        <ele>431.9</ele>
        <time>2020-06-27T15:55:38Z</time>
      </trkpt>
      <trkpt lat="49.02483" lon="7.8855">
        <ele>431.9</ele>
        <time>2020-06-27T15:55:39Z</time>
      </trkpt>
      <trkpt lat="49.02482" lon="7.88546">
        <ele>431.9</ele>
        <time>2020-06-27T15:55:40Z</time>
      </trkpt>
      <trkpt lat="49.02482" lon="7.88544">
        <ele>431.9</ele>
        <time>2020-06-27T15:55:41Z</time>
      </trkpt>
      <trkpt lat="49.0248" lon="7.88543">
        <ele>432</ele>
        <time>2020-06-27T15:55:42Z</time>
      </trkpt>
      <trkpt lat="49.02479" lon="7.88541">
        <ele>432</ele>
        <time>2020-06-27T15:55:43Z</time>
      </trkpt>
      <trkpt lat="49.0248" lon="7.8854">
        <ele>432</ele>
        <time>2020-06-27T15:55:44Z</time>
      </trkpt>
      <trkpt lat="49.02478" lon="7.88537">
        <ele>432</ele>
        <time>2020-06-27T15:55:45Z</time>
      </trkpt>
      <trkpt lat="49.02478" lon="7.88534">
        <ele>432</ele>
        <time>2020-06-27T15:55:46Z</time>
      </trkpt>
      <trkpt lat="49.02477" lon="7.88533">
        <ele>432</ele>
        <time>2020-06-27T15:55:47Z</time>
      </trkpt>
      <trkpt lat="49.02477" lon="7.88532">
        <ele>432.1</ele>
        <time>2020-06-27T15:55:48Z</time>
      </trkpt>
      <trkpt lat="49.02477" lon="7.88532">
        <ele>432.1</ele>
        <time>2020-06-27T15:55:49Z</time>
      </trkpt>
      <trkpt lat="49.02478" lon="7.88529">
        <ele>432.1</ele>
        <time>2020-06-27T15:55:50Z</time>
      </trkpt>
      <trkpt lat="49.02478" lon="7.88527">
        <ele>432.1</ele>
        <time>2020-06-27T15:55:51Z</time>
      </trkpt>
      <trkpt lat="49.02478" lon="7.88525">
        <ele>432.1</ele>
        <time>2020-06-27T15:55:52Z</time>
      </trkpt>
      <trkpt lat="49.02479" lon="7.88523">
        <ele>432.1</ele>
        <time>2020-06-27T15:55:53Z</time>
      </trkpt>
      <trkpt lat="49.0248" lon="7.88522">
        <ele>432.1</ele>
        <time>2020-06-27T15:55:54Z</time>
      </trkpt>
      <trkpt lat="49.0248" lon="7.88521">
        <ele>432.1</ele>
        <time>2020-06-27T15:55:55Z</time>
      </trkpt>
      <trkpt lat="49.0248" lon="7.8852">
        <ele>432.1</ele>
        <time>2020-06-27T15:55:56Z</time>
      </trkpt>
      <trkpt lat="49.0248" lon="7.88519">
        <ele>432.1</ele>
        <time>2020-06-27T15:55:57Z</time>
      </trkpt>
      <trkpt lat="49.0248" lon="7.8852">
        <ele>432.2</ele>
        <time>2020-06-27T15:55:58Z</time>
      </trkpt>
      <trkpt lat="49.0248" lon="7.88522">
        <ele>432.2</ele>
        <time>2020-06-27T15:55:59Z</time>
      </trkpt>
      <trkpt lat="49.02479" lon="7.88523">
        <ele>432.2</ele>
        <time>2020-06-27T15:56:00Z</time>
      </trkpt>
      <trkpt lat="49.02479" lon="7.88524">
        <ele>432.2</ele>
        <time>2020-06-27T16:05:04Z</time>
      </trkpt>
      <trkpt lat="49.02478" lon="7.88526">
        <ele>432.2</ele>
        <time>2020-06-27T16:05:05Z</time>
      </trkpt>
      <trkpt lat="49.02478" lon="7.88527">
        <ele>432.2</ele>
        <time>2020-06-27T16:05:06Z</time>
      </trkpt>
      <trkpt lat="49.02478" lon="7.88528">
        <ele>432.2</ele>
        <time>2020-06-27T16:05:07Z</time>
      </trkpt>
      <trkpt lat="49.02479" lon="7.88528">
        <ele>432.2</ele>
        <time>2020-06-27T16:05:08Z</time>
      </trkpt>
      <trkpt lat="49.02479" lon="7.88531">
        <ele>432.2</ele>
        <time>2020-06-27T16:05:09Z</time>
      </trkpt>
      <trkpt lat="49.0248" lon="7.88534">
        <ele>432.3</ele>
        <time>2020-06-27T16:05:10Z</time>
      </trkpt>
      <trkpt lat="49.0248" lon="7.88534">
        <ele>432.3</ele>
        <time>2020-06-27T16:05:11Z</time>
      </trkpt>
      <trkpt lat="49.02479" lon="7.88535">
        <ele>432.3</ele>
        <time>2020-06-27T16:05:12Z</time>
      </trkpt>
      <trkpt lat="49.02478" lon="7.88535">
        <ele>432.3</ele>
        <time>2020-06-27T16:05:13Z</time>
      </trkpt>
      <trkpt lat="49.02478" lon="7.88535">
        <ele>432.3</ele>
        <time>2020-06-27T16:05:14Z</time>
      </trkpt>
      <trkpt lat="49.02477" lon="7.88535">
        <ele>432.3</ele>
        <time>2020-06-27T16:05:15Z</time>
      </trkpt>
      <trkpt lat="49.02476" lon="7.88536">
        <ele>432.3</ele>
        <time>2020-06-27T16:05:16Z</time>
      </trkpt>
      <trkpt lat="49.02475" lon="7.88537">
        <ele>432.3</ele>
        <time>2020-06-27T16:05:17Z</time>
      </trkpt>
      <trkpt lat="49.02474" lon="7.88538">
        <ele>432.3</ele>
        <time>2020-06-27T16:05:18Z</time>
      </trkpt>
      <trkpt lat="49.02474" lon="7.88538">
        <ele>432.3</ele>
        <time>2020-06-27T16:05:19Z</time>
      </trkpt>
      <trkpt lat="49.02475" lon="7.88537">
        <ele>432.3</ele>
        <time>2020-06-27T16:05:20Z</time>
      </trkpt>
      <trkpt lat="49.02475" lon="7.88537">
        <ele>432.3</ele>
        <time>2020-06-27T16:05:21Z</time>
      </trkpt>
      <trkpt lat="49.02475" lon="7.88537">
        <ele>432.3</ele>
        <time>2020-06-27T16:05:22Z</time>
      </trkpt>
      <trkpt lat="49.02475" lon="7.88538">
        <ele>432.3</ele>
        <time>2020-06-27T16:05:23Z</time>
      </trkpt>
      <trkpt lat="49.02475" lon="7.88538">
        <ele>432.3</ele>
        <time>2020-06-27T16:05:24Z</time>
      </trkpt>
      <trkpt lat="49.02475" lon="7.88538">
        <ele>432.3</ele>
        <time>2020-06-27T16:05:25Z</time>
      </trkpt>
      <trkpt lat="49.02475" lon="7.88538">
        <ele>432.3</ele>
        <time>2020-06-27T16:05:26Z</time>
      </trkpt>
      <trkpt lat="49.02475" lon="7.88538">
        <ele>432.3</ele>
        <time>2020-06-27T16:05:27Z</time>
      </trkpt>
      <trkpt lat="49.02474" lon="7.88538">
        <ele>432.3</ele>
        <time>2020-06-27T16:05:28Z</time>
      </trkpt>
      <trkpt lat="49.02471" lon="7.88558">
        <ele>432.8</ele>
        <time>2020-06-27T16:12:35Z</time>
      </trkpt>
      <trkpt lat="49.02471" lon="7.88563">
        <ele>432.9</ele>
        <time>2020-06-27T16:12:36Z</time>
      </trkpt>
      <trkpt lat="49.02471" lon="7.88567">
        <ele>432.9</ele>
        <time>2020-06-27T16:12:37Z</time>
      </trkpt>
      <trkpt lat="49.02471" lon="7.88573">
        <ele>432.9</ele>
        <time>2020-06-27T16:12:38Z</time>
      </trkpt>
      <trkpt lat="49.02471" lon="7.88578">
        <ele>432.8</ele>
        <time>2020-06-27T16:12:39Z</time>
      </trkpt>
      <trkpt lat="49.02471" lon="7.88583">
        <ele>432.8</ele>
        <time>2020-06-27T16:12:40Z</time>
      </trkpt>
      <trkpt lat="49.02473" lon="7.88587">
        <ele>432.7</ele>
        <time>2020-06-27T16:12:41Z</time>
      </trkpt>
      <trkpt lat="49.02474" lon="7.88593">
        <ele>432.7</ele>
        <time>2020-06-27T16:12:42Z</time>
      </trkpt>
      <trkpt lat="49.02474" lon="7.88599">
        <ele>432.6</ele>
        <time>2020-06-27T16:12:43Z</time>
      </trkpt>
      <trkpt lat="49.02475" lon="7.88601">
        <ele>432.6</ele>
        <time>2020-06-27T16:12:44Z</time>
      </trkpt>
      <trkpt lat="49.02475" lon="7.88603">
        <ele>432.5</ele>
        <time>2020-06-27T16:12:45Z</time>
      </trkpt>
      <trkpt lat="49.02475" lon="7.88606">
        <ele>432.5</ele>
        <time>2020-06-27T16:12:46Z</time>
      </trkpt>
      <trkpt lat="49.02476" lon="7.8861">
        <ele>432.4</ele>
        <time>2020-06-27T16:12:47Z</time>
      </trkpt>
      <trkpt lat="49.02476" lon="7.88612">
        <ele>432.4</ele>
        <time>2020-06-27T16:12:48Z</time>
      </trkpt>
      <trkpt lat="49.02477" lon="7.88615">
        <ele>432.4</ele>
        <time>2020-06-27T16:12:49Z</time>
      </trkpt>
      <trkpt lat="49.02477" lon="7.88617">
        <ele>432.3</ele>
        <time>2020-06-27T16:12:50Z</time>
      </trkpt>
      <trkpt lat="49.02477" lon="7.88622">
        <ele>432.3</ele>
        <time>2020-06-27T16:12:51Z</time>
      </trkpt>
      <trkpt lat="49.02478" lon="7.88628">
        <ele>432.1</ele>
        <time>2020-06-27T16:12:52Z</time>
      </trkpt>
      <trkpt lat="49.02478" lon="7.88631">
        <ele>432</ele>
        <time>2020-06-27T16:12:53Z</time>
      </trkpt>
      <trkpt lat="49.02479" lon="7.88637">
        <ele>431.7</ele>
        <time>2020-06-27T16:12:54Z</time>
      </trkpt>
      <trkpt lat="49.0248" lon="7.8864">
        <ele>431.6</ele>
        <time>2020-06-27T16:12:55Z</time>
      </trkpt>
      <trkpt lat="49.02481" lon="7.88646">
        <ele>431.3</ele>
        <time>2020-06-27T16:12:56Z</time>
      </trkpt>
      <trkpt lat="49.02483" lon="7.88654">
        <ele>430.8</ele>
        <time>2020-06-27T16:12:57Z</time>
      </trkpt>
      <trkpt lat="49.02484" lon="7.88658">
        <ele>430.5</ele>
        <time>2020-06-27T16:12:58Z</time>
      </trkpt>
      <trkpt lat="49.02487" lon="7.88664">
        <ele>430.2</ele>
        <time>2020-06-27T16:12:59Z</time>
      </trkpt>
      <trkpt lat="49.02488" lon="7.8867">
        <ele>429.8</ele>
        <time>2020-06-27T16:13:00Z</time>
      </trkpt>
      <trkpt lat="49.02491" lon="7.88676">
        <ele>429.4</ele>
        <time>2020-06-27T16:13:01Z</time>
      </trkpt>
      <trkpt lat="49.02493" lon="7.88682">
        <ele>429</ele>
        <time>2020-06-27T16:13:02Z</time>
      </trkpt>
      <trkpt lat="49.02496" lon="7.88687">
        <ele>428.6</ele>
        <time>2020-06-27T16:13:03Z</time>
      </trkpt>
      <trkpt lat="49.02499" lon="7.88693">
        <ele>428.1</ele>
        <time>2020-06-27T16:13:04Z</time>
      </trkpt>
      <trkpt lat="49.02502" lon="7.88699">
        <ele>427.7</ele>
        <time>2020-06-27T16:13:05Z</time>
      </trkpt>
      <trkpt lat="49.02505" lon="7.88702">
        <ele>427.4</ele>
        <time>2020-06-27T16:13:06Z</time>
      </trkpt>
      <trkpt lat="49.02509" lon="7.88706">
        <ele>427</ele>
        <time>2020-06-27T16:13:07Z</time>
      </trkpt>
      <trkpt lat="49.02513" lon="7.88712">
        <ele>426.5</ele>
        <time>2020-06-27T16:13:08Z</time>
      </trkpt>
      <trkpt lat="49.02517" lon="7.88719">
        <ele>426</ele>
        <time>2020-06-27T16:13:09Z</time>
      </trkpt>
      <trkpt lat="49.02521" lon="7.88725">
        <ele>425.5</ele>
        <time>2020-06-27T16:13:10Z</time>
      </trkpt>
      <trkpt lat="49.02526" lon="7.8873">
        <ele>425</ele>
        <time>2020-06-27T16:13:11Z</time>
      </trkpt>
      <trkpt lat="49.02533" lon="7.88737">
        <ele>424.3</ele>
        <time>2020-06-27T16:13:12Z</time>
      </trkpt>
      <trkpt lat="49.02539" lon="7.88744">
        <ele>423.6</ele>
        <time>2020-06-27T16:13:13Z</time>
      </trkpt>
      <trkpt lat="49.02546" lon="7.88754">
        <ele>422.8</ele>
        <time>2020-06-27T16:13:14Z</time>
      </trkpt>
      <trkpt lat="49.02552" lon="7.88764">
        <ele>422.1</ele>
        <time>2020-06-27T16:13:15Z</time>
      </trkpt>
      <trkpt lat="49.0256" lon="7.88778">
        <ele>421.4</ele>
        <time>2020-06-27T16:13:16Z</time>
      </trkpt>
      <trkpt lat="49.02567" lon="7.8879">
        <ele>420.7</ele>
        <time>2020-06-27T16:13:17Z</time>
      </trkpt>
      <trkpt lat="49.02572" lon="7.888">
        <ele>420.2</ele>
        <time>2020-06-27T16:13:18Z</time>
      </trkpt>
      <trkpt lat="49.02578" lon="7.88812">
        <ele>419.6</ele>
        <time>2020-06-27T16:13:19Z</time>
      </trkpt>
      <trkpt lat="49.02583" lon="7.88825">
        <ele>419</ele>
        <time>2020-06-27T16:13:20Z</time>
      </trkpt>
      <trkpt lat="49.02589" lon="7.8884">
        <ele>418.4</ele>
        <time>2020-06-27T16:13:21Z</time>
      </trkpt>
      <trkpt lat="49.02593" lon="7.88855">
        <ele>417.8</ele>
        <time>2020-06-27T16:13:22Z</time>
      </trkpt>
      <trkpt lat="49.02598" lon="7.88869">
        <ele>417.2</ele>
        <time>2020-06-27T16:13:23Z</time>
      </trkpt>
      <trkpt lat="49.02602" lon="7.88885">
        <ele>416.4</ele>
        <time>2020-06-27T16:13:24Z</time>
      </trkpt>
      <trkpt lat="49.02607" lon="7.889">
        <ele>415.6</ele>
        <time>2020-06-27T16:13:25Z</time>
      </trkpt>
      <trkpt lat="49.0261" lon="7.88916">
        <ele>414.8</ele>
        <time>2020-06-27T16:13:26Z</time>
      </trkpt>
      <trkpt lat="49.02614" lon="7.88931">
        <ele>414.1</ele>
        <time>2020-06-27T16:13:27Z</time>
      </trkpt>
      <trkpt lat="49.02617" lon="7.88949">
        <ele>413.3</ele>
        <time>2020-06-27T16:13:28Z</time>
      </trkpt>
      <trkpt lat="49.0262" lon="7.88967">
        <ele>412.4</ele>
        <time>2020-06-27T16:13:29Z</time>
      </trkpt>
      <trkpt lat="49.02624" lon="7.88984">
        <ele>411.6</ele>
        <time>2020-06-27T16:13:30Z</time>
      </trkpt>
      <trkpt lat="49.02628" lon="7.89001">
        <ele>410.8</ele>
        <time>2020-06-27T16:13:31Z</time>
      </trkpt>
      <trkpt lat="49.02632" lon="7.89017">
        <ele>409.9</ele>
        <time>2020-06-27T16:13:32Z</time>
      </trkpt>
      <trkpt lat="49.02636" lon="7.89033">
        <ele>409.2</ele>
        <time>2020-06-27T16:13:33Z</time>
      </trkpt>
      <trkpt lat="49.02639" lon="7.8905">
        <ele>408.4</ele>
        <time>2020-06-27T16:13:34Z</time>
      </trkpt>
      <trkpt lat="49.02642" lon="7.89065">
        <ele>407.6</ele>
        <time>2020-06-27T16:13:35Z</time>
      </trkpt>
      <trkpt lat="49.02646" lon="7.8908">
        <ele>406.9</ele>
        <time>2020-06-27T16:13:36Z</time>
      </trkpt>
      <trkpt lat="49.0265" lon="7.89094">
        <ele>406.1</ele>
        <time>2020-06-27T16:13:37Z</time>
      </trkpt>
      <trkpt lat="49.02654" lon="7.89109">
        <ele>405.3</ele>
        <time>2020-06-27T16:13:38Z</time>
      </trkpt>
      <trkpt lat="49.02659" lon="7.89121">
        <ele>404.5</ele>
        <time>2020-06-27T16:13:39Z</time>
      </trkpt>
      <trkpt lat="49.02665" lon="7.8913">
        <ele>403.8</ele>
        <time>2020-06-27T16:13:40Z</time>
      </trkpt>
      <trkpt lat="49.02672" lon="7.89137">
        <ele>403.1</ele>
        <time>2020-06-27T16:13:41Z</time>
      </trkpt>
      <trkpt lat="49.02679" lon="7.8914">
        <ele>402.5</ele>
        <time>2020-06-27T16:13:42Z</time>
      </trkpt>
      <trkpt lat="49.02687" lon="7.89136">
        <ele>401.9</ele>
        <time>2020-06-27T16:13:43Z</time>
      </trkpt>
      <trkpt lat="49.02694" lon="7.89128">
        <ele>401.2</ele>
        <time>2020-06-27T16:13:44Z</time>
      </trkpt>
      <trkpt lat="49.027" lon="7.89117">
        <ele>400.5</ele>
        <time>2020-06-27T16:13:45Z</time>
      </trkpt>
      <trkpt lat="49.02707" lon="7.89106">
        <ele>399.9</ele>
        <time>2020-06-27T16:13:46Z</time>
      </trkpt>
      <trkpt lat="49.02713" lon="7.89094">
        <ele>399.3</ele>
        <time>2020-06-27T16:13:47Z</time>
      </trkpt>
      <trkpt lat="49.02721" lon="7.89083">
        <ele>398.6</ele>
        <time>2020-06-27T16:13:48Z</time>
      </trkpt>
      <trkpt lat="49.02728" lon="7.89072">
        <ele>398</ele>
        <time>2020-06-27T16:13:49Z</time>
      </trkpt>
      <trkpt lat="49.02736" lon="7.89062">
        <ele>397.4</ele>
        <time>2020-06-27T16:13:50Z</time>
      </trkpt>
      <trkpt lat="49.02744" lon="7.89054">
        <ele>396.9</ele>
        <time>2020-06-27T16:13:51Z</time>
      </trkpt>
      <trkpt lat="49.02753" lon="7.89048">
        <ele>396.4</ele>
        <time>2020-06-27T16:13:52Z</time>
      </trkpt>
      <trkpt lat="49.02762" lon="7.89046">
        <ele>395.9</ele>
        <time>2020-06-27T16:13:53Z</time>
      </trkpt>
      <trkpt lat="49.02771" lon="7.89045">
        <ele>395.4</ele>
        <time>2020-06-27T16:13:54Z</time>
      </trkpt>
      <trkpt lat="49.02779" lon="7.89048">
        <ele>394.9</ele>
        <time>2020-06-27T16:13:55Z</time>
      </trkpt>
      <trkpt lat="49.02787" lon="7.89056">
        <ele>394.3</ele>
        <time>2020-06-27T16:13:56Z</time>
      </trkpt>
      <trkpt lat="49.02794" lon="7.89066">
        <ele>393.8</ele>
        <time>2020-06-27T16:13:57Z</time>
      </trkpt>
      <trkpt lat="49.028" lon="7.89077">
        <ele>393.2</ele>
        <time>2020-06-27T16:13:58Z</time>
      </trkpt>
      <trkpt lat="49.02806" lon="7.89088">
        <ele>392.6</ele>
        <time>2020-06-27T16:13:59Z</time>
      </trkpt>
      <trkpt lat="49.02812" lon="7.891">
        <ele>391.9</ele>
        <time>2020-06-27T16:14:00Z</time>
      </trkpt>
      <trkpt lat="49.02816" lon="7.89115">
        <ele>391.1</ele>
        <time>2020-06-27T16:14:01Z</time>
      </trkpt>
      <trkpt lat="49.02822" lon="7.8913">
        <ele>390.3</ele>
        <time>2020-06-27T16:14:02Z</time>
      </trkpt>
      <trkpt lat="49.02828" lon="7.89145">
        <ele>389.5</ele>
        <time>2020-06-27T16:14:03Z</time>
      </trkpt>
      <trkpt lat="49.02834" lon="7.89159">
        <ele>388.8</ele>
        <time>2020-06-27T16:14:04Z</time>
      </trkpt>
      <trkpt lat="49.02842" lon="7.89173">
        <ele>388</ele>
        <time>2020-06-27T16:14:05Z</time>
      </trkpt>
      <trkpt lat="49.0285" lon="7.89187">
        <ele>387.2</ele>
        <time>2020-06-27T16:14:06Z</time>
      </trkpt>
      <trkpt lat="49.02857" lon="7.89204">
        <ele>386.4</ele>
        <time>2020-06-27T16:14:07Z</time>
      </trkpt>
      <trkpt lat="49.02863" lon="7.89221">
        <ele>385.6</ele>
        <time>2020-06-27T16:14:08Z</time>
      </trkpt>
      <trkpt lat="49.02868" lon="7.89238">
        <ele>384.9</ele>
        <time>2020-06-27T16:14:09Z</time>
      </trkpt>
      <trkpt lat="49.02873" lon="7.89256">
        <ele>384.1</ele>
        <time>2020-06-27T16:14:10Z</time>
      </trkpt>
      <trkpt lat="49.02876" lon="7.89274">
        <ele>383.4</ele>
        <time>2020-06-27T16:14:11Z</time>
      </trkpt>
      <trkpt lat="49.02877" lon="7.89293">
        <ele>382.7</ele>
        <time>2020-06-27T16:14:12Z</time>
      </trkpt>
      <trkpt lat="49.02877" lon="7.89314">
        <ele>381.9</ele>
        <time>2020-06-27T16:14:13Z</time>
      </trkpt>
      <trkpt lat="49.02877" lon="7.89335">
        <ele>381.2</ele>
        <time>2020-06-27T16:14:14Z</time>
      </trkpt>
      <trkpt lat="49.02874" lon="7.89355">
        <ele>380.3</ele>
        <time>2020-06-27T16:14:15Z</time>
      </trkpt>
      <trkpt lat="49.0287" lon="7.89376">
        <ele>379.3</ele>
        <time>2020-06-27T16:14:16Z</time>
      </trkpt>
      <trkpt lat="49.02867" lon="7.89395">
        <ele>378.4</ele>
        <time>2020-06-27T16:14:17Z</time>
      </trkpt>
      <trkpt lat="49.02864" lon="7.89416">
        <ele>377.5</ele>
        <time>2020-06-27T16:14:18Z</time>
      </trkpt>
      <trkpt lat="49.02861" lon="7.89436">
        <ele>376.6</ele>
        <time>2020-06-27T16:14:19Z</time>
      </trkpt>
      <trkpt lat="49.02857" lon="7.89456">
        <ele>375.7</ele>
        <time>2020-06-27T16:14:20Z</time>
      </trkpt>
      <trkpt lat="49.02853" lon="7.89476">
        <ele>374.8</ele>
        <time>2020-06-27T16:14:21Z</time>
      </trkpt>
      <trkpt lat="49.02849" lon="7.89495">
        <ele>373.9</ele>
        <time>2020-06-27T16:14:22Z</time>
      </trkpt>
      <trkpt lat="49.02847" lon="7.89515">
        <ele>373</ele>
        <time>2020-06-27T16:14:23Z</time>
      </trkpt>
      <trkpt lat="49.02845" lon="7.89535">
        <ele>372.2</ele>
        <time>2020-06-27T16:14:24Z</time>
      </trkpt>
      <trkpt lat="49.02844" lon="7.89554">
        <ele>371.5</ele>
        <time>2020-06-27T16:14:25Z</time>
      </trkpt>
      <trkpt lat="49.02845" lon="7.89575">
        <ele>370.7</ele>
        <time>2020-06-27T16:14:26Z</time>
      </trkpt>
      <trkpt lat="49.02845" lon="7.89595">
        <ele>369.9</ele>
        <time>2020-06-27T16:14:27Z</time>
      </trkpt>
      <trkpt lat="49.02846" lon="7.89616">
        <ele>369.1</ele>
        <time>2020-06-27T16:14:28Z</time>
      </trkpt>
      <trkpt lat="49.02847" lon="7.89636">
        <ele>368.4</ele>
        <time>2020-06-27T16:14:29Z</time>
      </trkpt>
      <trkpt lat="49.02848" lon="7.89656">
        <ele>367.6</ele>
        <time>2020-06-27T16:14:30Z</time>
      </trkpt>
      <trkpt lat="49.02849" lon="7.89674">
        <ele>366.8</ele>
        <time>2020-06-27T16:14:31Z</time>
      </trkpt>
      <trkpt lat="49.02851" lon="7.8969">
        <ele>366.1</ele>
        <time>2020-06-27T16:14:32Z</time>
      </trkpt>
      <trkpt lat="49.02854" lon="7.89706">
        <ele>365.3</ele>
        <time>2020-06-27T16:14:33Z</time>
      </trkpt>
      <trkpt lat="49.02855" lon="7.89722">
        <ele>364.6</ele>
        <time>2020-06-27T16:14:34Z</time>
      </trkpt>
      <trkpt lat="49.02858" lon="7.89736">
        <ele>364</ele>
        <time>2020-06-27T16:14:35Z</time>
      </trkpt>
      <trkpt lat="49.02859" lon="7.89749">
        <ele>363.4</ele>
        <time>2020-06-27T16:14:36Z</time>
      </trkpt>
      <trkpt lat="49.0286" lon="7.89761">
        <ele>362.9</ele>
        <time>2020-06-27T16:14:37Z</time>
      </trkpt>
      <trkpt lat="49.02859" lon="7.89772">
        <ele>362.4</ele>
        <time>2020-06-27T16:14:38Z</time>
      </trkpt>
      <trkpt lat="49.0286" lon="7.89781">
        <ele>362</ele>
        <time>2020-06-27T16:14:39Z</time>
      </trkpt>
      <trkpt lat="49.02857" lon="7.89788">
        <ele>361.6</ele>
        <time>2020-06-27T16:14:40Z</time>
      </trkpt>
      <trkpt lat="49.02853" lon="7.89793">
        <ele>359.6</ele>
        <time>2020-06-27T16:14:41Z</time>
      </trkpt>
      <trkpt lat="49.02847" lon="7.89792">
        <ele>359.1</ele>
        <time>2020-06-27T16:14:42Z</time>
      </trkpt>
      <trkpt lat="49.02841" lon="7.89787">
        <ele>358.4</ele>
        <time>2020-06-27T16:14:43Z</time>
      </trkpt>
      <trkpt lat="49.02836" lon="7.89778">
        <ele>357.7</ele>
        <time>2020-06-27T16:14:44Z</time>
      </trkpt>
      <trkpt lat="49.02832" lon="7.89769">
        <ele>357</ele>
        <time>2020-06-27T16:14:45Z</time>
      </trkpt>
      <trkpt lat="49.02827" lon="7.89759">
        <ele>356.3</ele>
        <time>2020-06-27T16:14:46Z</time>
      </trkpt>
      <trkpt lat="49.02822" lon="7.89748">
        <ele>355.6</ele>
        <time>2020-06-27T16:14:47Z</time>
      </trkpt>
      <trkpt lat="49.02817" lon="7.89736">
        <ele>354.9</ele>
        <time>2020-06-27T16:14:48Z</time>
      </trkpt>
      <trkpt lat="49.02811" lon="7.89723">
        <ele>354.3</ele>
        <time>2020-06-27T16:14:49Z</time>
      </trkpt>
      <trkpt lat="49.02807" lon="7.89709">
        <ele>353.6</ele>
        <time>2020-06-27T16:14:50Z</time>
      </trkpt>
      <trkpt lat="49.02804" lon="7.89694">
        <ele>353</ele>
        <time>2020-06-27T16:14:51Z</time>
      </trkpt>
      <trkpt lat="49.02803" lon="7.89678">
        <ele>352.5</ele>
        <time>2020-06-27T16:14:52Z</time>
      </trkpt>
      <trkpt lat="49.02803" lon="7.89663">
        <ele>352</ele>
        <time>2020-06-27T16:14:53Z</time>
      </trkpt>
      <trkpt lat="49.02802" lon="7.89648">
        <ele>351.6</ele>
        <time>2020-06-27T16:14:54Z</time>
      </trkpt>
      <trkpt lat="49.02803" lon="7.89633">
        <ele>351.1</ele>
        <time>2020-06-27T16:14:55Z</time>
      </trkpt>
      <trkpt lat="49.02801" lon="7.8962">
        <ele>350.7</ele>
        <time>2020-06-27T16:14:56Z</time>
      </trkpt>
      <trkpt lat="49.02799" lon="7.89611">
        <ele>350.4</ele>
        <time>2020-06-27T16:14:57Z</time>
      </trkpt>
      <trkpt lat="49.02795" lon="7.89604">
        <ele>350</ele>
        <time>2020-06-27T16:14:58Z</time>
      </trkpt>
      <trkpt lat="49.02789" lon="7.89602">
        <ele>349.7</ele>
        <time>2020-06-27T16:14:59Z</time>
      </trkpt>
      <trkpt lat="49.02783" lon="7.89605">
        <ele>349.3</ele>
        <time>2020-06-27T16:15:00Z</time>
      </trkpt>
      <trkpt lat="49.0278" lon="7.89613">
        <ele>348.9</ele>
        <time>2020-06-27T16:15:01Z</time>
      </trkpt>
      <trkpt lat="49.02779" lon="7.89624">
        <ele>348.5</ele>
        <time>2020-06-27T16:15:02Z</time>
      </trkpt>
      <trkpt lat="49.02778" lon="7.89636">
        <ele>348</ele>
        <time>2020-06-27T16:15:03Z</time>
      </trkpt>
      <trkpt lat="49.02775" lon="7.89649">
        <ele>347.6</ele>
        <time>2020-06-27T16:15:04Z</time>
      </trkpt>
      <trkpt lat="49.02775" lon="7.89663">
        <ele>347.2</ele>
        <time>2020-06-27T16:15:05Z</time>
      </trkpt>
      <trkpt lat="49.02773" lon="7.89677">
        <ele>346.8</ele>
        <time>2020-06-27T16:15:06Z</time>
      </trkpt>
      <trkpt lat="49.02768" lon="7.89691">
        <ele>346.4</ele>
        <time>2020-06-27T16:15:07Z</time>
      </trkpt>
      <trkpt lat="49.02764" lon="7.89706">
        <ele>345.9</ele>
        <time>2020-06-27T16:15:08Z</time>
      </trkpt>
      <trkpt lat="49.0276" lon="7.89722">
        <ele>345.5</ele>
        <time>2020-06-27T16:15:09Z</time>
      </trkpt>
      <trkpt lat="49.02756" lon="7.89738">
        <ele>345.2</ele>
        <time>2020-06-27T16:15:10Z</time>
      </trkpt>
      <trkpt lat="49.02751" lon="7.89754">
        <ele>344.8</ele>
        <time>2020-06-27T16:15:11Z</time>
      </trkpt>
      <trkpt lat="49.02745" lon="7.8977">
        <ele>344.2</ele>
        <time>2020-06-27T16:15:12Z</time>
      </trkpt>
      <trkpt lat="49.02741" lon="7.89788">
        <ele>343.5</ele>
        <time>2020-06-27T16:15:13Z</time>
      </trkpt>
      <trkpt lat="49.02734" lon="7.89803">
        <ele>342.7</ele>
        <time>2020-06-27T16:15:14Z</time>
      </trkpt>
      <trkpt lat="49.02728" lon="7.8982">
        <ele>342</ele>
        <time>2020-06-27T16:15:15Z</time>
      </trkpt>
      <trkpt lat="49.02723" lon="7.89837">
        <ele>341.2</ele>
        <time>2020-06-27T16:15:16Z</time>
      </trkpt>
      <trkpt lat="49.02719" lon="7.89855">
        <ele>340.5</ele>
        <time>2020-06-27T16:15:17Z</time>
      </trkpt>
      <trkpt lat="49.02715" lon="7.89873">
        <ele>339.6</ele>
        <time>2020-06-27T16:15:18Z</time>
      </trkpt>
      <trkpt lat="49.02713" lon="7.89892">
        <ele>338.9</ele>
        <time>2020-06-27T16:15:19Z</time>
      </trkpt>
      <trkpt lat="49.02711" lon="7.89912">
        <ele>338.3</ele>
        <time>2020-06-27T16:15:20Z</time>
      </trkpt>
      <trkpt lat="49.02708" lon="7.89932">
        <ele>337.8</ele>
        <time>2020-06-27T16:15:21Z</time>
      </trkpt>
      <trkpt lat="49.02706" lon="7.89951">
        <ele>337.2</ele>
        <time>2020-06-27T16:15:22Z</time>
      </trkpt>
      <trkpt lat="49.02705" lon="7.8997">
        <ele>336.7</ele>
        <time>2020-06-27T16:15:23Z</time>
      </trkpt>
      <trkpt lat="49.02707" lon="7.8999">
        <ele>336.2</ele>
        <time>2020-06-27T16:15:24Z</time>
      </trkpt>
      <trkpt lat="49.02709" lon="7.90009">
        <ele>335.7</ele>
        <time>2020-06-27T16:15:25Z</time>
      </trkpt>
      <trkpt lat="49.02711" lon="7.90028">
        <ele>335.1</ele>
        <time>2020-06-27T16:15:26Z</time>
      </trkpt>
      <trkpt lat="49.02713" lon="7.90044">
        <ele>334.7</ele>
        <time>2020-06-27T16:15:27Z</time>
      </trkpt>
      <trkpt lat="49.02717" lon="7.90057">
        <ele>334.6</ele>
        <time>2020-06-27T16:15:28Z</time>
      </trkpt>
      <trkpt lat="49.02723" lon="7.9007">
        <ele>334.5</ele>
        <time>2020-06-27T16:15:29Z</time>
      </trkpt>
      <trkpt lat="49.0273" lon="7.90084">
        <ele>334.4</ele>
        <time>2020-06-27T16:15:30Z</time>
      </trkpt>
      <trkpt lat="49.02737" lon="7.90097">
        <ele>334.3</ele>
        <time>2020-06-27T16:15:31Z</time>
      </trkpt>
      <trkpt lat="49.02745" lon="7.90111">
        <ele>334.1</ele>
        <time>2020-06-27T16:15:32Z</time>
      </trkpt>
      <trkpt lat="49.02755" lon="7.90125">
        <ele>333.6</ele>
        <time>2020-06-27T16:15:33Z</time>
      </trkpt>
      <trkpt lat="49.02763" lon="7.90137">
        <ele>332.9</ele>
        <time>2020-06-27T16:15:34Z</time>
      </trkpt>
      <trkpt lat="49.02771" lon="7.90149">
        <ele>331.9</ele>
        <time>2020-06-27T16:15:35Z</time>
      </trkpt>
      <trkpt lat="49.0278" lon="7.90162">
        <ele>330.7</ele>
        <time>2020-06-27T16:15:36Z</time>
      </trkpt>
      <trkpt lat="49.0279" lon="7.90175">
        <ele>329.7</ele>
        <time>2020-06-27T16:15:37Z</time>
      </trkpt>
      <trkpt lat="49.028" lon="7.90187">
        <ele>328.7</ele>
        <time>2020-06-27T16:15:38Z</time>
      </trkpt>
      <trkpt lat="49.0281" lon="7.902">
        <ele>327.4</ele>
        <time>2020-06-27T16:15:39Z</time>
      </trkpt>
      <trkpt lat="49.02819" lon="7.90215">
        <ele>325.6</ele>
        <time>2020-06-27T16:15:40Z</time>
      </trkpt>
      <trkpt lat="49.02826" lon="7.90233">
        <ele>323.6</ele>
        <time>2020-06-27T16:15:41Z</time>
      </trkpt>
      <trkpt lat="49.02829" lon="7.90252">
        <ele>321.9</ele>
        <time>2020-06-27T16:15:42Z</time>
      </trkpt>
      <trkpt lat="49.02833" lon="7.90271">
        <ele>320.5</ele>
        <time>2020-06-27T16:15:43Z</time>
      </trkpt>
      <trkpt lat="49.02836" lon="7.90291">
        <ele>319.5</ele>
        <time>2020-06-27T16:15:44Z</time>
      </trkpt>
      <trkpt lat="49.02839" lon="7.90312">
        <ele>318.7</ele>
        <time>2020-06-27T16:15:45Z</time>
      </trkpt>
      <trkpt lat="49.02839" lon="7.90333">
        <ele>318</ele>
        <time>2020-06-27T16:15:46Z</time>
      </trkpt>
      <trkpt lat="49.02841" lon="7.90353">
        <ele>317.3</ele>
        <time>2020-06-27T16:15:47Z</time>
      </trkpt>
      <trkpt lat="49.02844" lon="7.90373">
        <ele>315.4</ele>
        <time>2020-06-27T16:15:48Z</time>
      </trkpt>
      <trkpt lat="49.02845" lon="7.90394">
        <ele>314.6</ele>
        <time>2020-06-27T16:15:49Z</time>
      </trkpt>
      <trkpt lat="49.02847" lon="7.90415">
        <ele>313.9</ele>
        <time>2020-06-27T16:15:50Z</time>
      </trkpt>
      <trkpt lat="49.02847" lon="7.90438">
        <ele>313.2</ele>
        <time>2020-06-27T16:15:51Z</time>
      </trkpt>
      <trkpt lat="49.02848" lon="7.90459">
        <ele>312.5</ele>
        <time>2020-06-27T16:15:52Z</time>
      </trkpt>
      <trkpt lat="49.02853" lon="7.90479">
        <ele>311.6</ele>
        <time>2020-06-27T16:15:53Z</time>
      </trkpt>
      <trkpt lat="49.02855" lon="7.905">
        <ele>310.6</ele>
        <time>2020-06-27T16:15:54Z</time>
      </trkpt>
      <trkpt lat="49.02856" lon="7.90522">
        <ele>309.4</ele>
        <time>2020-06-27T16:15:55Z</time>
      </trkpt>
      <trkpt lat="49.02857" lon="7.90544">
        <ele>308.2</ele>
        <time>2020-06-27T16:15:56Z</time>
      </trkpt>
      <trkpt lat="49.02858" lon="7.90566">
        <ele>307.2</ele>
        <time>2020-06-27T16:15:57Z</time>
      </trkpt>
      <trkpt lat="49.0286" lon="7.90589">
        <ele>306.1</ele>
        <time>2020-06-27T16:15:58Z</time>
      </trkpt>
      <trkpt lat="49.02861" lon="7.90614">
        <ele>304.8</ele>
        <time>2020-06-27T16:15:59Z</time>
      </trkpt>
      <trkpt lat="49.02863" lon="7.90638">
        <ele>303.3</ele>
        <time>2020-06-27T16:16:00Z</time>
      </trkpt>
      <trkpt lat="49.02864" lon="7.90662">
        <ele>301.7</ele>
        <time>2020-06-27T16:16:01Z</time>
      </trkpt>
      <trkpt lat="49.02864" lon="7.90686">
        <ele>300.3</ele>
        <time>2020-06-27T16:16:02Z</time>
      </trkpt>
      <trkpt lat="49.02866" lon="7.9071">
        <ele>299.3</ele>
        <time>2020-06-27T16:16:03Z</time>
      </trkpt>
      <trkpt lat="49.02867" lon="7.90736">
        <ele>298.3</ele>
        <time>2020-06-27T16:16:04Z</time>
      </trkpt>
      <trkpt lat="49.02868" lon="7.90762">
        <ele>297.5</ele>
        <time>2020-06-27T16:16:05Z</time>
      </trkpt>
      <trkpt lat="49.02868" lon="7.90787">
        <ele>296.6</ele>
        <time>2020-06-27T16:16:06Z</time>
      </trkpt>
      <trkpt lat="49.02869" lon="7.90809">
        <ele>294.7</ele>
        <time>2020-06-27T16:16:07Z</time>
      </trkpt>
      <trkpt lat="49.02869" lon="7.9083">
        <ele>294</ele>
        <time>2020-06-27T16:16:08Z</time>
      </trkpt>
      <trkpt lat="49.02868" lon="7.90857">
        <ele>293.2</ele>
        <time>2020-06-27T16:16:09Z</time>
      </trkpt>
      <trkpt lat="49.02867" lon="7.90883">
        <ele>292.4</ele>
        <time>2020-06-27T16:16:10Z</time>
      </trkpt>
      <trkpt lat="49.02868" lon="7.90906">
        <ele>291.7</ele>
        <time>2020-06-27T16:16:11Z</time>
      </trkpt>
      <trkpt lat="49.02869" lon="7.90927">
        <ele>291</ele>
        <time>2020-06-27T16:16:12Z</time>
      </trkpt>
      <trkpt lat="49.0287" lon="7.9095">
        <ele>290.4</ele>
        <time>2020-06-27T16:16:13Z</time>
      </trkpt>
      <trkpt lat="49.02871" lon="7.90974">
        <ele>289.8</ele>
        <time>2020-06-27T16:16:14Z</time>
      </trkpt>
      <trkpt lat="49.02873" lon="7.90994">
        <ele>289.3</ele>
        <time>2020-06-27T16:16:15Z</time>
      </trkpt>
      <trkpt lat="49.02874" lon="7.91013">
        <ele>288.9</ele>
        <time>2020-06-27T16:16:16Z</time>
      </trkpt>
      <trkpt lat="49.02876" lon="7.91031">
        <ele>288.6</ele>
        <time>2020-06-27T16:16:17Z</time>
      </trkpt>
      <trkpt lat="49.02878" lon="7.91045">
        <ele>288.3</ele>
        <time>2020-06-27T16:16:18Z</time>
      </trkpt>
      <trkpt lat="49.02881" lon="7.91061">
        <ele>287.9</ele>
        <time>2020-06-27T16:16:19Z</time>
      </trkpt>
      <trkpt lat="49.02884" lon="7.91079">
        <ele>287.5</ele>
        <time>2020-06-27T16:16:20Z</time>
      </trkpt>
      <trkpt lat="49.02886" lon="7.91095">
        <ele>287.1</ele>
        <time>2020-06-27T16:16:21Z</time>
      </trkpt>
      <trkpt lat="49.02888" lon="7.91111">
        <ele>286.8</ele>
        <time>2020-06-27T16:16:22Z</time>
      </trkpt>
      <trkpt lat="49.02891" lon="7.91127">
        <ele>286.4</ele>
        <time>2020-06-27T16:16:23Z</time>
      </trkpt>
      <trkpt lat="49.02893" lon="7.91142">
        <ele>286.1</ele>
        <time>2020-06-27T16:16:24Z</time>
      </trkpt>
      <trkpt lat="49.02896" lon="7.91158">
        <ele>285.7</ele>
        <time>2020-06-27T16:16:25Z</time>
      </trkpt>
      <trkpt lat="49.02898" lon="7.91172">
        <ele>285.4</ele>
        <time>2020-06-27T16:16:26Z</time>
      </trkpt>
      <trkpt lat="49.029" lon="7.91186">
        <ele>285</ele>
        <time>2020-06-27T16:16:27Z</time>
      </trkpt>
      <trkpt lat="49.02904" lon="7.91201">
        <ele>284.7</ele>
        <time>2020-06-27T16:16:28Z</time>
      </trkpt>
      <trkpt lat="49.02907" lon="7.91215">
        <ele>284.3</ele>
        <time>2020-06-27T16:16:29Z</time>
      </trkpt>
      <trkpt lat="49.02908" lon="7.91231">
        <ele>283.9</ele>
        <time>2020-06-27T16:16:30Z</time>
      </trkpt>
      <trkpt lat="49.0291" lon="7.91248">
        <ele>283.5</ele>
        <time>2020-06-27T16:16:31Z</time>
      </trkpt>
      <trkpt lat="49.02912" lon="7.91261">
        <ele>283.3</ele>
        <time>2020-06-27T16:16:32Z</time>
      </trkpt>
      <trkpt lat="49.02913" lon="7.91272">
        <ele>283.1</ele>
        <time>2020-06-27T16:16:33Z</time>
      </trkpt>
      <trkpt lat="49.02915" lon="7.91281">
        <ele>282.9</ele>
        <time>2020-06-27T16:16:34Z</time>
      </trkpt>
      <trkpt lat="49.02916" lon="7.91289">
        <ele>282.8</ele>
        <time>2020-06-27T16:16:35Z</time>
      </trkpt>
      <trkpt lat="49.02917" lon="7.91296">
        <ele>282.6</ele>
        <time>2020-06-27T16:16:36Z</time>
      </trkpt>
      <trkpt lat="49.02919" lon="7.91302">
        <ele>282.5</ele>
        <time>2020-06-27T16:16:37Z</time>
      </trkpt>
      <trkpt lat="49.0292" lon="7.91307">
        <ele>282.4</ele>
        <time>2020-06-27T16:16:38Z</time>
      </trkpt>
      <trkpt lat="49.02923" lon="7.91311">
        <ele>282.3</ele>
        <time>2020-06-27T16:16:39Z</time>
      </trkpt>
      <trkpt lat="49.02924" lon="7.91312">
        <ele>282.3</ele>
        <time>2020-06-27T16:16:40Z</time>
      </trkpt>
      <trkpt lat="49.02925" lon="7.91314">
        <ele>282.2</ele>
        <time>2020-06-27T16:16:41Z</time>
      </trkpt>
      <trkpt lat="49.02925" lon="7.91315">
        <ele>282.2</ele>
        <time>2020-06-27T16:16:42Z</time>
      </trkpt>
      <trkpt lat="49.02925" lon="7.91316">
        <ele>282.2</ele>
        <time>2020-06-27T16:16:43Z</time>
      </trkpt>
      <trkpt lat="49.02925" lon="7.91317">
        <ele>282.2</ele>
        <time>2020-06-27T16:16:44Z</time>
      </trkpt>
      <trkpt lat="49.02926" lon="7.91318">
        <ele>282.2</ele>
        <time>2020-06-27T16:16:45Z</time>
      </trkpt>
      <trkpt lat="49.02926" lon="7.91318">
        <ele>282.2</ele>
        <time>2020-06-27T16:16:46Z</time>
      </trkpt>
      <trkpt lat="49.02926" lon="7.91319">
        <ele>282.2</ele>
        <time>2020-06-27T16:16:47Z</time>
      </trkpt>
      <trkpt lat="49.02927" lon="7.9132">
        <ele>282.2</ele>
        <time>2020-06-27T16:16:48Z</time>
      </trkpt>
      <trkpt lat="49.02927" lon="7.91321">
        <ele>282.1</ele>
        <time>2020-06-27T16:16:49Z</time>
      </trkpt>
      <trkpt lat="49.02927" lon="7.91322">
        <ele>282.1</ele>
        <time>2020-06-27T16:16:50Z</time>
      </trkpt>
      <trkpt lat="49.02927" lon="7.91322">
        <ele>282.1</ele>
        <time>2020-06-27T16:16:51Z</time>
      </trkpt>
      <trkpt lat="49.02928" lon="7.91323">
        <ele>282.1</ele>
        <time>2020-06-27T16:16:52Z</time>
      </trkpt>
      <trkpt lat="49.02928" lon="7.91324">
        <ele>282.1</ele>
        <time>2020-06-27T16:16:53Z</time>
      </trkpt>
      <trkpt lat="49.02928" lon="7.91325">
        <ele>282.1</ele>
        <time>2020-06-27T16:17:22Z</time>
      </trkpt>
      <trkpt lat="49.02928" lon="7.91326">
        <ele>282.1</ele>
        <time>2020-06-27T16:17:23Z</time>
      </trkpt>
      <trkpt lat="49.02929" lon="7.91331">
        <ele>282</ele>
        <time>2020-06-27T16:17:24Z</time>
      </trkpt>
      <trkpt lat="49.02929" lon="7.91334">
        <ele>282</ele>
        <time>2020-06-27T16:17:25Z</time>
      </trkpt>
      <trkpt lat="49.02927" lon="7.91339">
        <ele>281.9</ele>
        <time>2020-06-27T16:17:26Z</time>
      </trkpt>
      <trkpt lat="49.02927" lon="7.91341">
        <ele>281.8</ele>
        <time>2020-06-27T16:17:27Z</time>
      </trkpt>
      <trkpt lat="49.02927" lon="7.91346">
        <ele>281.8</ele>
        <time>2020-06-27T16:17:28Z</time>
      </trkpt>
      <trkpt lat="49.02927" lon="7.91352">
        <ele>281.7</ele>
        <time>2020-06-27T16:17:29Z</time>
      </trkpt>
      <trkpt lat="49.02928" lon="7.91357">
        <ele>281.7</ele>
        <time>2020-06-27T16:17:30Z</time>
      </trkpt>
      <trkpt lat="49.02928" lon="7.91363">
        <ele>281.6</ele>
        <time>2020-06-27T16:17:31Z</time>
      </trkpt>
      <trkpt lat="49.02929" lon="7.91369">
        <ele>281.6</ele>
        <time>2020-06-27T16:17:32Z</time>
      </trkpt>
      <trkpt lat="49.0293" lon="7.91374">
        <ele>281.5</ele>
        <time>2020-06-27T16:17:33Z</time>
      </trkpt>
      <trkpt lat="49.02931" lon="7.9138">
        <ele>281.5</ele>
        <time>2020-06-27T16:17:34Z</time>
      </trkpt>
      <trkpt lat="49.02931" lon="7.91385">
        <ele>281.4</ele>
        <time>2020-06-27T16:17:35Z</time>
      </trkpt>
      <trkpt lat="49.02933" lon="7.91391">
        <ele>281.3</ele>
        <time>2020-06-27T16:17:36Z</time>
      </trkpt>
      <trkpt lat="49.02934" lon="7.91397">
        <ele>281.3</ele>
        <time>2020-06-27T16:17:37Z</time>
      </trkpt>
      <trkpt lat="49.02936" lon="7.91402">
        <ele>281.2</ele>
        <time>2020-06-27T16:17:38Z</time>
      </trkpt>
      <trkpt lat="49.02936" lon="7.91408">
        <ele>281.1</ele>
        <time>2020-06-27T16:17:39Z</time>
      </trkpt>
      <trkpt lat="49.02937" lon="7.91414">
        <ele>281.1</ele>
        <time>2020-06-27T16:17:40Z</time>
      </trkpt>
      <trkpt lat="49.02937" lon="7.9142">
        <ele>281</ele>
        <time>2020-06-27T16:17:41Z</time>
      </trkpt>
      <trkpt lat="49.02938" lon="7.91427">
        <ele>280.9</ele>
        <time>2020-06-27T16:17:42Z</time>
      </trkpt>
      <trkpt lat="49.02939" lon="7.91433">
        <ele>280.8</ele>
        <time>2020-06-27T16:17:43Z</time>
      </trkpt>
      <trkpt lat="49.0294" lon="7.91439">
        <ele>280.8</ele>
        <time>2020-06-27T16:17:44Z</time>
      </trkpt>
      <trkpt lat="49.02941" lon="7.91446">
        <ele>280.7</ele>
        <time>2020-06-27T16:17:45Z</time>
      </trkpt>
      <trkpt lat="49.02942" lon="7.91453">
        <ele>280.6</ele>
        <time>2020-06-27T16:17:46Z</time>
      </trkpt>
      <trkpt lat="49.02943" lon="7.91459">
        <ele>280.5</ele>
        <time>2020-06-27T16:17:47Z</time>
      </trkpt>
      <trkpt lat="49.02945" lon="7.91466">
        <ele>280.5</ele>
        <time>2020-06-27T16:17:48Z</time>
      </trkpt>
      <trkpt lat="49.02946" lon="7.91471">
        <ele>280.4</ele>
        <time>2020-06-27T16:17:49Z</time>
      </trkpt>
      <trkpt lat="49.02947" lon="7.91476">
        <ele>280.4</ele>
        <time>2020-06-27T16:17:50Z</time>
      </trkpt>
      <trkpt lat="49.02948" lon="7.91481">
        <ele>280.3</ele>
        <time>2020-06-27T16:17:51Z</time>
      </trkpt>
      <trkpt lat="49.0295" lon="7.91485">
        <ele>280.3</ele>
        <time>2020-06-27T16:17:52Z</time>
      </trkpt>
      <trkpt lat="49.02949" lon="7.91489">
        <ele>280.2</ele>
        <time>2020-06-27T16:17:53Z</time>
      </trkpt>
      <trkpt lat="49.0295" lon="7.91492">
        <ele>280.2</ele>
        <time>2020-06-27T16:17:54Z</time>
      </trkpt>
      <trkpt lat="49.0295" lon="7.91494">
        <ele>280.2</ele>
        <time>2020-06-27T16:17:55Z</time>
      </trkpt>
      <trkpt lat="49.02951" lon="7.91494">
        <ele>280.2</ele>
        <time>2020-06-27T16:17:56Z</time>
      </trkpt>
      <trkpt lat="49.02951" lon="7.91494">
        <ele>280.1</ele>
        <time>2020-06-27T16:17:57Z</time>
      </trkpt>
      <trkpt lat="49.02951" lon="7.91494">
        <ele>280.1</ele>
        <time>2020-06-27T16:17:58Z</time>
      </trkpt>
      <trkpt lat="49.02951" lon="7.91493">
        <ele>280.1</ele>
        <time>2020-06-27T16:17:59Z</time>
      </trkpt>
      <trkpt lat="49.02951" lon="7.91493">
        <ele>280.1</ele>
        <time>2020-06-27T16:18:00Z</time>
      </trkpt>
      <trkpt lat="49.02952" lon="7.91493">
        <ele>280.1</ele>
        <time>2020-06-27T16:18:01Z</time>
      </trkpt>
      <trkpt lat="49.02952" lon="7.91493">
        <ele>280.1</ele>
        <time>2020-06-27T16:18:02Z</time>
      </trkpt>
      <trkpt lat="49.02951" lon="7.91492">
        <ele>280.1</ele>
        <time>2020-06-27T16:18:03Z</time>
      </trkpt>
      <trkpt lat="49.02951" lon="7.91492">
        <ele>280.1</ele>
        <time>2020-06-27T16:18:04Z</time>
      </trkpt>
      <trkpt lat="49.02951" lon="7.91492">
        <ele>280.1</ele>
        <time>2020-06-27T16:18:05Z</time>
      </trkpt>
      <trkpt lat="49.02951" lon="7.91492">
        <ele>280.1</ele>
        <time>2020-06-27T16:18:06Z</time>
      </trkpt>
      <trkpt lat="49.0295" lon="7.91498">
        <ele>280</ele>
        <time>2020-06-27T16:19:03Z</time>
      </trkpt>
      <trkpt lat="49.02952" lon="7.91501">
        <ele>280</ele>
        <time>2020-06-27T16:19:04Z</time>
      </trkpt>
      <trkpt lat="49.02954" lon="7.91505">
        <ele>279.9</ele>
        <time>2020-06-27T16:19:05Z</time>
      </trkpt>
      <trkpt lat="49.02955" lon="7.91507">
        <ele>279.9</ele>
        <time>2020-06-27T16:19:06Z</time>
      </trkpt>
      <trkpt lat="49.02956" lon="7.91511">
        <ele>279.9</ele>
        <time>2020-06-27T16:19:07Z</time>
      </trkpt>
      <trkpt lat="49.02958" lon="7.91515">
        <ele>279.8</ele>
        <time>2020-06-27T16:19:08Z</time>
      </trkpt>
      <trkpt lat="49.0296" lon="7.91519">
        <ele>279.8</ele>
        <time>2020-06-27T16:19:09Z</time>
      </trkpt>
      <trkpt lat="49.02961" lon="7.91524">
        <ele>279.7</ele>
        <time>2020-06-27T16:19:10Z</time>
      </trkpt>
      <trkpt lat="49.02962" lon="7.91528">
        <ele>279.7</ele>
        <time>2020-06-27T16:19:11Z</time>
      </trkpt>
      <trkpt lat="49.02964" lon="7.91533">
        <ele>279.6</ele>
        <time>2020-06-27T16:19:12Z</time>
      </trkpt>
      <trkpt lat="49.02966" lon="7.91539">
        <ele>279.6</ele>
        <time>2020-06-27T16:19:13Z</time>
      </trkpt>
      <trkpt lat="49.02969" lon="7.91544">
        <ele>279.5</ele>
        <time>2020-06-27T16:19:14Z</time>
      </trkpt>
      <trkpt lat="49.02971" lon="7.91551">
        <ele>279.4</ele>
        <time>2020-06-27T16:19:15Z</time>
      </trkpt>
      <trkpt lat="49.02973" lon="7.91556">
        <ele>279.4</ele>
        <time>2020-06-27T16:19:16Z</time>
      </trkpt>
      <trkpt lat="49.02976" lon="7.91562">
        <ele>279.3</ele>
        <time>2020-06-27T16:19:17Z</time>
      </trkpt>
      <trkpt lat="49.02978" lon="7.91567">
        <ele>279.3</ele>
        <time>2020-06-27T16:19:18Z</time>
      </trkpt>
      <trkpt lat="49.0298" lon="7.91572">
        <ele>279.2</ele>
        <time>2020-06-27T16:19:19Z</time>
      </trkpt>
      <trkpt lat="49.02982" lon="7.91578">
        <ele>279.2</ele>
        <time>2020-06-27T16:19:20Z</time>
      </trkpt>
      <trkpt lat="49.02985" lon="7.91583">
        <ele>279.1</ele>
        <time>2020-06-27T16:19:21Z</time>
      </trkpt>
      <trkpt lat="49.02987" lon="7.91589">
        <ele>279.1</ele>
        <time>2020-06-27T16:19:22Z</time>
      </trkpt>
      <trkpt lat="49.02989" lon="7.91595">
        <ele>279</ele>
        <time>2020-06-27T16:19:23Z</time>
      </trkpt>
      <trkpt lat="49.02992" lon="7.916">
        <ele>278.9</ele>
        <time>2020-06-27T16:19:24Z</time>
      </trkpt>
      <trkpt lat="49.02994" lon="7.91606">
        <ele>278.8</ele>
        <time>2020-06-27T16:19:25Z</time>
      </trkpt>
      <trkpt lat="49.02998" lon="7.91614">
        <ele>278.7</ele>
        <time>2020-06-27T16:19:26Z</time>
      </trkpt>
      <trkpt lat="49.03" lon="7.9162">
        <ele>278.6</ele>
        <time>2020-06-27T16:19:27Z</time>
      </trkpt>
      <trkpt lat="49.03003" lon="7.91627">
        <ele>278.4</ele>
        <time>2020-06-27T16:19:28Z</time>
      </trkpt>
      <trkpt lat="49.03005" lon="7.91634">
        <ele>278.3</ele>
        <time>2020-06-27T16:19:29Z</time>
      </trkpt>
      <trkpt lat="49.03008" lon="7.9164">
        <ele>278.2</ele>
        <time>2020-06-27T16:19:30Z</time>
      </trkpt>
      <trkpt lat="49.0301" lon="7.91647">
        <ele>278</ele>
        <time>2020-06-27T16:19:31Z</time>
      </trkpt>
      <trkpt lat="49.03013" lon="7.91653">
        <ele>277.9</ele>
        <time>2020-06-27T16:19:32Z</time>
      </trkpt>
      <trkpt lat="49.03016" lon="7.91659">
        <ele>277.8</ele>
        <time>2020-06-27T16:19:33Z</time>
      </trkpt>
      <trkpt lat="49.0302" lon="7.91666">
        <ele>277.6</ele>
        <time>2020-06-27T16:19:34Z</time>
      </trkpt>
      <trkpt lat="49.03022" lon="7.91674">
        <ele>277.5</ele>
        <time>2020-06-27T16:19:35Z</time>
      </trkpt>
      <trkpt lat="49.03025" lon="7.91684">
        <ele>277.3</ele>
        <time>2020-06-27T16:19:36Z</time>
      </trkpt>
      <trkpt lat="49.03027" lon="7.91693">
        <ele>277.1</ele>
        <time>2020-06-27T16:19:37Z</time>
      </trkpt>
      <trkpt lat="49.0303" lon="7.91702">
        <ele>277</ele>
        <time>2020-06-27T16:19:38Z</time>
      </trkpt>
      <trkpt lat="49.03033" lon="7.9171">
        <ele>276.9</ele>
        <time>2020-06-27T16:19:39Z</time>
      </trkpt>
      <trkpt lat="49.03035" lon="7.91719">
        <ele>276.7</ele>
        <time>2020-06-27T16:19:40Z</time>
      </trkpt>
      <trkpt lat="49.03039" lon="7.91727">
        <ele>276.6</ele>
        <time>2020-06-27T16:19:41Z</time>
      </trkpt>
      <trkpt lat="49.03042" lon="7.91736">
        <ele>276.4</ele>
        <time>2020-06-27T16:19:42Z</time>
      </trkpt>
      <trkpt lat="49.03046" lon="7.91746">
        <ele>276.2</ele>
        <time>2020-06-27T16:19:43Z</time>
      </trkpt>
      <trkpt lat="49.03049" lon="7.91756">
        <ele>276</ele>
        <time>2020-06-27T16:19:44Z</time>
      </trkpt>
      <trkpt lat="49.03053" lon="7.91765">
        <ele>275.8</ele>
        <time>2020-06-27T16:19:45Z</time>
      </trkpt>
      <trkpt lat="49.03057" lon="7.91773">
        <ele>275.6</ele>
        <time>2020-06-27T16:19:46Z</time>
      </trkpt>
      <trkpt lat="49.03059" lon="7.9178">
        <ele>275.4</ele>
        <time>2020-06-27T16:19:47Z</time>
      </trkpt>
      <trkpt lat="49.03061" lon="7.91785">
        <ele>275.3</ele>
        <time>2020-06-27T16:19:48Z</time>
      </trkpt>
      <trkpt lat="49.03062" lon="7.91788">
        <ele>275.2</ele>
        <time>2020-06-27T16:19:49Z</time>
      </trkpt>
      <trkpt lat="49.03063" lon="7.9179">
        <ele>275.1</ele>
        <time>2020-06-27T16:19:50Z</time>
      </trkpt>
      <trkpt lat="49.03063" lon="7.91793">
        <ele>275.1</ele>
        <time>2020-06-27T16:19:51Z</time>
      </trkpt>
      <trkpt lat="49.03063" lon="7.91795">
        <ele>275.1</ele>
        <time>2020-06-27T16:19:52Z</time>
      </trkpt>
      <trkpt lat="49.03063" lon="7.91797">
        <ele>275</ele>
        <time>2020-06-27T16:19:53Z</time>
      </trkpt>
      <trkpt lat="49.03064" lon="7.91798">
        <ele>275</ele>
        <time>2020-06-27T16:19:54Z</time>
      </trkpt>
      <trkpt lat="49.03064" lon="7.91798">
        <ele>275</ele>
        <time>2020-06-27T16:19:55Z</time>
      </trkpt>
      <trkpt lat="49.03063" lon="7.91798">
        <ele>275</ele>
        <time>2020-06-27T16:19:56Z</time>
      </trkpt>
      <trkpt lat="49.03063" lon="7.91798">
        <ele>275</ele>
        <time>2020-06-27T16:19:57Z</time>
      </trkpt>
      <trkpt lat="49.03063" lon="7.918">
        <ele>274.9</ele>
        <time>2020-06-27T16:19:58Z</time>
      </trkpt>
      <trkpt lat="49.03063" lon="7.918">
        <ele>274.9</ele>
        <time>2020-06-27T16:19:59Z</time>
      </trkpt>
      <trkpt lat="49.03063" lon="7.91801">
        <ele>274.9</ele>
        <time>2020-06-27T16:20:00Z</time>
      </trkpt>
      <trkpt lat="49.03063" lon="7.918">
        <ele>274.9</ele>
        <time>2020-06-27T16:20:01Z</time>
      </trkpt>
      <trkpt lat="49.03063" lon="7.91802">
        <ele>274.9</ele>
        <time>2020-06-27T16:20:02Z</time>
      </trkpt>
      <trkpt lat="49.03064" lon="7.91802">
        <ele>274.9</ele>
        <time>2020-06-27T16:20:03Z</time>
      </trkpt>
      <trkpt lat="49.03064" lon="7.91803">
        <ele>274.9</ele>
        <time>2020-06-27T16:20:04Z</time>
      </trkpt>
      <trkpt lat="49.03065" lon="7.91806">
        <ele>274.8</ele>
        <time>2020-06-27T16:20:08Z</time>
      </trkpt>
      <trkpt lat="49.03066" lon="7.91808">
        <ele>274.7</ele>
        <time>2020-06-27T16:20:09Z</time>
      </trkpt>
      <trkpt lat="49.03067" lon="7.91809">
        <ele>274.7</ele>
        <time>2020-06-27T16:20:10Z</time>
      </trkpt>
      <trkpt lat="49.03069" lon="7.91812">
        <ele>274.6</ele>
        <time>2020-06-27T16:20:11Z</time>
      </trkpt>
      <trkpt lat="49.03071" lon="7.91818">
        <ele>274.5</ele>
        <time>2020-06-27T16:20:12Z</time>
      </trkpt>
      <trkpt lat="49.03072" lon="7.91822">
        <ele>274.3</ele>
        <time>2020-06-27T16:20:13Z</time>
      </trkpt>
      <trkpt lat="49.03072" lon="7.91827">
        <ele>274.2</ele>
        <time>2020-06-27T16:20:14Z</time>
      </trkpt>
      <trkpt lat="49.03073" lon="7.91833">
        <ele>274.1</ele>
        <time>2020-06-27T16:20:15Z</time>
      </trkpt>
      <trkpt lat="49.03076" lon="7.9184">
        <ele>273.9</ele>
        <time>2020-06-27T16:20:16Z</time>
      </trkpt>
      <trkpt lat="49.03078" lon="7.91847">
        <ele>273.8</ele>
        <time>2020-06-27T16:20:17Z</time>
      </trkpt>
      <trkpt lat="49.0308" lon="7.91853">
        <ele>273.6</ele>
        <time>2020-06-27T16:20:18Z</time>
      </trkpt>
      <trkpt lat="49.03082" lon="7.91859">
        <ele>273.5</ele>
        <time>2020-06-27T16:20:19Z</time>
      </trkpt>
      <trkpt lat="49.03082" lon="7.91868">
        <ele>273.4</ele>
        <time>2020-06-27T16:20:20Z</time>
      </trkpt>
      <trkpt lat="49.03082" lon="7.91875">
        <ele>273.2</ele>
        <time>2020-06-27T16:20:21Z</time>
      </trkpt>
      <trkpt lat="49.0308" lon="7.91884">
        <ele>273</ele>
        <time>2020-06-27T16:20:22Z</time>
      </trkpt>
      <trkpt lat="49.03077" lon="7.91894">
        <ele>272.7</ele>
        <time>2020-06-27T16:20:23Z</time>
      </trkpt>
      <trkpt lat="49.03074" lon="7.91902">
        <ele>272.4</ele>
        <time>2020-06-27T16:20:24Z</time>
      </trkpt>
      <trkpt lat="49.03071" lon="7.91909">
        <ele>272.2</ele>
        <time>2020-06-27T16:20:25Z</time>
      </trkpt>
      <trkpt lat="49.03068" lon="7.91915">
        <ele>271.9</ele>
        <time>2020-06-27T16:20:26Z</time>
      </trkpt>
      <trkpt lat="49.03065" lon="7.91918">
        <ele>271.8</ele>
        <time>2020-06-27T16:20:27Z</time>
      </trkpt>
      <trkpt lat="49.03063" lon="7.91921">
        <ele>271.6</ele>
        <time>2020-06-27T16:20:28Z</time>
      </trkpt>
      <trkpt lat="49.0306" lon="7.91925">
        <ele>271.4</ele>
        <time>2020-06-27T16:20:29Z</time>
      </trkpt>
      <trkpt lat="49.03058" lon="7.9193">
        <ele>271.3</ele>
        <time>2020-06-27T16:20:30Z</time>
      </trkpt>
      <trkpt lat="49.03057" lon="7.91934">
        <ele>271.1</ele>
        <time>2020-06-27T16:20:31Z</time>
      </trkpt>
      <trkpt lat="49.03055" lon="7.91937">
        <ele>271</ele>
        <time>2020-06-27T16:20:32Z</time>
      </trkpt>
      <trkpt lat="49.03055" lon="7.91942">
        <ele>270.8</ele>
        <time>2020-06-27T16:20:33Z</time>
      </trkpt>
      <trkpt lat="49.03054" lon="7.91948">
        <ele>270.9</ele>
        <time>2020-06-27T16:20:34Z</time>
      </trkpt>
      <trkpt lat="49.03055" lon="7.91953">
        <ele>271</ele>
        <time>2020-06-27T16:20:35Z</time>
      </trkpt>
      <trkpt lat="49.03056" lon="7.91957">
        <ele>271</ele>
        <time>2020-06-27T16:20:36Z</time>
      </trkpt>
      <trkpt lat="49.03058" lon="7.91961">
        <ele>271</ele>
        <time>2020-06-27T16:20:37Z</time>
      </trkpt>
      <trkpt lat="49.03059" lon="7.91965">
        <ele>271</ele>
        <time>2020-06-27T16:20:38Z</time>
      </trkpt>
      <trkpt lat="49.03061" lon="7.91967">
        <ele>271</ele>
        <time>2020-06-27T16:20:39Z</time>
      </trkpt>
      <trkpt lat="49.03061" lon="7.91969">
        <ele>271</ele>
        <time>2020-06-27T16:20:40Z</time>
      </trkpt>
      <trkpt lat="49.03063" lon="7.91973">
        <ele>271</ele>
        <time>2020-06-27T16:20:41Z</time>
      </trkpt>
      <trkpt lat="49.03063" lon="7.91975">
        <ele>271</ele>
        <time>2020-06-27T16:20:42Z</time>
      </trkpt>
      <trkpt lat="49.03064" lon="7.9198">
        <ele>271</ele>
        <time>2020-06-27T16:20:43Z</time>
      </trkpt>
      <trkpt lat="49.03064" lon="7.91985">
        <ele>271</ele>
        <time>2020-06-27T16:20:44Z</time>
      </trkpt>
      <trkpt lat="49.03065" lon="7.9199">
        <ele>270.9</ele>
        <time>2020-06-27T16:20:45Z</time>
      </trkpt>
      <trkpt lat="49.03064" lon="7.91994">
        <ele>270.9</ele>
        <time>2020-06-27T16:20:46Z</time>
      </trkpt>
      <trkpt lat="49.03064" lon="7.91999">
        <ele>270.9</ele>
        <time>2020-06-27T16:20:47Z</time>
      </trkpt>
      <trkpt lat="49.03064" lon="7.92003">
        <ele>270.9</ele>
        <time>2020-06-27T16:20:48Z</time>
      </trkpt>
      <trkpt lat="49.03067" lon="7.92009">
        <ele>270.8</ele>
        <time>2020-06-27T16:20:49Z</time>
      </trkpt>
      <trkpt lat="49.03069" lon="7.92014">
        <ele>270.8</ele>
        <time>2020-06-27T16:20:50Z</time>
      </trkpt>
      <trkpt lat="49.03071" lon="7.9202">
        <ele>270.8</ele>
        <time>2020-06-27T16:20:51Z</time>
      </trkpt>
      <trkpt lat="49.03072" lon="7.92026">
        <ele>270.7</ele>
        <time>2020-06-27T16:20:52Z</time>
      </trkpt>
      <trkpt lat="49.03074" lon="7.92032">
        <ele>270.6</ele>
        <time>2020-06-27T16:20:53Z</time>
      </trkpt>
      <trkpt lat="49.03076" lon="7.92038">
        <ele>270.6</ele>
        <time>2020-06-27T16:20:54Z</time>
      </trkpt>
      <trkpt lat="49.03078" lon="7.92045">
        <ele>270.5</ele>
        <time>2020-06-27T16:20:55Z</time>
      </trkpt>
      <trkpt lat="49.03081" lon="7.92052">
        <ele>270.3</ele>
        <time>2020-06-27T16:20:56Z</time>
      </trkpt>
      <trkpt lat="49.03084" lon="7.9206">
        <ele>270.2</ele>
        <time>2020-06-27T16:20:57Z</time>
      </trkpt>
      <trkpt lat="49.03085" lon="7.92067">
        <ele>270.2</ele>
        <time>2020-06-27T16:20:58Z</time>
      </trkpt>
      <trkpt lat="49.03086" lon="7.92075">
        <ele>270.1</ele>
        <time>2020-06-27T16:20:59Z</time>
      </trkpt>
      <trkpt lat="49.03088" lon="7.92082">
        <ele>270</ele>
        <time>2020-06-27T16:21:00Z</time>
      </trkpt>
      <trkpt lat="49.0309" lon="7.92089">
        <ele>270</ele>
        <time>2020-06-27T16:21:01Z</time>
      </trkpt>
      <trkpt lat="49.03092" lon="7.92095">
        <ele>269.9</ele>
        <time>2020-06-27T16:21:02Z</time>
      </trkpt>
      <trkpt lat="49.03093" lon="7.921">
        <ele>269.9</ele>
        <time>2020-06-27T16:21:03Z</time>
      </trkpt>
      <trkpt lat="49.03095" lon="7.92106">
        <ele>269.8</ele>
        <time>2020-06-27T16:21:04Z</time>
      </trkpt>
      <trkpt lat="49.03096" lon="7.92112">
        <ele>269.8</ele>
        <time>2020-06-27T16:21:05Z</time>
      </trkpt>
      <trkpt lat="49.03098" lon="7.92119">
        <ele>269.7</ele>
        <time>2020-06-27T16:21:06Z</time>
      </trkpt>
      <trkpt lat="49.031" lon="7.92126">
        <ele>269.6</ele>
        <time>2020-06-27T16:21:07Z</time>
      </trkpt>
      <trkpt lat="49.03102" lon="7.92132">
        <ele>269.5</ele>
        <time>2020-06-27T16:21:08Z</time>
      </trkpt>
      <trkpt lat="49.03104" lon="7.92139">
        <ele>269.4</ele>
        <time>2020-06-27T16:21:09Z</time>
      </trkpt>
      <trkpt lat="49.03105" lon="7.92145">
        <ele>269.3</ele>
        <time>2020-06-27T16:21:10Z</time>
      </trkpt>
      <trkpt lat="49.03107" lon="7.92151">
        <ele>269.2</ele>
        <time>2020-06-27T16:21:11Z</time>
      </trkpt>
      <trkpt lat="49.03109" lon="7.92158">
        <ele>269.1</ele>
        <time>2020-06-27T16:21:12Z</time>
      </trkpt>
      <trkpt lat="49.03112" lon="7.92164">
        <ele>269</ele>
        <time>2020-06-27T16:21:13Z</time>
      </trkpt>
      <trkpt lat="49.03113" lon="7.9217">
        <ele>268.9</ele>
        <time>2020-06-27T16:21:14Z</time>
      </trkpt>
      <trkpt lat="49.03117" lon="7.92177">
        <ele>268.7</ele>
        <time>2020-06-27T16:21:15Z</time>
      </trkpt>
      <trkpt lat="49.03119" lon="7.92184">
        <ele>268.5</ele>
        <time>2020-06-27T16:21:16Z</time>
      </trkpt>
      <trkpt lat="49.03121" lon="7.9219">
        <ele>268.4</ele>
        <time>2020-06-27T16:21:17Z</time>
      </trkpt>
      <trkpt lat="49.03123" lon="7.92195">
        <ele>268.2</ele>
        <time>2020-06-27T16:21:18Z</time>
      </trkpt>
      <trkpt lat="49.03125" lon="7.92201">
        <ele>268</ele>
        <time>2020-06-27T16:21:19Z</time>
      </trkpt>
      <trkpt lat="49.03126" lon="7.92208">
        <ele>267.9</ele>
        <time>2020-06-27T16:21:20Z</time>
      </trkpt>
      <trkpt lat="49.03129" lon="7.92214">
        <ele>267.7</ele>
        <time>2020-06-27T16:21:21Z</time>
      </trkpt>
      <trkpt lat="49.03131" lon="7.92221">
        <ele>267.5</ele>
        <time>2020-06-27T16:21:22Z</time>
      </trkpt>
      <trkpt lat="49.03133" lon="7.92227">
        <ele>267.4</ele>
        <time>2020-06-27T16:21:23Z</time>
      </trkpt>
      <trkpt lat="49.03134" lon="7.92234">
        <ele>267.3</ele>
        <time>2020-06-27T16:21:24Z</time>
      </trkpt>
      <trkpt lat="49.03136" lon="7.92241">
        <ele>267.2</ele>
        <time>2020-06-27T16:21:25Z</time>
      </trkpt>
      <trkpt lat="49.03137" lon="7.9225">
        <ele>267.1</ele>
        <time>2020-06-27T16:21:26Z</time>
      </trkpt>
      <trkpt lat="49.03137" lon="7.9226">
        <ele>267.1</ele>
        <time>2020-06-27T16:21:27Z</time>
      </trkpt>
      <trkpt lat="49.03137" lon="7.92269">
        <ele>267</ele>
        <time>2020-06-27T16:21:28Z</time>
      </trkpt>
      <trkpt lat="49.03137" lon="7.92278">
        <ele>267</ele>
        <time>2020-06-27T16:21:29Z</time>
      </trkpt>
      <trkpt lat="49.03137" lon="7.92285">
        <ele>267</ele>
        <time>2020-06-27T16:21:30Z</time>
      </trkpt>
      <trkpt lat="49.03137" lon="7.92292">
        <ele>266.9</ele>
        <time>2020-06-27T16:21:31Z</time>
      </trkpt>
      <trkpt lat="49.03137" lon="7.92298">
        <ele>266.9</ele>
        <time>2020-06-27T16:21:32Z</time>
      </trkpt>
      <trkpt lat="49.03136" lon="7.92305">
        <ele>266.8</ele>
        <time>2020-06-27T16:21:33Z</time>
      </trkpt>
      <trkpt lat="49.03135" lon="7.92311">
        <ele>266.6</ele>
        <time>2020-06-27T16:21:34Z</time>
      </trkpt>
      <trkpt lat="49.03134" lon="7.92317">
        <ele>266.5</ele>
        <time>2020-06-27T16:21:35Z</time>
      </trkpt>
      <trkpt lat="49.03133" lon="7.92323">
        <ele>266.3</ele>
        <time>2020-06-27T16:21:36Z</time>
      </trkpt>
      <trkpt lat="49.03132" lon="7.9233">
        <ele>266.1</ele>
        <time>2020-06-27T16:21:37Z</time>
      </trkpt>
      <trkpt lat="49.03131" lon="7.92339">
        <ele>265.8</ele>
        <time>2020-06-27T16:21:38Z</time>
      </trkpt>
      <trkpt lat="49.0313" lon="7.92348">
        <ele>265.3</ele>
        <time>2020-06-27T16:21:39Z</time>
      </trkpt>
      <trkpt lat="49.03131" lon="7.92356">
        <ele>264.9</ele>
        <time>2020-06-27T16:21:40Z</time>
      </trkpt>
      <trkpt lat="49.03129" lon="7.92362">
        <ele>264.6</ele>
        <time>2020-06-27T16:21:41Z</time>
      </trkpt>
      <trkpt lat="49.03128" lon="7.9237">
        <ele>264.1</ele>
        <time>2020-06-27T16:21:42Z</time>
      </trkpt>
      <trkpt lat="49.03128" lon="7.92377">
        <ele>263.7</ele>
        <time>2020-06-27T16:21:43Z</time>
      </trkpt>
      <trkpt lat="49.03127" lon="7.92384">
        <ele>263.2</ele>
        <time>2020-06-27T16:21:44Z</time>
      </trkpt>
      <trkpt lat="49.03127" lon="7.92392">
        <ele>262.7</ele>
        <time>2020-06-27T16:21:45Z</time>
      </trkpt>
      <trkpt lat="49.03127" lon="7.92399">
        <ele>262.1</ele>
        <time>2020-06-27T16:21:46Z</time>
      </trkpt>
      <trkpt lat="49.03125" lon="7.92404">
        <ele>261.6</ele>
        <time>2020-06-27T16:21:47Z</time>
      </trkpt>
      <trkpt lat="49.03122" lon="7.92409">
        <ele>261.1</ele>
        <time>2020-06-27T16:21:48Z</time>
      </trkpt>
      <trkpt lat="49.0312" lon="7.92416">
        <ele>260.4</ele>
        <time>2020-06-27T16:21:49Z</time>
      </trkpt>
      <trkpt lat="49.03117" lon="7.92422">
        <ele>259.8</ele>
        <time>2020-06-27T16:21:50Z</time>
      </trkpt>
      <trkpt lat="49.03115" lon="7.92428">
        <ele>259.3</ele>
        <time>2020-06-27T16:21:51Z</time>
      </trkpt>
      <trkpt lat="49.03113" lon="7.92436">
        <ele>258.7</ele>
        <time>2020-06-27T16:21:52Z</time>
      </trkpt>
      <trkpt lat="49.03111" lon="7.92443">
        <ele>258.1</ele>
        <time>2020-06-27T16:21:53Z</time>
      </trkpt>
      <trkpt lat="49.0311" lon="7.9245">
        <ele>257.7</ele>
        <time>2020-06-27T16:21:54Z</time>
      </trkpt>
      <trkpt lat="49.03108" lon="7.92455">
        <ele>257.3</ele>
        <time>2020-06-27T16:21:55Z</time>
      </trkpt>
      <trkpt lat="49.03108" lon="7.9246">
        <ele>256.7</ele>
        <time>2020-06-27T16:21:56Z</time>
      </trkpt>
      <trkpt lat="49.03107" lon="7.92463">
        <ele>256.5</ele>
        <time>2020-06-27T16:21:57Z</time>
      </trkpt>
      <trkpt lat="49.03106" lon="7.92463">
        <ele>256.4</ele>
        <time>2020-06-27T16:21:58Z</time>
      </trkpt>
      <trkpt lat="49.03106" lon="7.92463">
        <ele>256.3</ele>
        <time>2020-06-27T16:21:59Z</time>
      </trkpt>
      <trkpt lat="49.03106" lon="7.92461">
        <ele>256.2</ele>
        <time>2020-06-27T16:22:00Z</time>
      </trkpt>
      <trkpt lat="49.03106" lon="7.9246">
        <ele>256.2</ele>
        <time>2020-06-27T16:22:01Z</time>
      </trkpt>
      <trkpt lat="49.03106" lon="7.9246">
        <ele>256.2</ele>
        <time>2020-06-27T16:22:02Z</time>
      </trkpt>
      <trkpt lat="49.03106" lon="7.92458">
        <ele>256</ele>
        <time>2020-06-27T16:22:03Z</time>
      </trkpt>
      <trkpt lat="49.03106" lon="7.9246">
        <ele>255.9</ele>
        <time>2020-06-27T16:22:04Z</time>
      </trkpt>
      <trkpt lat="49.03105" lon="7.92462">
        <ele>255.7</ele>
        <time>2020-06-27T16:22:05Z</time>
      </trkpt>
      <trkpt lat="49.03104" lon="7.92464">
        <ele>255.6</ele>
        <time>2020-06-27T16:22:06Z</time>
      </trkpt>
      <trkpt lat="49.03104" lon="7.92466">
        <ele>255.4</ele>
        <time>2020-06-27T16:22:07Z</time>
      </trkpt>
      <trkpt lat="49.03103" lon="7.92468">
        <ele>255.2</ele>
        <time>2020-06-27T16:22:08Z</time>
      </trkpt>
      <trkpt lat="49.03102" lon="7.92471">
        <ele>255.1</ele>
        <time>2020-06-27T16:22:29Z</time>
      </trkpt>
      <trkpt lat="49.03101" lon="7.92473">
        <ele>254.9</ele>
        <time>2020-06-27T16:22:30Z</time>
      </trkpt>
      <trkpt lat="49.031" lon="7.92475">
        <ele>254.7</ele>
        <time>2020-06-27T16:22:31Z</time>
      </trkpt>
      <trkpt lat="49.03099" lon="7.92479">
        <ele>254.5</ele>
        <time>2020-06-27T16:22:32Z</time>
      </trkpt>
      <trkpt lat="49.03097" lon="7.92486">
        <ele>254</ele>
        <time>2020-06-27T16:22:33Z</time>
      </trkpt>
      <trkpt lat="49.03095" lon="7.92494">
        <ele>253.5</ele>
        <time>2020-06-27T16:22:34Z</time>
      </trkpt>
      <trkpt lat="49.03092" lon="7.925">
        <ele>253.1</ele>
        <time>2020-06-27T16:22:35Z</time>
      </trkpt>
      <trkpt lat="49.03091" lon="7.9251">
        <ele>252.6</ele>
        <time>2020-06-27T16:22:36Z</time>
      </trkpt>
      <trkpt lat="49.03091" lon="7.92517">
        <ele>252.3</ele>
        <time>2020-06-27T16:22:37Z</time>
      </trkpt>
      <trkpt lat="49.0309" lon="7.92522">
        <ele>252.1</ele>
        <time>2020-06-27T16:22:38Z</time>
      </trkpt>
      <trkpt lat="49.0309" lon="7.92527">
        <ele>251.9</ele>
        <time>2020-06-27T16:22:39Z</time>
      </trkpt>
      <trkpt lat="49.03089" lon="7.92532">
        <ele>251.7</ele>
        <time>2020-06-27T16:22:40Z</time>
      </trkpt>
      <trkpt lat="49.03088" lon="7.92538">
        <ele>251.5</ele>
        <time>2020-06-27T16:22:41Z</time>
      </trkpt>
      <trkpt lat="49.03088" lon="7.92544">
        <ele>251.2</ele>
        <time>2020-06-27T16:22:42Z</time>
      </trkpt>
      <trkpt lat="49.03086" lon="7.92551">
        <ele>250.9</ele>
        <time>2020-06-27T16:22:43Z</time>
      </trkpt>
      <trkpt lat="49.03085" lon="7.9256">
        <ele>250.6</ele>
        <time>2020-06-27T16:22:44Z</time>
      </trkpt>
      <trkpt lat="49.03082" lon="7.92568">
        <ele>250.3</ele>
        <time>2020-06-27T16:22:45Z</time>
      </trkpt>
      <trkpt lat="49.0308" lon="7.92577">
        <ele>250</ele>
        <time>2020-06-27T16:22:46Z</time>
      </trkpt>
      <trkpt lat="49.03079" lon="7.92584">
        <ele>249.7</ele>
        <time>2020-06-27T16:22:47Z</time>
      </trkpt>
      <trkpt lat="49.03076" lon="7.92594">
        <ele>249.3</ele>
        <time>2020-06-27T16:22:48Z</time>
      </trkpt>
      <trkpt lat="49.03074" lon="7.92602">
        <ele>249</ele>
        <time>2020-06-27T16:22:49Z</time>
      </trkpt>
      <trkpt lat="49.03071" lon="7.9261">
        <ele>248.7</ele>
        <time>2020-06-27T16:22:50Z</time>
      </trkpt>
      <trkpt lat="49.03069" lon="7.92615">
        <ele>248.4</ele>
        <time>2020-06-27T16:22:51Z</time>
      </trkpt>
      <trkpt lat="49.03067" lon="7.92623">
        <ele>248.1</ele>
        <time>2020-06-27T16:22:52Z</time>
      </trkpt>
      <trkpt lat="49.03065" lon="7.92631">
        <ele>247.7</ele>
        <time>2020-06-27T16:22:53Z</time>
      </trkpt>
      <trkpt lat="49.03062" lon="7.9264">
        <ele>247.3</ele>
        <time>2020-06-27T16:22:54Z</time>
      </trkpt>
      <trkpt lat="49.03059" lon="7.92648">
        <ele>246.9</ele>
        <time>2020-06-27T16:22:55Z</time>
      </trkpt>
      <trkpt lat="49.03056" lon="7.92657">
        <ele>246.4</ele>
        <time>2020-06-27T16:22:56Z</time>
      </trkpt>
      <trkpt lat="49.03053" lon="7.92663">
        <ele>246</ele>
        <time>2020-06-27T16:22:57Z</time>
      </trkpt>
      <trkpt lat="49.03051" lon="7.9267">
        <ele>245.6</ele>
        <time>2020-06-27T16:22:58Z</time>
      </trkpt>
      <trkpt lat="49.03049" lon="7.92678">
        <ele>245.2</ele>
        <time>2020-06-27T16:22:59Z</time>
      </trkpt>
      <trkpt lat="49.03046" lon="7.92685">
        <ele>244.8</ele>
        <time>2020-06-27T16:23:00Z</time>
      </trkpt>
      <trkpt lat="49.03043" lon="7.92692">
        <ele>244.4</ele>
        <time>2020-06-27T16:23:01Z</time>
      </trkpt>
      <trkpt lat="49.0304" lon="7.92699">
        <ele>244</ele>
        <time>2020-06-27T16:23:02Z</time>
      </trkpt>
      <trkpt lat="49.03037" lon="7.92705">
        <ele>243.7</ele>
        <time>2020-06-27T16:23:03Z</time>
      </trkpt>
      <trkpt lat="49.03034" lon="7.92712">
        <ele>243.3</ele>
        <time>2020-06-27T16:23:04Z</time>
      </trkpt>
      <trkpt lat="49.03032" lon="7.92718">
        <ele>243.1</ele>
        <time>2020-06-27T16:23:05Z</time>
      </trkpt>
      <trkpt lat="49.0303" lon="7.92722">
        <ele>242.8</ele>
        <time>2020-06-27T16:23:06Z</time>
      </trkpt>
      <trkpt lat="49.03027" lon="7.92727">
        <ele>242.6</ele>
        <time>2020-06-27T16:23:07Z</time>
      </trkpt>
      <trkpt lat="49.03024" lon="7.92733">
        <ele>242.3</ele>
        <time>2020-06-27T16:23:08Z</time>
      </trkpt>
      <trkpt lat="49.03022" lon="7.92739">
        <ele>242.1</ele>
        <time>2020-06-27T16:23:09Z</time>
      </trkpt>
      <trkpt lat="49.03018" lon="7.92743">
        <ele>241.9</ele>
        <time>2020-06-27T16:23:10Z</time>
      </trkpt>
      <trkpt lat="49.03014" lon="7.92749">
        <ele>241.6</ele>
        <time>2020-06-27T16:23:11Z</time>
      </trkpt>
      <trkpt lat="49.0301" lon="7.92755">
        <ele>241.4</ele>
        <time>2020-06-27T16:23:12Z</time>
      </trkpt>
      <trkpt lat="49.03004" lon="7.9276">
        <ele>241</ele>
        <time>2020-06-27T16:23:13Z</time>
      </trkpt>
      <trkpt lat="49.02999" lon="7.92769">
        <ele>240.7</ele>
        <time>2020-06-27T16:23:14Z</time>
      </trkpt>
      <trkpt lat="49.02994" lon="7.92776">
        <ele>240.3</ele>
        <time>2020-06-27T16:23:15Z</time>
      </trkpt>
      <trkpt lat="49.02989" lon="7.92781">
        <ele>240</ele>
        <time>2020-06-27T16:23:16Z</time>
      </trkpt>
      <trkpt lat="49.02985" lon="7.92784">
        <ele>239.8</ele>
        <time>2020-06-27T16:23:17Z</time>
      </trkpt>
      <trkpt lat="49.02983" lon="7.92786">
        <ele>239.7</ele>
        <time>2020-06-27T16:23:18Z</time>
      </trkpt>
      <trkpt lat="49.02982" lon="7.92785">
        <ele>239.6</ele>
        <time>2020-06-27T16:23:19Z</time>
      </trkpt>
      <trkpt lat="49.02982" lon="7.92785">
        <ele>239.6</ele>
        <time>2020-06-27T16:23:20Z</time>
      </trkpt>
      <trkpt lat="49.02982" lon="7.92786">
        <ele>239.5</ele>
        <time>2020-06-27T16:23:21Z</time>
      </trkpt>
      <trkpt lat="49.02982" lon="7.92787">
        <ele>239.5</ele>
        <time>2020-06-27T16:23:22Z</time>
      </trkpt>
      <trkpt lat="49.02982" lon="7.92787">
        <ele>239.5</ele>
        <time>2020-06-27T16:23:23Z</time>
      </trkpt>
      <trkpt lat="49.02982" lon="7.92788">
        <ele>239.4</ele>
        <time>2020-06-27T16:23:24Z</time>
      </trkpt>
      <trkpt lat="49.02982" lon="7.92789">
        <ele>239.4</ele>
        <time>2020-06-27T16:23:25Z</time>
      </trkpt>
      <trkpt lat="49.02982" lon="7.9279">
        <ele>239.4</ele>
        <time>2020-06-27T16:23:26Z</time>
      </trkpt>
      <trkpt lat="49.02982" lon="7.9279">
        <ele>239.4</ele>
        <time>2020-06-27T16:23:27Z</time>
      </trkpt>
      <trkpt lat="49.02981" lon="7.92791">
        <ele>239.3</ele>
        <time>2020-06-27T16:23:28Z</time>
      </trkpt>
      <trkpt lat="49.02981" lon="7.92792">
        <ele>239.3</ele>
        <time>2020-06-27T16:23:29Z</time>
      </trkpt>
      <trkpt lat="49.02981" lon="7.92793">
        <ele>239.3</ele>
        <time>2020-06-27T16:23:30Z</time>
      </trkpt>
      <trkpt lat="49.02981" lon="7.92794">
        <ele>239.3</ele>
        <time>2020-06-27T16:23:31Z</time>
      </trkpt>
      <trkpt lat="49.02981" lon="7.92794">
        <ele>239.2</ele>
        <time>2020-06-27T16:23:32Z</time>
      </trkpt>
      <trkpt lat="49.02981" lon="7.92795">
        <ele>239.2</ele>
        <time>2020-06-27T16:23:33Z</time>
      </trkpt>
      <trkpt lat="49.02981" lon="7.92796">
        <ele>239.2</ele>
        <time>2020-06-27T16:23:34Z</time>
      </trkpt>
      <trkpt lat="49.02981" lon="7.92797">
        <ele>239.2</ele>
        <time>2020-06-27T16:23:48Z</time>
      </trkpt>
      <trkpt lat="49.02981" lon="7.92797">
        <ele>239.1</ele>
        <time>2020-06-27T16:23:49Z</time>
      </trkpt>
      <trkpt lat="49.02981" lon="7.92802">
        <ele>239</ele>
        <time>2020-06-27T16:23:50Z</time>
      </trkpt>
      <trkpt lat="49.02981" lon="7.92808">
        <ele>238.8</ele>
        <time>2020-06-27T16:23:51Z</time>
      </trkpt>
      <trkpt lat="49.02981" lon="7.92813">
        <ele>238.7</ele>
        <time>2020-06-27T16:23:52Z</time>
      </trkpt>
      <trkpt lat="49.02982" lon="7.9282">
        <ele>238.5</ele>
        <time>2020-06-27T16:23:53Z</time>
      </trkpt>
      <trkpt lat="49.02983" lon="7.92827">
        <ele>238.3</ele>
        <time>2020-06-27T16:23:54Z</time>
      </trkpt>
      <trkpt lat="49.02984" lon="7.92834">
        <ele>238</ele>
        <time>2020-06-27T16:23:55Z</time>
      </trkpt>
      <trkpt lat="49.02985" lon="7.92842">
        <ele>237.8</ele>
        <time>2020-06-27T16:23:56Z</time>
      </trkpt>
      <trkpt lat="49.02986" lon="7.9285">
        <ele>237.6</ele>
        <time>2020-06-27T16:23:57Z</time>
      </trkpt>
      <trkpt lat="49.02986" lon="7.92859">
        <ele>237.3</ele>
        <time>2020-06-27T16:23:58Z</time>
      </trkpt>
      <trkpt lat="49.02987" lon="7.92869">
        <ele>237</ele>
        <time>2020-06-27T16:23:59Z</time>
      </trkpt>
      <trkpt lat="49.02988" lon="7.92878">
        <ele>236.6</ele>
        <time>2020-06-27T16:24:00Z</time>
      </trkpt>
      <trkpt lat="49.02989" lon="7.92888">
        <ele>236.3</ele>
        <time>2020-06-27T16:24:01Z</time>
      </trkpt>
      <trkpt lat="49.02989" lon="7.92898">
        <ele>236</ele>
        <time>2020-06-27T16:24:02Z</time>
      </trkpt>
      <trkpt lat="49.02988" lon="7.92908">
        <ele>235.5</ele>
        <time>2020-06-27T16:24:03Z</time>
      </trkpt>
      <trkpt lat="49.02988" lon="7.92918">
        <ele>235.1</ele>
        <time>2020-06-27T16:24:04Z</time>
      </trkpt>
      <trkpt lat="49.02988" lon="7.9293">
        <ele>234.7</ele>
        <time>2020-06-27T16:24:05Z</time>
      </trkpt>
      <trkpt lat="49.02988" lon="7.92941">
        <ele>234.2</ele>
        <time>2020-06-27T16:24:06Z</time>
      </trkpt>
      <trkpt lat="49.02988" lon="7.92953">
        <ele>233.8</ele>
        <time>2020-06-27T16:24:07Z</time>
      </trkpt>
      <trkpt lat="49.02988" lon="7.92966">
        <ele>233.3</ele>
        <time>2020-06-27T16:24:08Z</time>
      </trkpt>
      <trkpt lat="49.02988" lon="7.92979">
        <ele>232.8</ele>
        <time>2020-06-27T16:24:09Z</time>
      </trkpt>
      <trkpt lat="49.02989" lon="7.92992">
        <ele>232.2</ele>
        <time>2020-06-27T16:24:10Z</time>
      </trkpt>
      <trkpt lat="49.02991" lon="7.93008">
        <ele>231.6</ele>
        <time>2020-06-27T16:24:11Z</time>
      </trkpt>
      <trkpt lat="49.02993" lon="7.93021">
        <ele>230.9</ele>
        <time>2020-06-27T16:24:12Z</time>
      </trkpt>
      <trkpt lat="49.02995" lon="7.93036">
        <ele>230.2</ele>
        <time>2020-06-27T16:24:13Z</time>
      </trkpt>
      <trkpt lat="49.02998" lon="7.93051">
        <ele>229.5</ele>
        <time>2020-06-27T16:24:14Z</time>
      </trkpt>
      <trkpt lat="49.03001" lon="7.93065">
        <ele>228.8</ele>
        <time>2020-06-27T16:24:15Z</time>
      </trkpt>
      <trkpt lat="49.03004" lon="7.9308">
        <ele>228</ele>
        <time>2020-06-27T16:24:16Z</time>
      </trkpt>
      <trkpt lat="49.03009" lon="7.93094">
        <ele>227.2</ele>
        <time>2020-06-27T16:24:17Z</time>
      </trkpt>
      <trkpt lat="49.03014" lon="7.93108">
        <ele>226.4</ele>
        <time>2020-06-27T16:24:18Z</time>
      </trkpt>
      <trkpt lat="49.0302" lon="7.93123">
        <ele>225.6</ele>
        <time>2020-06-27T16:24:19Z</time>
      </trkpt>
      <trkpt lat="49.03026" lon="7.93137">
        <ele>224.7</ele>
        <time>2020-06-27T16:24:20Z</time>
      </trkpt>
      <trkpt lat="49.03034" lon="7.93151">
        <ele>223.8</ele>
        <time>2020-06-27T16:24:21Z</time>
      </trkpt>
      <trkpt lat="49.03042" lon="7.93165">
        <ele>222.8</ele>
        <time>2020-06-27T16:24:22Z</time>
      </trkpt>
      <trkpt lat="49.03052" lon="7.93178">
        <ele>221.9</ele>
        <time>2020-06-27T16:24:23Z</time>
      </trkpt>
      <trkpt lat="49.03061" lon="7.9319">
        <ele>220.9</ele>
        <time>2020-06-27T16:24:24Z</time>
      </trkpt>
      <trkpt lat="49.03072" lon="7.932">
        <ele>219.9</ele>
        <time>2020-06-27T16:24:25Z</time>
      </trkpt>
      <trkpt lat="49.03082" lon="7.93209">
        <ele>219</ele>
        <time>2020-06-27T16:24:26Z</time>
      </trkpt>
      <trkpt lat="49.03092" lon="7.93217">
        <ele>218.1</ele>
        <time>2020-06-27T16:24:27Z</time>
      </trkpt>
      <trkpt lat="49.03103" lon="7.93224">
        <ele>217.3</ele>
        <time>2020-06-27T16:24:28Z</time>
      </trkpt>
      <trkpt lat="49.03114" lon="7.93231">
        <ele>216.4</ele>
        <time>2020-06-27T16:24:29Z</time>
      </trkpt>
      <trkpt lat="49.03125" lon="7.93236">
        <ele>215.5</ele>
        <time>2020-06-27T16:24:30Z</time>
      </trkpt>
      <trkpt lat="49.03137" lon="7.93241">
        <ele>214.7</ele>
        <time>2020-06-27T16:24:31Z</time>
      </trkpt>
      <trkpt lat="49.03148" lon="7.93245">
        <ele>213.9</ele>
        <time>2020-06-27T16:24:32Z</time>
      </trkpt>
      <trkpt lat="49.03159" lon="7.9325">
        <ele>213.1</ele>
        <time>2020-06-27T16:24:33Z</time>
      </trkpt>
      <trkpt lat="49.0317" lon="7.93255">
        <ele>212.2</ele>
        <time>2020-06-27T16:24:34Z</time>
      </trkpt>
      <trkpt lat="49.0318" lon="7.9326">
        <ele>211.4</ele>
        <time>2020-06-27T16:24:35Z</time>
      </trkpt>
      <trkpt lat="49.03189" lon="7.93267">
        <ele>210.7</ele>
        <time>2020-06-27T16:24:36Z</time>
      </trkpt>
      <trkpt lat="49.03199" lon="7.93274">
        <ele>209.9</ele>
        <time>2020-06-27T16:24:37Z</time>
      </trkpt>
      <trkpt lat="49.03208" lon="7.93282">
        <ele>209.2</ele>
        <time>2020-06-27T16:24:38Z</time>
      </trkpt>
      <trkpt lat="49.03216" lon="7.93291">
        <ele>208.5</ele>
        <time>2020-06-27T16:24:39Z</time>
      </trkpt>
      <trkpt lat="49.03224" lon="7.93301">
        <ele>207.8</ele>
        <time>2020-06-27T16:24:40Z</time>
      </trkpt>
      <trkpt lat="49.03232" lon="7.93313">
        <ele>207.3</ele>
        <time>2020-06-27T16:24:41Z</time>
      </trkpt>
      <trkpt lat="49.03239" lon="7.93326">
        <ele>206.9</ele>
        <time>2020-06-27T16:24:42Z</time>
      </trkpt>
      <trkpt lat="49.03245" lon="7.9334">
        <ele>206</ele>
        <time>2020-06-27T16:24:43Z</time>
      </trkpt>
      <trkpt lat="49.0325" lon="7.93354">
        <ele>205.1</ele>
        <time>2020-06-27T16:24:44Z</time>
      </trkpt>
      <trkpt lat="49.03255" lon="7.9337">
        <ele>204.2</ele>
        <time>2020-06-27T16:24:45Z</time>
      </trkpt>
      <trkpt lat="49.03259" lon="7.93387">
        <ele>203.2</ele>
        <time>2020-06-27T16:24:46Z</time>
      </trkpt>
      <trkpt lat="49.03262" lon="7.93404">
        <ele>202.2</ele>
        <time>2020-06-27T16:24:47Z</time>
      </trkpt>
      <trkpt lat="49.03265" lon="7.93423">
        <ele>201.1</ele>
        <time>2020-06-27T16:24:48Z</time>
      </trkpt>
      <trkpt lat="49.03266" lon="7.93441">
        <ele>200.1</ele>
        <time>2020-06-27T16:24:49Z</time>
      </trkpt>
      <trkpt lat="49.03266" lon="7.9346">
        <ele>199.1</ele>
        <time>2020-06-27T16:24:50Z</time>
      </trkpt>
      <trkpt lat="49.03265" lon="7.93478">
        <ele>198.1</ele>
        <time>2020-06-27T16:24:51Z</time>
      </trkpt>
      <trkpt lat="49.03264" lon="7.93497">
        <ele>197.1</ele>
        <time>2020-06-27T16:24:52Z</time>
      </trkpt>
      <trkpt lat="49.03263" lon="7.93514">
        <ele>196</ele>
        <time>2020-06-27T16:24:53Z</time>
      </trkpt>
      <trkpt lat="49.03261" lon="7.93529">
        <ele>195.1</ele>
        <time>2020-06-27T16:24:54Z</time>
      </trkpt>
      <trkpt lat="49.03259" lon="7.93542">
        <ele>194.3</ele>
        <time>2020-06-27T16:24:55Z</time>
      </trkpt>
      <trkpt lat="49.03256" lon="7.93555">
        <ele>193.6</ele>
        <time>2020-06-27T16:24:56Z</time>
      </trkpt>
      <trkpt lat="49.03253" lon="7.93568">
        <ele>192.8</ele>
        <time>2020-06-27T16:24:57Z</time>
      </trkpt>
      <trkpt lat="49.0325" lon="7.93583">
        <ele>192.1</ele>
        <time>2020-06-27T16:24:58Z</time>
      </trkpt>
      <trkpt lat="49.03247" lon="7.93597">
        <ele>191.3</ele>
        <time>2020-06-27T16:24:59Z</time>
      </trkpt>
      <trkpt lat="49.03244" lon="7.93611">
        <ele>190.6</ele>
        <time>2020-06-27T16:25:00Z</time>
      </trkpt>
      <trkpt lat="49.0324" lon="7.93627">
        <ele>189.9</ele>
        <time>2020-06-27T16:25:01Z</time>
      </trkpt>
      <trkpt lat="49.03238" lon="7.93642">
        <ele>189.3</ele>
        <time>2020-06-27T16:25:02Z</time>
      </trkpt>
      <trkpt lat="49.03237" lon="7.93658">
        <ele>188.8</ele>
        <time>2020-06-27T16:25:03Z</time>
      </trkpt>
      <trkpt lat="49.03236" lon="7.93673">
        <ele>188.2</ele>
        <time>2020-06-27T16:25:04Z</time>
      </trkpt>
      <trkpt lat="49.03235" lon="7.93689">
        <ele>187.7</ele>
        <time>2020-06-27T16:25:05Z</time>
      </trkpt>
      <trkpt lat="49.03236" lon="7.93705">
        <ele>187.1</ele>
        <time>2020-06-27T16:25:06Z</time>
      </trkpt>
      <trkpt lat="49.03237" lon="7.93721">
        <ele>186.4</ele>
        <time>2020-06-27T16:25:07Z</time>
      </trkpt>
      <trkpt lat="49.03238" lon="7.93736">
        <ele>185.7</ele>
        <time>2020-06-27T16:25:08Z</time>
      </trkpt>
      <trkpt lat="49.03241" lon="7.93752">
        <ele>185</ele>
        <time>2020-06-27T16:25:09Z</time>
      </trkpt>
      <trkpt lat="49.03243" lon="7.93768">
        <ele>184.1</ele>
        <time>2020-06-27T16:25:10Z</time>
      </trkpt>
      <trkpt lat="49.03246" lon="7.93784">
        <ele>183.2</ele>
        <time>2020-06-27T16:25:11Z</time>
      </trkpt>
      <trkpt lat="49.03248" lon="7.93799">
        <ele>182.3</ele>
        <time>2020-06-27T16:25:12Z</time>
      </trkpt>
      <trkpt lat="49.0325" lon="7.93815">
        <ele>181.3</ele>
        <time>2020-06-27T16:25:13Z</time>
      </trkpt>
      <trkpt lat="49.03253" lon="7.93831">
        <ele>180.3</ele>
        <time>2020-06-27T16:25:14Z</time>
      </trkpt>
      <trkpt lat="49.03255" lon="7.93848">
        <ele>179.4</ele>
        <time>2020-06-27T16:25:15Z</time>
      </trkpt>
      <trkpt lat="49.03258" lon="7.93864">
        <ele>178.6</ele>
        <time>2020-06-27T16:25:16Z</time>
      </trkpt>
      <trkpt lat="49.03261" lon="7.9388">
        <ele>177.9</ele>
        <time>2020-06-27T16:25:17Z</time>
      </trkpt>
      <trkpt lat="49.03264" lon="7.93896">
        <ele>177.3</ele>
        <time>2020-06-27T16:25:18Z</time>
      </trkpt>
      <trkpt lat="49.03267" lon="7.93911">
        <ele>176.7</ele>
        <time>2020-06-27T16:25:19Z</time>
      </trkpt>
      <trkpt lat="49.03267" lon="7.93928">
        <ele>176.1</ele>
        <time>2020-06-27T16:25:20Z</time>
      </trkpt>
      <trkpt lat="49.03271" lon="7.93942">
        <ele>175.5</ele>
        <time>2020-06-27T16:25:21Z</time>
      </trkpt>
      <trkpt lat="49.03274" lon="7.93958">
        <ele>174.8</ele>
        <time>2020-06-27T16:25:22Z</time>
      </trkpt>
      <trkpt lat="49.03279" lon="7.93973">
        <ele>174.3</ele>
        <time>2020-06-27T16:25:23Z</time>
      </trkpt>
      <trkpt lat="49.03284" lon="7.93987">
        <ele>173.8</ele>
        <time>2020-06-27T16:25:24Z</time>
      </trkpt>
      <trkpt lat="49.0329" lon="7.94002">
        <ele>173.4</ele>
        <time>2020-06-27T16:25:25Z</time>
      </trkpt>
      <trkpt lat="49.03295" lon="7.94016">
        <ele>173</ele>
        <time>2020-06-27T16:25:26Z</time>
      </trkpt>
      <trkpt lat="49.03301" lon="7.9403">
        <ele>172.7</ele>
        <time>2020-06-27T16:25:27Z</time>
      </trkpt>
      <trkpt lat="49.03306" lon="7.94044">
        <ele>172.4</ele>
        <time>2020-06-27T16:25:28Z</time>
      </trkpt>
      <trkpt lat="49.03308" lon="7.9406">
        <ele>172.1</ele>
        <time>2020-06-27T16:25:29Z</time>
      </trkpt>
      <trkpt lat="49.0331" lon="7.94075">
        <ele>171.8</ele>
        <time>2020-06-27T16:25:30Z</time>
      </trkpt>
      <trkpt lat="49.03311" lon="7.9409">
        <ele>171.3</ele>
        <time>2020-06-27T16:25:31Z</time>
      </trkpt>
      <trkpt lat="49.03311" lon="7.94103">
        <ele>170.7</ele>
        <time>2020-06-27T16:25:32Z</time>
      </trkpt>
      <trkpt lat="49.03309" lon="7.94117">
        <ele>170</ele>
        <time>2020-06-27T16:25:33Z</time>
      </trkpt>
      <trkpt lat="49.03307" lon="7.94131">
        <ele>169.2</ele>
        <time>2020-06-27T16:25:34Z</time>
      </trkpt>
      <trkpt lat="49.03306" lon="7.94146">
        <ele>168.6</ele>
        <time>2020-06-27T16:25:35Z</time>
      </trkpt>
      <trkpt lat="49.03307" lon="7.9416">
        <ele>168.1</ele>
        <time>2020-06-27T16:25:36Z</time>
      </trkpt>
      <trkpt lat="49.03309" lon="7.94174">
        <ele>167.6</ele>
        <time>2020-06-27T16:25:37Z</time>
      </trkpt>
      <trkpt lat="49.0331" lon="7.94188">
        <ele>167.1</ele>
        <time>2020-06-27T16:25:38Z</time>
      </trkpt>
      <trkpt lat="49.03311" lon="7.94201">
        <ele>166.7</ele>
        <time>2020-06-27T16:25:39Z</time>
      </trkpt>
      <trkpt lat="49.03314" lon="7.94214">
        <ele>166.3</ele>
        <time>2020-06-27T16:25:40Z</time>
      </trkpt>
      <trkpt lat="49.03316" lon="7.94227">
        <ele>165.9</ele>
        <time>2020-06-27T16:25:41Z</time>
      </trkpt>
      <trkpt lat="49.0332" lon="7.94241">
        <ele>165.5</ele>
        <time>2020-06-27T16:25:42Z</time>
      </trkpt>
      <trkpt lat="49.03321" lon="7.94255">
        <ele>165.2</ele>
        <time>2020-06-27T16:25:43Z</time>
      </trkpt>
      <trkpt lat="49.03322" lon="7.94269">
        <ele>164.9</ele>
        <time>2020-06-27T16:25:44Z</time>
      </trkpt>
      <trkpt lat="49.03325" lon="7.94282">
        <ele>164.6</ele>
        <time>2020-06-27T16:25:45Z</time>
      </trkpt>
      <trkpt lat="49.03327" lon="7.94295">
        <ele>164.3</ele>
        <time>2020-06-27T16:25:46Z</time>
      </trkpt>
      <trkpt lat="49.03329" lon="7.94308">
        <ele>164.1</ele>
        <time>2020-06-27T16:25:47Z</time>
      </trkpt>
      <trkpt lat="49.03332" lon="7.9432">
        <ele>163.9</ele>
        <time>2020-06-27T16:25:48Z</time>
      </trkpt>
      <trkpt lat="49.03335" lon="7.94331">
        <ele>163.8</ele>
        <time>2020-06-27T16:25:49Z</time>
      </trkpt>
      <trkpt lat="49.03337" lon="7.94342">
        <ele>163.6</ele>
        <time>2020-06-27T16:25:50Z</time>
      </trkpt>
      <trkpt lat="49.03339" lon="7.94352">
        <ele>163.5</ele>
        <time>2020-06-27T16:25:51Z</time>
      </trkpt>
      <trkpt lat="49.03342" lon="7.94361">
        <ele>163.4</ele>
        <time>2020-06-27T16:25:52Z</time>
      </trkpt>
      <trkpt lat="49.03344" lon="7.9437">
        <ele>163.5</ele>
        <time>2020-06-27T16:25:53Z</time>
      </trkpt>
      <trkpt lat="49.03346" lon="7.94379">
        <ele>163.2</ele>
        <time>2020-06-27T16:25:54Z</time>
      </trkpt>
      <trkpt lat="49.03349" lon="7.94388">
        <ele>162.9</ele>
        <time>2020-06-27T16:25:55Z</time>
      </trkpt>
      <trkpt lat="49.03351" lon="7.94398">
        <ele>162.6</ele>
        <time>2020-06-27T16:25:56Z</time>
      </trkpt>
      <trkpt lat="49.03353" lon="7.94408">
        <ele>162.4</ele>
        <time>2020-06-27T16:25:57Z</time>
      </trkpt>
      <trkpt lat="49.03355" lon="7.94417">
        <ele>162.1</ele>
        <time>2020-06-27T16:25:58Z</time>
      </trkpt>
      <trkpt lat="49.03356" lon="7.94427">
        <ele>161.9</ele>
        <time>2020-06-27T16:25:59Z</time>
      </trkpt>
      <trkpt lat="49.03356" lon="7.94437">
        <ele>161.8</ele>
        <time>2020-06-27T16:26:00Z</time>
      </trkpt>
      <trkpt lat="49.03355" lon="7.94447">
        <ele>161.6</ele>
        <time>2020-06-27T16:26:01Z</time>
      </trkpt>
      <trkpt lat="49.03355" lon="7.94456">
        <ele>161.5</ele>
        <time>2020-06-27T16:26:02Z</time>
      </trkpt>
      <trkpt lat="49.03354" lon="7.94465">
        <ele>161.5</ele>
        <time>2020-06-27T16:26:03Z</time>
      </trkpt>
      <trkpt lat="49.03351" lon="7.94472">
        <ele>161.4</ele>
        <time>2020-06-27T16:26:04Z</time>
      </trkpt>
      <trkpt lat="49.03348" lon="7.94478">
        <ele>161.4</ele>
        <time>2020-06-27T16:26:05Z</time>
      </trkpt>
      <trkpt lat="49.03344" lon="7.94484">
        <ele>161.4</ele>
        <time>2020-06-27T16:26:06Z</time>
      </trkpt>
      <trkpt lat="49.0334" lon="7.9449">
        <ele>161.4</ele>
        <time>2020-06-27T16:26:07Z</time>
      </trkpt>
      <trkpt lat="49.03337" lon="7.94496">
        <ele>161.4</ele>
        <time>2020-06-27T16:26:08Z</time>
      </trkpt>
      <trkpt lat="49.03334" lon="7.94501">
        <ele>161.4</ele>
        <time>2020-06-27T16:26:09Z</time>
      </trkpt>
      <trkpt lat="49.03331" lon="7.94506">
        <ele>161.4</ele>
        <time>2020-06-27T16:26:10Z</time>
      </trkpt>
      <trkpt lat="49.03328" lon="7.94511">
        <ele>161.4</ele>
        <time>2020-06-27T16:26:11Z</time>
      </trkpt>
      <trkpt lat="49.03326" lon="7.94516">
        <ele>161.4</ele>
        <time>2020-06-27T16:26:12Z</time>
      </trkpt>
      <trkpt lat="49.03324" lon="7.94523">
        <ele>161.5</ele>
        <time>2020-06-27T16:26:13Z</time>
      </trkpt>
      <trkpt lat="49.03323" lon="7.9453">
        <ele>161.5</ele>
        <time>2020-06-27T16:26:14Z</time>
      </trkpt>
      <trkpt lat="49.03325" lon="7.94536">
        <ele>161.5</ele>
        <time>2020-06-27T16:26:15Z</time>
      </trkpt>
      <trkpt lat="49.03328" lon="7.94541">
        <ele>161.5</ele>
        <time>2020-06-27T16:26:16Z</time>
      </trkpt>
      <trkpt lat="49.03331" lon="7.94545">
        <ele>161.4</ele>
        <time>2020-06-27T16:26:17Z</time>
      </trkpt>
      <trkpt lat="49.03335" lon="7.94548">
        <ele>161.4</ele>
        <time>2020-06-27T16:26:18Z</time>
      </trkpt>
      <trkpt lat="49.03339" lon="7.9455">
        <ele>161.3</ele>
        <time>2020-06-27T16:26:19Z</time>
      </trkpt>
      <trkpt lat="49.03344" lon="7.94551">
        <ele>161.3</ele>
        <time>2020-06-27T16:26:20Z</time>
      </trkpt>
      <trkpt lat="49.03348" lon="7.94549">
        <ele>161.2</ele>
        <time>2020-06-27T16:26:21Z</time>
      </trkpt>
      <trkpt lat="49.03352" lon="7.94546">
        <ele>161.2</ele>
        <time>2020-06-27T16:26:22Z</time>
      </trkpt>
      <trkpt lat="49.03355" lon="7.94541">
        <ele>161.2</ele>
        <time>2020-06-27T16:26:23Z</time>
      </trkpt>
      <trkpt lat="49.03358" lon="7.94536">
        <ele>161.2</ele>
        <time>2020-06-27T16:26:24Z</time>
      </trkpt>
      <trkpt lat="49.03361" lon="7.94531">
        <ele>161.1</ele>
        <time>2020-06-27T16:26:25Z</time>
      </trkpt>
      <trkpt lat="49.03363" lon="7.94526">
        <ele>161.1</ele>
        <time>2020-06-27T16:26:26Z</time>
      </trkpt>
      <trkpt lat="49.03366" lon="7.94521">
        <ele>161.1</ele>
        <time>2020-06-27T16:26:27Z</time>
      </trkpt>
      <trkpt lat="49.0337" lon="7.94518">
        <ele>161.1</ele>
        <time>2020-06-27T16:26:28Z</time>
      </trkpt>
      <trkpt lat="49.03372" lon="7.94514">
        <ele>161.1</ele>
        <time>2020-06-27T16:26:29Z</time>
      </trkpt>
      <trkpt lat="49.03374" lon="7.94509">
        <ele>161.1</ele>
        <time>2020-06-27T16:26:30Z</time>
      </trkpt>
      <trkpt lat="49.03376" lon="7.94503">
        <ele>161.1</ele>
        <time>2020-06-27T16:26:31Z</time>
      </trkpt>
      <trkpt lat="49.03377" lon="7.94498">
        <ele>161.4</ele>
        <time>2020-06-27T16:26:32Z</time>
      </trkpt>
      <trkpt lat="49.03379" lon="7.94495">
        <ele>161.6</ele>
        <time>2020-06-27T16:26:33Z</time>
      </trkpt>
      <trkpt lat="49.03381" lon="7.94491">
        <ele>161.7</ele>
        <time>2020-06-27T16:26:34Z</time>
      </trkpt>
      <trkpt lat="49.03384" lon="7.94491">
        <ele>161.8</ele>
        <time>2020-06-27T16:26:35Z</time>
      </trkpt>
      <trkpt lat="49.03387" lon="7.94489">
        <ele>161.8</ele>
        <time>2020-06-27T16:26:36Z</time>
      </trkpt>
      <trkpt lat="49.0339" lon="7.94487">
        <ele>161.8</ele>
        <time>2020-06-27T16:26:37Z</time>
      </trkpt>
      <trkpt lat="49.03392" lon="7.94482">
        <ele>161.7</ele>
        <time>2020-06-27T16:26:38Z</time>
      </trkpt>
      <trkpt lat="49.03392" lon="7.94481">
        <ele>161.7</ele>
        <time>2020-06-27T16:26:39Z</time>
      </trkpt>
      <trkpt lat="49.03393" lon="7.9448">
        <ele>161.7</ele>
        <time>2020-06-27T16:26:40Z</time>
      </trkpt>
      <trkpt lat="49.03394" lon="7.94479">
        <ele>161.7</ele>
        <time>2020-06-27T16:26:41Z</time>
      </trkpt>
      <trkpt lat="49.03395" lon="7.94478">
        <ele>161.7</ele>
        <time>2020-06-27T16:26:42Z</time>
      </trkpt>
      <trkpt lat="49.03395" lon="7.94478">
        <ele>161.7</ele>
        <time>2020-06-27T16:26:43Z</time>
      </trkpt>
      <trkpt lat="49.03394" lon="7.94476">
        <ele>161.7</ele>
        <time>2020-06-27T16:26:44Z</time>
      </trkpt>
      <trkpt lat="49.03394" lon="7.94475">
        <ele>161.7</ele>
        <time>2020-06-27T16:26:45Z</time>
      </trkpt>
      <trkpt lat="49.03395" lon="7.94475">
        <ele>161.7</ele>
        <time>2020-06-27T16:26:46Z</time>
      </trkpt>
      <trkpt lat="49.03395" lon="7.94474">
        <ele>161.7</ele>
        <time>2020-06-27T16:26:47Z</time>
      </trkpt>
      <trkpt lat="49.03395" lon="7.94474">
        <ele>161.7</ele>
        <time>2020-06-27T16:26:48Z</time>
      </trkpt>
      <trkpt lat="49.03396" lon="7.94475">
        <ele>161.7</ele>
        <time>2020-06-27T16:26:49Z</time>
      </trkpt>
      <trkpt lat="49.03396" lon="7.94475">
        <ele>161.7</ele>
        <time>2020-06-27T16:26:50Z</time>
      </trkpt>
      <trkpt lat="49.03396" lon="7.94474">
        <ele>161.7</ele>
        <time>2020-06-27T16:26:51Z</time>
      </trkpt>
      <trkpt lat="49.03396" lon="7.94474">
        <ele>161.7</ele>
        <time>2020-06-27T16:26:52Z</time>
      </trkpt>
      <trkpt lat="49.03396" lon="7.94472">
        <ele>161.6</ele>
        <time>2020-06-27T16:26:53Z</time>
      </trkpt>
      <trkpt lat="49.03395" lon="7.94471">
        <ele>161.6</ele>
        <time>2020-06-27T16:26:54Z</time>
      </trkpt>
      <trkpt lat="49.03396" lon="7.94472">
        <ele>161.6</ele>
        <time>2020-06-27T16:26:55Z</time>
      </trkpt>
      <trkpt lat="49.03396" lon="7.94472">
        <ele>161.6</ele>
        <time>2020-06-27T16:26:56Z</time>
      </trkpt>
      <trkpt lat="49.03397" lon="7.94472">
        <ele>161.6</ele>
        <time>2020-06-27T16:26:57Z</time>
      </trkpt>
      <trkpt lat="49.03397" lon="7.94472">
        <ele>161.6</ele>
        <time>2020-06-27T16:26:58Z</time>
      </trkpt>
      <trkpt lat="49.03397" lon="7.94473">
        <ele>161.6</ele>
        <time>2020-06-27T16:26:59Z</time>
      </trkpt>
      <trkpt lat="49.03397" lon="7.94473">
        <ele>161.6</ele>
        <time>2020-06-27T16:27:00Z</time>
      </trkpt>
      <trkpt lat="49.03396" lon="7.94472">
        <ele>161.6</ele>
        <time>2020-06-27T16:27:01Z</time>
      </trkpt>
      <trkpt lat="49.03396" lon="7.94471">
        <ele>161.6</ele>
        <time>2020-06-27T16:27:02Z</time>
      </trkpt>
      <trkpt lat="49.03396" lon="7.94471">
        <ele>161.6</ele>
        <time>2020-06-27T16:27:03Z</time>
      </trkpt>
      <trkpt lat="49.03396" lon="7.94471">
        <ele>161.6</ele>
        <time>2020-06-27T16:27:04Z</time>
      </trkpt>
      <trkpt lat="49.03403" lon="7.94477">
        <ele>161.4</ele>
        <time>2020-06-27T16:31:24Z</time>
      </trkpt>
      <trkpt lat="49.03404" lon="7.94479">
        <ele>161.3</ele>
        <time>2020-06-27T16:31:25Z</time>
      </trkpt>
      <trkpt lat="49.03406" lon="7.94482">
        <ele>161.2</ele>
        <time>2020-06-27T16:31:26Z</time>
      </trkpt>
      <trkpt lat="49.03409" lon="7.94483">
        <ele>161.1</ele>
        <time>2020-06-27T16:31:27Z</time>
      </trkpt>
      <trkpt lat="49.03413" lon="7.94486">
        <ele>161.1</ele>
        <time>2020-06-27T16:31:28Z</time>
      </trkpt>
      <trkpt lat="49.03416" lon="7.94489">
        <ele>161</ele>
        <time>2020-06-27T16:31:29Z</time>
      </trkpt>
      <trkpt lat="49.0342" lon="7.94492">
        <ele>160.5</ele>
        <time>2020-06-27T16:31:30Z</time>
      </trkpt>
      <trkpt lat="49.03424" lon="7.94496">
        <ele>160.3</ele>
        <time>2020-06-27T16:31:31Z</time>
      </trkpt>
      <trkpt lat="49.03427" lon="7.94502">
        <ele>160.2</ele>
        <time>2020-06-27T16:31:32Z</time>
      </trkpt>
      <trkpt lat="49.0343" lon="7.94509">
        <ele>160</ele>
        <time>2020-06-27T16:31:33Z</time>
      </trkpt>
      <trkpt lat="49.03432" lon="7.94517">
        <ele>159.8</ele>
        <time>2020-06-27T16:31:34Z</time>
      </trkpt>
      <trkpt lat="49.03433" lon="7.94525">
        <ele>159.7</ele>
        <time>2020-06-27T16:31:35Z</time>
      </trkpt>
      <trkpt lat="49.03435" lon="7.94534">
        <ele>159.5</ele>
        <time>2020-06-27T16:31:36Z</time>
      </trkpt>
      <trkpt lat="49.03435" lon="7.94543">
        <ele>159.4</ele>
        <time>2020-06-27T16:31:37Z</time>
      </trkpt>
      <trkpt lat="49.03436" lon="7.94552">
        <ele>159.4</ele>
        <time>2020-06-27T16:31:38Z</time>
      </trkpt>
      <trkpt lat="49.03436" lon="7.94559">
        <ele>159.3</ele>
        <time>2020-06-27T16:31:39Z</time>
      </trkpt>
      <trkpt lat="49.03437" lon="7.94566">
        <ele>159.3</ele>
        <time>2020-06-27T16:31:40Z</time>
      </trkpt>
      <trkpt lat="49.03438" lon="7.94574">
        <ele>159.2</ele>
        <time>2020-06-27T16:31:41Z</time>
      </trkpt>
      <trkpt lat="49.03439" lon="7.94582">
        <ele>159.2</ele>
        <time>2020-06-27T16:31:42Z</time>
      </trkpt>
      <trkpt lat="49.03441" lon="7.94591">
        <ele>159.2</ele>
        <time>2020-06-27T16:31:43Z</time>
      </trkpt>
      <trkpt lat="49.03443" lon="7.94601">
        <ele>159.2</ele>
        <time>2020-06-27T16:31:44Z</time>
      </trkpt>
      <trkpt lat="49.03445" lon="7.94611">
        <ele>159.2</ele>
        <time>2020-06-27T16:31:45Z</time>
      </trkpt>
      <trkpt lat="49.03447" lon="7.9462">
        <ele>159.2</ele>
        <time>2020-06-27T16:31:46Z</time>
      </trkpt>
      <trkpt lat="49.03449" lon="7.9463">
        <ele>159.2</ele>
        <time>2020-06-27T16:31:47Z</time>
      </trkpt>
      <trkpt lat="49.03452" lon="7.94639">
        <ele>159.2</ele>
        <time>2020-06-27T16:31:48Z</time>
      </trkpt>
      <trkpt lat="49.03456" lon="7.94646">
        <ele>159.2</ele>
        <time>2020-06-27T16:31:49Z</time>
      </trkpt>
      <trkpt lat="49.03459" lon="7.94653">
        <ele>159.1</ele>
        <time>2020-06-27T16:31:50Z</time>
      </trkpt>
      <trkpt lat="49.03463" lon="7.9466">
        <ele>159.1</ele>
        <time>2020-06-27T16:31:51Z</time>
      </trkpt>
      <trkpt lat="49.03467" lon="7.94666">
        <ele>159.1</ele>
        <time>2020-06-27T16:31:52Z</time>
      </trkpt>
      <trkpt lat="49.03472" lon="7.94672">
        <ele>159.1</ele>
        <time>2020-06-27T16:31:53Z</time>
      </trkpt>
      <trkpt lat="49.03477" lon="7.94678">
        <ele>159.1</ele>
        <time>2020-06-27T16:31:54Z</time>
      </trkpt>
      <trkpt lat="49.03483" lon="7.94684">
        <ele>159.1</ele>
        <time>2020-06-27T16:31:55Z</time>
      </trkpt>
      <trkpt lat="49.03486" lon="7.94689">
        <ele>159.2</ele>
        <time>2020-06-27T16:31:56Z</time>
      </trkpt>
      <trkpt lat="49.03489" lon="7.94695">
        <ele>159.3</ele>
        <time>2020-06-27T16:31:57Z</time>
      </trkpt>
      <trkpt lat="49.03492" lon="7.94702">
        <ele>159.3</ele>
        <time>2020-06-27T16:31:58Z</time>
      </trkpt>
      <trkpt lat="49.03494" lon="7.94706">
        <ele>159.3</ele>
        <time>2020-06-27T16:31:59Z</time>
      </trkpt>
      <trkpt lat="49.03497" lon="7.94713">
        <ele>159.3</ele>
        <time>2020-06-27T16:32:00Z</time>
      </trkpt>
      <trkpt lat="49.03501" lon="7.94717">
        <ele>159.3</ele>
        <time>2020-06-27T16:32:01Z</time>
      </trkpt>
      <trkpt lat="49.03505" lon="7.94724">
        <ele>159.4</ele>
        <time>2020-06-27T16:32:02Z</time>
      </trkpt>
      <trkpt lat="49.03508" lon="7.94731">
        <ele>159.4</ele>
        <time>2020-06-27T16:32:03Z</time>
      </trkpt>
      <trkpt lat="49.03511" lon="7.94736">
        <ele>159.5</ele>
        <time>2020-06-27T16:32:04Z</time>
      </trkpt>
      <trkpt lat="49.03514" lon="7.94742">
        <ele>159.5</ele>
        <time>2020-06-27T16:32:05Z</time>
      </trkpt>
      <trkpt lat="49.03516" lon="7.94744">
        <ele>159.5</ele>
        <time>2020-06-27T16:32:06Z</time>
      </trkpt>
      <trkpt lat="49.0352" lon="7.9475">
        <ele>159.5</ele>
        <time>2020-06-27T16:32:07Z</time>
      </trkpt>
      <trkpt lat="49.03524" lon="7.94756">
        <ele>159.5</ele>
        <time>2020-06-27T16:32:08Z</time>
      </trkpt>
      <trkpt lat="49.03528" lon="7.9476">
        <ele>159.4</ele>
        <time>2020-06-27T16:32:09Z</time>
      </trkpt>
      <trkpt lat="49.03531" lon="7.94763">
        <ele>159.4</ele>
        <time>2020-06-27T16:32:10Z</time>
      </trkpt>
      <trkpt lat="49.03534" lon="7.94765">
        <ele>159.4</ele>
        <time>2020-06-27T16:32:11Z</time>
      </trkpt>
      <trkpt lat="49.03538" lon="7.94765">
        <ele>159.4</ele>
        <time>2020-06-27T16:32:12Z</time>
      </trkpt>
      <trkpt lat="49.03544" lon="7.94765">
        <ele>159.4</ele>
        <time>2020-06-27T16:32:13Z</time>
      </trkpt>
      <trkpt lat="49.03548" lon="7.94765">
        <ele>159.4</ele>
        <time>2020-06-27T16:32:14Z</time>
      </trkpt>
      <trkpt lat="49.03553" lon="7.94767">
        <ele>159.4</ele>
        <time>2020-06-27T16:32:15Z</time>
      </trkpt>
      <trkpt lat="49.03557" lon="7.94768">
        <ele>159.4</ele>
        <time>2020-06-27T16:32:16Z</time>
      </trkpt>
      <trkpt lat="49.03561" lon="7.94769">
        <ele>159.4</ele>
        <time>2020-06-27T16:32:17Z</time>
      </trkpt>
      <trkpt lat="49.03567" lon="7.94772">
        <ele>159.4</ele>
        <time>2020-06-27T16:32:18Z</time>
      </trkpt>
      <trkpt lat="49.03572" lon="7.94775">
        <ele>159.5</ele>
        <time>2020-06-27T16:32:19Z</time>
      </trkpt>
      <trkpt lat="49.03577" lon="7.94777">
        <ele>159.7</ele>
        <time>2020-06-27T16:32:20Z</time>
      </trkpt>
      <trkpt lat="49.03582" lon="7.94779">
        <ele>159.7</ele>
        <time>2020-06-27T16:32:21Z</time>
      </trkpt>
      <trkpt lat="49.03586" lon="7.94779">
        <ele>159.8</ele>
        <time>2020-06-27T16:32:22Z</time>
      </trkpt>
      <trkpt lat="49.0359" lon="7.9478">
        <ele>159.8</ele>
        <time>2020-06-27T16:32:23Z</time>
      </trkpt>
      <trkpt lat="49.03593" lon="7.94781">
        <ele>159.9</ele>
        <time>2020-06-27T16:32:24Z</time>
      </trkpt>
      <trkpt lat="49.03596" lon="7.94782">
        <ele>159.9</ele>
        <time>2020-06-27T16:32:25Z</time>
      </trkpt>
      <trkpt lat="49.036" lon="7.94783">
        <ele>160</ele>
        <time>2020-06-27T16:32:26Z</time>
      </trkpt>
      <trkpt lat="49.036" lon="7.94783">
        <ele>160</ele>
        <time>2020-06-27T16:32:27Z</time>
      </trkpt>
      <trkpt lat="49.03603" lon="7.94785">
        <ele>160</ele>
        <time>2020-06-27T16:32:28Z</time>
      </trkpt>
      <trkpt lat="49.03605" lon="7.94786">
        <ele>160.1</ele>
        <time>2020-06-27T16:32:29Z</time>
      </trkpt>
      <trkpt lat="49.03606" lon="7.94786">
        <ele>160.1</ele>
        <time>2020-06-27T16:32:30Z</time>
      </trkpt>
      <trkpt lat="49.0361" lon="7.94783">
        <ele>160.2</ele>
        <time>2020-06-27T16:32:31Z</time>
      </trkpt>
      <trkpt lat="49.03612" lon="7.94781">
        <ele>160.2</ele>
        <time>2020-06-27T16:32:32Z</time>
      </trkpt>
      <trkpt lat="49.03615" lon="7.94776">
        <ele>160.3</ele>
        <time>2020-06-27T16:32:33Z</time>
      </trkpt>
      <trkpt lat="49.03619" lon="7.94772">
        <ele>160.4</ele>
        <time>2020-06-27T16:32:34Z</time>
      </trkpt>
      <trkpt lat="49.03624" lon="7.9477">
        <ele>160.4</ele>
        <time>2020-06-27T16:32:35Z</time>
      </trkpt>
      <trkpt lat="49.03628" lon="7.9477">
        <ele>160.5</ele>
        <time>2020-06-27T16:32:36Z</time>
      </trkpt>
      <trkpt lat="49.03632" lon="7.94771">
        <ele>160.5</ele>
        <time>2020-06-27T16:32:37Z</time>
      </trkpt>
      <trkpt lat="49.03635" lon="7.94772">
        <ele>160.3</ele>
        <time>2020-06-27T16:32:38Z</time>
      </trkpt>
      <trkpt lat="49.03638" lon="7.94775">
        <ele>160.1</ele>
        <time>2020-06-27T16:32:39Z</time>
      </trkpt>
      <trkpt lat="49.03639" lon="7.94776">
        <ele>160</ele>
        <time>2020-06-27T16:32:40Z</time>
      </trkpt>
      <trkpt lat="49.03642" lon="7.94779">
        <ele>159.8</ele>
        <time>2020-06-27T16:32:41Z</time>
      </trkpt>
      <trkpt lat="49.03646" lon="7.94781">
        <ele>159.2</ele>
        <time>2020-06-27T16:32:42Z</time>
      </trkpt>
      <trkpt lat="49.0365" lon="7.94782">
        <ele>159.2</ele>
        <time>2020-06-27T16:32:43Z</time>
      </trkpt>
      <trkpt lat="49.03652" lon="7.94783">
        <ele>159.2</ele>
        <time>2020-06-27T16:32:44Z</time>
      </trkpt>
      <trkpt lat="49.03652" lon="7.94784">
        <ele>159.2</ele>
        <time>2020-06-27T16:32:45Z</time>
      </trkpt>
      <trkpt lat="49.03652" lon="7.94785">
        <ele>159.5</ele>
        <time>2020-06-27T16:32:46Z</time>
      </trkpt>
      <trkpt lat="49.03652" lon="7.94787">
        <ele>159.5</ele>
        <time>2020-06-27T16:32:47Z</time>
      </trkpt>
      <trkpt lat="49.03652" lon="7.94792">
        <ele>159.5</ele>
        <time>2020-06-27T16:32:48Z</time>
      </trkpt>
      <trkpt lat="49.03652" lon="7.94795">
        <ele>159.5</ele>
        <time>2020-06-27T16:32:49Z</time>
      </trkpt>
      <trkpt lat="49.03653" lon="7.94799">
        <ele>159.5</ele>
        <time>2020-06-27T16:32:50Z</time>
      </trkpt>
      <trkpt lat="49.03654" lon="7.94804">
        <ele>159.5</ele>
        <time>2020-06-27T16:32:51Z</time>
      </trkpt>
      <trkpt lat="49.03655" lon="7.94808">
        <ele>159.5</ele>
        <time>2020-06-27T16:32:52Z</time>
      </trkpt>
      <trkpt lat="49.03655" lon="7.94813">
        <ele>159.5</ele>
        <time>2020-06-27T16:32:53Z</time>
      </trkpt>
      <trkpt lat="49.03656" lon="7.94818">
        <ele>159.5</ele>
        <time>2020-06-27T16:32:54Z</time>
      </trkpt>
      <trkpt lat="49.03658" lon="7.94824">
        <ele>159.5</ele>
        <time>2020-06-27T16:32:55Z</time>
      </trkpt>
      <trkpt lat="49.03658" lon="7.94829">
        <ele>159.5</ele>
        <time>2020-06-27T16:32:56Z</time>
      </trkpt>
      <trkpt lat="49.03658" lon="7.94835">
        <ele>159.5</ele>
        <time>2020-06-27T16:32:57Z</time>
      </trkpt>
      <trkpt lat="49.03658" lon="7.94841">
        <ele>159.5</ele>
        <time>2020-06-27T16:32:58Z</time>
      </trkpt>
      <trkpt lat="49.03658" lon="7.94848">
        <ele>159.5</ele>
        <time>2020-06-27T16:32:59Z</time>
      </trkpt>
      <trkpt lat="49.03658" lon="7.94854">
        <ele>159.5</ele>
        <time>2020-06-27T16:33:00Z</time>
      </trkpt>
      <trkpt lat="49.03656" lon="7.94859">
        <ele>159.5</ele>
        <time>2020-06-27T16:33:01Z</time>
      </trkpt>
      <trkpt lat="49.03655" lon="7.94864">
        <ele>159.5</ele>
        <time>2020-06-27T16:33:02Z</time>
      </trkpt>
      <trkpt lat="49.03654" lon="7.94869">
        <ele>159.5</ele>
        <time>2020-06-27T16:33:03Z</time>
      </trkpt>
      <trkpt lat="49.03653" lon="7.94874">
        <ele>159.5</ele>
        <time>2020-06-27T16:33:04Z</time>
      </trkpt>
      <trkpt lat="49.03652" lon="7.94881">
        <ele>159.5</ele>
        <time>2020-06-27T16:33:05Z</time>
      </trkpt>
      <trkpt lat="49.03649" lon="7.94888">
        <ele>159.5</ele>
        <time>2020-06-27T16:33:06Z</time>
      </trkpt>
      <trkpt lat="49.03647" lon="7.94894">
        <ele>159.5</ele>
        <time>2020-06-27T16:33:07Z</time>
      </trkpt>
      <trkpt lat="49.03645" lon="7.949">
        <ele>159.4</ele>
        <time>2020-06-27T16:33:08Z</time>
      </trkpt>
      <trkpt lat="49.03644" lon="7.94906">
        <ele>159.4</ele>
        <time>2020-06-27T16:33:09Z</time>
      </trkpt>
      <trkpt lat="49.03643" lon="7.9491">
        <ele>159.4</ele>
        <time>2020-06-27T16:33:10Z</time>
      </trkpt>
      <trkpt lat="49.03643" lon="7.94913">
        <ele>159.4</ele>
        <time>2020-06-27T16:33:11Z</time>
      </trkpt>
      <trkpt lat="49.03642" lon="7.94914">
        <ele>159.4</ele>
        <time>2020-06-27T16:33:12Z</time>
      </trkpt>
      <trkpt lat="49.03642" lon="7.94916">
        <ele>159.4</ele>
        <time>2020-06-27T16:33:13Z</time>
      </trkpt>
      <trkpt lat="49.03641" lon="7.94919">
        <ele>159.4</ele>
        <time>2020-06-27T16:33:14Z</time>
      </trkpt>
      <trkpt lat="49.0364" lon="7.94921">
        <ele>159.4</ele>
        <time>2020-06-27T16:33:15Z</time>
      </trkpt>
      <trkpt lat="49.03641" lon="7.94921">
        <ele>159.4</ele>
        <time>2020-06-27T16:33:16Z</time>
      </trkpt>
      <trkpt lat="49.03641" lon="7.94922">
        <ele>159.4</ele>
        <time>2020-06-27T16:33:17Z</time>
      </trkpt>
      <trkpt lat="49.0364" lon="7.94922">
        <ele>159.4</ele>
        <time>2020-06-27T16:33:18Z</time>
      </trkpt>
      <trkpt lat="49.03641" lon="7.94923">
        <ele>159.4</ele>
        <time>2020-06-27T16:33:19Z</time>
      </trkpt>
      <trkpt lat="49.03641" lon="7.94925">
        <ele>159.4</ele>
        <time>2020-06-27T16:33:20Z</time>
      </trkpt>
      <trkpt lat="49.03642" lon="7.94926">
        <ele>159.4</ele>
        <time>2020-06-27T16:33:21Z</time>
      </trkpt>
      <trkpt lat="49.03642" lon="7.94926">
        <ele>159.4</ele>
        <time>2020-06-27T16:33:22Z</time>
      </trkpt>
      <trkpt lat="49.03642" lon="7.94927">
        <ele>159.4</ele>
        <time>2020-06-27T16:33:23Z</time>
      </trkpt>
      <trkpt lat="49.03643" lon="7.94928">
        <ele>159.4</ele>
        <time>2020-06-27T16:33:24Z</time>
      </trkpt>
      <trkpt lat="49.03644" lon="7.94928">
        <ele>159.4</ele>
        <time>2020-06-27T16:33:25Z</time>
      </trkpt>
      <trkpt lat="49.03644" lon="7.94927">
        <ele>159.4</ele>
        <time>2020-06-27T16:33:26Z</time>
      </trkpt>
      <trkpt lat="49.03646" lon="7.94926">
        <ele>159.4</ele>
        <time>2020-06-27T16:33:27Z</time>
      </trkpt>
      <trkpt lat="49.03646" lon="7.94927">
        <ele>159.4</ele>
        <time>2020-06-27T16:33:28Z</time>
      </trkpt>
      <trkpt lat="49.03646" lon="7.94926">
        <ele>159.4</ele>
        <time>2020-06-27T16:33:29Z</time>
      </trkpt>
      <trkpt lat="49.03646" lon="7.94926">
        <ele>159.4</ele>
        <time>2020-06-27T16:33:30Z</time>
      </trkpt>
      <trkpt lat="49.03645" lon="7.94925">
        <ele>159.4</ele>
        <time>2020-06-27T16:33:31Z</time>
      </trkpt>
      <trkpt lat="49.03645" lon="7.94925">
        <ele>159.4</ele>
        <time>2020-06-27T16:33:32Z</time>
      </trkpt>
      <trkpt lat="49.03645" lon="7.94925">
        <ele>159.4</ele>
        <time>2020-06-27T16:33:33Z</time>
      </trkpt>
      <trkpt lat="49.03644" lon="7.94924">
        <ele>159.4</ele>
        <time>2020-06-27T16:33:34Z</time>
      </trkpt>
      <trkpt lat="49.03644" lon="7.94924">
        <ele>159.4</ele>
        <time>2020-06-27T16:33:35Z</time>
      </trkpt>
      <trkpt lat="49.03644" lon="7.94923">
        <ele>159.4</ele>
        <time>2020-06-27T16:33:36Z</time>
      </trkpt>
      <trkpt lat="49.03644" lon="7.94923">
        <ele>159.4</ele>
        <time>2020-06-27T16:33:37Z</time>
      </trkpt>
      <trkpt lat="49.03643" lon="7.94922">
        <ele>159.4</ele>
        <time>2020-06-27T16:37:43Z</time>
      </trkpt>
      <trkpt lat="49.03643" lon="7.94922">
        <ele>159.4</ele>
        <time>2020-06-27T16:37:44Z</time>
      </trkpt>
      <trkpt lat="49.03643" lon="7.94922">
        <ele>159.4</ele>
        <time>2020-06-27T16:37:45Z</time>
      </trkpt>
      <trkpt lat="49.03642" lon="7.94921">
        <ele>159.4</ele>
        <time>2020-06-27T16:37:46Z</time>
      </trkpt>
      <trkpt lat="49.03642" lon="7.94921">
        <ele>159.4</ele>
        <time>2020-06-27T16:37:47Z</time>
      </trkpt>
      <trkpt lat="49.03642" lon="7.9492">
        <ele>159.4</ele>
        <time>2020-06-27T16:37:48Z</time>
      </trkpt>
      <trkpt lat="49.03641" lon="7.9492">
        <ele>159.4</ele>
        <time>2020-06-27T16:37:49Z</time>
      </trkpt>
      <trkpt lat="49.03641" lon="7.9492">
        <ele>159.4</ele>
        <time>2020-06-27T16:37:50Z</time>
      </trkpt>
      <trkpt lat="49.03641" lon="7.94919">
        <ele>159.4</ele>
        <time>2020-06-27T16:37:51Z</time>
      </trkpt>
      <trkpt lat="49.0364" lon="7.94919">
        <ele>159.4</ele>
        <time>2020-06-27T16:37:52Z</time>
      </trkpt>
      <trkpt lat="49.0364" lon="7.94918">
        <ele>159.4</ele>
        <time>2020-06-27T16:37:53Z</time>
      </trkpt>
      <trkpt lat="49.0364" lon="7.94918">
        <ele>159.4</ele>
        <time>2020-06-27T16:37:54Z</time>
      </trkpt>
      <trkpt lat="49.0364" lon="7.94917">
        <ele>159.4</ele>
        <time>2020-06-27T16:37:55Z</time>
      </trkpt>
      <trkpt lat="49.03639" lon="7.94917">
        <ele>159.4</ele>
        <time>2020-06-27T16:37:56Z</time>
      </trkpt>
      <trkpt lat="49.03639" lon="7.94916">
        <ele>159.4</ele>
        <time>2020-06-27T16:37:57Z</time>
      </trkpt>
      <trkpt lat="49.03639" lon="7.94915">
        <ele>159.4</ele>
        <time>2020-06-27T16:37:58Z</time>
      </trkpt>
      <trkpt lat="49.03639" lon="7.94917">
        <ele>159.4</ele>
        <time>2020-06-27T16:37:59Z</time>
      </trkpt>
      <trkpt lat="49.03639" lon="7.94919">
        <ele>159.4</ele>
        <time>2020-06-27T16:38:00Z</time>
      </trkpt>
      <trkpt lat="49.03639" lon="7.9492">
        <ele>159.4</ele>
        <time>2020-06-27T16:38:01Z</time>
      </trkpt>
      <trkpt lat="49.03639" lon="7.94921">
        <ele>159.4</ele>
        <time>2020-06-27T16:38:02Z</time>
      </trkpt>
      <trkpt lat="49.03639" lon="7.94921">
        <ele>159.4</ele>
        <time>2020-06-27T16:38:03Z</time>
      </trkpt>
      <trkpt lat="49.03637" lon="7.94921">
        <ele>159.4</ele>
        <time>2020-06-27T16:38:04Z</time>
      </trkpt>
      <trkpt lat="49.03637" lon="7.9492">
        <ele>159.4</ele>
        <time>2020-06-27T16:38:05Z</time>
      </trkpt>
      <trkpt lat="49.03636" lon="7.9492">
        <ele>159.4</ele>
        <time>2020-06-27T16:38:06Z</time>
      </trkpt>
      <trkpt lat="49.03635" lon="7.9492">
        <ele>159.4</ele>
        <time>2020-06-27T16:38:07Z</time>
      </trkpt>
      <trkpt lat="49.03635" lon="7.9492">
        <ele>159.4</ele>
        <time>2020-06-27T16:38:08Z</time>
      </trkpt>
      <trkpt lat="49.03634" lon="7.9492">
        <ele>159.4</ele>
        <time>2020-06-27T16:38:09Z</time>
      </trkpt>
      <trkpt lat="49.03634" lon="7.9492">
        <ele>159.4</ele>
        <time>2020-06-27T16:38:10Z</time>
      </trkpt>
      <trkpt lat="49.03633" lon="7.9492">
        <ele>159.4</ele>
        <time>2020-06-27T16:38:11Z</time>
      </trkpt>
      <trkpt lat="49.03632" lon="7.9492">
        <ele>159.4</ele>
        <time>2020-06-27T16:38:12Z</time>
      </trkpt>
      <trkpt lat="49.03632" lon="7.94919">
        <ele>159.4</ele>
        <time>2020-06-27T16:38:13Z</time>
      </trkpt>
      <trkpt lat="49.03632" lon="7.9492">
        <ele>159.4</ele>
        <time>2020-06-27T16:38:14Z</time>
      </trkpt>
      <trkpt lat="49.03632" lon="7.9492">
        <ele>159.4</ele>
        <time>2020-06-27T16:38:15Z</time>
      </trkpt>
      <trkpt lat="49.03632" lon="7.9492">
        <ele>159.4</ele>
        <time>2020-06-27T16:38:16Z</time>
      </trkpt>
      <trkpt lat="49.03632" lon="7.9492">
        <ele>159.4</ele>
        <time>2020-06-27T16:38:17Z</time>
      </trkpt>
      <trkpt lat="49.03631" lon="7.94921">
        <ele>159.4</ele>
        <time>2020-06-27T16:38:18Z</time>
      </trkpt>
      <trkpt lat="49.0363" lon="7.9492">
        <ele>159.4</ele>
        <time>2020-06-27T16:38:19Z</time>
      </trkpt>
      <trkpt lat="49.03629" lon="7.9492">
        <ele>159.4</ele>
        <time>2020-06-27T16:38:20Z</time>
      </trkpt>
      <trkpt lat="49.03629" lon="7.9492">
        <ele>159.4</ele>
        <time>2020-06-27T16:38:21Z</time>
      </trkpt>
      <trkpt lat="49.03628" lon="7.94919">
        <ele>159.4</ele>
        <time>2020-06-27T16:38:22Z</time>
      </trkpt>
      <trkpt lat="49.03628" lon="7.94919">
        <ele>159.4</ele>
        <time>2020-06-27T16:38:23Z</time>
      </trkpt>
      <trkpt lat="49.03627" lon="7.94918">
        <ele>159.4</ele>
        <time>2020-06-27T16:38:24Z</time>
      </trkpt>
      <trkpt lat="49.03626" lon="7.94917">
        <ele>159.4</ele>
        <time>2020-06-27T16:38:25Z</time>
      </trkpt>
      <trkpt lat="49.03625" lon="7.94917">
        <ele>159.4</ele>
        <time>2020-06-27T16:38:26Z</time>
      </trkpt>
      <trkpt lat="49.03625" lon="7.94917">
        <ele>159.4</ele>
        <time>2020-06-27T16:38:27Z</time>
      </trkpt>
      <trkpt lat="49.03625" lon="7.94917">
        <ele>159.4</ele>
        <time>2020-06-27T16:38:28Z</time>
      </trkpt>
      <trkpt lat="49.03624" lon="7.94917">
        <ele>159.4</ele>
        <time>2020-06-27T16:38:29Z</time>
      </trkpt>
      <trkpt lat="49.03624" lon="7.94917">
        <ele>159.4</ele>
        <time>2020-06-27T16:38:30Z</time>
      </trkpt>
      <trkpt lat="49.03623" lon="7.94917">
        <ele>159.4</ele>
        <time>2020-06-27T16:38:31Z</time>
      </trkpt>
      <trkpt lat="49.03623" lon="7.94918">
        <ele>159.4</ele>
        <time>2020-06-27T16:38:32Z</time>
      </trkpt>
      <trkpt lat="49.03623" lon="7.94918">
        <ele>159.4</ele>
        <time>2020-06-27T16:38:33Z</time>
      </trkpt>
      <trkpt lat="49.03622" lon="7.94918">
        <ele>159.4</ele>
        <time>2020-06-27T16:38:34Z</time>
      </trkpt>
      <trkpt lat="49.03622" lon="7.94918">
        <ele>159.4</ele>
        <time>2020-06-27T16:38:35Z</time>
      </trkpt>
      <trkpt lat="49.03622" lon="7.94918">
        <ele>159.4</ele>
        <time>2020-06-27T16:38:36Z</time>
      </trkpt>
      <trkpt lat="49.03623" lon="7.94918">
        <ele>159.4</ele>
        <time>2020-06-27T16:38:37Z</time>
      </trkpt>
      <trkpt lat="49.03623" lon="7.94918">
        <ele>159.4</ele>
        <time>2020-06-27T16:38:38Z</time>
      </trkpt>
      <trkpt lat="49.03624" lon="7.94917">
        <ele>159.4</ele>
        <time>2020-06-27T16:38:39Z</time>
      </trkpt>
      <trkpt lat="49.03624" lon="7.94917">
        <ele>159.4</ele>
        <time>2020-06-27T16:38:40Z</time>
      </trkpt>
      <trkpt lat="49.03624" lon="7.94917">
        <ele>159.4</ele>
        <time>2020-06-27T16:38:41Z</time>
      </trkpt>
      <trkpt lat="49.03624" lon="7.94917">
        <ele>159.4</ele>
        <time>2020-06-27T16:38:42Z</time>
      </trkpt>
      <trkpt lat="49.03624" lon="7.94917">
        <ele>159.4</ele>
        <time>2020-06-27T16:38:43Z</time>
      </trkpt>
      <trkpt lat="49.03624" lon="7.94917">
        <ele>159.4</ele>
        <time>2020-06-27T16:38:44Z</time>
      </trkpt>
      <trkpt lat="49.03624" lon="7.94917">
        <ele>159.4</ele>
        <time>2020-06-27T16:38:45Z</time>
      </trkpt>
      <trkpt lat="49.03625" lon="7.94917">
        <ele>159.4</ele>
        <time>2020-06-27T16:38:46Z</time>
      </trkpt>
      <trkpt lat="49.03624" lon="7.94917">
        <ele>159.4</ele>
        <time>2020-06-27T16:38:47Z</time>
      </trkpt>
      <trkpt lat="49.03625" lon="7.94917">
        <ele>159.4</ele>
        <time>2020-06-27T16:38:48Z</time>
      </trkpt>
      <trkpt lat="49.03624" lon="7.94917">
        <ele>159.4</ele>
        <time>2020-06-27T16:38:49Z</time>
      </trkpt>
      <trkpt lat="49.03624" lon="7.94918">
        <ele>159.4</ele>
        <time>2020-06-27T16:38:50Z</time>
      </trkpt>
      <trkpt lat="49.03624" lon="7.94918">
        <ele>159.4</ele>
        <time>2020-06-27T16:38:51Z</time>
      </trkpt>
      <trkpt lat="49.03624" lon="7.94918">
        <ele>159.4</ele>
        <time>2020-06-27T16:38:52Z</time>
      </trkpt>
      <trkpt lat="49.03625" lon="7.94917">
        <ele>159.4</ele>
        <time>2020-06-27T16:38:53Z</time>
      </trkpt>
      <trkpt lat="49.03625" lon="7.94916">
        <ele>159.4</ele>
        <time>2020-06-27T16:38:54Z</time>
      </trkpt>
      <trkpt lat="49.03625" lon="7.94918">
        <ele>159.4</ele>
        <time>2020-06-27T16:38:55Z</time>
      </trkpt>
      <trkpt lat="49.03625" lon="7.94918">
        <ele>159.4</ele>
        <time>2020-06-27T16:38:56Z</time>
      </trkpt>
      <trkpt lat="49.03624" lon="7.94919">
        <ele>159.4</ele>
        <time>2020-06-27T16:38:57Z</time>
      </trkpt>
      <trkpt lat="49.03624" lon="7.94919">
        <ele>159.4</ele>
        <time>2020-06-27T16:38:58Z</time>
      </trkpt>
      <trkpt lat="49.03623" lon="7.94919">
        <ele>159.4</ele>
        <time>2020-06-27T16:38:59Z</time>
      </trkpt>
      <trkpt lat="49.03622" lon="7.94919">
        <ele>159.4</ele>
        <time>2020-06-27T16:39:00Z</time>
      </trkpt>
      <trkpt lat="49.03621" lon="7.94919">
        <ele>159.4</ele>
        <time>2020-06-27T16:39:01Z</time>
      </trkpt>
      <trkpt lat="49.03621" lon="7.94918">
        <ele>159.4</ele>
        <time>2020-06-27T16:39:02Z</time>
      </trkpt>
      <trkpt lat="49.0362" lon="7.94918">
        <ele>159.4</ele>
        <time>2020-06-27T16:39:03Z</time>
      </trkpt>
      <trkpt lat="49.0362" lon="7.94918">
        <ele>159.4</ele>
        <time>2020-06-27T16:39:04Z</time>
      </trkpt>
      <trkpt lat="49.03619" lon="7.94917">
        <ele>159.4</ele>
        <time>2020-06-27T16:39:05Z</time>
      </trkpt>
      <trkpt lat="49.03618" lon="7.94917">
        <ele>159.4</ele>
        <time>2020-06-27T16:39:06Z</time>
      </trkpt>
      <trkpt lat="49.03619" lon="7.94917">
        <ele>159.4</ele>
        <time>2020-06-27T16:39:07Z</time>
      </trkpt>
      <trkpt lat="49.03619" lon="7.94916">
        <ele>159.4</ele>
        <time>2020-06-27T16:39:08Z</time>
      </trkpt>
      <trkpt lat="49.03619" lon="7.94916">
        <ele>159.4</ele>
        <time>2020-06-27T16:39:09Z</time>
      </trkpt>
      <trkpt lat="49.03619" lon="7.94916">
        <ele>159.4</ele>
        <time>2020-06-27T16:39:10Z</time>
      </trkpt>
      <trkpt lat="49.03619" lon="7.94916">
        <ele>159.4</ele>
        <time>2020-06-27T16:39:11Z</time>
      </trkpt>
      <trkpt lat="49.03619" lon="7.94916">
        <ele>159.4</ele>
        <time>2020-06-27T16:39:12Z</time>
      </trkpt>
      <trkpt lat="49.03619" lon="7.94916">
        <ele>159.4</ele>
        <time>2020-06-27T16:39:13Z</time>
      </trkpt>
      <trkpt lat="49.03619" lon="7.94915">
        <ele>159.4</ele>
        <time>2020-06-27T16:39:14Z</time>
      </trkpt>
      <trkpt lat="49.03619" lon="7.94915">
        <ele>159.4</ele>
        <time>2020-06-27T16:39:15Z</time>
      </trkpt>
      <trkpt lat="49.0362" lon="7.94915">
        <ele>159.4</ele>
        <time>2020-06-27T16:39:16Z</time>
      </trkpt>
      <trkpt lat="49.03621" lon="7.94913">
        <ele>159.4</ele>
        <time>2020-06-27T16:39:17Z</time>
      </trkpt>
      <trkpt lat="49.03622" lon="7.94913">
        <ele>159.4</ele>
        <time>2020-06-27T16:39:18Z</time>
      </trkpt>
      <trkpt lat="49.03623" lon="7.94914">
        <ele>159.4</ele>
        <time>2020-06-27T16:39:19Z</time>
      </trkpt>
      <trkpt lat="49.03623" lon="7.94914">
        <ele>159.4</ele>
        <time>2020-06-27T16:39:20Z</time>
      </trkpt>
      <trkpt lat="49.03624" lon="7.94914">
        <ele>159.4</ele>
        <time>2020-06-27T16:39:21Z</time>
      </trkpt>
      <trkpt lat="49.03624" lon="7.94914">
        <ele>159.4</ele>
        <time>2020-06-27T16:39:22Z</time>
      </trkpt>
      <trkpt lat="49.03624" lon="7.94914">
        <ele>159.4</ele>
        <time>2020-06-27T16:39:23Z</time>
      </trkpt>
      <trkpt lat="49.03625" lon="7.94914">
        <ele>159.4</ele>
        <time>2020-06-27T16:39:24Z</time>
      </trkpt>
      <trkpt lat="49.03625" lon="7.94914">
        <ele>159.4</ele>
        <time>2020-06-27T16:39:25Z</time>
      </trkpt>
      <trkpt lat="49.03626" lon="7.94915">
        <ele>159.4</ele>
        <time>2020-06-27T16:39:26Z</time>
      </trkpt>
      <trkpt lat="49.03627" lon="7.94915">
        <ele>159.4</ele>
        <time>2020-06-27T16:39:27Z</time>
      </trkpt>
      <trkpt lat="49.03628" lon="7.94915">
        <ele>159.4</ele>
        <time>2020-06-27T16:39:28Z</time>
      </trkpt>
      <trkpt lat="49.03628" lon="7.94916">
        <ele>159.4</ele>
        <time>2020-06-27T16:39:29Z</time>
      </trkpt>
      <trkpt lat="49.03628" lon="7.94916">
        <ele>159.4</ele>
        <time>2020-06-27T16:39:30Z</time>
      </trkpt>
      <trkpt lat="49.03628" lon="7.94918">
        <ele>159.4</ele>
        <time>2020-06-27T16:39:31Z</time>
      </trkpt>
      <trkpt lat="49.03629" lon="7.94919">
        <ele>159.4</ele>
        <time>2020-06-27T16:39:32Z</time>
      </trkpt>
      <trkpt lat="49.03628" lon="7.9492">
        <ele>159.4</ele>
        <time>2020-06-27T16:39:33Z</time>
      </trkpt>
      <trkpt lat="49.03629" lon="7.94921">
        <ele>159.4</ele>
        <time>2020-06-27T16:39:34Z</time>
      </trkpt>
      <trkpt lat="49.0363" lon="7.94921">
        <ele>159.4</ele>
        <time>2020-06-27T16:39:35Z</time>
      </trkpt>
      <trkpt lat="49.03631" lon="7.94921">
        <ele>159.4</ele>
        <time>2020-06-27T16:39:36Z</time>
      </trkpt>
      <trkpt lat="49.03631" lon="7.94922">
        <ele>159.4</ele>
        <time>2020-06-27T16:39:37Z</time>
      </trkpt>
      <trkpt lat="49.03632" lon="7.94922">
        <ele>159.4</ele>
        <time>2020-06-27T16:39:38Z</time>
      </trkpt>
      <trkpt lat="49.03633" lon="7.94923">
        <ele>159.4</ele>
        <time>2020-06-27T16:39:39Z</time>
      </trkpt>
      <trkpt lat="49.03633" lon="7.94923">
        <ele>159.4</ele>
        <time>2020-06-27T16:39:40Z</time>
      </trkpt>
      <trkpt lat="49.03633" lon="7.94923">
        <ele>159.4</ele>
        <time>2020-06-27T16:39:41Z</time>
      </trkpt>
      <trkpt lat="49.03633" lon="7.94922">
        <ele>159.4</ele>
        <time>2020-06-27T16:39:42Z</time>
      </trkpt>
      <trkpt lat="49.03633" lon="7.94922">
        <ele>159.4</ele>
        <time>2020-06-27T16:39:43Z</time>
      </trkpt>
      <trkpt lat="49.03633" lon="7.94922">
        <ele>159.4</ele>
        <time>2020-06-27T16:39:44Z</time>
      </trkpt>
      <trkpt lat="49.03633" lon="7.94922">
        <ele>159.4</ele>
        <time>2020-06-27T16:39:45Z</time>
      </trkpt>
      <trkpt lat="49.03632" lon="7.94922">
        <ele>159.4</ele>
        <time>2020-06-27T16:39:46Z</time>
      </trkpt>
      <trkpt lat="49.03633" lon="7.94921">
        <ele>159.4</ele>
        <time>2020-06-27T16:39:47Z</time>
      </trkpt>
      <trkpt lat="49.03632" lon="7.94921">
        <ele>159.4</ele>
        <time>2020-06-27T16:39:48Z</time>
      </trkpt>
      <trkpt lat="49.03632" lon="7.94922">
        <ele>159.4</ele>
        <time>2020-06-27T16:39:49Z</time>
      </trkpt>
      <trkpt lat="49.03632" lon="7.94922">
        <ele>159.4</ele>
        <time>2020-06-27T16:39:50Z</time>
      </trkpt>
      <trkpt lat="49.03632" lon="7.94922">
        <ele>159.4</ele>
        <time>2020-06-27T16:39:51Z</time>
      </trkpt>
      <trkpt lat="49.03632" lon="7.94922">
        <ele>159.4</ele>
        <time>2020-06-27T16:39:52Z</time>
      </trkpt>
      <trkpt lat="49.03632" lon="7.94922">
        <ele>159.4</ele>
        <time>2020-06-27T16:39:53Z</time>
      </trkpt>
      <trkpt lat="49.03632" lon="7.94922">
        <ele>159.4</ele>
        <time>2020-06-27T16:39:54Z</time>
      </trkpt>
      <trkpt lat="49.03632" lon="7.94922">
        <ele>159.4</ele>
        <time>2020-06-27T16:39:55Z</time>
      </trkpt>
      <trkpt lat="49.03632" lon="7.94922">
        <ele>159.4</ele>
        <time>2020-06-27T16:39:56Z</time>
      </trkpt>
      <trkpt lat="49.03632" lon="7.94922">
        <ele>159.4</ele>
        <time>2020-06-27T16:39:57Z</time>
      </trkpt>
      <trkpt lat="49.03636" lon="7.94917">
        <ele>159.4</ele>
        <time>2020-06-27T16:45:02Z</time>
      </trkpt>
      <trkpt lat="49.03635" lon="7.94918">
        <ele>159.4</ele>
        <time>2020-06-27T16:45:03Z</time>
      </trkpt>
      <trkpt lat="49.03635" lon="7.94918">
        <ele>159.4</ele>
        <time>2020-06-27T16:45:04Z</time>
      </trkpt>
      <trkpt lat="49.03635" lon="7.94918">
        <ele>159.4</ele>
        <time>2020-06-27T16:45:05Z</time>
      </trkpt>
      <trkpt lat="49.03634" lon="7.94918">
        <ele>159.4</ele>
        <time>2020-06-27T16:45:06Z</time>
      </trkpt>
      <trkpt lat="49.03634" lon="7.94918">
        <ele>159.4</ele>
        <time>2020-06-27T16:45:07Z</time>
      </trkpt>
      <trkpt lat="49.03633" lon="7.94918">
        <ele>159.4</ele>
        <time>2020-06-27T16:45:08Z</time>
      </trkpt>
      <trkpt lat="49.03633" lon="7.94919">
        <ele>159.4</ele>
        <time>2020-06-27T16:45:09Z</time>
      </trkpt>
      <trkpt lat="49.03633" lon="7.94919">
        <ele>159.4</ele>
        <time>2020-06-27T16:45:10Z</time>
      </trkpt>
      <trkpt lat="49.03633" lon="7.94919">
        <ele>159.4</ele>
        <time>2020-06-27T16:45:11Z</time>
      </trkpt>
      <trkpt lat="49.03633" lon="7.94919">
        <ele>159.4</ele>
        <time>2020-06-27T16:45:12Z</time>
      </trkpt>
      <trkpt lat="49.03632" lon="7.94918">
        <ele>159.4</ele>
        <time>2020-06-27T16:45:13Z</time>
      </trkpt>
      <trkpt lat="49.03632" lon="7.94918">
        <ele>159.4</ele>
        <time>2020-06-27T16:45:14Z</time>
      </trkpt>
      <trkpt lat="49.03632" lon="7.94918">
        <ele>159.4</ele>
        <time>2020-06-27T16:45:15Z</time>
      </trkpt>
      <trkpt lat="49.03632" lon="7.94918">
        <ele>159.4</ele>
        <time>2020-06-27T16:45:16Z</time>
      </trkpt>
      <trkpt lat="49.03632" lon="7.94917">
        <ele>159.4</ele>
        <time>2020-06-27T16:45:17Z</time>
      </trkpt>
      <trkpt lat="49.03632" lon="7.94917">
        <ele>159.4</ele>
        <time>2020-06-27T16:45:18Z</time>
      </trkpt>
      <trkpt lat="49.03631" lon="7.94918">
        <ele>159.4</ele>
        <time>2020-06-27T16:45:19Z</time>
      </trkpt>
      <trkpt lat="49.0363" lon="7.94918">
        <ele>159.4</ele>
        <time>2020-06-27T16:45:20Z</time>
      </trkpt>
      <trkpt lat="49.0363" lon="7.94919">
        <ele>159.4</ele>
        <time>2020-06-27T16:45:21Z</time>
      </trkpt>
      <trkpt lat="49.0363" lon="7.94919">
        <ele>159.4</ele>
        <time>2020-06-27T16:45:22Z</time>
      </trkpt>
      <trkpt lat="49.0363" lon="7.94919">
        <ele>159.4</ele>
        <time>2020-06-27T16:45:23Z</time>
      </trkpt>
      <trkpt lat="49.03629" lon="7.94919">
        <ele>159.4</ele>
        <time>2020-06-27T16:45:24Z</time>
      </trkpt>
      <trkpt lat="49.03629" lon="7.94918">
        <ele>159.4</ele>
        <time>2020-06-27T16:45:25Z</time>
      </trkpt>
      <trkpt lat="49.03628" lon="7.94918">
        <ele>159.4</ele>
        <time>2020-06-27T16:45:26Z</time>
      </trkpt>
      <trkpt lat="49.03628" lon="7.94918">
        <ele>159.4</ele>
        <time>2020-06-27T16:45:27Z</time>
      </trkpt>
      <trkpt lat="49.03628" lon="7.94917">
        <ele>159.4</ele>
        <time>2020-06-27T16:45:28Z</time>
      </trkpt>
      <trkpt lat="49.03628" lon="7.94917">
        <ele>159.4</ele>
        <time>2020-06-27T16:45:29Z</time>
      </trkpt>
      <trkpt lat="49.03628" lon="7.94918">
        <ele>159.4</ele>
        <time>2020-06-27T16:45:30Z</time>
      </trkpt>
      <trkpt lat="49.03627" lon="7.94918">
        <ele>159.4</ele>
        <time>2020-06-27T16:45:31Z</time>
      </trkpt>
      <trkpt lat="49.03626" lon="7.94918">
        <ele>159.4</ele>
        <time>2020-06-27T16:45:32Z</time>
      </trkpt>
      <trkpt lat="49.03626" lon="7.94918">
        <ele>159.4</ele>
        <time>2020-06-27T16:45:33Z</time>
      </trkpt>
      <trkpt lat="49.03625" lon="7.94918">
        <ele>159.4</ele>
        <time>2020-06-27T16:45:34Z</time>
      </trkpt>
      <trkpt lat="49.03624" lon="7.94918">
        <ele>159.4</ele>
        <time>2020-06-27T16:45:35Z</time>
      </trkpt>
      <trkpt lat="49.03623" lon="7.94918">
        <ele>159.4</ele>
        <time>2020-06-27T16:45:36Z</time>
      </trkpt>
      <trkpt lat="49.03623" lon="7.94919">
        <ele>159.4</ele>
        <time>2020-06-27T16:45:37Z</time>
      </trkpt>
      <trkpt lat="49.03622" lon="7.94919">
        <ele>159.4</ele>
        <time>2020-06-27T16:45:38Z</time>
      </trkpt>
      <trkpt lat="49.03622" lon="7.94918">
        <ele>159.4</ele>
        <time>2020-06-27T16:45:39Z</time>
      </trkpt>
      <trkpt lat="49.03621" lon="7.94918">
        <ele>159.4</ele>
        <time>2020-06-27T16:45:40Z</time>
      </trkpt>
      <trkpt lat="49.03621" lon="7.94918">
        <ele>159.4</ele>
        <time>2020-06-27T16:45:41Z</time>
      </trkpt>
      <trkpt lat="49.03622" lon="7.94917">
        <ele>159.4</ele>
        <time>2020-06-27T16:45:42Z</time>
      </trkpt>
      <trkpt lat="49.03623" lon="7.94916">
        <ele>159.4</ele>
        <time>2020-06-27T16:45:43Z</time>
      </trkpt>
      <trkpt lat="49.03622" lon="7.94916">
        <ele>159.4</ele>
        <time>2020-06-27T16:45:44Z</time>
      </trkpt>
      <trkpt lat="49.03623" lon="7.94917">
        <ele>159.4</ele>
        <time>2020-06-27T16:45:45Z</time>
      </trkpt>
      <trkpt lat="49.03624" lon="7.94917">
        <ele>159.4</ele>
        <time>2020-06-27T16:45:46Z</time>
      </trkpt>
      <trkpt lat="49.03624" lon="7.94918">
        <ele>159.4</ele>
        <time>2020-06-27T16:45:47Z</time>
      </trkpt>
      <trkpt lat="49.03625" lon="7.94919">
        <ele>159.4</ele>
        <time>2020-06-27T16:45:48Z</time>
      </trkpt>
      <trkpt lat="49.03625" lon="7.94919">
        <ele>159.4</ele>
        <time>2020-06-27T16:45:49Z</time>
      </trkpt>
      <trkpt lat="49.03626" lon="7.9492">
        <ele>159.4</ele>
        <time>2020-06-27T16:45:50Z</time>
      </trkpt>
      <trkpt lat="49.03627" lon="7.9492">
        <ele>159.4</ele>
        <time>2020-06-27T16:45:51Z</time>
      </trkpt>
      <trkpt lat="49.03628" lon="7.9492">
        <ele>159.4</ele>
        <time>2020-06-27T16:45:52Z</time>
      </trkpt>
      <trkpt lat="49.03629" lon="7.9492">
        <ele>159.4</ele>
        <time>2020-06-27T16:45:53Z</time>
      </trkpt>
      <trkpt lat="49.03629" lon="7.9492">
        <ele>159.4</ele>
        <time>2020-06-27T16:45:54Z</time>
      </trkpt>
      <trkpt lat="49.03629" lon="7.9492">
        <ele>159.4</ele>
        <time>2020-06-27T16:45:55Z</time>
      </trkpt>
      <trkpt lat="49.03629" lon="7.9492">
        <ele>159.4</ele>
        <time>2020-06-27T16:45:56Z</time>
      </trkpt>
      <trkpt lat="49.03629" lon="7.9492">
        <ele>159.4</ele>
        <time>2020-06-27T16:45:57Z</time>
      </trkpt>
      <trkpt lat="49.03629" lon="7.9492">
        <ele>159.4</ele>
        <time>2020-06-27T16:45:58Z</time>
      </trkpt>
      <trkpt lat="49.03629" lon="7.9492">
        <ele>159.4</ele>
        <time>2020-06-27T16:45:59Z</time>
      </trkpt>
      <trkpt lat="49.0363" lon="7.9492">
        <ele>159.4</ele>
        <time>2020-06-27T16:46:00Z</time>
      </trkpt>
      <trkpt lat="49.0363" lon="7.94921">
        <ele>159.4</ele>
        <time>2020-06-27T16:46:01Z</time>
      </trkpt>
      <trkpt lat="49.0363" lon="7.94921">
        <ele>159.4</ele>
        <time>2020-06-27T16:46:02Z</time>
      </trkpt>
      <trkpt lat="49.03632" lon="7.94921">
        <ele>159.4</ele>
        <time>2020-06-27T16:46:03Z</time>
      </trkpt>
      <trkpt lat="49.03632" lon="7.94921">
        <ele>159.4</ele>
        <time>2020-06-27T16:46:04Z</time>
      </trkpt>
      <trkpt lat="49.03632" lon="7.9492">
        <ele>159.4</ele>
        <time>2020-06-27T16:46:05Z</time>
      </trkpt>
      <trkpt lat="49.03632" lon="7.9492">
        <ele>159.4</ele>
        <time>2020-06-27T16:46:06Z</time>
      </trkpt>
      <trkpt lat="49.03632" lon="7.9492">
        <ele>159.4</ele>
        <time>2020-06-27T16:46:07Z</time>
      </trkpt>
      <trkpt lat="49.03632" lon="7.94919">
        <ele>159.4</ele>
        <time>2020-06-27T16:46:08Z</time>
      </trkpt>
      <trkpt lat="49.03631" lon="7.94918">
        <ele>159.4</ele>
        <time>2020-06-27T16:46:09Z</time>
      </trkpt>
      <trkpt lat="49.03631" lon="7.94918">
        <ele>159.4</ele>
        <time>2020-06-27T16:46:10Z</time>
      </trkpt>
      <trkpt lat="49.03631" lon="7.94918">
        <ele>159.4</ele>
        <time>2020-06-27T16:46:11Z</time>
      </trkpt>
      <trkpt lat="49.03631" lon="7.94918">
        <ele>159.4</ele>
        <time>2020-06-27T16:46:12Z</time>
      </trkpt>
      <trkpt lat="49.0363" lon="7.94918">
        <ele>159.4</ele>
        <time>2020-06-27T16:46:13Z</time>
      </trkpt>
      <trkpt lat="49.03629" lon="7.94918">
        <ele>159.4</ele>
        <time>2020-06-27T16:46:14Z</time>
      </trkpt>
      <trkpt lat="49.03629" lon="7.94918">
        <ele>159.4</ele>
        <time>2020-06-27T16:46:15Z</time>
      </trkpt>
      <trkpt lat="49.03628" lon="7.94919">
        <ele>159.4</ele>
        <time>2020-06-27T16:46:16Z</time>
      </trkpt>
      <trkpt lat="49.03628" lon="7.94919">
        <ele>159.4</ele>
        <time>2020-06-27T16:46:17Z</time>
      </trkpt>
      <trkpt lat="49.03627" lon="7.94919">
        <ele>159.4</ele>
        <time>2020-06-27T16:46:18Z</time>
      </trkpt>
      <trkpt lat="49.03627" lon="7.94919">
        <ele>159.4</ele>
        <time>2020-06-27T16:46:19Z</time>
      </trkpt>
      <trkpt lat="49.03627" lon="7.9492">
        <ele>159.4</ele>
        <time>2020-06-27T16:46:20Z</time>
      </trkpt>
      <trkpt lat="49.03627" lon="7.9492">
        <ele>159.4</ele>
        <time>2020-06-27T16:46:21Z</time>
      </trkpt>
      <trkpt lat="49.03627" lon="7.9492">
        <ele>159.4</ele>
        <time>2020-06-27T16:46:22Z</time>
      </trkpt>
      <trkpt lat="49.03626" lon="7.94919">
        <ele>159.4</ele>
        <time>2020-06-27T16:46:23Z</time>
      </trkpt>
      <trkpt lat="49.03626" lon="7.9492">
        <ele>159.4</ele>
        <time>2020-06-27T16:46:24Z</time>
      </trkpt>
      <trkpt lat="49.03626" lon="7.94919">
        <ele>159.4</ele>
        <time>2020-06-27T16:46:25Z</time>
      </trkpt>
      <trkpt lat="49.03625" lon="7.94919">
        <ele>159.4</ele>
        <time>2020-06-27T16:46:26Z</time>
      </trkpt>
      <trkpt lat="49.03625" lon="7.94919">
        <ele>159.4</ele>
        <time>2020-06-27T16:46:27Z</time>
      </trkpt>
      <trkpt lat="49.03625" lon="7.94919">
        <ele>159.4</ele>
        <time>2020-06-27T16:46:28Z</time>
      </trkpt>
      <trkpt lat="49.03624" lon="7.94919">
        <ele>159.4</ele>
        <time>2020-06-27T16:46:29Z</time>
      </trkpt>
      <trkpt lat="49.03624" lon="7.94919">
        <ele>159.4</ele>
        <time>2020-06-27T16:46:30Z</time>
      </trkpt>
      <trkpt lat="49.03623" lon="7.94919">
        <ele>159.4</ele>
        <time>2020-06-27T16:46:31Z</time>
      </trkpt>
      <trkpt lat="49.03623" lon="7.94919">
        <ele>159.4</ele>
        <time>2020-06-27T16:46:32Z</time>
      </trkpt>
      <trkpt lat="49.03622" lon="7.94919">
        <ele>159.4</ele>
        <time>2020-06-27T16:46:33Z</time>
      </trkpt>
      <trkpt lat="49.03621" lon="7.94919">
        <ele>159.4</ele>
        <time>2020-06-27T16:46:34Z</time>
      </trkpt>
      <trkpt lat="49.03621" lon="7.94919">
        <ele>159.4</ele>
        <time>2020-06-27T16:46:35Z</time>
      </trkpt>
      <trkpt lat="49.0362" lon="7.94919">
        <ele>159.4</ele>
        <time>2020-06-27T16:46:36Z</time>
      </trkpt>
      <trkpt lat="49.0362" lon="7.94919">
        <ele>159.4</ele>
        <time>2020-06-27T16:46:37Z</time>
      </trkpt>
      <trkpt lat="49.03619" lon="7.94919">
        <ele>159.4</ele>
        <time>2020-06-27T16:46:38Z</time>
      </trkpt>
      <trkpt lat="49.03619" lon="7.9492">
        <ele>159.4</ele>
        <time>2020-06-27T16:46:39Z</time>
      </trkpt>
      <trkpt lat="49.03618" lon="7.9492">
        <ele>159.4</ele>
        <time>2020-06-27T16:46:40Z</time>
      </trkpt>
      <trkpt lat="49.03618" lon="7.9492">
        <ele>159.4</ele>
        <time>2020-06-27T16:46:41Z</time>
      </trkpt>
      <trkpt lat="49.03618" lon="7.9492">
        <ele>159.4</ele>
        <time>2020-06-27T16:46:42Z</time>
      </trkpt>
      <trkpt lat="49.03617" lon="7.9492">
        <ele>159.4</ele>
        <time>2020-06-27T16:46:43Z</time>
      </trkpt>
      <trkpt lat="49.03617" lon="7.9492">
        <ele>159.4</ele>
        <time>2020-06-27T16:46:44Z</time>
      </trkpt>
      <trkpt lat="49.03617" lon="7.9492">
        <ele>159.4</ele>
        <time>2020-06-27T16:46:45Z</time>
      </trkpt>
      <trkpt lat="49.03617" lon="7.9492">
        <ele>159.4</ele>
        <time>2020-06-27T16:46:46Z</time>
      </trkpt>
      <trkpt lat="49.03617" lon="7.9492">
        <ele>159.4</ele>
        <time>2020-06-27T16:46:47Z</time>
      </trkpt>
      <trkpt lat="49.03617" lon="7.9492">
        <ele>159.4</ele>
        <time>2020-06-27T16:46:48Z</time>
      </trkpt>
      <trkpt lat="49.03617" lon="7.94919">
        <ele>159.4</ele>
        <time>2020-06-27T16:46:49Z</time>
      </trkpt>
      <trkpt lat="49.03617" lon="7.94919">
        <ele>159.4</ele>
        <time>2020-06-27T16:46:50Z</time>
      </trkpt>
      <trkpt lat="49.03617" lon="7.94919">
        <ele>159.4</ele>
        <time>2020-06-27T16:46:51Z</time>
      </trkpt>
      <trkpt lat="49.03618" lon="7.94919">
        <ele>159.4</ele>
        <time>2020-06-27T16:46:52Z</time>
      </trkpt>
      <trkpt lat="49.03618" lon="7.94919">
        <ele>159.4</ele>
        <time>2020-06-27T16:46:53Z</time>
      </trkpt>
      <trkpt lat="49.03618" lon="7.94919">
        <ele>159.4</ele>
        <time>2020-06-27T16:46:54Z</time>
      </trkpt>
      <trkpt lat="49.03619" lon="7.9492">
        <ele>159.4</ele>
        <time>2020-06-27T16:46:55Z</time>
      </trkpt>
      <trkpt lat="49.03619" lon="7.9492">
        <ele>159.4</ele>
        <time>2020-06-27T16:46:56Z</time>
      </trkpt>
      <trkpt lat="49.0362" lon="7.94921">
        <ele>159.4</ele>
        <time>2020-06-27T16:46:57Z</time>
      </trkpt>
      <trkpt lat="49.03621" lon="7.94921">
        <ele>159.4</ele>
        <time>2020-06-27T16:46:58Z</time>
      </trkpt>
      <trkpt lat="49.03619" lon="7.94917">
        <ele>159.4</ele>
        <time>2020-06-27T16:47:07Z</time>
      </trkpt>
      <trkpt lat="49.03619" lon="7.94916">
        <ele>159.4</ele>
        <time>2020-06-27T16:47:08Z</time>
      </trkpt>
      <trkpt lat="49.0362" lon="7.94916">
        <ele>159.4</ele>
        <time>2020-06-27T16:47:09Z</time>
      </trkpt>
      <trkpt lat="49.03621" lon="7.94917">
        <ele>159.3</ele>
        <time>2020-06-27T16:47:10Z</time>
      </trkpt>
      <trkpt lat="49.03621" lon="7.94916">
        <ele>159.3</ele>
        <time>2020-06-27T16:47:11Z</time>
      </trkpt>
      <trkpt lat="49.03622" lon="7.94915">
        <ele>159.3</ele>
        <time>2020-06-27T16:47:12Z</time>
      </trkpt>
      <trkpt lat="49.03622" lon="7.94915">
        <ele>159.3</ele>
        <time>2020-06-27T16:47:13Z</time>
      </trkpt>
      <trkpt lat="49.03622" lon="7.94915">
        <ele>159.3</ele>
        <time>2020-06-27T16:47:14Z</time>
      </trkpt>
      <trkpt lat="49.03622" lon="7.94915">
        <ele>159.3</ele>
        <time>2020-06-27T16:47:15Z</time>
      </trkpt>
      <trkpt lat="49.03622" lon="7.94915">
        <ele>159.3</ele>
        <time>2020-06-27T16:47:16Z</time>
      </trkpt>
      <trkpt lat="49.03622" lon="7.94915">
        <ele>159.3</ele>
        <time>2020-06-27T16:47:17Z</time>
      </trkpt>
      <trkpt lat="49.03623" lon="7.94915">
        <ele>159.3</ele>
        <time>2020-06-27T16:47:18Z</time>
      </trkpt>
      <trkpt lat="49.03623" lon="7.94916">
        <ele>159.3</ele>
        <time>2020-06-27T16:47:19Z</time>
      </trkpt>
      <trkpt lat="49.03623" lon="7.94916">
        <ele>159.3</ele>
        <time>2020-06-27T16:47:20Z</time>
      </trkpt>
      <trkpt lat="49.03623" lon="7.94917">
        <ele>159.3</ele>
        <time>2020-06-27T16:47:21Z</time>
      </trkpt>
      <trkpt lat="49.03624" lon="7.94917">
        <ele>159.3</ele>
        <time>2020-06-27T16:47:22Z</time>
      </trkpt>
      <trkpt lat="49.03624" lon="7.94917">
        <ele>159.3</ele>
        <time>2020-06-27T16:47:23Z</time>
      </trkpt>
      <trkpt lat="49.03624" lon="7.94917">
        <ele>159.3</ele>
        <time>2020-06-27T16:47:24Z</time>
      </trkpt>
      <trkpt lat="49.03624" lon="7.94918">
        <ele>159.3</ele>
        <time>2020-06-27T16:47:25Z</time>
      </trkpt>
      <trkpt lat="49.03624" lon="7.94919">
        <ele>159.3</ele>
        <time>2020-06-27T16:47:26Z</time>
      </trkpt>
      <trkpt lat="49.03623" lon="7.9492">
        <ele>159.3</ele>
        <time>2020-06-27T16:47:27Z</time>
      </trkpt>
      <trkpt lat="49.03623" lon="7.9492">
        <ele>159.3</ele>
        <time>2020-06-27T16:47:28Z</time>
      </trkpt>
      <trkpt lat="49.03623" lon="7.9492">
        <ele>159.3</ele>
        <time>2020-06-27T16:47:29Z</time>
      </trkpt>
      <trkpt lat="49.03623" lon="7.9492">
        <ele>159.3</ele>
        <time>2020-06-27T16:47:30Z</time>
      </trkpt>
      <trkpt lat="49.03624" lon="7.9492">
        <ele>159.3</ele>
        <time>2020-06-27T16:47:31Z</time>
      </trkpt>
      <trkpt lat="49.03624" lon="7.94919">
        <ele>159.3</ele>
        <time>2020-06-27T16:47:32Z</time>
      </trkpt>
      <trkpt lat="49.03625" lon="7.94919">
        <ele>159.3</ele>
        <time>2020-06-27T16:47:33Z</time>
      </trkpt>
      <trkpt lat="49.03625" lon="7.94918">
        <ele>159.3</ele>
        <time>2020-06-27T16:47:34Z</time>
      </trkpt>
      <trkpt lat="49.03625" lon="7.94918">
        <ele>159.3</ele>
        <time>2020-06-27T16:47:35Z</time>
      </trkpt>
      <trkpt lat="49.03625" lon="7.94918">
        <ele>159.3</ele>
        <time>2020-06-27T16:47:36Z</time>
      </trkpt>
      <trkpt lat="49.03625" lon="7.94918">
        <ele>159.3</ele>
        <time>2020-06-27T16:47:37Z</time>
      </trkpt>
      <trkpt lat="49.03624" lon="7.94918">
        <ele>159.3</ele>
        <time>2020-06-27T16:47:38Z</time>
      </trkpt>
      <trkpt lat="49.03624" lon="7.94919">
        <ele>159.3</ele>
        <time>2020-06-27T16:47:39Z</time>
      </trkpt>
      <trkpt lat="49.03624" lon="7.94919">
        <ele>159.3</ele>
        <time>2020-06-27T16:47:40Z</time>
      </trkpt>
      <trkpt lat="49.03624" lon="7.94919">
        <ele>159.3</ele>
        <time>2020-06-27T16:47:41Z</time>
      </trkpt>
      <trkpt lat="49.03624" lon="7.94919">
        <ele>159.3</ele>
        <time>2020-06-27T16:47:42Z</time>
      </trkpt>
      <trkpt lat="49.03623" lon="7.94919">
        <ele>159.3</ele>
        <time>2020-06-27T16:47:43Z</time>
      </trkpt>
      <trkpt lat="49.03623" lon="7.94919">
        <ele>159.3</ele>
        <time>2020-06-27T16:47:44Z</time>
      </trkpt>
      <trkpt lat="49.03622" lon="7.94919">
        <ele>159.3</ele>
        <time>2020-06-27T16:47:45Z</time>
      </trkpt>
      <trkpt lat="49.03622" lon="7.94919">
        <ele>159.3</ele>
        <time>2020-06-27T16:47:46Z</time>
      </trkpt>
      <trkpt lat="49.03622" lon="7.9492">
        <ele>159.3</ele>
        <time>2020-06-27T16:47:47Z</time>
      </trkpt>
      <trkpt lat="49.03621" lon="7.94919">
        <ele>159.3</ele>
        <time>2020-06-27T16:47:48Z</time>
      </trkpt>
      <trkpt lat="49.0362" lon="7.94919">
        <ele>159.3</ele>
        <time>2020-06-27T16:47:49Z</time>
      </trkpt>
      <trkpt lat="49.03619" lon="7.94918">
        <ele>159.3</ele>
        <time>2020-06-27T16:47:50Z</time>
      </trkpt>
      <trkpt lat="49.03619" lon="7.94918">
        <ele>159.3</ele>
        <time>2020-06-27T16:47:51Z</time>
      </trkpt>
      <trkpt lat="49.03619" lon="7.94918">
        <ele>159.3</ele>
        <time>2020-06-27T16:47:52Z</time>
      </trkpt>
      <trkpt lat="49.03619" lon="7.94918">
        <ele>159.3</ele>
        <time>2020-06-27T16:47:53Z</time>
      </trkpt>
      <trkpt lat="49.03618" lon="7.94918">
        <ele>159.3</ele>
        <time>2020-06-27T16:47:54Z</time>
      </trkpt>
      <trkpt lat="49.03618" lon="7.94918">
        <ele>159.3</ele>
        <time>2020-06-27T16:47:55Z</time>
      </trkpt>
      <trkpt lat="49.03618" lon="7.94918">
        <ele>159.3</ele>
        <time>2020-06-27T16:47:56Z</time>
      </trkpt>
      <trkpt lat="49.03618" lon="7.94918">
        <ele>159.3</ele>
        <time>2020-06-27T16:47:57Z</time>
      </trkpt>
      <trkpt lat="49.03618" lon="7.94918">
        <ele>159.3</ele>
        <time>2020-06-27T16:47:58Z</time>
      </trkpt>
      <trkpt lat="49.03618" lon="7.94918">
        <ele>159.3</ele>
        <time>2020-06-27T16:47:59Z</time>
      </trkpt>
      <trkpt lat="49.03618" lon="7.94918">
        <ele>159.3</ele>
        <time>2020-06-27T16:48:00Z</time>
      </trkpt>
      <trkpt lat="49.03618" lon="7.94918">
        <ele>159.3</ele>
        <time>2020-06-27T16:48:01Z</time>
      </trkpt>
      <trkpt lat="49.03618" lon="7.94918">
        <ele>159.3</ele>
        <time>2020-06-27T16:48:02Z</time>
      </trkpt>
      <trkpt lat="49.03618" lon="7.94918">
        <ele>159.3</ele>
        <time>2020-06-27T16:48:03Z</time>
      </trkpt>
      <trkpt lat="49.03618" lon="7.94918">
        <ele>159.3</ele>
        <time>2020-06-27T16:48:04Z</time>
      </trkpt>
      <trkpt lat="49.03618" lon="7.94919">
        <ele>159.3</ele>
        <time>2020-06-27T16:48:05Z</time>
      </trkpt>
      <trkpt lat="49.03618" lon="7.94919">
        <ele>159.3</ele>
        <time>2020-06-27T16:48:06Z</time>
      </trkpt>
      <trkpt lat="49.03617" lon="7.94919">
        <ele>159.3</ele>
        <time>2020-06-27T16:48:07Z</time>
      </trkpt>
      <trkpt lat="49.03618" lon="7.9492">
        <ele>159.3</ele>
        <time>2020-06-27T16:48:08Z</time>
      </trkpt>
      <trkpt lat="49.03618" lon="7.94919">
        <ele>159.3</ele>
        <time>2020-06-27T16:48:09Z</time>
      </trkpt>
      <trkpt lat="49.03618" lon="7.94919">
        <ele>159.3</ele>
        <time>2020-06-27T16:48:10Z</time>
      </trkpt>
      <trkpt lat="49.03618" lon="7.94919">
        <ele>159.3</ele>
        <time>2020-06-27T16:48:11Z</time>
      </trkpt>
      <trkpt lat="49.03618" lon="7.94919">
        <ele>159.3</ele>
        <time>2020-06-27T16:48:12Z</time>
      </trkpt>
      <trkpt lat="49.03618" lon="7.94919">
        <ele>159.3</ele>
        <time>2020-06-27T16:48:13Z</time>
      </trkpt>
      <trkpt lat="49.03618" lon="7.94918">
        <ele>159.3</ele>
        <time>2020-06-27T16:48:14Z</time>
      </trkpt>
      <trkpt lat="49.03618" lon="7.94918">
        <ele>159.3</ele>
        <time>2020-06-27T16:48:15Z</time>
      </trkpt>
      <trkpt lat="49.03618" lon="7.94918">
        <ele>159.3</ele>
        <time>2020-06-27T16:48:16Z</time>
      </trkpt>
      <trkpt lat="49.03618" lon="7.94918">
        <ele>159.3</ele>
        <time>2020-06-27T16:48:17Z</time>
      </trkpt>
      <trkpt lat="49.03618" lon="7.94918">
        <ele>159.3</ele>
        <time>2020-06-27T16:48:18Z</time>
      </trkpt>
      <trkpt lat="49.03618" lon="7.94917">
        <ele>159.3</ele>
        <time>2020-06-27T16:48:19Z</time>
      </trkpt>
      <trkpt lat="49.03618" lon="7.94917">
        <ele>159.3</ele>
        <time>2020-06-27T16:48:20Z</time>
      </trkpt>
      <trkpt lat="49.03618" lon="7.94917">
        <ele>159.3</ele>
        <time>2020-06-27T16:48:21Z</time>
      </trkpt>
      <trkpt lat="49.03618" lon="7.94917">
        <ele>159.3</ele>
        <time>2020-06-27T16:48:22Z</time>
      </trkpt>
      <trkpt lat="49.03619" lon="7.94917">
        <ele>159.3</ele>
        <time>2020-06-27T16:48:23Z</time>
      </trkpt>
      <trkpt lat="49.03619" lon="7.94916">
        <ele>159.3</ele>
        <time>2020-06-27T16:48:24Z</time>
      </trkpt>
      <trkpt lat="49.03619" lon="7.94916">
        <ele>159.3</ele>
        <time>2020-06-27T16:48:25Z</time>
      </trkpt>
      <trkpt lat="49.03619" lon="7.94916">
        <ele>159.3</ele>
        <time>2020-06-27T16:48:26Z</time>
      </trkpt>
      <trkpt lat="49.03619" lon="7.94916">
        <ele>159.3</ele>
        <time>2020-06-27T16:48:27Z</time>
      </trkpt>
      <trkpt lat="49.03619" lon="7.94916">
        <ele>159.3</ele>
        <time>2020-06-27T16:48:28Z</time>
      </trkpt>
      <trkpt lat="49.03619" lon="7.94915">
        <ele>159.3</ele>
        <time>2020-06-27T16:48:29Z</time>
      </trkpt>
      <trkpt lat="49.03619" lon="7.94915">
        <ele>159.3</ele>
        <time>2020-06-27T16:48:30Z</time>
      </trkpt>
      <trkpt lat="49.03619" lon="7.94915">
        <ele>159.3</ele>
        <time>2020-06-27T16:48:31Z</time>
      </trkpt>
      <trkpt lat="49.03619" lon="7.94915">
        <ele>159.3</ele>
        <time>2020-06-27T16:48:32Z</time>
      </trkpt>
      <trkpt lat="49.03619" lon="7.94915">
        <ele>159.3</ele>
        <time>2020-06-27T16:48:33Z</time>
      </trkpt>
      <trkpt lat="49.03619" lon="7.94914">
        <ele>159.3</ele>
        <time>2020-06-27T16:48:34Z</time>
      </trkpt>
      <trkpt lat="49.03619" lon="7.94914">
        <ele>159.3</ele>
        <time>2020-06-27T16:48:35Z</time>
      </trkpt>
      <trkpt lat="49.03619" lon="7.94914">
        <ele>159.3</ele>
        <time>2020-06-27T16:48:36Z</time>
      </trkpt>
      <trkpt lat="49.03619" lon="7.94913">
        <ele>159.3</ele>
        <time>2020-06-27T16:48:37Z</time>
      </trkpt>
      <trkpt lat="49.0362" lon="7.94913">
        <ele>159.3</ele>
        <time>2020-06-27T16:48:38Z</time>
      </trkpt>
      <trkpt lat="49.03621" lon="7.94911">
        <ele>159.3</ele>
        <time>2020-06-27T16:48:39Z</time>
      </trkpt>
      <trkpt lat="49.03622" lon="7.94907">
        <ele>159.4</ele>
        <time>2020-06-27T16:48:40Z</time>
      </trkpt>
      <trkpt lat="49.03623" lon="7.94905">
        <ele>159.4</ele>
        <time>2020-06-27T16:48:41Z</time>
      </trkpt>
      <trkpt lat="49.03623" lon="7.94901">
        <ele>159.1</ele>
        <time>2020-06-27T16:48:42Z</time>
      </trkpt>
      <trkpt lat="49.03625" lon="7.94895">
        <ele>159.1</ele>
        <time>2020-06-27T16:48:43Z</time>
      </trkpt>
      <trkpt lat="49.03626" lon="7.9489">
        <ele>159.1</ele>
        <time>2020-06-27T16:48:44Z</time>
      </trkpt>
      <trkpt lat="49.03627" lon="7.94885">
        <ele>159.1</ele>
        <time>2020-06-27T16:48:45Z</time>
      </trkpt>
      <trkpt lat="49.03629" lon="7.9488">
        <ele>159.1</ele>
        <time>2020-06-27T16:48:46Z</time>
      </trkpt>
      <trkpt lat="49.0363" lon="7.94874">
        <ele>159.1</ele>
        <time>2020-06-27T16:48:47Z</time>
      </trkpt>
      <trkpt lat="49.03631" lon="7.94869">
        <ele>159.1</ele>
        <time>2020-06-27T16:48:48Z</time>
      </trkpt>
      <trkpt lat="49.03631" lon="7.94864">
        <ele>159.1</ele>
        <time>2020-06-27T16:48:49Z</time>
      </trkpt>
      <trkpt lat="49.03632" lon="7.94859">
        <ele>159.1</ele>
        <time>2020-06-27T16:48:50Z</time>
      </trkpt>
      <trkpt lat="49.03632" lon="7.94854">
        <ele>159.1</ele>
        <time>2020-06-27T16:48:51Z</time>
      </trkpt>
      <trkpt lat="49.03633" lon="7.94848">
        <ele>159.1</ele>
        <time>2020-06-27T16:48:52Z</time>
      </trkpt>
      <trkpt lat="49.03633" lon="7.94845">
        <ele>159.1</ele>
        <time>2020-06-27T16:48:53Z</time>
      </trkpt>
      <trkpt lat="49.03634" lon="7.94841">
        <ele>159.1</ele>
        <time>2020-06-27T16:48:54Z</time>
      </trkpt>
      <trkpt lat="49.03634" lon="7.94836">
        <ele>159.1</ele>
        <time>2020-06-27T16:48:55Z</time>
      </trkpt>
      <trkpt lat="49.03635" lon="7.9483">
        <ele>159.1</ele>
        <time>2020-06-27T16:48:56Z</time>
      </trkpt>
      <trkpt lat="49.03636" lon="7.94823">
        <ele>159.1</ele>
        <time>2020-06-27T16:48:57Z</time>
      </trkpt>
      <trkpt lat="49.03637" lon="7.94817">
        <ele>159.1</ele>
        <time>2020-06-27T16:48:58Z</time>
      </trkpt>
      <trkpt lat="49.03638" lon="7.94811">
        <ele>159.2</ele>
        <time>2020-06-27T16:48:59Z</time>
      </trkpt>
      <trkpt lat="49.03638" lon="7.94806">
        <ele>159.2</ele>
        <time>2020-06-27T16:49:00Z</time>
      </trkpt>
      <trkpt lat="49.0364" lon="7.94798">
        <ele>159.2</ele>
        <time>2020-06-27T16:49:01Z</time>
      </trkpt>
      <trkpt lat="49.03646" lon="7.94788">
        <ele>159.2</ele>
        <time>2020-06-27T16:49:02Z</time>
      </trkpt>
      <trkpt lat="49.03649" lon="7.9478">
        <ele>159.2</ele>
        <time>2020-06-27T16:49:03Z</time>
      </trkpt>
      <trkpt lat="49.0365" lon="7.94774">
        <ele>159.2</ele>
        <time>2020-06-27T16:49:04Z</time>
      </trkpt>
      <trkpt lat="49.03651" lon="7.94769">
        <ele>159.2</ele>
        <time>2020-06-27T16:49:05Z</time>
      </trkpt>
      <trkpt lat="49.03652" lon="7.94764">
        <ele>159.3</ele>
        <time>2020-06-27T16:49:06Z</time>
      </trkpt>
      <trkpt lat="49.03653" lon="7.94759">
        <ele>159.3</ele>
        <time>2020-06-27T16:49:07Z</time>
      </trkpt>
      <trkpt lat="49.03654" lon="7.94755">
        <ele>159.3</ele>
        <time>2020-06-27T16:49:08Z</time>
      </trkpt>
      <trkpt lat="49.03654" lon="7.9475">
        <ele>159.3</ele>
        <time>2020-06-27T16:49:09Z</time>
      </trkpt>
      <trkpt lat="49.03655" lon="7.94744">
        <ele>159.4</ele>
        <time>2020-06-27T16:49:10Z</time>
      </trkpt>
      <trkpt lat="49.03656" lon="7.94741">
        <ele>159.4</ele>
        <time>2020-06-27T16:49:11Z</time>
      </trkpt>
      <trkpt lat="49.03656" lon="7.94735">
        <ele>159.4</ele>
        <time>2020-06-27T16:49:12Z</time>
      </trkpt>
      <trkpt lat="49.03657" lon="7.94729">
        <ele>159.4</ele>
        <time>2020-06-27T16:49:13Z</time>
      </trkpt>
      <trkpt lat="49.03658" lon="7.94725">
        <ele>159.5</ele>
        <time>2020-06-27T16:49:14Z</time>
      </trkpt>
      <trkpt lat="49.03659" lon="7.94721">
        <ele>159.5</ele>
        <time>2020-06-27T16:49:15Z</time>
      </trkpt>
      <trkpt lat="49.0366" lon="7.94715">
        <ele>159.5</ele>
        <time>2020-06-27T16:49:16Z</time>
      </trkpt>
      <trkpt lat="49.0366" lon="7.94711">
        <ele>159.5</ele>
        <time>2020-06-27T16:49:17Z</time>
      </trkpt>
      <trkpt lat="49.03661" lon="7.94706">
        <ele>159.6</ele>
        <time>2020-06-27T16:49:18Z</time>
      </trkpt>
      <trkpt lat="49.03661" lon="7.94702">
        <ele>159.6</ele>
        <time>2020-06-27T16:49:19Z</time>
      </trkpt>
      <trkpt lat="49.03661" lon="7.94697">
        <ele>159.7</ele>
        <time>2020-06-27T16:49:20Z</time>
      </trkpt>
      <trkpt lat="49.03662" lon="7.94692">
        <ele>159.6</ele>
        <time>2020-06-27T16:49:21Z</time>
      </trkpt>
      <trkpt lat="49.03662" lon="7.94689">
        <ele>159.6</ele>
        <time>2020-06-27T16:49:22Z</time>
      </trkpt>
      <trkpt lat="49.03663" lon="7.94684">
        <ele>159.6</ele>
        <time>2020-06-27T16:49:23Z</time>
      </trkpt>
      <trkpt lat="49.03663" lon="7.94679">
        <ele>159.6</ele>
        <time>2020-06-27T16:49:24Z</time>
      </trkpt>
      <trkpt lat="49.03663" lon="7.94674">
        <ele>159.5</ele>
        <time>2020-06-27T16:49:25Z</time>
      </trkpt>
      <trkpt lat="49.03664" lon="7.94669">
        <ele>159.5</ele>
        <time>2020-06-27T16:49:26Z</time>
      </trkpt>
      <trkpt lat="49.03665" lon="7.94664">
        <ele>159.5</ele>
        <time>2020-06-27T16:49:27Z</time>
      </trkpt>
      <trkpt lat="49.03664" lon="7.9466">
        <ele>159.4</ele>
        <time>2020-06-27T16:49:28Z</time>
      </trkpt>
      <trkpt lat="49.03665" lon="7.94655">
        <ele>159.4</ele>
        <time>2020-06-27T16:49:29Z</time>
      </trkpt>
      <trkpt lat="49.03665" lon="7.9465">
        <ele>159.4</ele>
        <time>2020-06-27T16:49:30Z</time>
      </trkpt>
      <trkpt lat="49.03664" lon="7.94643">
        <ele>159.4</ele>
        <time>2020-06-27T16:49:31Z</time>
      </trkpt>
      <trkpt lat="49.03663" lon="7.9464">
        <ele>159.4</ele>
        <time>2020-06-27T16:49:32Z</time>
      </trkpt>
      <trkpt lat="49.03663" lon="7.94635">
        <ele>159.3</ele>
        <time>2020-06-27T16:49:33Z</time>
      </trkpt>
      <trkpt lat="49.03663" lon="7.94634">
        <ele>159.3</ele>
        <time>2020-06-27T16:49:34Z</time>
      </trkpt>
      <trkpt lat="49.03663" lon="7.94632">
        <ele>159.3</ele>
        <time>2020-06-27T16:49:35Z</time>
      </trkpt>
      <trkpt lat="49.03662" lon="7.94634">
        <ele>159.3</ele>
        <time>2020-06-27T16:49:36Z</time>
      </trkpt>
      <trkpt lat="49.0366" lon="7.94634">
        <ele>159.3</ele>
        <time>2020-06-27T16:49:37Z</time>
      </trkpt>
      <trkpt lat="49.03657" lon="7.94634">
        <ele>159.3</ele>
        <time>2020-06-27T16:49:38Z</time>
      </trkpt>
      <trkpt lat="49.03656" lon="7.94633">
        <ele>159.3</ele>
        <time>2020-06-27T16:49:39Z</time>
      </trkpt>
      <trkpt lat="49.03652" lon="7.94632">
        <ele>159.2</ele>
        <time>2020-06-27T16:49:40Z</time>
      </trkpt>
      <trkpt lat="49.0365" lon="7.94632">
        <ele>159.2</ele>
        <time>2020-06-27T16:49:41Z</time>
      </trkpt>
      <trkpt lat="49.03646" lon="7.94633">
        <ele>159.2</ele>
        <time>2020-06-27T16:49:42Z</time>
      </trkpt>
      <trkpt lat="49.03641" lon="7.94633">
        <ele>159.3</ele>
        <time>2020-06-27T16:49:43Z</time>
      </trkpt>
      <trkpt lat="49.03636" lon="7.94634">
        <ele>159.3</ele>
        <time>2020-06-27T16:49:44Z</time>
      </trkpt>
      <trkpt lat="49.03632" lon="7.94633">
        <ele>159.3</ele>
        <time>2020-06-27T16:49:45Z</time>
      </trkpt>
      <trkpt lat="49.03627" lon="7.94633">
        <ele>159.3</ele>
        <time>2020-06-27T16:49:46Z</time>
      </trkpt>
      <trkpt lat="49.03623" lon="7.94633">
        <ele>159.3</ele>
        <time>2020-06-27T16:49:47Z</time>
      </trkpt>
      <trkpt lat="49.03618" lon="7.94633">
        <ele>159.3</ele>
        <time>2020-06-27T16:49:48Z</time>
      </trkpt>
      <trkpt lat="49.03613" lon="7.94633">
        <ele>159.3</ele>
        <time>2020-06-27T16:49:49Z</time>
      </trkpt>
      <trkpt lat="49.0361" lon="7.94633">
        <ele>159.4</ele>
        <time>2020-06-27T16:49:50Z</time>
      </trkpt>
      <trkpt lat="49.03606" lon="7.94633">
        <ele>159.4</ele>
        <time>2020-06-27T16:49:51Z</time>
      </trkpt>
      <trkpt lat="49.03602" lon="7.94634">
        <ele>159.5</ele>
        <time>2020-06-27T16:49:52Z</time>
      </trkpt>
      <trkpt lat="49.03599" lon="7.94633">
        <ele>159.5</ele>
        <time>2020-06-27T16:49:53Z</time>
      </trkpt>
      <trkpt lat="49.03595" lon="7.94634">
        <ele>159.6</ele>
        <time>2020-06-27T16:49:54Z</time>
      </trkpt>
      <trkpt lat="49.03592" lon="7.94634">
        <ele>159.6</ele>
        <time>2020-06-27T16:49:55Z</time>
      </trkpt>
      <trkpt lat="49.03588" lon="7.94633">
        <ele>159.6</ele>
        <time>2020-06-27T16:49:56Z</time>
      </trkpt>
      <trkpt lat="49.03586" lon="7.94632">
        <ele>159.6</ele>
        <time>2020-06-27T16:49:57Z</time>
      </trkpt>
      <trkpt lat="49.03583" lon="7.94632">
        <ele>159.6</ele>
        <time>2020-06-27T16:49:58Z</time>
      </trkpt>
      <trkpt lat="49.03579" lon="7.94631">
        <ele>159.6</ele>
        <time>2020-06-27T16:49:59Z</time>
      </trkpt>
      <trkpt lat="49.03578" lon="7.94631">
        <ele>159.6</ele>
        <time>2020-06-27T16:50:00Z</time>
      </trkpt>
      <trkpt lat="49.03575" lon="7.94632">
        <ele>159.6</ele>
        <time>2020-06-27T16:50:01Z</time>
      </trkpt>
      <trkpt lat="49.03572" lon="7.94632">
        <ele>159.6</ele>
        <time>2020-06-27T16:50:02Z</time>
      </trkpt>
      <trkpt lat="49.03568" lon="7.94632">
        <ele>159.7</ele>
        <time>2020-06-27T16:50:03Z</time>
      </trkpt>
      <trkpt lat="49.03565" lon="7.94631">
        <ele>159.7</ele>
        <time>2020-06-27T16:50:04Z</time>
      </trkpt>
      <trkpt lat="49.03562" lon="7.9463">
        <ele>159.7</ele>
        <time>2020-06-27T16:50:05Z</time>
      </trkpt>
      <trkpt lat="49.03561" lon="7.9463">
        <ele>159.7</ele>
        <time>2020-06-27T16:50:06Z</time>
      </trkpt>
      <trkpt lat="49.03558" lon="7.9463">
        <ele>159.7</ele>
        <time>2020-06-27T16:50:07Z</time>
      </trkpt>
      <trkpt lat="49.03557" lon="7.9463">
        <ele>159.7</ele>
        <time>2020-06-27T16:50:08Z</time>
      </trkpt>
      <trkpt lat="49.03554" lon="7.94629">
        <ele>159.7</ele>
        <time>2020-06-27T16:50:09Z</time>
      </trkpt>
      <trkpt lat="49.03552" lon="7.94628">
        <ele>159.7</ele>
        <time>2020-06-27T16:50:10Z</time>
      </trkpt>
      <trkpt lat="49.03549" lon="7.94626">
        <ele>159.6</ele>
        <time>2020-06-27T16:50:11Z</time>
      </trkpt>
      <trkpt lat="49.03549" lon="7.94625">
        <ele>159.6</ele>
        <time>2020-06-27T16:50:12Z</time>
      </trkpt>
      <trkpt lat="49.03545" lon="7.94623">
        <ele>159.6</ele>
        <time>2020-06-27T16:50:13Z</time>
      </trkpt>
      <trkpt lat="49.03544" lon="7.94622">
        <ele>159.5</ele>
        <time>2020-06-27T16:50:14Z</time>
      </trkpt>
      <trkpt lat="49.03541" lon="7.94622">
        <ele>159.4</ele>
        <time>2020-06-27T16:50:15Z</time>
      </trkpt>
      <trkpt lat="49.03538" lon="7.94622">
        <ele>159.3</ele>
        <time>2020-06-27T16:50:16Z</time>
      </trkpt>
      <trkpt lat="49.03535" lon="7.94619">
        <ele>159.2</ele>
        <time>2020-06-27T16:50:17Z</time>
      </trkpt>
      <trkpt lat="49.03533" lon="7.94617">
        <ele>159.2</ele>
        <time>2020-06-27T16:50:18Z</time>
      </trkpt>
      <trkpt lat="49.03529" lon="7.94615">
        <ele>159.2</ele>
        <time>2020-06-27T16:50:19Z</time>
      </trkpt>
      <trkpt lat="49.03528" lon="7.94614">
        <ele>159.2</ele>
        <time>2020-06-27T16:50:20Z</time>
      </trkpt>
      <trkpt lat="49.03525" lon="7.94612">
        <ele>159.2</ele>
        <time>2020-06-27T16:50:21Z</time>
      </trkpt>
      <trkpt lat="49.03521" lon="7.94611">
        <ele>159.3</ele>
        <time>2020-06-27T16:50:22Z</time>
      </trkpt>
      <trkpt lat="49.03518" lon="7.94611">
        <ele>159.3</ele>
        <time>2020-06-27T16:50:23Z</time>
      </trkpt>
      <trkpt lat="49.03513" lon="7.9461">
        <ele>159.3</ele>
        <time>2020-06-27T16:50:24Z</time>
      </trkpt>
      <trkpt lat="49.03508" lon="7.94613">
        <ele>159.2</ele>
        <time>2020-06-27T16:50:25Z</time>
      </trkpt>
      <trkpt lat="49.03504" lon="7.94612">
        <ele>159.2</ele>
        <time>2020-06-27T16:50:26Z</time>
      </trkpt>
      <trkpt lat="49.03501" lon="7.94613">
        <ele>159.2</ele>
        <time>2020-06-27T16:50:27Z</time>
      </trkpt>
      <trkpt lat="49.03498" lon="7.94614">
        <ele>159.2</ele>
        <time>2020-06-27T16:50:28Z</time>
      </trkpt>
      <trkpt lat="49.03494" lon="7.94614">
        <ele>159.2</ele>
        <time>2020-06-27T16:50:29Z</time>
      </trkpt>
      <trkpt lat="49.03493" lon="7.94615">
        <ele>159.2</ele>
        <time>2020-06-27T16:50:30Z</time>
      </trkpt>
      <trkpt lat="49.03491" lon="7.94617">
        <ele>159.2</ele>
        <time>2020-06-27T16:50:31Z</time>
      </trkpt>
      <trkpt lat="49.0349" lon="7.94621">
        <ele>159.2</ele>
        <time>2020-06-27T16:50:32Z</time>
      </trkpt>
      <trkpt lat="49.03487" lon="7.94626">
        <ele>159.1</ele>
        <time>2020-06-27T16:50:33Z</time>
      </trkpt>
      <trkpt lat="49.03485" lon="7.94629">
        <ele>159.1</ele>
        <time>2020-06-27T16:50:34Z</time>
      </trkpt>
      <trkpt lat="49.03485" lon="7.94634">
        <ele>159.1</ele>
        <time>2020-06-27T16:50:35Z</time>
      </trkpt>
      <trkpt lat="49.03483" lon="7.94638">
        <ele>159.1</ele>
        <time>2020-06-27T16:50:36Z</time>
      </trkpt>
      <trkpt lat="49.03482" lon="7.94645">
        <ele>159.1</ele>
        <time>2020-06-27T16:50:37Z</time>
      </trkpt>
      <trkpt lat="49.0348" lon="7.9465">
        <ele>159.1</ele>
        <time>2020-06-27T16:50:38Z</time>
      </trkpt>
      <trkpt lat="49.03477" lon="7.94653">
        <ele>159.1</ele>
        <time>2020-06-27T16:50:39Z</time>
      </trkpt>
      <trkpt lat="49.03477" lon="7.94659">
        <ele>159.1</ele>
        <time>2020-06-27T16:50:40Z</time>
      </trkpt>
      <trkpt lat="49.03473" lon="7.94663">
        <ele>159.1</ele>
        <time>2020-06-27T16:50:41Z</time>
      </trkpt>
      <trkpt lat="49.03468" lon="7.94662">
        <ele>159.1</ele>
        <time>2020-06-27T16:50:42Z</time>
      </trkpt>
      <trkpt lat="49.03463" lon="7.94657">
        <ele>159.1</ele>
        <time>2020-06-27T16:50:43Z</time>
      </trkpt>
      <trkpt lat="49.03459" lon="7.94653">
        <ele>159.1</ele>
        <time>2020-06-27T16:50:44Z</time>
      </trkpt>
      <trkpt lat="49.03456" lon="7.94648">
        <ele>159.1</ele>
        <time>2020-06-27T16:50:45Z</time>
      </trkpt>
      <trkpt lat="49.03453" lon="7.94643">
        <ele>159.1</ele>
        <time>2020-06-27T16:50:46Z</time>
      </trkpt>
      <trkpt lat="49.03451" lon="7.94639">
        <ele>159.2</ele>
        <time>2020-06-27T16:50:47Z</time>
      </trkpt>
      <trkpt lat="49.03449" lon="7.94635">
        <ele>159.2</ele>
        <time>2020-06-27T16:50:48Z</time>
      </trkpt>
      <trkpt lat="49.03449" lon="7.94629">
        <ele>159.2</ele>
        <time>2020-06-27T16:50:49Z</time>
      </trkpt>
      <trkpt lat="49.03448" lon="7.94622">
        <ele>159.2</ele>
        <time>2020-06-27T16:50:50Z</time>
      </trkpt>
      <trkpt lat="49.03447" lon="7.94614">
        <ele>159.2</ele>
        <time>2020-06-27T16:50:51Z</time>
      </trkpt>
      <trkpt lat="49.03445" lon="7.94607">
        <ele>159.2</ele>
        <time>2020-06-27T16:50:52Z</time>
      </trkpt>
      <trkpt lat="49.03444" lon="7.94598">
        <ele>159.2</ele>
        <time>2020-06-27T16:50:53Z</time>
      </trkpt>
      <trkpt lat="49.03444" lon="7.94591">
        <ele>159.2</ele>
        <time>2020-06-27T16:50:54Z</time>
      </trkpt>
      <trkpt lat="49.03443" lon="7.94585">
        <ele>159.2</ele>
        <time>2020-06-27T16:50:55Z</time>
      </trkpt>
      <trkpt lat="49.0344" lon="7.94577">
        <ele>159.2</ele>
        <time>2020-06-27T16:50:56Z</time>
      </trkpt>
      <trkpt lat="49.03438" lon="7.9457">
        <ele>159.2</ele>
        <time>2020-06-27T16:50:57Z</time>
      </trkpt>
      <trkpt lat="49.03437" lon="7.94563">
        <ele>159.3</ele>
        <time>2020-06-27T16:50:58Z</time>
      </trkpt>
      <trkpt lat="49.03436" lon="7.94555">
        <ele>159.3</ele>
        <time>2020-06-27T16:50:59Z</time>
      </trkpt>
      <trkpt lat="49.03435" lon="7.94549">
        <ele>159.4</ele>
        <time>2020-06-27T16:51:00Z</time>
      </trkpt>
      <trkpt lat="49.03435" lon="7.94542">
        <ele>159.5</ele>
        <time>2020-06-27T16:51:01Z</time>
      </trkpt>
      <trkpt lat="49.03434" lon="7.94536">
        <ele>159.6</ele>
        <time>2020-06-27T16:51:02Z</time>
      </trkpt>
      <trkpt lat="49.03434" lon="7.94529">
        <ele>159.7</ele>
        <time>2020-06-27T16:51:03Z</time>
      </trkpt>
      <trkpt lat="49.03433" lon="7.94524">
        <ele>159.8</ele>
        <time>2020-06-27T16:51:04Z</time>
      </trkpt>
      <trkpt lat="49.03433" lon="7.94516">
        <ele>160</ele>
        <time>2020-06-27T16:51:05Z</time>
      </trkpt>
      <trkpt lat="49.03432" lon="7.9451">
        <ele>160.1</ele>
        <time>2020-06-27T16:51:06Z</time>
      </trkpt>
      <trkpt lat="49.0343" lon="7.94502">
        <ele>160.3</ele>
        <time>2020-06-27T16:51:07Z</time>
      </trkpt>
      <trkpt lat="49.03429" lon="7.94496">
        <ele>160.4</ele>
        <time>2020-06-27T16:51:08Z</time>
      </trkpt>
      <trkpt lat="49.03427" lon="7.9449">
        <ele>160.5</ele>
        <time>2020-06-27T16:51:09Z</time>
      </trkpt>
      <trkpt lat="49.03426" lon="7.94487">
        <ele>160.6</ele>
        <time>2020-06-27T16:51:10Z</time>
      </trkpt>
      <trkpt lat="49.03425" lon="7.94486">
        <ele>160.6</ele>
        <time>2020-06-27T16:51:11Z</time>
      </trkpt>
      <trkpt lat="49.03421" lon="7.94483">
        <ele>160.7</ele>
        <time>2020-06-27T16:51:12Z</time>
      </trkpt>
      <trkpt lat="49.03418" lon="7.9448">
        <ele>160.9</ele>
        <time>2020-06-27T16:51:13Z</time>
      </trkpt>
      <trkpt lat="49.03417" lon="7.9448">
        <ele>160.9</ele>
        <time>2020-06-27T16:51:14Z</time>
      </trkpt>
      <trkpt lat="49.03413" lon="7.9448">
        <ele>161</ele>
        <time>2020-06-27T16:51:15Z</time>
      </trkpt>
      <trkpt lat="49.03412" lon="7.94481">
        <ele>161</ele>
        <time>2020-06-27T16:51:16Z</time>
      </trkpt>
      <trkpt lat="49.03409" lon="7.94481">
        <ele>161.1</ele>
        <time>2020-06-27T16:51:17Z</time>
      </trkpt>
      <trkpt lat="49.03406" lon="7.94481">
        <ele>161.2</ele>
        <time>2020-06-27T16:51:18Z</time>
      </trkpt>
      <trkpt lat="49.03405" lon="7.9448">
        <ele>161.2</ele>
        <time>2020-06-27T16:51:19Z</time>
      </trkpt>
      <trkpt lat="49.03402" lon="7.94482">
        <ele>161.3</ele>
        <time>2020-06-27T16:51:20Z</time>
      </trkpt>
      <trkpt lat="49.03399" lon="7.94484">
        <ele>161.4</ele>
        <time>2020-06-27T16:51:21Z</time>
      </trkpt>
      <trkpt lat="49.03398" lon="7.94485">
        <ele>161.4</ele>
        <time>2020-06-27T16:51:22Z</time>
      </trkpt>
      <trkpt lat="49.03397" lon="7.94482">
        <ele>161.4</ele>
        <time>2020-06-27T16:51:23Z</time>
      </trkpt>
      <trkpt lat="49.03398" lon="7.94482">
        <ele>161.4</ele>
        <time>2020-06-27T16:51:24Z</time>
      </trkpt>
      <trkpt lat="49.03397" lon="7.9448">
        <ele>161.5</ele>
        <time>2020-06-27T16:51:25Z</time>
      </trkpt>
      <trkpt lat="49.03396" lon="7.94475">
        <ele>161.6</ele>
        <time>2020-06-27T16:51:26Z</time>
      </trkpt>
      <trkpt lat="49.03395" lon="7.94473">
        <ele>161.6</ele>
        <time>2020-06-27T16:51:27Z</time>
      </trkpt>
      <trkpt lat="49.03395" lon="7.94471">
        <ele>161.6</ele>
        <time>2020-06-27T16:51:28Z</time>
      </trkpt>
      <trkpt lat="49.03394" lon="7.9447">
        <ele>161.6</ele>
        <time>2020-06-27T16:51:29Z</time>
      </trkpt>
      <trkpt lat="49.03394" lon="7.9447">
        <ele>161.6</ele>
        <time>2020-06-27T16:51:30Z</time>
      </trkpt>
      <trkpt lat="49.03395" lon="7.9447">
        <ele>161.6</ele>
        <time>2020-06-27T16:51:31Z</time>
      </trkpt>
      <trkpt lat="49.03394" lon="7.9447">
        <ele>161.6</ele>
        <time>2020-06-27T16:51:32Z</time>
      </trkpt>
      <trkpt lat="49.03393" lon="7.94471">
        <ele>161.5</ele>
        <time>2020-06-27T16:51:33Z</time>
      </trkpt>
      <trkpt lat="49.03393" lon="7.94471">
        <ele>161.5</ele>
        <time>2020-06-27T16:51:34Z</time>
      </trkpt>
      <trkpt lat="49.03393" lon="7.94471">
        <ele>161.5</ele>
        <time>2020-06-27T16:51:35Z</time>
      </trkpt>
      <trkpt lat="49.03393" lon="7.94471">
        <ele>161.5</ele>
        <time>2020-06-27T16:51:36Z</time>
      </trkpt>
      <trkpt lat="49.03393" lon="7.94471">
        <ele>161.5</ele>
        <time>2020-06-27T16:51:37Z</time>
      </trkpt>
      <trkpt lat="49.03393" lon="7.9447">
        <ele>161.5</ele>
        <time>2020-06-27T16:51:38Z</time>
      </trkpt>
      <trkpt lat="49.03393" lon="7.9447">
        <ele>161.5</ele>
        <time>2020-06-27T16:51:39Z</time>
      </trkpt>
      <trkpt lat="49.03393" lon="7.9447">
        <ele>161.5</ele>
        <time>2020-06-27T16:51:40Z</time>
      </trkpt>
      <trkpt lat="49.03393" lon="7.94466">
        <ele>161.5</ele>
        <time>2020-06-27T16:51:48Z</time>
      </trkpt>
      <trkpt lat="49.03393" lon="7.94465">
        <ele>161.5</ele>
        <time>2020-06-27T16:51:49Z</time>
      </trkpt>
      <trkpt lat="49.03394" lon="7.94465">
        <ele>161.5</ele>
        <time>2020-06-27T16:51:50Z</time>
      </trkpt>
      <trkpt lat="49.03394" lon="7.94464">
        <ele>161.5</ele>
        <time>2020-06-27T16:51:51Z</time>
      </trkpt>
      <trkpt lat="49.03395" lon="7.94464">
        <ele>161.5</ele>
        <time>2020-06-27T16:51:52Z</time>
      </trkpt>
      <trkpt lat="49.03395" lon="7.94464">
        <ele>161.5</ele>
        <time>2020-06-27T16:51:53Z</time>
      </trkpt>
      <trkpt lat="49.03396" lon="7.94463">
        <ele>161.5</ele>
        <time>2020-06-27T16:51:54Z</time>
      </trkpt>
      <trkpt lat="49.03397" lon="7.94462">
        <ele>161.5</ele>
        <time>2020-06-27T16:51:55Z</time>
      </trkpt>
      <trkpt lat="49.03397" lon="7.94462">
        <ele>161.5</ele>
        <time>2020-06-27T16:51:56Z</time>
      </trkpt>
      <trkpt lat="49.03397" lon="7.94461">
        <ele>161.5</ele>
        <time>2020-06-27T16:51:57Z</time>
      </trkpt>
      <trkpt lat="49.03397" lon="7.9446">
        <ele>161.5</ele>
        <time>2020-06-27T16:51:58Z</time>
      </trkpt>
      <trkpt lat="49.03398" lon="7.94458">
        <ele>161.5</ele>
        <time>2020-06-27T16:51:59Z</time>
      </trkpt>
      <trkpt lat="49.03398" lon="7.94458">
        <ele>161.5</ele>
        <time>2020-06-27T16:52:00Z</time>
      </trkpt>
      <trkpt lat="49.03398" lon="7.94458">
        <ele>161.5</ele>
        <time>2020-06-27T16:52:01Z</time>
      </trkpt>
      <trkpt lat="49.03398" lon="7.94459">
        <ele>161.5</ele>
        <time>2020-06-27T16:52:02Z</time>
      </trkpt>
      <trkpt lat="49.03398" lon="7.9446">
        <ele>161.5</ele>
        <time>2020-06-27T16:52:03Z</time>
      </trkpt>
      <trkpt lat="49.03398" lon="7.9446">
        <ele>161.5</ele>
        <time>2020-06-27T16:52:04Z</time>
      </trkpt>
      <trkpt lat="49.03398" lon="7.9446">
        <ele>161.5</ele>
        <time>2020-06-27T16:52:05Z</time>
      </trkpt>
      <trkpt lat="49.03398" lon="7.9446">
        <ele>161.5</ele>
        <time>2020-06-27T16:52:06Z</time>
      </trkpt>
      <trkpt lat="49.03398" lon="7.9446">
        <ele>161.5</ele>
        <time>2020-06-27T16:52:07Z</time>
      </trkpt>
      <trkpt lat="49.03398" lon="7.9446">
        <ele>161.5</ele>
        <time>2020-06-27T16:52:08Z</time>
      </trkpt>
      <trkpt lat="49.03398" lon="7.9446">
        <ele>161.5</ele>
        <time>2020-06-27T16:52:09Z</time>
      </trkpt>
      <trkpt lat="49.03398" lon="7.9446">
        <ele>161.5</ele>
        <time>2020-06-27T16:52:10Z</time>
      </trkpt>
      <trkpt lat="49.03398" lon="7.9446">
        <ele>161.5</ele>
        <time>2020-06-27T16:52:11Z</time>
      </trkpt>
      <trkpt lat="49.03404" lon="7.94456">
        <ele>161.4</ele>
        <time>2020-06-27T17:58:27Z</time>
      </trkpt>
      <trkpt lat="49.03405" lon="7.94458">
        <ele>161.4</ele>
        <time>2020-06-27T17:58:28Z</time>
      </trkpt>
      <trkpt lat="49.03407" lon="7.94459">
        <ele>161.4</ele>
        <time>2020-06-27T17:58:29Z</time>
      </trkpt>
      <trkpt lat="49.03407" lon="7.9446">
        <ele>161.4</ele>
        <time>2020-06-27T17:58:30Z</time>
      </trkpt>
      <trkpt lat="49.03408" lon="7.94462">
        <ele>161.4</ele>
        <time>2020-06-27T17:58:31Z</time>
      </trkpt>
      <trkpt lat="49.03409" lon="7.94463">
        <ele>161.3</ele>
        <time>2020-06-27T17:58:32Z</time>
      </trkpt>
      <trkpt lat="49.0341" lon="7.94465">
        <ele>161.3</ele>
        <time>2020-06-27T17:58:33Z</time>
      </trkpt>
      <trkpt lat="49.03411" lon="7.94466">
        <ele>161.3</ele>
        <time>2020-06-27T17:58:34Z</time>
      </trkpt>
      <trkpt lat="49.03404" lon="7.94484">
        <ele>161.2</ele>
        <time>2020-06-27T17:58:43Z</time>
      </trkpt>
      <trkpt lat="49.0341" lon="7.94471">
        <ele>161.1</ele>
        <time>2020-06-27T17:59:14Z</time>
      </trkpt>
      <trkpt lat="49.03411" lon="7.94471">
        <ele>161.1</ele>
        <time>2020-06-27T17:59:15Z</time>
      </trkpt>
      <trkpt lat="49.03411" lon="7.94471">
        <ele>161.1</ele>
        <time>2020-06-27T17:59:16Z</time>
      </trkpt>
      <trkpt lat="49.03411" lon="7.9447">
        <ele>161.1</ele>
        <time>2020-06-27T17:59:17Z</time>
      </trkpt>
      <trkpt lat="49.03411" lon="7.94469">
        <ele>161.1</ele>
        <time>2020-06-27T17:59:18Z</time>
      </trkpt>
      <trkpt lat="49.03412" lon="7.94469">
        <ele>161.1</ele>
        <time>2020-06-27T17:59:19Z</time>
      </trkpt>
      <trkpt lat="49.03412" lon="7.94468">
        <ele>161.1</ele>
        <time>2020-06-27T17:59:20Z</time>
      </trkpt>
      <trkpt lat="49.03412" lon="7.94468">
        <ele>161.1</ele>
        <time>2020-06-27T17:59:21Z</time>
      </trkpt>
      <trkpt lat="49.03412" lon="7.94468">
        <ele>161.1</ele>
        <time>2020-06-27T17:59:22Z</time>
      </trkpt>
      <trkpt lat="49.03413" lon="7.94467">
        <ele>161</ele>
        <time>2020-06-27T17:59:23Z</time>
      </trkpt>
      <trkpt lat="49.03413" lon="7.94467">
        <ele>161</ele>
        <time>2020-06-27T17:59:24Z</time>
      </trkpt>
      <trkpt lat="49.03413" lon="7.94466">
        <ele>161</ele>
        <time>2020-06-27T17:59:25Z</time>
      </trkpt>
      <trkpt lat="49.03413" lon="7.94466">
        <ele>161</ele>
        <time>2020-06-27T17:59:26Z</time>
      </trkpt>
      <trkpt lat="49.03413" lon="7.94465">
        <ele>161</ele>
        <time>2020-06-27T17:59:27Z</time>
      </trkpt>
      <trkpt lat="49.03412" lon="7.94464">
        <ele>161</ele>
        <time>2020-06-27T17:59:28Z</time>
      </trkpt>
      <trkpt lat="49.03412" lon="7.94464">
        <ele>161</ele>
        <time>2020-06-27T17:59:29Z</time>
      </trkpt>
      <trkpt lat="49.03412" lon="7.94462">
        <ele>161</ele>
        <time>2020-06-27T17:59:30Z</time>
      </trkpt>
      <trkpt lat="49.03413" lon="7.94461">
        <ele>160.9</ele>
        <time>2020-06-27T17:59:31Z</time>
      </trkpt>
      <trkpt lat="49.03413" lon="7.94459">
        <ele>160.9</ele>
        <time>2020-06-27T17:59:32Z</time>
      </trkpt>
      <trkpt lat="49.03414" lon="7.94457">
        <ele>160.9</ele>
        <time>2020-06-27T17:59:33Z</time>
      </trkpt>
      <trkpt lat="49.03414" lon="7.94456">
        <ele>160.9</ele>
        <time>2020-06-27T17:59:34Z</time>
      </trkpt>
      <trkpt lat="49.03414" lon="7.94454">
        <ele>160.9</ele>
        <time>2020-06-27T17:59:35Z</time>
      </trkpt>
      <trkpt lat="49.03414" lon="7.94453">
        <ele>160.9</ele>
        <time>2020-06-27T17:59:36Z</time>
      </trkpt>
      <trkpt lat="49.03414" lon="7.94451">
        <ele>160.9</ele>
        <time>2020-06-27T17:59:37Z</time>
      </trkpt>
      <trkpt lat="49.03415" lon="7.94446">
        <ele>160.9</ele>
        <time>2020-06-27T17:59:38Z</time>
      </trkpt>
      <trkpt lat="49.03416" lon="7.94443">
        <ele>160.8</ele>
        <time>2020-06-27T17:59:39Z</time>
      </trkpt>
      <trkpt lat="49.03416" lon="7.94441">
        <ele>160.8</ele>
        <time>2020-06-27T17:59:40Z</time>
      </trkpt>
      <trkpt lat="49.03417" lon="7.94438">
        <ele>160.8</ele>
        <time>2020-06-27T17:59:41Z</time>
      </trkpt>
      <trkpt lat="49.03417" lon="7.94436">
        <ele>160.8</ele>
        <time>2020-06-27T17:59:42Z</time>
      </trkpt>
      <trkpt lat="49.03417" lon="7.94437">
        <ele>160.8</ele>
        <time>2020-06-27T17:59:43Z</time>
      </trkpt>
      <trkpt lat="49.03417" lon="7.94436">
        <ele>160.8</ele>
        <time>2020-06-27T17:59:44Z</time>
      </trkpt>
      <trkpt lat="49.03417" lon="7.94434">
        <ele>160.8</ele>
        <time>2020-06-27T17:59:45Z</time>
      </trkpt>
      <trkpt lat="49.03418" lon="7.94433">
        <ele>160.8</ele>
        <time>2020-06-27T17:59:46Z</time>
      </trkpt>
      <trkpt lat="49.03418" lon="7.94432">
        <ele>160.8</ele>
        <time>2020-06-27T17:59:47Z</time>
      </trkpt>
      <trkpt lat="49.03418" lon="7.94431">
        <ele>160.8</ele>
        <time>2020-06-27T17:59:48Z</time>
      </trkpt>
      <trkpt lat="49.03418" lon="7.9443">
        <ele>160.8</ele>
        <time>2020-06-27T17:59:49Z</time>
      </trkpt>
      <trkpt lat="49.03418" lon="7.94429">
        <ele>160.8</ele>
        <time>2020-06-27T17:59:50Z</time>
      </trkpt>
      <trkpt lat="49.03419" lon="7.94427">
        <ele>160.8</ele>
        <time>2020-06-27T17:59:51Z</time>
      </trkpt>
      <trkpt lat="49.03419" lon="7.94426">
        <ele>160.7</ele>
        <time>2020-06-27T17:59:52Z</time>
      </trkpt>
      <trkpt lat="49.03419" lon="7.94425">
        <ele>160.7</ele>
        <time>2020-06-27T17:59:53Z</time>
      </trkpt>
      <trkpt lat="49.0342" lon="7.94424">
        <ele>160.7</ele>
        <time>2020-06-27T17:59:54Z</time>
      </trkpt>
      <trkpt lat="49.0342" lon="7.94424">
        <ele>160.7</ele>
        <time>2020-06-27T17:59:55Z</time>
      </trkpt>
      <trkpt lat="49.0342" lon="7.94424">
        <ele>160.7</ele>
        <time>2020-06-27T17:59:56Z</time>
      </trkpt>
      <trkpt lat="49.0342" lon="7.94423">
        <ele>160.7</ele>
        <time>2020-06-27T17:59:57Z</time>
      </trkpt>
      <trkpt lat="49.0342" lon="7.94423">
        <ele>160.7</ele>
        <time>2020-06-27T17:59:58Z</time>
      </trkpt>
      <trkpt lat="49.0342" lon="7.94423">
        <ele>160.7</ele>
        <time>2020-06-27T17:59:59Z</time>
      </trkpt>
      <trkpt lat="49.0342" lon="7.94423">
        <ele>160.7</ele>
        <time>2020-06-27T18:00:00Z</time>
      </trkpt>
      <trkpt lat="49.0342" lon="7.94424">
        <ele>160.7</ele>
        <time>2020-06-27T18:00:01Z</time>
      </trkpt>
      <trkpt lat="49.0342" lon="7.94424">
        <ele>160.7</ele>
        <time>2020-06-27T18:00:02Z</time>
      </trkpt>
      <trkpt lat="49.0342" lon="7.94424">
        <ele>160.7</ele>
        <time>2020-06-27T18:00:03Z</time>
      </trkpt>
      <trkpt lat="49.0342" lon="7.94424">
        <ele>160.7</ele>
        <time>2020-06-27T18:00:04Z</time>
      </trkpt>
      <trkpt lat="49.0342" lon="7.94424">
        <ele>160.7</ele>
        <time>2020-06-27T18:00:05Z</time>
      </trkpt>
      <trkpt lat="49.0342" lon="7.94424">
        <ele>160.7</ele>
        <time>2020-06-27T18:00:06Z</time>
      </trkpt>
      <trkpt lat="49.0342" lon="7.94424">
        <ele>160.7</ele>
        <time>2020-06-27T18:00:07Z</time>
      </trkpt>
      <trkpt lat="49.03403" lon="7.94424">
        <ele>160.7</ele>
        <time>2020-06-27T18:04:03Z</time>
      </trkpt>
      <trkpt lat="49.03403" lon="7.94424">
        <ele>160.7</ele>
        <time>2020-06-27T18:04:04Z</time>
      </trkpt>
      <trkpt lat="49.03404" lon="7.94423">
        <ele>160.7</ele>
        <time>2020-06-27T18:04:05Z</time>
      </trkpt>
      <trkpt lat="49.03405" lon="7.94423">
        <ele>160.7</ele>
        <time>2020-06-27T18:04:06Z</time>
      </trkpt>
      <trkpt lat="49.03406" lon="7.94423">
        <ele>160.7</ele>
        <time>2020-06-27T18:04:07Z</time>
      </trkpt>
      <trkpt lat="49.03407" lon="7.94423">
        <ele>160.7</ele>
        <time>2020-06-27T18:04:08Z</time>
      </trkpt>
      <trkpt lat="49.03407" lon="7.94424">
        <ele>160.7</ele>
        <time>2020-06-27T18:04:09Z</time>
      </trkpt>
      <trkpt lat="49.03407" lon="7.94424">
        <ele>160.7</ele>
        <time>2020-06-27T18:04:10Z</time>
      </trkpt>
      <trkpt lat="49.03407" lon="7.94423">
        <ele>160.7</ele>
        <time>2020-06-27T18:04:11Z</time>
      </trkpt>
      <trkpt lat="49.03407" lon="7.94423">
        <ele>160.7</ele>
        <time>2020-06-27T18:04:12Z</time>
      </trkpt>
      <trkpt lat="49.03406" lon="7.94422">
        <ele>160.7</ele>
        <time>2020-06-27T18:04:13Z</time>
      </trkpt>
      <trkpt lat="49.03406" lon="7.94421">
        <ele>160.6</ele>
        <time>2020-06-27T18:04:14Z</time>
      </trkpt>
      <trkpt lat="49.03406" lon="7.9442">
        <ele>160.6</ele>
        <time>2020-06-27T18:04:15Z</time>
      </trkpt>
      <trkpt lat="49.03406" lon="7.94422">
        <ele>160.6</ele>
        <time>2020-06-27T18:04:16Z</time>
      </trkpt>
      <trkpt lat="49.03406" lon="7.94421">
        <ele>160.6</ele>
        <time>2020-06-27T18:04:17Z</time>
      </trkpt>
      <trkpt lat="49.03406" lon="7.9442">
        <ele>160.6</ele>
        <time>2020-06-27T18:04:18Z</time>
      </trkpt>
      <trkpt lat="49.03406" lon="7.9442">
        <ele>160.6</ele>
        <time>2020-06-27T18:04:19Z</time>
      </trkpt>
      <trkpt lat="49.03406" lon="7.94419">
        <ele>160.6</ele>
        <time>2020-06-27T18:04:20Z</time>
      </trkpt>
      <trkpt lat="49.03405" lon="7.94419">
        <ele>160.6</ele>
        <time>2020-06-27T18:04:21Z</time>
      </trkpt>
      <trkpt lat="49.03405" lon="7.94419">
        <ele>160.6</ele>
        <time>2020-06-27T18:04:22Z</time>
      </trkpt>
      <trkpt lat="49.03405" lon="7.94419">
        <ele>160.6</ele>
        <time>2020-06-27T18:04:23Z</time>
      </trkpt>
      <trkpt lat="49.03405" lon="7.94419">
        <ele>160.6</ele>
        <time>2020-06-27T18:04:24Z</time>
      </trkpt>
      <trkpt lat="49.03405" lon="7.94421">
        <ele>160.6</ele>
        <time>2020-06-27T18:04:25Z</time>
      </trkpt>
      <trkpt lat="49.03405" lon="7.94421">
        <ele>160.6</ele>
        <time>2020-06-27T18:04:26Z</time>
      </trkpt>
      <trkpt lat="49.03405" lon="7.94421">
        <ele>160.6</ele>
        <time>2020-06-27T18:04:27Z</time>
      </trkpt>
      <trkpt lat="49.03405" lon="7.94421">
        <ele>160.6</ele>
        <time>2020-06-27T18:04:28Z</time>
      </trkpt>
      <trkpt lat="49.03405" lon="7.94421">
        <ele>160.6</ele>
        <time>2020-06-27T18:04:29Z</time>
      </trkpt>
      <trkpt lat="49.03405" lon="7.94421">
        <ele>160.6</ele>
        <time>2020-06-27T18:04:30Z</time>
      </trkpt>
      <trkpt lat="49.03405" lon="7.94422">
        <ele>160.6</ele>
        <time>2020-06-27T18:04:31Z</time>
      </trkpt>
      <trkpt lat="49.03403" lon="7.94415">
        <ele>160.6</ele>
        <time>2020-06-27T18:04:50Z</time>
      </trkpt>
      <trkpt lat="49.03403" lon="7.94414">
        <ele>160.6</ele>
        <time>2020-06-27T18:04:51Z</time>
      </trkpt>
      <trkpt lat="49.03402" lon="7.94413">
        <ele>160.6</ele>
        <time>2020-06-27T18:04:52Z</time>
      </trkpt>
      <trkpt lat="49.03402" lon="7.94412">
        <ele>160.6</ele>
        <time>2020-06-27T18:04:53Z</time>
      </trkpt>
      <trkpt lat="49.03402" lon="7.94411">
        <ele>160.6</ele>
        <time>2020-06-27T18:04:54Z</time>
      </trkpt>
      <trkpt lat="49.03402" lon="7.9441">
        <ele>160.6</ele>
        <time>2020-06-27T18:04:55Z</time>
      </trkpt>
      <trkpt lat="49.03401" lon="7.94409">
        <ele>160.6</ele>
        <time>2020-06-27T18:04:56Z</time>
      </trkpt>
      <trkpt lat="49.03401" lon="7.94409">
        <ele>160.6</ele>
        <time>2020-06-27T18:04:57Z</time>
      </trkpt>
      <trkpt lat="49.03401" lon="7.94408">
        <ele>160.6</ele>
        <time>2020-06-27T18:04:58Z</time>
      </trkpt>
      <trkpt lat="49.03401" lon="7.94407">
        <ele>160.6</ele>
        <time>2020-06-27T18:04:59Z</time>
      </trkpt>
      <trkpt lat="49.03402" lon="7.94407">
        <ele>160.6</ele>
        <time>2020-06-27T18:05:00Z</time>
      </trkpt>
      <trkpt lat="49.03402" lon="7.94407">
        <ele>160.6</ele>
        <time>2020-06-27T18:05:01Z</time>
      </trkpt>
      <trkpt lat="49.03403" lon="7.94407">
        <ele>160.6</ele>
        <time>2020-06-27T18:05:02Z</time>
      </trkpt>
      <trkpt lat="49.03403" lon="7.94406">
        <ele>160.7</ele>
        <time>2020-06-27T18:05:03Z</time>
      </trkpt>
      <trkpt lat="49.03404" lon="7.94406">
        <ele>160.7</ele>
        <time>2020-06-27T18:05:04Z</time>
      </trkpt>
      <trkpt lat="49.03405" lon="7.94407">
        <ele>160.7</ele>
        <time>2020-06-27T18:05:05Z</time>
      </trkpt>
      <trkpt lat="49.03405" lon="7.94408">
        <ele>160.7</ele>
        <time>2020-06-27T18:05:06Z</time>
      </trkpt>
      <trkpt lat="49.03405" lon="7.94409">
        <ele>160.7</ele>
        <time>2020-06-27T18:05:07Z</time>
      </trkpt>
      <trkpt lat="49.03405" lon="7.94409">
        <ele>160.7</ele>
        <time>2020-06-27T18:05:08Z</time>
      </trkpt>
      <trkpt lat="49.03405" lon="7.94409">
        <ele>160.7</ele>
        <time>2020-06-27T18:05:09Z</time>
      </trkpt>
      <trkpt lat="49.03404" lon="7.94409">
        <ele>160.7</ele>
        <time>2020-06-27T18:05:10Z</time>
      </trkpt>
      <trkpt lat="49.03404" lon="7.94409">
        <ele>160.7</ele>
        <time>2020-06-27T18:05:11Z</time>
      </trkpt>
      <trkpt lat="49.03404" lon="7.94408">
        <ele>160.7</ele>
        <time>2020-06-27T18:05:12Z</time>
      </trkpt>
      <trkpt lat="49.03404" lon="7.94408">
        <ele>160.7</ele>
        <time>2020-06-27T18:05:13Z</time>
      </trkpt>
      <trkpt lat="49.03405" lon="7.94408">
        <ele>160.7</ele>
        <time>2020-06-27T18:05:14Z</time>
      </trkpt>
      <trkpt lat="49.03405" lon="7.94408">
        <ele>160.7</ele>
        <time>2020-06-27T18:05:15Z</time>
      </trkpt>
      <trkpt lat="49.03406" lon="7.94407">
        <ele>160.7</ele>
        <time>2020-06-27T18:05:16Z</time>
      </trkpt>
      <trkpt lat="49.03407" lon="7.94407">
        <ele>160.7</ele>
        <time>2020-06-27T18:05:17Z</time>
      </trkpt>
      <trkpt lat="49.03407" lon="7.94408">
        <ele>160.7</ele>
        <time>2020-06-27T18:05:18Z</time>
      </trkpt>
      <trkpt lat="49.03408" lon="7.9441">
        <ele>160.7</ele>
        <time>2020-06-27T18:05:19Z</time>
      </trkpt>
      <trkpt lat="49.03408" lon="7.94409">
        <ele>160.7</ele>
        <time>2020-06-27T18:05:20Z</time>
      </trkpt>
      <trkpt lat="49.03407" lon="7.94408">
        <ele>160.7</ele>
        <time>2020-06-27T18:05:21Z</time>
      </trkpt>
      <trkpt lat="49.03407" lon="7.94408">
        <ele>160.7</ele>
        <time>2020-06-27T18:05:22Z</time>
      </trkpt>
      <trkpt lat="49.03406" lon="7.94407">
        <ele>160.7</ele>
        <time>2020-06-27T18:05:23Z</time>
      </trkpt>
      <trkpt lat="49.03406" lon="7.94406">
        <ele>160.7</ele>
        <time>2020-06-27T18:05:24Z</time>
      </trkpt>
      <trkpt lat="49.03405" lon="7.94405">
        <ele>160.7</ele>
        <time>2020-06-27T18:05:25Z</time>
      </trkpt>
      <trkpt lat="49.03405" lon="7.94405">
        <ele>160.7</ele>
        <time>2020-06-27T18:05:26Z</time>
      </trkpt>
      <trkpt lat="49.03405" lon="7.94405">
        <ele>160.7</ele>
        <time>2020-06-27T18:05:27Z</time>
      </trkpt>
      <trkpt lat="49.03407" lon="7.94412">
        <ele>160.7</ele>
        <time>2020-06-27T18:05:28Z</time>
      </trkpt>
      <trkpt lat="49.03407" lon="7.94412">
        <ele>160.7</ele>
        <time>2020-06-27T18:05:29Z</time>
      </trkpt>
      <trkpt lat="49.03406" lon="7.94412">
        <ele>160.7</ele>
        <time>2020-06-27T18:05:30Z</time>
      </trkpt>
      <trkpt lat="49.03406" lon="7.94411">
        <ele>160.7</ele>
        <time>2020-06-27T18:05:31Z</time>
      </trkpt>
      <trkpt lat="49.03406" lon="7.94411">
        <ele>160.7</ele>
        <time>2020-06-27T18:05:32Z</time>
      </trkpt>
      <trkpt lat="49.03406" lon="7.9441">
        <ele>160.7</ele>
        <time>2020-06-27T18:05:33Z</time>
      </trkpt>
      <trkpt lat="49.03406" lon="7.9441">
        <ele>160.7</ele>
        <time>2020-06-27T18:05:34Z</time>
      </trkpt>
      <trkpt lat="49.03406" lon="7.94409">
        <ele>160.7</ele>
        <time>2020-06-27T18:05:35Z</time>
      </trkpt>
      <trkpt lat="49.03406" lon="7.94409">
        <ele>160.7</ele>
        <time>2020-06-27T18:05:36Z</time>
      </trkpt>
      <trkpt lat="49.03406" lon="7.94408">
        <ele>160.7</ele>
        <time>2020-06-27T18:05:37Z</time>
      </trkpt>
      <trkpt lat="49.03406" lon="7.94408">
        <ele>160.7</ele>
        <time>2020-06-27T18:05:38Z</time>
      </trkpt>
      <trkpt lat="49.03406" lon="7.94408">
        <ele>160.7</ele>
        <time>2020-06-27T18:05:39Z</time>
      </trkpt>
      <trkpt lat="49.03406" lon="7.94407">
        <ele>160.7</ele>
        <time>2020-06-27T18:05:40Z</time>
      </trkpt>
      <trkpt lat="49.03406" lon="7.94407">
        <ele>160.7</ele>
        <time>2020-06-27T18:05:41Z</time>
      </trkpt>
      <trkpt lat="49.03405" lon="7.94406">
        <ele>160.7</ele>
        <time>2020-06-27T18:05:42Z</time>
      </trkpt>
      <trkpt lat="49.03406" lon="7.94404">
        <ele>160.7</ele>
        <time>2020-06-27T18:05:43Z</time>
      </trkpt>
      <trkpt lat="49.03405" lon="7.94401">
        <ele>160.7</ele>
        <time>2020-06-27T18:05:44Z</time>
      </trkpt>
      <trkpt lat="49.03405" lon="7.94399">
        <ele>160.7</ele>
        <time>2020-06-27T18:05:45Z</time>
      </trkpt>
      <trkpt lat="49.03404" lon="7.94399">
        <ele>160.7</ele>
        <time>2020-06-27T18:05:46Z</time>
      </trkpt>
      <trkpt lat="49.03404" lon="7.94397">
        <ele>160.7</ele>
        <time>2020-06-27T18:05:47Z</time>
      </trkpt>
      <trkpt lat="49.03403" lon="7.94395">
        <ele>160.7</ele>
        <time>2020-06-27T18:05:48Z</time>
      </trkpt>
      <trkpt lat="49.03403" lon="7.94395">
        <ele>160.7</ele>
        <time>2020-06-27T18:05:49Z</time>
      </trkpt>
      <trkpt lat="49.03403" lon="7.94394">
        <ele>160.7</ele>
        <time>2020-06-27T18:05:50Z</time>
      </trkpt>
      <trkpt lat="49.03404" lon="7.94393">
        <ele>160.7</ele>
        <time>2020-06-27T18:05:51Z</time>
      </trkpt>
      <trkpt lat="49.03403" lon="7.94392">
        <ele>160.7</ele>
        <time>2020-06-27T18:05:52Z</time>
      </trkpt>
      <trkpt lat="49.03404" lon="7.94392">
        <ele>160.7</ele>
        <time>2020-06-27T18:05:53Z</time>
      </trkpt>
      <trkpt lat="49.03406" lon="7.94391">
        <ele>160.7</ele>
        <time>2020-06-27T18:05:54Z</time>
      </trkpt>
      <trkpt lat="49.03409" lon="7.94389">
        <ele>160.7</ele>
        <time>2020-06-27T18:05:55Z</time>
      </trkpt>
      <trkpt lat="49.0341" lon="7.94387">
        <ele>160.7</ele>
        <time>2020-06-27T18:05:56Z</time>
      </trkpt>
      <trkpt lat="49.03411" lon="7.94385">
        <ele>160.7</ele>
        <time>2020-06-27T18:05:57Z</time>
      </trkpt>
      <trkpt lat="49.03411" lon="7.94385">
        <ele>160.7</ele>
        <time>2020-06-27T18:05:58Z</time>
      </trkpt>
      <trkpt lat="49.03411" lon="7.94384">
        <ele>160.7</ele>
        <time>2020-06-27T18:05:59Z</time>
      </trkpt>
      <trkpt lat="49.03411" lon="7.94383">
        <ele>160.7</ele>
        <time>2020-06-27T18:06:00Z</time>
      </trkpt>
      <trkpt lat="49.03411" lon="7.94382">
        <ele>160.7</ele>
        <time>2020-06-27T18:06:01Z</time>
      </trkpt>
      <trkpt lat="49.03411" lon="7.94381">
        <ele>160.7</ele>
        <time>2020-06-27T18:06:02Z</time>
      </trkpt>
      <trkpt lat="49.03411" lon="7.94379">
        <ele>160.7</ele>
        <time>2020-06-27T18:06:03Z</time>
      </trkpt>
      <trkpt lat="49.0341" lon="7.94378">
        <ele>160.7</ele>
        <time>2020-06-27T18:06:04Z</time>
      </trkpt>
      <trkpt lat="49.0341" lon="7.94376">
        <ele>160.7</ele>
        <time>2020-06-27T18:06:05Z</time>
      </trkpt>
      <trkpt lat="49.0341" lon="7.94375">
        <ele>160.7</ele>
        <time>2020-06-27T18:06:06Z</time>
      </trkpt>
      <trkpt lat="49.0341" lon="7.94374">
        <ele>160.7</ele>
        <time>2020-06-27T18:06:07Z</time>
      </trkpt>
      <trkpt lat="49.0341" lon="7.94374">
        <ele>160.7</ele>
        <time>2020-06-27T18:06:08Z</time>
      </trkpt>
      <trkpt lat="49.0341" lon="7.94373">
        <ele>160.7</ele>
        <time>2020-06-27T18:06:09Z</time>
      </trkpt>
      <trkpt lat="49.0341" lon="7.94372">
        <ele>160.7</ele>
        <time>2020-06-27T18:06:10Z</time>
      </trkpt>
      <trkpt lat="49.03409" lon="7.94369">
        <ele>160.7</ele>
        <time>2020-06-27T18:06:11Z</time>
      </trkpt>
      <trkpt lat="49.03409" lon="7.94364">
        <ele>160.7</ele>
        <time>2020-06-27T18:06:12Z</time>
      </trkpt>
      <trkpt lat="49.03409" lon="7.94362">
        <ele>160.7</ele>
        <time>2020-06-27T18:06:13Z</time>
      </trkpt>
      <trkpt lat="49.03409" lon="7.94361">
        <ele>160.7</ele>
        <time>2020-06-27T18:06:14Z</time>
      </trkpt>
      <trkpt lat="49.03408" lon="7.94358">
        <ele>160.7</ele>
        <time>2020-06-27T18:06:15Z</time>
      </trkpt>
      <trkpt lat="49.03408" lon="7.94355">
        <ele>160.7</ele>
        <time>2020-06-27T18:06:16Z</time>
      </trkpt>
      <trkpt lat="49.03408" lon="7.94353">
        <ele>160.7</ele>
        <time>2020-06-27T18:06:17Z</time>
      </trkpt>
      <trkpt lat="49.03408" lon="7.94349">
        <ele>160.7</ele>
        <time>2020-06-27T18:06:18Z</time>
      </trkpt>
      <trkpt lat="49.03408" lon="7.94343">
        <ele>160.7</ele>
        <time>2020-06-27T18:06:19Z</time>
      </trkpt>
      <trkpt lat="49.03408" lon="7.9434">
        <ele>160.7</ele>
        <time>2020-06-27T18:06:20Z</time>
      </trkpt>
      <trkpt lat="49.03408" lon="7.94338">
        <ele>160.7</ele>
        <time>2020-06-27T18:06:21Z</time>
      </trkpt>
      <trkpt lat="49.03408" lon="7.94336">
        <ele>160.7</ele>
        <time>2020-06-27T18:06:22Z</time>
      </trkpt>
      <trkpt lat="49.03408" lon="7.94334">
        <ele>160.7</ele>
        <time>2020-06-27T18:06:23Z</time>
      </trkpt>
      <trkpt lat="49.03408" lon="7.94333">
        <ele>160.7</ele>
        <time>2020-06-27T18:06:24Z</time>
      </trkpt>
      <trkpt lat="49.03408" lon="7.94332">
        <ele>160.7</ele>
        <time>2020-06-27T18:06:25Z</time>
      </trkpt>
      <trkpt lat="49.03408" lon="7.94331">
        <ele>160.7</ele>
        <time>2020-06-27T18:06:26Z</time>
      </trkpt>
      <trkpt lat="49.03409" lon="7.94331">
        <ele>160.7</ele>
        <time>2020-06-27T18:06:27Z</time>
      </trkpt>
      <trkpt lat="49.03409" lon="7.9433">
        <ele>160.7</ele>
        <time>2020-06-27T18:06:28Z</time>
      </trkpt>
      <trkpt lat="49.03409" lon="7.94327">
        <ele>160.7</ele>
        <time>2020-06-27T18:06:29Z</time>
      </trkpt>
      <trkpt lat="49.03409" lon="7.94326">
        <ele>160.7</ele>
        <time>2020-06-27T18:06:30Z</time>
      </trkpt>
      <trkpt lat="49.0341" lon="7.94324">
        <ele>160.7</ele>
        <time>2020-06-27T18:06:31Z</time>
      </trkpt>
      <trkpt lat="49.0341" lon="7.94322">
        <ele>160.7</ele>
        <time>2020-06-27T18:06:32Z</time>
      </trkpt>
      <trkpt lat="49.0341" lon="7.9432">
        <ele>160.7</ele>
        <time>2020-06-27T18:06:33Z</time>
      </trkpt>
      <trkpt lat="49.03411" lon="7.94325">
        <ele>160.7</ele>
        <time>2020-06-27T18:06:34Z</time>
      </trkpt>
      <trkpt lat="49.0341" lon="7.94324">
        <ele>160.7</ele>
        <time>2020-06-27T18:06:35Z</time>
      </trkpt>
      <trkpt lat="49.0341" lon="7.94321">
        <ele>160.7</ele>
        <time>2020-06-27T18:06:36Z</time>
      </trkpt>
      <trkpt lat="49.0341" lon="7.94323">
        <ele>160.7</ele>
        <time>2020-06-27T18:06:37Z</time>
      </trkpt>
      <trkpt lat="49.0341" lon="7.94326">
        <ele>160.7</ele>
        <time>2020-06-27T18:06:38Z</time>
      </trkpt>
      <trkpt lat="49.0341" lon="7.9433">
        <ele>160.7</ele>
        <time>2020-06-27T18:06:39Z</time>
      </trkpt>
      <trkpt lat="49.0341" lon="7.94333">
        <ele>160.7</ele>
        <time>2020-06-27T18:06:40Z</time>
      </trkpt>
      <trkpt lat="49.03409" lon="7.94335">
        <ele>160.7</ele>
        <time>2020-06-27T18:06:41Z</time>
      </trkpt>
      <trkpt lat="49.0341" lon="7.94331">
        <ele>160.7</ele>
        <time>2020-06-27T18:06:42Z</time>
      </trkpt>
      <trkpt lat="49.0341" lon="7.9433">
        <ele>160.7</ele>
        <time>2020-06-27T18:06:43Z</time>
      </trkpt>
      <trkpt lat="49.0341" lon="7.94329">
        <ele>160.7</ele>
        <time>2020-06-27T18:06:44Z</time>
      </trkpt>
      <trkpt lat="49.0341" lon="7.94329">
        <ele>160.7</ele>
        <time>2020-06-27T18:06:45Z</time>
      </trkpt>
      <trkpt lat="49.0341" lon="7.94333">
        <ele>160.7</ele>
        <time>2020-06-27T18:06:46Z</time>
      </trkpt>
      <trkpt lat="49.03411" lon="7.94332">
        <ele>160.7</ele>
        <time>2020-06-27T18:06:47Z</time>
      </trkpt>
      <trkpt lat="49.03412" lon="7.94331">
        <ele>160.7</ele>
        <time>2020-06-27T18:06:48Z</time>
      </trkpt>
      <trkpt lat="49.03413" lon="7.9433">
        <ele>160.7</ele>
        <time>2020-06-27T18:06:49Z</time>
      </trkpt>
      <trkpt lat="49.03413" lon="7.94329">
        <ele>160.7</ele>
        <time>2020-06-27T18:06:50Z</time>
      </trkpt>
      <trkpt lat="49.03418" lon="7.94329">
        <ele>160.7</ele>
        <time>2020-06-27T18:06:51Z</time>
      </trkpt>
      <trkpt lat="49.0342" lon="7.94327">
        <ele>160.7</ele>
        <time>2020-06-27T18:06:52Z</time>
      </trkpt>
      <trkpt lat="49.03422" lon="7.94326">
        <ele>160.7</ele>
        <time>2020-06-27T18:06:53Z</time>
      </trkpt>
      <trkpt lat="49.03424" lon="7.94323">
        <ele>160.7</ele>
        <time>2020-06-27T18:06:54Z</time>
      </trkpt>
      <trkpt lat="49.03425" lon="7.94322">
        <ele>160.7</ele>
        <time>2020-06-27T18:06:55Z</time>
      </trkpt>
      <trkpt lat="49.03412" lon="7.94376">
        <ele>160.7</ele>
        <time>2020-06-27T18:06:56Z</time>
      </trkpt>
      <trkpt lat="49.03414" lon="7.94374">
        <ele>160.7</ele>
        <time>2020-06-27T18:06:57Z</time>
      </trkpt>
      <trkpt lat="49.034" lon="7.94408">
        <ele>160.7</ele>
        <time>2020-06-27T18:06:58Z</time>
      </trkpt>
      <trkpt lat="49.03402" lon="7.94408">
        <ele>160.7</ele>
        <time>2020-06-27T18:06:59Z</time>
      </trkpt>
      <trkpt lat="49.03402" lon="7.94408">
        <ele>160.7</ele>
        <time>2020-06-27T18:07:00Z</time>
      </trkpt>
      <trkpt lat="49.03404" lon="7.94409">
        <ele>160.7</ele>
        <time>2020-06-27T18:07:01Z</time>
      </trkpt>
      <trkpt lat="49.03404" lon="7.94411">
        <ele>160.7</ele>
        <time>2020-06-27T18:07:02Z</time>
      </trkpt>
      <trkpt lat="49.03404" lon="7.94412">
        <ele>160.7</ele>
        <time>2020-06-27T18:07:03Z</time>
      </trkpt>
      <trkpt lat="49.03404" lon="7.94417">
        <ele>160.8</ele>
        <time>2020-06-27T18:07:04Z</time>
      </trkpt>
      <trkpt lat="49.03404" lon="7.9442">
        <ele>160.8</ele>
        <time>2020-06-27T18:07:05Z</time>
      </trkpt>
      <trkpt lat="49.03405" lon="7.94424">
        <ele>160.9</ele>
        <time>2020-06-27T18:07:06Z</time>
      </trkpt>
      <trkpt lat="49.03406" lon="7.94428">
        <ele>160.9</ele>
        <time>2020-06-27T18:07:07Z</time>
      </trkpt>
      <trkpt lat="49.03407" lon="7.94431">
        <ele>160.9</ele>
        <time>2020-06-27T18:07:08Z</time>
      </trkpt>
      <trkpt lat="49.03408" lon="7.94435">
        <ele>161</ele>
        <time>2020-06-27T18:07:09Z</time>
      </trkpt>
      <trkpt lat="49.03409" lon="7.94439">
        <ele>161</ele>
        <time>2020-06-27T18:07:10Z</time>
      </trkpt>
      <trkpt lat="49.0341" lon="7.94442">
        <ele>161.1</ele>
        <time>2020-06-27T18:07:11Z</time>
      </trkpt>
      <trkpt lat="49.03411" lon="7.94446">
        <ele>161.1</ele>
        <time>2020-06-27T18:07:12Z</time>
      </trkpt>
      <trkpt lat="49.03412" lon="7.9445">
        <ele>161.2</ele>
        <time>2020-06-27T18:07:13Z</time>
      </trkpt>
      <trkpt lat="49.03413" lon="7.94453">
        <ele>161.3</ele>
        <time>2020-06-27T18:09:21Z</time>
      </trkpt>
      <trkpt lat="49.03414" lon="7.94457">
        <ele>161.3</ele>
        <time>2020-06-27T18:09:22Z</time>
      </trkpt>
      <trkpt lat="49.03415" lon="7.9446">
        <ele>161.4</ele>
        <time>2020-06-27T18:09:23Z</time>
      </trkpt>
      <trkpt lat="49.03415" lon="7.94464">
        <ele>161.4</ele>
        <time>2020-06-27T18:09:24Z</time>
      </trkpt>
      <trkpt lat="49.03415" lon="7.94466">
        <ele>161.4</ele>
        <time>2020-06-27T18:09:25Z</time>
      </trkpt>
      <trkpt lat="49.03414" lon="7.94468">
        <ele>161.5</ele>
        <time>2020-06-27T18:09:26Z</time>
      </trkpt>
      <trkpt lat="49.03414" lon="7.94469">
        <ele>161.5</ele>
        <time>2020-06-27T18:09:27Z</time>
      </trkpt>
      <trkpt lat="49.03414" lon="7.94471">
        <ele>161.5</ele>
        <time>2020-06-27T18:09:28Z</time>
      </trkpt>
      <trkpt lat="49.03413" lon="7.94472">
        <ele>161.5</ele>
        <time>2020-06-27T18:09:29Z</time>
      </trkpt>
      <trkpt lat="49.03413" lon="7.94474">
        <ele>161.5</ele>
        <time>2020-06-27T18:09:30Z</time>
      </trkpt>
      <trkpt lat="49.03413" lon="7.94475">
        <ele>161.5</ele>
        <time>2020-06-27T18:09:31Z</time>
      </trkpt>
      <trkpt lat="49.03412" lon="7.94475">
        <ele>161.5</ele>
        <time>2020-06-27T18:09:32Z</time>
      </trkpt>
      <trkpt lat="49.03412" lon="7.94474">
        <ele>161.6</ele>
        <time>2020-06-27T18:09:33Z</time>
      </trkpt>
      <trkpt lat="49.03412" lon="7.94475">
        <ele>161.6</ele>
        <time>2020-06-27T18:09:34Z</time>
      </trkpt>
      <trkpt lat="49.03412" lon="7.94472">
        <ele>161.6</ele>
        <time>2020-06-27T18:09:35Z</time>
      </trkpt>
      <trkpt lat="49.03412" lon="7.94473">
        <ele>161.6</ele>
        <time>2020-06-27T18:09:36Z</time>
      </trkpt>
      <trkpt lat="49.03411" lon="7.94473">
        <ele>161.6</ele>
        <time>2020-06-27T18:09:37Z</time>
      </trkpt>
      <trkpt lat="49.0341" lon="7.94474">
        <ele>161.6</ele>
        <time>2020-06-27T18:09:38Z</time>
      </trkpt>
      <trkpt lat="49.0341" lon="7.94475">
        <ele>161.6</ele>
        <time>2020-06-27T18:09:39Z</time>
      </trkpt>
      <trkpt lat="49.0341" lon="7.94475">
        <ele>161.6</ele>
        <time>2020-06-27T18:09:40Z</time>
      </trkpt>
      <trkpt lat="49.03409" lon="7.94476">
        <ele>161.6</ele>
        <time>2020-06-27T18:09:41Z</time>
      </trkpt>
      <trkpt lat="49.03409" lon="7.94476">
        <ele>161.6</ele>
        <time>2020-06-27T18:09:42Z</time>
      </trkpt>
      <trkpt lat="49.03409" lon="7.94475">
        <ele>161.6</ele>
        <time>2020-06-27T18:09:43Z</time>
      </trkpt>
      <trkpt lat="49.03409" lon="7.94474">
        <ele>161.9</ele>
        <time>2020-06-27T18:09:44Z</time>
      </trkpt>
      <trkpt lat="49.0341" lon="7.94472">
        <ele>161.8</ele>
        <time>2020-06-27T18:09:45Z</time>
      </trkpt>
      <trkpt lat="49.0341" lon="7.9447">
        <ele>161.9</ele>
        <time>2020-06-27T18:09:46Z</time>
      </trkpt>
      <trkpt lat="49.0341" lon="7.94469">
        <ele>162.1</ele>
        <time>2020-06-27T18:09:47Z</time>
      </trkpt>
      <trkpt lat="49.0341" lon="7.94469">
        <ele>162</ele>
        <time>2020-06-27T18:09:48Z</time>
      </trkpt>
      <trkpt lat="49.0341" lon="7.9447">
        <ele>162</ele>
        <time>2020-06-27T18:09:49Z</time>
      </trkpt>
      <trkpt lat="49.03411" lon="7.94468">
        <ele>162</ele>
        <time>2020-06-27T18:09:50Z</time>
      </trkpt>
      <trkpt lat="49.03411" lon="7.94466">
        <ele>162</ele>
        <time>2020-06-27T18:09:51Z</time>
      </trkpt>
      <trkpt lat="49.03411" lon="7.94466">
        <ele>162.2</ele>
        <time>2020-06-27T18:09:52Z</time>
      </trkpt>
      <trkpt lat="49.0341" lon="7.94465">
        <ele>162.2</ele>
        <time>2020-06-27T18:09:53Z</time>
      </trkpt>
      <trkpt lat="49.03411" lon="7.94468">
        <ele>162</ele>
        <time>2020-06-27T18:09:54Z</time>
      </trkpt>
      <trkpt lat="49.03411" lon="7.94468">
        <ele>162</ele>
        <time>2020-06-27T18:09:55Z</time>
      </trkpt>
      <trkpt lat="49.03411" lon="7.94468">
        <ele>162</ele>
        <time>2020-06-27T18:09:56Z</time>
      </trkpt>
      <trkpt lat="49.03401" lon="7.94465">
        <ele>162.3</ele>
        <time>2020-06-27T18:14:30Z</time>
      </trkpt>
      <trkpt lat="49.03401" lon="7.94464">
        <ele>162.3</ele>
        <time>2020-06-27T18:14:31Z</time>
      </trkpt>
      <trkpt lat="49.034" lon="7.94463">
        <ele>162.3</ele>
        <time>2020-06-27T18:14:32Z</time>
      </trkpt>
      <trkpt lat="49.034" lon="7.94462">
        <ele>162.3</ele>
        <time>2020-06-27T18:14:33Z</time>
      </trkpt>
      <trkpt lat="49.034" lon="7.94462">
        <ele>162.5</ele>
        <time>2020-06-27T18:14:34Z</time>
      </trkpt>
      <trkpt lat="49.034" lon="7.94461">
        <ele>162.5</ele>
        <time>2020-06-27T18:14:35Z</time>
      </trkpt>
      <trkpt lat="49.03399" lon="7.94461">
        <ele>162.5</ele>
        <time>2020-06-27T18:14:36Z</time>
      </trkpt>
      <trkpt lat="49.03399" lon="7.9446">
        <ele>162.5</ele>
        <time>2020-06-27T18:14:37Z</time>
      </trkpt>
      <trkpt lat="49.03399" lon="7.94458">
        <ele>162.5</ele>
        <time>2020-06-27T18:14:38Z</time>
      </trkpt>
      <trkpt lat="49.03399" lon="7.94456">
        <ele>162.6</ele>
        <time>2020-06-27T18:14:39Z</time>
      </trkpt>
      <trkpt lat="49.03398" lon="7.94454">
        <ele>162.7</ele>
        <time>2020-06-27T18:14:40Z</time>
      </trkpt>
      <trkpt lat="49.034" lon="7.94453">
        <ele>162.8</ele>
        <time>2020-06-27T18:14:41Z</time>
      </trkpt>
      <trkpt lat="49.03401" lon="7.94452">
        <ele>162.8</ele>
        <time>2020-06-27T18:14:42Z</time>
      </trkpt>
      <trkpt lat="49.03403" lon="7.94451">
        <ele>162.7</ele>
        <time>2020-06-27T18:14:43Z</time>
      </trkpt>
      <trkpt lat="49.03404" lon="7.9445">
        <ele>162.7</ele>
        <time>2020-06-27T18:14:44Z</time>
      </trkpt>
      <trkpt lat="49.03406" lon="7.9445">
        <ele>162.7</ele>
        <time>2020-06-27T18:14:45Z</time>
      </trkpt>
      <trkpt lat="49.03407" lon="7.94449">
        <ele>162.8</ele>
        <time>2020-06-27T18:14:46Z</time>
      </trkpt>
      <trkpt lat="49.03409" lon="7.94448">
        <ele>162.8</ele>
        <time>2020-06-27T18:14:47Z</time>
      </trkpt>
      <trkpt lat="49.0341" lon="7.94447">
        <ele>162.7</ele>
        <time>2020-06-27T18:14:48Z</time>
      </trkpt>
      <trkpt lat="49.03412" lon="7.94446">
        <ele>162.7</ele>
        <time>2020-06-27T18:14:49Z</time>
      </trkpt>
      <trkpt lat="49.03413" lon="7.94445">
        <ele>162.7</ele>
        <time>2020-06-27T18:14:50Z</time>
      </trkpt>
      <trkpt lat="49.03415" lon="7.94445">
        <ele>162.8</ele>
        <time>2020-06-27T18:14:51Z</time>
      </trkpt>
      <trkpt lat="49.03416" lon="7.94444">
        <ele>162.7</ele>
        <time>2020-06-27T18:14:52Z</time>
      </trkpt>
      <trkpt lat="49.03418" lon="7.94443">
        <ele>162.7</ele>
        <time>2020-06-27T18:14:53Z</time>
      </trkpt>
      <trkpt lat="49.03419" lon="7.94442">
        <ele>162.7</ele>
        <time>2020-06-27T18:14:54Z</time>
      </trkpt>
      <trkpt lat="49.03421" lon="7.94441">
        <ele>162.7</ele>
        <time>2020-06-27T18:14:55Z</time>
      </trkpt>
      <trkpt lat="49.03422" lon="7.9444">
        <ele>162.6</ele>
        <time>2020-06-27T18:14:56Z</time>
      </trkpt>
      <trkpt lat="49.03424" lon="7.9444">
        <ele>162.7</ele>
        <time>2020-06-27T18:18:59Z</time>
      </trkpt>
      <trkpt lat="49.03425" lon="7.94439">
        <ele>162.6</ele>
        <time>2020-06-27T18:19:00Z</time>
      </trkpt>
      <trkpt lat="49.03427" lon="7.94438">
        <ele>162.6</ele>
        <time>2020-06-27T18:19:01Z</time>
      </trkpt>
      <trkpt lat="49.03425" lon="7.9444">
        <ele>162.6</ele>
        <time>2020-06-27T18:19:02Z</time>
      </trkpt>
      <trkpt lat="49.03424" lon="7.94441">
        <ele>162.6</ele>
        <time>2020-06-27T18:19:03Z</time>
      </trkpt>
      <trkpt lat="49.03423" lon="7.94443">
        <ele>162.6</ele>
        <time>2020-06-27T18:19:04Z</time>
      </trkpt>
      <trkpt lat="49.0342" lon="7.94446">
        <ele>162.6</ele>
        <time>2020-06-27T18:19:05Z</time>
      </trkpt>
      <trkpt lat="49.03418" lon="7.94447">
        <ele>162.6</ele>
        <time>2020-06-27T18:19:06Z</time>
      </trkpt>
      <trkpt lat="49.03416" lon="7.9445">
        <ele>162.5</ele>
        <time>2020-06-27T18:19:07Z</time>
      </trkpt>
      <trkpt lat="49.03415" lon="7.94452">
        <ele>162.6</ele>
        <time>2020-06-27T18:19:08Z</time>
      </trkpt>
      <trkpt lat="49.03414" lon="7.94453">
        <ele>162.6</ele>
        <time>2020-06-27T18:19:09Z</time>
      </trkpt>
      <trkpt lat="49.03413" lon="7.94454">
        <ele>162.5</ele>
        <time>2020-06-27T18:19:10Z</time>
      </trkpt>
      <trkpt lat="49.03412" lon="7.94456">
        <ele>162.5</ele>
        <time>2020-06-27T18:19:11Z</time>
      </trkpt>
      <trkpt lat="49.03411" lon="7.94456">
        <ele>162.5</ele>
        <time>2020-06-27T18:19:12Z</time>
      </trkpt>
      <trkpt lat="49.0341" lon="7.94457">
        <ele>162.5</ele>
        <time>2020-06-27T18:19:13Z</time>
      </trkpt>
      <trkpt lat="49.03411" lon="7.94455">
        <ele>162.5</ele>
        <time>2020-06-27T18:19:14Z</time>
      </trkpt>
      <trkpt lat="49.03409" lon="7.94458">
        <ele>162.4</ele>
        <time>2020-06-27T18:19:27Z</time>
      </trkpt>
      <trkpt lat="49.03409" lon="7.94458">
        <ele>162.4</ele>
        <time>2020-06-27T18:19:28Z</time>
      </trkpt>
      <trkpt lat="49.03408" lon="7.94459">
        <ele>162.4</ele>
        <time>2020-06-27T18:19:29Z</time>
      </trkpt>
      <trkpt lat="49.03408" lon="7.9446">
        <ele>162.4</ele>
        <time>2020-06-27T18:19:30Z</time>
      </trkpt>
      <trkpt lat="49.03406" lon="7.94461">
        <ele>162.4</ele>
        <time>2020-06-27T18:19:31Z</time>
      </trkpt>
      <trkpt lat="49.03406" lon="7.94462">
        <ele>162.3</ele>
        <time>2020-06-27T18:19:32Z</time>
      </trkpt>
      <trkpt lat="49.03406" lon="7.94463">
        <ele>162.3</ele>
        <time>2020-06-27T18:19:33Z</time>
      </trkpt>
      <trkpt lat="49.03406" lon="7.94464">
        <ele>162.3</ele>
        <time>2020-06-27T18:19:34Z</time>
      </trkpt>
      <trkpt lat="49.03406" lon="7.94463">
        <ele>162.3</ele>
        <time>2020-06-27T18:19:35Z</time>
      </trkpt>
      <trkpt lat="49.03407" lon="7.94463">
        <ele>162.3</ele>
        <time>2020-06-27T18:19:36Z</time>
      </trkpt>
      <trkpt lat="49.03407" lon="7.94463">
        <ele>162.3</ele>
        <time>2020-06-27T18:19:37Z</time>
      </trkpt>
      <trkpt lat="49.03407" lon="7.94462">
        <ele>162.2</ele>
        <time>2020-06-27T18:19:38Z</time>
      </trkpt>
      <trkpt lat="49.03407" lon="7.94462">
        <ele>162.4</ele>
        <time>2020-06-27T18:19:39Z</time>
      </trkpt>
      <trkpt lat="49.03408" lon="7.94461">
        <ele>162.4</ele>
        <time>2020-06-27T18:19:40Z</time>
      </trkpt>
      <trkpt lat="49.03408" lon="7.94461">
        <ele>162.4</ele>
        <time>2020-06-27T18:19:41Z</time>
      </trkpt>
      <trkpt lat="49.03408" lon="7.94461">
        <ele>162.4</ele>
        <time>2020-06-27T18:19:42Z</time>
      </trkpt>
      <trkpt lat="49.03409" lon="7.9446">
        <ele>162.4</ele>
        <time>2020-06-27T18:19:43Z</time>
      </trkpt>
      <trkpt lat="49.03409" lon="7.9446">
        <ele>162.4</ele>
        <time>2020-06-27T18:19:44Z</time>
      </trkpt>
      <trkpt lat="49.03409" lon="7.94459">
        <ele>162.4</ele>
        <time>2020-06-27T18:19:45Z</time>
      </trkpt>
      <trkpt lat="49.03409" lon="7.94459">
        <ele>162.4</ele>
        <time>2020-06-27T18:19:46Z</time>
      </trkpt>
      <trkpt lat="49.0341" lon="7.94458">
        <ele>162.4</ele>
        <time>2020-06-27T18:19:47Z</time>
      </trkpt>
      <trkpt lat="49.0341" lon="7.94457">
        <ele>162.5</ele>
        <time>2020-06-27T18:19:48Z</time>
      </trkpt>
      <trkpt lat="49.0341" lon="7.94457">
        <ele>162.5</ele>
        <time>2020-06-27T18:19:49Z</time>
      </trkpt>
      <trkpt lat="49.03411" lon="7.94457">
        <ele>162.5</ele>
        <time>2020-06-27T18:19:50Z</time>
      </trkpt>
      <trkpt lat="49.03412" lon="7.94456">
        <ele>162.5</ele>
        <time>2020-06-27T18:19:51Z</time>
      </trkpt>
      <trkpt lat="49.03413" lon="7.94455">
        <ele>162.5</ele>
        <time>2020-06-27T18:19:52Z</time>
      </trkpt>
      <trkpt lat="49.03415" lon="7.94454">
        <ele>162.5</ele>
        <time>2020-06-27T18:19:53Z</time>
      </trkpt>
      <trkpt lat="49.03416" lon="7.94453">
        <ele>162.4</ele>
        <time>2020-06-27T18:19:54Z</time>
      </trkpt>
      <trkpt lat="49.03417" lon="7.94452">
        <ele>162.5</ele>
        <time>2020-06-27T18:19:55Z</time>
      </trkpt>
      <trkpt lat="49.03418" lon="7.94452">
        <ele>162.5</ele>
        <time>2020-06-27T18:19:56Z</time>
      </trkpt>
      <trkpt lat="49.03419" lon="7.94451">
        <ele>162.5</ele>
        <time>2020-06-27T18:19:57Z</time>
      </trkpt>
      <trkpt lat="49.0342" lon="7.9445">
        <ele>162.5</ele>
        <time>2020-06-27T18:19:58Z</time>
      </trkpt>
      <trkpt lat="49.03421" lon="7.9445">
        <ele>162.4</ele>
        <time>2020-06-27T18:19:59Z</time>
      </trkpt>
      <trkpt lat="49.03422" lon="7.94448">
        <ele>162.5</ele>
        <time>2020-06-27T18:20:00Z</time>
      </trkpt>
      <trkpt lat="49.03422" lon="7.94448">
        <ele>162.5</ele>
        <time>2020-06-27T18:20:01Z</time>
      </trkpt>
      <trkpt lat="49.03422" lon="7.94448">
        <ele>162.5</ele>
        <time>2020-06-27T18:20:02Z</time>
      </trkpt>
      <trkpt lat="49.03421" lon="7.94447">
        <ele>162.6</ele>
        <time>2020-06-27T18:20:03Z</time>
      </trkpt>
      <trkpt lat="49.0342" lon="7.94446">
        <ele>162.6</ele>
        <time>2020-06-27T18:20:04Z</time>
      </trkpt>
      <trkpt lat="49.0342" lon="7.94445">
        <ele>162.6</ele>
        <time>2020-06-27T18:20:05Z</time>
      </trkpt>
      <trkpt lat="49.03419" lon="7.94444">
        <ele>162.7</ele>
        <time>2020-06-27T18:20:06Z</time>
      </trkpt>
      <trkpt lat="49.03419" lon="7.94444">
        <ele>162.7</ele>
        <time>2020-06-27T18:20:07Z</time>
      </trkpt>
      <trkpt lat="49.03418" lon="7.94445">
        <ele>162.6</ele>
        <time>2020-06-27T18:20:08Z</time>
      </trkpt>
      <trkpt lat="49.03418" lon="7.94445">
        <ele>162.6</ele>
        <time>2020-06-27T18:20:09Z</time>
      </trkpt>
      <trkpt lat="49.03418" lon="7.94445">
        <ele>162.6</ele>
        <time>2020-06-27T18:20:10Z</time>
      </trkpt>
      <trkpt lat="49.03418" lon="7.94445">
        <ele>162.6</ele>
        <time>2020-06-27T18:20:11Z</time>
      </trkpt>
      <trkpt lat="49.03418" lon="7.94445">
        <ele>162.6</ele>
        <time>2020-06-27T18:20:12Z</time>
      </trkpt>
      <trkpt lat="49.03419" lon="7.94445">
        <ele>162.6</ele>
        <time>2020-06-27T18:20:13Z</time>
      </trkpt>
      <trkpt lat="49.03419" lon="7.94445">
        <ele>162.6</ele>
        <time>2020-06-27T18:20:14Z</time>
      </trkpt>
      <trkpt lat="49.0342" lon="7.94445">
        <ele>162.6</ele>
        <time>2020-06-27T18:20:15Z</time>
      </trkpt>
      <trkpt lat="49.0342" lon="7.94444">
        <ele>162.7</ele>
        <time>2020-06-27T18:20:16Z</time>
      </trkpt>
      <trkpt lat="49.03421" lon="7.94444">
        <ele>162.7</ele>
        <time>2020-06-27T18:20:17Z</time>
      </trkpt>
      <trkpt lat="49.03421" lon="7.94444">
        <ele>162.6</ele>
        <time>2020-06-27T18:20:18Z</time>
      </trkpt>
      <trkpt lat="49.03422" lon="7.94444">
        <ele>162.6</ele>
        <time>2020-06-27T18:20:19Z</time>
      </trkpt>
      <trkpt lat="49.03422" lon="7.94444">
        <ele>162.6</ele>
        <time>2020-06-27T18:20:20Z</time>
      </trkpt>
      <trkpt lat="49.03422" lon="7.94444">
        <ele>162.6</ele>
        <time>2020-06-27T18:20:21Z</time>
      </trkpt>
      <trkpt lat="49.03423" lon="7.94444">
        <ele>162.6</ele>
        <time>2020-06-27T18:20:22Z</time>
      </trkpt>
      <trkpt lat="49.03423" lon="7.94445">
        <ele>162.5</ele>
        <time>2020-06-27T18:20:23Z</time>
      </trkpt>
      <trkpt lat="49.03424" lon="7.94445">
        <ele>162.5</ele>
        <time>2020-06-27T18:20:24Z</time>
      </trkpt>
      <trkpt lat="49.03424" lon="7.94444">
        <ele>162.6</ele>
        <time>2020-06-27T18:20:25Z</time>
      </trkpt>
      <trkpt lat="49.03425" lon="7.94444">
        <ele>162.6</ele>
        <time>2020-06-27T18:20:26Z</time>
      </trkpt>
      <trkpt lat="49.03426" lon="7.94444">
        <ele>162.6</ele>
        <time>2020-06-27T18:20:27Z</time>
      </trkpt>
      <trkpt lat="49.03427" lon="7.94444">
        <ele>162.5</ele>
        <time>2020-06-27T18:20:28Z</time>
      </trkpt>
      <trkpt lat="49.03428" lon="7.94444">
        <ele>162.5</ele>
        <time>2020-06-27T18:20:29Z</time>
      </trkpt>
      <trkpt lat="49.03428" lon="7.94444">
        <ele>162.5</ele>
        <time>2020-06-27T18:20:30Z</time>
      </trkpt>
      <trkpt lat="49.0343" lon="7.94444">
        <ele>162.5</ele>
        <time>2020-06-27T18:20:31Z</time>
      </trkpt>
      <trkpt lat="49.0343" lon="7.94444">
        <ele>162.5</ele>
        <time>2020-06-27T18:20:32Z</time>
      </trkpt>
      <trkpt lat="49.03432" lon="7.94444">
        <ele>162.5</ele>
        <time>2020-06-27T18:20:33Z</time>
      </trkpt>
      <trkpt lat="49.03433" lon="7.94444">
        <ele>162.4</ele>
        <time>2020-06-27T18:20:34Z</time>
      </trkpt>
      <trkpt lat="49.03434" lon="7.94443">
        <ele>162.4</ele>
        <time>2020-06-27T18:20:35Z</time>
      </trkpt>
      <trkpt lat="49.03435" lon="7.94444">
        <ele>162.4</ele>
        <time>2020-06-27T18:20:36Z</time>
      </trkpt>
      <trkpt lat="49.03436" lon="7.94444">
        <ele>162.3</ele>
        <time>2020-06-27T18:20:37Z</time>
      </trkpt>
      <trkpt lat="49.03436" lon="7.94444">
        <ele>162.3</ele>
        <time>2020-06-27T18:20:38Z</time>
      </trkpt>
      <trkpt lat="49.03437" lon="7.94444">
        <ele>162.3</ele>
        <time>2020-06-27T18:20:39Z</time>
      </trkpt>
      <trkpt lat="49.03437" lon="7.94444">
        <ele>162.3</ele>
        <time>2020-06-27T18:20:40Z</time>
      </trkpt>
      <trkpt lat="49.03438" lon="7.94444">
        <ele>162.3</ele>
        <time>2020-06-27T18:20:41Z</time>
      </trkpt>
      <trkpt lat="49.03438" lon="7.94445">
        <ele>162.2</ele>
        <time>2020-06-27T18:20:42Z</time>
      </trkpt>
      <trkpt lat="49.03439" lon="7.94445">
        <ele>162.2</ele>
        <time>2020-06-27T18:20:43Z</time>
      </trkpt>
      <trkpt lat="49.03438" lon="7.94445">
        <ele>162.2</ele>
        <time>2020-06-27T18:20:44Z</time>
      </trkpt>
      <trkpt lat="49.03438" lon="7.94445">
        <ele>162.3</ele>
        <time>2020-06-27T18:20:45Z</time>
      </trkpt>
      <trkpt lat="49.03437" lon="7.94444">
        <ele>162.3</ele>
        <time>2020-06-27T18:20:46Z</time>
      </trkpt>
      <trkpt lat="49.03437" lon="7.94444">
        <ele>162.3</ele>
        <time>2020-06-27T18:20:47Z</time>
      </trkpt>
      <trkpt lat="49.03436" lon="7.94444">
        <ele>162.3</ele>
        <time>2020-06-27T18:20:48Z</time>
      </trkpt>
      <trkpt lat="49.03436" lon="7.94444">
        <ele>162.3</ele>
        <time>2020-06-27T18:20:49Z</time>
      </trkpt>
      <trkpt lat="49.03435" lon="7.94444">
        <ele>162.4</ele>
        <time>2020-06-27T18:20:50Z</time>
      </trkpt>
      <trkpt lat="49.03435" lon="7.94443">
        <ele>162.4</ele>
        <time>2020-06-27T18:20:51Z</time>
      </trkpt>
      <trkpt lat="49.03434" lon="7.94443">
        <ele>162.4</ele>
        <time>2020-06-27T18:20:52Z</time>
      </trkpt>
      <trkpt lat="49.03433" lon="7.94443">
        <ele>162.4</ele>
        <time>2020-06-27T18:20:53Z</time>
      </trkpt>
      <trkpt lat="49.03433" lon="7.94443">
        <ele>162.4</ele>
        <time>2020-06-27T18:22:51Z</time>
      </trkpt>
      <trkpt lat="49.03432" lon="7.94443">
        <ele>162.5</ele>
        <time>2020-06-27T18:22:52Z</time>
      </trkpt>
      <trkpt lat="49.03432" lon="7.94442">
        <ele>162.5</ele>
        <time>2020-06-27T18:22:53Z</time>
      </trkpt>
      <trkpt lat="49.03431" lon="7.94442">
        <ele>162.5</ele>
        <time>2020-06-27T18:22:54Z</time>
      </trkpt>
      <trkpt lat="49.03431" lon="7.94442">
        <ele>162.5</ele>
        <time>2020-06-27T18:22:55Z</time>
      </trkpt>
      <trkpt lat="49.0343" lon="7.94442">
        <ele>162.5</ele>
        <time>2020-06-27T18:22:56Z</time>
      </trkpt>
      <trkpt lat="49.03429" lon="7.94442">
        <ele>162.5</ele>
        <time>2020-06-27T18:22:57Z</time>
      </trkpt>
      <trkpt lat="49.03429" lon="7.94441">
        <ele>162.5</ele>
        <time>2020-06-27T18:22:58Z</time>
      </trkpt>
      <trkpt lat="49.03428" lon="7.94441">
        <ele>162.5</ele>
        <time>2020-06-27T18:22:59Z</time>
      </trkpt>
      <trkpt lat="49.03428" lon="7.94441">
        <ele>162.5</ele>
        <time>2020-06-27T18:23:00Z</time>
      </trkpt>
      <trkpt lat="49.03427" lon="7.94441">
        <ele>162.5</ele>
        <time>2020-06-27T18:23:01Z</time>
      </trkpt>
      <trkpt lat="49.03427" lon="7.94441">
        <ele>162.6</ele>
        <time>2020-06-27T18:23:02Z</time>
      </trkpt>
      <trkpt lat="49.03426" lon="7.9444">
        <ele>162.6</ele>
        <time>2020-06-27T18:23:03Z</time>
      </trkpt>
      <trkpt lat="49.03425" lon="7.9444">
        <ele>162.6</ele>
        <time>2020-06-27T18:23:04Z</time>
      </trkpt>
      <trkpt lat="49.03425" lon="7.9444">
        <ele>162.6</ele>
        <time>2020-06-27T18:23:05Z</time>
      </trkpt>
      <trkpt lat="49.03425" lon="7.9444">
        <ele>162.6</ele>
        <time>2020-06-27T18:23:06Z</time>
      </trkpt>
      <trkpt lat="49.03425" lon="7.9444">
        <ele>162.6</ele>
        <time>2020-06-27T18:23:07Z</time>
      </trkpt>
      <trkpt lat="49.034" lon="7.94466">
        <ele>162.3</ele>
        <time>2020-06-27T18:24:06Z</time>
      </trkpt>
      <trkpt lat="49.034" lon="7.94466">
        <ele>162.1</ele>
        <time>2020-06-27T18:24:07Z</time>
      </trkpt>
      <trkpt lat="49.034" lon="7.94467">
        <ele>162.1</ele>
        <time>2020-06-27T18:24:08Z</time>
      </trkpt>
      <trkpt lat="49.034" lon="7.94467">
        <ele>162.1</ele>
        <time>2020-06-27T18:24:09Z</time>
      </trkpt>
      <trkpt lat="49.034" lon="7.94467">
        <ele>162.1</ele>
        <time>2020-06-27T18:24:10Z</time>
      </trkpt>
      <trkpt lat="49.034" lon="7.94468">
        <ele>162.1</ele>
        <time>2020-06-27T18:24:11Z</time>
      </trkpt>
      <trkpt lat="49.034" lon="7.94468">
        <ele>162.1</ele>
        <time>2020-06-27T18:24:12Z</time>
      </trkpt>
      <trkpt lat="49.034" lon="7.94468">
        <ele>162.1</ele>
        <time>2020-06-27T18:24:13Z</time>
      </trkpt>
      <trkpt lat="49.034" lon="7.94467">
        <ele>162.1</ele>
        <time>2020-06-27T18:24:14Z</time>
      </trkpt>
      <trkpt lat="49.034" lon="7.94467">
        <ele>162.1</ele>
        <time>2020-06-27T18:24:15Z</time>
      </trkpt>
      <trkpt lat="49.034" lon="7.94467">
        <ele>162.1</ele>
        <time>2020-06-27T18:24:16Z</time>
      </trkpt>
      <trkpt lat="49.034" lon="7.94468">
        <ele>162.1</ele>
        <time>2020-06-27T18:24:17Z</time>
      </trkpt>
      <trkpt lat="49.034" lon="7.94468">
        <ele>162.1</ele>
        <time>2020-06-27T18:24:18Z</time>
      </trkpt>
      <trkpt lat="49.034" lon="7.94468">
        <ele>162.1</ele>
        <time>2020-06-27T18:24:19Z</time>
      </trkpt>
      <trkpt lat="49.034" lon="7.94469">
        <ele>162.1</ele>
        <time>2020-06-27T18:24:20Z</time>
      </trkpt>
      <trkpt lat="49.034" lon="7.94469">
        <ele>162.1</ele>
        <time>2020-06-27T18:24:21Z</time>
      </trkpt>
      <trkpt lat="49.034" lon="7.9447">
        <ele>162.1</ele>
        <time>2020-06-27T18:24:22Z</time>
      </trkpt>
      <trkpt lat="49.034" lon="7.9447">
        <ele>162.1</ele>
        <time>2020-06-27T18:24:23Z</time>
      </trkpt>
      <trkpt lat="49.034" lon="7.94471">
        <ele>161.9</ele>
        <time>2020-06-27T18:24:24Z</time>
      </trkpt>
      <trkpt lat="49.034" lon="7.94471">
        <ele>161.9</ele>
        <time>2020-06-27T18:24:25Z</time>
      </trkpt>
      <trkpt lat="49.034" lon="7.94472">
        <ele>161.9</ele>
        <time>2020-06-27T18:24:26Z</time>
      </trkpt>
      <trkpt lat="49.034" lon="7.94473">
        <ele>161.9</ele>
        <time>2020-06-27T18:24:27Z</time>
      </trkpt>
      <trkpt lat="49.03401" lon="7.94474">
        <ele>161.9</ele>
        <time>2020-06-27T18:24:28Z</time>
      </trkpt>
      <trkpt lat="49.03401" lon="7.94475">
        <ele>161.9</ele>
        <time>2020-06-27T18:24:29Z</time>
      </trkpt>
      <trkpt lat="49.03401" lon="7.94476">
        <ele>161.7</ele>
        <time>2020-06-27T18:24:30Z</time>
      </trkpt>
      <trkpt lat="49.03402" lon="7.94477">
        <ele>161.7</ele>
        <time>2020-06-27T18:24:31Z</time>
      </trkpt>
      <trkpt lat="49.03402" lon="7.94478">
        <ele>161.7</ele>
        <time>2020-06-27T18:24:32Z</time>
      </trkpt>
      <trkpt lat="49.03402" lon="7.94479">
        <ele>161.7</ele>
        <time>2020-06-27T18:24:33Z</time>
      </trkpt>
      <trkpt lat="49.03402" lon="7.94479">
        <ele>161.4</ele>
        <time>2020-06-27T18:24:34Z</time>
      </trkpt>
      <trkpt lat="49.03402" lon="7.9448">
        <ele>161.4</ele>
        <time>2020-06-27T18:24:35Z</time>
      </trkpt>
      <trkpt lat="49.03403" lon="7.94482">
        <ele>161.4</ele>
        <time>2020-06-27T18:24:36Z</time>
      </trkpt>
      <trkpt lat="49.03403" lon="7.94483">
        <ele>161.4</ele>
        <time>2020-06-27T18:24:37Z</time>
      </trkpt>
      <trkpt lat="49.03403" lon="7.94485">
        <ele>161.2</ele>
        <time>2020-06-27T18:24:38Z</time>
      </trkpt>
      <trkpt lat="49.03403" lon="7.94487">
        <ele>161.2</ele>
        <time>2020-06-27T18:24:39Z</time>
      </trkpt>
      <trkpt lat="49.03404" lon="7.94488">
        <ele>160.9</ele>
        <time>2020-06-27T18:24:40Z</time>
      </trkpt>
      <trkpt lat="49.03404" lon="7.9449">
        <ele>160.9</ele>
        <time>2020-06-27T18:24:41Z</time>
      </trkpt>
      <trkpt lat="49.03404" lon="7.94491">
        <ele>160.9</ele>
        <time>2020-06-27T18:24:42Z</time>
      </trkpt>
      <trkpt lat="49.03405" lon="7.94492">
        <ele>160.5</ele>
        <time>2020-06-27T18:24:43Z</time>
      </trkpt>
      <trkpt lat="49.03405" lon="7.94493">
        <ele>160.5</ele>
        <time>2020-06-27T18:24:44Z</time>
      </trkpt>
      <trkpt lat="49.03405" lon="7.94494">
        <ele>160.5</ele>
        <time>2020-06-27T18:24:45Z</time>
      </trkpt>
      <trkpt lat="49.03406" lon="7.94494">
        <ele>160.5</ele>
        <time>2020-06-27T18:24:46Z</time>
      </trkpt>
      <trkpt lat="49.03406" lon="7.94494">
        <ele>160.5</ele>
        <time>2020-06-27T18:24:47Z</time>
      </trkpt>
      <trkpt lat="49.03406" lon="7.94494">
        <ele>160.5</ele>
        <time>2020-06-27T18:24:48Z</time>
      </trkpt>
      <trkpt lat="49.03406" lon="7.94494">
        <ele>160.5</ele>
        <time>2020-06-27T18:24:49Z</time>
      </trkpt>
      <trkpt lat="49.03406" lon="7.94494">
        <ele>160.5</ele>
        <time>2020-06-27T18:24:50Z</time>
      </trkpt>
      <trkpt lat="49.03406" lon="7.94494">
        <ele>160.5</ele>
        <time>2020-06-27T18:24:51Z</time>
      </trkpt>
      <trkpt lat="49.03406" lon="7.94495">
        <ele>160.5</ele>
        <time>2020-06-27T18:24:52Z</time>
      </trkpt>
      <trkpt lat="49.03406" lon="7.94495">
        <ele>160.5</ele>
        <time>2020-06-27T18:24:53Z</time>
      </trkpt>
      <trkpt lat="49.03406" lon="7.94495">
        <ele>160.5</ele>
        <time>2020-06-27T18:24:54Z</time>
      </trkpt>
      <trkpt lat="49.03406" lon="7.94495">
        <ele>160.5</ele>
        <time>2020-06-27T18:24:55Z</time>
      </trkpt>
      <trkpt lat="49.03406" lon="7.94495">
        <ele>160.5</ele>
        <time>2020-06-27T18:24:56Z</time>
      </trkpt>
      <trkpt lat="49.03406" lon="7.94495">
        <ele>160.5</ele>
        <time>2020-06-27T18:24:57Z</time>
      </trkpt>
      <trkpt lat="49.03406" lon="7.94495">
        <ele>160.5</ele>
        <time>2020-06-27T18:24:58Z</time>
      </trkpt>
      <trkpt lat="49.03406" lon="7.94495">
        <ele>160.5</ele>
        <time>2020-06-27T18:24:59Z</time>
      </trkpt>
      <trkpt lat="49.03407" lon="7.94495">
        <ele>160.5</ele>
        <time>2020-06-27T18:25:00Z</time>
      </trkpt>
      <trkpt lat="49.03407" lon="7.94502">
        <ele>159.9</ele>
        <time>2020-06-27T18:25:06Z</time>
      </trkpt>
      <trkpt lat="49.03407" lon="7.94504">
        <ele>159.9</ele>
        <time>2020-06-27T18:25:07Z</time>
      </trkpt>
      <trkpt lat="49.03407" lon="7.94504">
        <ele>159.9</ele>
        <time>2020-06-27T18:25:08Z</time>
      </trkpt>
      <trkpt lat="49.03406" lon="7.94505">
        <ele>159.7</ele>
        <time>2020-06-27T18:25:09Z</time>
      </trkpt>
      <trkpt lat="49.03406" lon="7.94506">
        <ele>159.7</ele>
        <time>2020-06-27T18:25:10Z</time>
      </trkpt>
      <trkpt lat="49.03406" lon="7.94507">
        <ele>159.7</ele>
        <time>2020-06-27T18:25:11Z</time>
      </trkpt>
      <trkpt lat="49.03406" lon="7.94508">
        <ele>159.7</ele>
        <time>2020-06-27T18:25:12Z</time>
      </trkpt>
      <trkpt lat="49.03405" lon="7.94509">
        <ele>159.4</ele>
        <time>2020-06-27T18:25:13Z</time>
      </trkpt>
      <trkpt lat="49.03405" lon="7.9451">
        <ele>159.4</ele>
        <time>2020-06-27T18:25:14Z</time>
      </trkpt>
      <trkpt lat="49.03405" lon="7.94511">
        <ele>159.4</ele>
        <time>2020-06-27T18:25:15Z</time>
      </trkpt>
      <trkpt lat="49.03405" lon="7.94513">
        <ele>159.4</ele>
        <time>2020-06-27T18:25:16Z</time>
      </trkpt>
      <trkpt lat="49.03404" lon="7.94514">
        <ele>159.3</ele>
        <time>2020-06-27T18:25:17Z</time>
      </trkpt>
      <trkpt lat="49.03404" lon="7.94515">
        <ele>159.3</ele>
        <time>2020-06-27T18:25:18Z</time>
      </trkpt>
      <trkpt lat="49.03404" lon="7.94516">
        <ele>159.3</ele>
        <time>2020-06-27T18:25:44Z</time>
      </trkpt>
      <trkpt lat="49.03404" lon="7.94517">
        <ele>159.3</ele>
        <time>2020-06-27T18:25:45Z</time>
      </trkpt>
      <trkpt lat="49.03403" lon="7.94518">
        <ele>159.2</ele>
        <time>2020-06-27T18:25:46Z</time>
      </trkpt>
      <trkpt lat="49.03403" lon="7.94519">
        <ele>159.2</ele>
        <time>2020-06-27T18:25:47Z</time>
      </trkpt>
      <trkpt lat="49.03403" lon="7.9452">
        <ele>159.2</ele>
        <time>2020-06-27T18:25:48Z</time>
      </trkpt>
      <trkpt lat="49.03403" lon="7.94521">
        <ele>159.2</ele>
        <time>2020-06-27T18:25:49Z</time>
      </trkpt>
      <trkpt lat="49.03402" lon="7.94522">
        <ele>159.1</ele>
        <time>2020-06-27T18:25:50Z</time>
      </trkpt>
      <trkpt lat="49.03402" lon="7.94522">
        <ele>159.1</ele>
        <time>2020-06-27T18:25:51Z</time>
      </trkpt>
      <trkpt lat="49.03401" lon="7.94523">
        <ele>159.1</ele>
        <time>2020-06-27T18:25:52Z</time>
      </trkpt>
      <trkpt lat="49.03401" lon="7.94525">
        <ele>159.1</ele>
        <time>2020-06-27T18:25:53Z</time>
      </trkpt>
      <trkpt lat="49.03401" lon="7.94527">
        <ele>159.1</ele>
        <time>2020-06-27T18:25:54Z</time>
      </trkpt>
      <trkpt lat="49.03401" lon="7.94527">
        <ele>159.1</ele>
        <time>2020-06-27T18:25:55Z</time>
      </trkpt>
      <trkpt lat="49.03401" lon="7.94526">
        <ele>159.1</ele>
        <time>2020-06-27T18:25:56Z</time>
      </trkpt>
      <trkpt lat="49.034" lon="7.94524">
        <ele>159.1</ele>
        <time>2020-06-27T18:25:57Z</time>
      </trkpt>
      <trkpt lat="49.034" lon="7.94522">
        <ele>159.1</ele>
        <time>2020-06-27T18:25:58Z</time>
      </trkpt>
      <trkpt lat="49.03403" lon="7.94514">
        <ele>159.3</ele>
        <time>2020-06-27T18:25:59Z</time>
      </trkpt>
      <trkpt lat="49.03403" lon="7.94507">
        <ele>159.7</ele>
        <time>2020-06-27T18:26:00Z</time>
      </trkpt>
      <trkpt lat="49.03404" lon="7.94506">
        <ele>159.7</ele>
        <time>2020-06-27T18:26:01Z</time>
      </trkpt>
      <trkpt lat="49.03405" lon="7.94503">
        <ele>159.9</ele>
        <time>2020-06-27T18:26:02Z</time>
      </trkpt>
      <trkpt lat="49.03406" lon="7.94502">
        <ele>159.9</ele>
        <time>2020-06-27T18:26:03Z</time>
      </trkpt>
      <trkpt lat="49.03406" lon="7.94502">
        <ele>159.9</ele>
        <time>2020-06-27T18:26:04Z</time>
      </trkpt>
      <trkpt lat="49.03407" lon="7.94503">
        <ele>159.9</ele>
        <time>2020-06-27T18:26:05Z</time>
      </trkpt>
      <trkpt lat="49.03408" lon="7.94503">
        <ele>159.9</ele>
        <time>2020-06-27T18:26:06Z</time>
      </trkpt>
      <trkpt lat="49.03408" lon="7.94503">
        <ele>159.9</ele>
        <time>2020-06-27T18:26:07Z</time>
      </trkpt>
      <trkpt lat="49.03409" lon="7.94502">
        <ele>159.9</ele>
        <time>2020-06-27T18:26:08Z</time>
      </trkpt>
      <trkpt lat="49.03408" lon="7.94491">
        <ele>160.8</ele>
        <time>2020-06-27T18:26:21Z</time>
      </trkpt>
      <trkpt lat="49.03408" lon="7.94491">
        <ele>160.8</ele>
        <time>2020-06-27T18:26:22Z</time>
      </trkpt>
      <trkpt lat="49.03408" lon="7.9449">
        <ele>160.8</ele>
        <time>2020-06-27T18:26:23Z</time>
      </trkpt>
      <trkpt lat="49.03408" lon="7.9449">
        <ele>160.8</ele>
        <time>2020-06-27T18:26:24Z</time>
      </trkpt>
      <trkpt lat="49.03407" lon="7.9449">
        <ele>160.8</ele>
        <time>2020-06-27T18:26:25Z</time>
      </trkpt>
      <trkpt lat="49.03408" lon="7.94489">
        <ele>160.8</ele>
        <time>2020-06-27T18:26:26Z</time>
      </trkpt>
      <trkpt lat="49.03408" lon="7.94487">
        <ele>161.1</ele>
        <time>2020-06-27T18:26:27Z</time>
      </trkpt>
      <trkpt lat="49.03408" lon="7.94487">
        <ele>161.1</ele>
        <time>2020-06-27T18:26:28Z</time>
      </trkpt>
      <trkpt lat="49.03409" lon="7.94486">
        <ele>161.1</ele>
        <time>2020-06-27T18:26:29Z</time>
      </trkpt>
      <trkpt lat="49.0341" lon="7.94485">
        <ele>161.1</ele>
        <time>2020-06-27T18:26:30Z</time>
      </trkpt>
      <trkpt lat="49.0341" lon="7.94485">
        <ele>161.1</ele>
        <time>2020-06-27T18:26:31Z</time>
      </trkpt>
      <trkpt lat="49.03412" lon="7.94484">
        <ele>161.1</ele>
        <time>2020-06-27T18:26:32Z</time>
      </trkpt>
      <trkpt lat="49.03413" lon="7.94482">
        <ele>161.3</ele>
        <time>2020-06-27T18:26:33Z</time>
      </trkpt>
      <trkpt lat="49.03414" lon="7.94481">
        <ele>161.3</ele>
        <time>2020-06-27T18:26:34Z</time>
      </trkpt>
      <trkpt lat="49.03414" lon="7.9448">
        <ele>161.3</ele>
        <time>2020-06-27T18:26:35Z</time>
      </trkpt>
      <trkpt lat="49.03415" lon="7.94479">
        <ele>161.3</ele>
        <time>2020-06-27T18:26:36Z</time>
      </trkpt>
      <trkpt lat="49.03415" lon="7.94478">
        <ele>161.6</ele>
        <time>2020-06-27T18:26:37Z</time>
      </trkpt>
      <trkpt lat="49.03416" lon="7.94477">
        <ele>161.5</ele>
        <time>2020-06-27T18:26:38Z</time>
      </trkpt>
      <trkpt lat="49.03416" lon="7.94477">
        <ele>161.5</ele>
        <time>2020-06-27T18:26:39Z</time>
      </trkpt>
      <trkpt lat="49.03416" lon="7.94476">
        <ele>161.5</ele>
        <time>2020-06-27T18:26:40Z</time>
      </trkpt>
      <trkpt lat="49.03416" lon="7.94476">
        <ele>161.5</ele>
        <time>2020-06-27T18:26:41Z</time>
      </trkpt>
      <trkpt lat="49.03416" lon="7.94476">
        <ele>161.5</ele>
        <time>2020-06-27T18:26:42Z</time>
      </trkpt>
      <trkpt lat="49.03416" lon="7.94477">
        <ele>161.5</ele>
        <time>2020-06-27T18:26:43Z</time>
      </trkpt>
      <trkpt lat="49.03416" lon="7.94476">
        <ele>161.5</ele>
        <time>2020-06-27T18:26:44Z</time>
      </trkpt>
      <trkpt lat="49.03415" lon="7.94476">
        <ele>161.6</ele>
        <time>2020-06-27T18:26:45Z</time>
      </trkpt>
      <trkpt lat="49.03415" lon="7.94476">
        <ele>161.6</ele>
        <time>2020-06-27T18:26:46Z</time>
      </trkpt>
      <trkpt lat="49.03415" lon="7.94477">
        <ele>161.6</ele>
        <time>2020-06-27T18:26:47Z</time>
      </trkpt>
      <trkpt lat="49.03415" lon="7.94477">
        <ele>161.6</ele>
        <time>2020-06-27T18:26:48Z</time>
      </trkpt>
      <trkpt lat="49.03415" lon="7.94477">
        <ele>161.6</ele>
        <time>2020-06-27T18:26:49Z</time>
      </trkpt>
      <trkpt lat="49.03415" lon="7.94476">
        <ele>161.6</ele>
        <time>2020-06-27T18:26:50Z</time>
      </trkpt>
      <trkpt lat="49.03415" lon="7.94476">
        <ele>161.6</ele>
        <time>2020-06-27T18:26:51Z</time>
      </trkpt>
      <trkpt lat="49.03415" lon="7.94476">
        <ele>161.6</ele>
        <time>2020-06-27T18:26:52Z</time>
      </trkpt>
      <trkpt lat="49.03415" lon="7.94477">
        <ele>161.6</ele>
        <time>2020-06-27T18:26:53Z</time>
      </trkpt>
      <trkpt lat="49.03416" lon="7.94476">
        <ele>161.5</ele>
        <time>2020-06-27T18:26:54Z</time>
      </trkpt>
      <trkpt lat="49.03416" lon="7.94476">
        <ele>161.5</ele>
        <time>2020-06-27T18:26:55Z</time>
      </trkpt>
      <trkpt lat="49.03417" lon="7.94476">
        <ele>161.5</ele>
        <time>2020-06-27T18:26:56Z</time>
      </trkpt>
      <trkpt lat="49.03418" lon="7.94477">
        <ele>161.5</ele>
        <time>2020-06-27T18:26:57Z</time>
      </trkpt>
      <trkpt lat="49.03418" lon="7.94477">
        <ele>161.5</ele>
        <time>2020-06-27T18:26:58Z</time>
      </trkpt>
      <trkpt lat="49.03419" lon="7.94477">
        <ele>161.5</ele>
        <time>2020-06-27T18:26:59Z</time>
      </trkpt>
      <trkpt lat="49.03419" lon="7.94476">
        <ele>161.5</ele>
        <time>2020-06-27T18:27:00Z</time>
      </trkpt>
      <trkpt lat="49.0342" lon="7.94476">
        <ele>161.5</ele>
        <time>2020-06-27T18:27:01Z</time>
      </trkpt>
      <trkpt lat="49.0342" lon="7.94476">
        <ele>161.5</ele>
        <time>2020-06-27T18:27:02Z</time>
      </trkpt>
      <trkpt lat="49.0342" lon="7.94476">
        <ele>161.5</ele>
        <time>2020-06-27T18:27:03Z</time>
      </trkpt>
      <trkpt lat="49.0342" lon="7.94476">
        <ele>161.5</ele>
        <time>2020-06-27T18:27:04Z</time>
      </trkpt>
      <trkpt lat="49.0342" lon="7.94476">
        <ele>161.5</ele>
        <time>2020-06-27T18:27:05Z</time>
      </trkpt>
      <trkpt lat="49.0342" lon="7.94476">
        <ele>161.5</ele>
        <time>2020-06-27T18:27:06Z</time>
      </trkpt>
      <trkpt lat="49.03422" lon="7.94475">
        <ele>161.4</ele>
        <time>2020-06-27T18:27:07Z</time>
      </trkpt>
      <trkpt lat="49.03422" lon="7.94476">
        <ele>161.4</ele>
        <time>2020-06-27T18:27:08Z</time>
      </trkpt>
      <trkpt lat="49.03422" lon="7.94476">
        <ele>161.4</ele>
        <time>2020-06-27T18:27:09Z</time>
      </trkpt>
      <trkpt lat="49.03422" lon="7.94476">
        <ele>161.4</ele>
        <time>2020-06-27T18:27:10Z</time>
      </trkpt>
      <trkpt lat="49.03422" lon="7.94476">
        <ele>161.4</ele>
        <time>2020-06-27T18:27:11Z</time>
      </trkpt>
      <trkpt lat="49.03423" lon="7.94475">
        <ele>161.4</ele>
        <time>2020-06-27T18:27:12Z</time>
      </trkpt>
      <trkpt lat="49.03424" lon="7.94474">
        <ele>161.6</ele>
        <time>2020-06-27T18:27:13Z</time>
      </trkpt>
      <trkpt lat="49.03425" lon="7.94474">
        <ele>161.6</ele>
        <time>2020-06-27T18:27:14Z</time>
      </trkpt>
      <trkpt lat="49.03424" lon="7.94474">
        <ele>161.6</ele>
        <time>2020-06-27T18:27:15Z</time>
      </trkpt>
      <trkpt lat="49.03424" lon="7.94474">
        <ele>161.6</ele>
        <time>2020-06-27T18:27:16Z</time>
      </trkpt>
      <trkpt lat="49.03425" lon="7.94474">
        <ele>161.6</ele>
        <time>2020-06-27T18:27:17Z</time>
      </trkpt>
      <trkpt lat="49.03425" lon="7.94474">
        <ele>161.6</ele>
        <time>2020-06-27T18:27:18Z</time>
      </trkpt>
      <trkpt lat="49.03426" lon="7.94474">
        <ele>161.6</ele>
        <time>2020-06-27T18:27:19Z</time>
      </trkpt>
      <trkpt lat="49.03426" lon="7.94473">
        <ele>161.6</ele>
        <time>2020-06-27T18:27:20Z</time>
      </trkpt>
      <trkpt lat="49.03426" lon="7.94473">
        <ele>161.6</ele>
        <time>2020-06-27T18:27:21Z</time>
      </trkpt>
      <trkpt lat="49.03426" lon="7.94473">
        <ele>161.6</ele>
        <time>2020-06-27T18:27:22Z</time>
      </trkpt>
      <trkpt lat="49.03426" lon="7.94473">
        <ele>161.6</ele>
        <time>2020-06-27T18:27:23Z</time>
      </trkpt>
      <trkpt lat="49.03426" lon="7.94474">
        <ele>161.6</ele>
        <time>2020-06-27T18:27:24Z</time>
      </trkpt>
      <trkpt lat="49.03425" lon="7.94474">
        <ele>161.6</ele>
        <time>2020-06-27T18:27:25Z</time>
      </trkpt>
      <trkpt lat="49.03424" lon="7.94474">
        <ele>161.6</ele>
        <time>2020-06-27T18:27:26Z</time>
      </trkpt>
      <trkpt lat="49.03424" lon="7.94474">
        <ele>161.6</ele>
        <time>2020-06-27T18:27:27Z</time>
      </trkpt>
      <trkpt lat="49.03424" lon="7.94474">
        <ele>161.6</ele>
        <time>2020-06-27T18:27:28Z</time>
      </trkpt>
      <trkpt lat="49.03424" lon="7.94474">
        <ele>161.7</ele>
        <time>2020-06-27T18:27:29Z</time>
      </trkpt>
      <trkpt lat="49.03424" lon="7.94473">
        <ele>161.7</ele>
        <time>2020-06-27T18:27:30Z</time>
      </trkpt>
      <trkpt lat="49.03424" lon="7.94473">
        <ele>161.6</ele>
        <time>2020-06-27T18:27:31Z</time>
      </trkpt>
      <trkpt lat="49.03425" lon="7.94472">
        <ele>161.6</ele>
        <time>2020-06-27T18:27:32Z</time>
      </trkpt>
      <trkpt lat="49.03425" lon="7.94472">
        <ele>161.6</ele>
        <time>2020-06-27T18:27:33Z</time>
      </trkpt>
      <trkpt lat="49.03425" lon="7.94472">
        <ele>161.6</ele>
        <time>2020-06-27T18:27:34Z</time>
      </trkpt>
      <trkpt lat="49.03425" lon="7.94472">
        <ele>161.6</ele>
        <time>2020-06-27T18:27:35Z</time>
      </trkpt>
      <trkpt lat="49.03425" lon="7.94472">
        <ele>161.6</ele>
        <time>2020-06-27T18:27:36Z</time>
      </trkpt>
      <trkpt lat="49.03425" lon="7.94472">
        <ele>161.6</ele>
        <time>2020-06-27T18:27:37Z</time>
      </trkpt>
      <trkpt lat="49.03425" lon="7.94472">
        <ele>161.6</ele>
        <time>2020-06-27T18:27:38Z</time>
      </trkpt>
      <trkpt lat="49.03426" lon="7.94473">
        <ele>161.6</ele>
        <time>2020-06-27T18:27:39Z</time>
      </trkpt>
      <trkpt lat="49.03426" lon="7.94473">
        <ele>161.6</ele>
        <time>2020-06-27T18:27:40Z</time>
      </trkpt>
      <trkpt lat="49.03426" lon="7.94473">
        <ele>161.6</ele>
        <time>2020-06-27T18:27:41Z</time>
      </trkpt>
      <trkpt lat="49.03426" lon="7.94473">
        <ele>161.6</ele>
        <time>2020-06-27T18:27:42Z</time>
      </trkpt>
      <trkpt lat="49.03427" lon="7.94472">
        <ele>161.6</ele>
        <time>2020-06-27T18:27:43Z</time>
      </trkpt>
      <trkpt lat="49.03427" lon="7.94473">
        <ele>161.6</ele>
        <time>2020-06-27T18:27:44Z</time>
      </trkpt>
      <trkpt lat="49.03428" lon="7.94473">
        <ele>161.6</ele>
        <time>2020-06-27T18:27:45Z</time>
      </trkpt>
      <trkpt lat="49.03429" lon="7.94473">
        <ele>161.6</ele>
        <time>2020-06-27T18:27:46Z</time>
      </trkpt>
      <trkpt lat="49.0343" lon="7.94473">
        <ele>161.5</ele>
        <time>2020-06-27T18:27:47Z</time>
      </trkpt>
      <trkpt lat="49.0343" lon="7.94473">
        <ele>161.5</ele>
        <time>2020-06-27T18:27:48Z</time>
      </trkpt>
      <trkpt lat="49.03431" lon="7.94473">
        <ele>161.5</ele>
        <time>2020-06-27T18:27:49Z</time>
      </trkpt>
      <trkpt lat="49.03431" lon="7.94473">
        <ele>161.5</ele>
        <time>2020-06-27T18:27:50Z</time>
      </trkpt>
      <trkpt lat="49.03432" lon="7.94473">
        <ele>161.5</ele>
        <time>2020-06-27T18:27:51Z</time>
      </trkpt>
      <trkpt lat="49.03433" lon="7.94473">
        <ele>161.5</ele>
        <time>2020-06-27T18:27:52Z</time>
      </trkpt>
      <trkpt lat="49.03433" lon="7.94473">
        <ele>161.5</ele>
        <time>2020-06-27T18:27:53Z</time>
      </trkpt>
      <trkpt lat="49.03434" lon="7.94473">
        <ele>161.5</ele>
        <time>2020-06-27T18:27:54Z</time>
      </trkpt>
      <trkpt lat="49.03434" lon="7.94473">
        <ele>161.5</ele>
        <time>2020-06-27T18:27:55Z</time>
      </trkpt>
      <trkpt lat="49.03435" lon="7.94473">
        <ele>161.5</ele>
        <time>2020-06-27T18:27:56Z</time>
      </trkpt>
      <trkpt lat="49.03435" lon="7.94474">
        <ele>161.5</ele>
        <time>2020-06-27T18:27:57Z</time>
      </trkpt>
      <trkpt lat="49.03436" lon="7.94474">
        <ele>161.4</ele>
        <time>2020-06-27T18:27:58Z</time>
      </trkpt>
      <trkpt lat="49.03436" lon="7.94474">
        <ele>161.4</ele>
        <time>2020-06-27T18:27:59Z</time>
      </trkpt>
      <trkpt lat="49.03437" lon="7.94474">
        <ele>161.4</ele>
        <time>2020-06-27T18:28:00Z</time>
      </trkpt>
      <trkpt lat="49.03437" lon="7.94474">
        <ele>161.4</ele>
        <time>2020-06-27T18:28:01Z</time>
      </trkpt>
      <trkpt lat="49.03438" lon="7.94474">
        <ele>161.4</ele>
        <time>2020-06-27T18:28:02Z</time>
      </trkpt>
      <trkpt lat="49.03438" lon="7.94474">
        <ele>161.4</ele>
        <time>2020-06-27T18:28:03Z</time>
      </trkpt>
      <trkpt lat="49.03438" lon="7.94474">
        <ele>161.4</ele>
        <time>2020-06-27T18:28:04Z</time>
      </trkpt>
      <trkpt lat="49.03438" lon="7.94474">
        <ele>161.4</ele>
        <time>2020-06-27T18:28:05Z</time>
      </trkpt>
      <trkpt lat="49.03438" lon="7.94474">
        <ele>161.4</ele>
        <time>2020-06-27T18:28:06Z</time>
      </trkpt>
      <trkpt lat="49.03439" lon="7.94474">
        <ele>161.4</ele>
        <time>2020-06-27T18:28:07Z</time>
      </trkpt>
      <trkpt lat="49.03439" lon="7.94473">
        <ele>161.4</ele>
        <time>2020-06-27T18:28:08Z</time>
      </trkpt>
      <trkpt lat="49.0344" lon="7.94473">
        <ele>161.4</ele>
        <time>2020-06-27T18:28:09Z</time>
      </trkpt>
      <trkpt lat="49.0344" lon="7.94473">
        <ele>161.4</ele>
        <time>2020-06-27T18:28:10Z</time>
      </trkpt>
      <trkpt lat="49.03439" lon="7.94473">
        <ele>161.4</ele>
        <time>2020-06-27T18:28:11Z</time>
      </trkpt>
      <trkpt lat="49.03439" lon="7.94473">
        <ele>161.4</ele>
        <time>2020-06-27T18:28:12Z</time>
      </trkpt>
      <trkpt lat="49.03438" lon="7.94473">
        <ele>161.4</ele>
        <time>2020-06-27T18:28:13Z</time>
      </trkpt>
      <trkpt lat="49.03438" lon="7.94473">
        <ele>161.4</ele>
        <time>2020-06-27T18:28:14Z</time>
      </trkpt>
      <trkpt lat="49.03437" lon="7.94473">
        <ele>161.4</ele>
        <time>2020-06-27T18:28:15Z</time>
      </trkpt>
      <trkpt lat="49.03437" lon="7.94472">
        <ele>161.4</ele>
        <time>2020-06-27T18:28:16Z</time>
      </trkpt>
      <trkpt lat="49.03436" lon="7.94472">
        <ele>161.4</ele>
        <time>2020-06-27T18:28:17Z</time>
      </trkpt>
      <trkpt lat="49.03436" lon="7.94472">
        <ele>161.4</ele>
        <time>2020-06-27T18:28:18Z</time>
      </trkpt>
      <trkpt lat="49.03436" lon="7.94471">
        <ele>161.4</ele>
        <time>2020-06-27T18:28:19Z</time>
      </trkpt>
      <trkpt lat="49.03435" lon="7.94471">
        <ele>161.4</ele>
        <time>2020-06-27T18:28:20Z</time>
      </trkpt>
      <trkpt lat="49.03435" lon="7.9447">
        <ele>161.7</ele>
        <time>2020-06-27T18:28:21Z</time>
      </trkpt>
      <trkpt lat="49.03437" lon="7.94474">
        <ele>161.4</ele>
        <time>2020-06-27T18:28:44Z</time>
      </trkpt>
      <trkpt lat="49.03438" lon="7.94474">
        <ele>161.4</ele>
        <time>2020-06-27T18:28:45Z</time>
      </trkpt>
      <trkpt lat="49.03438" lon="7.94475">
        <ele>161.2</ele>
        <time>2020-06-27T18:28:46Z</time>
      </trkpt>
      <trkpt lat="49.03439" lon="7.94475">
        <ele>161.2</ele>
        <time>2020-06-27T18:28:47Z</time>
      </trkpt>
      <trkpt lat="49.03439" lon="7.94476">
        <ele>161.2</ele>
        <time>2020-06-27T18:28:48Z</time>
      </trkpt>
      <trkpt lat="49.0344" lon="7.94476">
        <ele>161.2</ele>
        <time>2020-06-27T18:28:49Z</time>
      </trkpt>
      <trkpt lat="49.0344" lon="7.94476">
        <ele>161.2</ele>
        <time>2020-06-27T18:28:50Z</time>
      </trkpt>
      <trkpt lat="49.0344" lon="7.94476">
        <ele>161.2</ele>
        <time>2020-06-27T18:28:51Z</time>
      </trkpt>
      <trkpt lat="49.0344" lon="7.94476">
        <ele>161.2</ele>
        <time>2020-06-27T18:28:52Z</time>
      </trkpt>
      <trkpt lat="49.03441" lon="7.94477">
        <ele>161.2</ele>
        <time>2020-06-27T18:28:53Z</time>
      </trkpt>
      <trkpt lat="49.03442" lon="7.94478">
        <ele>161.2</ele>
        <time>2020-06-27T18:28:54Z</time>
      </trkpt>
      <trkpt lat="49.03442" lon="7.9448">
        <ele>161</ele>
        <time>2020-06-27T18:28:55Z</time>
      </trkpt>
      <trkpt lat="49.03443" lon="7.9448">
        <ele>161</ele>
        <time>2020-06-27T18:28:56Z</time>
      </trkpt>
      <trkpt lat="49.03443" lon="7.94481">
        <ele>161</ele>
        <time>2020-06-27T18:28:57Z</time>
      </trkpt>
      <trkpt lat="49.03443" lon="7.94482">
        <ele>161</ele>
        <time>2020-06-27T18:28:58Z</time>
      </trkpt>
      <trkpt lat="49.03444" lon="7.94482">
        <ele>160.9</ele>
        <time>2020-06-27T18:28:59Z</time>
      </trkpt>
      <trkpt lat="49.03444" lon="7.94483">
        <ele>160.9</ele>
        <time>2020-06-27T18:29:00Z</time>
      </trkpt>
      <trkpt lat="49.03444" lon="7.94483">
        <ele>160.7</ele>
        <time>2020-06-27T18:29:01Z</time>
      </trkpt>
      <trkpt lat="49.03445" lon="7.94484">
        <ele>160.7</ele>
        <time>2020-06-27T18:29:02Z</time>
      </trkpt>
      <trkpt lat="49.03445" lon="7.94485">
        <ele>160.7</ele>
        <time>2020-06-27T18:29:03Z</time>
      </trkpt>
      <trkpt lat="49.03445" lon="7.94485">
        <ele>160.7</ele>
        <time>2020-06-27T18:29:04Z</time>
      </trkpt>
      <trkpt lat="49.03446" lon="7.94486">
        <ele>160.7</ele>
        <time>2020-06-27T18:29:05Z</time>
      </trkpt>
      <trkpt lat="49.03446" lon="7.94487">
        <ele>160.7</ele>
        <time>2020-06-27T18:29:06Z</time>
      </trkpt>
      <trkpt lat="49.03447" lon="7.94487">
        <ele>160.7</ele>
        <time>2020-06-27T18:29:07Z</time>
      </trkpt>
      <trkpt lat="49.03447" lon="7.94488">
        <ele>160.5</ele>
        <time>2020-06-27T18:29:08Z</time>
      </trkpt>
      <trkpt lat="49.03448" lon="7.94488">
        <ele>160.5</ele>
        <time>2020-06-27T18:29:09Z</time>
      </trkpt>
      <trkpt lat="49.03449" lon="7.94488">
        <ele>160.5</ele>
        <time>2020-06-27T18:29:10Z</time>
      </trkpt>
      <trkpt lat="49.03447" lon="7.94487">
        <ele>160.7</ele>
        <time>2020-06-27T18:29:11Z</time>
      </trkpt>
      <trkpt lat="49.03445" lon="7.94486">
        <ele>160.7</ele>
        <time>2020-06-27T18:29:12Z</time>
      </trkpt>
      <trkpt lat="49.03443" lon="7.94484">
        <ele>160.8</ele>
        <time>2020-06-27T18:29:13Z</time>
      </trkpt>
      <trkpt lat="49.03441" lon="7.94483">
        <ele>161</ele>
        <time>2020-06-27T18:29:14Z</time>
      </trkpt>
      <trkpt lat="49.03438" lon="7.94481">
        <ele>161</ele>
        <time>2020-06-27T18:29:15Z</time>
      </trkpt>
      <trkpt lat="49.03435" lon="7.94477">
        <ele>161.3</ele>
        <time>2020-06-27T18:29:16Z</time>
      </trkpt>
      <trkpt lat="49.03435" lon="7.94478">
        <ele>161.2</ele>
        <time>2020-06-27T18:29:17Z</time>
      </trkpt>
      <trkpt lat="49.03434" lon="7.94476">
        <ele>161.3</ele>
        <time>2020-06-27T18:29:18Z</time>
      </trkpt>
      <trkpt lat="49.03432" lon="7.94475">
        <ele>161.3</ele>
        <time>2020-06-27T18:29:19Z</time>
      </trkpt>
      <trkpt lat="49.03432" lon="7.94474">
        <ele>161.5</ele>
        <time>2020-06-27T18:29:20Z</time>
      </trkpt>
      <trkpt lat="49.03432" lon="7.94473">
        <ele>161.5</ele>
        <time>2020-06-27T18:29:21Z</time>
      </trkpt>
      <trkpt lat="49.03432" lon="7.94472">
        <ele>161.5</ele>
        <time>2020-06-27T18:29:22Z</time>
      </trkpt>
      <trkpt lat="49.03432" lon="7.94471">
        <ele>161.5</ele>
        <time>2020-06-27T18:29:23Z</time>
      </trkpt>
      <trkpt lat="49.03432" lon="7.9447">
        <ele>161.7</ele>
        <time>2020-06-27T18:29:24Z</time>
      </trkpt>
      <trkpt lat="49.03432" lon="7.94469">
        <ele>161.7</ele>
        <time>2020-06-27T18:29:25Z</time>
      </trkpt>
      <trkpt lat="49.03432" lon="7.94468">
        <ele>161.7</ele>
        <time>2020-06-27T18:29:26Z</time>
      </trkpt>
      <trkpt lat="49.03431" lon="7.94467">
        <ele>161.7</ele>
        <time>2020-06-27T18:29:27Z</time>
      </trkpt>
      <trkpt lat="49.03431" lon="7.94466">
        <ele>161.9</ele>
        <time>2020-06-27T18:29:28Z</time>
      </trkpt>
      <trkpt lat="49.03431" lon="7.94465">
        <ele>161.9</ele>
        <time>2020-06-27T18:29:29Z</time>
      </trkpt>
      <trkpt lat="49.03431" lon="7.94464">
        <ele>161.9</ele>
        <time>2020-06-27T18:29:30Z</time>
      </trkpt>
      <trkpt lat="49.03431" lon="7.94463">
        <ele>161.9</ele>
        <time>2020-06-27T18:29:31Z</time>
      </trkpt>
      <trkpt lat="49.03431" lon="7.94462">
        <ele>162</ele>
        <time>2020-06-27T18:29:32Z</time>
      </trkpt>
      <trkpt lat="49.03431" lon="7.94456">
        <ele>162.2</ele>
        <time>2020-06-27T18:29:33Z</time>
      </trkpt>
      <trkpt lat="49.03431" lon="7.94455">
        <ele>162.2</ele>
        <time>2020-06-27T18:29:34Z</time>
      </trkpt>
      <trkpt lat="49.03431" lon="7.94452">
        <ele>162.3</ele>
        <time>2020-06-27T18:29:35Z</time>
      </trkpt>
      <trkpt lat="49.0343" lon="7.9445">
        <ele>162.3</ele>
        <time>2020-06-27T18:29:36Z</time>
      </trkpt>
      <trkpt lat="49.0343" lon="7.9445">
        <ele>162.3</ele>
        <time>2020-06-27T18:29:37Z</time>
      </trkpt>
      <trkpt lat="49.03429" lon="7.94449">
        <ele>162.3</ele>
        <time>2020-06-27T18:29:38Z</time>
      </trkpt>
      <trkpt lat="49.03428" lon="7.94449">
        <ele>162.4</ele>
        <time>2020-06-27T18:29:39Z</time>
      </trkpt>
      <trkpt lat="49.03428" lon="7.94448">
        <ele>162.4</ele>
        <time>2020-06-27T18:29:40Z</time>
      </trkpt>
      <trkpt lat="49.03428" lon="7.94447">
        <ele>162.4</ele>
        <time>2020-06-27T18:29:41Z</time>
      </trkpt>
      <trkpt lat="49.03428" lon="7.94447">
        <ele>162.4</ele>
        <time>2020-06-27T18:29:42Z</time>
      </trkpt>
      <trkpt lat="49.03428" lon="7.94447">
        <ele>162.4</ele>
        <time>2020-06-27T18:29:43Z</time>
      </trkpt>
      <trkpt lat="49.03427" lon="7.94446">
        <ele>162.4</ele>
        <time>2020-06-27T18:29:44Z</time>
      </trkpt>
      <trkpt lat="49.03427" lon="7.94445">
        <ele>162.5</ele>
        <time>2020-06-27T18:29:45Z</time>
      </trkpt>
      <trkpt lat="49.03426" lon="7.94444">
        <ele>162.6</ele>
        <time>2020-06-27T18:29:46Z</time>
      </trkpt>
      <trkpt lat="49.03425" lon="7.94443">
        <ele>162.6</ele>
        <time>2020-06-27T18:29:47Z</time>
      </trkpt>
      <trkpt lat="49.03429" lon="7.94434">
        <ele>162.6</ele>
        <time>2020-06-27T18:31:03Z</time>
      </trkpt>
      <trkpt lat="49.03429" lon="7.94436">
        <ele>162.6</ele>
        <time>2020-06-27T18:31:04Z</time>
      </trkpt>
      <trkpt lat="49.03428" lon="7.94438">
        <ele>162.6</ele>
        <time>2020-06-27T18:31:05Z</time>
      </trkpt>
      <trkpt lat="49.03427" lon="7.94438">
        <ele>162.6</ele>
        <time>2020-06-27T18:31:06Z</time>
      </trkpt>
      <trkpt lat="49.03426" lon="7.94437">
        <ele>162.6</ele>
        <time>2020-06-27T18:31:07Z</time>
      </trkpt>
      <trkpt lat="49.03426" lon="7.94437">
        <ele>162.6</ele>
        <time>2020-06-27T18:31:08Z</time>
      </trkpt>
      <trkpt lat="49.03425" lon="7.94437">
        <ele>162.6</ele>
        <time>2020-06-27T18:31:09Z</time>
      </trkpt>
      <trkpt lat="49.03424" lon="7.94437">
        <ele>162.6</ele>
        <time>2020-06-27T18:31:10Z</time>
      </trkpt>
      <trkpt lat="49.03423" lon="7.94438">
        <ele>162.7</ele>
        <time>2020-06-27T18:31:11Z</time>
      </trkpt>
      <trkpt lat="49.03423" lon="7.94439">
        <ele>162.7</ele>
        <time>2020-06-27T18:31:12Z</time>
      </trkpt>
      <trkpt lat="49.03422" lon="7.94439">
        <ele>162.7</ele>
        <time>2020-06-27T18:31:13Z</time>
      </trkpt>
      <trkpt lat="49.03422" lon="7.94439">
        <ele>162.7</ele>
        <time>2020-06-27T18:31:14Z</time>
      </trkpt>
      <trkpt lat="49.03422" lon="7.94438">
        <ele>162.7</ele>
        <time>2020-06-27T18:31:15Z</time>
      </trkpt>
      <trkpt lat="49.03421" lon="7.94439">
        <ele>162.7</ele>
        <time>2020-06-27T18:31:16Z</time>
      </trkpt>
      <trkpt lat="49.03421" lon="7.94438">
        <ele>162.7</ele>
        <time>2020-06-27T18:31:17Z</time>
      </trkpt>
      <trkpt lat="49.03421" lon="7.94437">
        <ele>162.7</ele>
        <time>2020-06-27T18:31:18Z</time>
      </trkpt>
      <trkpt lat="49.03422" lon="7.94437">
        <ele>162.7</ele>
        <time>2020-06-27T18:31:19Z</time>
      </trkpt>
      <trkpt lat="49.03422" lon="7.94436">
        <ele>162.7</ele>
        <time>2020-06-27T18:31:20Z</time>
      </trkpt>
      <trkpt lat="49.03422" lon="7.94436">
        <ele>162.8</ele>
        <time>2020-06-27T18:31:21Z</time>
      </trkpt>
      <trkpt lat="49.03423" lon="7.94435">
        <ele>162.8</ele>
        <time>2020-06-27T18:31:22Z</time>
      </trkpt>
      <trkpt lat="49.03423" lon="7.94435">
        <ele>162.8</ele>
        <time>2020-06-27T18:31:23Z</time>
      </trkpt>
      <trkpt lat="49.03423" lon="7.94435">
        <ele>162.8</ele>
        <time>2020-06-27T18:31:24Z</time>
      </trkpt>
      <trkpt lat="49.03424" lon="7.94435">
        <ele>162.8</ele>
        <time>2020-06-27T18:31:25Z</time>
      </trkpt>
      <trkpt lat="49.03424" lon="7.94435">
        <ele>162.8</ele>
        <time>2020-06-27T18:31:26Z</time>
      </trkpt>
      <trkpt lat="49.03424" lon="7.94434">
        <ele>162.7</ele>
        <time>2020-06-27T18:31:27Z</time>
      </trkpt>
      <trkpt lat="49.03424" lon="7.94433">
        <ele>162.7</ele>
        <time>2020-06-27T18:31:28Z</time>
      </trkpt>
      <trkpt lat="49.03425" lon="7.94433">
        <ele>162.7</ele>
        <time>2020-06-27T18:31:29Z</time>
      </trkpt>
      <trkpt lat="49.03425" lon="7.94431">
        <ele>162.7</ele>
        <time>2020-06-27T18:31:30Z</time>
      </trkpt>
      <trkpt lat="49.03424" lon="7.94433">
        <ele>162.7</ele>
        <time>2020-06-27T18:31:31Z</time>
      </trkpt>
      <trkpt lat="49.03424" lon="7.94431">
        <ele>162.7</ele>
        <time>2020-06-27T18:31:32Z</time>
      </trkpt>
      <trkpt lat="49.03424" lon="7.94432">
        <ele>162.7</ele>
        <time>2020-06-27T18:31:33Z</time>
      </trkpt>
      <trkpt lat="49.03424" lon="7.94432">
        <ele>162.7</ele>
        <time>2020-06-27T18:31:34Z</time>
      </trkpt>
      <trkpt lat="49.03424" lon="7.94433">
        <ele>162.8</ele>
        <time>2020-06-27T18:31:35Z</time>
      </trkpt>
      <trkpt lat="49.03424" lon="7.94433">
        <ele>162.8</ele>
        <time>2020-06-27T18:31:36Z</time>
      </trkpt>
      <trkpt lat="49.03423" lon="7.94434">
        <ele>162.8</ele>
        <time>2020-06-27T18:31:37Z</time>
      </trkpt>
      <trkpt lat="49.03423" lon="7.94434">
        <ele>162.8</ele>
        <time>2020-06-27T18:31:38Z</time>
      </trkpt>
      <trkpt lat="49.03423" lon="7.94435">
        <ele>162.8</ele>
        <time>2020-06-27T18:31:39Z</time>
      </trkpt>
      <trkpt lat="49.03423" lon="7.94436">
        <ele>162.8</ele>
        <time>2020-06-27T18:31:40Z</time>
      </trkpt>
      <trkpt lat="49.03423" lon="7.94436">
        <ele>162.7</ele>
        <time>2020-06-27T18:31:41Z</time>
      </trkpt>
      <trkpt lat="49.03422" lon="7.94437">
        <ele>162.7</ele>
        <time>2020-06-27T18:31:42Z</time>
      </trkpt>
      <trkpt lat="49.03423" lon="7.94438">
        <ele>162.7</ele>
        <time>2020-06-27T18:31:43Z</time>
      </trkpt>
      <trkpt lat="49.03423" lon="7.9444">
        <ele>162.7</ele>
        <time>2020-06-27T18:31:44Z</time>
      </trkpt>
      <trkpt lat="49.03423" lon="7.94441">
        <ele>162.6</ele>
        <time>2020-06-27T18:31:45Z</time>
      </trkpt>
      <trkpt lat="49.03424" lon="7.94442">
        <ele>162.6</ele>
        <time>2020-06-27T18:31:46Z</time>
      </trkpt>
      <trkpt lat="49.03424" lon="7.94443">
        <ele>162.6</ele>
        <time>2020-06-27T18:31:47Z</time>
      </trkpt>
      <trkpt lat="49.03424" lon="7.94444">
        <ele>162.6</ele>
        <time>2020-06-27T18:31:48Z</time>
      </trkpt>
      <trkpt lat="49.03424" lon="7.94444">
        <ele>162.6</ele>
        <time>2020-06-27T18:31:49Z</time>
      </trkpt>
      <trkpt lat="49.03424" lon="7.94444">
        <ele>162.6</ele>
        <time>2020-06-27T18:31:50Z</time>
      </trkpt>
      <trkpt lat="49.03424" lon="7.94444">
        <ele>162.6</ele>
        <time>2020-06-27T18:31:51Z</time>
      </trkpt>
      <trkpt lat="49.03424" lon="7.94445">
        <ele>162.5</ele>
        <time>2020-06-27T18:31:52Z</time>
      </trkpt>
      <trkpt lat="49.03424" lon="7.94445">
        <ele>162.5</ele>
        <time>2020-06-27T18:31:53Z</time>
      </trkpt>
      <trkpt lat="49.03424" lon="7.94446">
        <ele>162.5</ele>
        <time>2020-06-27T18:31:54Z</time>
      </trkpt>
      <trkpt lat="49.03425" lon="7.94447">
        <ele>162.5</ele>
        <time>2020-06-27T18:31:55Z</time>
      </trkpt>
      <trkpt lat="49.03425" lon="7.94448">
        <ele>162.5</ele>
        <time>2020-06-27T18:31:56Z</time>
      </trkpt>
      <trkpt lat="49.03426" lon="7.94449">
        <ele>162.4</ele>
        <time>2020-06-27T18:31:57Z</time>
      </trkpt>
      <trkpt lat="49.03426" lon="7.9445">
        <ele>162.4</ele>
        <time>2020-06-27T18:31:58Z</time>
      </trkpt>
      <trkpt lat="49.03427" lon="7.94452">
        <ele>162.4</ele>
        <time>2020-06-27T18:31:59Z</time>
      </trkpt>
      <trkpt lat="49.03427" lon="7.94453">
        <ele>162.3</ele>
        <time>2020-06-27T18:32:00Z</time>
      </trkpt>
      <trkpt lat="49.03427" lon="7.94454">
        <ele>162.2</ele>
        <time>2020-06-27T18:32:01Z</time>
      </trkpt>
      <trkpt lat="49.03427" lon="7.94453">
        <ele>162.2</ele>
        <time>2020-06-27T18:32:02Z</time>
      </trkpt>
      <trkpt lat="49.03427" lon="7.94454">
        <ele>162.2</ele>
        <time>2020-06-27T18:32:03Z</time>
      </trkpt>
      <trkpt lat="49.03427" lon="7.94455">
        <ele>162.2</ele>
        <time>2020-06-27T18:32:04Z</time>
      </trkpt>
      <trkpt lat="49.03427" lon="7.94455">
        <ele>162.3</ele>
        <time>2020-06-27T18:32:05Z</time>
      </trkpt>
      <trkpt lat="49.03426" lon="7.94456">
        <ele>162.3</ele>
        <time>2020-06-27T18:32:06Z</time>
      </trkpt>
      <trkpt lat="49.03426" lon="7.94456">
        <ele>162.3</ele>
        <time>2020-06-27T18:32:07Z</time>
      </trkpt>
      <trkpt lat="49.03426" lon="7.94456">
        <ele>162.3</ele>
        <time>2020-06-27T18:32:08Z</time>
      </trkpt>
      <trkpt lat="49.03426" lon="7.94456">
        <ele>162.3</ele>
        <time>2020-06-27T18:32:09Z</time>
      </trkpt>
      <trkpt lat="49.03426" lon="7.94457">
        <ele>162.3</ele>
        <time>2020-06-27T18:32:10Z</time>
      </trkpt>
      <trkpt lat="49.03425" lon="7.94457">
        <ele>162.3</ele>
        <time>2020-06-27T18:32:11Z</time>
      </trkpt>
      <trkpt lat="49.03425" lon="7.94457">
        <ele>162.3</ele>
        <time>2020-06-27T18:32:12Z</time>
      </trkpt>
      <trkpt lat="49.03425" lon="7.94457">
        <ele>162.3</ele>
        <time>2020-06-27T18:32:13Z</time>
      </trkpt>
      <trkpt lat="49.03425" lon="7.94458">
        <ele>162.1</ele>
        <time>2020-06-27T18:32:14Z</time>
      </trkpt>
      <trkpt lat="49.03425" lon="7.94458">
        <ele>162.1</ele>
        <time>2020-06-27T18:32:15Z</time>
      </trkpt>
      <trkpt lat="49.03424" lon="7.94458">
        <ele>162.1</ele>
        <time>2020-06-27T18:32:16Z</time>
      </trkpt>
      <trkpt lat="49.03424" lon="7.94458">
        <ele>162.1</ele>
        <time>2020-06-27T18:32:17Z</time>
      </trkpt>
      <trkpt lat="49.03424" lon="7.94459">
        <ele>162.1</ele>
        <time>2020-06-27T18:32:18Z</time>
      </trkpt>
      <trkpt lat="49.03424" lon="7.94459">
        <ele>162.2</ele>
        <time>2020-06-27T18:32:19Z</time>
      </trkpt>
      <trkpt lat="49.03423" lon="7.94461">
        <ele>162.2</ele>
        <time>2020-06-27T18:32:20Z</time>
      </trkpt>
      <trkpt lat="49.03423" lon="7.94462">
        <ele>162</ele>
        <time>2020-06-27T18:32:21Z</time>
      </trkpt>
      <trkpt lat="49.03422" lon="7.94463">
        <ele>162</ele>
        <time>2020-06-27T18:32:22Z</time>
      </trkpt>
      <trkpt lat="49.03422" lon="7.94465">
        <ele>162</ele>
        <time>2020-06-27T18:42:57Z</time>
      </trkpt>
      <trkpt lat="49.03421" lon="7.94466">
        <ele>162</ele>
        <time>2020-06-27T18:42:58Z</time>
      </trkpt>
      <trkpt lat="49.03421" lon="7.94467">
        <ele>161.9</ele>
        <time>2020-06-27T18:42:59Z</time>
      </trkpt>
      <trkpt lat="49.0342" lon="7.94469">
        <ele>161.9</ele>
        <time>2020-06-27T18:43:00Z</time>
      </trkpt>
      <trkpt lat="49.03423" lon="7.9447">
        <ele>161.9</ele>
        <time>2020-06-27T18:43:01Z</time>
      </trkpt>
      <trkpt lat="49.03424" lon="7.94469">
        <ele>161.9</ele>
        <time>2020-06-27T18:43:02Z</time>
      </trkpt>
      <trkpt lat="49.03425" lon="7.94469">
        <ele>161.8</ele>
        <time>2020-06-27T18:43:03Z</time>
      </trkpt>
      <trkpt lat="49.03425" lon="7.94469">
        <ele>161.8</ele>
        <time>2020-06-27T18:43:04Z</time>
      </trkpt>
      <trkpt lat="49.03425" lon="7.94471">
        <ele>161.6</ele>
        <time>2020-06-27T18:43:05Z</time>
      </trkpt>
      <trkpt lat="49.03425" lon="7.94472">
        <ele>161.6</ele>
        <time>2020-06-27T18:43:06Z</time>
      </trkpt>
      <trkpt lat="49.03426" lon="7.94473">
        <ele>161.6</ele>
        <time>2020-06-27T18:43:07Z</time>
      </trkpt>
      <trkpt lat="49.03426" lon="7.94473">
        <ele>161.6</ele>
        <time>2020-06-27T18:43:08Z</time>
      </trkpt>
      <trkpt lat="49.03426" lon="7.94474">
        <ele>161.6</ele>
        <time>2020-06-27T18:43:09Z</time>
      </trkpt>
      <trkpt lat="49.03426" lon="7.94473">
        <ele>161.6</ele>
        <time>2020-06-27T18:43:10Z</time>
      </trkpt>
      <trkpt lat="49.03426" lon="7.94472">
        <ele>161.6</ele>
        <time>2020-06-27T18:43:11Z</time>
      </trkpt>
      <trkpt lat="49.03426" lon="7.94472">
        <ele>161.6</ele>
        <time>2020-06-27T18:43:12Z</time>
      </trkpt>
      <trkpt lat="49.03426" lon="7.94472">
        <ele>161.6</ele>
        <time>2020-06-27T18:43:13Z</time>
      </trkpt>
      <trkpt lat="49.03426" lon="7.94472">
        <ele>161.6</ele>
        <time>2020-06-27T18:43:14Z</time>
      </trkpt>
      <trkpt lat="49.03425" lon="7.94471">
        <ele>161.6</ele>
        <time>2020-06-27T18:43:15Z</time>
      </trkpt>
      <trkpt lat="49.03424" lon="7.9447">
        <ele>161.8</ele>
        <time>2020-06-27T18:43:16Z</time>
      </trkpt>
      <trkpt lat="49.03423" lon="7.94471">
        <ele>161.7</ele>
        <time>2020-06-27T18:43:17Z</time>
      </trkpt>
      <trkpt lat="49.03421" lon="7.94475">
        <ele>161.4</ele>
        <time>2020-06-27T18:43:18Z</time>
      </trkpt>
      <trkpt lat="49.03421" lon="7.94475">
        <ele>161.4</ele>
        <time>2020-06-27T18:43:19Z</time>
      </trkpt>
      <trkpt lat="49.03407" lon="7.94459">
        <ele>162.4</ele>
        <time>2020-06-27T18:59:10Z</time>
      </trkpt>
      <trkpt lat="49.03407" lon="7.94458">
        <ele>162.4</ele>
        <time>2020-06-27T18:59:11Z</time>
      </trkpt>
      <trkpt lat="49.03407" lon="7.94457">
        <ele>162.5</ele>
        <time>2020-06-27T18:59:12Z</time>
      </trkpt>
      <trkpt lat="49.03407" lon="7.94456">
        <ele>162.5</ele>
        <time>2020-06-27T18:59:13Z</time>
      </trkpt>
      <trkpt lat="49.03407" lon="7.94456">
        <ele>162.5</ele>
        <time>2020-06-27T18:59:14Z</time>
      </trkpt>
      <trkpt lat="49.03408" lon="7.94456">
        <ele>162.5</ele>
        <time>2020-06-27T18:59:15Z</time>
      </trkpt>
      <trkpt lat="49.03408" lon="7.94457">
        <ele>162.5</ele>
        <time>2020-06-27T18:59:16Z</time>
      </trkpt>
      <trkpt lat="49.03408" lon="7.94458">
        <ele>162.4</ele>
        <time>2020-06-27T18:59:17Z</time>
      </trkpt>
      <trkpt lat="49.03408" lon="7.94459">
        <ele>162.4</ele>
        <time>2020-06-27T18:59:18Z</time>
      </trkpt>
      <trkpt lat="49.03408" lon="7.94459">
        <ele>162.4</ele>
        <time>2020-06-27T18:59:19Z</time>
      </trkpt>
      <trkpt lat="49.03408" lon="7.94459">
        <ele>162.4</ele>
        <time>2020-06-27T18:59:20Z</time>
      </trkpt>
      <trkpt lat="49.03408" lon="7.9446">
        <ele>162.4</ele>
        <time>2020-06-27T18:59:21Z</time>
      </trkpt>
      <trkpt lat="49.03408" lon="7.9446">
        <ele>162.4</ele>
        <time>2020-06-27T18:59:22Z</time>
      </trkpt>
      <trkpt lat="49.03408" lon="7.94459">
        <ele>162.4</ele>
        <time>2020-06-27T18:59:23Z</time>
      </trkpt>
      <trkpt lat="49.03409" lon="7.94458">
        <ele>162.4</ele>
        <time>2020-06-27T18:59:24Z</time>
      </trkpt>
      <trkpt lat="49.03409" lon="7.94458">
        <ele>162.4</ele>
        <time>2020-06-27T18:59:25Z</time>
      </trkpt>
      <trkpt lat="49.03409" lon="7.94458">
        <ele>162.4</ele>
        <time>2020-06-27T18:59:26Z</time>
      </trkpt>
      <trkpt lat="49.0341" lon="7.94458">
        <ele>162.4</ele>
        <time>2020-06-27T18:59:27Z</time>
      </trkpt>
      <trkpt lat="49.03411" lon="7.94457">
        <ele>162.5</ele>
        <time>2020-06-27T18:59:28Z</time>
      </trkpt>
      <trkpt lat="49.03411" lon="7.94457">
        <ele>162.5</ele>
        <time>2020-06-27T18:59:29Z</time>
      </trkpt>
      <trkpt lat="49.03412" lon="7.94457">
        <ele>162.5</ele>
        <time>2020-06-27T18:59:30Z</time>
      </trkpt>
      <trkpt lat="49.03412" lon="7.94456">
        <ele>162.5</ele>
        <time>2020-06-27T18:59:31Z</time>
      </trkpt>
      <trkpt lat="49.03413" lon="7.94456">
        <ele>162.5</ele>
        <time>2020-06-27T18:59:32Z</time>
      </trkpt>
      <trkpt lat="49.03413" lon="7.94457">
        <ele>162.5</ele>
        <time>2020-06-27T18:59:33Z</time>
      </trkpt>
      <trkpt lat="49.03414" lon="7.94456">
        <ele>162.5</ele>
        <time>2020-06-27T18:59:34Z</time>
      </trkpt>
      <trkpt lat="49.03413" lon="7.94455">
        <ele>162.5</ele>
        <time>2020-06-27T18:59:35Z</time>
      </trkpt>
      <trkpt lat="49.03413" lon="7.94454">
        <ele>162.5</ele>
        <time>2020-06-27T18:59:36Z</time>
      </trkpt>
      <trkpt lat="49.03413" lon="7.94453">
        <ele>162.6</ele>
        <time>2020-06-27T18:59:37Z</time>
      </trkpt>
      <trkpt lat="49.03412" lon="7.94452">
        <ele>162.6</ele>
        <time>2020-06-27T18:59:38Z</time>
      </trkpt>
      <trkpt lat="49.03412" lon="7.94451">
        <ele>162.6</ele>
        <time>2020-06-27T18:59:39Z</time>
      </trkpt>
      <trkpt lat="49.03412" lon="7.9445">
        <ele>162.6</ele>
        <time>2020-06-27T18:59:40Z</time>
      </trkpt>
      <trkpt lat="49.03411" lon="7.94449">
        <ele>162.6</ele>
        <time>2020-06-27T18:59:41Z</time>
      </trkpt>
      <trkpt lat="49.03411" lon="7.94448">
        <ele>162.7</ele>
        <time>2020-06-27T18:59:42Z</time>
      </trkpt>
      <trkpt lat="49.03411" lon="7.94447">
        <ele>162.7</ele>
        <time>2020-06-27T18:59:43Z</time>
      </trkpt>
      <trkpt lat="49.0341" lon="7.94446">
        <ele>162.7</ele>
        <time>2020-06-27T18:59:44Z</time>
      </trkpt>
      <trkpt lat="49.0341" lon="7.94446">
        <ele>162.7</ele>
        <time>2020-06-27T18:59:45Z</time>
      </trkpt>
      <trkpt lat="49.03409" lon="7.94445">
        <ele>162.9</ele>
        <time>2020-06-27T18:59:46Z</time>
      </trkpt>
      <trkpt lat="49.03409" lon="7.94444">
        <ele>162.9</ele>
        <time>2020-06-27T18:59:47Z</time>
      </trkpt>
      <trkpt lat="49.03409" lon="7.94443">
        <ele>162.9</ele>
        <time>2020-06-27T18:59:48Z</time>
      </trkpt>
      <trkpt lat="49.03408" lon="7.94442">
        <ele>162.9</ele>
        <time>2020-06-27T18:59:49Z</time>
      </trkpt>
      <trkpt lat="49.03408" lon="7.94441">
        <ele>162.9</ele>
        <time>2020-06-27T18:59:50Z</time>
      </trkpt>
      <trkpt lat="49.03408" lon="7.9444">
        <ele>163</ele>
        <time>2020-06-27T20:34:05Z</time>
      </trkpt>
      <trkpt lat="49.03407" lon="7.94439">
        <ele>163</ele>
        <time>2020-06-27T20:34:06Z</time>
      </trkpt>
      <trkpt lat="49.03407" lon="7.94438">
        <ele>163</ele>
        <time>2020-06-27T20:34:07Z</time>
      </trkpt>
      <trkpt lat="49.03406" lon="7.94437">
        <ele>163</ele>
        <time>2020-06-27T20:34:08Z</time>
      </trkpt>
      <trkpt lat="49.03404" lon="7.94437">
        <ele>163.1</ele>
        <time>2020-06-27T20:34:09Z</time>
      </trkpt>
      <trkpt lat="49.03401" lon="7.94439">
        <ele>163.1</ele>
        <time>2020-06-27T20:34:10Z</time>
      </trkpt>
      <trkpt lat="49.034" lon="7.9444">
        <ele>163.1</ele>
        <time>2020-06-27T20:34:11Z</time>
      </trkpt>
      <trkpt lat="49.03401" lon="7.94442">
        <ele>163</ele>
        <time>2020-06-27T20:34:12Z</time>
      </trkpt>
      <trkpt lat="49.03401" lon="7.94442">
        <ele>163</ele>
        <time>2020-06-27T20:34:13Z</time>
      </trkpt>
      <trkpt lat="49.03402" lon="7.94442">
        <ele>163</ele>
        <time>2020-06-27T20:34:14Z</time>
      </trkpt>
      <trkpt lat="49.03402" lon="7.94443">
        <ele>163</ele>
        <time>2020-06-27T20:34:15Z</time>
      </trkpt>
      <trkpt lat="49.03402" lon="7.94446">
        <ele>162.9</ele>
        <time>2020-06-27T20:34:16Z</time>
      </trkpt>
      <trkpt lat="49.03401" lon="7.94448">
        <ele>162.9</ele>
        <time>2020-06-27T20:34:17Z</time>
      </trkpt>
      <trkpt lat="49.03401" lon="7.9445">
        <ele>162.8</ele>
        <time>2020-06-27T20:34:18Z</time>
      </trkpt>
      <trkpt lat="49.03402" lon="7.9445">
        <ele>162.7</ele>
        <time>2020-06-27T20:34:19Z</time>
      </trkpt>
      <trkpt lat="49.03402" lon="7.94451">
        <ele>162.7</ele>
        <time>2020-06-27T20:34:20Z</time>
      </trkpt>
      <trkpt lat="49.03403" lon="7.94451">
        <ele>162.7</ele>
        <time>2020-06-27T20:34:21Z</time>
      </trkpt>
      <trkpt lat="49.03404" lon="7.9445">
        <ele>162.7</ele>
        <time>2020-06-27T20:34:22Z</time>
      </trkpt>
      <trkpt lat="49.03405" lon="7.9445">
        <ele>162.7</ele>
        <time>2020-06-27T20:34:23Z</time>
      </trkpt>
      <trkpt lat="49.03404" lon="7.94449">
        <ele>162.8</ele>
        <time>2020-06-27T20:34:24Z</time>
      </trkpt>
      <trkpt lat="49.03405" lon="7.94447">
        <ele>162.8</ele>
        <time>2020-06-27T20:34:25Z</time>
      </trkpt>
      <trkpt lat="49.03405" lon="7.94446">
        <ele>162.8</ele>
        <time>2020-06-27T20:34:26Z</time>
      </trkpt>
      <trkpt lat="49.03405" lon="7.94445">
        <ele>162.8</ele>
        <time>2020-06-27T20:34:27Z</time>
      </trkpt>
      <trkpt lat="49.03404" lon="7.94444">
        <ele>162.9</ele>
        <time>2020-06-27T20:34:28Z</time>
      </trkpt>
      <trkpt lat="49.03404" lon="7.94444">
        <ele>162.9</ele>
        <time>2020-06-27T20:34:29Z</time>
      </trkpt>
      <trkpt lat="49.03404" lon="7.94445">
        <ele>162.8</ele>
        <time>2020-06-27T20:34:30Z</time>
      </trkpt>
      <trkpt lat="49.03404" lon="7.94445">
        <ele>162.8</ele>
        <time>2020-06-27T20:34:31Z</time>
      </trkpt>
      <trkpt lat="49.03404" lon="7.94445">
        <ele>162.8</ele>
        <time>2020-06-27T20:34:32Z</time>
      </trkpt>
      <trkpt lat="49.03404" lon="7.94445">
        <ele>162.8</ele>
        <time>2020-06-27T20:34:33Z</time>
      </trkpt>
      <trkpt lat="49.03404" lon="7.94445">
        <ele>162.8</ele>
        <time>2020-06-27T20:34:34Z</time>
      </trkpt>
      <trkpt lat="49.03404" lon="7.94446">
        <ele>162.8</ele>
        <time>2020-06-27T20:34:35Z</time>
      </trkpt>
      <trkpt lat="49.03404" lon="7.94446">
        <ele>162.8</ele>
        <time>2020-06-27T20:34:36Z</time>
      </trkpt>
      <trkpt lat="49.03404" lon="7.94446">
        <ele>162.8</ele>
        <time>2020-06-27T20:34:37Z</time>
      </trkpt>
      <trkpt lat="49.03404" lon="7.94446">
        <ele>162.8</ele>
        <time>2020-06-27T20:34:38Z</time>
      </trkpt>
      <trkpt lat="49.03404" lon="7.94446">
        <ele>162.8</ele>
        <time>2020-06-27T20:34:39Z</time>
      </trkpt>
      <trkpt lat="49.03404" lon="7.94446">
        <ele>162.8</ele>
        <time>2020-06-27T20:34:40Z</time>
      </trkpt>
      <trkpt lat="49.03404" lon="7.94447">
        <ele>162.8</ele>
        <time>2020-06-27T20:34:41Z</time>
      </trkpt>
      <trkpt lat="49.03404" lon="7.94447">
        <ele>162.9</ele>
        <time>2020-06-27T20:34:42Z</time>
      </trkpt>
      <trkpt lat="49.03404" lon="7.94447">
        <ele>162.9</ele>
        <time>2020-06-27T20:34:43Z</time>
      </trkpt>
      <trkpt lat="49.03404" lon="7.94447">
        <ele>162.9</ele>
        <time>2020-06-27T20:34:44Z</time>
      </trkpt>
      <trkpt lat="49.03404" lon="7.94447">
        <ele>162.9</ele>
        <time>2020-06-27T20:35:42Z</time>
      </trkpt>
      <trkpt lat="49.03404" lon="7.94448">
        <ele>162.9</ele>
        <time>2020-06-27T20:35:43Z</time>
      </trkpt>
      <trkpt lat="49.03404" lon="7.94448">
        <ele>162.9</ele>
        <time>2020-06-27T20:35:44Z</time>
      </trkpt>
      <trkpt lat="49.03404" lon="7.94448">
        <ele>162.9</ele>
        <time>2020-06-27T20:35:45Z</time>
      </trkpt>
      <trkpt lat="49.03404" lon="7.94448">
        <ele>162.9</ele>
        <time>2020-06-27T20:35:46Z</time>
      </trkpt>
      <trkpt lat="49.03404" lon="7.94448">
        <ele>162.9</ele>
        <time>2020-06-27T20:35:47Z</time>
      </trkpt>
      <trkpt lat="49.03403" lon="7.94449">
        <ele>162.9</ele>
        <time>2020-06-27T20:35:48Z</time>
      </trkpt>
      <trkpt lat="49.03403" lon="7.94449">
        <ele>162.7</ele>
        <time>2020-06-27T20:35:49Z</time>
      </trkpt>
      <trkpt lat="49.03402" lon="7.94451">
        <ele>162.7</ele>
        <time>2020-06-27T20:35:50Z</time>
      </trkpt>
      <trkpt lat="49.03402" lon="7.94452">
        <ele>162.7</ele>
        <time>2020-06-27T20:35:51Z</time>
      </trkpt>
      <trkpt lat="49.03402" lon="7.94452">
        <ele>162.7</ele>
        <time>2020-06-27T20:35:52Z</time>
      </trkpt>
      <trkpt lat="49.03402" lon="7.94452">
        <ele>162.7</ele>
        <time>2020-06-27T20:35:53Z</time>
      </trkpt>
      <trkpt lat="49.03402" lon="7.94452">
        <ele>162.7</ele>
        <time>2020-06-27T20:35:54Z</time>
      </trkpt>
      <trkpt lat="49.03402" lon="7.94452">
        <ele>162.7</ele>
        <time>2020-06-27T20:35:55Z</time>
      </trkpt>
      <trkpt lat="49.03402" lon="7.94452">
        <ele>162.7</ele>
        <time>2020-06-27T20:35:56Z</time>
      </trkpt>
      <trkpt lat="49.03402" lon="7.94452">
        <ele>162.7</ele>
        <time>2020-06-27T20:35:57Z</time>
      </trkpt>
      <trkpt lat="49.03402" lon="7.94452">
        <ele>162.7</ele>
        <time>2020-06-27T20:35:58Z</time>
      </trkpt>
      <trkpt lat="49.03402" lon="7.94452">
        <ele>162.7</ele>
        <time>2020-06-27T20:35:59Z</time>
      </trkpt>
      <trkpt lat="49.03402" lon="7.94452">
        <ele>162.7</ele>
        <time>2020-06-27T20:36:00Z</time>
      </trkpt>
      <trkpt lat="49.03402" lon="7.94453">
        <ele>162.7</ele>
        <time>2020-06-27T20:36:01Z</time>
      </trkpt>
      <trkpt lat="49.03406" lon="7.94462">
        <ele>162.3</ele>
        <time>2020-06-27T20:36:24Z</time>
      </trkpt>
      <trkpt lat="49.03406" lon="7.94463">
        <ele>162.3</ele>
        <time>2020-06-27T20:36:25Z</time>
      </trkpt>
      <trkpt lat="49.03406" lon="7.94464">
        <ele>162.3</ele>
        <time>2020-06-27T20:36:26Z</time>
      </trkpt>
      <trkpt lat="49.03406" lon="7.94465">
        <ele>162.3</ele>
        <time>2020-06-27T20:36:27Z</time>
      </trkpt>
      <trkpt lat="49.03406" lon="7.94464">
        <ele>162.3</ele>
        <time>2020-06-27T20:36:28Z</time>
      </trkpt>
      <trkpt lat="49.03406" lon="7.94464">
        <ele>162.3</ele>
        <time>2020-06-27T20:36:29Z</time>
      </trkpt>
      <trkpt lat="49.03406" lon="7.94464">
        <ele>162.3</ele>
        <time>2020-06-27T20:36:30Z</time>
      </trkpt>
      <trkpt lat="49.03407" lon="7.94465">
        <ele>162.3</ele>
        <time>2020-06-27T20:36:31Z</time>
      </trkpt>
      <trkpt lat="49.03407" lon="7.94465">
        <ele>162.3</ele>
        <time>2020-06-27T20:36:32Z</time>
      </trkpt>
      <trkpt lat="49.03408" lon="7.94462">
        <ele>162.2</ele>
        <time>2020-06-27T20:36:33Z</time>
      </trkpt>
      <trkpt lat="49.03408" lon="7.94462">
        <ele>162.2</ele>
        <time>2020-06-27T20:36:34Z</time>
      </trkpt>
      <trkpt lat="49.03406" lon="7.94464">
        <ele>162.3</ele>
        <time>2020-06-27T20:36:35Z</time>
      </trkpt>
      <trkpt lat="49.03406" lon="7.94465">
        <ele>162.3</ele>
        <time>2020-06-27T20:36:36Z</time>
      </trkpt>
      <trkpt lat="49.03407" lon="7.94465">
        <ele>162.3</ele>
        <time>2020-06-27T20:36:37Z</time>
      </trkpt>
      <trkpt lat="49.03406" lon="7.94465">
        <ele>162.3</ele>
        <time>2020-06-27T20:36:38Z</time>
      </trkpt>
      <trkpt lat="49.03406" lon="7.94464">
        <ele>162.3</ele>
        <time>2020-06-27T20:36:39Z</time>
      </trkpt>
      <trkpt lat="49.03407" lon="7.94462">
        <ele>162.3</ele>
        <time>2020-06-27T20:36:40Z</time>
      </trkpt>
      <trkpt lat="49.03407" lon="7.94462">
        <ele>162.3</ele>
        <time>2020-06-27T20:36:41Z</time>
      </trkpt>
      <trkpt lat="49.03407" lon="7.94461">
        <ele>162.4</ele>
        <time>2020-06-27T20:36:42Z</time>
      </trkpt>
      <trkpt lat="49.03407" lon="7.94461">
        <ele>162.4</ele>
        <time>2020-06-27T20:36:43Z</time>
      </trkpt>
      <trkpt lat="49.03409" lon="7.94458">
        <ele>162.4</ele>
        <time>2020-06-27T20:36:44Z</time>
      </trkpt>
      <trkpt lat="49.03409" lon="7.94457">
        <ele>162.5</ele>
        <time>2020-06-27T20:36:45Z</time>
      </trkpt>
      <trkpt lat="49.03414" lon="7.94435">
        <ele>162.9</ele>
        <time>2020-06-27T20:37:38Z</time>
      </trkpt>
      <trkpt lat="49.03414" lon="7.94433">
        <ele>162.9</ele>
        <time>2020-06-27T20:37:39Z</time>
      </trkpt>
      <trkpt lat="49.03414" lon="7.94432">
        <ele>162.9</ele>
        <time>2020-06-27T20:37:40Z</time>
      </trkpt>
      <trkpt lat="49.03416" lon="7.94429">
        <ele>162.9</ele>
        <time>2020-06-27T20:37:41Z</time>
      </trkpt>
      <trkpt lat="49.03416" lon="7.94428">
        <ele>162.9</ele>
        <time>2020-06-27T20:37:42Z</time>
      </trkpt>
      <trkpt lat="49.03416" lon="7.94427">
        <ele>163</ele>
        <time>2020-06-27T20:37:43Z</time>
      </trkpt>
      <trkpt lat="49.03416" lon="7.94426">
        <ele>163</ele>
        <time>2020-06-27T20:37:44Z</time>
      </trkpt>
      <trkpt lat="49.03417" lon="7.94424">
        <ele>163</ele>
        <time>2020-06-27T20:37:45Z</time>
      </trkpt>
      <trkpt lat="49.03419" lon="7.94422">
        <ele>163</ele>
        <time>2020-06-27T20:37:46Z</time>
      </trkpt>
      <trkpt lat="49.03419" lon="7.94421">
        <ele>163</ele>
        <time>2020-06-27T20:37:47Z</time>
      </trkpt>
      <trkpt lat="49.0342" lon="7.94419">
        <ele>163</ele>
        <time>2020-06-27T20:37:48Z</time>
      </trkpt>
      <trkpt lat="49.03421" lon="7.94418">
        <ele>163.1</ele>
        <time>2020-06-27T20:37:49Z</time>
      </trkpt>
      <trkpt lat="49.03421" lon="7.94418">
        <ele>163.1</ele>
        <time>2020-06-27T20:37:50Z</time>
      </trkpt>
      <trkpt lat="49.03421" lon="7.94417">
        <ele>163</ele>
        <time>2020-06-27T20:37:51Z</time>
      </trkpt>
      <trkpt lat="49.03421" lon="7.94417">
        <ele>163</ele>
        <time>2020-06-27T20:37:52Z</time>
      </trkpt>
      <trkpt lat="49.03421" lon="7.94417">
        <ele>163</ele>
        <time>2020-06-27T20:37:53Z</time>
      </trkpt>
      <trkpt lat="49.03421" lon="7.94417">
        <ele>163</ele>
        <time>2020-06-27T20:37:54Z</time>
      </trkpt>
      <trkpt lat="49.03421" lon="7.94417">
        <ele>163</ele>
        <time>2020-06-27T20:37:55Z</time>
      </trkpt>
      <trkpt lat="49.03422" lon="7.94417">
        <ele>163</ele>
        <time>2020-06-27T20:37:56Z</time>
      </trkpt>
      <trkpt lat="49.03422" lon="7.94416">
        <ele>163</ele>
        <time>2020-06-27T20:37:57Z</time>
      </trkpt>
      <trkpt lat="49.03421" lon="7.94419">
        <ele>163</ele>
        <time>2020-06-27T20:37:58Z</time>
      </trkpt>
      <trkpt lat="49.03419" lon="7.94423">
        <ele>163</ele>
        <time>2020-06-27T20:37:59Z</time>
      </trkpt>
      <trkpt lat="49.03417" lon="7.94427">
        <ele>163</ele>
        <time>2020-06-27T20:38:00Z</time>
      </trkpt>
      <trkpt lat="49.03416" lon="7.9443">
        <ele>162.9</ele>
        <time>2020-06-27T20:38:25Z</time>
      </trkpt>
      <trkpt lat="49.03414" lon="7.94434">
        <ele>162.9</ele>
        <time>2020-06-27T20:38:26Z</time>
      </trkpt>
      <trkpt lat="49.03412" lon="7.94438">
        <ele>162.9</ele>
        <time>2020-06-27T20:38:27Z</time>
      </trkpt>
      <trkpt lat="49.03411" lon="7.94439">
        <ele>162.9</ele>
        <time>2020-06-27T20:38:28Z</time>
      </trkpt>
      <trkpt lat="49.0341" lon="7.9444">
        <ele>162.8</ele>
        <time>2020-06-27T20:38:29Z</time>
      </trkpt>
      <trkpt lat="49.0341" lon="7.94443">
        <ele>162.8</ele>
        <time>2020-06-27T20:38:30Z</time>
      </trkpt>
      <trkpt lat="49.0341" lon="7.94445">
        <ele>162.7</ele>
        <time>2020-06-27T20:38:31Z</time>
      </trkpt>
      <trkpt lat="49.0341" lon="7.94446">
        <ele>162.7</ele>
        <time>2020-06-27T20:38:32Z</time>
      </trkpt>
      <trkpt lat="49.0341" lon="7.94447">
        <ele>162.7</ele>
        <time>2020-06-27T20:38:33Z</time>
      </trkpt>
      <trkpt lat="49.0341" lon="7.94449">
        <ele>162.7</ele>
        <time>2020-06-27T20:38:34Z</time>
      </trkpt>
      <trkpt lat="49.0341" lon="7.9445">
        <ele>162.6</ele>
        <time>2020-06-27T20:38:35Z</time>
      </trkpt>
      <trkpt lat="49.0341" lon="7.9445">
        <ele>162.6</ele>
        <time>2020-06-27T20:38:36Z</time>
      </trkpt>
      <trkpt lat="49.0341" lon="7.94451">
        <ele>162.6</ele>
        <time>2020-06-27T20:38:37Z</time>
      </trkpt>
      <trkpt lat="49.03411" lon="7.94451">
        <ele>162.6</ele>
        <time>2020-06-27T20:38:38Z</time>
      </trkpt>
      <trkpt lat="49.03411" lon="7.94452">
        <ele>162.6</ele>
        <time>2020-06-27T20:38:39Z</time>
      </trkpt>
      <trkpt lat="49.0341" lon="7.94451">
        <ele>162.6</ele>
        <time>2020-06-27T20:38:40Z</time>
      </trkpt>
      <trkpt lat="49.0341" lon="7.94451">
        <ele>162.7</ele>
        <time>2020-06-27T20:38:41Z</time>
      </trkpt>
      <trkpt lat="49.03409" lon="7.9445">
        <ele>162.7</ele>
        <time>2020-06-27T20:38:42Z</time>
      </trkpt>
      <trkpt lat="49.03409" lon="7.9445">
        <ele>162.7</ele>
        <time>2020-06-27T20:38:43Z</time>
      </trkpt>
      <trkpt lat="49.03408" lon="7.9445">
        <ele>162.7</ele>
        <time>2020-06-27T20:38:44Z</time>
      </trkpt>
      <trkpt lat="49.03408" lon="7.9445">
        <ele>162.7</ele>
        <time>2020-06-27T20:38:45Z</time>
      </trkpt>
      <trkpt lat="49.03407" lon="7.94451">
        <ele>162.7</ele>
        <time>2020-06-27T20:38:46Z</time>
      </trkpt>
      <trkpt lat="49.03407" lon="7.94452">
        <ele>162.7</ele>
        <time>2020-06-27T20:38:47Z</time>
      </trkpt>
      <trkpt lat="49.03407" lon="7.94452">
        <ele>162.7</ele>
        <time>2020-06-27T20:38:48Z</time>
      </trkpt>
      <trkpt lat="49.03406" lon="7.94454">
        <ele>162.6</ele>
        <time>2020-06-27T20:38:49Z</time>
      </trkpt>
      <trkpt lat="49.03406" lon="7.94454">
        <ele>162.6</ele>
        <time>2020-06-27T20:38:50Z</time>
      </trkpt>
      <trkpt lat="49.03406" lon="7.94454">
        <ele>162.6</ele>
        <time>2020-06-27T20:38:51Z</time>
      </trkpt>
      <trkpt lat="49.03406" lon="7.94455">
        <ele>162.6</ele>
        <time>2020-06-27T20:38:52Z</time>
      </trkpt>
      <trkpt lat="49.03406" lon="7.94455">
        <ele>162.6</ele>
        <time>2020-06-27T20:38:53Z</time>
      </trkpt>
      <trkpt lat="49.03406" lon="7.94456">
        <ele>162.6</ele>
        <time>2020-06-27T20:38:54Z</time>
      </trkpt>
      <trkpt lat="49.03406" lon="7.94456">
        <ele>162.6</ele>
        <time>2020-06-27T20:38:55Z</time>
      </trkpt>
      <trkpt lat="49.03406" lon="7.94457">
        <ele>162.6</ele>
        <time>2020-06-27T20:38:56Z</time>
      </trkpt>
      <trkpt lat="49.03406" lon="7.94457">
        <ele>162.6</ele>
        <time>2020-06-27T20:38:57Z</time>
      </trkpt>
      <trkpt lat="49.03406" lon="7.94458">
        <ele>162.4</ele>
        <time>2020-06-27T20:38:58Z</time>
      </trkpt>
      <trkpt lat="49.03406" lon="7.94458">
        <ele>162.4</ele>
        <time>2020-06-27T20:38:59Z</time>
      </trkpt>
      <trkpt lat="49.03406" lon="7.94458">
        <ele>162.4</ele>
        <time>2020-06-27T20:39:00Z</time>
      </trkpt>
      <trkpt lat="49.03406" lon="7.94458">
        <ele>162.4</ele>
        <time>2020-06-27T20:39:01Z</time>
      </trkpt>
      <trkpt lat="49.03405" lon="7.94458">
        <ele>162.4</ele>
        <time>2020-06-27T20:39:02Z</time>
      </trkpt>
      <trkpt lat="49.03404" lon="7.94458">
        <ele>162.4</ele>
        <time>2020-06-27T20:39:03Z</time>
      </trkpt>
      <trkpt lat="49.03404" lon="7.94458">
        <ele>162.4</ele>
        <time>2020-06-27T20:39:04Z</time>
      </trkpt>
      <trkpt lat="49.03404" lon="7.94458">
        <ele>162.4</ele>
        <time>2020-06-27T20:39:05Z</time>
      </trkpt>
      <trkpt lat="49.03405" lon="7.94458">
        <ele>162.4</ele>
        <time>2020-06-27T20:39:06Z</time>
      </trkpt>
      <trkpt lat="49.03405" lon="7.94458">
        <ele>162.4</ele>
        <time>2020-06-27T20:39:07Z</time>
      </trkpt>
      <trkpt lat="49.03405" lon="7.94458">
        <ele>162.4</ele>
        <time>2020-06-27T20:39:08Z</time>
      </trkpt>
      <trkpt lat="49.03405" lon="7.94458">
        <ele>162.4</ele>
        <time>2020-06-27T20:39:09Z</time>
      </trkpt>
      <trkpt lat="49.03405" lon="7.94458">
        <ele>162.4</ele>
        <time>2020-06-27T20:39:10Z</time>
      </trkpt>
      <trkpt lat="49.03405" lon="7.94458">
        <ele>162.4</ele>
        <time>2020-06-27T20:39:11Z</time>
      </trkpt>
      <trkpt lat="49.03405" lon="7.94459">
        <ele>162.4</ele>
        <time>2020-06-27T20:39:12Z</time>
      </trkpt>
      <trkpt lat="49.03405" lon="7.94459">
        <ele>162.4</ele>
        <time>2020-06-27T20:39:13Z</time>
      </trkpt>
      <trkpt lat="49.03404" lon="7.94458">
        <ele>162.4</ele>
        <time>2020-06-27T20:39:14Z</time>
      </trkpt>
      <trkpt lat="49.03403" lon="7.94459">
        <ele>162.4</ele>
        <time>2020-06-27T20:39:15Z</time>
      </trkpt>
      <trkpt lat="49.03401" lon="7.94459">
        <ele>162.5</ele>
        <time>2020-06-27T20:39:16Z</time>
      </trkpt>
      <trkpt lat="49.034" lon="7.94459">
        <ele>162.5</ele>
        <time>2020-06-27T20:39:17Z</time>
      </trkpt>
      <trkpt lat="49.034" lon="7.94459">
        <ele>162.5</ele>
        <time>2020-06-27T20:39:18Z</time>
      </trkpt>
      <trkpt lat="49.03399" lon="7.94459">
        <ele>162.5</ele>
        <time>2020-06-27T20:39:19Z</time>
      </trkpt>
      <trkpt lat="49.03399" lon="7.94459">
        <ele>162.5</ele>
        <time>2020-06-27T20:39:20Z</time>
      </trkpt>
      <trkpt lat="49.03398" lon="7.94459">
        <ele>162.5</ele>
        <time>2020-06-27T20:39:21Z</time>
      </trkpt>
      <trkpt lat="49.03398" lon="7.94458">
        <ele>162.5</ele>
        <time>2020-06-27T20:39:22Z</time>
      </trkpt>
      <trkpt lat="49.03398" lon="7.94459">
        <ele>162.5</ele>
        <time>2020-06-27T20:39:23Z</time>
      </trkpt>
      <trkpt lat="49.03398" lon="7.94459">
        <ele>162.5</ele>
        <time>2020-06-27T20:39:24Z</time>
      </trkpt>
      <trkpt lat="49.03398" lon="7.9446">
        <ele>162.5</ele>
        <time>2020-06-27T20:39:25Z</time>
      </trkpt>
      <trkpt lat="49.03397" lon="7.9446">
        <ele>162.5</ele>
        <time>2020-06-27T20:39:26Z</time>
      </trkpt>
      <trkpt lat="49.03397" lon="7.9446">
        <ele>162.5</ele>
        <time>2020-06-27T20:39:27Z</time>
      </trkpt>
      <trkpt lat="49.03397" lon="7.9446">
        <ele>162.5</ele>
        <time>2020-06-27T20:39:28Z</time>
      </trkpt>
      <trkpt lat="49.03397" lon="7.9446">
        <ele>162.5</ele>
        <time>2020-06-27T20:39:29Z</time>
      </trkpt>
      <trkpt lat="49.03397" lon="7.9446">
        <ele>162.5</ele>
        <time>2020-06-27T20:39:30Z</time>
      </trkpt>
      <trkpt lat="49.03398" lon="7.9446">
        <ele>162.5</ele>
        <time>2020-06-27T20:39:31Z</time>
      </trkpt>
      <trkpt lat="49.03398" lon="7.9446">
        <ele>162.5</ele>
        <time>2020-06-27T20:39:32Z</time>
      </trkpt>
      <trkpt lat="49.03398" lon="7.9446">
        <ele>162.5</ele>
        <time>2020-06-27T20:39:33Z</time>
      </trkpt>
      <trkpt lat="49.03398" lon="7.9446">
        <ele>162.5</ele>
        <time>2020-06-27T20:39:34Z</time>
      </trkpt>
      <trkpt lat="49.03412" lon="7.9445">
        <ele>162.6</ele>
        <time>2020-06-27T20:40:26Z</time>
      </trkpt>
      <trkpt lat="49.03411" lon="7.94452">
        <ele>162.6</ele>
        <time>2020-06-27T20:40:27Z</time>
      </trkpt>
      <trkpt lat="49.0341" lon="7.94453">
        <ele>162.6</ele>
        <time>2020-06-27T20:40:28Z</time>
      </trkpt>
      <trkpt lat="49.0341" lon="7.94452">
        <ele>162.7</ele>
        <time>2020-06-27T20:40:29Z</time>
      </trkpt>
      <trkpt lat="49.0341" lon="7.94452">
        <ele>162.7</ele>
        <time>2020-06-27T20:40:30Z</time>
      </trkpt>
      <trkpt lat="49.0341" lon="7.94452">
        <ele>162.6</ele>
        <time>2020-06-27T20:40:31Z</time>
      </trkpt>
      <trkpt lat="49.0341" lon="7.94452">
        <ele>162.6</ele>
        <time>2020-06-27T20:40:32Z</time>
      </trkpt>
      <trkpt lat="49.0341" lon="7.94452">
        <ele>162.6</ele>
        <time>2020-06-27T20:40:33Z</time>
      </trkpt>
      <trkpt lat="49.0341" lon="7.94453">
        <ele>162.6</ele>
        <time>2020-06-27T20:40:34Z</time>
      </trkpt>
      <trkpt lat="49.03411" lon="7.94453">
        <ele>162.6</ele>
        <time>2020-06-27T20:40:35Z</time>
      </trkpt>
      <trkpt lat="49.03411" lon="7.94452">
        <ele>162.6</ele>
        <time>2020-06-27T20:40:36Z</time>
      </trkpt>
      <trkpt lat="49.03411" lon="7.94453">
        <ele>162.5</ele>
        <time>2020-06-27T20:40:37Z</time>
      </trkpt>
      <trkpt lat="49.03411" lon="7.94453">
        <ele>162.5</ele>
        <time>2020-06-27T20:40:38Z</time>
      </trkpt>
      <trkpt lat="49.03411" lon="7.94453">
        <ele>162.6</ele>
        <time>2020-06-27T20:40:39Z</time>
      </trkpt>
      <trkpt lat="49.03411" lon="7.94453">
        <ele>162.6</ele>
        <time>2020-06-27T20:40:40Z</time>
      </trkpt>
      <trkpt lat="49.03411" lon="7.94452">
        <ele>162.6</ele>
        <time>2020-06-27T20:40:41Z</time>
      </trkpt>
      <trkpt lat="49.0341" lon="7.9445">
        <ele>162.6</ele>
        <time>2020-06-27T20:40:42Z</time>
      </trkpt>
      <trkpt lat="49.03407" lon="7.94451">
        <ele>162.7</ele>
        <time>2020-06-27T20:40:43Z</time>
      </trkpt>
      <trkpt lat="49.03408" lon="7.94453">
        <ele>162.7</ele>
        <time>2020-06-27T20:40:44Z</time>
      </trkpt>
      <trkpt lat="49.03409" lon="7.94454">
        <ele>162.5</ele>
        <time>2020-06-27T20:40:45Z</time>
      </trkpt>
      <trkpt lat="49.03411" lon="7.94454">
        <ele>162.5</ele>
        <time>2020-06-27T20:40:46Z</time>
      </trkpt>
      <trkpt lat="49.03411" lon="7.94454">
        <ele>162.5</ele>
        <time>2020-06-27T20:40:47Z</time>
      </trkpt>
      <trkpt lat="49.03411" lon="7.94454">
        <ele>162.5</ele>
        <time>2020-06-27T20:40:48Z</time>
      </trkpt>
      <trkpt lat="49.03411" lon="7.94454">
        <ele>162.5</ele>
        <time>2020-06-27T20:40:49Z</time>
      </trkpt>
      <trkpt lat="49.03411" lon="7.94453">
        <ele>162.5</ele>
        <time>2020-06-27T20:40:50Z</time>
      </trkpt>
      <trkpt lat="49.03411" lon="7.94454">
        <ele>162.5</ele>
        <time>2020-06-27T20:40:51Z</time>
      </trkpt>
      <trkpt lat="49.03411" lon="7.94454">
        <ele>162.5</ele>
        <time>2020-06-27T20:40:52Z</time>
      </trkpt>
      <trkpt lat="49.03411" lon="7.94454">
        <ele>162.5</ele>
        <time>2020-06-27T20:40:53Z</time>
      </trkpt>
      <trkpt lat="49.03411" lon="7.94453">
        <ele>162.6</ele>
        <time>2020-06-27T20:40:54Z</time>
      </trkpt>
      <trkpt lat="49.03412" lon="7.94453">
        <ele>162.6</ele>
        <time>2020-06-27T20:40:55Z</time>
      </trkpt>
      <trkpt lat="49.03412" lon="7.94453">
        <ele>162.6</ele>
        <time>2020-06-27T20:40:56Z</time>
      </trkpt>
      <trkpt lat="49.03412" lon="7.94452">
        <ele>162.6</ele>
        <time>2020-06-27T20:40:57Z</time>
      </trkpt>
      <trkpt lat="49.03412" lon="7.94452">
        <ele>162.6</ele>
        <time>2020-06-27T20:41:06Z</time>
      </trkpt>
      <trkpt lat="49.03412" lon="7.94451">
        <ele>162.6</ele>
        <time>2020-06-27T20:41:07Z</time>
      </trkpt>
      <trkpt lat="49.03412" lon="7.94451">
        <ele>162.6</ele>
        <time>2020-06-27T20:41:08Z</time>
      </trkpt>
      <trkpt lat="49.03411" lon="7.9445">
        <ele>162.6</ele>
        <time>2020-06-27T20:41:09Z</time>
      </trkpt>
      <trkpt lat="49.03411" lon="7.9445">
        <ele>162.6</ele>
        <time>2020-06-27T20:41:10Z</time>
      </trkpt>
      <trkpt lat="49.03411" lon="7.94449">
        <ele>162.6</ele>
        <time>2020-06-27T20:41:11Z</time>
      </trkpt>
      <trkpt lat="49.0341" lon="7.9445">
        <ele>162.6</ele>
        <time>2020-06-27T20:41:12Z</time>
      </trkpt>
      <trkpt lat="49.03409" lon="7.94449">
        <ele>162.7</ele>
        <time>2020-06-27T20:41:13Z</time>
      </trkpt>
      <trkpt lat="49.03409" lon="7.9445">
        <ele>162.7</ele>
        <time>2020-06-27T20:41:14Z</time>
      </trkpt>
      <trkpt lat="49.03409" lon="7.9445">
        <ele>162.7</ele>
        <time>2020-06-27T20:41:15Z</time>
      </trkpt>
      <trkpt lat="49.03409" lon="7.9445">
        <ele>162.7</ele>
        <time>2020-06-27T20:41:16Z</time>
      </trkpt>
      <trkpt lat="49.03409" lon="7.9445">
        <ele>162.7</ele>
        <time>2020-06-27T20:41:17Z</time>
      </trkpt>
      <trkpt lat="49.0341" lon="7.94449">
        <ele>162.7</ele>
        <time>2020-06-27T20:41:18Z</time>
      </trkpt>
      <trkpt lat="49.0341" lon="7.9445">
        <ele>162.7</ele>
        <time>2020-06-27T20:41:19Z</time>
      </trkpt>
      <trkpt lat="49.0341" lon="7.94449">
        <ele>162.6</ele>
        <time>2020-06-27T20:41:20Z</time>
      </trkpt>
      <trkpt lat="49.0341" lon="7.94449">
        <ele>162.7</ele>
        <time>2020-06-27T20:41:21Z</time>
      </trkpt>
      <trkpt lat="49.0341" lon="7.94449">
        <ele>162.7</ele>
        <time>2020-06-27T20:41:22Z</time>
      </trkpt>
      <trkpt lat="49.03407" lon="7.94448">
        <ele>162.8</ele>
        <time>2020-06-27T20:41:55Z</time>
      </trkpt>
      <trkpt lat="49.03406" lon="7.94448">
        <ele>162.8</ele>
        <time>2020-06-27T20:41:56Z</time>
      </trkpt>
      <trkpt lat="49.03406" lon="7.94448">
        <ele>162.8</ele>
        <time>2020-06-27T20:41:57Z</time>
      </trkpt>
      <trkpt lat="49.03406" lon="7.94448">
        <ele>162.8</ele>
        <time>2020-06-27T20:41:58Z</time>
      </trkpt>
      <trkpt lat="49.03406" lon="7.94448">
        <ele>162.8</ele>
        <time>2020-06-27T20:41:59Z</time>
      </trkpt>
      <trkpt lat="49.03406" lon="7.94449">
        <ele>162.8</ele>
        <time>2020-06-27T20:42:00Z</time>
      </trkpt>
      <trkpt lat="49.03406" lon="7.94449">
        <ele>162.7</ele>
        <time>2020-06-27T20:42:01Z</time>
      </trkpt>
      <trkpt lat="49.03407" lon="7.94449">
        <ele>162.8</ele>
        <time>2020-06-27T20:42:02Z</time>
      </trkpt>
      <trkpt lat="49.03407" lon="7.94449">
        <ele>162.7</ele>
        <time>2020-06-27T20:42:03Z</time>
      </trkpt>
      <trkpt lat="49.03407" lon="7.94448">
        <ele>162.8</ele>
        <time>2020-06-27T20:42:04Z</time>
      </trkpt>
      <trkpt lat="49.03407" lon="7.94448">
        <ele>162.8</ele>
        <time>2020-06-27T20:42:05Z</time>
      </trkpt>
      <trkpt lat="49.03407" lon="7.94448">
        <ele>162.8</ele>
        <time>2020-06-27T20:42:06Z</time>
      </trkpt>
      <trkpt lat="49.03407" lon="7.94448">
        <ele>162.8</ele>
        <time>2020-06-27T20:42:07Z</time>
      </trkpt>
      <trkpt lat="49.03407" lon="7.94448">
        <ele>162.8</ele>
        <time>2020-06-27T20:42:08Z</time>
      </trkpt>
      <trkpt lat="49.03407" lon="7.94448">
        <ele>162.8</ele>
        <time>2020-06-27T20:42:09Z</time>
      </trkpt>
      <trkpt lat="49.03407" lon="7.94448">
        <ele>162.8</ele>
        <time>2020-06-27T20:42:10Z</time>
      </trkpt>
      <trkpt lat="49.03407" lon="7.94448">
        <ele>162.8</ele>
        <time>2020-06-27T20:42:11Z</time>
      </trkpt>
      <trkpt lat="49.03408" lon="7.94448">
        <ele>162.8</ele>
        <time>2020-06-27T20:42:12Z</time>
      </trkpt>
      <trkpt lat="49.03409" lon="7.94447">
        <ele>162.8</ele>
        <time>2020-06-27T20:42:13Z</time>
      </trkpt>
      <trkpt lat="49.03409" lon="7.94446">
        <ele>162.8</ele>
        <time>2020-06-27T20:42:14Z</time>
      </trkpt>
      <trkpt lat="49.03409" lon="7.94447">
        <ele>162.8</ele>
        <time>2020-06-27T20:42:15Z</time>
      </trkpt>
      <trkpt lat="49.03409" lon="7.94447">
        <ele>162.8</ele>
        <time>2020-06-27T20:42:16Z</time>
      </trkpt>
      <trkpt lat="49.03408" lon="7.94447">
        <ele>162.8</ele>
        <time>2020-06-27T20:42:17Z</time>
      </trkpt>
      <trkpt lat="49.03407" lon="7.94447">
        <ele>162.8</ele>
        <time>2020-06-27T20:42:18Z</time>
      </trkpt>
      <trkpt lat="49.03407" lon="7.94447">
        <ele>162.8</ele>
        <time>2020-06-27T20:42:19Z</time>
      </trkpt>
      <trkpt lat="49.03406" lon="7.94448">
        <ele>162.8</ele>
        <time>2020-06-27T20:42:20Z</time>
      </trkpt>
      <trkpt lat="49.03406" lon="7.94447">
        <ele>162.8</ele>
        <time>2020-06-27T20:42:21Z</time>
      </trkpt>
      <trkpt lat="49.03405" lon="7.94447">
        <ele>162.8</ele>
        <time>2020-06-27T20:42:22Z</time>
      </trkpt>
      <trkpt lat="49.03404" lon="7.94447">
        <ele>162.8</ele>
        <time>2020-06-27T20:42:23Z</time>
      </trkpt>
      <trkpt lat="49.03403" lon="7.94447">
        <ele>162.9</ele>
        <time>2020-06-27T20:42:24Z</time>
      </trkpt>
      <trkpt lat="49.03402" lon="7.94448">
        <ele>162.9</ele>
        <time>2020-06-27T20:42:25Z</time>
      </trkpt>
      <trkpt lat="49.03402" lon="7.94448">
        <ele>162.9</ele>
        <time>2020-06-27T20:42:26Z</time>
      </trkpt>
      <trkpt lat="49.03402" lon="7.94448">
        <ele>162.9</ele>
        <time>2020-06-27T20:42:27Z</time>
      </trkpt>
      <trkpt lat="49.03402" lon="7.94448">
        <ele>162.9</ele>
        <time>2020-06-27T20:42:28Z</time>
      </trkpt>
      <trkpt lat="49.03402" lon="7.94448">
        <ele>162.9</ele>
        <time>2020-06-27T20:42:29Z</time>
      </trkpt>
      <trkpt lat="49.03403" lon="7.94449">
        <ele>162.9</ele>
        <time>2020-06-27T20:42:30Z</time>
      </trkpt>
      <trkpt lat="49.03403" lon="7.94449">
        <ele>162.7</ele>
        <time>2020-06-27T20:42:31Z</time>
      </trkpt>
      <trkpt lat="49.03402" lon="7.94449">
        <ele>162.7</ele>
        <time>2020-06-27T20:42:32Z</time>
      </trkpt>
      <trkpt lat="49.03402" lon="7.94449">
        <ele>162.7</ele>
        <time>2020-06-27T20:42:33Z</time>
      </trkpt>
      <trkpt lat="49.03402" lon="7.94449">
        <ele>162.7</ele>
        <time>2020-06-27T20:42:34Z</time>
      </trkpt>
      <trkpt lat="49.03402" lon="7.94449">
        <ele>162.7</ele>
        <time>2020-06-27T20:42:35Z</time>
      </trkpt>
      <trkpt lat="49.03403" lon="7.94449">
        <ele>162.9</ele>
        <time>2020-06-27T20:42:36Z</time>
      </trkpt>
      <trkpt lat="49.03403" lon="7.94448">
        <ele>162.9</ele>
        <time>2020-06-27T20:42:37Z</time>
      </trkpt>
      <trkpt lat="49.03402" lon="7.94449">
        <ele>162.9</ele>
        <time>2020-06-27T20:42:38Z</time>
      </trkpt>
      <trkpt lat="49.03404" lon="7.94452">
        <ele>162.7</ele>
        <time>2020-06-27T20:45:09Z</time>
      </trkpt>
      <trkpt lat="49.03403" lon="7.94452">
        <ele>162.7</ele>
        <time>2020-06-27T20:45:10Z</time>
      </trkpt>
      <trkpt lat="49.03402" lon="7.94452">
        <ele>162.7</ele>
        <time>2020-06-27T20:45:11Z</time>
      </trkpt>
      <trkpt lat="49.03402" lon="7.94452">
        <ele>162.7</ele>
        <time>2020-06-27T20:45:12Z</time>
      </trkpt>
      <trkpt lat="49.03402" lon="7.94452">
        <ele>162.7</ele>
        <time>2020-06-27T20:45:13Z</time>
      </trkpt>
      <trkpt lat="49.03402" lon="7.94453">
        <ele>162.7</ele>
        <time>2020-06-27T20:45:14Z</time>
      </trkpt>
      <trkpt lat="49.03402" lon="7.94453">
        <ele>162.7</ele>
        <time>2020-06-27T20:45:15Z</time>
      </trkpt>
      <trkpt lat="49.03402" lon="7.94452">
        <ele>162.7</ele>
        <time>2020-06-27T20:45:16Z</time>
      </trkpt>
      <trkpt lat="49.03402" lon="7.94452">
        <ele>162.7</ele>
        <time>2020-06-27T20:45:17Z</time>
      </trkpt>
      <trkpt lat="49.03402" lon="7.94452">
        <ele>162.7</ele>
        <time>2020-06-27T20:45:18Z</time>
      </trkpt>
      <trkpt lat="49.03403" lon="7.94452">
        <ele>162.7</ele>
        <time>2020-06-27T20:45:19Z</time>
      </trkpt>
      <trkpt lat="49.03403" lon="7.94452">
        <ele>162.7</ele>
        <time>2020-06-27T20:45:20Z</time>
      </trkpt>
      <trkpt lat="49.03402" lon="7.94452">
        <ele>162.7</ele>
        <time>2020-06-27T20:45:21Z</time>
      </trkpt>
      <trkpt lat="49.03403" lon="7.94452">
        <ele>162.7</ele>
        <time>2020-06-27T20:45:22Z</time>
      </trkpt>
      <trkpt lat="49.03402" lon="7.94453">
        <ele>162.7</ele>
        <time>2020-06-27T20:45:23Z</time>
      </trkpt>
      <trkpt lat="49.03402" lon="7.94452">
        <ele>162.7</ele>
        <time>2020-06-27T20:45:24Z</time>
      </trkpt>
      <trkpt lat="49.03402" lon="7.94452">
        <ele>162.7</ele>
        <time>2020-06-27T20:45:25Z</time>
      </trkpt>
      <trkpt lat="49.03403" lon="7.94447">
        <ele>162.9</ele>
        <time>2020-06-27T20:45:44Z</time>
      </trkpt>
      <trkpt lat="49.03403" lon="7.94447">
        <ele>162.9</ele>
        <time>2020-06-27T20:45:45Z</time>
      </trkpt>
      <trkpt lat="49.03403" lon="7.94447">
        <ele>162.9</ele>
        <time>2020-06-27T20:45:46Z</time>
      </trkpt>
      <trkpt lat="49.03404" lon="7.94448">
        <ele>162.8</ele>
        <time>2020-06-27T20:45:47Z</time>
      </trkpt>
      <trkpt lat="49.03405" lon="7.94448">
        <ele>162.8</ele>
        <time>2020-06-27T20:45:48Z</time>
      </trkpt>
      <trkpt lat="49.03405" lon="7.94449">
        <ele>162.8</ele>
        <time>2020-06-27T20:45:49Z</time>
      </trkpt>
      <trkpt lat="49.03406" lon="7.94448">
        <ele>162.8</ele>
        <time>2020-06-27T20:45:50Z</time>
      </trkpt>
      <trkpt lat="49.03407" lon="7.94447">
        <ele>162.8</ele>
        <time>2020-06-27T20:45:51Z</time>
      </trkpt>
      <trkpt lat="49.03408" lon="7.94447">
        <ele>162.8</ele>
        <time>2020-06-27T20:45:52Z</time>
      </trkpt>
      <trkpt lat="49.03408" lon="7.94447">
        <ele>162.8</ele>
        <time>2020-06-27T20:45:53Z</time>
      </trkpt>
      <trkpt lat="49.03406" lon="7.94447">
        <ele>162.8</ele>
        <time>2020-06-27T20:45:54Z</time>
      </trkpt>
      <trkpt lat="49.03405" lon="7.94446">
        <ele>162.8</ele>
        <time>2020-06-27T20:45:55Z</time>
      </trkpt>
      <trkpt lat="49.03406" lon="7.94445">
        <ele>162.8</ele>
        <time>2020-06-27T20:45:56Z</time>
      </trkpt>
      <trkpt lat="49.03407" lon="7.94445">
        <ele>162.8</ele>
        <time>2020-06-27T20:45:57Z</time>
      </trkpt>
      <trkpt lat="49.03407" lon="7.94445">
        <ele>162.8</ele>
        <time>2020-06-27T20:45:58Z</time>
      </trkpt>
      <trkpt lat="49.03407" lon="7.94445">
        <ele>162.8</ele>
        <time>2020-06-27T20:45:59Z</time>
      </trkpt>
      <trkpt lat="49.03408" lon="7.94445">
        <ele>162.8</ele>
        <time>2020-06-27T20:46:00Z</time>
      </trkpt>
      <trkpt lat="49.03408" lon="7.94445">
        <ele>162.8</ele>
        <time>2020-06-27T20:46:01Z</time>
      </trkpt>
      <trkpt lat="49.03407" lon="7.94445">
        <ele>162.8</ele>
        <time>2020-06-27T20:46:02Z</time>
      </trkpt>
      <trkpt lat="49.03407" lon="7.94445">
        <ele>162.8</ele>
        <time>2020-06-27T20:46:03Z</time>
      </trkpt>
      <trkpt lat="49.03407" lon="7.94444">
        <ele>162.9</ele>
        <time>2020-06-27T20:46:04Z</time>
      </trkpt>
      <trkpt lat="49.03407" lon="7.94444">
        <ele>162.9</ele>
        <time>2020-06-27T20:46:05Z</time>
      </trkpt>
      <trkpt lat="49.03407" lon="7.94444">
        <ele>162.9</ele>
        <time>2020-06-27T20:46:06Z</time>
      </trkpt>
      <trkpt lat="49.03407" lon="7.94442">
        <ele>162.9</ele>
        <time>2020-06-27T20:46:07Z</time>
      </trkpt>
      <trkpt lat="49.03406" lon="7.94442">
        <ele>162.9</ele>
        <time>2020-06-27T20:46:08Z</time>
      </trkpt>
      <trkpt lat="49.03406" lon="7.94442">
        <ele>162.9</ele>
        <time>2020-06-27T20:46:09Z</time>
      </trkpt>
      <trkpt lat="49.03406" lon="7.94443">
        <ele>162.9</ele>
        <time>2020-06-27T20:46:10Z</time>
      </trkpt>
      <trkpt lat="49.03407" lon="7.94443">
        <ele>162.9</ele>
        <time>2020-06-27T20:46:11Z</time>
      </trkpt>
      <trkpt lat="49.03407" lon="7.94443">
        <ele>162.9</ele>
        <time>2020-06-27T20:46:12Z</time>
      </trkpt>
      <trkpt lat="49.03406" lon="7.94441">
        <ele>162.9</ele>
        <time>2020-06-27T20:46:13Z</time>
      </trkpt>
      <trkpt lat="49.03406" lon="7.94442">
        <ele>162.9</ele>
        <time>2020-06-27T20:46:14Z</time>
      </trkpt>
      <trkpt lat="49.03406" lon="7.94442">
        <ele>162.9</ele>
        <time>2020-06-27T20:46:15Z</time>
      </trkpt>
      <trkpt lat="49.03405" lon="7.94443">
        <ele>162.9</ele>
        <time>2020-06-27T20:46:16Z</time>
      </trkpt>
      <trkpt lat="49.03405" lon="7.94442">
        <ele>162.9</ele>
        <time>2020-06-27T20:46:17Z</time>
      </trkpt>
      <trkpt lat="49.03405" lon="7.94443">
        <ele>162.9</ele>
        <time>2020-06-27T20:46:18Z</time>
      </trkpt>
      <trkpt lat="49.03405" lon="7.94443">
        <ele>162.9</ele>
        <time>2020-06-27T20:46:19Z</time>
      </trkpt>
      <trkpt lat="49.03405" lon="7.94443">
        <ele>162.9</ele>
        <time>2020-06-27T20:46:20Z</time>
      </trkpt>
      <trkpt lat="49.03405" lon="7.94443">
        <ele>162.9</ele>
        <time>2020-06-27T20:46:21Z</time>
      </trkpt>
      <trkpt lat="49.03405" lon="7.94444">
        <ele>162.9</ele>
        <time>2020-06-27T20:46:22Z</time>
      </trkpt>
      <trkpt lat="49.03405" lon="7.94444">
        <ele>162.9</ele>
        <time>2020-06-27T20:46:23Z</time>
      </trkpt>
      <trkpt lat="49.03404" lon="7.94443">
        <ele>162.9</ele>
        <time>2020-06-27T20:46:24Z</time>
      </trkpt>
      <trkpt lat="49.03403" lon="7.94442">
        <ele>163</ele>
        <time>2020-06-27T20:46:25Z</time>
      </trkpt>
      <trkpt lat="49.03402" lon="7.94443">
        <ele>163</ele>
        <time>2020-06-27T20:46:26Z</time>
      </trkpt>
      <trkpt lat="49.03401" lon="7.94442">
        <ele>163</ele>
        <time>2020-06-27T20:46:27Z</time>
      </trkpt>
      <trkpt lat="49.03401" lon="7.94442">
        <ele>163</ele>
        <time>2020-06-27T20:46:28Z</time>
      </trkpt>
      <trkpt lat="49.03401" lon="7.94444">
        <ele>163</ele>
        <time>2020-06-27T20:46:29Z</time>
      </trkpt>
      <trkpt lat="49.03401" lon="7.94446">
        <ele>162.9</ele>
        <time>2020-06-27T20:46:30Z</time>
      </trkpt>
      <trkpt lat="49.03401" lon="7.94447">
        <ele>162.9</ele>
        <time>2020-06-27T20:46:31Z</time>
      </trkpt>
      <trkpt lat="49.03402" lon="7.94448">
        <ele>162.9</ele>
        <time>2020-06-27T20:46:32Z</time>
      </trkpt>
      <trkpt lat="49.03402" lon="7.94448">
        <ele>162.9</ele>
        <time>2020-06-27T20:46:33Z</time>
      </trkpt>
      <trkpt lat="49.03402" lon="7.94448">
        <ele>162.9</ele>
        <time>2020-06-27T20:46:34Z</time>
      </trkpt>
      <trkpt lat="49.03401" lon="7.94449">
        <ele>162.8</ele>
        <time>2020-06-27T20:46:35Z</time>
      </trkpt>
      <trkpt lat="49.03401" lon="7.9445">
        <ele>162.8</ele>
        <time>2020-06-27T20:46:36Z</time>
      </trkpt>
      <trkpt lat="49.03401" lon="7.9445">
        <ele>162.8</ele>
        <time>2020-06-27T20:46:37Z</time>
      </trkpt>
      <trkpt lat="49.03401" lon="7.94451">
        <ele>162.8</ele>
        <time>2020-06-27T20:46:38Z</time>
      </trkpt>
      <trkpt lat="49.03401" lon="7.94451">
        <ele>162.8</ele>
        <time>2020-06-27T20:46:39Z</time>
      </trkpt>
      <trkpt lat="49.03401" lon="7.94452">
        <ele>162.8</ele>
        <time>2020-06-27T20:46:40Z</time>
      </trkpt>
      <trkpt lat="49.034" lon="7.94451">
        <ele>162.8</ele>
        <time>2020-06-27T20:46:41Z</time>
      </trkpt>
      <trkpt lat="49.03401" lon="7.94449">
        <ele>162.8</ele>
        <time>2020-06-27T20:46:42Z</time>
      </trkpt>
      <trkpt lat="49.034" lon="7.9445">
        <ele>162.8</ele>
        <time>2020-06-27T20:46:43Z</time>
      </trkpt>
      <trkpt lat="49.034" lon="7.9445">
        <ele>162.8</ele>
        <time>2020-06-27T20:46:44Z</time>
      </trkpt>
      <trkpt lat="49.03399" lon="7.9445">
        <ele>162.8</ele>
        <time>2020-06-27T20:46:45Z</time>
      </trkpt>
      <trkpt lat="49.03398" lon="7.94451">
        <ele>162.8</ele>
        <time>2020-06-27T20:46:46Z</time>
      </trkpt>
      <trkpt lat="49.03398" lon="7.9445">
        <ele>162.8</ele>
        <time>2020-06-27T20:46:47Z</time>
      </trkpt>
      <trkpt lat="49.03399" lon="7.94449">
        <ele>162.8</ele>
        <time>2020-06-27T20:46:48Z</time>
      </trkpt>
      <trkpt lat="49.034" lon="7.94449">
        <ele>162.7</ele>
        <time>2020-06-27T20:46:49Z</time>
      </trkpt>
      <trkpt lat="49.034" lon="7.94449">
        <ele>162.7</ele>
        <time>2020-06-27T20:46:50Z</time>
      </trkpt>
      <trkpt lat="49.034" lon="7.94449">
        <ele>162.7</ele>
        <time>2020-06-27T20:46:51Z</time>
      </trkpt>
      <trkpt lat="49.034" lon="7.94449">
        <ele>162.7</ele>
        <time>2020-06-27T20:46:52Z</time>
      </trkpt>
      <trkpt lat="49.03401" lon="7.94449">
        <ele>162.7</ele>
        <time>2020-06-27T20:46:53Z</time>
      </trkpt>
      <trkpt lat="49.03401" lon="7.94449">
        <ele>162.7</ele>
        <time>2020-06-27T20:46:54Z</time>
      </trkpt>
      <trkpt lat="49.03401" lon="7.94449">
        <ele>162.7</ele>
        <time>2020-06-27T20:46:55Z</time>
      </trkpt>
      <trkpt lat="49.03402" lon="7.94449">
        <ele>162.6</ele>
        <time>2020-06-27T20:46:56Z</time>
      </trkpt>
      <trkpt lat="49.03402" lon="7.94449">
        <ele>162.6</ele>
        <time>2020-06-27T20:46:57Z</time>
      </trkpt>
      <trkpt lat="49.03402" lon="7.94449">
        <ele>162.8</ele>
        <time>2020-06-27T20:46:58Z</time>
      </trkpt>
      <trkpt lat="49.03402" lon="7.94448">
        <ele>162.8</ele>
        <time>2020-06-27T20:46:59Z</time>
      </trkpt>
      <trkpt lat="49.03401" lon="7.94449">
        <ele>162.8</ele>
        <time>2020-06-27T20:47:00Z</time>
      </trkpt>
      <trkpt lat="49.03402" lon="7.9445">
        <ele>162.6</ele>
        <time>2020-06-27T20:47:01Z</time>
      </trkpt>
      <trkpt lat="49.03402" lon="7.9445">
        <ele>162.6</ele>
        <time>2020-06-27T20:47:02Z</time>
      </trkpt>
      <trkpt lat="49.03403" lon="7.94449">
        <ele>162.8</ele>
        <time>2020-06-27T20:47:03Z</time>
      </trkpt>
      <trkpt lat="49.03403" lon="7.94448">
        <ele>162.8</ele>
        <time>2020-06-27T20:47:04Z</time>
      </trkpt>
      <trkpt lat="49.03404" lon="7.94446">
        <ele>162.8</ele>
        <time>2020-06-27T20:47:05Z</time>
      </trkpt>
      <trkpt lat="49.03404" lon="7.94446">
        <ele>162.8</ele>
        <time>2020-06-27T20:47:06Z</time>
      </trkpt>
      <trkpt lat="49.03405" lon="7.94445">
        <ele>162.7</ele>
        <time>2020-06-27T20:47:07Z</time>
      </trkpt>
      <trkpt lat="49.03403" lon="7.94446">
        <ele>162.8</ele>
        <time>2020-06-27T20:47:08Z</time>
      </trkpt>
      <trkpt lat="49.03403" lon="7.94447">
        <ele>162.7</ele>
        <time>2020-06-27T20:47:09Z</time>
      </trkpt>
      <trkpt lat="49.03403" lon="7.94447">
        <ele>162.7</ele>
        <time>2020-06-27T20:47:10Z</time>
      </trkpt>
      <trkpt lat="49.03403" lon="7.94447">
        <ele>162.7</ele>
        <time>2020-06-27T20:47:11Z</time>
      </trkpt>
      <trkpt lat="49.03402" lon="7.94448">
        <ele>162.7</ele>
        <time>2020-06-27T20:47:12Z</time>
      </trkpt>
      <trkpt lat="49.03402" lon="7.94448">
        <ele>162.7</ele>
        <time>2020-06-27T20:47:13Z</time>
      </trkpt>
      <trkpt lat="49.03403" lon="7.94448">
        <ele>162.7</ele>
        <time>2020-06-27T20:47:14Z</time>
      </trkpt>
      <trkpt lat="49.03402" lon="7.94448">
        <ele>162.7</ele>
        <time>2020-06-27T20:47:15Z</time>
      </trkpt>
      <trkpt lat="49.03403" lon="7.94446">
        <ele>162.7</ele>
        <time>2020-06-27T20:47:16Z</time>
      </trkpt>
      <trkpt lat="49.03403" lon="7.94446">
        <ele>162.7</ele>
        <time>2020-06-27T20:47:17Z</time>
      </trkpt>
      <trkpt lat="49.03403" lon="7.94446">
        <ele>162.7</ele>
        <time>2020-06-27T20:47:18Z</time>
      </trkpt>
      <trkpt lat="49.03403" lon="7.94447">
        <ele>162.7</ele>
        <time>2020-06-27T20:47:19Z</time>
      </trkpt>
      <trkpt lat="49.03402" lon="7.94447">
        <ele>162.7</ele>
        <time>2020-06-27T20:47:20Z</time>
      </trkpt>
      <trkpt lat="49.03403" lon="7.94446">
        <ele>162.7</ele>
        <time>2020-06-27T20:47:21Z</time>
      </trkpt>
      <trkpt lat="49.03404" lon="7.94445">
        <ele>162.7</ele>
        <time>2020-06-27T20:47:22Z</time>
      </trkpt>
      <trkpt lat="49.03404" lon="7.94445">
        <ele>162.7</ele>
        <time>2020-06-27T20:47:23Z</time>
      </trkpt>
      <trkpt lat="49.03404" lon="7.94445">
        <ele>162.7</ele>
        <time>2020-06-27T20:47:24Z</time>
      </trkpt>
      <trkpt lat="49.03404" lon="7.94445">
        <ele>162.7</ele>
        <time>2020-06-27T20:47:25Z</time>
      </trkpt>
      <trkpt lat="49.03405" lon="7.94444">
        <ele>162.7</ele>
        <time>2020-06-27T20:47:26Z</time>
      </trkpt>
      <trkpt lat="49.03405" lon="7.94444">
        <ele>162.7</ele>
        <time>2020-06-27T20:47:27Z</time>
      </trkpt>
      <trkpt lat="49.03404" lon="7.94445">
        <ele>162.7</ele>
        <time>2020-06-27T20:47:28Z</time>
      </trkpt>
      <trkpt lat="49.03405" lon="7.94444">
        <ele>162.6</ele>
        <time>2020-06-27T20:47:29Z</time>
      </trkpt>
      <trkpt lat="49.03405" lon="7.94444">
        <ele>162.6</ele>
        <time>2020-06-27T20:47:30Z</time>
      </trkpt>
      <trkpt lat="49.03405" lon="7.94444">
        <ele>162.6</ele>
        <time>2020-06-27T20:47:31Z</time>
      </trkpt>
      <trkpt lat="49.03405" lon="7.94444">
        <ele>162.6</ele>
        <time>2020-06-27T20:47:32Z</time>
      </trkpt>
      <trkpt lat="49.03405" lon="7.94444">
        <ele>162.6</ele>
        <time>2020-06-27T20:47:33Z</time>
      </trkpt>
      <trkpt lat="49.03405" lon="7.94445">
        <ele>162.5</ele>
        <time>2020-06-27T20:47:34Z</time>
      </trkpt>
      <trkpt lat="49.03405" lon="7.94445">
        <ele>162.5</ele>
        <time>2020-06-27T20:47:35Z</time>
      </trkpt>
      <trkpt lat="49.03405" lon="7.94445">
        <ele>162.6</ele>
        <time>2020-06-27T20:47:36Z</time>
      </trkpt>
      <trkpt lat="49.03406" lon="7.94444">
        <ele>162.6</ele>
        <time>2020-06-27T20:47:37Z</time>
      </trkpt>
      <trkpt lat="49.03407" lon="7.94444">
        <ele>162.6</ele>
        <time>2020-06-27T20:47:38Z</time>
      </trkpt>
      <trkpt lat="49.03407" lon="7.94444">
        <ele>162.6</ele>
        <time>2020-06-27T20:47:39Z</time>
      </trkpt>
      <trkpt lat="49.03406" lon="7.94445">
        <ele>162.5</ele>
        <time>2020-06-27T20:47:40Z</time>
      </trkpt>
      <trkpt lat="49.03406" lon="7.94443">
        <ele>162.6</ele>
        <time>2020-06-27T20:47:41Z</time>
      </trkpt>
      <trkpt lat="49.03405" lon="7.94444">
        <ele>162.6</ele>
        <time>2020-06-27T20:47:42Z</time>
      </trkpt>
      <trkpt lat="49.03404" lon="7.94444">
        <ele>162.7</ele>
        <time>2020-06-27T20:47:43Z</time>
      </trkpt>
      <trkpt lat="49.03403" lon="7.94444">
        <ele>162.7</ele>
        <time>2020-06-27T20:47:44Z</time>
      </trkpt>
      <trkpt lat="49.03403" lon="7.94442">
        <ele>162.7</ele>
        <time>2020-06-27T20:47:45Z</time>
      </trkpt>
      <trkpt lat="49.03403" lon="7.94443">
        <ele>162.7</ele>
        <time>2020-06-27T20:47:46Z</time>
      </trkpt>
      <trkpt lat="49.03403" lon="7.94445">
        <ele>162.7</ele>
        <time>2020-06-27T20:47:47Z</time>
      </trkpt>
      <trkpt lat="49.03403" lon="7.94444">
        <ele>162.6</ele>
        <time>2020-06-27T20:47:48Z</time>
      </trkpt>
      <trkpt lat="49.03403" lon="7.94444">
        <ele>162.6</ele>
        <time>2020-06-27T20:47:49Z</time>
      </trkpt>
      <trkpt lat="49.03402" lon="7.94443">
        <ele>162.6</ele>
        <time>2020-06-27T20:47:50Z</time>
      </trkpt>
      <trkpt lat="49.03402" lon="7.94444">
        <ele>162.6</ele>
        <time>2020-06-27T20:47:51Z</time>
      </trkpt>
      <trkpt lat="49.03402" lon="7.94444">
        <ele>162.6</ele>
        <time>2020-06-27T20:47:52Z</time>
      </trkpt>
      <trkpt lat="49.03402" lon="7.94443">
        <ele>162.6</ele>
        <time>2020-06-27T20:47:53Z</time>
      </trkpt>
      <trkpt lat="49.03403" lon="7.94443">
        <ele>162.6</ele>
        <time>2020-06-27T20:47:54Z</time>
      </trkpt>
      <trkpt lat="49.03404" lon="7.94443">
        <ele>162.6</ele>
        <time>2020-06-27T20:47:55Z</time>
      </trkpt>
      <trkpt lat="49.03404" lon="7.94443">
        <ele>162.6</ele>
        <time>2020-06-27T20:47:56Z</time>
      </trkpt>
      <trkpt lat="49.03404" lon="7.94443">
        <ele>162.6</ele>
        <time>2020-06-27T20:47:57Z</time>
      </trkpt>
      <trkpt lat="49.03404" lon="7.94443">
        <ele>162.5</ele>
        <time>2020-06-27T20:47:58Z</time>
      </trkpt>
      <trkpt lat="49.03405" lon="7.94443">
        <ele>162.5</ele>
        <time>2020-06-27T20:47:59Z</time>
      </trkpt>
      <trkpt lat="49.03405" lon="7.94443">
        <ele>162.5</ele>
        <time>2020-06-27T20:48:00Z</time>
      </trkpt>
      <trkpt lat="49.03404" lon="7.94444">
        <ele>162.5</ele>
        <time>2020-06-27T20:48:01Z</time>
      </trkpt>
      <trkpt lat="49.03405" lon="7.94444">
        <ele>162.5</ele>
        <time>2020-06-27T20:48:02Z</time>
      </trkpt>
      <trkpt lat="49.03405" lon="7.94444">
        <ele>162.5</ele>
        <time>2020-06-27T20:48:03Z</time>
      </trkpt>
      <trkpt lat="49.03405" lon="7.94445">
        <ele>162.5</ele>
        <time>2020-06-27T20:48:04Z</time>
      </trkpt>
      <trkpt lat="49.03405" lon="7.94445">
        <ele>162.4</ele>
        <time>2020-06-27T20:48:05Z</time>
      </trkpt>
      <trkpt lat="49.03404" lon="7.94445">
        <ele>162.5</ele>
        <time>2020-06-27T20:48:06Z</time>
      </trkpt>
      <trkpt lat="49.03403" lon="7.94445">
        <ele>162.5</ele>
        <time>2020-06-27T20:48:07Z</time>
      </trkpt>
      <trkpt lat="49.03403" lon="7.94446">
        <ele>162.5</ele>
        <time>2020-06-27T20:48:08Z</time>
      </trkpt>
      <trkpt lat="49.03404" lon="7.94446">
        <ele>162.4</ele>
        <time>2020-06-27T20:48:09Z</time>
      </trkpt>
      <trkpt lat="49.03404" lon="7.94446">
        <ele>162.4</ele>
        <time>2020-06-27T20:48:10Z</time>
      </trkpt>
      <trkpt lat="49.03404" lon="7.94446">
        <ele>162.3</ele>
        <time>2020-06-27T20:48:11Z</time>
      </trkpt>
      <trkpt lat="49.03404" lon="7.94446">
        <ele>162.4</ele>
        <time>2020-06-27T20:48:12Z</time>
      </trkpt>
      <trkpt lat="49.03404" lon="7.94446">
        <ele>162.4</ele>
        <time>2020-06-27T20:48:13Z</time>
      </trkpt>
      <trkpt lat="49.03403" lon="7.94447">
        <ele>162.4</ele>
        <time>2020-06-27T20:48:14Z</time>
      </trkpt>
      <trkpt lat="49.03403" lon="7.94447">
        <ele>162.4</ele>
        <time>2020-06-27T20:48:15Z</time>
      </trkpt>
      <trkpt lat="49.03403" lon="7.94447">
        <ele>162.4</ele>
        <time>2020-06-27T20:48:16Z</time>
      </trkpt>
      <trkpt lat="49.03403" lon="7.94447">
        <ele>162.4</ele>
        <time>2020-06-27T20:48:17Z</time>
      </trkpt>
      <trkpt lat="49.03404" lon="7.94445">
        <ele>162.4</ele>
        <time>2020-06-27T20:48:18Z</time>
      </trkpt>
      <trkpt lat="49.03404" lon="7.94445">
        <ele>162.4</ele>
        <time>2020-06-27T20:48:19Z</time>
      </trkpt>
      <trkpt lat="49.03404" lon="7.94444">
        <ele>162.5</ele>
        <time>2020-06-27T20:48:20Z</time>
      </trkpt>
      <trkpt lat="49.03404" lon="7.94443">
        <ele>162.4</ele>
        <time>2020-06-27T20:48:21Z</time>
      </trkpt>
      <trkpt lat="49.03405" lon="7.94443">
        <ele>162.4</ele>
        <time>2020-06-27T20:48:22Z</time>
      </trkpt>
      <trkpt lat="49.03404" lon="7.94442">
        <ele>162.5</ele>
        <time>2020-06-27T20:48:23Z</time>
      </trkpt>
      <trkpt lat="49.03404" lon="7.94444">
        <ele>162.5</ele>
        <time>2020-06-27T20:48:24Z</time>
      </trkpt>
      <trkpt lat="49.03405" lon="7.94445">
        <ele>162.3</ele>
        <time>2020-06-27T20:48:25Z</time>
      </trkpt>
      <trkpt lat="49.03406" lon="7.94445">
        <ele>162.3</ele>
        <time>2020-06-27T20:48:26Z</time>
      </trkpt>
      <trkpt lat="49.03407" lon="7.94444">
        <ele>162.4</ele>
        <time>2020-06-27T20:48:27Z</time>
      </trkpt>
      <trkpt lat="49.03406" lon="7.94445">
        <ele>162.3</ele>
        <time>2020-06-27T20:48:28Z</time>
      </trkpt>
      <trkpt lat="49.03406" lon="7.94445">
        <ele>162.3</ele>
        <time>2020-06-27T20:48:29Z</time>
      </trkpt>
      <trkpt lat="49.03406" lon="7.94447">
        <ele>162.3</ele>
        <time>2020-06-27T20:48:30Z</time>
      </trkpt>
      <trkpt lat="49.03406" lon="7.94447">
        <ele>162.3</ele>
        <time>2020-06-27T20:48:31Z</time>
      </trkpt>
      <trkpt lat="49.03406" lon="7.94447">
        <ele>162.3</ele>
        <time>2020-06-27T20:48:32Z</time>
      </trkpt>
      <trkpt lat="49.03405" lon="7.94447">
        <ele>162.3</ele>
        <time>2020-06-27T20:48:33Z</time>
      </trkpt>
      <trkpt lat="49.03405" lon="7.94447">
        <ele>162.3</ele>
        <time>2020-06-27T20:48:34Z</time>
      </trkpt>
      <trkpt lat="49.03403" lon="7.94447">
        <ele>162.4</ele>
        <time>2020-06-27T20:48:35Z</time>
      </trkpt>
      <trkpt lat="49.03403" lon="7.94447">
        <ele>162.4</ele>
        <time>2020-06-27T20:48:36Z</time>
      </trkpt>
      <trkpt lat="49.03403" lon="7.94447">
        <ele>162.4</ele>
        <time>2020-06-27T20:48:37Z</time>
      </trkpt>
      <trkpt lat="49.03403" lon="7.94447">
        <ele>162.4</ele>
        <time>2020-06-27T20:48:38Z</time>
      </trkpt>
      <trkpt lat="49.03402" lon="7.94448">
        <ele>162.4</ele>
        <time>2020-06-27T20:48:39Z</time>
      </trkpt>
      <trkpt lat="49.03401" lon="7.94449">
        <ele>162.3</ele>
        <time>2020-06-27T20:48:40Z</time>
      </trkpt>
      <trkpt lat="49.03401" lon="7.94451">
        <ele>162.3</ele>
        <time>2020-06-27T20:48:41Z</time>
      </trkpt>
      <trkpt lat="49.034" lon="7.94451">
        <ele>162.3</ele>
        <time>2020-06-27T20:48:42Z</time>
      </trkpt>
      <trkpt lat="49.03399" lon="7.94453">
        <ele>162.3</ele>
        <time>2020-06-27T20:48:43Z</time>
      </trkpt>
      <trkpt lat="49.03399" lon="7.94452">
        <ele>162.3</ele>
        <time>2020-06-27T20:48:44Z</time>
      </trkpt>
      <trkpt lat="49.03399" lon="7.94451">
        <ele>162.3</ele>
        <time>2020-06-27T20:48:45Z</time>
      </trkpt>
      <trkpt lat="49.03399" lon="7.94451">
        <ele>162.3</ele>
        <time>2020-06-27T20:48:46Z</time>
      </trkpt>
      <trkpt lat="49.03398" lon="7.94451">
        <ele>162.3</ele>
        <time>2020-06-27T20:48:47Z</time>
      </trkpt>
      <trkpt lat="49.03399" lon="7.94451">
        <ele>162.3</ele>
        <time>2020-06-27T20:48:48Z</time>
      </trkpt>
      <trkpt lat="49.03398" lon="7.94451">
        <ele>162.3</ele>
        <time>2020-06-27T20:48:49Z</time>
      </trkpt>
      <trkpt lat="49.03397" lon="7.94451">
        <ele>162.3</ele>
        <time>2020-06-27T20:48:50Z</time>
      </trkpt>
      <trkpt lat="49.03397" lon="7.94451">
        <ele>162.3</ele>
        <time>2020-06-27T20:48:51Z</time>
      </trkpt>
      <trkpt lat="49.03396" lon="7.94451">
        <ele>162.3</ele>
        <time>2020-06-27T20:48:52Z</time>
      </trkpt>
      <trkpt lat="49.03396" lon="7.94451">
        <ele>162.3</ele>
        <time>2020-06-27T20:48:53Z</time>
      </trkpt>
      <trkpt lat="49.03397" lon="7.94452">
        <ele>162.3</ele>
        <time>2020-06-27T20:48:54Z</time>
      </trkpt>
      <trkpt lat="49.03397" lon="7.94455">
        <ele>162.1</ele>
        <time>2020-06-27T20:48:55Z</time>
      </trkpt>
      <trkpt lat="49.03398" lon="7.94455">
        <ele>162.1</ele>
        <time>2020-06-27T20:48:56Z</time>
      </trkpt>
      <trkpt lat="49.03398" lon="7.94456">
        <ele>162.1</ele>
        <time>2020-06-27T20:48:57Z</time>
      </trkpt>
      <trkpt lat="49.03399" lon="7.94455">
        <ele>162.1</ele>
        <time>2020-06-27T20:48:58Z</time>
      </trkpt>
      <trkpt lat="49.034" lon="7.94453">
        <ele>162.3</ele>
        <time>2020-06-27T20:48:59Z</time>
      </trkpt>
      <trkpt lat="49.03401" lon="7.94454">
        <ele>162.1</ele>
        <time>2020-06-27T20:49:00Z</time>
      </trkpt>
      <trkpt lat="49.03401" lon="7.94454">
        <ele>162.1</ele>
        <time>2020-06-27T20:49:01Z</time>
      </trkpt>
      <trkpt lat="49.03401" lon="7.94453">
        <ele>162.2</ele>
        <time>2020-06-27T20:49:02Z</time>
      </trkpt>
      <trkpt lat="49.03402" lon="7.94453">
        <ele>162.2</ele>
        <time>2020-06-27T20:49:03Z</time>
      </trkpt>
      <trkpt lat="49.03402" lon="7.94452">
        <ele>162.2</ele>
        <time>2020-06-27T20:49:04Z</time>
      </trkpt>
      <trkpt lat="49.03403" lon="7.94451">
        <ele>162.2</ele>
        <time>2020-06-27T20:49:05Z</time>
      </trkpt>
      <trkpt lat="49.03404" lon="7.94451">
        <ele>162.2</ele>
        <time>2020-06-27T20:49:06Z</time>
      </trkpt>
      <trkpt lat="49.03405" lon="7.9445">
        <ele>162.2</ele>
        <time>2020-06-27T20:49:07Z</time>
      </trkpt>
      <trkpt lat="49.03405" lon="7.94451">
        <ele>162.2</ele>
        <time>2020-06-27T20:49:08Z</time>
      </trkpt>
      <trkpt lat="49.03405" lon="7.94451">
        <ele>162.2</ele>
        <time>2020-06-27T20:49:09Z</time>
      </trkpt>
      <trkpt lat="49.03405" lon="7.94451">
        <ele>162.2</ele>
        <time>2020-06-27T20:49:10Z</time>
      </trkpt>
      <trkpt lat="49.03405" lon="7.9445">
        <ele>162.2</ele>
        <time>2020-06-27T20:49:11Z</time>
      </trkpt>
      <trkpt lat="49.03405" lon="7.9445">
        <ele>162.2</ele>
        <time>2020-06-27T20:49:12Z</time>
      </trkpt>
      <trkpt lat="49.03404" lon="7.9445">
        <ele>162.2</ele>
        <time>2020-06-27T20:49:13Z</time>
      </trkpt>
      <trkpt lat="49.03404" lon="7.94451">
        <ele>162.2</ele>
        <time>2020-06-27T20:49:14Z</time>
      </trkpt>
      <trkpt lat="49.03405" lon="7.94451">
        <ele>162.2</ele>
        <time>2020-06-27T20:49:15Z</time>
      </trkpt>
      <trkpt lat="49.03405" lon="7.94452">
        <ele>162.2</ele>
        <time>2020-06-27T20:49:16Z</time>
      </trkpt>
      <trkpt lat="49.03405" lon="7.94452">
        <ele>162.2</ele>
        <time>2020-06-27T20:49:17Z</time>
      </trkpt>
      <trkpt lat="49.03405" lon="7.94452">
        <ele>162.2</ele>
        <time>2020-06-27T20:49:18Z</time>
      </trkpt>
      <trkpt lat="49.03406" lon="7.94453">
        <ele>162.2</ele>
        <time>2020-06-27T20:49:19Z</time>
      </trkpt>
      <trkpt lat="49.03407" lon="7.94453">
        <ele>162.2</ele>
        <time>2020-06-27T20:49:20Z</time>
      </trkpt>
      <trkpt lat="49.03407" lon="7.94452">
        <ele>162.2</ele>
        <time>2020-06-27T20:49:21Z</time>
      </trkpt>
      <trkpt lat="49.03408" lon="7.94452">
        <ele>162.2</ele>
        <time>2020-06-27T20:49:22Z</time>
      </trkpt>
      <trkpt lat="49.03408" lon="7.94452">
        <ele>162.2</ele>
        <time>2020-06-27T20:49:23Z</time>
      </trkpt>
      <trkpt lat="49.03408" lon="7.94452">
        <ele>162.2</ele>
        <time>2020-06-27T20:49:24Z</time>
      </trkpt>
      <trkpt lat="49.03408" lon="7.94452">
        <ele>162.2</ele>
        <time>2020-06-27T20:49:25Z</time>
      </trkpt>
      <trkpt lat="49.03407" lon="7.94454">
        <ele>162.1</ele>
        <time>2020-06-27T20:49:26Z</time>
      </trkpt>
      <trkpt lat="49.03406" lon="7.94455">
        <ele>162.1</ele>
        <time>2020-06-27T20:49:27Z</time>
      </trkpt>
      <trkpt lat="49.03407" lon="7.94455">
        <ele>162.1</ele>
        <time>2020-06-27T20:49:28Z</time>
      </trkpt>
      <trkpt lat="49.03407" lon="7.94455">
        <ele>162.1</ele>
        <time>2020-06-27T20:49:29Z</time>
      </trkpt>
      <trkpt lat="49.03408" lon="7.94454">
        <ele>162</ele>
        <time>2020-06-27T20:49:30Z</time>
      </trkpt>
      <trkpt lat="49.03408" lon="7.94454">
        <ele>162</ele>
        <time>2020-06-27T20:49:31Z</time>
      </trkpt>
      <trkpt lat="49.03406" lon="7.94454">
        <ele>162.1</ele>
        <time>2020-06-27T20:49:32Z</time>
      </trkpt>
      <trkpt lat="49.03405" lon="7.94453">
        <ele>162.2</ele>
        <time>2020-06-27T20:49:33Z</time>
      </trkpt>
      <trkpt lat="49.03404" lon="7.94452">
        <ele>162.2</ele>
        <time>2020-06-27T20:49:34Z</time>
      </trkpt>
      <trkpt lat="49.03404" lon="7.94451">
        <ele>162.2</ele>
        <time>2020-06-27T20:49:35Z</time>
      </trkpt>
      <trkpt lat="49.03404" lon="7.9445">
        <ele>162.2</ele>
        <time>2020-06-27T20:49:36Z</time>
      </trkpt>
      <trkpt lat="49.03404" lon="7.94449">
        <ele>162.2</ele>
        <time>2020-06-27T20:49:37Z</time>
      </trkpt>
      <trkpt lat="49.03404" lon="7.94449">
        <ele>162.2</ele>
        <time>2020-06-27T20:49:38Z</time>
      </trkpt>
      <trkpt lat="49.03404" lon="7.94449">
        <ele>162.2</ele>
        <time>2020-06-27T20:49:39Z</time>
      </trkpt>
      <trkpt lat="49.03404" lon="7.94448">
        <ele>162.4</ele>
        <time>2020-06-27T20:49:40Z</time>
      </trkpt>
      <trkpt lat="49.03403" lon="7.94448">
        <ele>162.4</ele>
        <time>2020-06-27T20:49:41Z</time>
      </trkpt>
      <trkpt lat="49.03403" lon="7.94449">
        <ele>162.4</ele>
        <time>2020-06-27T20:49:42Z</time>
      </trkpt>
      <trkpt lat="49.03402" lon="7.9445">
        <ele>162.2</ele>
        <time>2020-06-27T20:49:43Z</time>
      </trkpt>
      <trkpt lat="49.03402" lon="7.9445">
        <ele>162.2</ele>
        <time>2020-06-27T20:49:44Z</time>
      </trkpt>
      <trkpt lat="49.03403" lon="7.94448">
        <ele>162.4</ele>
        <time>2020-06-27T20:49:45Z</time>
      </trkpt>
      <trkpt lat="49.03403" lon="7.94447">
        <ele>162.4</ele>
        <time>2020-06-27T20:49:46Z</time>
      </trkpt>
      <trkpt lat="49.03403" lon="7.94446">
        <ele>162.4</ele>
        <time>2020-06-27T20:49:47Z</time>
      </trkpt>
      <trkpt lat="49.03402" lon="7.94446">
        <ele>162.4</ele>
        <time>2020-06-27T20:49:48Z</time>
      </trkpt>
      <trkpt lat="49.03403" lon="7.94445">
        <ele>162.4</ele>
        <time>2020-06-27T20:49:49Z</time>
      </trkpt>
      <trkpt lat="49.03403" lon="7.94445">
        <ele>162.4</ele>
        <time>2020-06-27T20:49:50Z</time>
      </trkpt>
      <trkpt lat="49.03404" lon="7.94445">
        <ele>162.4</ele>
        <time>2020-06-27T20:49:51Z</time>
      </trkpt>
      <trkpt lat="49.03404" lon="7.94447">
        <ele>162.4</ele>
        <time>2020-06-27T20:49:52Z</time>
      </trkpt>
      <trkpt lat="49.03404" lon="7.94447">
        <ele>162.4</ele>
        <time>2020-06-27T20:49:53Z</time>
      </trkpt>
      <trkpt lat="49.03405" lon="7.94447">
        <ele>162.3</ele>
        <time>2020-06-27T20:49:54Z</time>
      </trkpt>
      <trkpt lat="49.03405" lon="7.94447">
        <ele>162.3</ele>
        <time>2020-06-27T20:49:55Z</time>
      </trkpt>
      <trkpt lat="49.03403" lon="7.94446">
        <ele>162.4</ele>
        <time>2020-06-27T20:49:56Z</time>
      </trkpt>
      <trkpt lat="49.03402" lon="7.94446">
        <ele>162.4</ele>
        <time>2020-06-27T20:49:57Z</time>
      </trkpt>
      <trkpt lat="49.03401" lon="7.94446">
        <ele>162.4</ele>
        <time>2020-06-27T20:49:58Z</time>
      </trkpt>
      <trkpt lat="49.03401" lon="7.94446">
        <ele>162.4</ele>
        <time>2020-06-27T20:49:59Z</time>
      </trkpt>
      <trkpt lat="49.034" lon="7.94445">
        <ele>162.4</ele>
        <time>2020-06-27T20:50:00Z</time>
      </trkpt>
      <trkpt lat="49.034" lon="7.94445">
        <ele>162.4</ele>
        <time>2020-06-27T20:50:01Z</time>
      </trkpt>
      <trkpt lat="49.03399" lon="7.94445">
        <ele>162.4</ele>
        <time>2020-06-27T20:50:02Z</time>
      </trkpt>
      <trkpt lat="49.03399" lon="7.94446">
        <ele>162.4</ele>
        <time>2020-06-27T20:50:03Z</time>
      </trkpt>
      <trkpt lat="49.03399" lon="7.94445">
        <ele>162.4</ele>
        <time>2020-06-27T20:50:04Z</time>
      </trkpt>
      <trkpt lat="49.03399" lon="7.94445">
        <ele>162.4</ele>
        <time>2020-06-27T20:50:05Z</time>
      </trkpt>
      <trkpt lat="49.03399" lon="7.94445">
        <ele>162.4</ele>
        <time>2020-06-27T20:50:06Z</time>
      </trkpt>
      <trkpt lat="49.03399" lon="7.94445">
        <ele>162.4</ele>
        <time>2020-06-27T20:50:07Z</time>
      </trkpt>
      <trkpt lat="49.03399" lon="7.94446">
        <ele>162.4</ele>
        <time>2020-06-27T20:50:08Z</time>
      </trkpt>
      <trkpt lat="49.03399" lon="7.94445">
        <ele>162.4</ele>
        <time>2020-06-27T20:50:09Z</time>
      </trkpt>
      <trkpt lat="49.03399" lon="7.94446">
        <ele>162.4</ele>
        <time>2020-06-27T20:50:10Z</time>
      </trkpt>
      <trkpt lat="49.034" lon="7.94446">
        <ele>162.4</ele>
        <time>2020-06-27T20:50:11Z</time>
      </trkpt>
      <trkpt lat="49.034" lon="7.94445">
        <ele>162.4</ele>
        <time>2020-06-27T20:50:12Z</time>
      </trkpt>
      <trkpt lat="49.03402" lon="7.94454">
        <ele>162.1</ele>
        <time>2020-06-27T20:50:46Z</time>
      </trkpt>
      <trkpt lat="49.03403" lon="7.94453">
        <ele>162.2</ele>
        <time>2020-06-27T20:50:47Z</time>
      </trkpt>
      <trkpt lat="49.03404" lon="7.94452">
        <ele>162.2</ele>
        <time>2020-06-27T20:50:48Z</time>
      </trkpt>
      <trkpt lat="49.03403" lon="7.94453">
        <ele>162.2</ele>
        <time>2020-06-27T20:50:49Z</time>
      </trkpt>
      <trkpt lat="49.03403" lon="7.94454">
        <ele>162.1</ele>
        <time>2020-06-27T20:50:50Z</time>
      </trkpt>
      <trkpt lat="49.03404" lon="7.94453">
        <ele>162.1</ele>
        <time>2020-06-27T20:50:51Z</time>
      </trkpt>
      <trkpt lat="49.03405" lon="7.94453">
        <ele>162.2</ele>
        <time>2020-06-27T20:50:52Z</time>
      </trkpt>
      <trkpt lat="49.03405" lon="7.94453">
        <ele>162.2</ele>
        <time>2020-06-27T20:50:53Z</time>
      </trkpt>
      <trkpt lat="49.03406" lon="7.94452">
        <ele>162.2</ele>
        <time>2020-06-27T20:50:54Z</time>
      </trkpt>
      <trkpt lat="49.03406" lon="7.94452">
        <ele>162.2</ele>
        <time>2020-06-27T20:50:55Z</time>
      </trkpt>
      <trkpt lat="49.03406" lon="7.94453">
        <ele>162.2</ele>
        <time>2020-06-27T20:50:56Z</time>
      </trkpt>
      <trkpt lat="49.03406" lon="7.94452">
        <ele>162.2</ele>
        <time>2020-06-27T20:50:57Z</time>
      </trkpt>
      <trkpt lat="49.03407" lon="7.94452">
        <ele>162.2</ele>
        <time>2020-06-27T20:50:58Z</time>
      </trkpt>
      <trkpt lat="49.03407" lon="7.94453">
        <ele>162.2</ele>
        <time>2020-06-27T20:50:59Z</time>
      </trkpt>
      <trkpt lat="49.03407" lon="7.94453">
        <ele>162.2</ele>
        <time>2020-06-27T20:51:00Z</time>
      </trkpt>
      <trkpt lat="49.03407" lon="7.94453">
        <ele>162.2</ele>
        <time>2020-06-27T20:51:01Z</time>
      </trkpt>
      <trkpt lat="49.03407" lon="7.94453">
        <ele>162.2</ele>
        <time>2020-06-27T20:51:02Z</time>
      </trkpt>
      <trkpt lat="49.03408" lon="7.94452">
        <ele>162.2</ele>
        <time>2020-06-27T20:51:03Z</time>
      </trkpt>
      <trkpt lat="49.03407" lon="7.94452">
        <ele>162.2</ele>
        <time>2020-06-27T20:51:04Z</time>
      </trkpt>
      <trkpt lat="49.03408" lon="7.94454">
        <ele>162</ele>
        <time>2020-06-27T20:51:05Z</time>
      </trkpt>
      <trkpt lat="49.03408" lon="7.94454">
        <ele>162</ele>
        <time>2020-06-27T20:51:06Z</time>
      </trkpt>
      <trkpt lat="49.03408" lon="7.94455">
        <ele>162</ele>
        <time>2020-06-27T20:51:07Z</time>
      </trkpt>
      <trkpt lat="49.03408" lon="7.94453">
        <ele>162</ele>
        <time>2020-06-27T20:51:08Z</time>
      </trkpt>
      <trkpt lat="49.03408" lon="7.94454">
        <ele>162</ele>
        <time>2020-06-27T20:51:09Z</time>
      </trkpt>
      <trkpt lat="49.03408" lon="7.94455">
        <ele>162</ele>
        <time>2020-06-27T20:51:10Z</time>
      </trkpt>
      <trkpt lat="49.03408" lon="7.94457">
        <ele>162</ele>
        <time>2020-06-27T20:51:11Z</time>
      </trkpt>
      <trkpt lat="49.03408" lon="7.94457">
        <ele>162</ele>
        <time>2020-06-27T20:51:12Z</time>
      </trkpt>
      <trkpt lat="49.03408" lon="7.94458">
        <ele>161.9</ele>
        <time>2020-06-27T20:51:13Z</time>
      </trkpt>
      <trkpt lat="49.03409" lon="7.94458">
        <ele>161.9</ele>
        <time>2020-06-27T20:51:14Z</time>
      </trkpt>
      <trkpt lat="49.03409" lon="7.94456">
        <ele>162</ele>
        <time>2020-06-27T20:51:15Z</time>
      </trkpt>
      <trkpt lat="49.0341" lon="7.94454">
        <ele>162</ele>
        <time>2020-06-27T20:51:16Z</time>
      </trkpt>
      <trkpt lat="49.03409" lon="7.94453">
        <ele>162.2</ele>
        <time>2020-06-27T20:51:17Z</time>
      </trkpt>
      <trkpt lat="49.03408" lon="7.94453">
        <ele>162.2</ele>
        <time>2020-06-27T20:51:18Z</time>
      </trkpt>
      <trkpt lat="49.03407" lon="7.94453">
        <ele>162</ele>
        <time>2020-06-27T20:51:19Z</time>
      </trkpt>
      <trkpt lat="49.03406" lon="7.94454">
        <ele>162.1</ele>
        <time>2020-06-27T20:51:20Z</time>
      </trkpt>
      <trkpt lat="49.03405" lon="7.94454">
        <ele>162.1</ele>
        <time>2020-06-27T20:51:21Z</time>
      </trkpt>
      <trkpt lat="49.03405" lon="7.94454">
        <ele>162.1</ele>
        <time>2020-06-27T20:51:22Z</time>
      </trkpt>
      <trkpt lat="49.03405" lon="7.94454">
        <ele>162.1</ele>
        <time>2020-06-27T20:51:23Z</time>
      </trkpt>
      <trkpt lat="49.03404" lon="7.94455">
        <ele>162.1</ele>
        <time>2020-06-27T20:51:24Z</time>
      </trkpt>
      <trkpt lat="49.03404" lon="7.94454">
        <ele>162.1</ele>
        <time>2020-06-27T20:51:25Z</time>
      </trkpt>
      <trkpt lat="49.03404" lon="7.94454">
        <ele>162.1</ele>
        <time>2020-06-27T20:51:26Z</time>
      </trkpt>
      <trkpt lat="49.03405" lon="7.94453">
        <ele>162.2</ele>
        <time>2020-06-27T20:51:27Z</time>
      </trkpt>
      <trkpt lat="49.03405" lon="7.94452">
        <ele>162.2</ele>
        <time>2020-06-27T20:51:28Z</time>
      </trkpt>
      <trkpt lat="49.03404" lon="7.94452">
        <ele>162.2</ele>
        <time>2020-06-27T20:51:29Z</time>
      </trkpt>
      <trkpt lat="49.03404" lon="7.94452">
        <ele>162.2</ele>
        <time>2020-06-27T20:51:30Z</time>
      </trkpt>
      <trkpt lat="49.03404" lon="7.94452">
        <ele>162.2</ele>
        <time>2020-06-27T20:51:31Z</time>
      </trkpt>
      <trkpt lat="49.03405" lon="7.94452">
        <ele>162.2</ele>
        <time>2020-06-27T20:51:32Z</time>
      </trkpt>
      <trkpt lat="49.03405" lon="7.94451">
        <ele>162.2</ele>
        <time>2020-06-27T20:51:33Z</time>
      </trkpt>
      <trkpt lat="49.03405" lon="7.94451">
        <ele>162.2</ele>
        <time>2020-06-27T20:51:34Z</time>
      </trkpt>
      <trkpt lat="49.03405" lon="7.94451">
        <ele>162.2</ele>
        <time>2020-06-27T20:51:35Z</time>
      </trkpt>
      <trkpt lat="49.03403" lon="7.94451">
        <ele>162.2</ele>
        <time>2020-06-27T20:51:36Z</time>
      </trkpt>
      <trkpt lat="49.03404" lon="7.94451">
        <ele>162.2</ele>
        <time>2020-06-27T20:51:37Z</time>
      </trkpt>
      <trkpt lat="49.03403" lon="7.94452">
        <ele>162.2</ele>
        <time>2020-06-27T20:51:38Z</time>
      </trkpt>
      <trkpt lat="49.03403" lon="7.94452">
        <ele>162.2</ele>
        <time>2020-06-27T20:51:39Z</time>
      </trkpt>
      <trkpt lat="49.03403" lon="7.94452">
        <ele>162.2</ele>
        <time>2020-06-27T20:51:40Z</time>
      </trkpt>
      <trkpt lat="49.03402" lon="7.94452">
        <ele>162.2</ele>
        <time>2020-06-27T20:51:41Z</time>
      </trkpt>
      <trkpt lat="49.03401" lon="7.94451">
        <ele>162.3</ele>
        <time>2020-06-27T20:51:42Z</time>
      </trkpt>
      <trkpt lat="49.03401" lon="7.94451">
        <ele>162.3</ele>
        <time>2020-06-27T20:51:43Z</time>
      </trkpt>
      <trkpt lat="49.03402" lon="7.94451">
        <ele>162.2</ele>
        <time>2020-06-27T20:51:44Z</time>
      </trkpt>
      <trkpt lat="49.03402" lon="7.94451">
        <ele>162.2</ele>
        <time>2020-06-27T20:51:45Z</time>
      </trkpt>
      <trkpt lat="49.03403" lon="7.9445">
        <ele>162.2</ele>
        <time>2020-06-27T20:51:46Z</time>
      </trkpt>
      <trkpt lat="49.03404" lon="7.9445">
        <ele>162.2</ele>
        <time>2020-06-27T20:51:47Z</time>
      </trkpt>
      <trkpt lat="49.03404" lon="7.9445">
        <ele>162.2</ele>
        <time>2020-06-27T20:51:48Z</time>
      </trkpt>
      <trkpt lat="49.03405" lon="7.94449">
        <ele>162.2</ele>
        <time>2020-06-27T20:51:49Z</time>
      </trkpt>
      <trkpt lat="49.03405" lon="7.94449">
        <ele>162.3</ele>
        <time>2020-06-27T20:51:50Z</time>
      </trkpt>
      <trkpt lat="49.03405" lon="7.94449">
        <ele>162.2</ele>
        <time>2020-06-27T20:51:51Z</time>
      </trkpt>
      <trkpt lat="49.03405" lon="7.9445">
        <ele>162.2</ele>
        <time>2020-06-27T20:51:52Z</time>
      </trkpt>
      <trkpt lat="49.03406" lon="7.94451">
        <ele>162.2</ele>
        <time>2020-06-27T20:51:53Z</time>
      </trkpt>
      <trkpt lat="49.03406" lon="7.94452">
        <ele>162.2</ele>
        <time>2020-06-27T20:51:54Z</time>
      </trkpt>
      <trkpt lat="49.03406" lon="7.94453">
        <ele>162.2</ele>
        <time>2020-06-27T20:51:55Z</time>
      </trkpt>
      <trkpt lat="49.03406" lon="7.94454">
        <ele>162.1</ele>
        <time>2020-06-27T20:51:56Z</time>
      </trkpt>
      <trkpt lat="49.03406" lon="7.94455">
        <ele>162.1</ele>
        <time>2020-06-27T20:51:57Z</time>
      </trkpt>
      <trkpt lat="49.03406" lon="7.94456">
        <ele>162.1</ele>
        <time>2020-06-27T20:51:58Z</time>
      </trkpt>
      <trkpt lat="49.03406" lon="7.94457">
        <ele>162.1</ele>
        <time>2020-06-27T20:51:59Z</time>
      </trkpt>
      <trkpt lat="49.03406" lon="7.94458">
        <ele>161.9</ele>
        <time>2020-06-27T20:52:00Z</time>
      </trkpt>
      <trkpt lat="49.03407" lon="7.94459">
        <ele>161.9</ele>
        <time>2020-06-27T20:52:01Z</time>
      </trkpt>
      <trkpt lat="49.03407" lon="7.9446">
        <ele>161.9</ele>
        <time>2020-06-27T20:52:02Z</time>
      </trkpt>
      <trkpt lat="49.03407" lon="7.94461">
        <ele>161.9</ele>
        <time>2020-06-27T20:53:15Z</time>
      </trkpt>
      <trkpt lat="49.03407" lon="7.94462">
        <ele>161.8</ele>
        <time>2020-06-27T20:53:16Z</time>
      </trkpt>
      <trkpt lat="49.03407" lon="7.94463">
        <ele>161.7</ele>
        <time>2020-06-27T20:53:17Z</time>
      </trkpt>
      <trkpt lat="49.03407" lon="7.94466">
        <ele>161.5</ele>
        <time>2020-06-27T20:53:18Z</time>
      </trkpt>
      <trkpt lat="49.03407" lon="7.94467">
        <ele>161.5</ele>
        <time>2020-06-27T20:53:19Z</time>
      </trkpt>
      <trkpt lat="49.03407" lon="7.94468">
        <ele>161.5</ele>
        <time>2020-06-27T20:53:20Z</time>
      </trkpt>
      <trkpt lat="49.03407" lon="7.94469">
        <ele>161.5</ele>
        <time>2020-06-27T20:53:21Z</time>
      </trkpt>
      <trkpt lat="49.03407" lon="7.94472">
        <ele>161.4</ele>
        <time>2020-06-27T20:53:22Z</time>
      </trkpt>
      <trkpt lat="49.03408" lon="7.94474">
        <ele>161.4</ele>
        <time>2020-06-27T20:53:23Z</time>
      </trkpt>
      <trkpt lat="49.03408" lon="7.94476">
        <ele>161.1</ele>
        <time>2020-06-27T20:53:24Z</time>
      </trkpt>
      <trkpt lat="49.03408" lon="7.94478">
        <ele>161.1</ele>
        <time>2020-06-27T20:53:25Z</time>
      </trkpt>
      <trkpt lat="49.03408" lon="7.94479">
        <ele>160.9</ele>
        <time>2020-06-27T20:53:26Z</time>
      </trkpt>
      <trkpt lat="49.03407" lon="7.94481">
        <ele>160.9</ele>
        <time>2020-06-27T20:53:27Z</time>
      </trkpt>
      <trkpt lat="49.03407" lon="7.94481">
        <ele>160.9</ele>
        <time>2020-06-27T20:53:28Z</time>
      </trkpt>
      <trkpt lat="49.03407" lon="7.94482">
        <ele>160.9</ele>
        <time>2020-06-27T20:53:29Z</time>
      </trkpt>
      <trkpt lat="49.03407" lon="7.94483">
        <ele>160.6</ele>
        <time>2020-06-27T20:53:30Z</time>
      </trkpt>
      <trkpt lat="49.03407" lon="7.94484">
        <ele>160.6</ele>
        <time>2020-06-27T20:53:31Z</time>
      </trkpt>
      <trkpt lat="49.03407" lon="7.94485">
        <ele>160.6</ele>
        <time>2020-06-27T20:53:32Z</time>
      </trkpt>
      <trkpt lat="49.03407" lon="7.94485">
        <ele>160.6</ele>
        <time>2020-06-27T20:53:33Z</time>
      </trkpt>
      <trkpt lat="49.03406" lon="7.94485">
        <ele>160.6</ele>
        <time>2020-06-27T20:53:34Z</time>
      </trkpt>
      <trkpt lat="49.03406" lon="7.94485">
        <ele>160.6</ele>
        <time>2020-06-27T20:53:35Z</time>
      </trkpt>
      <trkpt lat="49.03407" lon="7.94485">
        <ele>160.6</ele>
        <time>2020-06-27T20:53:36Z</time>
      </trkpt>
      <trkpt lat="49.03407" lon="7.94485">
        <ele>160.6</ele>
        <time>2020-06-27T20:53:37Z</time>
      </trkpt>
      <trkpt lat="49.03407" lon="7.94485">
        <ele>160.6</ele>
        <time>2020-06-27T20:53:38Z</time>
      </trkpt>
      <trkpt lat="49.03407" lon="7.94484">
        <ele>160.6</ele>
        <time>2020-06-27T20:53:39Z</time>
      </trkpt>
      <trkpt lat="49.03412" lon="7.94484">
        <ele>160.6</ele>
        <time>2020-06-27T20:53:45Z</time>
      </trkpt>
      <trkpt lat="49.03412" lon="7.94484">
        <ele>160.6</ele>
        <time>2020-06-27T20:53:46Z</time>
      </trkpt>
      <trkpt lat="49.03412" lon="7.94484">
        <ele>160.6</ele>
        <time>2020-06-27T20:53:47Z</time>
      </trkpt>
      <trkpt lat="49.03412" lon="7.94484">
        <ele>160.6</ele>
        <time>2020-06-27T20:53:48Z</time>
      </trkpt>
      <trkpt lat="49.03413" lon="7.94483">
        <ele>160.5</ele>
        <time>2020-06-27T20:53:49Z</time>
      </trkpt>
      <trkpt lat="49.03414" lon="7.94483">
        <ele>160.8</ele>
        <time>2020-06-27T20:53:50Z</time>
      </trkpt>
      <trkpt lat="49.03414" lon="7.94482">
        <ele>160.8</ele>
        <time>2020-06-27T20:53:51Z</time>
      </trkpt>
      <trkpt lat="49.03415" lon="7.94482">
        <ele>160.8</ele>
        <time>2020-06-27T20:53:52Z</time>
      </trkpt>
      <trkpt lat="49.03415" lon="7.94482">
        <ele>160.8</ele>
        <time>2020-06-27T20:53:53Z</time>
      </trkpt>
      <trkpt lat="49.03415" lon="7.94481">
        <ele>160.8</ele>
        <time>2020-06-27T20:53:54Z</time>
      </trkpt>
      <trkpt lat="49.03416" lon="7.94481">
        <ele>160.8</ele>
        <time>2020-06-27T20:53:55Z</time>
      </trkpt>
      <trkpt lat="49.03416" lon="7.94481">
        <ele>160.8</ele>
        <time>2020-06-27T20:53:56Z</time>
      </trkpt>
      <trkpt lat="49.03416" lon="7.9448">
        <ele>160.8</ele>
        <time>2020-06-27T20:53:57Z</time>
      </trkpt>
      <trkpt lat="49.03417" lon="7.9448">
        <ele>160.8</ele>
        <time>2020-06-27T20:53:58Z</time>
      </trkpt>
      <trkpt lat="49.03417" lon="7.9448">
        <ele>160.8</ele>
        <time>2020-06-27T20:53:59Z</time>
      </trkpt>
      <trkpt lat="49.03416" lon="7.94479">
        <ele>160.8</ele>
        <time>2020-06-27T20:54:00Z</time>
      </trkpt>
      <trkpt lat="49.03416" lon="7.94478">
        <ele>161</ele>
        <time>2020-06-27T20:54:01Z</time>
      </trkpt>
      <trkpt lat="49.03416" lon="7.94477">
        <ele>161</ele>
        <time>2020-06-27T20:54:02Z</time>
      </trkpt>
      <trkpt lat="49.03416" lon="7.94476">
        <ele>161</ele>
        <time>2020-06-27T20:54:03Z</time>
      </trkpt>
      <trkpt lat="49.03416" lon="7.94475">
        <ele>161</ele>
        <time>2020-06-27T20:54:04Z</time>
      </trkpt>
      <trkpt lat="49.03416" lon="7.94475">
        <ele>161.2</ele>
        <time>2020-06-27T20:54:05Z</time>
      </trkpt>
      <trkpt lat="49.03416" lon="7.94473">
        <ele>161.2</ele>
        <time>2020-06-27T20:54:06Z</time>
      </trkpt>
      <trkpt lat="49.03415" lon="7.9447">
        <ele>161.3</ele>
        <time>2020-06-27T20:54:07Z</time>
      </trkpt>
      <trkpt lat="49.03416" lon="7.94468">
        <ele>161.4</ele>
        <time>2020-06-27T20:54:08Z</time>
      </trkpt>
      <trkpt lat="49.03415" lon="7.9447">
        <ele>161.5</ele>
        <time>2020-06-27T20:54:09Z</time>
      </trkpt>
      <trkpt lat="49.03414" lon="7.9447">
        <ele>161.5</ele>
        <time>2020-06-27T20:54:10Z</time>
      </trkpt>
      <trkpt lat="49.03414" lon="7.9447">
        <ele>161.5</ele>
        <time>2020-06-27T20:54:11Z</time>
      </trkpt>
      <trkpt lat="49.03413" lon="7.94469">
        <ele>161.5</ele>
        <time>2020-06-27T20:54:12Z</time>
      </trkpt>
      <trkpt lat="49.03413" lon="7.94469">
        <ele>161.5</ele>
        <time>2020-06-27T20:54:13Z</time>
      </trkpt>
      <trkpt lat="49.03413" lon="7.94468">
        <ele>161.5</ele>
        <time>2020-06-27T20:54:14Z</time>
      </trkpt>
      <trkpt lat="49.03413" lon="7.94467">
        <ele>161.5</ele>
        <time>2020-06-27T20:54:15Z</time>
      </trkpt>
      <trkpt lat="49.03413" lon="7.94467">
        <ele>161.5</ele>
        <time>2020-06-27T20:54:16Z</time>
      </trkpt>
      <trkpt lat="49.03412" lon="7.94466">
        <ele>161.7</ele>
        <time>2020-06-27T20:54:17Z</time>
      </trkpt>
      <trkpt lat="49.03412" lon="7.94464">
        <ele>161.7</ele>
        <time>2020-06-27T20:54:18Z</time>
      </trkpt>
      <trkpt lat="49.03413" lon="7.94461">
        <ele>161.8</ele>
        <time>2020-06-27T20:54:19Z</time>
      </trkpt>
      <trkpt lat="49.03413" lon="7.94459">
        <ele>161.8</ele>
        <time>2020-06-27T20:54:20Z</time>
      </trkpt>
      <trkpt lat="49.03414" lon="7.94456">
        <ele>162</ele>
        <time>2020-06-27T20:54:21Z</time>
      </trkpt>
      <trkpt lat="49.03414" lon="7.94455">
        <ele>162</ele>
        <time>2020-06-27T20:54:22Z</time>
      </trkpt>
      <trkpt lat="49.03414" lon="7.94453">
        <ele>162</ele>
        <time>2020-06-27T20:54:23Z</time>
      </trkpt>
      <trkpt lat="49.03414" lon="7.94453">
        <ele>162</ele>
        <time>2020-06-27T20:54:24Z</time>
      </trkpt>
      <trkpt lat="49.03415" lon="7.94453">
        <ele>162.1</ele>
        <time>2020-06-27T20:54:25Z</time>
      </trkpt>
      <trkpt lat="49.03415" lon="7.94453">
        <ele>162.1</ele>
        <time>2020-06-27T20:54:26Z</time>
      </trkpt>
      <trkpt lat="49.03415" lon="7.94453">
        <ele>162.1</ele>
        <time>2020-06-27T20:54:27Z</time>
      </trkpt>
      <trkpt lat="49.03415" lon="7.94453">
        <ele>162.1</ele>
        <time>2020-06-27T20:54:28Z</time>
      </trkpt>
      <trkpt lat="49.03415" lon="7.94453">
        <ele>162.1</ele>
        <time>2020-06-27T20:54:29Z</time>
      </trkpt>
      <trkpt lat="49.03415" lon="7.94452">
        <ele>162.1</ele>
        <time>2020-06-27T20:54:30Z</time>
      </trkpt>
      <trkpt lat="49.03415" lon="7.94452">
        <ele>162.1</ele>
        <time>2020-06-27T20:54:31Z</time>
      </trkpt>
      <trkpt lat="49.03415" lon="7.94452">
        <ele>162.1</ele>
        <time>2020-06-27T20:54:32Z</time>
      </trkpt>
      <trkpt lat="49.03415" lon="7.94452">
        <ele>162.1</ele>
        <time>2020-06-27T20:54:33Z</time>
      </trkpt>
      <trkpt lat="49.03414" lon="7.94456">
        <ele>162</ele>
        <time>2020-06-27T20:54:55Z</time>
      </trkpt>
      <trkpt lat="49.03415" lon="7.94457">
        <ele>162</ele>
        <time>2020-06-27T20:54:56Z</time>
      </trkpt>
      <trkpt lat="49.03416" lon="7.94458">
        <ele>161.8</ele>
        <time>2020-06-27T20:54:57Z</time>
      </trkpt>
      <trkpt lat="49.03417" lon="7.94459">
        <ele>161.8</ele>
        <time>2020-06-27T20:54:58Z</time>
      </trkpt>
      <trkpt lat="49.03416" lon="7.94459">
        <ele>161.8</ele>
        <time>2020-06-27T20:54:59Z</time>
      </trkpt>
      <trkpt lat="49.03416" lon="7.94459">
        <ele>161.8</ele>
        <time>2020-06-27T20:55:00Z</time>
      </trkpt>
      <trkpt lat="49.03416" lon="7.94459">
        <ele>161.8</ele>
        <time>2020-06-27T20:55:01Z</time>
      </trkpt>
      <trkpt lat="49.03416" lon="7.94459">
        <ele>161.8</ele>
        <time>2020-06-27T20:55:02Z</time>
      </trkpt>
      <trkpt lat="49.03416" lon="7.94459">
        <ele>161.8</ele>
        <time>2020-06-27T20:55:03Z</time>
      </trkpt>
      <trkpt lat="49.03415" lon="7.9446">
        <ele>161.8</ele>
        <time>2020-06-27T20:55:04Z</time>
      </trkpt>
      <trkpt lat="49.03415" lon="7.9446">
        <ele>161.8</ele>
        <time>2020-06-27T20:55:05Z</time>
      </trkpt>
      <trkpt lat="49.03415" lon="7.9446">
        <ele>161.8</ele>
        <time>2020-06-27T20:55:06Z</time>
      </trkpt>
      <trkpt lat="49.03415" lon="7.9446">
        <ele>161.8</ele>
        <time>2020-06-27T20:55:07Z</time>
      </trkpt>
      <trkpt lat="49.03414" lon="7.9446">
        <ele>161.8</ele>
        <time>2020-06-27T20:55:08Z</time>
      </trkpt>
      <trkpt lat="49.03414" lon="7.9446">
        <ele>161.8</ele>
        <time>2020-06-27T20:55:09Z</time>
      </trkpt>
      <trkpt lat="49.03414" lon="7.9446">
        <ele>161.8</ele>
        <time>2020-06-27T20:55:10Z</time>
      </trkpt>
      <trkpt lat="49.03414" lon="7.94461">
        <ele>161.8</ele>
        <time>2020-06-27T20:55:11Z</time>
      </trkpt>
      <trkpt lat="49.03413" lon="7.94461">
        <ele>161.8</ele>
        <time>2020-06-27T20:55:12Z</time>
      </trkpt>
      <trkpt lat="49.03413" lon="7.94461">
        <ele>161.8</ele>
        <time>2020-06-27T20:55:13Z</time>
      </trkpt>
      <trkpt lat="49.03413" lon="7.94461">
        <ele>161.8</ele>
        <time>2020-06-27T20:55:14Z</time>
      </trkpt>
      <trkpt lat="49.03412" lon="7.94462">
        <ele>161.8</ele>
        <time>2020-06-27T20:55:15Z</time>
      </trkpt>
      <trkpt lat="49.03411" lon="7.94462">
        <ele>161.7</ele>
        <time>2020-06-27T20:55:16Z</time>
      </trkpt>
      <trkpt lat="49.0341" lon="7.94462">
        <ele>161.7</ele>
        <time>2020-06-27T20:55:17Z</time>
      </trkpt>
      <trkpt lat="49.03409" lon="7.94463">
        <ele>161.7</ele>
        <time>2020-06-27T20:55:18Z</time>
      </trkpt>
      <trkpt lat="49.03408" lon="7.94463">
        <ele>161.7</ele>
        <time>2020-06-27T20:55:19Z</time>
      </trkpt>
      <trkpt lat="49.03407" lon="7.94464">
        <ele>161.8</ele>
        <time>2020-06-27T20:55:20Z</time>
      </trkpt>
      <trkpt lat="49.03407" lon="7.94462">
        <ele>161.7</ele>
        <time>2020-06-27T20:55:21Z</time>
      </trkpt>
      <trkpt lat="49.03407" lon="7.94462">
        <ele>161.7</ele>
        <time>2020-06-27T20:55:22Z</time>
      </trkpt>
      <trkpt lat="49.03408" lon="7.94461">
        <ele>161.9</ele>
        <time>2020-06-27T20:55:23Z</time>
      </trkpt>
      <trkpt lat="49.03407" lon="7.94461">
        <ele>161.9</ele>
        <time>2020-06-27T20:55:24Z</time>
      </trkpt>
      <trkpt lat="49.03407" lon="7.94461">
        <ele>161.9</ele>
        <time>2020-06-27T20:55:25Z</time>
      </trkpt>
      <trkpt lat="49.03407" lon="7.94461">
        <ele>161.9</ele>
        <time>2020-06-27T20:55:26Z</time>
      </trkpt>
      <trkpt lat="49.03408" lon="7.94461">
        <ele>161.9</ele>
        <time>2020-06-27T20:55:27Z</time>
      </trkpt>
      <trkpt lat="49.03408" lon="7.94462">
        <ele>161.9</ele>
        <time>2020-06-27T20:55:28Z</time>
      </trkpt>
      <trkpt lat="49.03408" lon="7.94461">
        <ele>161.9</ele>
        <time>2020-06-27T20:55:29Z</time>
      </trkpt>
      <trkpt lat="49.03408" lon="7.9446">
        <ele>161.9</ele>
        <time>2020-06-27T20:55:30Z</time>
      </trkpt>
      <trkpt lat="49.03409" lon="7.94458">
        <ele>161.9</ele>
        <time>2020-06-27T20:55:31Z</time>
      </trkpt>
      <trkpt lat="49.0341" lon="7.94458">
        <ele>161.9</ele>
        <time>2020-06-27T20:55:32Z</time>
      </trkpt>
      <trkpt lat="49.03412" lon="7.94459">
        <ele>161.8</ele>
        <time>2020-06-27T20:55:35Z</time>
      </trkpt>
      <trkpt lat="49.03413" lon="7.94459">
        <ele>161.8</ele>
        <time>2020-06-27T20:55:36Z</time>
      </trkpt>
      <trkpt lat="49.03413" lon="7.9446">
        <ele>161.8</ele>
        <time>2020-06-27T20:55:37Z</time>
      </trkpt>
      <trkpt lat="49.03413" lon="7.94461">
        <ele>161.8</ele>
        <time>2020-06-27T20:55:38Z</time>
      </trkpt>
      <trkpt lat="49.03413" lon="7.9446">
        <ele>161.8</ele>
        <time>2020-06-27T20:55:39Z</time>
      </trkpt>
      <trkpt lat="49.03413" lon="7.9446">
        <ele>161.8</ele>
        <time>2020-06-27T20:55:40Z</time>
      </trkpt>
      <trkpt lat="49.03413" lon="7.9446">
        <ele>161.8</ele>
        <time>2020-06-27T20:55:41Z</time>
      </trkpt>
      <trkpt lat="49.03413" lon="7.9446">
        <ele>161.8</ele>
        <time>2020-06-27T20:55:42Z</time>
      </trkpt>
      <trkpt lat="49.03413" lon="7.9446">
        <ele>161.8</ele>
        <time>2020-06-27T20:55:43Z</time>
      </trkpt>
      <trkpt lat="49.03412" lon="7.94462">
        <ele>161.8</ele>
        <time>2020-06-27T20:55:44Z</time>
      </trkpt>
      <trkpt lat="49.03413" lon="7.94461">
        <ele>161.8</ele>
        <time>2020-06-27T20:55:45Z</time>
      </trkpt>
      <trkpt lat="49.03413" lon="7.94461">
        <ele>161.8</ele>
        <time>2020-06-27T20:55:46Z</time>
      </trkpt>
      <trkpt lat="49.03412" lon="7.94461">
        <ele>161.8</ele>
        <time>2020-06-27T20:55:47Z</time>
      </trkpt>
      <trkpt lat="49.03412" lon="7.94462">
        <ele>161.8</ele>
        <time>2020-06-27T20:55:48Z</time>
      </trkpt>
      <trkpt lat="49.03412" lon="7.94461">
        <ele>161.8</ele>
        <time>2020-06-27T20:55:49Z</time>
      </trkpt>
      <trkpt lat="49.03412" lon="7.94461">
        <ele>161.8</ele>
        <time>2020-06-27T20:55:50Z</time>
      </trkpt>
      <trkpt lat="49.03412" lon="7.94461">
        <ele>161.8</ele>
        <time>2020-06-27T20:55:51Z</time>
      </trkpt>
      <trkpt lat="49.03412" lon="7.94461">
        <ele>161.8</ele>
        <time>2020-06-27T20:55:52Z</time>
      </trkpt>
      <trkpt lat="49.03412" lon="7.94461">
        <ele>161.8</ele>
        <time>2020-06-27T20:55:53Z</time>
      </trkpt>
      <trkpt lat="49.03412" lon="7.94461">
        <ele>161.8</ele>
        <time>2020-06-27T20:55:54Z</time>
      </trkpt>
      <trkpt lat="49.03407" lon="7.94459">
        <ele>161.9</ele>
        <time>2020-06-27T20:56:22Z</time>
      </trkpt>
      <trkpt lat="49.03406" lon="7.94459">
        <ele>161.9</ele>
        <time>2020-06-27T20:56:23Z</time>
      </trkpt>
      <trkpt lat="49.03406" lon="7.94459">
        <ele>161.9</ele>
        <time>2020-06-27T20:56:24Z</time>
      </trkpt>
      <trkpt lat="49.03406" lon="7.94458">
        <ele>161.9</ele>
        <time>2020-06-27T20:56:25Z</time>
      </trkpt>
      <trkpt lat="49.03406" lon="7.94459">
        <ele>161.9</ele>
        <time>2020-06-27T20:56:26Z</time>
      </trkpt>
      <trkpt lat="49.03406" lon="7.94458">
        <ele>161.9</ele>
        <time>2020-06-27T20:56:27Z</time>
      </trkpt>
      <trkpt lat="49.03406" lon="7.94458">
        <ele>161.9</ele>
        <time>2020-06-27T20:56:28Z</time>
      </trkpt>
      <trkpt lat="49.03406" lon="7.94457">
        <ele>162.1</ele>
        <time>2020-06-27T20:56:29Z</time>
      </trkpt>
      <trkpt lat="49.03406" lon="7.94457">
        <ele>162.1</ele>
        <time>2020-06-27T20:56:30Z</time>
      </trkpt>
      <trkpt lat="49.03405" lon="7.94456">
        <ele>162.1</ele>
        <time>2020-06-27T20:56:31Z</time>
      </trkpt>
      <trkpt lat="49.03405" lon="7.94456">
        <ele>162.1</ele>
        <time>2020-06-27T20:56:32Z</time>
      </trkpt>
      <trkpt lat="49.03405" lon="7.94456">
        <ele>162.1</ele>
        <time>2020-06-27T20:56:33Z</time>
      </trkpt>
      <trkpt lat="49.03405" lon="7.94456">
        <ele>162.1</ele>
        <time>2020-06-27T20:56:34Z</time>
      </trkpt>
      <trkpt lat="49.03405" lon="7.94456">
        <ele>162.1</ele>
        <time>2020-06-27T20:56:35Z</time>
      </trkpt>
      <trkpt lat="49.03405" lon="7.94455">
        <ele>162.1</ele>
        <time>2020-06-27T20:56:36Z</time>
      </trkpt>
      <trkpt lat="49.03403" lon="7.94455">
        <ele>162.1</ele>
        <time>2020-06-27T20:56:37Z</time>
      </trkpt>
      <trkpt lat="49.03402" lon="7.94455">
        <ele>162.1</ele>
        <time>2020-06-27T20:56:38Z</time>
      </trkpt>
      <trkpt lat="49.03402" lon="7.94455">
        <ele>162.1</ele>
        <time>2020-06-27T20:56:39Z</time>
      </trkpt>
      <trkpt lat="49.03402" lon="7.94456">
        <ele>162.1</ele>
        <time>2020-06-27T20:56:40Z</time>
      </trkpt>
      <trkpt lat="49.03402" lon="7.94456">
        <ele>162.1</ele>
        <time>2020-06-27T20:56:41Z</time>
      </trkpt>
      <trkpt lat="49.03402" lon="7.94456">
        <ele>162.1</ele>
        <time>2020-06-27T20:56:42Z</time>
      </trkpt>
      <trkpt lat="49.03402" lon="7.94456">
        <ele>162.1</ele>
        <time>2020-06-27T20:56:43Z</time>
      </trkpt>
      <trkpt lat="49.03402" lon="7.94456">
        <ele>162.1</ele>
        <time>2020-06-27T20:56:44Z</time>
      </trkpt>
      <trkpt lat="49.03402" lon="7.94456">
        <ele>162.1</ele>
        <time>2020-06-27T20:56:45Z</time>
      </trkpt>
      <trkpt lat="49.03402" lon="7.94456">
        <ele>162.1</ele>
        <time>2020-06-27T20:56:46Z</time>
      </trkpt>
      <trkpt lat="49.03402" lon="7.94456">
        <ele>162.1</ele>
        <time>2020-06-27T20:56:47Z</time>
      </trkpt>
      <trkpt lat="49.03402" lon="7.94456">
        <ele>162.1</ele>
        <time>2020-06-27T20:56:48Z</time>
      </trkpt>
      <trkpt lat="49.03402" lon="7.94456">
        <ele>162.1</ele>
        <time>2020-06-27T20:56:49Z</time>
      </trkpt>
      <trkpt lat="49.03397" lon="7.9445">
        <ele>162.3</ele>
        <time>2020-06-27T21:03:07Z</time>
      </trkpt>
      <trkpt lat="49.03397" lon="7.9445">
        <ele>162.3</ele>
        <time>2020-06-27T21:03:08Z</time>
      </trkpt>
      <trkpt lat="49.03397" lon="7.94449">
        <ele>162.3</ele>
        <time>2020-06-27T21:03:09Z</time>
      </trkpt>
      <trkpt lat="49.03398" lon="7.94449">
        <ele>162.4</ele>
        <time>2020-06-27T21:03:10Z</time>
      </trkpt>
      <trkpt lat="49.03397" lon="7.94449">
        <ele>162.3</ele>
        <time>2020-06-27T21:03:11Z</time>
      </trkpt>
      <trkpt lat="49.03397" lon="7.94449">
        <ele>162.3</ele>
        <time>2020-06-27T21:03:12Z</time>
      </trkpt>
      <trkpt lat="49.03398" lon="7.94449">
        <ele>162.3</ele>
        <time>2020-06-27T21:03:13Z</time>
      </trkpt>
      <trkpt lat="49.03399" lon="7.94449">
        <ele>162.4</ele>
        <time>2020-06-27T21:03:14Z</time>
      </trkpt>
      <trkpt lat="49.03399" lon="7.94448">
        <ele>162.4</ele>
        <time>2020-06-27T21:03:15Z</time>
      </trkpt>
      <trkpt lat="49.03398" lon="7.94448">
        <ele>162.4</ele>
        <time>2020-06-27T21:03:16Z</time>
      </trkpt>
      <trkpt lat="49.03399" lon="7.94448">
        <ele>162.4</ele>
        <time>2020-06-27T21:03:17Z</time>
      </trkpt>
      <trkpt lat="49.03399" lon="7.94448">
        <ele>162.4</ele>
        <time>2020-06-27T21:03:18Z</time>
      </trkpt>
      <trkpt lat="49.03399" lon="7.94448">
        <ele>162.4</ele>
        <time>2020-06-27T21:03:19Z</time>
      </trkpt>
      <trkpt lat="49.034" lon="7.94449">
        <ele>162.4</ele>
        <time>2020-06-27T21:03:20Z</time>
      </trkpt>
      <trkpt lat="49.034" lon="7.9445">
        <ele>162.3</ele>
        <time>2020-06-27T21:03:21Z</time>
      </trkpt>
      <trkpt lat="49.03401" lon="7.9445">
        <ele>162.3</ele>
        <time>2020-06-27T21:03:22Z</time>
      </trkpt>
      <trkpt lat="49.03401" lon="7.94451">
        <ele>162.2</ele>
        <time>2020-06-27T21:03:23Z</time>
      </trkpt>
      <trkpt lat="49.03402" lon="7.94451">
        <ele>162.2</ele>
        <time>2020-06-27T21:03:24Z</time>
      </trkpt>
      <trkpt lat="49.03403" lon="7.94451">
        <ele>162.2</ele>
        <time>2020-06-27T21:03:25Z</time>
      </trkpt>
      <trkpt lat="49.03403" lon="7.94451">
        <ele>162.2</ele>
        <time>2020-06-27T21:03:26Z</time>
      </trkpt>
      <trkpt lat="49.03408" lon="7.94453">
        <ele>162.2</ele>
        <time>2020-06-27T21:03:31Z</time>
      </trkpt>
      <trkpt lat="49.03409" lon="7.94454">
        <ele>162</ele>
        <time>2020-06-27T21:03:32Z</time>
      </trkpt>
      <trkpt lat="49.03408" lon="7.94454">
        <ele>162</ele>
        <time>2020-06-27T21:03:33Z</time>
      </trkpt>
      <trkpt lat="49.03407" lon="7.94454">
        <ele>162.1</ele>
        <time>2020-06-27T21:03:34Z</time>
      </trkpt>
      <trkpt lat="49.03406" lon="7.94455">
        <ele>162.1</ele>
        <time>2020-06-27T21:03:35Z</time>
      </trkpt>
      <trkpt lat="49.03405" lon="7.94455">
        <ele>162.1</ele>
        <time>2020-06-27T21:03:36Z</time>
      </trkpt>
      <trkpt lat="49.03404" lon="7.94455">
        <ele>162.1</ele>
        <time>2020-06-27T21:03:37Z</time>
      </trkpt>
      <trkpt lat="49.03405" lon="7.94455">
        <ele>162.1</ele>
        <time>2020-06-27T21:03:38Z</time>
      </trkpt>
      <trkpt lat="49.03405" lon="7.94454">
        <ele>162.1</ele>
        <time>2020-06-27T21:03:39Z</time>
      </trkpt>
      <trkpt lat="49.03405" lon="7.94454">
        <ele>162.1</ele>
        <time>2020-06-27T21:03:40Z</time>
      </trkpt>
      <trkpt lat="49.03406" lon="7.94453">
        <ele>162.2</ele>
        <time>2020-06-27T21:03:41Z</time>
      </trkpt>
      <trkpt lat="49.03406" lon="7.94453">
        <ele>162.2</ele>
        <time>2020-06-27T21:03:42Z</time>
      </trkpt>
      <trkpt lat="49.03405" lon="7.94453">
        <ele>162.1</ele>
        <time>2020-06-27T21:03:43Z</time>
      </trkpt>
      <trkpt lat="49.03406" lon="7.94454">
        <ele>162.1</ele>
        <time>2020-06-27T21:03:44Z</time>
      </trkpt>
      <trkpt lat="49.03405" lon="7.94454">
        <ele>162.1</ele>
        <time>2020-06-27T21:03:45Z</time>
      </trkpt>
      <trkpt lat="49.03405" lon="7.94454">
        <ele>162.1</ele>
        <time>2020-06-27T21:03:46Z</time>
      </trkpt>
      <trkpt lat="49.03404" lon="7.94454">
        <ele>162.1</ele>
        <time>2020-06-27T21:03:47Z</time>
      </trkpt>
      <trkpt lat="49.03404" lon="7.94454">
        <ele>162.1</ele>
        <time>2020-06-27T21:03:48Z</time>
      </trkpt>
      <trkpt lat="49.03403" lon="7.94454">
        <ele>162.1</ele>
        <time>2020-06-27T21:03:49Z</time>
      </trkpt>
      <trkpt lat="49.03403" lon="7.94454">
        <ele>162.1</ele>
        <time>2020-06-27T21:03:50Z</time>
      </trkpt>
      <trkpt lat="49.03404" lon="7.94454">
        <ele>162.1</ele>
        <time>2020-06-27T21:03:51Z</time>
      </trkpt>
      <trkpt lat="49.03404" lon="7.94454">
        <ele>162.1</ele>
        <time>2020-06-27T21:03:52Z</time>
      </trkpt>
      <trkpt lat="49.03403" lon="7.94454">
        <ele>162.1</ele>
        <time>2020-06-27T21:03:53Z</time>
      </trkpt>
      <trkpt lat="49.03403" lon="7.94453">
        <ele>162.2</ele>
        <time>2020-06-27T21:03:54Z</time>
      </trkpt>
      <trkpt lat="49.03404" lon="7.94451">
        <ele>162.2</ele>
        <time>2020-06-27T21:03:55Z</time>
      </trkpt>
      <trkpt lat="49.03404" lon="7.9445">
        <ele>162.2</ele>
        <time>2020-06-27T21:03:56Z</time>
      </trkpt>
      <trkpt lat="49.03404" lon="7.9445">
        <ele>162.2</ele>
        <time>2020-06-27T21:03:57Z</time>
      </trkpt>
      <trkpt lat="49.03405" lon="7.94449">
        <ele>162.2</ele>
        <time>2020-06-27T21:03:58Z</time>
      </trkpt>
      <trkpt lat="49.03406" lon="7.94449">
        <ele>162.3</ele>
        <time>2020-06-27T21:03:59Z</time>
      </trkpt>
      <trkpt lat="49.03406" lon="7.94448">
        <ele>162.3</ele>
        <time>2020-06-27T21:04:00Z</time>
      </trkpt>
      <trkpt lat="49.03407" lon="7.94448">
        <ele>162.3</ele>
        <time>2020-06-27T21:04:01Z</time>
      </trkpt>
      <trkpt lat="49.03407" lon="7.94447">
        <ele>162.3</ele>
        <time>2020-06-27T21:04:02Z</time>
      </trkpt>
      <trkpt lat="49.03408" lon="7.94447">
        <ele>162.3</ele>
        <time>2020-06-27T21:04:03Z</time>
      </trkpt>
      <trkpt lat="49.03408" lon="7.94446">
        <ele>162.3</ele>
        <time>2020-06-27T21:04:04Z</time>
      </trkpt>
      <trkpt lat="49.03409" lon="7.94446">
        <ele>162.3</ele>
        <time>2020-06-27T21:04:05Z</time>
      </trkpt>
      <trkpt lat="49.03409" lon="7.94445">
        <ele>162.3</ele>
        <time>2020-06-27T21:04:06Z</time>
      </trkpt>
      <trkpt lat="49.0341" lon="7.94444">
        <ele>162.3</ele>
        <time>2020-06-27T21:04:07Z</time>
      </trkpt>
      <trkpt lat="49.03411" lon="7.94444">
        <ele>162.3</ele>
        <time>2020-06-27T21:05:42Z</time>
      </trkpt>
      <trkpt lat="49.03411" lon="7.94443">
        <ele>162.3</ele>
        <time>2020-06-27T21:05:43Z</time>
      </trkpt>
      <trkpt lat="49.03412" lon="7.94441">
        <ele>162.3</ele>
        <time>2020-06-27T21:05:44Z</time>
      </trkpt>
      <trkpt lat="49.03413" lon="7.9444">
        <ele>162.3</ele>
        <time>2020-06-27T21:05:45Z</time>
      </trkpt>
      <trkpt lat="49.03413" lon="7.9444">
        <ele>162.4</ele>
        <time>2020-06-27T21:05:46Z</time>
      </trkpt>
      <trkpt lat="49.03413" lon="7.94439">
        <ele>162.4</ele>
        <time>2020-06-27T21:05:47Z</time>
      </trkpt>
      <trkpt lat="49.03413" lon="7.94439">
        <ele>162.4</ele>
        <time>2020-06-27T21:05:48Z</time>
      </trkpt>
      <trkpt lat="49.03413" lon="7.94439">
        <ele>162.4</ele>
        <time>2020-06-27T21:05:49Z</time>
      </trkpt>
      <trkpt lat="49.03413" lon="7.94439">
        <ele>162.4</ele>
        <time>2020-06-27T21:05:50Z</time>
      </trkpt>
      <trkpt lat="49.03412" lon="7.94439">
        <ele>162.4</ele>
        <time>2020-06-27T21:05:51Z</time>
      </trkpt>
      <trkpt lat="49.03412" lon="7.94438">
        <ele>162.4</ele>
        <time>2020-06-27T21:05:52Z</time>
      </trkpt>
      <trkpt lat="49.03412" lon="7.94437">
        <ele>162.4</ele>
        <time>2020-06-27T21:05:53Z</time>
      </trkpt>
      <trkpt lat="49.03412" lon="7.94437">
        <ele>162.4</ele>
        <time>2020-06-27T21:05:54Z</time>
      </trkpt>
      <trkpt lat="49.03412" lon="7.94436">
        <ele>162.4</ele>
        <time>2020-06-27T21:05:55Z</time>
      </trkpt>
      <trkpt lat="49.03418" lon="7.94434">
        <ele>162.3</ele>
        <time>2020-06-27T21:06:11Z</time>
      </trkpt>
      <trkpt lat="49.03419" lon="7.94434">
        <ele>162.3</ele>
        <time>2020-06-27T21:06:12Z</time>
      </trkpt>
      <trkpt lat="49.03416" lon="7.94435">
        <ele>162.4</ele>
        <time>2020-06-27T21:06:13Z</time>
      </trkpt>
      <trkpt lat="49.03416" lon="7.94435">
        <ele>162.4</ele>
        <time>2020-06-27T21:06:14Z</time>
      </trkpt>
      <trkpt lat="49.03416" lon="7.94435">
        <ele>162.4</ele>
        <time>2020-06-27T21:06:15Z</time>
      </trkpt>
      <trkpt lat="49.03416" lon="7.94435">
        <ele>162.4</ele>
        <time>2020-06-27T21:06:16Z</time>
      </trkpt>
      <trkpt lat="49.03416" lon="7.94435">
        <ele>162.4</ele>
        <time>2020-06-27T21:06:17Z</time>
      </trkpt>
      <trkpt lat="49.03416" lon="7.94435">
        <ele>162.4</ele>
        <time>2020-06-27T21:06:18Z</time>
      </trkpt>
      <trkpt lat="49.03416" lon="7.94435">
        <ele>162.4</ele>
        <time>2020-06-27T21:06:19Z</time>
      </trkpt>
      <trkpt lat="49.03417" lon="7.94435">
        <ele>162.4</ele>
        <time>2020-06-27T21:06:20Z</time>
      </trkpt>
      <trkpt lat="49.03417" lon="7.94435">
        <ele>162.4</ele>
        <time>2020-06-27T21:06:21Z</time>
      </trkpt>
      <trkpt lat="49.03417" lon="7.94435">
        <ele>162.4</ele>
        <time>2020-06-27T21:06:22Z</time>
      </trkpt>
      <trkpt lat="49.03416" lon="7.9444">
        <ele>162.3</ele>
        <time>2020-06-27T21:07:12Z</time>
      </trkpt>
      <trkpt lat="49.03415" lon="7.94438">
        <ele>162.4</ele>
        <time>2020-06-27T21:07:13Z</time>
      </trkpt>
      <trkpt lat="49.03414" lon="7.94438">
        <ele>162.4</ele>
        <time>2020-06-27T21:07:14Z</time>
      </trkpt>
      <trkpt lat="49.03414" lon="7.94438">
        <ele>162.4</ele>
        <time>2020-06-27T21:07:15Z</time>
      </trkpt>
      <trkpt lat="49.03414" lon="7.94438">
        <ele>162.4</ele>
        <time>2020-06-27T21:07:16Z</time>
      </trkpt>
      <trkpt lat="49.03414" lon="7.94439">
        <ele>162.4</ele>
        <time>2020-06-27T21:07:17Z</time>
      </trkpt>
      <trkpt lat="49.03414" lon="7.94439">
        <ele>162.4</ele>
        <time>2020-06-27T21:07:18Z</time>
      </trkpt>
      <trkpt lat="49.03414" lon="7.94439">
        <ele>162.4</ele>
        <time>2020-06-27T21:07:19Z</time>
      </trkpt>
      <trkpt lat="49.03414" lon="7.94439">
        <ele>162.4</ele>
        <time>2020-06-27T21:07:20Z</time>
      </trkpt>
      <trkpt lat="49.03414" lon="7.94439">
        <ele>162.4</ele>
        <time>2020-06-27T21:07:21Z</time>
      </trkpt>
      <trkpt lat="49.03414" lon="7.94439">
        <ele>162.4</ele>
        <time>2020-06-27T21:07:22Z</time>
      </trkpt>
      <trkpt lat="49.03414" lon="7.94439">
        <ele>162.4</ele>
        <time>2020-06-27T21:07:23Z</time>
      </trkpt>
      <trkpt lat="49.03405" lon="7.94442">
        <ele>162.4</ele>
        <time>2020-06-27T21:13:52Z</time>
      </trkpt>
      <trkpt lat="49.03405" lon="7.94445">
        <ele>162.3</ele>
        <time>2020-06-27T21:13:53Z</time>
      </trkpt>
      <trkpt lat="49.03404" lon="7.94447">
        <ele>162.4</ele>
        <time>2020-06-27T21:13:54Z</time>
      </trkpt>
      <trkpt lat="49.03403" lon="7.94448">
        <ele>162.4</ele>
        <time>2020-06-27T21:13:55Z</time>
      </trkpt>
      <trkpt lat="49.03403" lon="7.94448">
        <ele>162.4</ele>
        <time>2020-06-27T21:13:56Z</time>
      </trkpt>
      <trkpt lat="49.03403" lon="7.94448">
        <ele>162.4</ele>
        <time>2020-06-27T21:13:57Z</time>
      </trkpt>
      <trkpt lat="49.03403" lon="7.94448">
        <ele>162.4</ele>
        <time>2020-06-27T21:13:58Z</time>
      </trkpt>
      <trkpt lat="49.03403" lon="7.94449">
        <ele>162.2</ele>
        <time>2020-06-27T21:13:59Z</time>
      </trkpt>
      <trkpt lat="49.03403" lon="7.94449">
        <ele>162.4</ele>
        <time>2020-06-27T21:14:00Z</time>
      </trkpt>
      <trkpt lat="49.03403" lon="7.94449">
        <ele>162.4</ele>
        <time>2020-06-27T21:14:01Z</time>
      </trkpt>
      <trkpt lat="49.03404" lon="7.94449">
        <ele>162.2</ele>
        <time>2020-06-27T21:14:02Z</time>
      </trkpt>
      <trkpt lat="49.03404" lon="7.94449">
        <ele>162.2</ele>
        <time>2020-06-27T21:14:03Z</time>
      </trkpt>
      <trkpt lat="49.03405" lon="7.9445">
        <ele>162.2</ele>
        <time>2020-06-27T21:14:04Z</time>
      </trkpt>
      <trkpt lat="49.03405" lon="7.94451">
        <ele>162.2</ele>
        <time>2020-06-27T21:14:05Z</time>
      </trkpt>
      <trkpt lat="49.03405" lon="7.94452">
        <ele>162.2</ele>
        <time>2020-06-27T21:14:06Z</time>
      </trkpt>
      <trkpt lat="49.03407" lon="7.94452">
        <ele>162.2</ele>
        <time>2020-06-27T21:14:07Z</time>
      </trkpt>
      <trkpt lat="49.03407" lon="7.94452">
        <ele>162.2</ele>
        <time>2020-06-27T21:14:08Z</time>
      </trkpt>
      <trkpt lat="49.03408" lon="7.94453">
        <ele>162.2</ele>
        <time>2020-06-27T21:14:09Z</time>
      </trkpt>
      <trkpt lat="49.03408" lon="7.94454">
        <ele>162</ele>
        <time>2020-06-27T21:14:10Z</time>
      </trkpt>
      <trkpt lat="49.03408" lon="7.94455">
        <ele>162</ele>
        <time>2020-06-27T21:14:11Z</time>
      </trkpt>
      <trkpt lat="49.03407" lon="7.94455">
        <ele>162</ele>
        <time>2020-06-27T21:14:12Z</time>
      </trkpt>
      <trkpt lat="49.03407" lon="7.94456">
        <ele>162.1</ele>
        <time>2020-06-27T21:14:13Z</time>
      </trkpt>
      <trkpt lat="49.03406" lon="7.94456">
        <ele>162.1</ele>
        <time>2020-06-27T21:14:14Z</time>
      </trkpt>
      <trkpt lat="49.03406" lon="7.94456">
        <ele>162.1</ele>
        <time>2020-06-27T21:14:15Z</time>
      </trkpt>
      <trkpt lat="49.03406" lon="7.94457">
        <ele>162.1</ele>
        <time>2020-06-27T21:14:16Z</time>
      </trkpt>
      <trkpt lat="49.03405" lon="7.94457">
        <ele>162.1</ele>
        <time>2020-06-27T21:14:17Z</time>
      </trkpt>
      <trkpt lat="49.03405" lon="7.94457">
        <ele>162.1</ele>
        <time>2020-06-27T21:14:18Z</time>
      </trkpt>
      <trkpt lat="49.03404" lon="7.94458">
        <ele>161.9</ele>
        <time>2020-06-27T21:14:19Z</time>
      </trkpt>
      <trkpt lat="49.03404" lon="7.94458">
        <ele>161.9</ele>
        <time>2020-06-27T21:14:20Z</time>
      </trkpt>
      <trkpt lat="49.03403" lon="7.94458">
        <ele>161.9</ele>
        <time>2020-06-27T21:14:21Z</time>
      </trkpt>
      <trkpt lat="49.03403" lon="7.94459">
        <ele>161.9</ele>
        <time>2020-06-27T21:14:31Z</time>
      </trkpt>
      <trkpt lat="49.03402" lon="7.94459">
        <ele>161.9</ele>
        <time>2020-06-27T21:14:32Z</time>
      </trkpt>
      <trkpt lat="49.03402" lon="7.94459">
        <ele>161.9</ele>
        <time>2020-06-27T21:14:33Z</time>
      </trkpt>
      <trkpt lat="49.03402" lon="7.9446">
        <ele>161.9</ele>
        <time>2020-06-27T21:14:34Z</time>
      </trkpt>
      <trkpt lat="49.03401" lon="7.94459">
        <ele>162</ele>
        <time>2020-06-27T21:14:35Z</time>
      </trkpt>
      <trkpt lat="49.03401" lon="7.94459">
        <ele>162</ele>
        <time>2020-06-27T21:14:36Z</time>
      </trkpt>
      <trkpt lat="49.03401" lon="7.94459">
        <ele>162</ele>
        <time>2020-06-27T21:14:37Z</time>
      </trkpt>
      <trkpt lat="49.03401" lon="7.94459">
        <ele>162</ele>
        <time>2020-06-27T21:14:38Z</time>
      </trkpt>
      <trkpt lat="49.03402" lon="7.94459">
        <ele>161.9</ele>
        <time>2020-06-27T21:14:39Z</time>
      </trkpt>
      <trkpt lat="49.03402" lon="7.94458">
        <ele>161.9</ele>
        <time>2020-06-27T21:14:40Z</time>
      </trkpt>
      <trkpt lat="49.03402" lon="7.94458">
        <ele>161.9</ele>
        <time>2020-06-27T21:14:41Z</time>
      </trkpt>
      <trkpt lat="49.03402" lon="7.94459">
        <ele>161.9</ele>
        <time>2020-06-27T21:14:42Z</time>
      </trkpt>
      <trkpt lat="49.03403" lon="7.94458">
        <ele>161.9</ele>
        <time>2020-06-27T21:14:43Z</time>
      </trkpt>
      <trkpt lat="49.03404" lon="7.94457">
        <ele>162.1</ele>
        <time>2020-06-27T21:14:44Z</time>
      </trkpt>
      <trkpt lat="49.03404" lon="7.94457">
        <ele>162.1</ele>
        <time>2020-06-27T21:14:45Z</time>
      </trkpt>
      <trkpt lat="49.03405" lon="7.94456">
        <ele>162.1</ele>
        <time>2020-06-27T21:14:46Z</time>
      </trkpt>
      <trkpt lat="49.03405" lon="7.94456">
        <ele>162.1</ele>
        <time>2020-06-27T21:14:47Z</time>
      </trkpt>
      <trkpt lat="49.03405" lon="7.94456">
        <ele>162.1</ele>
        <time>2020-06-27T21:14:48Z</time>
      </trkpt>
      <trkpt lat="49.03405" lon="7.94456">
        <ele>162.1</ele>
        <time>2020-06-27T21:14:49Z</time>
      </trkpt>
      <trkpt lat="49.03405" lon="7.94456">
        <ele>162.1</ele>
        <time>2020-06-27T21:14:50Z</time>
      </trkpt>
      <trkpt lat="49.03405" lon="7.94456">
        <ele>162.1</ele>
        <time>2020-06-27T21:14:51Z</time>
      </trkpt>
      <trkpt lat="49.03405" lon="7.94456">
        <ele>162.1</ele>
        <time>2020-06-27T21:14:52Z</time>
      </trkpt>
      <trkpt lat="49.03405" lon="7.94456">
        <ele>162.1</ele>
        <time>2020-06-27T21:14:53Z</time>
      </trkpt>
      <trkpt lat="49.03405" lon="7.94456">
        <ele>162.1</ele>
        <time>2020-06-27T21:14:54Z</time>
      </trkpt>
      <trkpt lat="49.03412" lon="7.94462">
        <ele>161.8</ele>
        <time>2020-06-27T21:15:13Z</time>
      </trkpt>
      <trkpt lat="49.03412" lon="7.94463">
        <ele>161.7</ele>
        <time>2020-06-27T21:15:14Z</time>
      </trkpt>
      <trkpt lat="49.03413" lon="7.94463">
        <ele>161.7</ele>
        <time>2020-06-27T21:15:15Z</time>
      </trkpt>
      <trkpt lat="49.03413" lon="7.94464">
        <ele>161.7</ele>
        <time>2020-06-27T21:15:16Z</time>
      </trkpt>
      <trkpt lat="49.03414" lon="7.94464">
        <ele>161.7</ele>
        <time>2020-06-27T21:15:17Z</time>
      </trkpt>
      <trkpt lat="49.03414" lon="7.94464">
        <ele>161.7</ele>
        <time>2020-06-27T21:15:18Z</time>
      </trkpt>
      <trkpt lat="49.03413" lon="7.94464">
        <ele>161.7</ele>
        <time>2020-06-27T21:15:19Z</time>
      </trkpt>
      <trkpt lat="49.03414" lon="7.94463">
        <ele>161.7</ele>
        <time>2020-06-27T21:15:20Z</time>
      </trkpt>
      <trkpt lat="49.03413" lon="7.94463">
        <ele>161.7</ele>
        <time>2020-06-27T21:15:21Z</time>
      </trkpt>
      <trkpt lat="49.03413" lon="7.94463">
        <ele>161.7</ele>
        <time>2020-06-27T21:15:22Z</time>
      </trkpt>
      <trkpt lat="49.03413" lon="7.94463">
        <ele>161.7</ele>
        <time>2020-06-27T21:15:23Z</time>
      </trkpt>
      <trkpt lat="49.03413" lon="7.94462">
        <ele>161.7</ele>
        <time>2020-06-27T21:15:24Z</time>
      </trkpt>
      <trkpt lat="49.03413" lon="7.94463">
        <ele>161.7</ele>
        <time>2020-06-27T21:15:25Z</time>
      </trkpt>
      <trkpt lat="49.03413" lon="7.94463">
        <ele>161.7</ele>
        <time>2020-06-27T21:15:26Z</time>
      </trkpt>
      <trkpt lat="49.03413" lon="7.94463">
        <ele>161.7</ele>
        <time>2020-06-27T21:15:27Z</time>
      </trkpt>
      <trkpt lat="49.03413" lon="7.94462">
        <ele>161.7</ele>
        <time>2020-06-27T21:15:28Z</time>
      </trkpt>
      <trkpt lat="49.03413" lon="7.94462">
        <ele>161.7</ele>
        <time>2020-06-27T21:15:29Z</time>
      </trkpt>
      <trkpt lat="49.03412" lon="7.94461">
        <ele>161.8</ele>
        <time>2020-06-27T21:15:30Z</time>
      </trkpt>
      <trkpt lat="49.03412" lon="7.9446">
        <ele>161.8</ele>
        <time>2020-06-27T21:15:31Z</time>
      </trkpt>
      <trkpt lat="49.03411" lon="7.94459">
        <ele>161.8</ele>
        <time>2020-06-27T21:15:32Z</time>
      </trkpt>
      <trkpt lat="49.03411" lon="7.94459">
        <ele>161.8</ele>
        <time>2020-06-27T21:15:33Z</time>
      </trkpt>
      <trkpt lat="49.03411" lon="7.94459">
        <ele>161.8</ele>
        <time>2020-06-27T21:15:34Z</time>
      </trkpt>
      <trkpt lat="49.03411" lon="7.94459">
        <ele>161.8</ele>
        <time>2020-06-27T21:15:35Z</time>
      </trkpt>
      <trkpt lat="49.03411" lon="7.94459">
        <ele>161.8</ele>
        <time>2020-06-27T21:15:36Z</time>
      </trkpt>
      <trkpt lat="49.03411" lon="7.94459">
        <ele>161.8</ele>
        <time>2020-06-27T21:15:37Z</time>
      </trkpt>
      <trkpt lat="49.03411" lon="7.94459">
        <ele>161.8</ele>
        <time>2020-06-27T21:15:38Z</time>
      </trkpt>
      <trkpt lat="49.03411" lon="7.94459">
        <ele>161.8</ele>
        <time>2020-06-27T21:15:39Z</time>
      </trkpt>
      <trkpt lat="49.0341" lon="7.9446">
        <ele>161.8</ele>
        <time>2020-06-27T21:15:40Z</time>
      </trkpt>
      <trkpt lat="49.0341" lon="7.94459">
        <ele>161.8</ele>
        <time>2020-06-27T21:15:41Z</time>
      </trkpt>
      <trkpt lat="49.03409" lon="7.94459">
        <ele>161.9</ele>
        <time>2020-06-27T21:15:42Z</time>
      </trkpt>
      <trkpt lat="49.03409" lon="7.94458">
        <ele>161.9</ele>
        <time>2020-06-27T21:15:43Z</time>
      </trkpt>
      <trkpt lat="49.03409" lon="7.94458">
        <ele>161.9</ele>
        <time>2020-06-27T21:15:44Z</time>
      </trkpt>
      <trkpt lat="49.03409" lon="7.94458">
        <ele>161.9</ele>
        <time>2020-06-27T21:15:45Z</time>
      </trkpt>
      <trkpt lat="49.03408" lon="7.94458">
        <ele>161.9</ele>
        <time>2020-06-27T21:15:46Z</time>
      </trkpt>
      <trkpt lat="49.03408" lon="7.94459">
        <ele>161.9</ele>
        <time>2020-06-27T21:15:47Z</time>
      </trkpt>
      <trkpt lat="49.03408" lon="7.94458">
        <ele>161.9</ele>
        <time>2020-06-27T21:15:48Z</time>
      </trkpt>
      <trkpt lat="49.03407" lon="7.94458">
        <ele>161.9</ele>
        <time>2020-06-27T21:15:49Z</time>
      </trkpt>
      <trkpt lat="49.03408" lon="7.94458">
        <ele>161.9</ele>
        <time>2020-06-27T21:15:50Z</time>
      </trkpt>
      <trkpt lat="49.03408" lon="7.94458">
        <ele>161.9</ele>
        <time>2020-06-27T21:15:51Z</time>
      </trkpt>
      <trkpt lat="49.03408" lon="7.94458">
        <ele>161.9</ele>
        <time>2020-06-27T21:15:52Z</time>
      </trkpt>
      <trkpt lat="49.03408" lon="7.94458">
        <ele>161.9</ele>
        <time>2020-06-27T21:15:53Z</time>
      </trkpt>
      <trkpt lat="49.034" lon="7.94452">
        <ele>162.3</ele>
        <time>2020-06-27T21:16:40Z</time>
      </trkpt>
      <trkpt lat="49.034" lon="7.94451">
        <ele>162.3</ele>
        <time>2020-06-27T21:16:41Z</time>
      </trkpt>
      <trkpt lat="49.034" lon="7.94451">
        <ele>162.3</ele>
        <time>2020-06-27T21:16:42Z</time>
      </trkpt>
      <trkpt lat="49.03401" lon="7.9445">
        <ele>162.3</ele>
        <time>2020-06-27T21:16:43Z</time>
      </trkpt>
      <trkpt lat="49.03401" lon="7.9445">
        <ele>162.3</ele>
        <time>2020-06-27T21:16:44Z</time>
      </trkpt>
      <trkpt lat="49.03401" lon="7.9445">
        <ele>162.3</ele>
        <time>2020-06-27T21:16:45Z</time>
      </trkpt>
      <trkpt lat="49.03402" lon="7.94449">
        <ele>162.4</ele>
        <time>2020-06-27T21:16:46Z</time>
      </trkpt>
      <trkpt lat="49.03403" lon="7.94448">
        <ele>162.4</ele>
        <time>2020-06-27T21:16:47Z</time>
      </trkpt>
      <trkpt lat="49.03403" lon="7.94448">
        <ele>162.4</ele>
        <time>2020-06-27T21:16:48Z</time>
      </trkpt>
      <trkpt lat="49.03404" lon="7.94447">
        <ele>162.4</ele>
        <time>2020-06-27T21:16:49Z</time>
      </trkpt>
      <trkpt lat="49.03403" lon="7.94447">
        <ele>162.4</ele>
        <time>2020-06-27T21:16:50Z</time>
      </trkpt>
      <trkpt lat="49.03404" lon="7.94447">
        <ele>162.4</ele>
        <time>2020-06-27T21:16:51Z</time>
      </trkpt>
      <trkpt lat="49.03404" lon="7.94447">
        <ele>162.4</ele>
        <time>2020-06-27T21:16:52Z</time>
      </trkpt>
      <trkpt lat="49.03403" lon="7.94447">
        <ele>162.4</ele>
        <time>2020-06-27T21:16:53Z</time>
      </trkpt>
      <trkpt lat="49.03402" lon="7.94448">
        <ele>162.4</ele>
        <time>2020-06-27T21:16:54Z</time>
      </trkpt>
      <trkpt lat="49.03402" lon="7.94448">
        <ele>162.4</ele>
        <time>2020-06-27T21:16:55Z</time>
      </trkpt>
      <trkpt lat="49.03399" lon="7.94452">
        <ele>162.3</ele>
        <time>2020-06-27T21:16:59Z</time>
      </trkpt>
      <trkpt lat="49.03398" lon="7.94453">
        <ele>162.1</ele>
        <time>2020-06-27T21:17:00Z</time>
      </trkpt>
      <trkpt lat="49.03398" lon="7.94454">
        <ele>162.1</ele>
        <time>2020-06-27T21:17:01Z</time>
      </trkpt>
      <trkpt lat="49.03398" lon="7.94455">
        <ele>162.1</ele>
        <time>2020-06-27T21:17:02Z</time>
      </trkpt>
      <trkpt lat="49.03399" lon="7.94455">
        <ele>162.1</ele>
        <time>2020-06-27T21:17:03Z</time>
      </trkpt>
      <trkpt lat="49.03399" lon="7.94455">
        <ele>162.1</ele>
        <time>2020-06-27T21:17:04Z</time>
      </trkpt>
      <trkpt lat="49.03399" lon="7.94456">
        <ele>162.1</ele>
        <time>2020-06-27T21:17:05Z</time>
      </trkpt>
      <trkpt lat="49.03399" lon="7.94456">
        <ele>162.1</ele>
        <time>2020-06-27T21:17:06Z</time>
      </trkpt>
      <trkpt lat="49.03399" lon="7.94456">
        <ele>162.1</ele>
        <time>2020-06-27T21:17:07Z</time>
      </trkpt>
      <trkpt lat="49.03399" lon="7.94456">
        <ele>162.1</ele>
        <time>2020-06-27T21:17:08Z</time>
      </trkpt>
      <trkpt lat="49.03399" lon="7.94456">
        <ele>162.1</ele>
        <time>2020-06-27T21:17:09Z</time>
      </trkpt>
      <trkpt lat="49.03399" lon="7.94456">
        <ele>162.1</ele>
        <time>2020-06-27T21:17:10Z</time>
      </trkpt>
      <trkpt lat="49.03401" lon="7.94458">
        <ele>162</ele>
        <time>2020-06-27T21:17:23Z</time>
      </trkpt>
      <trkpt lat="49.03401" lon="7.94459">
        <ele>162</ele>
        <time>2020-06-27T21:17:24Z</time>
      </trkpt>
      <trkpt lat="49.03401" lon="7.94459">
        <ele>162</ele>
        <time>2020-06-27T21:17:25Z</time>
      </trkpt>
      <trkpt lat="49.03401" lon="7.9446">
        <ele>161.9</ele>
        <time>2020-06-27T21:17:26Z</time>
      </trkpt>
      <trkpt lat="49.03402" lon="7.94461">
        <ele>161.9</ele>
        <time>2020-06-27T21:17:27Z</time>
      </trkpt>
      <trkpt lat="49.03402" lon="7.94462">
        <ele>161.8</ele>
        <time>2020-06-27T21:17:28Z</time>
      </trkpt>
      <trkpt lat="49.03402" lon="7.94462">
        <ele>161.8</ele>
        <time>2020-06-27T21:17:29Z</time>
      </trkpt>
      <trkpt lat="49.03402" lon="7.94464">
        <ele>161.8</ele>
        <time>2020-06-27T21:17:30Z</time>
      </trkpt>
      <trkpt lat="49.03403" lon="7.94465">
        <ele>161.8</ele>
        <time>2020-06-27T21:17:31Z</time>
      </trkpt>
      <trkpt lat="49.03403" lon="7.94466">
        <ele>161.8</ele>
        <time>2020-06-27T21:17:32Z</time>
      </trkpt>
      <trkpt lat="49.03403" lon="7.94467">
        <ele>161.6</ele>
        <time>2020-06-27T21:17:33Z</time>
      </trkpt>
      <trkpt lat="49.03403" lon="7.94467">
        <ele>161.6</ele>
        <time>2020-06-27T21:17:34Z</time>
      </trkpt>
      <trkpt lat="49.03403" lon="7.94467">
        <ele>161.6</ele>
        <time>2020-06-27T21:17:35Z</time>
      </trkpt>
      <trkpt lat="49.03404" lon="7.94467">
        <ele>161.6</ele>
        <time>2020-06-27T21:17:36Z</time>
      </trkpt>
      <trkpt lat="49.03403" lon="7.94467">
        <ele>161.6</ele>
        <time>2020-06-27T21:17:37Z</time>
      </trkpt>
      <trkpt lat="49.03403" lon="7.94467">
        <ele>161.6</ele>
        <time>2020-06-27T21:17:38Z</time>
      </trkpt>
      <trkpt lat="49.03403" lon="7.94467">
        <ele>161.6</ele>
        <time>2020-06-27T21:17:39Z</time>
      </trkpt>
      <trkpt lat="49.03403" lon="7.94466">
        <ele>161.6</ele>
        <time>2020-06-27T21:17:40Z</time>
      </trkpt>
      <trkpt lat="49.03402" lon="7.94465">
        <ele>161.8</ele>
        <time>2020-06-27T21:17:41Z</time>
      </trkpt>
      <trkpt lat="49.03403" lon="7.94465">
        <ele>161.8</ele>
        <time>2020-06-27T21:17:42Z</time>
      </trkpt>
      <trkpt lat="49.03403" lon="7.94466">
        <ele>161.8</ele>
        <time>2020-06-27T21:17:43Z</time>
      </trkpt>
      <trkpt lat="49.03395" lon="7.94467">
        <ele>161.7</ele>
        <time>2020-06-27T21:18:10Z</time>
      </trkpt>
      <trkpt lat="49.03395" lon="7.94467">
        <ele>161.7</ele>
        <time>2020-06-27T21:18:11Z</time>
      </trkpt>
      <trkpt lat="49.03395" lon="7.94466">
        <ele>161.9</ele>
        <time>2020-06-27T21:18:12Z</time>
      </trkpt>
      <trkpt lat="49.03397" lon="7.94465">
        <ele>161.8</ele>
        <time>2020-06-27T21:18:13Z</time>
      </trkpt>
      <trkpt lat="49.03397" lon="7.94464">
        <ele>161.8</ele>
        <time>2020-06-27T21:18:14Z</time>
      </trkpt>
      <trkpt lat="49.03398" lon="7.94464">
        <ele>161.8</ele>
        <time>2020-06-27T21:18:15Z</time>
      </trkpt>
      <trkpt lat="49.03398" lon="7.94465">
        <ele>161.8</ele>
        <time>2020-06-27T21:18:16Z</time>
      </trkpt>
      <trkpt lat="49.03398" lon="7.94466">
        <ele>161.8</ele>
        <time>2020-06-27T21:18:17Z</time>
      </trkpt>
      <trkpt lat="49.03398" lon="7.94467">
        <ele>161.7</ele>
        <time>2020-06-27T21:18:18Z</time>
      </trkpt>
      <trkpt lat="49.03398" lon="7.94468">
        <ele>161.7</ele>
        <time>2020-06-27T21:18:19Z</time>
      </trkpt>
      <trkpt lat="49.03398" lon="7.94469">
        <ele>161.7</ele>
        <time>2020-06-27T21:18:20Z</time>
      </trkpt>
      <trkpt lat="49.03398" lon="7.94469">
        <ele>161.7</ele>
        <time>2020-06-27T21:18:21Z</time>
      </trkpt>
      <trkpt lat="49.03399" lon="7.94469">
        <ele>161.6</ele>
        <time>2020-06-27T21:18:22Z</time>
      </trkpt>
      <trkpt lat="49.034" lon="7.94469">
        <ele>161.6</ele>
        <time>2020-06-27T21:18:23Z</time>
      </trkpt>
      <trkpt lat="49.03401" lon="7.94469">
        <ele>161.6</ele>
        <time>2020-06-27T21:18:24Z</time>
      </trkpt>
      <trkpt lat="49.03402" lon="7.94468">
        <ele>161.6</ele>
        <time>2020-06-27T21:18:25Z</time>
      </trkpt>
      <trkpt lat="49.03403" lon="7.94468">
        <ele>161.6</ele>
        <time>2020-06-27T21:18:26Z</time>
      </trkpt>
      <trkpt lat="49.03403" lon="7.94468">
        <ele>161.6</ele>
        <time>2020-06-27T21:18:27Z</time>
      </trkpt>
      <trkpt lat="49.03403" lon="7.94468">
        <ele>161.6</ele>
        <time>2020-06-27T21:18:28Z</time>
      </trkpt>
      <trkpt lat="49.03403" lon="7.94468">
        <ele>161.6</ele>
        <time>2020-06-27T21:18:29Z</time>
      </trkpt>
      <trkpt lat="49.03403" lon="7.94468">
        <ele>161.6</ele>
        <time>2020-06-27T21:18:30Z</time>
      </trkpt>
      <trkpt lat="49.03407" lon="7.94454">
        <ele>162.1</ele>
        <time>2020-06-27T21:18:44Z</time>
      </trkpt>
      <trkpt lat="49.03407" lon="7.94454">
        <ele>162.1</ele>
        <time>2020-06-27T21:18:45Z</time>
      </trkpt>
      <trkpt lat="49.03406" lon="7.94455">
        <ele>162.1</ele>
        <time>2020-06-27T21:18:46Z</time>
      </trkpt>
      <trkpt lat="49.03405" lon="7.94455">
        <ele>162.1</ele>
        <time>2020-06-27T21:18:47Z</time>
      </trkpt>
      <trkpt lat="49.03405" lon="7.94455">
        <ele>162.1</ele>
        <time>2020-06-27T21:18:48Z</time>
      </trkpt>
      <trkpt lat="49.03405" lon="7.94455">
        <ele>162.1</ele>
        <time>2020-06-27T21:18:49Z</time>
      </trkpt>
      <trkpt lat="49.03405" lon="7.94455">
        <ele>162.1</ele>
        <time>2020-06-27T21:18:50Z</time>
      </trkpt>
      <trkpt lat="49.03405" lon="7.94455">
        <ele>162.1</ele>
        <time>2020-06-27T21:18:51Z</time>
      </trkpt>
      <trkpt lat="49.03404" lon="7.94454">
        <ele>162.1</ele>
        <time>2020-06-27T21:18:52Z</time>
      </trkpt>
      <trkpt lat="49.03404" lon="7.94454">
        <ele>162.1</ele>
        <time>2020-06-27T21:18:53Z</time>
      </trkpt>
      <trkpt lat="49.03404" lon="7.94454">
        <ele>162.1</ele>
        <time>2020-06-27T21:18:54Z</time>
      </trkpt>
      <trkpt lat="49.03404" lon="7.94455">
        <ele>162.1</ele>
        <time>2020-06-27T21:18:55Z</time>
      </trkpt>
      <trkpt lat="49.03403" lon="7.94454">
        <ele>162.1</ele>
        <time>2020-06-27T21:18:56Z</time>
      </trkpt>
      <trkpt lat="49.03404" lon="7.94453">
        <ele>162.1</ele>
        <time>2020-06-27T21:18:57Z</time>
      </trkpt>
      <trkpt lat="49.03404" lon="7.94454">
        <ele>162.1</ele>
        <time>2020-06-27T21:18:58Z</time>
      </trkpt>
      <trkpt lat="49.03405" lon="7.94454">
        <ele>162.1</ele>
        <time>2020-06-27T21:18:59Z</time>
      </trkpt>
      <trkpt lat="49.03405" lon="7.94454">
        <ele>162.1</ele>
        <time>2020-06-27T21:19:00Z</time>
      </trkpt>
      <trkpt lat="49.03405" lon="7.94454">
        <ele>162.1</ele>
        <time>2020-06-27T21:19:01Z</time>
      </trkpt>
      <trkpt lat="49.03405" lon="7.94454">
        <ele>162.1</ele>
        <time>2020-06-27T21:19:02Z</time>
      </trkpt>
      <trkpt lat="49.03405" lon="7.94454">
        <ele>162.1</ele>
        <time>2020-06-27T21:19:03Z</time>
      </trkpt>
      <trkpt lat="49.03405" lon="7.94454">
        <ele>162.1</ele>
        <time>2020-06-27T21:19:04Z</time>
      </trkpt>
      <trkpt lat="49.03405" lon="7.94454">
        <ele>162.1</ele>
        <time>2020-06-27T21:19:05Z</time>
      </trkpt>
      <trkpt lat="49.03405" lon="7.94455">
        <ele>162.1</ele>
        <time>2020-06-27T21:19:06Z</time>
      </trkpt>
      <trkpt lat="49.03405" lon="7.94456">
        <ele>162.1</ele>
        <time>2020-06-27T21:20:09Z</time>
      </trkpt>
      <trkpt lat="49.03405" lon="7.94458">
        <ele>161.9</ele>
        <time>2020-06-27T21:20:10Z</time>
      </trkpt>
      <trkpt lat="49.03406" lon="7.94459">
        <ele>161.9</ele>
        <time>2020-06-27T21:20:11Z</time>
      </trkpt>
      <trkpt lat="49.03406" lon="7.94459">
        <ele>161.9</ele>
        <time>2020-06-27T21:20:12Z</time>
      </trkpt>
      <trkpt lat="49.03406" lon="7.94459">
        <ele>161.9</ele>
        <time>2020-06-27T21:20:13Z</time>
      </trkpt>
      <trkpt lat="49.03406" lon="7.9446">
        <ele>161.9</ele>
        <time>2020-06-27T21:20:14Z</time>
      </trkpt>
      <trkpt lat="49.03406" lon="7.94462">
        <ele>161.9</ele>
        <time>2020-06-27T21:20:15Z</time>
      </trkpt>
      <trkpt lat="49.03407" lon="7.94463">
        <ele>161.8</ele>
        <time>2020-06-27T21:20:16Z</time>
      </trkpt>
      <trkpt lat="49.03408" lon="7.94465">
        <ele>161.7</ele>
        <time>2020-06-27T21:20:17Z</time>
      </trkpt>
      <trkpt lat="49.03408" lon="7.94466">
        <ele>161.5</ele>
        <time>2020-06-27T21:20:18Z</time>
      </trkpt>
      <trkpt lat="49.03409" lon="7.94468">
        <ele>161.5</ele>
        <time>2020-06-27T21:20:19Z</time>
      </trkpt>
      <trkpt lat="49.03409" lon="7.94469">
        <ele>161.5</ele>
        <time>2020-06-27T21:20:20Z</time>
      </trkpt>
      <trkpt lat="49.03409" lon="7.94469">
        <ele>161.5</ele>
        <time>2020-06-27T21:20:21Z</time>
      </trkpt>
      <trkpt lat="49.03409" lon="7.9447">
        <ele>161.5</ele>
        <time>2020-06-27T21:20:22Z</time>
      </trkpt>
      <trkpt lat="49.0341" lon="7.94471">
        <ele>161.4</ele>
        <time>2020-06-27T21:20:23Z</time>
      </trkpt>
      <trkpt lat="49.0341" lon="7.94471">
        <ele>161.3</ele>
        <time>2020-06-27T21:20:24Z</time>
      </trkpt>
      <trkpt lat="49.03411" lon="7.94472">
        <ele>161.3</ele>
        <time>2020-06-27T21:20:25Z</time>
      </trkpt>
      <trkpt lat="49.03411" lon="7.94473">
        <ele>161.3</ele>
        <time>2020-06-27T21:20:26Z</time>
      </trkpt>
      <trkpt lat="49.03412" lon="7.94473">
        <ele>161.3</ele>
        <time>2020-06-27T21:20:27Z</time>
      </trkpt>
      <trkpt lat="49.03412" lon="7.94474">
        <ele>161.3</ele>
        <time>2020-06-27T21:20:28Z</time>
      </trkpt>
      <trkpt lat="49.03413" lon="7.94475">
        <ele>161.1</ele>
        <time>2020-06-27T21:20:29Z</time>
      </trkpt>
      <trkpt lat="49.03413" lon="7.94476">
        <ele>161.1</ele>
        <time>2020-06-27T21:20:30Z</time>
      </trkpt>
      <trkpt lat="49.03414" lon="7.94477">
        <ele>161.1</ele>
        <time>2020-06-27T21:20:31Z</time>
      </trkpt>
      <trkpt lat="49.03415" lon="7.94478">
        <ele>161.1</ele>
        <time>2020-06-27T21:20:32Z</time>
      </trkpt>
      <trkpt lat="49.03415" lon="7.94479">
        <ele>160.8</ele>
        <time>2020-06-27T21:20:33Z</time>
      </trkpt>
      <trkpt lat="49.03416" lon="7.9448">
        <ele>160.8</ele>
        <time>2020-06-27T21:20:34Z</time>
      </trkpt>
      <trkpt lat="49.03416" lon="7.94481">
        <ele>160.8</ele>
        <time>2020-06-27T21:20:35Z</time>
      </trkpt>
      <trkpt lat="49.03417" lon="7.94481">
        <ele>160.8</ele>
        <time>2020-06-27T21:20:36Z</time>
      </trkpt>
      <trkpt lat="49.03416" lon="7.9448">
        <ele>160.8</ele>
        <time>2020-06-27T21:20:37Z</time>
      </trkpt>
      <trkpt lat="49.03416" lon="7.94479">
        <ele>160.8</ele>
        <time>2020-06-27T21:20:38Z</time>
      </trkpt>
      <trkpt lat="49.03416" lon="7.94478">
        <ele>161</ele>
        <time>2020-06-27T21:20:39Z</time>
      </trkpt>
      <trkpt lat="49.03416" lon="7.94478">
        <ele>161</ele>
        <time>2020-06-27T21:20:40Z</time>
      </trkpt>
      <trkpt lat="49.03415" lon="7.94477">
        <ele>161.1</ele>
        <time>2020-06-27T21:20:41Z</time>
      </trkpt>
      <trkpt lat="49.03415" lon="7.94476">
        <ele>161.1</ele>
        <time>2020-06-27T21:20:42Z</time>
      </trkpt>
      <trkpt lat="49.03416" lon="7.94476">
        <ele>161</ele>
        <time>2020-06-27T21:20:43Z</time>
      </trkpt>
      <trkpt lat="49.03416" lon="7.94477">
        <ele>161</ele>
        <time>2020-06-27T21:20:44Z</time>
      </trkpt>
      <trkpt lat="49.03416" lon="7.94477">
        <ele>161</ele>
        <time>2020-06-27T21:20:45Z</time>
      </trkpt>
      <trkpt lat="49.03416" lon="7.94477">
        <ele>161</ele>
        <time>2020-06-27T21:20:46Z</time>
      </trkpt>
      <trkpt lat="49.03416" lon="7.94477">
        <ele>161</ele>
        <time>2020-06-27T21:20:47Z</time>
      </trkpt>
      <trkpt lat="49.03415" lon="7.94477">
        <ele>161.1</ele>
        <time>2020-06-27T21:20:48Z</time>
      </trkpt>
      <trkpt lat="49.03416" lon="7.94476">
        <ele>161</ele>
        <time>2020-06-27T21:20:49Z</time>
      </trkpt>
      <trkpt lat="49.03416" lon="7.94475">
        <ele>161</ele>
        <time>2020-06-27T21:20:50Z</time>
      </trkpt>
      <trkpt lat="49.03416" lon="7.94476">
        <ele>161</ele>
        <time>2020-06-27T21:20:51Z</time>
      </trkpt>
      <trkpt lat="49.03416" lon="7.94476">
        <ele>161</ele>
        <time>2020-06-27T21:20:52Z</time>
      </trkpt>
      <trkpt lat="49.03415" lon="7.94476">
        <ele>161.1</ele>
        <time>2020-06-27T21:20:53Z</time>
      </trkpt>
      <trkpt lat="49.03416" lon="7.94476">
        <ele>161</ele>
        <time>2020-06-27T21:20:54Z</time>
      </trkpt>
      <trkpt lat="49.03416" lon="7.94477">
        <ele>161</ele>
        <time>2020-06-27T21:20:55Z</time>
      </trkpt>
      <trkpt lat="49.03416" lon="7.94476">
        <ele>161</ele>
        <time>2020-06-27T21:20:56Z</time>
      </trkpt>
      <trkpt lat="49.03417" lon="7.94475">
        <ele>161.2</ele>
        <time>2020-06-27T21:20:57Z</time>
      </trkpt>
      <trkpt lat="49.03417" lon="7.94473">
        <ele>161.2</ele>
        <time>2020-06-27T21:20:58Z</time>
      </trkpt>
      <trkpt lat="49.03417" lon="7.94472">
        <ele>161.2</ele>
        <time>2020-06-27T21:20:59Z</time>
      </trkpt>
      <trkpt lat="49.03417" lon="7.94473">
        <ele>161.2</ele>
        <time>2020-06-27T21:21:00Z</time>
      </trkpt>
      <trkpt lat="49.03417" lon="7.94472">
        <ele>161.2</ele>
        <time>2020-06-27T21:21:01Z</time>
      </trkpt>
      <trkpt lat="49.03417" lon="7.94472">
        <ele>161.2</ele>
        <time>2020-06-27T21:21:02Z</time>
      </trkpt>
      <trkpt lat="49.03418" lon="7.94471">
        <ele>161.2</ele>
        <time>2020-06-27T21:21:03Z</time>
      </trkpt>
      <trkpt lat="49.03418" lon="7.9447">
        <ele>161.4</ele>
        <time>2020-06-27T21:21:04Z</time>
      </trkpt>
      <trkpt lat="49.03418" lon="7.94469">
        <ele>161.4</ele>
        <time>2020-06-27T21:21:05Z</time>
      </trkpt>
      <trkpt lat="49.03419" lon="7.94468">
        <ele>161.4</ele>
        <time>2020-06-27T21:21:06Z</time>
      </trkpt>
      <trkpt lat="49.03419" lon="7.94467">
        <ele>161.4</ele>
        <time>2020-06-27T21:21:07Z</time>
      </trkpt>
      <trkpt lat="49.03418" lon="7.94466">
        <ele>161.4</ele>
        <time>2020-06-27T21:21:08Z</time>
      </trkpt>
      <trkpt lat="49.03419" lon="7.94466">
        <ele>161.6</ele>
        <time>2020-06-27T21:21:09Z</time>
      </trkpt>
      <trkpt lat="49.03419" lon="7.94466">
        <ele>161.6</ele>
        <time>2020-06-27T21:21:10Z</time>
      </trkpt>
      <trkpt lat="49.03418" lon="7.94465">
        <ele>161.6</ele>
        <time>2020-06-27T21:21:11Z</time>
      </trkpt>
      <trkpt lat="49.03418" lon="7.94464">
        <ele>161.6</ele>
        <time>2020-06-27T21:21:12Z</time>
      </trkpt>
      <trkpt lat="49.0342" lon="7.94463">
        <ele>161.6</ele>
        <time>2020-06-27T21:21:41Z</time>
      </trkpt>
      <trkpt lat="49.03419" lon="7.94464">
        <ele>161.6</ele>
        <time>2020-06-27T21:21:42Z</time>
      </trkpt>
      <trkpt lat="49.0342" lon="7.94464">
        <ele>161.6</ele>
        <time>2020-06-27T21:21:43Z</time>
      </trkpt>
      <trkpt lat="49.0342" lon="7.94464">
        <ele>161.6</ele>
        <time>2020-06-27T21:21:44Z</time>
      </trkpt>
      <trkpt lat="49.03421" lon="7.94464">
        <ele>161.6</ele>
        <time>2020-06-27T21:21:45Z</time>
      </trkpt>
      <trkpt lat="49.03421" lon="7.94464">
        <ele>161.6</ele>
        <time>2020-06-27T21:21:46Z</time>
      </trkpt>
      <trkpt lat="49.03421" lon="7.94465">
        <ele>161.5</ele>
        <time>2020-06-27T21:21:47Z</time>
      </trkpt>
      <trkpt lat="49.03421" lon="7.94465">
        <ele>161.5</ele>
        <time>2020-06-27T21:21:48Z</time>
      </trkpt>
      <trkpt lat="49.03421" lon="7.94465">
        <ele>161.5</ele>
        <time>2020-06-27T21:21:49Z</time>
      </trkpt>
      <trkpt lat="49.03422" lon="7.94465">
        <ele>161.5</ele>
        <time>2020-06-27T21:21:50Z</time>
      </trkpt>
      <trkpt lat="49.03423" lon="7.94466">
        <ele>161.5</ele>
        <time>2020-06-27T21:21:51Z</time>
      </trkpt>
      <trkpt lat="49.03424" lon="7.94465">
        <ele>161.5</ele>
        <time>2020-06-27T21:21:52Z</time>
      </trkpt>
      <trkpt lat="49.03425" lon="7.94465">
        <ele>161.5</ele>
        <time>2020-06-27T21:21:53Z</time>
      </trkpt>
      <trkpt lat="49.03426" lon="7.94465">
        <ele>161.5</ele>
        <time>2020-06-27T21:21:54Z</time>
      </trkpt>
      <trkpt lat="49.03427" lon="7.94465">
        <ele>161.4</ele>
        <time>2020-06-27T21:21:55Z</time>
      </trkpt>
      <trkpt lat="49.03428" lon="7.94465">
        <ele>161.4</ele>
        <time>2020-06-27T21:21:56Z</time>
      </trkpt>
      <trkpt lat="49.03428" lon="7.94465">
        <ele>161.4</ele>
        <time>2020-06-27T21:21:57Z</time>
      </trkpt>
      <trkpt lat="49.03429" lon="7.94467">
        <ele>161.3</ele>
        <time>2020-06-27T21:21:58Z</time>
      </trkpt>
      <trkpt lat="49.03429" lon="7.94468">
        <ele>161.3</ele>
        <time>2020-06-27T21:21:59Z</time>
      </trkpt>
      <trkpt lat="49.0343" lon="7.94467">
        <ele>161.2</ele>
        <time>2020-06-27T21:22:00Z</time>
      </trkpt>
      <trkpt lat="49.0343" lon="7.94466">
        <ele>161.4</ele>
        <time>2020-06-27T21:22:01Z</time>
      </trkpt>
      <trkpt lat="49.0343" lon="7.94465">
        <ele>161.4</ele>
        <time>2020-06-27T21:22:02Z</time>
      </trkpt>
      <trkpt lat="49.0343" lon="7.94466">
        <ele>161.2</ele>
        <time>2020-06-27T21:22:03Z</time>
      </trkpt>
      <trkpt lat="49.0343" lon="7.94467">
        <ele>161.2</ele>
        <time>2020-06-27T21:22:04Z</time>
      </trkpt>
      <trkpt lat="49.03429" lon="7.94466">
        <ele>161.4</ele>
        <time>2020-06-27T21:22:05Z</time>
      </trkpt>
      <trkpt lat="49.03429" lon="7.94466">
        <ele>161.3</ele>
        <time>2020-06-27T21:22:06Z</time>
      </trkpt>
      <trkpt lat="49.03428" lon="7.94466">
        <ele>161.4</ele>
        <time>2020-06-27T21:22:07Z</time>
      </trkpt>
      <trkpt lat="49.03428" lon="7.94467">
        <ele>161.3</ele>
        <time>2020-06-27T21:22:08Z</time>
      </trkpt>
      <trkpt lat="49.03428" lon="7.94466">
        <ele>161.3</ele>
        <time>2020-06-27T21:22:09Z</time>
      </trkpt>
      <trkpt lat="49.03427" lon="7.94466">
        <ele>161.4</ele>
        <time>2020-06-27T21:22:10Z</time>
      </trkpt>
      <trkpt lat="49.03426" lon="7.94465">
        <ele>161.5</ele>
        <time>2020-06-27T21:22:11Z</time>
      </trkpt>
      <trkpt lat="49.03426" lon="7.94464">
        <ele>161.5</ele>
        <time>2020-06-27T21:22:12Z</time>
      </trkpt>
      <trkpt lat="49.03425" lon="7.94464">
        <ele>161.5</ele>
        <time>2020-06-27T21:22:13Z</time>
      </trkpt>
      <trkpt lat="49.03425" lon="7.94464">
        <ele>161.5</ele>
        <time>2020-06-27T21:22:14Z</time>
      </trkpt>
      <trkpt lat="49.03425" lon="7.94464">
        <ele>161.5</ele>
        <time>2020-06-27T21:22:15Z</time>
      </trkpt>
      <trkpt lat="49.03425" lon="7.94464">
        <ele>161.5</ele>
        <time>2020-06-27T21:22:16Z</time>
      </trkpt>
      <trkpt lat="49.03425" lon="7.94464">
        <ele>161.5</ele>
        <time>2020-06-27T21:22:17Z</time>
      </trkpt>
      <trkpt lat="49.03425" lon="7.94464">
        <ele>161.5</ele>
        <time>2020-06-27T21:22:18Z</time>
      </trkpt>
      <trkpt lat="49.03425" lon="7.94464">
        <ele>161.5</ele>
        <time>2020-06-27T21:22:19Z</time>
      </trkpt>
      <trkpt lat="49.03426" lon="7.94467">
        <ele>161.3</ele>
        <time>2020-06-27T21:22:41Z</time>
      </trkpt>
      <trkpt lat="49.03427" lon="7.94469">
        <ele>161.3</ele>
        <time>2020-06-27T21:22:42Z</time>
      </trkpt>
      <trkpt lat="49.03427" lon="7.94469">
        <ele>161.3</ele>
        <time>2020-06-27T21:22:43Z</time>
      </trkpt>
      <trkpt lat="49.03427" lon="7.94468">
        <ele>161.3</ele>
        <time>2020-06-27T21:22:44Z</time>
      </trkpt>
      <trkpt lat="49.03427" lon="7.94468">
        <ele>161.3</ele>
        <time>2020-06-27T21:22:45Z</time>
      </trkpt>
      <trkpt lat="49.03427" lon="7.94468">
        <ele>161.3</ele>
        <time>2020-06-27T21:22:46Z</time>
      </trkpt>
      <trkpt lat="49.03427" lon="7.94468">
        <ele>161.3</ele>
        <time>2020-06-27T21:22:47Z</time>
      </trkpt>
      <trkpt lat="49.03427" lon="7.94468">
        <ele>161.3</ele>
        <time>2020-06-27T21:22:48Z</time>
      </trkpt>
      <trkpt lat="49.03427" lon="7.94469">
        <ele>161.3</ele>
        <time>2020-06-27T21:22:49Z</time>
      </trkpt>
      <trkpt lat="49.03428" lon="7.9447">
        <ele>161.3</ele>
        <time>2020-06-27T21:22:50Z</time>
      </trkpt>
      <trkpt lat="49.03429" lon="7.9447">
        <ele>161.3</ele>
        <time>2020-06-27T21:22:51Z</time>
      </trkpt>
      <trkpt lat="49.03429" lon="7.94471">
        <ele>161.1</ele>
        <time>2020-06-27T21:22:52Z</time>
      </trkpt>
      <trkpt lat="49.0343" lon="7.94472">
        <ele>161</ele>
        <time>2020-06-27T21:22:53Z</time>
      </trkpt>
      <trkpt lat="49.0343" lon="7.94472">
        <ele>161</ele>
        <time>2020-06-27T21:22:54Z</time>
      </trkpt>
      <trkpt lat="49.0343" lon="7.94473">
        <ele>161</ele>
        <time>2020-06-27T21:22:55Z</time>
      </trkpt>
      <trkpt lat="49.0343" lon="7.94474">
        <ele>161</ele>
        <time>2020-06-27T21:22:56Z</time>
      </trkpt>
      <trkpt lat="49.0343" lon="7.94473">
        <ele>161</ele>
        <time>2020-06-27T21:22:57Z</time>
      </trkpt>
      <trkpt lat="49.03429" lon="7.94472">
        <ele>161.1</ele>
        <time>2020-06-27T21:22:58Z</time>
      </trkpt>
      <trkpt lat="49.03428" lon="7.94471">
        <ele>161.1</ele>
        <time>2020-06-27T21:22:59Z</time>
      </trkpt>
      <trkpt lat="49.03428" lon="7.9447">
        <ele>161.3</ele>
        <time>2020-06-27T21:23:00Z</time>
      </trkpt>
      <trkpt lat="49.03428" lon="7.94469">
        <ele>161.3</ele>
        <time>2020-06-27T21:23:01Z</time>
      </trkpt>
      <trkpt lat="49.03428" lon="7.94469">
        <ele>161.3</ele>
        <time>2020-06-27T21:23:02Z</time>
      </trkpt>
      <trkpt lat="49.03428" lon="7.94469">
        <ele>161.3</ele>
        <time>2020-06-27T21:23:03Z</time>
      </trkpt>
      <trkpt lat="49.03428" lon="7.94468">
        <ele>161.3</ele>
        <time>2020-06-27T21:23:04Z</time>
      </trkpt>
      <trkpt lat="49.03427" lon="7.94468">
        <ele>161.3</ele>
        <time>2020-06-27T21:23:05Z</time>
      </trkpt>
      <trkpt lat="49.03427" lon="7.94467">
        <ele>161.3</ele>
        <time>2020-06-27T21:23:06Z</time>
      </trkpt>
      <trkpt lat="49.03427" lon="7.94467">
        <ele>161.3</ele>
        <time>2020-06-27T21:23:07Z</time>
      </trkpt>
      <trkpt lat="49.03427" lon="7.94466">
        <ele>161.3</ele>
        <time>2020-06-27T21:23:08Z</time>
      </trkpt>
      <trkpt lat="49.03427" lon="7.94466">
        <ele>161.4</ele>
        <time>2020-06-27T21:23:09Z</time>
      </trkpt>
      <trkpt lat="49.03427" lon="7.94466">
        <ele>161.5</ele>
        <time>2020-06-27T21:23:10Z</time>
      </trkpt>
      <trkpt lat="49.03426" lon="7.94465">
        <ele>161.5</ele>
        <time>2020-06-27T21:23:11Z</time>
      </trkpt>
      <trkpt lat="49.03426" lon="7.94465">
        <ele>161.5</ele>
        <time>2020-06-27T21:23:12Z</time>
      </trkpt>
      <trkpt lat="49.03426" lon="7.94464">
        <ele>161.5</ele>
        <time>2020-06-27T21:23:13Z</time>
      </trkpt>
      <trkpt lat="49.03426" lon="7.94464">
        <ele>161.5</ele>
        <time>2020-06-27T21:23:14Z</time>
      </trkpt>
      <trkpt lat="49.03426" lon="7.94464">
        <ele>161.5</ele>
        <time>2020-06-27T21:23:15Z</time>
      </trkpt>
      <trkpt lat="49.03426" lon="7.94464">
        <ele>161.5</ele>
        <time>2020-06-27T21:23:16Z</time>
      </trkpt>
      <trkpt lat="49.03426" lon="7.94464">
        <ele>161.5</ele>
        <time>2020-06-27T21:23:17Z</time>
      </trkpt>
      <trkpt lat="49.03426" lon="7.94464">
        <ele>161.5</ele>
        <time>2020-06-27T21:23:18Z</time>
      </trkpt>
      <trkpt lat="49.03426" lon="7.94463">
        <ele>161.5</ele>
        <time>2020-06-27T21:23:19Z</time>
      </trkpt>
      <trkpt lat="49.0343" lon="7.94455">
        <ele>161.7</ele>
        <time>2020-06-27T21:24:00Z</time>
      </trkpt>
      <trkpt lat="49.03431" lon="7.94455">
        <ele>161.7</ele>
        <time>2020-06-27T21:24:01Z</time>
      </trkpt>
      <trkpt lat="49.03432" lon="7.94455">
        <ele>161.7</ele>
        <time>2020-06-27T21:24:02Z</time>
      </trkpt>
      <trkpt lat="49.03433" lon="7.94455">
        <ele>161.6</ele>
        <time>2020-06-27T21:24:03Z</time>
      </trkpt>
      <trkpt lat="49.03434" lon="7.94455">
        <ele>161.6</ele>
        <time>2020-06-27T21:24:04Z</time>
      </trkpt>
      <trkpt lat="49.03436" lon="7.94457">
        <ele>161.5</ele>
        <time>2020-06-27T21:24:05Z</time>
      </trkpt>
      <trkpt lat="49.03437" lon="7.94457">
        <ele>161.5</ele>
        <time>2020-06-27T21:24:06Z</time>
      </trkpt>
      <trkpt lat="49.03437" lon="7.94458">
        <ele>161.4</ele>
        <time>2020-06-27T21:24:07Z</time>
      </trkpt>
      <trkpt lat="49.03438" lon="7.94458">
        <ele>161.4</ele>
        <time>2020-06-27T21:24:08Z</time>
      </trkpt>
      <trkpt lat="49.03438" lon="7.94459">
        <ele>161.4</ele>
        <time>2020-06-27T21:24:09Z</time>
      </trkpt>
      <trkpt lat="49.03438" lon="7.9446">
        <ele>161.4</ele>
        <time>2020-06-27T21:24:10Z</time>
      </trkpt>
      <trkpt lat="49.03437" lon="7.94461">
        <ele>161.4</ele>
        <time>2020-06-27T21:24:11Z</time>
      </trkpt>
      <trkpt lat="49.03436" lon="7.94462">
        <ele>161.3</ele>
        <time>2020-06-27T21:24:12Z</time>
      </trkpt>
      <trkpt lat="49.03436" lon="7.94462">
        <ele>161.4</ele>
        <time>2020-06-27T21:24:13Z</time>
      </trkpt>
      <trkpt lat="49.03436" lon="7.94462">
        <ele>161.4</ele>
        <time>2020-06-27T21:24:14Z</time>
      </trkpt>
      <trkpt lat="49.03435" lon="7.94461">
        <ele>161.4</ele>
        <time>2020-06-27T21:24:15Z</time>
      </trkpt>
      <trkpt lat="49.03434" lon="7.94461">
        <ele>161.5</ele>
        <time>2020-06-27T21:24:16Z</time>
      </trkpt>
      <trkpt lat="49.03434" lon="7.94461">
        <ele>161.5</ele>
        <time>2020-06-27T21:24:17Z</time>
      </trkpt>
      <trkpt lat="49.03434" lon="7.94461">
        <ele>161.5</ele>
        <time>2020-06-27T21:24:18Z</time>
      </trkpt>
      <trkpt lat="49.03434" lon="7.94461">
        <ele>161.5</ele>
        <time>2020-06-27T21:24:19Z</time>
      </trkpt>
      <trkpt lat="49.03428" lon="7.94469">
        <ele>161.3</ele>
        <time>2020-06-27T21:24:26Z</time>
      </trkpt>
      <trkpt lat="49.03428" lon="7.94468">
        <ele>161.3</ele>
        <time>2020-06-27T21:24:27Z</time>
      </trkpt>
      <trkpt lat="49.03426" lon="7.94467">
        <ele>161.3</ele>
        <time>2020-06-27T21:24:28Z</time>
      </trkpt>
      <trkpt lat="49.03425" lon="7.94466">
        <ele>161.5</ele>
        <time>2020-06-27T21:24:29Z</time>
      </trkpt>
      <trkpt lat="49.03423" lon="7.94466">
        <ele>161.5</ele>
        <time>2020-06-27T21:24:30Z</time>
      </trkpt>
      <trkpt lat="49.03422" lon="7.94467">
        <ele>161.4</ele>
        <time>2020-06-27T21:24:31Z</time>
      </trkpt>
      <trkpt lat="49.0342" lon="7.94467">
        <ele>161.4</ele>
        <time>2020-06-27T21:24:32Z</time>
      </trkpt>
      <trkpt lat="49.03417" lon="7.94466">
        <ele>161.6</ele>
        <time>2020-06-27T21:24:33Z</time>
      </trkpt>
      <trkpt lat="49.03416" lon="7.94465">
        <ele>161.6</ele>
        <time>2020-06-27T21:24:34Z</time>
      </trkpt>
      <trkpt lat="49.03414" lon="7.94463">
        <ele>161.7</ele>
        <time>2020-06-27T21:24:35Z</time>
      </trkpt>
      <trkpt lat="49.03414" lon="7.94463">
        <ele>161.7</ele>
        <time>2020-06-27T21:24:36Z</time>
      </trkpt>
      <trkpt lat="49.03413" lon="7.94462">
        <ele>161.7</ele>
        <time>2020-06-27T21:24:37Z</time>
      </trkpt>
      <trkpt lat="49.03413" lon="7.94461">
        <ele>161.8</ele>
        <time>2020-06-27T21:24:38Z</time>
      </trkpt>
      <trkpt lat="49.03411" lon="7.94461">
        <ele>161.8</ele>
        <time>2020-06-27T21:24:39Z</time>
      </trkpt>
      <trkpt lat="49.03404" lon="7.9445">
        <ele>162.2</ele>
        <time>2020-06-27T21:25:21Z</time>
      </trkpt>
      <trkpt lat="49.03403" lon="7.9445">
        <ele>162.2</ele>
        <time>2020-06-27T21:25:22Z</time>
      </trkpt>
      <trkpt lat="49.03403" lon="7.9445">
        <ele>162.2</ele>
        <time>2020-06-27T21:25:23Z</time>
      </trkpt>
      <trkpt lat="49.03403" lon="7.94451">
        <ele>162.2</ele>
        <time>2020-06-27T21:25:24Z</time>
      </trkpt>
      <trkpt lat="49.03403" lon="7.94453">
        <ele>162.2</ele>
        <time>2020-06-27T21:25:25Z</time>
      </trkpt>
      <trkpt lat="49.03403" lon="7.94453">
        <ele>162.2</ele>
        <time>2020-06-27T21:25:26Z</time>
      </trkpt>
      <trkpt lat="49.03404" lon="7.94453">
        <ele>162.1</ele>
        <time>2020-06-27T21:25:27Z</time>
      </trkpt>
      <trkpt lat="49.03404" lon="7.94453">
        <ele>162.2</ele>
        <time>2020-06-27T21:25:28Z</time>
      </trkpt>
      <trkpt lat="49.03405" lon="7.94452">
        <ele>162.2</ele>
        <time>2020-06-27T21:25:29Z</time>
      </trkpt>
      <trkpt lat="49.03406" lon="7.94452">
        <ele>162.2</ele>
        <time>2020-06-27T21:25:30Z</time>
      </trkpt>
      <trkpt lat="49.03406" lon="7.94451">
        <ele>162.2</ele>
        <time>2020-06-27T21:25:31Z</time>
      </trkpt>
      <trkpt lat="49.03406" lon="7.94451">
        <ele>162.2</ele>
        <time>2020-06-27T21:25:32Z</time>
      </trkpt>
      <trkpt lat="49.03407" lon="7.94451">
        <ele>162.2</ele>
        <time>2020-06-27T21:25:33Z</time>
      </trkpt>
      <trkpt lat="49.03407" lon="7.94451">
        <ele>162.2</ele>
        <time>2020-06-27T21:25:34Z</time>
      </trkpt>
      <trkpt lat="49.03407" lon="7.94451">
        <ele>162.2</ele>
        <time>2020-06-27T21:25:35Z</time>
      </trkpt>
      <trkpt lat="49.03407" lon="7.94452">
        <ele>162.2</ele>
        <time>2020-06-27T21:25:36Z</time>
      </trkpt>
      <trkpt lat="49.03407" lon="7.94452">
        <ele>162.2</ele>
        <time>2020-06-27T21:25:37Z</time>
      </trkpt>
      <trkpt lat="49.03408" lon="7.94453">
        <ele>162.2</ele>
        <time>2020-06-27T21:25:38Z</time>
      </trkpt>
      <trkpt lat="49.03408" lon="7.94453">
        <ele>162.2</ele>
        <time>2020-06-27T21:25:39Z</time>
      </trkpt>
      <trkpt lat="49.03408" lon="7.94453">
        <ele>162.2</ele>
        <time>2020-06-27T21:25:40Z</time>
      </trkpt>
      <trkpt lat="49.03408" lon="7.94453">
        <ele>162.2</ele>
        <time>2020-06-27T21:25:41Z</time>
      </trkpt>
      <trkpt lat="49.03408" lon="7.94454">
        <ele>162</ele>
        <time>2020-06-27T21:25:42Z</time>
      </trkpt>
      <trkpt lat="49.03408" lon="7.94454">
        <ele>162</ele>
        <time>2020-06-27T21:25:43Z</time>
      </trkpt>
      <trkpt lat="49.03408" lon="7.94454">
        <ele>162</ele>
        <time>2020-06-27T21:25:44Z</time>
      </trkpt>
      <trkpt lat="49.03408" lon="7.94454">
        <ele>162</ele>
        <time>2020-06-27T21:25:45Z</time>
      </trkpt>
      <trkpt lat="49.03408" lon="7.94455">
        <ele>162</ele>
        <time>2020-06-27T21:25:46Z</time>
      </trkpt>
      <trkpt lat="49.03408" lon="7.94454">
        <ele>162</ele>
        <time>2020-06-27T21:25:47Z</time>
      </trkpt>
      <trkpt lat="49.03408" lon="7.94454">
        <ele>162</ele>
        <time>2020-06-27T21:25:48Z</time>
      </trkpt>
      <trkpt lat="49.03408" lon="7.94454">
        <ele>162</ele>
        <time>2020-06-27T21:25:49Z</time>
      </trkpt>
      <trkpt lat="49.03408" lon="7.94454">
        <ele>162</ele>
        <time>2020-06-27T21:25:50Z</time>
      </trkpt>
      <trkpt lat="49.03407" lon="7.94453">
        <ele>162</ele>
        <time>2020-06-27T21:25:51Z</time>
      </trkpt>
      <trkpt lat="49.03407" lon="7.94453">
        <ele>162.1</ele>
        <time>2020-06-27T21:25:52Z</time>
      </trkpt>
      <trkpt lat="49.03406" lon="7.94453">
        <ele>162.2</ele>
        <time>2020-06-27T21:25:53Z</time>
      </trkpt>
      <trkpt lat="49.03406" lon="7.94454">
        <ele>162.1</ele>
        <time>2020-06-27T21:25:54Z</time>
      </trkpt>
      <trkpt lat="49.03407" lon="7.94454">
        <ele>162.1</ele>
        <time>2020-06-27T21:25:55Z</time>
      </trkpt>
      <trkpt lat="49.03414" lon="7.94458">
        <ele>161.8</ele>
        <time>2020-06-27T21:28:14Z</time>
      </trkpt>
      <trkpt lat="49.03413" lon="7.94458">
        <ele>161.8</ele>
        <time>2020-06-27T21:28:15Z</time>
      </trkpt>
      <trkpt lat="49.03413" lon="7.94457">
        <ele>162</ele>
        <time>2020-06-27T21:28:16Z</time>
      </trkpt>
      <trkpt lat="49.03413" lon="7.94456">
        <ele>162</ele>
        <time>2020-06-27T21:28:17Z</time>
      </trkpt>
      <trkpt lat="49.03413" lon="7.94455">
        <ele>162</ele>
        <time>2020-06-27T21:28:18Z</time>
      </trkpt>
      <trkpt lat="49.03413" lon="7.94455">
        <ele>162</ele>
        <time>2020-06-27T21:28:19Z</time>
      </trkpt>
      <trkpt lat="49.03413" lon="7.94454">
        <ele>162</ele>
        <time>2020-06-27T21:28:20Z</time>
      </trkpt>
      <trkpt lat="49.03413" lon="7.94455">
        <ele>162</ele>
        <time>2020-06-27T21:28:21Z</time>
      </trkpt>
      <trkpt lat="49.03413" lon="7.94457">
        <ele>162</ele>
        <time>2020-06-27T21:28:22Z</time>
      </trkpt>
      <trkpt lat="49.03413" lon="7.9446">
        <ele>161.8</ele>
        <time>2020-06-27T21:28:23Z</time>
      </trkpt>
      <trkpt lat="49.03413" lon="7.94461">
        <ele>161.8</ele>
        <time>2020-06-27T21:28:24Z</time>
      </trkpt>
      <trkpt lat="49.03413" lon="7.94462">
        <ele>161.8</ele>
        <time>2020-06-27T21:28:25Z</time>
      </trkpt>
      <trkpt lat="49.03413" lon="7.94461">
        <ele>161.8</ele>
        <time>2020-06-27T21:28:26Z</time>
      </trkpt>
      <trkpt lat="49.03414" lon="7.94461">
        <ele>161.8</ele>
        <time>2020-06-27T21:28:27Z</time>
      </trkpt>
      <trkpt lat="49.03414" lon="7.9446">
        <ele>161.8</ele>
        <time>2020-06-27T21:28:29Z</time>
      </trkpt>
      <trkpt lat="49.03414" lon="7.9446">
        <ele>161.8</ele>
        <time>2020-06-27T21:28:30Z</time>
      </trkpt>
      <trkpt lat="49.03414" lon="7.9446">
        <ele>161.8</ele>
        <time>2020-06-27T21:28:31Z</time>
      </trkpt>
      <trkpt lat="49.03414" lon="7.94461">
        <ele>161.8</ele>
        <time>2020-06-27T21:28:32Z</time>
      </trkpt>
      <trkpt lat="49.0341" lon="7.94467">
        <ele>161.5</ele>
        <time>2020-06-27T21:29:08Z</time>
      </trkpt>
      <trkpt lat="49.03409" lon="7.94467">
        <ele>161.5</ele>
        <time>2020-06-27T21:29:09Z</time>
      </trkpt>
      <trkpt lat="49.03409" lon="7.94466">
        <ele>161.5</ele>
        <time>2020-06-27T21:29:10Z</time>
      </trkpt>
      <trkpt lat="49.03409" lon="7.94466">
        <ele>161.7</ele>
        <time>2020-06-27T21:29:11Z</time>
      </trkpt>
      <trkpt lat="49.03408" lon="7.94465">
        <ele>161.7</ele>
        <time>2020-06-27T21:29:12Z</time>
      </trkpt>
      <trkpt lat="49.03408" lon="7.94465">
        <ele>161.7</ele>
        <time>2020-06-27T21:29:13Z</time>
      </trkpt>
      <trkpt lat="49.03408" lon="7.94465">
        <ele>161.7</ele>
        <time>2020-06-27T21:29:14Z</time>
      </trkpt>
      <trkpt lat="49.03408" lon="7.94464">
        <ele>161.7</ele>
        <time>2020-06-27T21:29:15Z</time>
      </trkpt>
      <trkpt lat="49.03408" lon="7.94464">
        <ele>161.7</ele>
        <time>2020-06-27T21:29:16Z</time>
      </trkpt>
      <trkpt lat="49.03408" lon="7.94464">
        <ele>161.7</ele>
        <time>2020-06-27T21:29:17Z</time>
      </trkpt>
      <trkpt lat="49.03407" lon="7.94465">
        <ele>161.7</ele>
        <time>2020-06-27T21:29:18Z</time>
      </trkpt>
      <trkpt lat="49.03406" lon="7.94465">
        <ele>161.8</ele>
        <time>2020-06-27T21:29:19Z</time>
      </trkpt>
      <trkpt lat="49.03406" lon="7.94464">
        <ele>161.8</ele>
        <time>2020-06-27T21:29:20Z</time>
      </trkpt>
      <trkpt lat="49.03406" lon="7.94464">
        <ele>161.8</ele>
        <time>2020-06-27T21:29:21Z</time>
      </trkpt>
      <trkpt lat="49.03405" lon="7.94464">
        <ele>161.8</ele>
        <time>2020-06-27T21:29:22Z</time>
      </trkpt>
      <trkpt lat="49.03405" lon="7.94465">
        <ele>161.8</ele>
        <time>2020-06-27T21:29:23Z</time>
      </trkpt>
      <trkpt lat="49.03405" lon="7.94465">
        <ele>161.8</ele>
        <time>2020-06-27T21:29:24Z</time>
      </trkpt>
      <trkpt lat="49.03405" lon="7.94466">
        <ele>161.6</ele>
        <time>2020-06-27T21:29:25Z</time>
      </trkpt>
      <trkpt lat="49.03405" lon="7.94466">
        <ele>161.6</ele>
        <time>2020-06-27T21:29:26Z</time>
      </trkpt>
      <trkpt lat="49.03406" lon="7.94466">
        <ele>161.6</ele>
        <time>2020-06-27T21:29:27Z</time>
      </trkpt>
      <trkpt lat="49.03406" lon="7.94466">
        <ele>161.6</ele>
        <time>2020-06-27T21:29:28Z</time>
      </trkpt>
      <trkpt lat="49.03406" lon="7.94466">
        <ele>161.6</ele>
        <time>2020-06-27T21:29:29Z</time>
      </trkpt>
      <trkpt lat="49.03406" lon="7.94465">
        <ele>161.8</ele>
        <time>2020-06-27T21:29:30Z</time>
      </trkpt>
      <trkpt lat="49.03405" lon="7.94465">
        <ele>161.8</ele>
        <time>2020-06-27T21:29:31Z</time>
      </trkpt>
      <trkpt lat="49.03405" lon="7.94464">
        <ele>161.8</ele>
        <time>2020-06-27T21:29:32Z</time>
      </trkpt>
      <trkpt lat="49.03405" lon="7.94464">
        <ele>161.8</ele>
        <time>2020-06-27T21:29:33Z</time>
      </trkpt>
      <trkpt lat="49.03404" lon="7.94464">
        <ele>161.8</ele>
        <time>2020-06-27T21:29:34Z</time>
      </trkpt>
      <trkpt lat="49.03403" lon="7.94464">
        <ele>161.8</ele>
        <time>2020-06-27T21:29:35Z</time>
      </trkpt>
      <trkpt lat="49.03404" lon="7.94463">
        <ele>161.8</ele>
        <time>2020-06-27T21:29:36Z</time>
      </trkpt>
      <trkpt lat="49.03403" lon="7.94463">
        <ele>161.8</ele>
        <time>2020-06-27T21:29:37Z</time>
      </trkpt>
      <trkpt lat="49.03404" lon="7.94463">
        <ele>161.8</ele>
        <time>2020-06-27T21:29:38Z</time>
      </trkpt>
      <trkpt lat="49.03403" lon="7.94463">
        <ele>161.8</ele>
        <time>2020-06-27T21:29:39Z</time>
      </trkpt>
      <trkpt lat="49.03403" lon="7.94462">
        <ele>161.8</ele>
        <time>2020-06-27T21:29:40Z</time>
      </trkpt>
      <trkpt lat="49.03402" lon="7.94462">
        <ele>161.8</ele>
        <time>2020-06-27T21:29:41Z</time>
      </trkpt>
      <trkpt lat="49.03402" lon="7.94462">
        <ele>161.8</ele>
        <time>2020-06-27T21:29:42Z</time>
      </trkpt>
      <trkpt lat="49.03403" lon="7.94462">
        <ele>161.8</ele>
        <time>2020-06-27T21:29:43Z</time>
      </trkpt>
      <trkpt lat="49.03404" lon="7.94463">
        <ele>161.8</ele>
        <time>2020-06-27T21:29:44Z</time>
      </trkpt>
      <trkpt lat="49.03404" lon="7.94463">
        <ele>161.8</ele>
        <time>2020-06-27T21:29:45Z</time>
      </trkpt>
      <trkpt lat="49.03405" lon="7.94464">
        <ele>161.8</ele>
        <time>2020-06-27T21:29:46Z</time>
      </trkpt>
      <trkpt lat="49.03405" lon="7.94464">
        <ele>161.8</ele>
        <time>2020-06-27T21:29:47Z</time>
      </trkpt>
      <trkpt lat="49.03406" lon="7.94465">
        <ele>161.8</ele>
        <time>2020-06-27T21:29:48Z</time>
      </trkpt>
      <trkpt lat="49.03406" lon="7.94465">
        <ele>161.8</ele>
        <time>2020-06-27T21:29:49Z</time>
      </trkpt>
      <trkpt lat="49.03407" lon="7.94466">
        <ele>161.7</ele>
        <time>2020-06-27T21:29:50Z</time>
      </trkpt>
      <trkpt lat="49.03409" lon="7.94466">
        <ele>161.5</ele>
        <time>2020-06-27T21:29:51Z</time>
      </trkpt>
      <trkpt lat="49.0341" lon="7.94466">
        <ele>161.7</ele>
        <time>2020-06-27T21:29:52Z</time>
      </trkpt>
      <trkpt lat="49.0341" lon="7.94465">
        <ele>161.7</ele>
        <time>2020-06-27T21:29:53Z</time>
      </trkpt>
      <trkpt lat="49.03411" lon="7.94465">
        <ele>161.7</ele>
        <time>2020-06-27T21:29:54Z</time>
      </trkpt>
      <trkpt lat="49.03411" lon="7.94465">
        <ele>161.7</ele>
        <time>2020-06-27T21:29:55Z</time>
      </trkpt>
      <trkpt lat="49.03412" lon="7.94465">
        <ele>161.7</ele>
        <time>2020-06-27T21:29:56Z</time>
      </trkpt>
      <trkpt lat="49.03411" lon="7.94464">
        <ele>161.7</ele>
        <time>2020-06-27T21:29:57Z</time>
      </trkpt>
      <trkpt lat="49.0341" lon="7.94463">
        <ele>161.7</ele>
        <time>2020-06-27T21:29:58Z</time>
      </trkpt>
      <trkpt lat="49.0341" lon="7.94463">
        <ele>161.7</ele>
        <time>2020-06-27T21:29:59Z</time>
      </trkpt>
      <trkpt lat="49.0341" lon="7.94462">
        <ele>161.8</ele>
        <time>2020-06-27T21:30:00Z</time>
      </trkpt>
      <trkpt lat="49.0341" lon="7.9446">
        <ele>161.8</ele>
        <time>2020-06-27T21:30:01Z</time>
      </trkpt>
      <trkpt lat="49.0341" lon="7.94459">
        <ele>161.8</ele>
        <time>2020-06-27T21:30:02Z</time>
      </trkpt>
      <trkpt lat="49.0341" lon="7.9446">
        <ele>161.8</ele>
        <time>2020-06-27T21:30:03Z</time>
      </trkpt>
      <trkpt lat="49.0341" lon="7.94459">
        <ele>161.8</ele>
        <time>2020-06-27T21:30:04Z</time>
      </trkpt>
      <trkpt lat="49.0341" lon="7.94459">
        <ele>161.8</ele>
        <time>2020-06-27T21:30:05Z</time>
      </trkpt>
      <trkpt lat="49.0341" lon="7.94459">
        <ele>161.8</ele>
        <time>2020-06-27T21:30:06Z</time>
      </trkpt>
      <trkpt lat="49.0341" lon="7.9446">
        <ele>161.8</ele>
        <time>2020-06-27T21:30:07Z</time>
      </trkpt>
      <trkpt lat="49.0341" lon="7.9446">
        <ele>161.8</ele>
        <time>2020-06-27T21:30:08Z</time>
      </trkpt>
      <trkpt lat="49.03409" lon="7.94461">
        <ele>161.9</ele>
        <time>2020-06-27T21:30:09Z</time>
      </trkpt>
      <trkpt lat="49.03408" lon="7.94462">
        <ele>161.7</ele>
        <time>2020-06-27T21:30:10Z</time>
      </trkpt>
      <trkpt lat="49.03408" lon="7.94463">
        <ele>161.7</ele>
        <time>2020-06-27T21:30:11Z</time>
      </trkpt>
      <trkpt lat="49.03407" lon="7.94463">
        <ele>161.7</ele>
        <time>2020-06-27T21:30:12Z</time>
      </trkpt>
      <trkpt lat="49.03407" lon="7.94463">
        <ele>161.7</ele>
        <time>2020-06-27T21:30:13Z</time>
      </trkpt>
      <trkpt lat="49.03408" lon="7.94463">
        <ele>161.7</ele>
        <time>2020-06-27T21:30:14Z</time>
      </trkpt>
      <trkpt lat="49.03408" lon="7.94464">
        <ele>161.7</ele>
        <time>2020-06-27T21:30:15Z</time>
      </trkpt>
      <trkpt lat="49.03409" lon="7.94464">
        <ele>161.7</ele>
        <time>2020-06-27T21:30:16Z</time>
      </trkpt>
      <trkpt lat="49.0341" lon="7.94464">
        <ele>161.7</ele>
        <time>2020-06-27T21:30:17Z</time>
      </trkpt>
      <trkpt lat="49.0341" lon="7.94464">
        <ele>161.7</ele>
        <time>2020-06-27T21:30:18Z</time>
      </trkpt>
      <trkpt lat="49.0341" lon="7.94464">
        <ele>161.7</ele>
        <time>2020-06-27T21:30:19Z</time>
      </trkpt>
      <trkpt lat="49.0341" lon="7.94464">
        <ele>161.7</ele>
        <time>2020-06-27T21:30:20Z</time>
      </trkpt>
      <trkpt lat="49.03409" lon="7.94464">
        <ele>161.7</ele>
        <time>2020-06-27T21:30:21Z</time>
      </trkpt>
      <trkpt lat="49.03409" lon="7.94465">
        <ele>161.7</ele>
        <time>2020-06-27T21:30:22Z</time>
      </trkpt>
      <trkpt lat="49.03409" lon="7.94465">
        <ele>161.7</ele>
        <time>2020-06-27T21:30:23Z</time>
      </trkpt>
      <trkpt lat="49.03409" lon="7.94465">
        <ele>161.7</ele>
        <time>2020-06-27T21:30:24Z</time>
      </trkpt>
      <trkpt lat="49.03409" lon="7.94464">
        <ele>161.7</ele>
        <time>2020-06-27T21:30:25Z</time>
      </trkpt>
      <trkpt lat="49.03409" lon="7.94463">
        <ele>161.7</ele>
        <time>2020-06-27T21:30:26Z</time>
      </trkpt>
      <trkpt lat="49.0341" lon="7.94463">
        <ele>161.7</ele>
        <time>2020-06-27T21:30:27Z</time>
      </trkpt>
      <trkpt lat="49.0341" lon="7.94462">
        <ele>161.8</ele>
        <time>2020-06-27T21:30:28Z</time>
      </trkpt>
      <trkpt lat="49.0341" lon="7.94461">
        <ele>161.8</ele>
        <time>2020-06-27T21:30:29Z</time>
      </trkpt>
      <trkpt lat="49.0341" lon="7.9446">
        <ele>161.8</ele>
        <time>2020-06-27T21:30:30Z</time>
      </trkpt>
      <trkpt lat="49.0341" lon="7.94459">
        <ele>161.9</ele>
        <time>2020-06-27T21:30:31Z</time>
      </trkpt>
      <trkpt lat="49.03409" lon="7.9446">
        <ele>161.9</ele>
        <time>2020-06-27T21:30:32Z</time>
      </trkpt>
      <trkpt lat="49.03409" lon="7.9446">
        <ele>161.9</ele>
        <time>2020-06-27T21:30:33Z</time>
      </trkpt>
      <trkpt lat="49.03409" lon="7.9446">
        <ele>161.9</ele>
        <time>2020-06-27T21:30:34Z</time>
      </trkpt>
      <trkpt lat="49.03408" lon="7.9446">
        <ele>161.9</ele>
        <time>2020-06-27T21:30:35Z</time>
      </trkpt>
      <trkpt lat="49.03408" lon="7.9446">
        <ele>161.9</ele>
        <time>2020-06-27T21:30:36Z</time>
      </trkpt>
      <trkpt lat="49.03407" lon="7.9446">
        <ele>161.9</ele>
        <time>2020-06-27T21:30:37Z</time>
      </trkpt>
      <trkpt lat="49.03407" lon="7.9446">
        <ele>161.9</ele>
        <time>2020-06-27T21:30:38Z</time>
      </trkpt>
      <trkpt lat="49.03407" lon="7.9446">
        <ele>161.9</ele>
        <time>2020-06-27T21:30:39Z</time>
      </trkpt>
      <trkpt lat="49.03407" lon="7.9446">
        <ele>161.9</ele>
        <time>2020-06-27T21:30:40Z</time>
      </trkpt>
      <trkpt lat="49.03407" lon="7.9446">
        <ele>161.9</ele>
        <time>2020-06-27T21:30:41Z</time>
      </trkpt>
      <trkpt lat="49.03406" lon="7.94461">
        <ele>161.9</ele>
        <time>2020-06-27T21:30:42Z</time>
      </trkpt>
      <trkpt lat="49.03407" lon="7.94461">
        <ele>161.9</ele>
        <time>2020-06-27T21:30:43Z</time>
      </trkpt>
      <trkpt lat="49.03407" lon="7.94461">
        <ele>161.9</ele>
        <time>2020-06-27T21:30:44Z</time>
      </trkpt>
      <trkpt lat="49.03407" lon="7.94461">
        <ele>161.9</ele>
        <time>2020-06-27T21:30:45Z</time>
      </trkpt>
      <trkpt lat="49.03408" lon="7.94461">
        <ele>161.9</ele>
        <time>2020-06-27T21:30:46Z</time>
      </trkpt>
      <trkpt lat="49.03408" lon="7.94461">
        <ele>161.9</ele>
        <time>2020-06-27T21:30:47Z</time>
      </trkpt>
      <trkpt lat="49.03409" lon="7.94461">
        <ele>161.9</ele>
        <time>2020-06-27T21:30:48Z</time>
      </trkpt>
      <trkpt lat="49.03409" lon="7.94461">
        <ele>161.9</ele>
        <time>2020-06-27T21:30:49Z</time>
      </trkpt>
      <trkpt lat="49.03409" lon="7.94461">
        <ele>161.9</ele>
        <time>2020-06-27T21:30:50Z</time>
      </trkpt>
      <trkpt lat="49.03409" lon="7.94461">
        <ele>161.9</ele>
        <time>2020-06-27T21:30:51Z</time>
      </trkpt>
      <trkpt lat="49.03408" lon="7.94462">
        <ele>161.9</ele>
        <time>2020-06-27T21:30:52Z</time>
      </trkpt>
      <trkpt lat="49.03408" lon="7.94462">
        <ele>161.9</ele>
        <time>2020-06-27T21:30:53Z</time>
      </trkpt>
      <trkpt lat="49.03408" lon="7.94462">
        <ele>161.7</ele>
        <time>2020-06-27T21:30:54Z</time>
      </trkpt>
      <trkpt lat="49.03408" lon="7.94462">
        <ele>161.7</ele>
        <time>2020-06-27T21:30:55Z</time>
      </trkpt>
      <trkpt lat="49.03409" lon="7.94462">
        <ele>161.7</ele>
        <time>2020-06-27T21:30:56Z</time>
      </trkpt>
      <trkpt lat="49.03409" lon="7.94462">
        <ele>161.7</ele>
        <time>2020-06-27T21:30:57Z</time>
      </trkpt>
      <trkpt lat="49.03409" lon="7.94462">
        <ele>161.7</ele>
        <time>2020-06-27T21:30:58Z</time>
      </trkpt>
      <trkpt lat="49.03411" lon="7.9446">
        <ele>161.8</ele>
        <time>2020-06-27T21:31:01Z</time>
      </trkpt>
      <trkpt lat="49.03411" lon="7.94458">
        <ele>161.8</ele>
        <time>2020-06-27T21:31:02Z</time>
      </trkpt>
      <trkpt lat="49.03411" lon="7.94457">
        <ele>162</ele>
        <time>2020-06-27T21:31:03Z</time>
      </trkpt>
      <trkpt lat="49.03412" lon="7.94456">
        <ele>162</ele>
        <time>2020-06-27T21:31:04Z</time>
      </trkpt>
      <trkpt lat="49.03412" lon="7.94456">
        <ele>162</ele>
        <time>2020-06-27T21:31:05Z</time>
      </trkpt>
      <trkpt lat="49.03412" lon="7.94456">
        <ele>162</ele>
        <time>2020-06-27T21:31:06Z</time>
      </trkpt>
      <trkpt lat="49.03412" lon="7.94456">
        <ele>162</ele>
        <time>2020-06-27T21:31:07Z</time>
      </trkpt>
      <trkpt lat="49.03412" lon="7.94456">
        <ele>162</ele>
        <time>2020-06-27T21:31:08Z</time>
      </trkpt>
      <trkpt lat="49.03412" lon="7.94456">
        <ele>162</ele>
        <time>2020-06-27T21:31:09Z</time>
      </trkpt>
      <trkpt lat="49.03412" lon="7.94458">
        <ele>161.8</ele>
        <time>2020-06-27T21:31:10Z</time>
      </trkpt>
      <trkpt lat="49.03414" lon="7.94459">
        <ele>161.8</ele>
        <time>2020-06-27T21:31:11Z</time>
      </trkpt>
      <trkpt lat="49.03415" lon="7.94459">
        <ele>161.8</ele>
        <time>2020-06-27T21:31:12Z</time>
      </trkpt>
      <trkpt lat="49.03416" lon="7.94459">
        <ele>161.8</ele>
        <time>2020-06-27T21:31:13Z</time>
      </trkpt>
      <trkpt lat="49.03417" lon="7.94459">
        <ele>161.8</ele>
        <time>2020-06-27T21:31:14Z</time>
      </trkpt>
      <trkpt lat="49.03417" lon="7.94459">
        <ele>161.8</ele>
        <time>2020-06-27T21:31:15Z</time>
      </trkpt>
      <trkpt lat="49.03418" lon="7.94459">
        <ele>161.8</ele>
        <time>2020-06-27T21:31:16Z</time>
      </trkpt>
      <trkpt lat="49.03417" lon="7.94459">
        <ele>161.8</ele>
        <time>2020-06-27T21:31:17Z</time>
      </trkpt>
      <trkpt lat="49.03416" lon="7.9446">
        <ele>161.8</ele>
        <time>2020-06-27T21:31:18Z</time>
      </trkpt>
      <trkpt lat="49.03415" lon="7.9446">
        <ele>161.8</ele>
        <time>2020-06-27T21:31:19Z</time>
      </trkpt>
      <trkpt lat="49.03414" lon="7.9446">
        <ele>161.8</ele>
        <time>2020-06-27T21:31:20Z</time>
      </trkpt>
      <trkpt lat="49.03413" lon="7.9446">
        <ele>161.8</ele>
        <time>2020-06-27T21:31:21Z</time>
      </trkpt>
      <trkpt lat="49.03412" lon="7.94461">
        <ele>161.8</ele>
        <time>2020-06-27T21:31:22Z</time>
      </trkpt>
      <trkpt lat="49.03411" lon="7.94461">
        <ele>161.8</ele>
        <time>2020-06-27T21:31:23Z</time>
      </trkpt>
      <trkpt lat="49.03411" lon="7.94461">
        <ele>161.8</ele>
        <time>2020-06-27T21:31:24Z</time>
      </trkpt>
      <trkpt lat="49.03411" lon="7.94461">
        <ele>161.8</ele>
        <time>2020-06-27T21:31:25Z</time>
      </trkpt>
      <trkpt lat="49.03411" lon="7.94461">
        <ele>161.8</ele>
        <time>2020-06-27T21:31:26Z</time>
      </trkpt>
      <trkpt lat="49.03411" lon="7.9446">
        <ele>161.8</ele>
        <time>2020-06-27T21:31:27Z</time>
      </trkpt>
      <trkpt lat="49.03412" lon="7.9446">
        <ele>161.8</ele>
        <time>2020-06-27T21:31:28Z</time>
      </trkpt>
      <trkpt lat="49.03413" lon="7.94459">
        <ele>161.8</ele>
        <time>2020-06-27T21:31:29Z</time>
      </trkpt>
      <trkpt lat="49.03413" lon="7.94459">
        <ele>161.8</ele>
        <time>2020-06-27T21:31:30Z</time>
      </trkpt>
      <trkpt lat="49.03414" lon="7.94459">
        <ele>161.8</ele>
        <time>2020-06-27T21:31:31Z</time>
      </trkpt>
      <trkpt lat="49.03414" lon="7.94459">
        <ele>161.8</ele>
        <time>2020-06-27T21:31:32Z</time>
      </trkpt>
      <trkpt lat="49.03414" lon="7.94458">
        <ele>161.8</ele>
        <time>2020-06-27T21:31:33Z</time>
      </trkpt>
      <trkpt lat="49.03414" lon="7.94459">
        <ele>161.8</ele>
        <time>2020-06-27T21:31:34Z</time>
      </trkpt>
      <trkpt lat="49.03414" lon="7.94459">
        <ele>161.8</ele>
        <time>2020-06-27T21:31:35Z</time>
      </trkpt>
      <trkpt lat="49.03413" lon="7.9446">
        <ele>161.8</ele>
        <time>2020-06-27T21:31:36Z</time>
      </trkpt>
      <trkpt lat="49.03413" lon="7.94461">
        <ele>161.8</ele>
        <time>2020-06-27T21:31:37Z</time>
      </trkpt>
      <trkpt lat="49.03413" lon="7.94462">
        <ele>161.7</ele>
        <time>2020-06-27T21:31:38Z</time>
      </trkpt>
      <trkpt lat="49.03413" lon="7.94462">
        <ele>161.8</ele>
        <time>2020-06-27T21:31:39Z</time>
      </trkpt>
      <trkpt lat="49.03413" lon="7.94462">
        <ele>161.8</ele>
        <time>2020-06-27T21:31:40Z</time>
      </trkpt>
      <trkpt lat="49.03413" lon="7.94462">
        <ele>161.8</ele>
        <time>2020-06-27T21:31:41Z</time>
      </trkpt>
      <trkpt lat="49.03413" lon="7.94462">
        <ele>161.8</ele>
        <time>2020-06-27T21:31:42Z</time>
      </trkpt>
      <trkpt lat="49.03413" lon="7.94462">
        <ele>161.7</ele>
        <time>2020-06-27T21:31:43Z</time>
      </trkpt>
      <trkpt lat="49.03413" lon="7.94462">
        <ele>161.7</ele>
        <time>2020-06-27T21:31:44Z</time>
      </trkpt>
      <trkpt lat="49.03413" lon="7.94462">
        <ele>161.7</ele>
        <time>2020-06-27T21:31:45Z</time>
      </trkpt>
      <trkpt lat="49.03413" lon="7.94462">
        <ele>161.7</ele>
        <time>2020-06-27T21:31:46Z</time>
      </trkpt>
      <trkpt lat="49.03414" lon="7.9445">
        <ele>162.1</ele>
        <time>2020-06-27T21:52:55Z</time>
      </trkpt>
      <trkpt lat="49.03414" lon="7.94447">
        <ele>162.2</ele>
        <time>2020-06-27T21:52:56Z</time>
      </trkpt>
      <trkpt lat="49.03414" lon="7.94447">
        <ele>162.2</ele>
        <time>2020-06-27T21:52:57Z</time>
      </trkpt>
      <trkpt lat="49.03414" lon="7.94448">
        <ele>162.2</ele>
        <time>2020-06-27T21:52:58Z</time>
      </trkpt>
      <trkpt lat="49.03414" lon="7.94447">
        <ele>162.2</ele>
        <time>2020-06-27T21:52:59Z</time>
      </trkpt>
      <trkpt lat="49.03414" lon="7.94448">
        <ele>162.2</ele>
        <time>2020-06-27T21:53:00Z</time>
      </trkpt>
      <trkpt lat="49.03414" lon="7.94448">
        <ele>162.2</ele>
        <time>2020-06-27T21:53:01Z</time>
      </trkpt>
      <trkpt lat="49.03414" lon="7.94449">
        <ele>162.2</ele>
        <time>2020-06-27T21:53:02Z</time>
      </trkpt>
      <trkpt lat="49.03414" lon="7.94449">
        <ele>162.1</ele>
        <time>2020-06-27T21:53:03Z</time>
      </trkpt>
      <trkpt lat="49.03413" lon="7.94448">
        <ele>162.2</ele>
        <time>2020-06-27T21:53:04Z</time>
      </trkpt>
      <trkpt lat="49.03413" lon="7.94446">
        <ele>162.2</ele>
        <time>2020-06-27T21:53:05Z</time>
      </trkpt>
      <trkpt lat="49.03412" lon="7.94446">
        <ele>162.2</ele>
        <time>2020-06-27T21:53:06Z</time>
      </trkpt>
      <trkpt lat="49.03412" lon="7.94445">
        <ele>162.2</ele>
        <time>2020-06-27T21:53:07Z</time>
      </trkpt>
      <trkpt lat="49.03411" lon="7.94445">
        <ele>162.3</ele>
        <time>2020-06-27T21:53:08Z</time>
      </trkpt>
      <trkpt lat="49.03411" lon="7.94445">
        <ele>162.3</ele>
        <time>2020-06-27T21:53:09Z</time>
      </trkpt>
      <trkpt lat="49.03411" lon="7.94446">
        <ele>162.2</ele>
        <time>2020-06-27T21:53:10Z</time>
      </trkpt>
      <trkpt lat="49.0341" lon="7.94446">
        <ele>162.2</ele>
        <time>2020-06-27T21:53:11Z</time>
      </trkpt>
      <trkpt lat="49.03411" lon="7.94446">
        <ele>162.2</ele>
        <time>2020-06-27T21:53:12Z</time>
      </trkpt>
      <trkpt lat="49.03411" lon="7.94447">
        <ele>162.2</ele>
        <time>2020-06-27T21:53:13Z</time>
      </trkpt>
      <trkpt lat="49.03411" lon="7.94447">
        <ele>162.2</ele>
        <time>2020-06-27T21:53:14Z</time>
      </trkpt>
      <trkpt lat="49.03411" lon="7.94447">
        <ele>162.2</ele>
        <time>2020-06-27T21:53:15Z</time>
      </trkpt>
      <trkpt lat="49.03411" lon="7.94447">
        <ele>162.2</ele>
        <time>2020-06-27T21:53:16Z</time>
      </trkpt>
      <trkpt lat="49.03411" lon="7.94447">
        <ele>162.2</ele>
        <time>2020-06-27T21:53:17Z</time>
      </trkpt>
      <trkpt lat="49.03411" lon="7.94447">
        <ele>162.2</ele>
        <time>2020-06-27T21:53:18Z</time>
      </trkpt>
      <trkpt lat="49.03411" lon="7.94447">
        <ele>162.2</ele>
        <time>2020-06-27T21:53:19Z</time>
      </trkpt>
      <trkpt lat="49.03414" lon="7.94454">
        <ele>162</ele>
        <time>2020-06-27T22:57:53Z</time>
      </trkpt>
      <trkpt lat="49.03415" lon="7.94455">
        <ele>162</ele>
        <time>2020-06-27T22:57:54Z</time>
      </trkpt>
      <trkpt lat="49.03416" lon="7.94458">
        <ele>161.8</ele>
        <time>2020-06-27T22:57:55Z</time>
      </trkpt>
      <trkpt lat="49.03417" lon="7.94458">
        <ele>161.8</ele>
        <time>2020-06-27T22:57:56Z</time>
      </trkpt>
      <trkpt lat="49.03418" lon="7.94459">
        <ele>161.8</ele>
        <time>2020-06-27T22:57:57Z</time>
      </trkpt>
      <trkpt lat="49.03419" lon="7.94459">
        <ele>161.7</ele>
        <time>2020-06-27T22:57:58Z</time>
      </trkpt>
      <trkpt lat="49.0342" lon="7.9446">
        <ele>161.7</ele>
        <time>2020-06-27T22:57:59Z</time>
      </trkpt>
      <trkpt lat="49.0342" lon="7.94461">
        <ele>161.7</ele>
        <time>2020-06-27T22:58:00Z</time>
      </trkpt>
      <trkpt lat="49.03421" lon="7.94462">
        <ele>161.7</ele>
        <time>2020-06-27T22:58:01Z</time>
      </trkpt>
      <trkpt lat="49.03423" lon="7.94463">
        <ele>161.5</ele>
        <time>2020-06-27T22:58:02Z</time>
      </trkpt>
      <trkpt lat="49.03423" lon="7.94464">
        <ele>161.5</ele>
        <time>2020-06-27T22:58:03Z</time>
      </trkpt>
      <trkpt lat="49.03424" lon="7.94465">
        <ele>161.5</ele>
        <time>2020-06-27T22:58:04Z</time>
      </trkpt>
      <trkpt lat="49.03424" lon="7.94465">
        <ele>161.5</ele>
        <time>2020-06-27T22:58:05Z</time>
      </trkpt>
      <trkpt lat="49.03425" lon="7.94465">
        <ele>161.5</ele>
        <time>2020-06-27T22:58:06Z</time>
      </trkpt>
      <trkpt lat="49.03425" lon="7.94466">
        <ele>161.5</ele>
        <time>2020-06-27T22:58:07Z</time>
      </trkpt>
      <trkpt lat="49.03425" lon="7.94466">
        <ele>161.5</ele>
        <time>2020-06-27T22:58:08Z</time>
      </trkpt>
      <trkpt lat="49.03425" lon="7.94466">
        <ele>161.5</ele>
        <time>2020-06-27T22:58:09Z</time>
      </trkpt>
      <trkpt lat="49.03425" lon="7.94466">
        <ele>161.5</ele>
        <time>2020-06-27T22:58:10Z</time>
      </trkpt>
      <trkpt lat="49.03426" lon="7.94466">
        <ele>161.5</ele>
        <time>2020-06-27T22:58:11Z</time>
      </trkpt>
      <trkpt lat="49.03426" lon="7.94467">
        <ele>161.3</ele>
        <time>2020-06-27T22:58:12Z</time>
      </trkpt>
      <trkpt lat="49.03426" lon="7.94468">
        <ele>161.3</ele>
        <time>2020-06-27T22:58:13Z</time>
      </trkpt>
      <trkpt lat="49.03426" lon="7.94468">
        <ele>161.3</ele>
        <time>2020-06-27T22:58:14Z</time>
      </trkpt>
      <trkpt lat="49.03425" lon="7.94469">
        <ele>161.3</ele>
        <time>2020-06-27T22:58:15Z</time>
      </trkpt>
      <trkpt lat="49.03425" lon="7.94469">
        <ele>161.3</ele>
        <time>2020-06-27T22:58:16Z</time>
      </trkpt>
      <trkpt lat="49.03424" lon="7.94469">
        <ele>161.4</ele>
        <time>2020-06-27T22:58:17Z</time>
      </trkpt>
      <trkpt lat="49.03423" lon="7.94468">
        <ele>161.4</ele>
        <time>2020-06-27T22:58:18Z</time>
      </trkpt>
      <trkpt lat="49.03423" lon="7.94468">
        <ele>161.4</ele>
        <time>2020-06-27T22:58:19Z</time>
      </trkpt>
      <trkpt lat="49.03422" lon="7.94467">
        <ele>161.4</ele>
        <time>2020-06-27T22:58:20Z</time>
      </trkpt>
      <trkpt lat="49.03422" lon="7.94468">
        <ele>161.4</ele>
        <time>2020-06-27T22:58:21Z</time>
      </trkpt>
      <trkpt lat="49.03422" lon="7.94468">
        <ele>161.4</ele>
        <time>2020-06-27T22:58:22Z</time>
      </trkpt>
      <trkpt lat="49.03422" lon="7.94468">
        <ele>161.4</ele>
        <time>2020-06-27T22:58:23Z</time>
      </trkpt>
      <trkpt lat="49.03423" lon="7.94466">
        <ele>161.4</ele>
        <time>2020-06-27T22:58:24Z</time>
      </trkpt>
      <trkpt lat="49.03424" lon="7.94463">
        <ele>161.5</ele>
        <time>2020-06-27T22:58:26Z</time>
      </trkpt>
      <trkpt lat="49.03424" lon="7.94462">
        <ele>161.5</ele>
        <time>2020-06-27T22:58:27Z</time>
      </trkpt>
      <trkpt lat="49.03423" lon="7.94461">
        <ele>161.7</ele>
        <time>2020-06-27T22:58:28Z</time>
      </trkpt>
      <trkpt lat="49.03423" lon="7.94461">
        <ele>161.7</ele>
        <time>2020-06-27T22:58:29Z</time>
      </trkpt>
      <trkpt lat="49.03423" lon="7.94461">
        <ele>161.7</ele>
        <time>2020-06-27T22:58:30Z</time>
      </trkpt>
      <trkpt lat="49.03423" lon="7.94461">
        <ele>161.7</ele>
        <time>2020-06-27T22:58:31Z</time>
      </trkpt>
      <trkpt lat="49.03424" lon="7.94461">
        <ele>161.7</ele>
        <time>2020-06-27T22:58:32Z</time>
      </trkpt>
      <trkpt lat="49.03425" lon="7.94461">
        <ele>161.6</ele>
        <time>2020-06-27T22:58:33Z</time>
      </trkpt>
      <trkpt lat="49.03428" lon="7.9446">
        <ele>161.6</ele>
        <time>2020-06-27T22:58:34Z</time>
      </trkpt>
      <trkpt lat="49.03429" lon="7.9446">
        <ele>161.6</ele>
        <time>2020-06-27T22:58:35Z</time>
      </trkpt>
      <trkpt lat="49.03431" lon="7.94459">
        <ele>161.5</ele>
        <time>2020-06-27T22:58:36Z</time>
      </trkpt>
      <trkpt lat="49.03433" lon="7.94459">
        <ele>161.5</ele>
        <time>2020-06-27T22:58:37Z</time>
      </trkpt>
      <trkpt lat="49.03434" lon="7.94458">
        <ele>161.5</ele>
        <time>2020-06-27T22:58:38Z</time>
      </trkpt>
      <trkpt lat="49.03435" lon="7.94458">
        <ele>161.5</ele>
        <time>2020-06-27T22:58:39Z</time>
      </trkpt>
      <trkpt lat="49.03436" lon="7.94457">
        <ele>161.5</ele>
        <time>2020-06-27T22:58:40Z</time>
      </trkpt>
      <trkpt lat="49.03437" lon="7.94456">
        <ele>161.5</ele>
        <time>2020-06-27T22:58:41Z</time>
      </trkpt>
      <trkpt lat="49.03437" lon="7.94455">
        <ele>161.5</ele>
        <time>2020-06-27T22:58:42Z</time>
      </trkpt>
      <trkpt lat="49.03438" lon="7.94454">
        <ele>161.5</ele>
        <time>2020-06-27T22:58:43Z</time>
      </trkpt>
      <trkpt lat="49.03438" lon="7.94454">
        <ele>161.5</ele>
        <time>2020-06-27T22:58:44Z</time>
      </trkpt>
      <trkpt lat="49.03438" lon="7.94454">
        <ele>161.5</ele>
        <time>2020-06-27T22:58:45Z</time>
      </trkpt>
      <trkpt lat="49.03438" lon="7.94454">
        <ele>161.5</ele>
        <time>2020-06-27T22:58:46Z</time>
      </trkpt>
      <trkpt lat="49.03437" lon="7.94456">
        <ele>161.5</ele>
        <time>2020-06-27T22:58:47Z</time>
      </trkpt>
      <trkpt lat="49.03437" lon="7.94456">
        <ele>161.5</ele>
        <time>2020-06-27T22:58:48Z</time>
      </trkpt>
      <trkpt lat="49.03437" lon="7.94456">
        <ele>161.5</ele>
        <time>2020-06-27T22:58:49Z</time>
      </trkpt>
      <trkpt lat="49.03437" lon="7.94456">
        <ele>161.5</ele>
        <time>2020-06-27T22:58:50Z</time>
      </trkpt>
      <trkpt lat="49.03437" lon="7.94456">
        <ele>161.5</ele>
        <time>2020-06-27T22:58:51Z</time>
      </trkpt>
      <trkpt lat="49.03437" lon="7.94457">
        <ele>161.5</ele>
        <time>2020-06-27T22:58:52Z</time>
      </trkpt>
      <trkpt lat="49.03437" lon="7.94457">
        <ele>161.5</ele>
        <time>2020-06-27T22:58:53Z</time>
      </trkpt>
      <trkpt lat="49.03437" lon="7.94458">
        <ele>161.4</ele>
        <time>2020-06-27T22:58:54Z</time>
      </trkpt>
      <trkpt lat="49.03436" lon="7.94458">
        <ele>161.4</ele>
        <time>2020-06-27T22:58:55Z</time>
      </trkpt>
      <trkpt lat="49.03436" lon="7.94458">
        <ele>161.4</ele>
        <time>2020-06-27T22:58:56Z</time>
      </trkpt>
      <trkpt lat="49.03436" lon="7.94458">
        <ele>161.4</ele>
        <time>2020-06-27T22:58:57Z</time>
      </trkpt>
      <trkpt lat="49.03437" lon="7.94459">
        <ele>161.4</ele>
        <time>2020-06-27T22:58:58Z</time>
      </trkpt>
      <trkpt lat="49.03437" lon="7.94459">
        <ele>161.4</ele>
        <time>2020-06-27T22:58:59Z</time>
      </trkpt>
      <trkpt lat="49.03437" lon="7.9446">
        <ele>161.4</ele>
        <time>2020-06-27T22:59:00Z</time>
      </trkpt>
      <trkpt lat="49.03438" lon="7.9446">
        <ele>161.4</ele>
        <time>2020-06-27T22:59:01Z</time>
      </trkpt>
      <trkpt lat="49.03438" lon="7.94462">
        <ele>161.4</ele>
        <time>2020-06-27T22:59:02Z</time>
      </trkpt>
      <trkpt lat="49.03438" lon="7.94462">
        <ele>161.3</ele>
        <time>2020-06-27T22:59:03Z</time>
      </trkpt>
      <trkpt lat="49.03438" lon="7.94462">
        <ele>161.3</ele>
        <time>2020-06-27T22:59:04Z</time>
      </trkpt>
      <trkpt lat="49.03437" lon="7.94462">
        <ele>161.3</ele>
        <time>2020-06-27T22:59:05Z</time>
      </trkpt>
      <trkpt lat="49.03437" lon="7.94462">
        <ele>161.3</ele>
        <time>2020-06-27T22:59:06Z</time>
      </trkpt>
      <trkpt lat="49.03436" lon="7.94462">
        <ele>161.3</ele>
        <time>2020-06-27T22:59:07Z</time>
      </trkpt>
      <trkpt lat="49.03436" lon="7.94462">
        <ele>161.4</ele>
        <time>2020-06-27T22:59:08Z</time>
      </trkpt>
      <trkpt lat="49.03436" lon="7.94461">
        <ele>161.4</ele>
        <time>2020-06-27T22:59:09Z</time>
      </trkpt>
      <trkpt lat="49.03436" lon="7.94461">
        <ele>161.4</ele>
        <time>2020-06-27T22:59:10Z</time>
      </trkpt>
      <trkpt lat="49.03436" lon="7.9446">
        <ele>161.4</ele>
        <time>2020-06-27T22:59:11Z</time>
      </trkpt>
      <trkpt lat="49.03436" lon="7.9446">
        <ele>161.4</ele>
        <time>2020-06-27T22:59:12Z</time>
      </trkpt>
      <trkpt lat="49.03437" lon="7.9446">
        <ele>161.4</ele>
        <time>2020-06-27T22:59:13Z</time>
      </trkpt>
      <trkpt lat="49.03437" lon="7.9446">
        <ele>161.4</ele>
        <time>2020-06-27T22:59:14Z</time>
      </trkpt>
    </trkseg>
  </trk>
</gpx>